<?xml version='1.0' encoding='UTF-8'?><gpx version="1.1" creator="JPX - https://github.com/jenetics/jpx" xmlns="http://www.topografix.com/GPX/1/1"><trk><trkseg><trkpt lat="50.84558405077545" lon="12.07194687484722"><ele>216.0</ele><time>2026-05-03T14:05:13.993Z</time></trkpt><trkpt lat="50.845644352027755" lon="12.07183360131916"><ele>216.0</ele><time>2026-05-03T14:05:15.993Z</time></trkpt><trkpt lat="50.84569392873656" lon="12.071717978685692"><ele>216.0</ele><time>2026-05-03T14:05:18.993Z</time></trkpt><trkpt lat="50.845685622555045" lon="12.071608874672553"><ele>216.0</ele><time>2026-05-03T14:05:20.993Z</time></trkpt><trkpt lat="50.845673557494266" lon="12.07150876438439"><ele>216.0</ele><time>2026-05-03T14:05:22.993Z</time></trkpt><trkpt lat="50.84566252608225" lon="12.071407206880066"><ele>216.0</ele><time>2026-05-03T14:05:24.993Z</time></trkpt><trkpt lat="50.8456651019912" lon="12.071292627953774"><ele>216.5</ele><time>2026-05-03T14:05:26.993Z</time></trkpt><trkpt lat="50.8456456802058" lon="12.07119121738859"><ele>217.0</ele><time>2026-05-03T14:05:28.993Z</time></trkpt><trkpt lat="50.84570228707184" lon="12.071122364440374"><ele>217.5</ele><time>2026-05-03T14:05:34.993Z</time></trkpt><trkpt lat="50.845749613715014" lon="12.070964643769708"><ele>218.0</ele><time>2026-05-03T14:05:37.993Z</time></trkpt><trkpt lat="50.84573206910634" lon="12.070846697816693"><ele>218.5</ele><time>2026-05-03T14:05:38.993Z</time></trkpt><trkpt lat="50.84570287814504" lon="12.07071074187303"><ele>219.0</ele><time>2026-05-03T14:05:39.993Z</time></trkpt><trkpt lat="50.845697932170935" lon="12.07056331309549"><ele>219.0</ele><time>2026-05-03T14:05:40.993Z</time></trkpt><trkpt lat="50.84567429402022" lon="12.070421634441345"><ele>218.99999999999997</ele><time>2026-05-03T14:05:41.993Z</time></trkpt><trkpt lat="50.84566198880116" lon="12.070237401591099"><ele>218.99999999999997</ele><time>2026-05-03T14:05:42.993Z</time></trkpt><trkpt lat="50.84563932969629" lon="12.070071563323994"><ele>219.0</ele><time>2026-05-03T14:05:43.993Z</time></trkpt><trkpt lat="50.84561989673971" lon="12.06988906508442"><ele>219.0</ele><time>2026-05-03T14:05:44.993Z</time></trkpt><trkpt lat="50.84559289754794" lon="12.069710506059733"><ele>219.0</ele><time>2026-05-03T14:05:45.993Z</time></trkpt><trkpt lat="50.84556687135181" lon="12.069546034625464"><ele>218.99999999999997</ele><time>2026-05-03T14:05:46.993Z</time></trkpt><trkpt lat="50.84553624696609" lon="12.06937874589758"><ele>218.99999999999997</ele><time>2026-05-03T14:05:47.993Z</time></trkpt><trkpt lat="50.84550769900775" lon="12.06920043975247"><ele>219.0</ele><time>2026-05-03T14:05:48.993Z</time></trkpt><trkpt lat="50.84548216932465" lon="12.069029776053437"><ele>219.0</ele><time>2026-05-03T14:05:49.993Z</time></trkpt><trkpt lat="50.84546089981661" lon="12.068844477412267"><ele>219.0</ele><time>2026-05-03T14:05:50.993Z</time></trkpt><trkpt lat="50.84543218668736" lon="12.068667997451534"><ele>219.0</ele><time>2026-05-03T14:05:51.993Z</time></trkpt><trkpt lat="50.845399024406746" lon="12.068503714534447"><ele>219.0</ele><time>2026-05-03T14:05:52.993Z</time></trkpt><trkpt lat="50.84536695619276" lon="12.068328185102912"><ele>219.0</ele><time>2026-05-03T14:05:53.993Z</time></trkpt><trkpt lat="50.84533003005192" lon="12.0681383191374"><ele>219.2</ele><time>2026-05-03T14:05:54.993Z</time></trkpt><trkpt lat="50.845300251061886" lon="12.06796196668541"><ele>219.39999999999998</ele><time>2026-05-03T14:05:55.993Z</time></trkpt><trkpt lat="50.84526756511996" lon="12.067800450916128"><ele>219.6</ele><time>2026-05-03T14:05:56.993Z</time></trkpt><trkpt lat="50.84523896220068" lon="12.06762969875128"><ele>219.8</ele><time>2026-05-03T14:05:57.993Z</time></trkpt><trkpt lat="50.84521172508176" lon="12.067462566015632"><ele>220.0</ele><time>2026-05-03T14:05:58.993Z</time></trkpt><trkpt lat="50.84518278766351" lon="12.06729918415149"><ele>220.4</ele><time>2026-05-03T14:05:59.993Z</time></trkpt><trkpt lat="50.84515071643167" lon="12.067136597609016"><ele>220.8</ele><time>2026-05-03T14:06:00.993Z</time></trkpt><trkpt lat="50.84512382039027" lon="12.066971537696293"><ele>221.2</ele><time>2026-05-03T14:06:01.989Z</time></trkpt><trkpt lat="50.845097354580275" lon="12.066805803083419"><ele>221.6</ele><time>2026-05-03T14:06:02.989Z</time></trkpt><trkpt lat="50.84507289645076" lon="12.066639261338432"><ele>222.0</ele><time>2026-05-03T14:06:03.989Z</time></trkpt><trkpt lat="50.84504411447594" lon="12.066479018630252"><ele>222.0</ele><time>2026-05-03T14:06:04.99Z</time></trkpt><trkpt lat="50.84499012220949" lon="12.0661598563239"><ele>222.0</ele><time>2026-05-03T14:06:06.989Z</time></trkpt><trkpt lat="50.84496119563184" lon="12.06600112886258"><ele>222.0</ele><time>2026-05-03T14:06:07.989Z</time></trkpt><trkpt lat="50.844929994413526" lon="12.065841689942143"><ele>222.0</ele><time>2026-05-03T14:06:08.99Z</time></trkpt><trkpt lat="50.84489527695379" lon="12.06568339565137"><ele>222.39999999999998</ele><time>2026-05-03T14:06:09.99Z</time></trkpt><trkpt lat="50.84486696972615" lon="12.06551518227136"><ele>222.79999999999998</ele><time>2026-05-03T14:06:10.989Z</time></trkpt><trkpt lat="50.84484114352754" lon="12.065348793693362"><ele>223.2</ele><time>2026-05-03T14:06:11.989Z</time></trkpt><trkpt lat="50.84481517919258" lon="12.065184298999133"><ele>223.6</ele><time>2026-05-03T14:06:12.989Z</time></trkpt><trkpt lat="50.84478395768919" lon="12.065025134322594"><ele>224.0</ele><time>2026-05-03T14:06:13.99Z</time></trkpt><trkpt lat="50.84475107664614" lon="12.064865170651684"><ele>224.2</ele><time>2026-05-03T14:06:14.989Z</time></trkpt><trkpt lat="50.84473191455665" lon="12.06470404515965"><ele>224.39999999999998</ele><time>2026-05-03T14:06:15.989Z</time></trkpt><trkpt lat="50.844699064376535" lon="12.064549522812502"><ele>224.6</ele><time>2026-05-03T14:06:16.989Z</time></trkpt><trkpt lat="50.84467275231776" lon="12.064396071086058"><ele>224.8</ele><time>2026-05-03T14:06:17.989Z</time></trkpt><trkpt lat="50.84464367852602" lon="12.064233600128452"><ele>225.0</ele><time>2026-05-03T14:06:18.989Z</time></trkpt><trkpt lat="50.84461314105687" lon="12.064060265975385"><ele>225.0</ele><time>2026-05-03T14:06:19.989Z</time></trkpt><trkpt lat="50.8445884776" lon="12.063889713511536"><ele>225.0</ele><time>2026-05-03T14:06:20.989Z</time></trkpt><trkpt lat="50.844576983525116" lon="12.063724996996651"><ele>225.0</ele><time>2026-05-03T14:06:21.989Z</time></trkpt><trkpt lat="50.84457127055596" lon="12.063579006715392"><ele>225.0</ele><time>2026-05-03T14:06:22.989Z</time></trkpt><trkpt lat="50.84456337106438" lon="12.06344912158271"><ele>225.0</ele><time>2026-05-03T14:06:23.989Z</time></trkpt><trkpt lat="50.844559414138615" lon="12.063326899639703"><ele>225.4</ele><time>2026-05-03T14:06:24.989Z</time></trkpt><trkpt lat="50.844546155327656" lon="12.063182725038233"><ele>225.8</ele><time>2026-05-03T14:06:25.989Z</time></trkpt><trkpt lat="50.844533306732714" lon="12.06301211586619"><ele>226.2</ele><time>2026-05-03T14:06:26.989Z</time></trkpt><trkpt lat="50.844524642965276" lon="12.062849897433603"><ele>226.6</ele><time>2026-05-03T14:06:27.989Z</time></trkpt><trkpt lat="50.84452033338285" lon="12.06266622994562"><ele>227.0</ele><time>2026-05-03T14:06:28.989Z</time></trkpt><trkpt lat="50.84451673338607" lon="12.062478487185968"><ele>227.75</ele><time>2026-05-03T14:06:29.989Z</time></trkpt><trkpt lat="50.8445122630909" lon="12.062291816713058"><ele>228.5</ele><time>2026-05-03T14:06:30.989Z</time></trkpt><trkpt lat="50.8445054464877" lon="12.062112132578164"><ele>229.25</ele><time>2026-05-03T14:06:31.989Z</time></trkpt><trkpt lat="50.84449928776229" lon="12.061927666845516"><ele>230.0</ele><time>2026-05-03T14:06:32.989Z</time></trkpt><trkpt lat="50.844490831571086" lon="12.061745815575325"><ele>230.4</ele><time>2026-05-03T14:06:33.989Z</time></trkpt><trkpt lat="50.84448271682629" lon="12.061568351785995"><ele>230.8</ele><time>2026-05-03T14:06:34.989Z</time></trkpt><trkpt lat="50.844474651217915" lon="12.061393382097974"><ele>231.2</ele><time>2026-05-03T14:06:35.989Z</time></trkpt><trkpt lat="50.84446665556309" lon="12.061216810594006"><ele>231.6</ele><time>2026-05-03T14:06:36.989Z</time></trkpt><trkpt lat="50.84446033361137" lon="12.061048600941664"><ele>232.0</ele><time>2026-05-03T14:06:37.989Z</time></trkpt><trkpt lat="50.844449429806865" lon="12.060873961433845"><ele>232.6</ele><time>2026-05-03T14:06:38.989Z</time></trkpt><trkpt lat="50.844443032824074" lon="12.060709464630692"><ele>233.2</ele><time>2026-05-03T14:06:39.989Z</time></trkpt><trkpt lat="50.84443405357071" lon="12.060543135150478"><ele>233.8</ele><time>2026-05-03T14:06:40.989Z</time></trkpt><trkpt lat="50.844421920774906" lon="12.060385327169195"><ele>234.4</ele><time>2026-05-03T14:06:41.989Z</time></trkpt><trkpt lat="50.844398036110775" lon="12.06022663093141"><ele>235.0</ele><time>2026-05-03T14:06:42.989Z</time></trkpt><trkpt lat="50.84437376017961" lon="12.060072263908202"><ele>235.0</ele><time>2026-05-03T14:06:43.989Z</time></trkpt><trkpt lat="50.84433398632007" lon="12.059926600342674"><ele>235.0</ele><time>2026-05-03T14:06:44.989Z</time></trkpt><trkpt lat="50.844282973942526" lon="12.059784448896709"><ele>235.0</ele><time>2026-05-03T14:06:45.989Z</time></trkpt><trkpt lat="50.844232076298425" lon="12.059638955595283"><ele>235.0</ele><time>2026-05-03T14:06:46.989Z</time></trkpt><trkpt lat="50.844161082671484" lon="12.059508507848756"><ele>235.0</ele><time>2026-05-03T14:06:47.989Z</time></trkpt><trkpt lat="50.84407751582682" lon="12.059386181954793"><ele>235.0</ele><time>2026-05-03T14:06:48.989Z</time></trkpt><trkpt lat="50.84399773589503" lon="12.059252138963153"><ele>235.0</ele><time>2026-05-03T14:06:49.989Z</time></trkpt><trkpt lat="50.84391980183726" lon="12.059117237526412"><ele>235.0</ele><time>2026-05-03T14:06:50.989Z</time></trkpt><trkpt lat="50.843841700771286" lon="12.058974887825949"><ele>235.0</ele><time>2026-05-03T14:06:51.989Z</time></trkpt><trkpt lat="50.84376757712399" lon="12.058835012198466"><ele>235.75</ele><time>2026-05-03T14:06:52.989Z</time></trkpt><trkpt lat="50.84369451863763" lon="12.058693244229627"><ele>236.5</ele><time>2026-05-03T14:06:53.989Z</time></trkpt><trkpt lat="50.84361707785626" lon="12.058554440651523"><ele>237.25</ele><time>2026-05-03T14:06:54.989Z</time></trkpt><trkpt lat="50.8435387341827" lon="12.058421055653708"><ele>238.0</ele><time>2026-05-03T14:06:55.989Z</time></trkpt><trkpt lat="50.84346937880317" lon="12.05828707029437"><ele>238.25</ele><time>2026-05-03T14:06:56.989Z</time></trkpt><trkpt lat="50.843394450397305" lon="12.058148408299196"><ele>238.5</ele><time>2026-05-03T14:06:57.989Z</time></trkpt><trkpt lat="50.84331478156076" lon="12.058015015537386"><ele>238.75</ele><time>2026-05-03T14:06:58.989Z</time></trkpt><trkpt lat="50.84323460623701" lon="12.057878445205187"><ele>239.0</ele><time>2026-05-03T14:06:59.989Z</time></trkpt><trkpt lat="50.84316223982543" lon="12.05774668571225"><ele>239.0</ele><time>2026-05-03T14:07:00.989Z</time></trkpt><trkpt lat="50.84308663094678" lon="12.05761233043803"><ele>238.99999999999997</ele><time>2026-05-03T14:07:01.989Z</time></trkpt><trkpt lat="50.84301751410971" lon="12.057479557991023"><ele>238.99999999999997</ele><time>2026-05-03T14:07:02.989Z</time></trkpt><trkpt lat="50.84294887557004" lon="12.057344082732136"><ele>239.0</ele><time>2026-05-03T14:07:03.989Z</time></trkpt><trkpt lat="50.84288218947886" lon="12.057199168075979"><ele>239.0</ele><time>2026-05-03T14:07:04.989Z</time></trkpt><trkpt lat="50.842826663861636" lon="12.057044838322575"><ele>239.2</ele><time>2026-05-03T14:07:05.989Z</time></trkpt><trkpt lat="50.84277804195667" lon="12.056889011050522"><ele>239.39999999999998</ele><time>2026-05-03T14:07:06.989Z</time></trkpt><trkpt lat="50.842733441456296" lon="12.056735232954441"><ele>239.6</ele><time>2026-05-03T14:07:07.989Z</time></trkpt><trkpt lat="50.84269454208739" lon="12.056572819410139"><ele>239.8</ele><time>2026-05-03T14:07:08.989Z</time></trkpt><trkpt lat="50.84265443201772" lon="12.056417252692054"><ele>240.0</ele><time>2026-05-03T14:07:09.989Z</time></trkpt><trkpt lat="50.84262118515535" lon="12.056255143900549"><ele>240.0</ele><time>2026-05-03T14:07:10.989Z</time></trkpt><trkpt lat="50.842594154547726" lon="12.0560918487356"><ele>240.0</ele><time>2026-05-03T14:07:11.989Z</time></trkpt><trkpt lat="50.842569093202044" lon="12.05593422711612"><ele>240.0</ele><time>2026-05-03T14:07:12.989Z</time></trkpt><trkpt lat="50.842554150944636" lon="12.055768737860124"><ele>240.0</ele><time>2026-05-03T14:07:13.989Z</time></trkpt><trkpt lat="50.842548060282766" lon="12.055598289267431"><ele>240.0</ele><time>2026-05-03T14:07:14.989Z</time></trkpt><trkpt lat="50.842549763830306" lon="12.055429091424825"><ele>240.6</ele><time>2026-05-03T14:07:15.989Z</time></trkpt><trkpt lat="50.842554705533836" lon="12.055256661104949"><ele>241.2</ele><time>2026-05-03T14:07:16.989Z</time></trkpt><trkpt lat="50.842560945683616" lon="12.055081681907197"><ele>241.8</ele><time>2026-05-03T14:07:17.989Z</time></trkpt><trkpt lat="50.84256938187253" lon="12.054913068003522"><ele>242.4</ele><time>2026-05-03T14:07:18.989Z</time></trkpt><trkpt lat="50.8425827190652" lon="12.054748165662012"><ele>243.0</ele><time>2026-05-03T14:07:19.989Z</time></trkpt><trkpt lat="50.84259790137911" lon="12.054579711126692"><ele>243.0</ele><time>2026-05-03T14:07:20.989Z</time></trkpt><trkpt lat="50.842611185874304" lon="12.054412298297382"><ele>243.0</ele><time>2026-05-03T14:07:21.989Z</time></trkpt><trkpt lat="50.842622700132736" lon="12.054243587477451"><ele>243.0</ele><time>2026-05-03T14:07:22.989Z</time></trkpt><trkpt lat="50.84263329723673" lon="12.054087256072805"><ele>243.0</ele><time>2026-05-03T14:07:23.989Z</time></trkpt><trkpt lat="50.842660421568034" lon="12.053942234689682"><ele>243.0</ele><time>2026-05-03T14:07:24.989Z</time></trkpt><trkpt lat="50.84267462931268" lon="12.053786607862074"><ele>245.0</ele><time>2026-05-03T14:07:25.989Z</time></trkpt><trkpt lat="50.842689375678276" lon="12.053630876293418"><ele>247.0</ele><time>2026-05-03T14:07:26.989Z</time></trkpt><trkpt lat="50.84270317811802" lon="12.053470539396496"><ele>249.0</ele><time>2026-05-03T14:07:27.989Z</time></trkpt><trkpt lat="50.84271579837424" lon="12.053313948934504"><ele>251.0</ele><time>2026-05-03T14:07:28.99Z</time></trkpt><trkpt lat="50.84273018551478" lon="12.053156488285067"><ele>253.0</ele><time>2026-05-03T14:07:29.99Z</time></trkpt><trkpt lat="50.84274740327667" lon="12.052999191611422"><ele>253.0</ele><time>2026-05-03T14:07:30.99Z</time></trkpt><trkpt lat="50.84276497254607" lon="12.052840305936959"><ele>253.0</ele><time>2026-05-03T14:07:31.99Z</time></trkpt><trkpt lat="50.84278894694499" lon="12.052685347941463"><ele>253.0</ele><time>2026-05-03T14:07:32.99Z</time></trkpt><trkpt lat="50.84281783717248" lon="12.05253654045667"><ele>253.0</ele><time>2026-05-03T14:07:33.99Z</time></trkpt><trkpt lat="50.84284692853888" lon="12.05239893656875"><ele>253.0</ele><time>2026-05-03T14:07:34.99Z</time></trkpt><trkpt lat="50.842892577837034" lon="12.052282015450483"><ele>252.83333333333331</ele><time>2026-05-03T14:07:35.99Z</time></trkpt><trkpt lat="50.842922619578914" lon="12.05216255359396"><ele>252.66666666666666</ele><time>2026-05-03T14:07:36.99Z</time></trkpt><trkpt lat="50.842954360933994" lon="12.052025004621791"><ele>252.5</ele><time>2026-05-03T14:07:37.99Z</time></trkpt><trkpt lat="50.842981759926616" lon="12.05188793765342"><ele>252.33333333333331</ele><time>2026-05-03T14:07:38.99Z</time></trkpt><trkpt lat="50.84299792070956" lon="12.051757609981065"><ele>252.16666666666666</ele><time>2026-05-03T14:07:39.99Z</time></trkpt><trkpt lat="50.84300724590663" lon="12.051627024254351"><ele>252.0</ele><time>2026-05-03T14:07:40.99Z</time></trkpt><trkpt lat="50.843014713380526" lon="12.051485398869652"><ele>251.66666666666666</ele><time>2026-05-03T14:07:41.99Z</time></trkpt><trkpt lat="50.84302670985104" lon="12.05134745778651"><ele>251.33333333333331</ele><time>2026-05-03T14:07:42.99Z</time></trkpt><trkpt lat="50.843043477168955" lon="12.051216633391737"><ele>251.0</ele><time>2026-05-03T14:07:43.99Z</time></trkpt><trkpt lat="50.843061647947586" lon="12.051082601410736"><ele>250.66666666666666</ele><time>2026-05-03T14:07:44.99Z</time></trkpt><trkpt lat="50.843079677738146" lon="12.05095020478024"><ele>250.33333333333331</ele><time>2026-05-03T14:07:45.99Z</time></trkpt><trkpt lat="50.84309304342771" lon="12.050813868494046"><ele>250.0</ele><time>2026-05-03T14:07:46.99Z</time></trkpt><trkpt lat="50.84310190757182" lon="12.050677940331656"><ele>249.66666666666666</ele><time>2026-05-03T14:07:47.99Z</time></trkpt><trkpt lat="50.84311124137938" lon="12.050546078246079"><ele>249.33333333333331</ele><time>2026-05-03T14:07:48.99Z</time></trkpt><trkpt lat="50.84312081123421" lon="12.050415080072499"><ele>249.0</ele><time>2026-05-03T14:07:49.99Z</time></trkpt><trkpt lat="50.84313060004097" lon="12.050278332772356"><ele>248.66666666666669</ele><time>2026-05-03T14:07:50.99Z</time></trkpt><trkpt lat="50.843138740410225" lon="12.050154495743605"><ele>248.33333333333334</ele><time>2026-05-03T14:07:51.99Z</time></trkpt><trkpt lat="50.84314670674849" lon="12.050034077088078"><ele>248.0</ele><time>2026-05-03T14:07:52.99Z</time></trkpt><trkpt lat="50.84315478526937" lon="12.049915678830448"><ele>247.85714285714286</ele><time>2026-05-03T14:07:53.99Z</time></trkpt><trkpt lat="50.84316367317748" lon="12.04980572973933"><ele>247.71428571428572</ele><time>2026-05-03T14:07:54.99Z</time></trkpt><trkpt lat="50.8431749537441" lon="12.049691571183509"><ele>247.57142857142858</ele><time>2026-05-03T14:07:55.99Z</time></trkpt><trkpt lat="50.84318835291904" lon="12.049574284329134"><ele>247.42857142857144</ele><time>2026-05-03T14:07:56.99Z</time></trkpt><trkpt lat="50.843204139078864" lon="12.049455463142227"><ele>247.28571428571428</ele><time>2026-05-03T14:07:57.99Z</time></trkpt><trkpt lat="50.84322592913896" lon="12.049335502464329"><ele>247.14285714285717</ele><time>2026-05-03T14:07:58.99Z</time></trkpt><trkpt lat="50.84324499333067" lon="12.04922657684937"><ele>247.0</ele><time>2026-05-03T14:07:59.99Z</time></trkpt><trkpt lat="50.843259389308216" lon="12.049114796849166"><ele>246.99999999999997</ele><time>2026-05-03T14:08:00.99Z</time></trkpt><trkpt lat="50.84328383218397" lon="12.04900629487623"><ele>247.0</ele><time>2026-05-03T14:08:01.99Z</time></trkpt><trkpt lat="50.84330363866358" lon="12.048895434489129"><ele>247.0</ele><time>2026-05-03T14:08:02.99Z</time></trkpt><trkpt lat="50.843342246803736" lon="12.048798562739032"><ele>247.0</ele><time>2026-05-03T14:08:03.99Z</time></trkpt><trkpt lat="50.84336122708044" lon="12.048651773710615"><ele>246.99999999999997</ele><time>2026-05-03T14:08:05.99Z</time></trkpt><trkpt lat="50.843478106543394" lon="12.048697329122886"><ele>247.0</ele><time>2026-05-03T14:08:08.988Z</time></trkpt><trkpt lat="50.84356157670805" lon="12.048706705370671"><ele>248.49999999999997</ele><time>2026-05-03T14:08:10.988Z</time></trkpt><trkpt lat="50.84367452352225" lon="12.048697286865961"><ele>250.0</ele><time>2026-05-03T14:08:12.988Z</time></trkpt><trkpt lat="50.84374396785074" lon="12.048668561823755"><ele>251.5</ele><time>2026-05-03T14:08:13.988Z</time></trkpt><trkpt lat="50.843817201948355" lon="12.048622403698197"><ele>253.0</ele><time>2026-05-03T14:08:14.988Z</time></trkpt><trkpt lat="50.84390298167026" lon="12.048551438118412"><ele>254.49999999999997</ele><time>2026-05-03T14:08:15.988Z</time></trkpt><trkpt lat="50.84397909624922" lon="12.048526143341869"><ele>256.0</ele><time>2026-05-03T14:08:16.988Z</time></trkpt><trkpt lat="50.844053991772235" lon="12.04845905458817"><ele>255.99999999999997</ele><time>2026-05-03T14:08:17.988Z</time></trkpt><trkpt lat="50.84413209290203" lon="12.048419076013664"><ele>256.0</ele><time>2026-05-03T14:08:18.988Z</time></trkpt><trkpt lat="50.84419255405574" lon="12.04837823606232"><ele>256.0</ele><time>2026-05-03T14:08:19.988Z</time></trkpt><trkpt lat="50.844260026365184" lon="12.048339445887136"><ele>256.0</ele><time>2026-05-03T14:08:20.988Z</time></trkpt><trkpt lat="50.84439949933188" lon="12.048293454927068"><ele>255.99999999999997</ele><time>2026-05-03T14:08:22.988Z</time></trkpt><trkpt lat="50.84447798848918" lon="12.048284243712722"><ele>256.0</ele><time>2026-05-03T14:08:23.988Z</time></trkpt><trkpt lat="50.84456116794111" lon="12.048298025397134"><ele>257.0</ele><time>2026-05-03T14:08:24.988Z</time></trkpt><trkpt lat="50.84466190319455" lon="12.048261056306455"><ele>258.0</ele><time>2026-05-03T14:08:25.988Z</time></trkpt><trkpt lat="50.84478125520832" lon="12.04827062617188"><ele>259.0</ele><time>2026-05-03T14:08:26.988Z</time></trkpt><trkpt lat="50.844865425597206" lon="12.048283853760855"><ele>260.0</ele><time>2026-05-03T14:08:27.988Z</time></trkpt><trkpt lat="50.844967258151456" lon="12.048290802585534"><ele>261.0</ele><time>2026-05-03T14:08:28.988Z</time></trkpt><trkpt lat="50.84505738819626" lon="12.04826322979412"><ele>262.8333333333333</ele><time>2026-05-03T14:08:29.988Z</time></trkpt><trkpt lat="50.84515259586198" lon="12.048256157003085"><ele>264.6666666666667</ele><time>2026-05-03T14:08:30.988Z</time></trkpt><trkpt lat="50.845253375963246" lon="12.048230260519645"><ele>266.5</ele><time>2026-05-03T14:08:31.988Z</time></trkpt><trkpt lat="50.845339457308896" lon="12.04822546955345"><ele>268.33333333333337</ele><time>2026-05-03T14:08:32.988Z</time></trkpt><trkpt lat="50.845412304330935" lon="12.048209013148947"><ele>270.1666666666667</ele><time>2026-05-03T14:08:33.988Z</time></trkpt><trkpt lat="50.8454953121223" lon="12.048190381489851"><ele>272.0</ele><time>2026-05-03T14:08:34.988Z</time></trkpt><trkpt lat="50.84557857686687" lon="12.048172312253575"><ele>272.0</ele><time>2026-05-03T14:08:35.988Z</time></trkpt><trkpt lat="50.84566439900342" lon="12.048153688027321"><ele>272.0</ele><time>2026-05-03T14:08:36.988Z</time></trkpt><trkpt lat="50.84575558617117" lon="12.04813389954939"><ele>272.0</ele><time>2026-05-03T14:08:37.988Z</time></trkpt><trkpt lat="50.84583413588278" lon="12.048116853513305"><ele>272.0</ele><time>2026-05-03T14:08:38.988Z</time></trkpt><trkpt lat="50.84591799625276" lon="12.04807477602491"><ele>272.0</ele><time>2026-05-03T14:08:39.988Z</time></trkpt><trkpt lat="50.846000957753816" lon="12.048079022681575"><ele>272.0</ele><time>2026-05-03T14:08:40.988Z</time></trkpt><trkpt lat="50.84607861900636" lon="12.048034296253919"><ele>273.5</ele><time>2026-05-03T14:08:41.988Z</time></trkpt><trkpt lat="50.84615708134859" lon="12.048023543392457"><ele>275.0</ele><time>2026-05-03T14:08:42.988Z</time></trkpt><trkpt lat="50.846238393276664" lon="12.04799928801052"><ele>276.5</ele><time>2026-05-03T14:08:43.988Z</time></trkpt><trkpt lat="50.846316420435066" lon="12.048007401343247"><ele>278.0</ele><time>2026-05-03T14:08:44.988Z</time></trkpt><trkpt lat="50.846387657319106" lon="12.047996030309836"><ele>279.5</ele><time>2026-05-03T14:08:45.988Z</time></trkpt><trkpt lat="50.846466552044575" lon="12.047982609258979"><ele>281.0</ele><time>2026-05-03T14:08:46.988Z</time></trkpt><trkpt lat="50.84654014111792" lon="12.047941459923692"><ele>281.0</ele><time>2026-05-03T14:08:47.988Z</time></trkpt><trkpt lat="50.84660916860884" lon="12.047920848809351"><ele>281.0</ele><time>2026-05-03T14:08:48.988Z</time></trkpt><trkpt lat="50.84671489897569" lon="12.04783491981895"><ele>281.0</ele><time>2026-05-03T14:08:50.988Z</time></trkpt><trkpt lat="50.84676858219835" lon="12.04771421313078"><ele>281.0</ele><time>2026-05-03T14:08:51.988Z</time></trkpt><trkpt lat="50.84681145945263" lon="12.047585132082524"><ele>281.0</ele><time>2026-05-03T14:08:52.988Z</time></trkpt><trkpt lat="50.84684764409108" lon="12.047456470574923"><ele>284.1666666666667</ele><time>2026-05-03T14:08:53.988Z</time></trkpt><trkpt lat="50.846861304281205" lon="12.04733433446266"><ele>287.33333333333337</ele><time>2026-05-03T14:08:54.988Z</time></trkpt><trkpt lat="50.846901507988434" lon="12.047225210241463"><ele>290.5</ele><time>2026-05-03T14:08:55.988Z</time></trkpt><trkpt lat="50.84691245787478" lon="12.047096450827476"><ele>293.6666666666667</ele><time>2026-05-03T14:08:56.988Z</time></trkpt><trkpt lat="50.84692963275844" lon="12.04697693431276"><ele>296.8333333333333</ele><time>2026-05-03T14:08:57.988Z</time></trkpt><trkpt lat="50.846967966574525" lon="12.046851328995194"><ele>300.0</ele><time>2026-05-03T14:08:58.988Z</time></trkpt><trkpt lat="50.84698981505693" lon="12.046723329308186"><ele>300.5</ele><time>2026-05-03T14:08:59.988Z</time></trkpt><trkpt lat="50.84701328372412" lon="12.04658583776669"><ele>301.0</ele><time>2026-05-03T14:09:00.988Z</time></trkpt><trkpt lat="50.84702186212573" lon="12.046454328819037"><ele>301.5</ele><time>2026-05-03T14:09:01.988Z</time></trkpt><trkpt lat="50.847040611367106" lon="12.046324250970041"><ele>302.0</ele><time>2026-05-03T14:09:02.988Z</time></trkpt><trkpt lat="50.84706087154174" lon="12.046200386229291"><ele>302.5</ele><time>2026-05-03T14:09:03.988Z</time></trkpt><trkpt lat="50.84707680365127" lon="12.046088007575129"><ele>303.0</ele><time>2026-05-03T14:09:04.988Z</time></trkpt><trkpt lat="50.84710856303255" lon="12.045998371283822"><ele>303.0</ele><time>2026-05-03T14:09:05.988Z</time></trkpt><trkpt lat="50.84716377871157" lon="12.045820068436688"><ele>303.0</ele><time>2026-05-03T14:09:07.988Z</time></trkpt><trkpt lat="50.84720234714861" lon="12.045738543306443"><ele>303.0</ele><time>2026-05-03T14:09:08.988Z</time></trkpt><trkpt lat="50.847249456390365" lon="12.045666220141667"><ele>303.0</ele><time>2026-05-03T14:09:09.988Z</time></trkpt><trkpt lat="50.84729879617398" lon="12.045602988705598"><ele>303.0</ele><time>2026-05-03T14:09:10.988Z</time></trkpt><trkpt lat="50.847353770803416" lon="12.045526789039847"><ele>303.0</ele><time>2026-05-03T14:09:11.988Z</time></trkpt><trkpt lat="50.847429901387166" lon="12.045470868773474"><ele>303.42857142857144</ele><time>2026-05-03T14:09:12.988Z</time></trkpt><trkpt lat="50.84748912888019" lon="12.045433324226897"><ele>303.85714285714283</ele><time>2026-05-03T14:09:13.988Z</time></trkpt><trkpt lat="50.84755847547263" lon="12.045396745399579"><ele>304.2857142857143</ele><time>2026-05-03T14:09:14.988Z</time></trkpt><trkpt lat="50.847624806632965" lon="12.045362269981073"><ele>304.7142857142857</ele><time>2026-05-03T14:09:15.988Z</time></trkpt><trkpt lat="50.84770759300809" lon="12.045320289109545"><ele>305.14285714285717</ele><time>2026-05-03T14:09:16.988Z</time></trkpt><trkpt lat="50.847783012108174" lon="12.045272721019288"><ele>305.57142857142856</ele><time>2026-05-03T14:09:17.988Z</time></trkpt><trkpt lat="50.847837375724936" lon="12.045219256750034"><ele>306.0</ele><time>2026-05-03T14:09:18.988Z</time></trkpt><trkpt lat="50.8479406048442" lon="12.045156458858331"><ele>308.25</ele><time>2026-05-03T14:09:20.988Z</time></trkpt><trkpt lat="50.848017771362564" lon="12.045053965385453"><ele>310.5</ele><time>2026-05-03T14:09:22.988Z</time></trkpt><trkpt lat="50.84807665038379" lon="12.044949376539806"><ele>312.75</ele><time>2026-05-03T14:09:24.988Z</time></trkpt><trkpt lat="50.84825157682927" lon="12.044985470195495"><ele>315.0</ele><time>2026-05-03T14:09:25.988Z</time></trkpt><trkpt lat="50.84833601838929" lon="12.044995070410023"><ele>315.0</ele><time>2026-05-03T14:09:27.988Z</time></trkpt><trkpt lat="50.84843155192801" lon="12.044971107114574"><ele>315.0</ele><time>2026-05-03T14:09:29.988Z</time></trkpt><trkpt lat="50.84855989275407" lon="12.044972982981454"><ele>315.0</ele><time>2026-05-03T14:09:31.988Z</time></trkpt><trkpt lat="50.84862828462328" lon="12.044953757897375"><ele>315.0</ele><time>2026-05-03T14:09:32.988Z</time></trkpt><trkpt lat="50.84869898904215" lon="12.044903038179873"><ele>315.0</ele><time>2026-05-03T14:09:33.988Z</time></trkpt><trkpt lat="50.848772133600946" lon="12.044872373430465"><ele>315.0</ele><time>2026-05-03T14:09:34.988Z</time></trkpt><trkpt lat="50.84884408872874" lon="12.044844607579208"><ele>315.5</ele><time>2026-05-03T14:09:35.988Z</time></trkpt><trkpt lat="50.84892294966983" lon="12.044813804099874"><ele>316.0</ele><time>2026-05-03T14:09:36.988Z</time></trkpt><trkpt lat="50.84899224404274" lon="12.04477958884921"><ele>316.5</ele><time>2026-05-03T14:09:37.988Z</time></trkpt><trkpt lat="50.849066031473335" lon="12.044765906925411"><ele>317.0</ele><time>2026-05-03T14:09:38.988Z</time></trkpt><trkpt lat="50.84914058259229" lon="12.044733520433143"><ele>317.5</ele><time>2026-05-03T14:09:39.988Z</time></trkpt><trkpt lat="50.84921041046343" lon="12.044678909890457"><ele>318.0</ele><time>2026-05-03T14:09:40.988Z</time></trkpt><trkpt lat="50.84928263222638" lon="12.044673543186192"><ele>317.8333333333333</ele><time>2026-05-03T14:09:41.988Z</time></trkpt><trkpt lat="50.84935368115156" lon="12.04464414101575"><ele>317.6666666666667</ele><time>2026-05-03T14:09:42.988Z</time></trkpt><trkpt lat="50.84944115938358" lon="12.044607939892138"><ele>317.5</ele><time>2026-05-03T14:09:43.988Z</time></trkpt><trkpt lat="50.84952334492425" lon="12.04453512761161"><ele>317.33333333333337</ele><time>2026-05-03T14:09:44.988Z</time></trkpt><trkpt lat="50.84962190253853" lon="12.044485405061705"><ele>317.1666666666667</ele><time>2026-05-03T14:09:45.988Z</time></trkpt><trkpt lat="50.84969833543156" lon="12.044465160802867"><ele>317.0</ele><time>2026-05-03T14:09:46.988Z</time></trkpt><trkpt lat="50.84977850109577" lon="12.04443936117437"><ele>317.0</ele><time>2026-05-03T14:09:47.988Z</time></trkpt><trkpt lat="50.84984539602798" lon="12.044399892466206"><ele>317.0</ele><time>2026-05-03T14:09:48.988Z</time></trkpt><trkpt lat="50.849910066897145" lon="12.044376414528859"><ele>317.0</ele><time>2026-05-03T14:09:49.988Z</time></trkpt><trkpt lat="50.84998289829909" lon="12.0443347698069"><ele>317.0</ele><time>2026-05-03T14:09:51.988Z</time></trkpt><trkpt lat="50.85005606464416" lon="12.044187074296689"><ele>317.0</ele><time>2026-05-03T14:09:53.988Z</time></trkpt><trkpt lat="50.85006233669916" lon="12.044077666677943"><ele>317.0</ele><time>2026-05-03T14:09:54.988Z</time></trkpt><trkpt lat="50.850015023978436" lon="12.043876659919048"><ele>317.1666666666667</ele><time>2026-05-03T14:09:56.988Z</time></trkpt><trkpt lat="50.84999742021585" lon="12.043739174689112"><ele>317.33333333333337</ele><time>2026-05-03T14:09:57.988Z</time></trkpt><trkpt lat="50.84997501331871" lon="12.04359942026751"><ele>317.5</ele><time>2026-05-03T14:09:58.988Z</time></trkpt><trkpt lat="50.849961980474106" lon="12.043452178088565"><ele>317.6666666666667</ele><time>2026-05-03T14:09:59.988Z</time></trkpt><trkpt lat="50.84995214738094" lon="12.04331866204067"><ele>317.8333333333333</ele><time>2026-05-03T14:10:00.988Z</time></trkpt><trkpt lat="50.84994164851192" lon="12.043181214452229"><ele>318.0</ele><time>2026-05-03T14:10:01.988Z</time></trkpt><trkpt lat="50.84993948270649" lon="12.043045358090747"><ele>318.4</ele><time>2026-05-03T14:10:02.988Z</time></trkpt><trkpt lat="50.84994783117689" lon="12.042907115900062"><ele>318.8</ele><time>2026-05-03T14:10:03.988Z</time></trkpt><trkpt lat="50.84997014705304" lon="12.042768646733267"><ele>319.2</ele><time>2026-05-03T14:10:04.988Z</time></trkpt><trkpt lat="50.849983476138114" lon="12.042605644244265"><ele>319.6</ele><time>2026-05-03T14:10:05.988Z</time></trkpt><trkpt lat="50.84999174986538" lon="12.042431534193915"><ele>320.0</ele><time>2026-05-03T14:10:06.988Z</time></trkpt><trkpt lat="50.85001605552939" lon="12.042264122676828"><ele>320.5</ele><time>2026-05-03T14:10:07.988Z</time></trkpt><trkpt lat="50.85003786116944" lon="12.042088922725895"><ele>321.0</ele><time>2026-05-03T14:10:08.988Z</time></trkpt><trkpt lat="50.85006319711173" lon="12.041910580301135"><ele>321.5</ele><time>2026-05-03T14:10:09.988Z</time></trkpt><trkpt lat="50.85008493865051" lon="12.041733379824429"><ele>322.0</ele><time>2026-05-03T14:10:10.988Z</time></trkpt><trkpt lat="50.850127523702625" lon="12.041566359828915"><ele>321.6</ele><time>2026-05-03T14:10:11.988Z</time></trkpt><trkpt lat="50.85014873054825" lon="12.041392532362273"><ele>321.20000000000005</ele><time>2026-05-03T14:10:12.988Z</time></trkpt><trkpt lat="50.85015534780807" lon="12.041216745602473"><ele>320.8</ele><time>2026-05-03T14:10:13.986Z</time></trkpt><trkpt lat="50.8501760149413" lon="12.041048748648759"><ele>320.4</ele><time>2026-05-03T14:10:14.986Z</time></trkpt><trkpt lat="50.85019220436697" lon="12.040877031561521"><ele>320.0</ele><time>2026-05-03T14:10:15.986Z</time></trkpt><trkpt lat="50.85021564016297" lon="12.040706028988648"><ele>320.0</ele><time>2026-05-03T14:10:16.986Z</time></trkpt><trkpt lat="50.85023145878298" lon="12.04053180854733"><ele>320.0</ele><time>2026-05-03T14:10:17.986Z</time></trkpt><trkpt lat="50.85025014258071" lon="12.040359987657455"><ele>320.0</ele><time>2026-05-03T14:10:18.986Z</time></trkpt><trkpt lat="50.85026902042517" lon="12.040199127358939"><ele>320.0</ele><time>2026-05-03T14:10:19.987Z</time></trkpt><trkpt lat="50.85027859907619" lon="12.040027880744802"><ele>320.0</ele><time>2026-05-03T14:10:20.986Z</time></trkpt><trkpt lat="50.850297524388715" lon="12.039857119768238"><ele>319.8</ele><time>2026-05-03T14:10:21.986Z</time></trkpt><trkpt lat="50.85031679542781" lon="12.039692178781628"><ele>319.6</ele><time>2026-05-03T14:10:22.987Z</time></trkpt><trkpt lat="50.850335780500174" lon="12.03952997762252"><ele>319.4</ele><time>2026-05-03T14:10:23.986Z</time></trkpt><trkpt lat="50.85035194690299" lon="12.039373097639228"><ele>319.2</ele><time>2026-05-03T14:10:24.986Z</time></trkpt><trkpt lat="50.850381795065765" lon="12.039209998296734"><ele>319.0</ele><time>2026-05-03T14:10:25.986Z</time></trkpt><trkpt lat="50.85039969207988" lon="12.03904859343538"><ele>319.0</ele><time>2026-05-03T14:10:26.987Z</time></trkpt><trkpt lat="50.850417978982385" lon="12.038896019972253"><ele>319.0</ele><time>2026-05-03T14:10:27.987Z</time></trkpt><trkpt lat="50.85042107487218" lon="12.038732289058073"><ele>319.0</ele><time>2026-05-03T14:10:28.987Z</time></trkpt><trkpt lat="50.85044830928526" lon="12.038569523332786"><ele>319.0</ele><time>2026-05-03T14:10:29.987Z</time></trkpt><trkpt lat="50.850466058557274" lon="12.03841058663253"><ele>319.0</ele><time>2026-05-03T14:10:30.987Z</time></trkpt><trkpt lat="50.850480261627006" lon="12.038265782699787"><ele>319.16666666666663</ele><time>2026-05-03T14:10:31.987Z</time></trkpt><trkpt lat="50.85049630551392" lon="12.038123403946802"><ele>319.3333333333333</ele><time>2026-05-03T14:10:32.987Z</time></trkpt><trkpt lat="50.85050874362493" lon="12.037997447363546"><ele>319.5</ele><time>2026-05-03T14:10:33.987Z</time></trkpt><trkpt lat="50.850516975799266" lon="12.037878676188239"><ele>319.6666666666667</ele><time>2026-05-03T14:10:34.987Z</time></trkpt><trkpt lat="50.85052441193868" lon="12.037748628560657"><ele>319.83333333333337</ele><time>2026-05-03T14:10:35.987Z</time></trkpt><trkpt lat="50.8505371634806" lon="12.037619157881174"><ele>320.0</ele><time>2026-05-03T14:10:36.987Z</time></trkpt><trkpt lat="50.850546468334905" lon="12.037473236266093"><ele>320.4</ele><time>2026-05-03T14:10:37.987Z</time></trkpt><trkpt lat="50.850558362638154" lon="12.037312420540466"><ele>320.8</ele><time>2026-05-03T14:10:38.987Z</time></trkpt><trkpt lat="50.85056397264166" lon="12.037160716313632"><ele>321.20000000000005</ele><time>2026-05-03T14:10:39.987Z</time></trkpt><trkpt lat="50.85056031340546" lon="12.037003832384794"><ele>321.6</ele><time>2026-05-03T14:10:40.987Z</time></trkpt><trkpt lat="50.85055624415483" lon="12.036847471950827"><ele>322.0</ele><time>2026-05-03T14:10:41.987Z</time></trkpt><trkpt lat="50.85054991546194" lon="12.036693874826344"><ele>322.5</ele><time>2026-05-03T14:10:42.987Z</time></trkpt><trkpt lat="50.85055643596446" lon="12.036566632556784"><ele>323.0</ele><time>2026-05-03T14:10:43.987Z</time></trkpt><trkpt lat="50.85055200524123" lon="12.036434191648329"><ele>323.5</ele><time>2026-05-03T14:10:44.987Z</time></trkpt><trkpt lat="50.85054960397847" lon="12.036313337225582"><ele>324.0</ele><time>2026-05-03T14:10:45.987Z</time></trkpt><trkpt lat="50.85053650226516" lon="12.036202776172376"><ele>324.5</ele><time>2026-05-03T14:10:46.987Z</time></trkpt><trkpt lat="50.850534897866396" lon="12.036099932545644"><ele>325.0</ele><time>2026-05-03T14:10:47.987Z</time></trkpt><trkpt lat="50.850543042578025" lon="12.035983111336694"><ele>325.0</ele><time>2026-05-03T14:10:48.987Z</time></trkpt><trkpt lat="50.85055933594795" lon="12.035798812774292"><ele>325.0</ele><time>2026-05-03T14:10:50.987Z</time></trkpt><trkpt lat="50.85057096747136" lon="12.035614708958258"><ele>325.0</ele><time>2026-05-03T14:10:52.987Z</time></trkpt><trkpt lat="50.850578597014646" lon="12.035418031417919"><ele>325.0</ele><time>2026-05-03T14:10:54.987Z</time></trkpt><trkpt lat="50.85058699827977" lon="12.035299529191644"><ele>325.0</ele><time>2026-05-03T14:10:55.987Z</time></trkpt><trkpt lat="50.85059559482414" lon="12.035179990230152"><ele>325.0</ele><time>2026-05-03T14:10:56.987Z</time></trkpt><trkpt lat="50.850606480442025" lon="12.035060851673862"><ele>325.0</ele><time>2026-05-03T14:10:57.987Z</time></trkpt><trkpt lat="50.850613445084235" lon="12.034945814273435"><ele>325.0</ele><time>2026-05-03T14:10:58.987Z</time></trkpt><trkpt lat="50.850623428999484" lon="12.034831789352966"><ele>325.0</ele><time>2026-05-03T14:10:59.987Z</time></trkpt><trkpt lat="50.850631815869036" lon="12.034712378734273"><ele>325.0</ele><time>2026-05-03T14:11:00.987Z</time></trkpt><trkpt lat="50.85064480955459" lon="12.034599794919972"><ele>325.0</ele><time>2026-05-03T14:11:01.987Z</time></trkpt><trkpt lat="50.85065930192295" lon="12.034487636700026"><ele>325.0</ele><time>2026-05-03T14:11:02.987Z</time></trkpt><trkpt lat="50.85067440898184" lon="12.034372424566852"><ele>325.0</ele><time>2026-05-03T14:11:03.987Z</time></trkpt><trkpt lat="50.850689495337896" lon="12.03426226669967"><ele>325.0</ele><time>2026-05-03T14:11:04.987Z</time></trkpt><trkpt lat="50.85070672807614" lon="12.034152795778102"><ele>325.0</ele><time>2026-05-03T14:11:05.987Z</time></trkpt><trkpt lat="50.85072418171564" lon="12.034034267222184"><ele>325.0</ele><time>2026-05-03T14:11:06.987Z</time></trkpt><trkpt lat="50.850737157309375" lon="12.033915952504598"><ele>325.0</ele><time>2026-05-03T14:11:07.987Z</time></trkpt><trkpt lat="50.850749283124976" lon="12.03379874568287"><ele>325.0</ele><time>2026-05-03T14:11:08.987Z</time></trkpt><trkpt lat="50.8507682930285" lon="12.033688927816728"><ele>325.0</ele><time>2026-05-03T14:11:09.987Z</time></trkpt><trkpt lat="50.85079085734872" lon="12.033572831695242"><ele>325.0</ele><time>2026-05-03T14:11:10.987Z</time></trkpt><trkpt lat="50.8508143630871" lon="12.033455398283756"><ele>325.0</ele><time>2026-05-03T14:11:11.987Z</time></trkpt><trkpt lat="50.85083578897607" lon="12.033343946050268"><ele>325.0</ele><time>2026-05-03T14:11:12.987Z</time></trkpt><trkpt lat="50.850860689890055" lon="12.033232030805522"><ele>325.0</ele><time>2026-05-03T14:11:13.987Z</time></trkpt><trkpt lat="50.85088633234997" lon="12.033120875386391"><ele>325.0</ele><time>2026-05-03T14:11:14.987Z</time></trkpt><trkpt lat="50.85091045441526" lon="12.033010764972593"><ele>325.0</ele><time>2026-05-03T14:11:15.987Z</time></trkpt><trkpt lat="50.85093496274276" lon="12.032902117850929"><ele>325.0</ele><time>2026-05-03T14:11:16.987Z</time></trkpt><trkpt lat="50.85095657358519" lon="12.032806096391404"><ele>324.57142857142856</ele><time>2026-05-03T14:11:17.987Z</time></trkpt><trkpt lat="50.850991796215425" lon="12.032720709128332"><ele>324.14285714285717</ele><time>2026-05-03T14:11:20.987Z</time></trkpt><trkpt lat="50.85103717542469" lon="12.032615949682336"><ele>323.7142857142857</ele><time>2026-05-03T14:11:25.987Z</time></trkpt><trkpt lat="50.85104593417563" lon="12.032497149101637"><ele>323.2857142857143</ele><time>2026-05-03T14:11:26.987Z</time></trkpt><trkpt lat="50.85106924167942" lon="12.032389926280173"><ele>322.8571428571429</ele><time>2026-05-03T14:11:27.987Z</time></trkpt><trkpt lat="50.85109078024196" lon="12.032276939920177"><ele>322.42857142857144</ele><time>2026-05-03T14:11:28.987Z</time></trkpt><trkpt lat="50.85112334919318" lon="12.032165553326678"><ele>322.0</ele><time>2026-05-03T14:11:29.987Z</time></trkpt><trkpt lat="50.8511408481957" lon="12.032042156162952"><ele>322.0</ele><time>2026-05-03T14:11:30.987Z</time></trkpt><trkpt lat="50.85115742105318" lon="12.031900689993776"><ele>322.0</ele><time>2026-05-03T14:11:31.987Z</time></trkpt><trkpt lat="50.85116966958386" lon="12.031767378602954"><ele>322.0</ele><time>2026-05-03T14:11:32.987Z</time></trkpt><trkpt lat="50.8511646706873" lon="12.031635337268737"><ele>322.0</ele><time>2026-05-03T14:11:33.987Z</time></trkpt><trkpt lat="50.85118008442786" lon="12.031504374003163"><ele>322.0</ele><time>2026-05-03T14:11:34.987Z</time></trkpt><trkpt lat="50.851183471168476" lon="12.031367216307668"><ele>322.0</ele><time>2026-05-03T14:11:35.987Z</time></trkpt><trkpt lat="50.85118205899083" lon="12.031240395010562"><ele>321.8333333333333</ele><time>2026-05-03T14:11:36.987Z</time></trkpt><trkpt lat="50.85118317486776" lon="12.031109801799298"><ele>321.66666666666663</ele><time>2026-05-03T14:11:37.987Z</time></trkpt><trkpt lat="50.8511885880463" lon="12.030967871279024"><ele>321.5</ele><time>2026-05-03T14:11:38.987Z</time></trkpt><trkpt lat="50.851194690924174" lon="12.030816687919511"><ele>321.3333333333333</ele><time>2026-05-03T14:11:39.987Z</time></trkpt><trkpt lat="50.85119930078299" lon="12.030673533102764"><ele>321.1666666666667</ele><time>2026-05-03T14:11:40.987Z</time></trkpt><trkpt lat="50.85120254560008" lon="12.030542754874055"><ele>321.0</ele><time>2026-05-03T14:11:41.987Z</time></trkpt><trkpt lat="50.85120053856676" lon="12.030408105288533"><ele>321.0</ele><time>2026-05-03T14:11:42.987Z</time></trkpt><trkpt lat="50.85119630999185" lon="12.030278579050757"><ele>321.0</ele><time>2026-05-03T14:11:43.987Z</time></trkpt><trkpt lat="50.85118334856884" lon="12.030147362100777"><ele>321.0</ele><time>2026-05-03T14:11:44.987Z</time></trkpt><trkpt lat="50.85116683858159" lon="12.030017544102597"><ele>321.0</ele><time>2026-05-03T14:11:45.987Z</time></trkpt><trkpt lat="50.851150146104956" lon="12.029890971005532"><ele>321.0</ele><time>2026-05-03T14:11:46.987Z</time></trkpt><trkpt lat="50.85113518978387" lon="12.02976752070703"><ele>321.0</ele><time>2026-05-03T14:11:47.987Z</time></trkpt><trkpt lat="50.85112071925457" lon="12.02966053395651"><ele>321.0</ele><time>2026-05-03T14:11:48.987Z</time></trkpt><trkpt lat="50.85111640695655" lon="12.029538981755609"><ele>321.0</ele><time>2026-05-03T14:11:49.987Z</time></trkpt><trkpt lat="50.85114747344109" lon="12.029419362974597"><ele>321.0</ele><time>2026-05-03T14:11:50.987Z</time></trkpt><trkpt lat="50.85115178625924" lon="12.029294281191758"><ele>321.0</ele><time>2026-05-03T14:11:51.987Z</time></trkpt><trkpt lat="50.85116124541918" lon="12.029156036230974"><ele>321.0</ele><time>2026-05-03T14:11:52.987Z</time></trkpt><trkpt lat="50.85115617442045" lon="12.029047259071827"><ele>321.0</ele><time>2026-05-03T14:11:53.987Z</time></trkpt><trkpt lat="50.851165242742134" lon="12.02892913707209"><ele>321.0</ele><time>2026-05-03T14:11:54.987Z</time></trkpt><trkpt lat="50.85118852920205" lon="12.028825215612727"><ele>321.0</ele><time>2026-05-03T14:11:55.987Z</time></trkpt><trkpt lat="50.851232775142726" lon="12.02873080190897"><ele>321.0</ele><time>2026-05-03T14:11:56.987Z</time></trkpt><trkpt lat="50.85122051549669" lon="12.028582875560376"><ele>321.0</ele><time>2026-05-03T14:11:57.987Z</time></trkpt><trkpt lat="50.851176846194015" lon="12.028487159822076"><ele>321.0</ele><time>2026-05-03T14:11:58.987Z</time></trkpt><trkpt lat="50.8511621517985" lon="12.028367578186348"><ele>321.0</ele><time>2026-05-03T14:11:59.987Z</time></trkpt><trkpt lat="50.85113286607576" lon="12.02825954597942"><ele>320.99999999999994</ele><time>2026-05-03T14:12:00.987Z</time></trkpt><trkpt lat="50.851102797174114" lon="12.02814961858262"><ele>321.0</ele><time>2026-05-03T14:12:01.987Z</time></trkpt><trkpt lat="50.85107228433369" lon="12.028038086728332"><ele>321.0</ele><time>2026-05-03T14:12:02.987Z</time></trkpt><trkpt lat="50.85103919466719" lon="12.027925283573522"><ele>321.0</ele><time>2026-05-03T14:12:03.987Z</time></trkpt><trkpt lat="50.851004261194134" lon="12.02781283105792"><ele>321.0</ele><time>2026-05-03T14:12:04.987Z</time></trkpt><trkpt lat="50.850973850728735" lon="12.027711811843897"><ele>320.99999999999994</ele><time>2026-05-03T14:12:05.987Z</time></trkpt><trkpt lat="50.850949228749016" lon="12.027615643638939"><ele>321.0</ele><time>2026-05-03T14:12:06.987Z</time></trkpt><trkpt lat="50.85092554684065" lon="12.027509534237607"><ele>320.6666666666667</ele><time>2026-05-03T14:12:07.987Z</time></trkpt><trkpt lat="50.85089014833745" lon="12.027394525558886"><ele>320.3333333333333</ele><time>2026-05-03T14:12:08.988Z</time></trkpt><trkpt lat="50.850852966328304" lon="12.027282477424409"><ele>320.0</ele><time>2026-05-03T14:12:09.988Z</time></trkpt><trkpt lat="50.850816519003175" lon="12.0271820405961"><ele>319.66666666666663</ele><time>2026-05-03T14:12:10.986Z</time></trkpt><trkpt lat="50.85076765311625" lon="12.027074037637767"><ele>319.3333333333333</ele><time>2026-05-03T14:12:11.985Z</time></trkpt><trkpt lat="50.85070488762394" lon="12.026968971380553"><ele>319.0</ele><time>2026-05-03T14:12:12.985Z</time></trkpt><trkpt lat="50.85065143320212" lon="12.026876008730497"><ele>319.0</ele><time>2026-05-03T14:12:13.984Z</time></trkpt><trkpt lat="50.850597603220905" lon="12.026778201330519"><ele>319.0</ele><time>2026-05-03T14:12:14.983Z</time></trkpt><trkpt lat="50.85052911604383" lon="12.026689221745656"><ele>319.0</ele><time>2026-05-03T14:12:15.982Z</time></trkpt><trkpt lat="50.85047862415238" lon="12.026558731606167"><ele>319.0</ele><time>2026-05-03T14:12:16.981Z</time></trkpt><trkpt lat="50.85042162584233" lon="12.026444431560808"><ele>319.0</ele><time>2026-05-03T14:12:17.981Z</time></trkpt><trkpt lat="50.85035573999619" lon="12.026319824414866"><ele>319.0</ele><time>2026-05-03T14:12:18.98Z</time></trkpt><trkpt lat="50.85029242142122" lon="12.026188085872574"><ele>319.0</ele><time>2026-05-03T14:12:19.977Z</time></trkpt><trkpt lat="50.850238245007795" lon="12.026051547184622"><ele>319.0</ele><time>2026-05-03T14:12:20.977Z</time></trkpt><trkpt lat="50.850184124469294" lon="12.025918776852548"><ele>319.0</ele><time>2026-05-03T14:12:21.976Z</time></trkpt><trkpt lat="50.850126565095486" lon="12.02579508620997"><ele>319.0</ele><time>2026-05-03T14:12:22.975Z</time></trkpt><trkpt lat="50.85008044886348" lon="12.025679798212655"><ele>317.66666666666663</ele><time>2026-05-03T14:12:23.975Z</time></trkpt><trkpt lat="50.850041013900935" lon="12.025569805636215"><ele>316.3333333333333</ele><time>2026-05-03T14:12:24.975Z</time></trkpt><trkpt lat="50.85000370881032" lon="12.0254597979184"><ele>315.0</ele><time>2026-05-03T14:12:25.974Z</time></trkpt><trkpt lat="50.849974320475866" lon="12.025349785006002"><ele>313.6666666666667</ele><time>2026-05-03T14:12:26.974Z</time></trkpt><trkpt lat="50.84994819923445" lon="12.025246404891112"><ele>312.33333333333337</ele><time>2026-05-03T14:12:27.973Z</time></trkpt><trkpt lat="50.849918201143986" lon="12.025142891849528"><ele>311.0</ele><time>2026-05-03T14:12:28.973Z</time></trkpt><trkpt lat="50.84989053392033" lon="12.025032504404447"><ele>311.33333333333337</ele><time>2026-05-03T14:12:29.973Z</time></trkpt><trkpt lat="50.84986433399314" lon="12.024917510025855"><ele>311.6666666666667</ele><time>2026-05-03T14:12:30.973Z</time></trkpt><trkpt lat="50.849823768063665" lon="12.024822676543787"><ele>312.0</ele><time>2026-05-03T14:12:31.972Z</time></trkpt><trkpt lat="50.84977682194165" lon="12.02473977259326"><ele>312.3333333333333</ele><time>2026-05-03T14:12:32.972Z</time></trkpt><trkpt lat="50.84971946291458" lon="12.024639060323064"><ele>312.66666666666663</ele><time>2026-05-03T14:12:33.972Z</time></trkpt><trkpt lat="50.84966388198291" lon="12.02453033887013"><ele>313.0</ele><time>2026-05-03T14:12:34.972Z</time></trkpt><trkpt lat="50.84960417987194" lon="12.024409256279306"><ele>313.0</ele><time>2026-05-03T14:12:35.971Z</time></trkpt><trkpt lat="50.8495378818018" lon="12.024281248587437"><ele>313.0</ele><time>2026-05-03T14:12:36.971Z</time></trkpt><trkpt lat="50.84945943177895" lon="12.024135675374861"><ele>313.0</ele><time>2026-05-03T14:12:37.971Z</time></trkpt><trkpt lat="50.84937366201442" lon="12.024005522669304"><ele>313.0</ele><time>2026-05-03T14:12:38.971Z</time></trkpt><trkpt lat="50.84928344643418" lon="12.023908993929881"><ele>311.4</ele><time>2026-05-03T14:12:39.971Z</time></trkpt><trkpt lat="50.84918411780842" lon="12.023839141491253"><ele>309.8</ele><time>2026-05-03T14:12:40.971Z</time></trkpt><trkpt lat="50.84908859295991" lon="12.023765725298222"><ele>308.2</ele><time>2026-05-03T14:12:41.97Z</time></trkpt><trkpt lat="50.84901850476716" lon="12.023641466061477"><ele>306.6</ele><time>2026-05-03T14:12:42.97Z</time></trkpt><trkpt lat="50.848941779826106" lon="12.023544195469363"><ele>305.0</ele><time>2026-05-03T14:12:43.97Z</time></trkpt><trkpt lat="50.84888418210251" lon="12.023416148873135"><ele>305.8</ele><time>2026-05-03T14:12:44.97Z</time></trkpt><trkpt lat="50.84882605056063" lon="12.023287919210686"><ele>306.6</ele><time>2026-05-03T14:12:45.97Z</time></trkpt><trkpt lat="50.84876952860055" lon="12.023160907352235"><ele>307.4</ele><time>2026-05-03T14:12:46.97Z</time></trkpt><trkpt lat="50.84871179470944" lon="12.023048235802866"><ele>308.2</ele><time>2026-05-03T14:12:47.97Z</time></trkpt><trkpt lat="50.848650081185305" lon="12.022943017022605"><ele>309.0</ele><time>2026-05-03T14:12:48.97Z</time></trkpt><trkpt lat="50.84858652159966" lon="12.022837899453178"><ele>309.0</ele><time>2026-05-03T14:12:49.969Z</time></trkpt><trkpt lat="50.84852389234997" lon="12.022731160661019"><ele>309.0</ele><time>2026-05-03T14:12:50.969Z</time></trkpt><trkpt lat="50.84846376892173" lon="12.02262965408491"><ele>309.0</ele><time>2026-05-03T14:12:51.969Z</time></trkpt><trkpt lat="50.848409015376845" lon="12.022528344864815"><ele>309.0</ele><time>2026-05-03T14:12:52.969Z</time></trkpt><trkpt lat="50.8483498371637" lon="12.022417451154604"><ele>309.0</ele><time>2026-05-03T14:12:53.969Z</time></trkpt><trkpt lat="50.848289776751386" lon="12.022306249310455"><ele>309.0</ele><time>2026-05-03T14:12:54.969Z</time></trkpt><trkpt lat="50.84823737075897" lon="12.022192039376165"><ele>307.5</ele><time>2026-05-03T14:12:55.969Z</time></trkpt><trkpt lat="50.848183405768424" lon="12.022088767435525"><ele>306.0</ele><time>2026-05-03T14:12:56.969Z</time></trkpt><trkpt lat="50.84812785917814" lon="12.021979090305448"><ele>304.5</ele><time>2026-05-03T14:12:57.969Z</time></trkpt><trkpt lat="50.848077944718156" lon="12.021862617623578"><ele>303.0</ele><time>2026-05-03T14:12:58.969Z</time></trkpt><trkpt lat="50.84803884235873" lon="12.021726962866438"><ele>301.5</ele><time>2026-05-03T14:12:59.969Z</time></trkpt><trkpt lat="50.84799252304207" lon="12.02160865029786"><ele>300.0</ele><time>2026-05-03T14:13:00.969Z</time></trkpt><trkpt lat="50.847939127944834" lon="12.021502475646782"><ele>300.0</ele><time>2026-05-03T14:13:01.969Z</time></trkpt><trkpt lat="50.847923055044895" lon="12.021371676757875"><ele>300.0</ele><time>2026-05-03T14:13:02.969Z</time></trkpt><trkpt lat="50.847886552459286" lon="12.021262881173248"><ele>300.0</ele><time>2026-05-03T14:13:03.969Z</time></trkpt><trkpt lat="50.84786370055991" lon="12.021145976055335"><ele>300.0</ele><time>2026-05-03T14:13:04.969Z</time></trkpt><trkpt lat="50.847843072082505" lon="12.02102439847452"><ele>300.0</ele><time>2026-05-03T14:13:05.969Z</time></trkpt><trkpt lat="50.84781558605271" lon="12.020915053141323"><ele>300.0</ele><time>2026-05-03T14:13:06.969Z</time></trkpt><trkpt lat="50.847789637514374" lon="12.020787464705656"><ele>300.1666666666667</ele><time>2026-05-03T14:13:07.969Z</time></trkpt><trkpt lat="50.84778068723122" lon="12.020655055392934"><ele>300.3333333333333</ele><time>2026-05-03T14:13:08.969Z</time></trkpt><trkpt lat="50.847764436728546" lon="12.020520799529606"><ele>300.5</ele><time>2026-05-03T14:13:09.969Z</time></trkpt><trkpt lat="50.84775656089494" lon="12.020396038212432"><ele>300.66666666666663</ele><time>2026-05-03T14:13:10.969Z</time></trkpt><trkpt lat="50.8477532417816" lon="12.02026920683885"><ele>300.8333333333333</ele><time>2026-05-03T14:13:11.968Z</time></trkpt><trkpt lat="50.8477516944077" lon="12.020126953940089"><ele>301.0</ele><time>2026-05-03T14:13:12.968Z</time></trkpt><trkpt lat="50.84775153253076" lon="12.020002375517857"><ele>300.66666666666663</ele><time>2026-05-03T14:13:13.968Z</time></trkpt><trkpt lat="50.84775198303919" lon="12.01986947622476"><ele>300.3333333333333</ele><time>2026-05-03T14:13:14.968Z</time></trkpt><trkpt lat="50.847752909031286" lon="12.019745941414419"><ele>300.0</ele><time>2026-05-03T14:13:15.968Z</time></trkpt><trkpt lat="50.84775471627705" lon="12.01961001463906"><ele>299.6666666666667</ele><time>2026-05-03T14:13:16.968Z</time></trkpt><trkpt lat="50.847743402678496" lon="12.019469281469224"><ele>299.33333333333337</ele><time>2026-05-03T14:13:17.968Z</time></trkpt><trkpt lat="50.847763159107394" lon="12.019322949090053"><ele>299.0</ele><time>2026-05-03T14:13:18.968Z</time></trkpt><trkpt lat="50.84778553253851" lon="12.019155267435584"><ele>298.2</ele><time>2026-05-03T14:13:19.968Z</time></trkpt><trkpt lat="50.84780954582658" lon="12.01898653756843"><ele>297.4</ele><time>2026-05-03T14:13:20.968Z</time></trkpt><trkpt lat="50.84784116751615" lon="12.018827399924817"><ele>296.6</ele><time>2026-05-03T14:13:21.968Z</time></trkpt><trkpt lat="50.84785989178878" lon="12.018669784503297"><ele>295.8</ele><time>2026-05-03T14:13:22.968Z</time></trkpt><trkpt lat="50.8478770915809" lon="12.018516857511711"><ele>295.0</ele><time>2026-05-03T14:13:23.968Z</time></trkpt><trkpt lat="50.84789721582422" lon="12.018365960298587"><ele>293.8333333333333</ele><time>2026-05-03T14:13:24.968Z</time></trkpt><trkpt lat="50.84791545153035" lon="12.018212681163496"><ele>292.66666666666663</ele><time>2026-05-03T14:13:25.968Z</time></trkpt><trkpt lat="50.847955553575915" lon="12.018087994175376"><ele>291.5</ele><time>2026-05-03T14:13:26.968Z</time></trkpt><trkpt lat="50.847964360831966" lon="12.017954480314417"><ele>290.3333333333333</ele><time>2026-05-03T14:13:27.968Z</time></trkpt><trkpt lat="50.8479835834819" lon="12.017853723937646"><ele>289.1666666666667</ele><time>2026-05-03T14:13:28.968Z</time></trkpt><trkpt lat="50.84800610835683" lon="12.017710305918031"><ele>288.0</ele><time>2026-05-03T14:13:29.968Z</time></trkpt><trkpt lat="50.848033855320494" lon="12.01756129679471"><ele>286.5</ele><time>2026-05-03T14:13:30.968Z</time></trkpt><trkpt lat="50.84806220338143" lon="12.017414794411671"><ele>285.0</ele><time>2026-05-03T14:13:31.968Z</time></trkpt><trkpt lat="50.84808085371307" lon="12.017280574514958"><ele>283.5</ele><time>2026-05-03T14:13:32.968Z</time></trkpt><trkpt lat="50.84810171612264" lon="12.017165911543845"><ele>282.0</ele><time>2026-05-03T14:13:33.968Z</time></trkpt><trkpt lat="50.84813916719107" lon="12.01705972286528"><ele>280.5</ele><time>2026-05-03T14:13:34.968Z</time></trkpt><trkpt lat="50.848179589811856" lon="12.016958031338133"><ele>279.0</ele><time>2026-05-03T14:13:35.968Z</time></trkpt><trkpt lat="50.84823575648326" lon="12.016860300008261"><ele>279.0</ele><time>2026-05-03T14:13:36.968Z</time></trkpt><trkpt lat="50.84830949195915" lon="12.016758785736556"><ele>279.0</ele><time>2026-05-03T14:13:37.968Z</time></trkpt><trkpt lat="50.848379188208426" lon="12.01664141415041"><ele>279.0</ele><time>2026-05-03T14:13:38.968Z</time></trkpt><trkpt lat="50.84843777290082" lon="12.016516201652113"><ele>279.0</ele><time>2026-05-03T14:13:39.968Z</time></trkpt><trkpt lat="50.84849073577646" lon="12.016412771030573"><ele>279.0</ele><time>2026-05-03T14:13:40.968Z</time></trkpt><trkpt lat="50.848536252201214" lon="12.016322806241684"><ele>279.5</ele><time>2026-05-03T14:13:41.968Z</time></trkpt><trkpt lat="50.8485837697525" lon="12.016209602932676"><ele>280.0</ele><time>2026-05-03T14:13:42.968Z</time></trkpt><trkpt lat="50.84864974404032" lon="12.016105695633222"><ele>280.5</ele><time>2026-05-03T14:13:43.968Z</time></trkpt><trkpt lat="50.848715973446154" lon="12.016026173730165"><ele>281.0</ele><time>2026-05-03T14:13:44.968Z</time></trkpt><trkpt lat="50.848746474311746" lon="12.015930436460994"><ele>281.5</ele><time>2026-05-03T14:13:45.968Z</time></trkpt><trkpt lat="50.84875600514129" lon="12.015828974399259"><ele>282.0</ele><time>2026-05-03T14:13:46.968Z</time></trkpt><trkpt lat="50.848744127832944" lon="12.015705528509473"><ele>280.3333333333333</ele><time>2026-05-03T14:13:47.968Z</time></trkpt><trkpt lat="50.84872804446341" lon="12.015562102852359"><ele>278.6666666666667</ele><time>2026-05-03T14:13:48.968Z</time></trkpt><trkpt lat="50.84869281502804" lon="12.015426647488825"><ele>277.0</ele><time>2026-05-03T14:13:49.968Z</time></trkpt><trkpt lat="50.848662613732174" lon="12.015324606921796"><ele>275.33333333333337</ele><time>2026-05-03T14:13:50.968Z</time></trkpt><trkpt lat="50.84862857867767" lon="12.015220758092159"><ele>273.6666666666667</ele><time>2026-05-03T14:13:51.968Z</time></trkpt><trkpt lat="50.84865188793583" lon="12.01511970994558"><ele>272.0</ele><time>2026-05-03T14:13:52.968Z</time></trkpt><trkpt lat="50.84872243136316" lon="12.015006802716144"><ele>272.0</ele><time>2026-05-03T14:13:54.968Z</time></trkpt><trkpt lat="50.8488189469159" lon="12.01494809746433"><ele>272.0</ele><time>2026-05-03T14:13:56.968Z</time></trkpt><trkpt lat="50.84894183697236" lon="12.014853286591162"><ele>272.0</ele><time>2026-05-03T14:13:58.968Z</time></trkpt><trkpt lat="50.84901650296566" lon="12.01481139570537"><ele>272.0</ele><time>2026-05-03T14:13:59.968Z</time></trkpt><trkpt lat="50.84910317754762" lon="12.01478054754596"><ele>272.0</ele><time>2026-05-03T14:14:00.968Z</time></trkpt><trkpt lat="50.84918752772218" lon="12.014710076020096"><ele>272.0</ele><time>2026-05-03T14:14:01.968Z</time></trkpt><trkpt lat="50.849256621402716" lon="12.014638127699904"><ele>272.0</ele><time>2026-05-03T14:14:02.968Z</time></trkpt><trkpt lat="50.84935717268445" lon="12.014570671993681"><ele>272.0</ele><time>2026-05-03T14:14:03.968Z</time></trkpt><trkpt lat="50.84944004752999" lon="12.014452264083689"><ele>272.0</ele><time>2026-05-03T14:14:04.968Z</time></trkpt><trkpt lat="50.84952208564035" lon="12.01434329891178"><ele>272.0</ele><time>2026-05-03T14:14:05.968Z</time></trkpt><trkpt lat="50.8496047531827" lon="12.014244493940305"><ele>272.0</ele><time>2026-05-03T14:14:06.968Z</time></trkpt><trkpt lat="50.8496864820127" lon="12.01415961253387"><ele>272.0</ele><time>2026-05-03T14:14:07.968Z</time></trkpt><trkpt lat="50.84976876388129" lon="12.014092220611085"><ele>272.0</ele><time>2026-05-03T14:14:08.968Z</time></trkpt><trkpt lat="50.8498474237893" lon="12.014043419976636"><ele>272.0</ele><time>2026-05-03T14:14:09.968Z</time></trkpt><trkpt lat="50.84992001726819" lon="12.013999177734913"><ele>272.0</ele><time>2026-05-03T14:14:10.968Z</time></trkpt><trkpt lat="50.84998540243392" lon="12.01392759217346"><ele>272.0</ele><time>2026-05-03T14:14:11.968Z</time></trkpt><trkpt lat="50.85004744322446" lon="12.013847742013622"><ele>270.6666666666667</ele><time>2026-05-03T14:14:12.968Z</time></trkpt><trkpt lat="50.850098862665824" lon="12.013742913467345"><ele>269.33333333333337</ele><time>2026-05-03T14:14:13.968Z</time></trkpt><trkpt lat="50.8501466382399" lon="12.013599398157524"><ele>268.0</ele><time>2026-05-03T14:14:14.968Z</time></trkpt><trkpt lat="50.850179622357395" lon="12.01349670440465"><ele>266.6666666666667</ele><time>2026-05-03T14:14:15.968Z</time></trkpt><trkpt lat="50.85021061758742" lon="12.013368718192636"><ele>265.3333333333333</ele><time>2026-05-03T14:14:16.968Z</time></trkpt><trkpt lat="50.85024727987239" lon="12.0132434742659"><ele>264.0</ele><time>2026-05-03T14:14:17.968Z</time></trkpt><trkpt lat="50.85028131579543" lon="12.013132642217665"><ele>262.4</ele><time>2026-05-03T14:14:18.968Z</time></trkpt><trkpt lat="50.85031455772798" lon="12.01303004629145"><ele>260.79999999999995</ele><time>2026-05-03T14:14:19.968Z</time></trkpt><trkpt lat="50.85033460721729" lon="12.01292487771428"><ele>259.20000000000005</ele><time>2026-05-03T14:14:20.968Z</time></trkpt><trkpt lat="50.8504198326711" lon="12.012778556618414"><ele>257.6</ele><time>2026-05-03T14:14:22.968Z</time></trkpt><trkpt lat="50.850523566313036" lon="12.012664968604993"><ele>256.0</ele><time>2026-05-03T14:14:24.968Z</time></trkpt><trkpt lat="50.85058743346774" lon="12.012595242218694"><ele>255.99999999999997</ele><time>2026-05-03T14:14:25.966Z</time></trkpt><trkpt lat="50.85065901391795" lon="12.012539823847735"><ele>256.0</ele><time>2026-05-03T14:14:26.966Z</time></trkpt><trkpt lat="50.85074283999507" lon="12.012488859396944"><ele>256.0</ele><time>2026-05-03T14:14:27.966Z</time></trkpt><trkpt lat="50.85082789806403" lon="12.012426204300878"><ele>256.0</ele><time>2026-05-03T14:14:28.966Z</time></trkpt><trkpt lat="50.850904999082786" lon="12.012362565046187"><ele>255.99999999999997</ele><time>2026-05-03T14:14:29.966Z</time></trkpt><trkpt lat="50.85097095922773" lon="12.01229750982779"><ele>256.0</ele><time>2026-05-03T14:14:30.966Z</time></trkpt><trkpt lat="50.85103392416503" lon="12.012232043816322"><ele>255.83333333333331</ele><time>2026-05-03T14:14:31.966Z</time></trkpt><trkpt lat="50.8510990485116" lon="12.01215873492178"><ele>255.66666666666666</ele><time>2026-05-03T14:14:32.966Z</time></trkpt><trkpt lat="50.851177933389295" lon="12.01208959307718"><ele>255.5</ele><time>2026-05-03T14:14:33.966Z</time></trkpt><trkpt lat="50.85123941048195" lon="12.012017516501073"><ele>255.33333333333331</ele><time>2026-05-03T14:14:34.966Z</time></trkpt><trkpt lat="50.85129957729332" lon="12.011954210769124"><ele>255.16666666666666</ele><time>2026-05-03T14:14:35.966Z</time></trkpt><trkpt lat="50.85135862605085" lon="12.011871649121511"><ele>255.0</ele><time>2026-05-03T14:14:36.966Z</time></trkpt><trkpt lat="50.85142805175824" lon="12.011825361291473"><ele>255.0</ele><time>2026-05-03T14:14:37.967Z</time></trkpt><trkpt lat="50.85150330527048" lon="12.011793675398598"><ele>255.0</ele><time>2026-05-03T14:14:38.967Z</time></trkpt><trkpt lat="50.851580053218626" lon="12.011739326164488"><ele>255.0</ele><time>2026-05-03T14:14:39.967Z</time></trkpt><trkpt lat="50.85165235191442" lon="12.011664726928354"><ele>255.0</ele><time>2026-05-03T14:14:40.967Z</time></trkpt><trkpt lat="50.85172253667324" lon="12.011599440975196"><ele>255.0</ele><time>2026-05-03T14:14:41.967Z</time></trkpt><trkpt lat="50.85179216952162" lon="12.01153466841267"><ele>255.0</ele><time>2026-05-03T14:14:42.967Z</time></trkpt><trkpt lat="50.85186431417179" lon="12.01147100890648"><ele>254.33333333333334</ele><time>2026-05-03T14:14:43.967Z</time></trkpt><trkpt lat="50.851941131218716" lon="12.011419412285399"><ele>253.66666666666669</ele><time>2026-05-03T14:14:44.967Z</time></trkpt><trkpt lat="50.85201718421876" lon="12.011370468950046"><ele>253.0</ele><time>2026-05-03T14:14:45.967Z</time></trkpt><trkpt lat="50.85208395121955" lon="12.011307629987812"><ele>252.33333333333334</ele><time>2026-05-03T14:14:46.967Z</time></trkpt><trkpt lat="50.85215641105112" lon="12.011271465589726"><ele>251.66666666666669</ele><time>2026-05-03T14:14:47.967Z</time></trkpt><trkpt lat="50.8522263882303" lon="12.011237682937747"><ele>251.0</ele><time>2026-05-03T14:14:48.967Z</time></trkpt><trkpt lat="50.85230970242669" lon="12.011240433261866"><ele>250.99999999999997</ele><time>2026-05-03T14:14:49.967Z</time></trkpt><trkpt lat="50.85237600259207" lon="12.011215390121754"><ele>251.0</ele><time>2026-05-03T14:14:50.967Z</time></trkpt><trkpt lat="50.85243909810607" lon="12.011178483745462"><ele>250.99999999999997</ele><time>2026-05-03T14:14:51.967Z</time></trkpt><trkpt lat="50.85250185858036" lon="12.011130462069369"><ele>250.99999999999997</ele><time>2026-05-03T14:14:52.967Z</time></trkpt><trkpt lat="50.85256215020116" lon="12.011054275924035"><ele>251.0</ele><time>2026-05-03T14:14:53.967Z</time></trkpt><trkpt lat="50.85262766700771" lon="12.010984953370443"><ele>250.99999999999997</ele><time>2026-05-03T14:14:54.967Z</time></trkpt><trkpt lat="50.8526651033136" lon="12.010898017520082"><ele>250.99999999999997</ele><time>2026-05-03T14:14:55.967Z</time></trkpt><trkpt lat="50.85277511395983" lon="12.010841313113485"><ele>251.00000000000003</ele><time>2026-05-03T14:14:57.967Z</time></trkpt><trkpt lat="50.8528601225988" lon="12.010852232851033"><ele>251.0</ele><time>2026-05-03T14:14:58.967Z</time></trkpt><trkpt lat="50.852936641060765" lon="12.010853167464962"><ele>251.0</ele><time>2026-05-03T14:14:59.967Z</time></trkpt><trkpt lat="50.85301641328679" lon="12.010838086228746"><ele>251.0</ele><time>2026-05-03T14:15:00.967Z</time></trkpt><trkpt lat="50.85308817964978" lon="12.010813557147722"><ele>251.00000000000003</ele><time>2026-05-03T14:15:01.967Z</time></trkpt><trkpt lat="50.85317865520632" lon="12.010780558875473"><ele>251.0</ele><time>2026-05-03T14:15:02.967Z</time></trkpt><trkpt lat="50.85326899350325" lon="12.010731534640875"><ele>251.33333333333334</ele><time>2026-05-03T14:15:03.967Z</time></trkpt><trkpt lat="50.85334420902118" lon="12.010671626925918"><ele>251.66666666666669</ele><time>2026-05-03T14:15:04.967Z</time></trkpt><trkpt lat="50.85342616874485" lon="12.010621098753324"><ele>252.0</ele><time>2026-05-03T14:15:05.967Z</time></trkpt><trkpt lat="50.85351688289227" lon="12.01056544713833"><ele>252.33333333333331</ele><time>2026-05-03T14:15:06.967Z</time></trkpt><trkpt lat="50.85359764354882" lon="12.010512955575566"><ele>252.66666666666666</ele><time>2026-05-03T14:15:07.967Z</time></trkpt><trkpt lat="50.853671352050256" lon="12.010456800997458"><ele>253.0</ele><time>2026-05-03T14:15:08.967Z</time></trkpt><trkpt lat="50.85374048654157" lon="12.010394065266677"><ele>252.2</ele><time>2026-05-03T14:15:09.967Z</time></trkpt><trkpt lat="50.85380009265997" lon="12.010334398045826"><ele>251.4</ele><time>2026-05-03T14:15:10.967Z</time></trkpt><trkpt lat="50.853861796309616" lon="12.010294942353282"><ele>250.59999999999997</ele><time>2026-05-03T14:15:11.967Z</time></trkpt><trkpt lat="50.853970674807016" lon="12.010373399080505"><ele>249.79999999999998</ele><time>2026-05-03T14:15:13.967Z</time></trkpt><trkpt lat="50.85407718479315" lon="12.010443002663784"><ele>249.0</ele><time>2026-05-03T14:15:15.967Z</time></trkpt><trkpt lat="50.85420530700087" lon="12.010416425812743"><ele>249.0</ele><time>2026-05-03T14:15:17.967Z</time></trkpt><trkpt lat="50.854273695438444" lon="12.010381925990389"><ele>249.0</ele><time>2026-05-03T14:15:18.967Z</time></trkpt><trkpt lat="50.85434055827171" lon="12.010343938541665"><ele>249.0</ele><time>2026-05-03T14:15:19.967Z</time></trkpt><trkpt lat="50.854416975139515" lon="12.010298191403578"><ele>249.0</ele><time>2026-05-03T14:15:20.967Z</time></trkpt><trkpt lat="50.85449388819546" lon="12.010240651817625"><ele>249.0</ele><time>2026-05-03T14:15:21.967Z</time></trkpt><trkpt lat="50.8545635107448" lon="12.010152061771302"><ele>249.0</ele><time>2026-05-03T14:15:22.967Z</time></trkpt><trkpt lat="50.85463636468282" lon="12.010079737726592"><ele>248.7142857142857</ele><time>2026-05-03T14:15:23.967Z</time></trkpt><trkpt lat="50.85469776017274" lon="12.010023282712865"><ele>248.4285714285714</ele><time>2026-05-03T14:15:24.967Z</time></trkpt><trkpt lat="50.85476206905327" lon="12.009966287781348"><ele>248.14285714285714</ele><time>2026-05-03T14:15:25.967Z</time></trkpt><trkpt lat="50.85482287854401" lon="12.009935721977882"><ele>247.85714285714283</ele><time>2026-05-03T14:15:26.967Z</time></trkpt><trkpt lat="50.85489923537422" lon="12.009910279897131"><ele>247.57142857142856</ele><time>2026-05-03T14:15:27.967Z</time></trkpt><trkpt lat="50.854971106252954" lon="12.009927491951132"><ele>247.28571428571428</ele><time>2026-05-03T14:15:28.967Z</time></trkpt><trkpt lat="50.85505412209447" lon="12.00992793807509"><ele>247.0</ele><time>2026-05-03T14:15:29.967Z</time></trkpt><trkpt lat="50.85514090483001" lon="12.009988433550978"><ele>247.0</ele><time>2026-05-03T14:15:30.967Z</time></trkpt><trkpt lat="50.85522649852405" lon="12.010017358403651"><ele>247.0</ele><time>2026-05-03T14:15:31.967Z</time></trkpt><trkpt lat="50.855324720402656" lon="12.010031839072884"><ele>247.0</ele><time>2026-05-03T14:15:32.967Z</time></trkpt><trkpt lat="50.855430881086285" lon="12.010043749123588"><ele>247.0</ele><time>2026-05-03T14:15:33.967Z</time></trkpt><trkpt lat="50.855547212541026" lon="12.010042346703685"><ele>247.0</ele><time>2026-05-03T14:15:34.967Z</time></trkpt><trkpt lat="50.85567338761426" lon="12.010027721656694"><ele>247.0</ele><time>2026-05-03T14:15:35.967Z</time></trkpt><trkpt lat="50.85580603000651" lon="12.010017699226555"><ele>247.0</ele><time>2026-05-03T14:15:36.967Z</time></trkpt><trkpt lat="50.85593067002723" lon="12.01000805017059"><ele>247.0</ele><time>2026-05-03T14:15:37.967Z</time></trkpt><trkpt lat="50.85604468574754" lon="12.010001776398374"><ele>247.0</ele><time>2026-05-03T14:15:38.967Z</time></trkpt><trkpt lat="50.85615302514527" lon="12.010024129176369"><ele>246.66666666666666</ele><time>2026-05-03T14:15:39.967Z</time></trkpt><trkpt lat="50.856254620769484" lon="12.010039692021861"><ele>246.33333333333331</ele><time>2026-05-03T14:15:40.967Z</time></trkpt><trkpt lat="50.85635065317498" lon="12.01006971719705"><ele>246.0</ele><time>2026-05-03T14:15:41.967Z</time></trkpt><trkpt lat="50.85643796283194" lon="12.01010989813177"><ele>245.66666666666669</ele><time>2026-05-03T14:15:42.967Z</time></trkpt><trkpt lat="50.85651458708074" lon="12.01014638478662"><ele>245.33333333333334</ele><time>2026-05-03T14:15:43.967Z</time></trkpt><trkpt lat="50.85657964519653" lon="12.010190471619621"><ele>245.0</ele><time>2026-05-03T14:15:44.967Z</time></trkpt><trkpt lat="50.85667339380815" lon="12.010313946779332"><ele>245.0</ele><time>2026-05-03T14:15:46.967Z</time></trkpt><trkpt lat="50.856712920559985" lon="12.010402404410053"><ele>245.0</ele><time>2026-05-03T14:15:47.967Z</time></trkpt><trkpt lat="50.856749656472665" lon="12.01050827098043"><ele>245.0</ele><time>2026-05-03T14:15:48.967Z</time></trkpt><trkpt lat="50.856780505884515" lon="12.010612288494409"><ele>245.0</ele><time>2026-05-03T14:15:49.967Z</time></trkpt><trkpt lat="50.85682832948305" lon="12.010694453392412"><ele>245.0</ele><time>2026-05-03T14:15:50.967Z</time></trkpt><trkpt lat="50.856884169873254" lon="12.010747052270924"><ele>245.0</ele><time>2026-05-03T14:15:51.967Z</time></trkpt><trkpt lat="50.85695656499695" lon="12.010779066627695"><ele>245.0</ele><time>2026-05-03T14:15:52.967Z</time></trkpt><trkpt lat="50.85703844713466" lon="12.010798601727151"><ele>245.16666666666669</ele><time>2026-05-03T14:15:53.967Z</time></trkpt><trkpt lat="50.85711930360464" lon="12.010835173936835"><ele>245.33333333333334</ele><time>2026-05-03T14:15:54.967Z</time></trkpt><trkpt lat="50.85719788653956" lon="12.010864889948579"><ele>245.5</ele><time>2026-05-03T14:15:55.967Z</time></trkpt><trkpt lat="50.85726442836477" lon="12.010885898476463"><ele>245.66666666666669</ele><time>2026-05-03T14:15:56.967Z</time></trkpt><trkpt lat="50.85734253479902" lon="12.010919878198814"><ele>245.83333333333334</ele><time>2026-05-03T14:15:57.967Z</time></trkpt><trkpt lat="50.85741608922388" lon="12.010977931408888"><ele>246.0</ele><time>2026-05-03T14:15:58.967Z</time></trkpt><trkpt lat="50.8575027992336" lon="12.010999211321458"><ele>246.0</ele><time>2026-05-03T14:15:59.967Z</time></trkpt><trkpt lat="50.85759077294901" lon="12.011037885711541"><ele>246.0</ele><time>2026-05-03T14:16:00.967Z</time></trkpt><trkpt lat="50.8576647816015" lon="12.01106573573211"><ele>246.0</ele><time>2026-05-03T14:16:01.967Z</time></trkpt><trkpt lat="50.857731219243036" lon="12.01109626415093"><ele>246.0</ele><time>2026-05-03T14:16:02.967Z</time></trkpt><trkpt lat="50.85780546910452" lon="12.011127574730205"><ele>246.0</ele><time>2026-05-03T14:16:03.967Z</time></trkpt><trkpt lat="50.857882931700516" lon="12.011157530416495"><ele>246.0</ele><time>2026-05-03T14:16:04.967Z</time></trkpt><trkpt lat="50.857960988656465" lon="12.011198401070711"><ele>245.4</ele><time>2026-05-03T14:16:05.967Z</time></trkpt><trkpt lat="50.85802636606937" lon="12.0112460389084"><ele>244.8</ele><time>2026-05-03T14:16:06.967Z</time></trkpt><trkpt lat="50.85810030249693" lon="12.011314223618562"><ele>244.20000000000002</ele><time>2026-05-03T14:16:07.967Z</time></trkpt><trkpt lat="50.85819677199269" lon="12.01140704696778"><ele>243.60000000000002</ele><time>2026-05-03T14:16:08.967Z</time></trkpt><trkpt lat="50.85828703848815" lon="12.011496104198402"><ele>243.0</ele><time>2026-05-03T14:16:09.967Z</time></trkpt><trkpt lat="50.858377291414044" lon="12.011584345441301"><ele>243.60000000000002</ele><time>2026-05-03T14:16:10.967Z</time></trkpt><trkpt lat="50.85846788764265" lon="12.011676850534448"><ele>244.20000000000002</ele><time>2026-05-03T14:16:11.967Z</time></trkpt><trkpt lat="50.858549005486424" lon="12.01176558795838"><ele>244.8</ele><time>2026-05-03T14:16:12.967Z</time></trkpt><trkpt lat="50.85862279457948" lon="12.011855858999617"><ele>245.4</ele><time>2026-05-03T14:16:13.967Z</time></trkpt><trkpt lat="50.858708452882205" lon="12.011961242209491"><ele>246.0</ele><time>2026-05-03T14:16:14.967Z</time></trkpt><trkpt lat="50.858783402319375" lon="12.012073374656492"><ele>246.0</ele><time>2026-05-03T14:16:15.967Z</time></trkpt><trkpt lat="50.85886952707376" lon="12.012192002123843"><ele>246.0</ele><time>2026-05-03T14:16:16.967Z</time></trkpt><trkpt lat="50.8589518909596" lon="12.01232080833392"><ele>246.0</ele><time>2026-05-03T14:16:17.967Z</time></trkpt><trkpt lat="50.85903203672129" lon="12.012451616184208"><ele>246.0</ele><time>2026-05-03T14:16:18.967Z</time></trkpt><trkpt lat="50.85911671455507" lon="12.01258505187352"><ele>246.0</ele><time>2026-05-03T14:16:19.967Z</time></trkpt><trkpt lat="50.85919676618547" lon="12.012721849279213"><ele>246.0</ele><time>2026-05-03T14:16:20.967Z</time></trkpt><trkpt lat="50.85928183619939" lon="12.012839499337142"><ele>246.0</ele><time>2026-05-03T14:16:21.967Z</time></trkpt><trkpt lat="50.85937027625522" lon="12.012949666323554"><ele>246.0</ele><time>2026-05-03T14:16:22.967Z</time></trkpt><trkpt lat="50.8594543610436" lon="12.013057041412637"><ele>245.60000000000002</ele><time>2026-05-03T14:16:23.967Z</time></trkpt><trkpt lat="50.859524448034854" lon="12.013193154308677"><ele>245.20000000000002</ele><time>2026-05-03T14:16:24.967Z</time></trkpt><trkpt lat="50.859591039728514" lon="12.013335509815517"><ele>244.79999999999998</ele><time>2026-05-03T14:16:25.967Z</time></trkpt><trkpt lat="50.8596592281737" lon="12.01348338001418"><ele>244.39999999999998</ele><time>2026-05-03T14:16:26.967Z</time></trkpt><trkpt lat="50.859721718654114" lon="12.013607883560981"><ele>244.0</ele><time>2026-05-03T14:16:27.967Z</time></trkpt><trkpt lat="50.85977425578952" lon="12.0137254487656"><ele>243.6</ele><time>2026-05-03T14:16:28.967Z</time></trkpt><trkpt lat="50.85981378559371" lon="12.01384840430359"><ele>243.2</ele><time>2026-05-03T14:16:29.967Z</time></trkpt><trkpt lat="50.85984130462729" lon="12.01398833535836"><ele>242.79999999999998</ele><time>2026-05-03T14:16:30.967Z</time></trkpt><trkpt lat="50.859893048614886" lon="12.014121270756632"><ele>242.39999999999998</ele><time>2026-05-03T14:16:31.964Z</time></trkpt><trkpt lat="50.859941681449136" lon="12.014248542546031"><ele>242.0</ele><time>2026-05-03T14:16:32.965Z</time></trkpt><trkpt lat="50.86000809047984" lon="12.014356326917753"><ele>242.0</ele><time>2026-05-03T14:16:33.965Z</time></trkpt><trkpt lat="50.86007669820317" lon="12.014447995079644"><ele>242.0</ele><time>2026-05-03T14:16:34.965Z</time></trkpt><trkpt lat="50.86015964459552" lon="12.014534186923816"><ele>242.0</ele><time>2026-05-03T14:16:35.965Z</time></trkpt><trkpt lat="50.860252618576986" lon="12.014606182555294"><ele>242.0</ele><time>2026-05-03T14:16:36.965Z</time></trkpt><trkpt lat="50.860346065575044" lon="12.014655852445577"><ele>242.0</ele><time>2026-05-03T14:16:37.965Z</time></trkpt><trkpt lat="50.860432097767266" lon="12.014687609549265"><ele>241.0</ele><time>2026-05-03T14:16:38.964Z</time></trkpt><trkpt lat="50.86051764911432" lon="12.014721693942006"><ele>240.0</ele><time>2026-05-03T14:16:39.964Z</time></trkpt><trkpt lat="50.86060296503791" lon="12.014774974860781"><ele>239.0</ele><time>2026-05-03T14:16:40.965Z</time></trkpt><trkpt lat="50.86068164573979" lon="12.014872615387143"><ele>238.0</ele><time>2026-05-03T14:16:41.965Z</time></trkpt><trkpt lat="50.86075426464827" lon="12.014989273570537"><ele>237.0</ele><time>2026-05-03T14:16:42.965Z</time></trkpt><trkpt lat="50.86081996174635" lon="12.015107648020871"><ele>236.39999999999998</ele><time>2026-05-03T14:16:43.965Z</time></trkpt><trkpt lat="50.86088633403414" lon="12.015204243686238"><ele>235.79999999999998</ele><time>2026-05-03T14:16:44.965Z</time></trkpt><trkpt lat="50.860965353517976" lon="12.015286233715607"><ele>235.2</ele><time>2026-05-03T14:16:45.965Z</time></trkpt><trkpt lat="50.86105117176532" lon="12.015350251309187"><ele>234.6</ele><time>2026-05-03T14:16:46.965Z</time></trkpt><trkpt lat="50.861141176331856" lon="12.015405512660074"><ele>234.0</ele><time>2026-05-03T14:16:47.965Z</time></trkpt><trkpt lat="50.861224950800484" lon="12.015469415362361"><ele>233.33333333333334</ele><time>2026-05-03T14:16:48.965Z</time></trkpt><trkpt lat="50.86131061167051" lon="12.015532871258765"><ele>232.66666666666669</ele><time>2026-05-03T14:16:49.965Z</time></trkpt><trkpt lat="50.86139234620481" lon="12.015601531615975"><ele>232.0</ele><time>2026-05-03T14:16:50.965Z</time></trkpt><trkpt lat="50.86147572796701" lon="12.015659659091622"><ele>231.33333333333334</ele><time>2026-05-03T14:16:51.965Z</time></trkpt><trkpt lat="50.86155553082227" lon="12.015712230590388"><ele>230.66666666666669</ele><time>2026-05-03T14:16:52.965Z</time></trkpt><trkpt lat="50.861630029800885" lon="12.015745103498913"><ele>230.0</ele><time>2026-05-03T14:16:53.965Z</time></trkpt><trkpt lat="50.861689747148574" lon="12.015803282144617"><ele>229.83333333333334</ele><time>2026-05-03T14:16:54.965Z</time></trkpt><trkpt lat="50.861726499519065" lon="12.015906669440575"><ele>229.66666666666669</ele><time>2026-05-03T14:16:55.965Z</time></trkpt><trkpt lat="50.861744776217506" lon="12.016016577418792"><ele>229.5</ele><time>2026-05-03T14:16:56.965Z</time></trkpt><trkpt lat="50.86178417486953" lon="12.01613432596446"><ele>229.33333333333331</ele><time>2026-05-03T14:16:57.965Z</time></trkpt><trkpt lat="50.8618446279657" lon="12.016228405820508"><ele>229.16666666666666</ele><time>2026-05-03T14:16:58.965Z</time></trkpt><trkpt lat="50.861912946990934" lon="12.016331484554241"><ele>229.0</ele><time>2026-05-03T14:16:59.965Z</time></trkpt><trkpt lat="50.86197577813453" lon="12.016445346733166"><ele>229.0</ele><time>2026-05-03T14:17:00.965Z</time></trkpt><trkpt lat="50.862042373219865" lon="12.016569021874044"><ele>228.99999999999997</ele><time>2026-05-03T14:17:01.965Z</time></trkpt><trkpt lat="50.86210511899517" lon="12.016693404210747"><ele>228.99999999999997</ele><time>2026-05-03T14:17:02.965Z</time></trkpt><trkpt lat="50.862172488812185" lon="12.01680787224019"><ele>229.0</ele><time>2026-05-03T14:17:03.965Z</time></trkpt><trkpt lat="50.86223508471091" lon="12.016940586452277"><ele>229.0</ele><time>2026-05-03T14:17:04.965Z</time></trkpt><trkpt lat="50.862290854507805" lon="12.017068845676626"><ele>229.2</ele><time>2026-05-03T14:17:05.965Z</time></trkpt><trkpt lat="50.8623444455281" lon="12.017197396051932"><ele>229.39999999999998</ele><time>2026-05-03T14:17:06.965Z</time></trkpt><trkpt lat="50.862392918802946" lon="12.017328748471794"><ele>229.6</ele><time>2026-05-03T14:17:07.965Z</time></trkpt><trkpt lat="50.862450062338596" lon="12.017440933768032"><ele>229.8</ele><time>2026-05-03T14:17:08.965Z</time></trkpt><trkpt lat="50.86250874600196" lon="12.017554456417665"><ele>230.0</ele><time>2026-05-03T14:17:09.965Z</time></trkpt><trkpt lat="50.86256514820945" lon="12.017677909032079"><ele>230.00000000000003</ele><time>2026-05-03T14:17:10.965Z</time></trkpt><trkpt lat="50.86261268804147" lon="12.017799972767191"><ele>230.0</ele><time>2026-05-03T14:17:11.965Z</time></trkpt><trkpt lat="50.86265407036195" lon="12.017925117618965"><ele>230.0</ele><time>2026-05-03T14:17:12.965Z</time></trkpt><trkpt lat="50.862694425632505" lon="12.018031691675779"><ele>230.0</ele><time>2026-05-03T14:17:13.965Z</time></trkpt><trkpt lat="50.86273293122857" lon="12.01815633864748"><ele>230.00000000000003</ele><time>2026-05-03T14:17:14.965Z</time></trkpt><trkpt lat="50.862769827598335" lon="12.018280203897502"><ele>230.0</ele><time>2026-05-03T14:17:15.965Z</time></trkpt><trkpt lat="50.86280643551136" lon="12.01841940629114"><ele>230.4</ele><time>2026-05-03T14:17:16.965Z</time></trkpt><trkpt lat="50.86284248938137" lon="12.018541078912927"><ele>230.8</ele><time>2026-05-03T14:17:17.965Z</time></trkpt><trkpt lat="50.86288472593835" lon="12.018646448269873"><ele>231.2</ele><time>2026-05-03T14:17:18.965Z</time></trkpt><trkpt lat="50.86292088178057" lon="12.018737171943945"><ele>231.6</ele><time>2026-05-03T14:17:19.965Z</time></trkpt><trkpt lat="50.86298772363284" lon="12.018894346998012"><ele>232.0</ele><time>2026-05-03T14:17:21.965Z</time></trkpt><trkpt lat="50.86305330488302" lon="12.019034995462624"><ele>232.0</ele><time>2026-05-03T14:17:23.965Z</time></trkpt><trkpt lat="50.86314244968622" lon="12.019095719865902"><ele>232.0</ele><time>2026-05-03T14:17:25.965Z</time></trkpt><trkpt lat="50.86321413231972" lon="12.019061300545964"><ele>232.0</ele><time>2026-05-03T14:17:27.965Z</time></trkpt><trkpt lat="50.86329993002225" lon="12.019014961251054"><ele>232.0</ele><time>2026-05-03T14:17:34.965Z</time></trkpt><trkpt lat="50.863271991393006" lon="12.018771828648203"><ele>232.0</ele><time>2026-05-03T14:17:36.965Z</time></trkpt><trkpt lat="50.863252803123615" lon="12.018644617084355"><ele>232.0</ele><time>2026-05-03T14:17:37.965Z</time></trkpt><trkpt lat="50.863244837525265" lon="12.018497742897143"><ele>232.0</ele><time>2026-05-03T14:17:38.965Z</time></trkpt><trkpt lat="50.863232409328795" lon="12.01834542677052"><ele>232.0</ele><time>2026-05-03T14:17:39.965Z</time></trkpt><trkpt lat="50.86321723883254" lon="12.018182293856166"><ele>232.0</ele><time>2026-05-03T14:17:40.965Z</time></trkpt><trkpt lat="50.86320056799025" lon="12.01799915228889"><ele>232.0</ele><time>2026-05-03T14:17:41.965Z</time></trkpt><trkpt lat="50.86318394470265" lon="12.017818908212387"><ele>231.5</ele><time>2026-05-03T14:17:42.965Z</time></trkpt><trkpt lat="50.863165194706006" lon="12.01762432590798"><ele>231.0</ele><time>2026-05-03T14:17:43.965Z</time></trkpt><trkpt lat="50.863170713475284" lon="12.017419584671483"><ele>230.5</ele><time>2026-05-03T14:17:44.965Z</time></trkpt><trkpt lat="50.863152071257005" lon="12.017205777316244"><ele>230.0</ele><time>2026-05-03T14:17:45.965Z</time></trkpt><trkpt lat="50.863129532343734" lon="12.016994589623753"><ele>229.75</ele><time>2026-05-03T14:17:46.965Z</time></trkpt><trkpt lat="50.86310778112089" lon="12.016769956401685"><ele>229.5</ele><time>2026-05-03T14:17:47.965Z</time></trkpt><trkpt lat="50.86308674523046" lon="12.016540388608743"><ele>229.25</ele><time>2026-05-03T14:17:48.965Z</time></trkpt><trkpt lat="50.86306841689774" lon="12.016322619086761"><ele>229.0</ele><time>2026-05-03T14:17:49.965Z</time></trkpt><trkpt lat="50.86305469195826" lon="12.016102488445117"><ele>229.5</ele><time>2026-05-03T14:17:50.965Z</time></trkpt><trkpt lat="50.863036745096004" lon="12.015883183240868"><ele>230.0</ele><time>2026-05-03T14:17:51.965Z</time></trkpt><trkpt lat="50.86301385447298" lon="12.015660046695928"><ele>230.5</ele><time>2026-05-03T14:17:52.965Z</time></trkpt><trkpt lat="50.8629926111237" lon="12.015431760545072"><ele>231.0</ele><time>2026-05-03T14:17:53.965Z</time></trkpt><trkpt lat="50.86297322333906" lon="12.01520358986659"><ele>232.0</ele><time>2026-05-03T14:17:54.965Z</time></trkpt><trkpt lat="50.86295263787064" lon="12.014981806937747"><ele>233.0</ele><time>2026-05-03T14:17:55.965Z</time></trkpt><trkpt lat="50.862931690851866" lon="12.014755589408267"><ele>234.0</ele><time>2026-05-03T14:17:56.965Z</time></trkpt><trkpt lat="50.86291386953255" lon="12.014530447137007"><ele>235.0</ele><time>2026-05-03T14:17:57.965Z</time></trkpt><trkpt lat="50.862895241331906" lon="12.014304383295077"><ele>235.0</ele><time>2026-05-03T14:17:58.965Z</time></trkpt><trkpt lat="50.86287603467758" lon="12.014082299881544"><ele>235.0</ele><time>2026-05-03T14:17:59.965Z</time></trkpt><trkpt lat="50.86285244179744" lon="12.013855844557519"><ele>235.0</ele><time>2026-05-03T14:18:00.965Z</time></trkpt><trkpt lat="50.86283125402563" lon="12.013625521807871"><ele>235.0</ele><time>2026-05-03T14:18:01.965Z</time></trkpt><trkpt lat="50.86280974330952" lon="12.013386608174718"><ele>236.0</ele><time>2026-05-03T14:18:02.965Z</time></trkpt><trkpt lat="50.86278741515887" lon="12.01313666078276"><ele>237.0</ele><time>2026-05-03T14:18:03.965Z</time></trkpt><trkpt lat="50.86276982172606" lon="12.012875734503558"><ele>238.0</ele><time>2026-05-03T14:18:04.965Z</time></trkpt><trkpt lat="50.86275345151204" lon="12.012602327474912"><ele>239.0</ele><time>2026-05-03T14:18:05.965Z</time></trkpt><trkpt lat="50.86273048949615" lon="12.01232103422534"><ele>240.0</ele><time>2026-05-03T14:18:06.965Z</time></trkpt><trkpt lat="50.86270545981944" lon="12.012044145520319"><ele>241.0</ele><time>2026-05-03T14:18:07.965Z</time></trkpt><trkpt lat="50.86268212509536" lon="12.011755250353577"><ele>242.0</ele><time>2026-05-03T14:18:08.965Z</time></trkpt><trkpt lat="50.86265745005861" lon="12.011474935864776"><ele>243.0</ele><time>2026-05-03T14:18:09.965Z</time></trkpt><trkpt lat="50.8626337105331" lon="12.011207467237869"><ele>244.0</ele><time>2026-05-03T14:18:10.965Z</time></trkpt><trkpt lat="50.86261021849037" lon="12.01094883210566"><ele>240.66666666666666</ele><time>2026-05-03T14:18:11.965Z</time></trkpt><trkpt lat="50.86258787988589" lon="12.010693127470589"><ele>237.33333333333331</ele><time>2026-05-03T14:18:12.965Z</time></trkpt><trkpt lat="50.86256759762145" lon="12.010438024021584"><ele>234.0</ele><time>2026-05-03T14:18:13.965Z</time></trkpt><trkpt lat="50.86254634025703" lon="12.010180079028597"><ele>234.66666666666669</ele><time>2026-05-03T14:18:14.965Z</time></trkpt><trkpt lat="50.862523017315795" lon="12.009928080701652"><ele>235.33333333333334</ele><time>2026-05-03T14:18:15.965Z</time></trkpt><trkpt lat="50.86250159952462" lon="12.00967492780783"><ele>236.0</ele><time>2026-05-03T14:18:16.965Z</time></trkpt><trkpt lat="50.86248000004801" lon="12.009424114397088"><ele>236.0</ele><time>2026-05-03T14:18:17.965Z</time></trkpt><trkpt lat="50.862462717876284" lon="12.009176011808167"><ele>236.0</ele><time>2026-05-03T14:18:18.965Z</time></trkpt><trkpt lat="50.86244360752705" lon="12.008929743391528"><ele>236.0</ele><time>2026-05-03T14:18:19.965Z</time></trkpt><trkpt lat="50.86241951063751" lon="12.008686962065749"><ele>236.66666666666669</ele><time>2026-05-03T14:18:20.965Z</time></trkpt><trkpt lat="50.862397596186696" lon="12.008444886661048"><ele>237.33333333333331</ele><time>2026-05-03T14:18:21.965Z</time></trkpt><trkpt lat="50.86237767024942" lon="12.008211115503135"><ele>238.0</ele><time>2026-05-03T14:18:22.965Z</time></trkpt><trkpt lat="50.86236021772758" lon="12.007970476393309"><ele>238.0</ele><time>2026-05-03T14:18:23.965Z</time></trkpt><trkpt lat="50.862342868606234" lon="12.007729262802245"><ele>238.0</ele><time>2026-05-03T14:18:24.965Z</time></trkpt><trkpt lat="50.86233812650536" lon="12.007493366191198"><ele>238.0</ele><time>2026-05-03T14:18:25.965Z</time></trkpt><trkpt lat="50.86231470429527" lon="12.00725287352574"><ele>237.75</ele><time>2026-05-03T14:18:26.965Z</time></trkpt><trkpt lat="50.86229679433718" lon="12.00701532708711"><ele>237.5</ele><time>2026-05-03T14:18:27.965Z</time></trkpt><trkpt lat="50.8622822237761" lon="12.0067812289465"><ele>237.25</ele><time>2026-05-03T14:18:28.965Z</time></trkpt><trkpt lat="50.86230084239575" lon="12.006551656836338"><ele>237.0</ele><time>2026-05-03T14:18:29.965Z</time></trkpt><trkpt lat="50.86231267807629" lon="12.00631215664693"><ele>236.75</ele><time>2026-05-03T14:18:30.965Z</time></trkpt><trkpt lat="50.86231392088182" lon="12.006075441887816"><ele>236.5</ele><time>2026-05-03T14:18:31.965Z</time></trkpt><trkpt lat="50.862326883670946" lon="12.005835618066984"><ele>236.25</ele><time>2026-05-03T14:18:32.965Z</time></trkpt><trkpt lat="50.862336049778214" lon="12.005601705308667"><ele>236.0</ele><time>2026-05-03T14:18:33.965Z</time></trkpt><trkpt lat="50.86234791499084" lon="12.005361629268862"><ele>235.33333333333334</ele><time>2026-05-03T14:18:34.965Z</time></trkpt><trkpt lat="50.862358919666136" lon="12.005119582295167"><ele>234.66666666666669</ele><time>2026-05-03T14:18:35.965Z</time></trkpt><trkpt lat="50.862373935933945" lon="12.004866344704414"><ele>234.0</ele><time>2026-05-03T14:18:36.965Z</time></trkpt><trkpt lat="50.86238959889364" lon="12.004599265953685"><ele>234.0</ele><time>2026-05-03T14:18:37.963Z</time></trkpt><trkpt lat="50.86240240351355" lon="12.004338749448772"><ele>234.0</ele><time>2026-05-03T14:18:38.964Z</time></trkpt><trkpt lat="50.86241506292015" lon="12.004078706707888"><ele>234.0</ele><time>2026-05-03T14:18:39.964Z</time></trkpt><trkpt lat="50.862427227629155" lon="12.003830705165909"><ele>234.0</ele><time>2026-05-03T14:18:40.963Z</time></trkpt><trkpt lat="50.8624401262004" lon="12.003582853099573"><ele>234.0</ele><time>2026-05-03T14:18:41.963Z</time></trkpt><trkpt lat="50.862449313215244" lon="12.003346654431256"><ele>234.0</ele><time>2026-05-03T14:18:42.963Z</time></trkpt><trkpt lat="50.8624691284037" lon="12.003112216493868"><ele>234.33333333333331</ele><time>2026-05-03T14:18:43.963Z</time></trkpt><trkpt lat="50.862467631997795" lon="12.002874819553394"><ele>234.66666666666666</ele><time>2026-05-03T14:18:44.963Z</time></trkpt><trkpt lat="50.862450427111604" lon="12.002635318561756"><ele>235.0</ele><time>2026-05-03T14:18:45.963Z</time></trkpt><trkpt lat="50.86241365687764" lon="12.002393778131237"><ele>235.0</ele><time>2026-05-03T14:18:46.963Z</time></trkpt><trkpt lat="50.862352781081" lon="12.00216278604445"><ele>235.0</ele><time>2026-05-03T14:18:47.964Z</time></trkpt><trkpt lat="50.862274371904945" lon="12.001942099160216"><ele>235.0</ele><time>2026-05-03T14:18:48.964Z</time></trkpt><trkpt lat="50.862177268383626" lon="12.001731928147471"><ele>235.66666666666666</ele><time>2026-05-03T14:18:49.963Z</time></trkpt><trkpt lat="50.862065720808864" lon="12.00154514172515"><ele>236.33333333333331</ele><time>2026-05-03T14:18:50.963Z</time></trkpt><trkpt lat="50.86195136480972" lon="12.001395757117146"><ele>237.0</ele><time>2026-05-03T14:18:51.963Z</time></trkpt><trkpt lat="50.86184089587992" lon="12.0012596514107"><ele>236.5</ele><time>2026-05-03T14:18:52.963Z</time></trkpt><trkpt lat="50.86173451843535" lon="12.001122327326055"><ele>236.0</ele><time>2026-05-03T14:18:53.963Z</time></trkpt><trkpt lat="50.86162765984478" lon="12.000994249101966"><ele>235.5</ele><time>2026-05-03T14:18:54.963Z</time></trkpt><trkpt lat="50.86151790435928" lon="12.000864241026058"><ele>235.0</ele><time>2026-05-03T14:18:55.963Z</time></trkpt><trkpt lat="50.86141365666006" lon="12.000745135015507"><ele>236.0</ele><time>2026-05-03T14:18:56.963Z</time></trkpt><trkpt lat="50.861312976993354" lon="12.000616708071538"><ele>237.0</ele><time>2026-05-03T14:18:57.963Z</time></trkpt><trkpt lat="50.86121132522533" lon="12.00048528406005"><ele>238.0</ele><time>2026-05-03T14:18:58.963Z</time></trkpt><trkpt lat="50.861120147848254" lon="12.000345234128039"><ele>239.0</ele><time>2026-05-03T14:18:59.963Z</time></trkpt><trkpt lat="50.86103901511096" lon="12.000196254419372"><ele>239.0</ele><time>2026-05-03T14:19:00.963Z</time></trkpt><trkpt lat="50.86096657092778" lon="12.000026585129456"><ele>239.0</ele><time>2026-05-03T14:19:01.963Z</time></trkpt><trkpt lat="50.86090436153678" lon="11.999841576194132"><ele>239.0</ele><time>2026-05-03T14:19:02.963Z</time></trkpt><trkpt lat="50.86085199482994" lon="11.999647806616496"><ele>239.0</ele><time>2026-05-03T14:19:03.963Z</time></trkpt><trkpt lat="50.86083840556607" lon="11.999450675895048"><ele>239.25</ele><time>2026-05-03T14:19:04.963Z</time></trkpt><trkpt lat="50.86081719251347" lon="11.999241198757568"><ele>239.5</ele><time>2026-05-03T14:19:05.963Z</time></trkpt><trkpt lat="50.860832956089006" lon="11.99901862398999"><ele>239.75</ele><time>2026-05-03T14:19:06.963Z</time></trkpt><trkpt lat="50.86085147045079" lon="11.998806017315262"><ele>240.0</ele><time>2026-05-03T14:19:07.963Z</time></trkpt><trkpt lat="50.860863564902054" lon="11.998596168178452"><ele>240.0</ele><time>2026-05-03T14:19:08.963Z</time></trkpt><trkpt lat="50.86086643476707" lon="11.99838755868478"><ele>240.0</ele><time>2026-05-03T14:19:09.963Z</time></trkpt><trkpt lat="50.86086576360133" lon="11.998174869631706"><ele>240.0</ele><time>2026-05-03T14:19:10.963Z</time></trkpt><trkpt lat="50.8608652032173" lon="11.997961076907133"><ele>240.0</ele><time>2026-05-03T14:19:11.963Z</time></trkpt><trkpt lat="50.86086510026242" lon="11.997752850335626"><ele>240.0</ele><time>2026-05-03T14:19:12.963Z</time></trkpt><trkpt lat="50.86086578833005" lon="11.997535981015966"><ele>240.0</ele><time>2026-05-03T14:19:13.963Z</time></trkpt><trkpt lat="50.86086045113753" lon="11.99730185644434"><ele>240.0</ele><time>2026-05-03T14:19:14.963Z</time></trkpt><trkpt lat="50.86085572724347" lon="11.997065643060882"><ele>240.0</ele><time>2026-05-03T14:19:15.963Z</time></trkpt><trkpt lat="50.86085224741744" lon="11.996812566148405"><ele>241.33333333333331</ele><time>2026-05-03T14:19:16.963Z</time></trkpt><trkpt lat="50.860847086217795" lon="11.996561295302675"><ele>242.66666666666666</ele><time>2026-05-03T14:19:17.963Z</time></trkpt><trkpt lat="50.860845516976845" lon="11.996290194594858"><ele>244.0</ele><time>2026-05-03T14:19:18.963Z</time></trkpt><trkpt lat="50.86084446095074" lon="11.996017725508478"><ele>244.0</ele><time>2026-05-03T14:19:19.963Z</time></trkpt><trkpt lat="50.86084375304158" lon="11.99573409575624"><ele>244.0</ele><time>2026-05-03T14:19:20.963Z</time></trkpt><trkpt lat="50.860846866165275" lon="11.995446505739837"><ele>244.0</ele><time>2026-05-03T14:19:21.963Z</time></trkpt><trkpt lat="50.86085587009772" lon="11.995151594103381"><ele>243.66666666666666</ele><time>2026-05-03T14:19:22.963Z</time></trkpt><trkpt lat="50.860860812405896" lon="11.994848867624183"><ele>243.33333333333331</ele><time>2026-05-03T14:19:23.963Z</time></trkpt><trkpt lat="50.86085639526873" lon="11.99454990438756"><ele>243.0</ele><time>2026-05-03T14:19:24.963Z</time></trkpt><trkpt lat="50.86084335744391" lon="11.994248657674584"><ele>243.33333333333331</ele><time>2026-05-03T14:19:25.963Z</time></trkpt><trkpt lat="50.860814585064595" lon="11.993951535391176"><ele>243.66666666666666</ele><time>2026-05-03T14:19:26.963Z</time></trkpt><trkpt lat="50.86077443819079" lon="11.993660065944542"><ele>244.0</ele><time>2026-05-03T14:19:27.963Z</time></trkpt><trkpt lat="50.86073134281582" lon="11.99336367700828"><ele>245.33333333333331</ele><time>2026-05-03T14:19:28.963Z</time></trkpt><trkpt lat="50.86069208529579" lon="11.993063675284679"><ele>246.66666666666669</ele><time>2026-05-03T14:19:29.963Z</time></trkpt><trkpt lat="50.86065748600696" lon="11.99276106632769"><ele>248.0</ele><time>2026-05-03T14:19:30.963Z</time></trkpt><trkpt lat="50.860627972439346" lon="11.99245754549203"><ele>249.0</ele><time>2026-05-03T14:19:31.963Z</time></trkpt><trkpt lat="50.860589687264245" lon="11.992151545696279"><ele>250.0</ele><time>2026-05-03T14:19:32.963Z</time></trkpt><trkpt lat="50.86053759882986" lon="11.99184719853005"><ele>251.0</ele><time>2026-05-03T14:19:33.963Z</time></trkpt><trkpt lat="50.860461187799835" lon="11.991547483584107"><ele>252.66666666666669</ele><time>2026-05-03T14:19:34.963Z</time></trkpt><trkpt lat="50.86036762834841" lon="11.991247373050674"><ele>254.33333333333331</ele><time>2026-05-03T14:19:35.963Z</time></trkpt><trkpt lat="50.86027126169286" lon="11.990949897935163"><ele>256.0</ele><time>2026-05-03T14:19:36.963Z</time></trkpt><trkpt lat="50.86017363302915" lon="11.990639337672661"><ele>255.0</ele><time>2026-05-03T14:19:37.963Z</time></trkpt><trkpt lat="50.860081211601624" lon="11.990332710390367"><ele>254.0</ele><time>2026-05-03T14:19:38.963Z</time></trkpt><trkpt lat="50.85999159384917" lon="11.990032665703147"><ele>253.0</ele><time>2026-05-03T14:19:39.963Z</time></trkpt><trkpt lat="50.85990270891496" lon="11.989729232356316"><ele>253.0</ele><time>2026-05-03T14:19:40.963Z</time></trkpt><trkpt lat="50.859813418503116" lon="11.989438547675894"><ele>253.0</ele><time>2026-05-03T14:19:41.963Z</time></trkpt><trkpt lat="50.859726145401304" lon="11.989147762475216"><ele>253.0</ele><time>2026-05-03T14:19:42.963Z</time></trkpt><trkpt lat="50.85963934934114" lon="11.988861221861113"><ele>253.66666666666666</ele><time>2026-05-03T14:19:43.963Z</time></trkpt><trkpt lat="50.859555943489234" lon="11.988584848042906"><ele>254.33333333333331</ele><time>2026-05-03T14:19:44.963Z</time></trkpt><trkpt lat="50.85947270387265" lon="11.988308227015455"><ele>255.0</ele><time>2026-05-03T14:19:45.963Z</time></trkpt><trkpt lat="50.85938744369561" lon="11.98802937327047"><ele>255.66666666666669</ele><time>2026-05-03T14:19:46.963Z</time></trkpt><trkpt lat="50.8593093944289" lon="11.987757051793574"><ele>256.33333333333337</ele><time>2026-05-03T14:19:47.963Z</time></trkpt><trkpt lat="50.8592320180774" lon="11.987489102442352"><ele>257.0</ele><time>2026-05-03T14:19:48.963Z</time></trkpt><trkpt lat="50.859156852684755" lon="11.987214723877953"><ele>255.33333333333334</ele><time>2026-05-03T14:19:49.963Z</time></trkpt><trkpt lat="50.85909722618932" lon="11.986935699729573"><ele>253.66666666666669</ele><time>2026-05-03T14:19:50.963Z</time></trkpt><trkpt lat="50.85904625068279" lon="11.986642040031047"><ele>252.0</ele><time>2026-05-03T14:19:51.963Z</time></trkpt><trkpt lat="50.858995157977475" lon="11.98635189731742"><ele>252.0</ele><time>2026-05-03T14:19:52.963Z</time></trkpt><trkpt lat="50.85894250527483" lon="11.986063963670544"><ele>252.0</ele><time>2026-05-03T14:19:53.963Z</time></trkpt><trkpt lat="50.85889497541994" lon="11.98579315762498"><ele>252.0</ele><time>2026-05-03T14:19:54.963Z</time></trkpt><trkpt lat="50.85886388635015" lon="11.98553287799567"><ele>252.0</ele><time>2026-05-03T14:19:55.963Z</time></trkpt><trkpt lat="50.858880075642126" lon="11.985277549879413"><ele>252.0</ele><time>2026-05-03T14:19:56.963Z</time></trkpt><trkpt lat="50.858913573648415" lon="11.985025231833658"><ele>252.0</ele><time>2026-05-03T14:19:57.963Z</time></trkpt><trkpt lat="50.85894718559326" lon="11.9847819815482"><ele>252.0</ele><time>2026-05-03T14:19:58.963Z</time></trkpt><trkpt lat="50.859003048820696" lon="11.984563026352818"><ele>252.0</ele><time>2026-05-03T14:19:59.963Z</time></trkpt><trkpt lat="50.85905854614556" lon="11.98434857527488"><ele>252.0</ele><time>2026-05-03T14:20:00.963Z</time></trkpt><trkpt lat="50.85910753395794" lon="11.984139397392482"><ele>252.0</ele><time>2026-05-03T14:20:01.963Z</time></trkpt><trkpt lat="50.85915130926216" lon="11.983948374908033"><ele>252.0</ele><time>2026-05-03T14:20:02.963Z</time></trkpt><trkpt lat="50.8591874739626" lon="11.983769820469558"><ele>252.0</ele><time>2026-05-03T14:20:03.963Z</time></trkpt><trkpt lat="50.85923546961156" lon="11.98361120780191"><ele>252.0</ele><time>2026-05-03T14:20:04.963Z</time></trkpt><trkpt lat="50.85924960646977" lon="11.983423982934404"><ele>252.0</ele><time>2026-05-03T14:20:05.963Z</time></trkpt><trkpt lat="50.85924846492546" lon="11.983237763841572"><ele>252.0</ele><time>2026-05-03T14:20:06.963Z</time></trkpt><trkpt lat="50.85923311732859" lon="11.983047170662607"><ele>252.0</ele><time>2026-05-03T14:20:07.963Z</time></trkpt><trkpt lat="50.85919561558525" lon="11.98285405831933"><ele>252.0</ele><time>2026-05-03T14:20:08.963Z</time></trkpt><trkpt lat="50.859150885649576" lon="11.982665273692659"><ele>252.0</ele><time>2026-05-03T14:20:09.963Z</time></trkpt><trkpt lat="50.859102826917585" lon="11.982469852692326"><ele>252.25</ele><time>2026-05-03T14:20:10.963Z</time></trkpt><trkpt lat="50.85904209366193" lon="11.982276688697732"><ele>252.5</ele><time>2026-05-03T14:20:11.963Z</time></trkpt><trkpt lat="50.858973767662604" lon="11.98210426386195"><ele>252.75</ele><time>2026-05-03T14:20:12.963Z</time></trkpt><trkpt lat="50.858905458277" lon="11.981936756416202"><ele>253.0</ele><time>2026-05-03T14:20:13.963Z</time></trkpt><trkpt lat="50.858828568207045" lon="11.981778279993478"><ele>253.5</ele><time>2026-05-03T14:20:14.963Z</time></trkpt><trkpt lat="50.85874236760919" lon="11.981623432864994"><ele>254.0</ele><time>2026-05-03T14:20:15.963Z</time></trkpt><trkpt lat="50.858658590127725" lon="11.981469867855221"><ele>254.5</ele><time>2026-05-03T14:20:16.963Z</time></trkpt><trkpt lat="50.858576137532786" lon="11.981322290491892"><ele>255.0</ele><time>2026-05-03T14:20:17.963Z</time></trkpt><trkpt lat="50.858493766509234" lon="11.981174807592293"><ele>254.0</ele><time>2026-05-03T14:20:18.963Z</time></trkpt><trkpt lat="50.858405287274316" lon="11.981031254403739"><ele>253.0</ele><time>2026-05-03T14:20:19.963Z</time></trkpt><trkpt lat="50.8583217315392" lon="11.980889923525883"><ele>252.0</ele><time>2026-05-03T14:20:20.963Z</time></trkpt><trkpt lat="50.85824130553938" lon="11.980747499910501"><ele>251.0</ele><time>2026-05-03T14:20:21.963Z</time></trkpt><trkpt lat="50.858160958676166" lon="11.980602274886651"><ele>251.0</ele><time>2026-05-03T14:20:22.963Z</time></trkpt><trkpt lat="50.858075965347865" lon="11.980464974596167"><ele>251.0</ele><time>2026-05-03T14:20:23.963Z</time></trkpt><trkpt lat="50.85799487839538" lon="11.98032725609623"><ele>251.0</ele><time>2026-05-03T14:20:24.963Z</time></trkpt><trkpt lat="50.85791918957396" lon="11.98018006180073"><ele>251.0</ele><time>2026-05-03T14:20:25.963Z</time></trkpt><trkpt lat="50.85784606121249" lon="11.980029418681346"><ele>250.75</ele><time>2026-05-03T14:20:26.963Z</time></trkpt><trkpt lat="50.85778528926164" lon="11.979875473279112"><ele>250.5</ele><time>2026-05-03T14:20:27.963Z</time></trkpt><trkpt lat="50.85772464384265" lon="11.979715013588924"><ele>250.25</ele><time>2026-05-03T14:20:28.963Z</time></trkpt><trkpt lat="50.85766727415627" lon="11.979549645679997"><ele>250.0</ele><time>2026-05-03T14:20:29.963Z</time></trkpt><trkpt lat="50.857613895701185" lon="11.979377275175402"><ele>250.0</ele><time>2026-05-03T14:20:30.963Z</time></trkpt><trkpt lat="50.85756271895751" lon="11.97920078527619"><ele>250.0</ele><time>2026-05-03T14:20:31.963Z</time></trkpt><trkpt lat="50.85750892585747" lon="11.979027771371443"><ele>250.0</ele><time>2026-05-03T14:20:32.963Z</time></trkpt><trkpt lat="50.8574572319682" lon="11.978849166659774"><ele>250.0</ele><time>2026-05-03T14:20:33.963Z</time></trkpt><trkpt lat="50.85740901130152" lon="11.978664648772744"><ele>250.0</ele><time>2026-05-03T14:20:34.963Z</time></trkpt><trkpt lat="50.85736220585465" lon="11.978484618474994"><ele>250.0</ele><time>2026-05-03T14:20:35.963Z</time></trkpt><trkpt lat="50.8573082888637" lon="11.978298111211824"><ele>250.0</ele><time>2026-05-03T14:20:36.963Z</time></trkpt><trkpt lat="50.857257702965605" lon="11.978116806453677"><ele>250.0</ele><time>2026-05-03T14:20:37.963Z</time></trkpt><trkpt lat="50.85721056758037" lon="11.977943260918586"><ele>250.25</ele><time>2026-05-03T14:20:38.963Z</time></trkpt><trkpt lat="50.857165847614986" lon="11.977760037620957"><ele>250.5</ele><time>2026-05-03T14:20:39.963Z</time></trkpt><trkpt lat="50.8571226658722" lon="11.97757346920643"><ele>250.75</ele><time>2026-05-03T14:20:40.963Z</time></trkpt><trkpt lat="50.85707242544532" lon="11.977391917376055"><ele>251.0</ele><time>2026-05-03T14:20:41.963Z</time></trkpt><trkpt lat="50.857021323454205" lon="11.977216077553933"><ele>251.25</ele><time>2026-05-03T14:20:42.963Z</time></trkpt><trkpt lat="50.85697251420941" lon="11.977041150066535"><ele>251.5</ele><time>2026-05-03T14:20:43.962Z</time></trkpt><trkpt lat="50.856917842279046" lon="11.97686399736937"><ele>251.75</ele><time>2026-05-03T14:20:44.962Z</time></trkpt><trkpt lat="50.856846840617706" lon="11.976698894818693"><ele>252.0</ele><time>2026-05-03T14:20:45.962Z</time></trkpt><trkpt lat="50.85677125969118" lon="11.976557451376863"><ele>252.0</ele><time>2026-05-03T14:20:46.962Z</time></trkpt><trkpt lat="50.85668194532851" lon="11.97643613053377"><ele>252.0</ele><time>2026-05-03T14:20:47.962Z</time></trkpt><trkpt lat="50.85657772163421" lon="11.976330074117353"><ele>252.0</ele><time>2026-05-03T14:20:48.962Z</time></trkpt><trkpt lat="50.85647403099479" lon="11.976223434049853"><ele>252.0</ele><time>2026-05-03T14:20:49.961Z</time></trkpt><trkpt lat="50.856373169558466" lon="11.976110083531706"><ele>252.0</ele><time>2026-05-03T14:20:50.962Z</time></trkpt><trkpt lat="50.856266733083224" lon="11.975989095918477"><ele>252.0</ele><time>2026-05-03T14:20:51.962Z</time></trkpt><trkpt lat="50.85617573663968" lon="11.975841736349562"><ele>252.0</ele><time>2026-05-03T14:20:52.962Z</time></trkpt><trkpt lat="50.856102793049494" lon="11.975664756292026"><ele>252.0</ele><time>2026-05-03T14:20:53.962Z</time></trkpt><trkpt lat="50.856038362243744" lon="11.975476855069882"><ele>252.0</ele><time>2026-05-03T14:20:54.962Z</time></trkpt><trkpt lat="50.85596468341523" lon="11.975292787920585"><ele>252.0</ele><time>2026-05-03T14:20:55.962Z</time></trkpt><trkpt lat="50.85589271336321" lon="11.975114995993014"><ele>252.0</ele><time>2026-05-03T14:20:56.962Z</time></trkpt><trkpt lat="50.85582310215029" lon="11.974934876366317"><ele>252.0</ele><time>2026-05-03T14:20:57.962Z</time></trkpt><trkpt lat="50.855747654914616" lon="11.974755202458365"><ele>252.0</ele><time>2026-05-03T14:20:58.962Z</time></trkpt><trkpt lat="50.85567001940425" lon="11.974578593370092"><ele>252.0</ele><time>2026-05-03T14:20:59.962Z</time></trkpt><trkpt lat="50.8555974570778" lon="11.974396700316936"><ele>252.0</ele><time>2026-05-03T14:21:00.962Z</time></trkpt><trkpt lat="50.85552411242421" lon="11.974212307779904"><ele>252.0</ele><time>2026-05-03T14:21:01.962Z</time></trkpt><trkpt lat="50.855453251820805" lon="11.974032384630263"><ele>253.0</ele><time>2026-05-03T14:21:02.962Z</time></trkpt><trkpt lat="50.85538371321606" lon="11.973844199387935"><ele>254.0</ele><time>2026-05-03T14:21:03.962Z</time></trkpt><trkpt lat="50.85531781189555" lon="11.973646191874979"><ele>255.0</ele><time>2026-05-03T14:21:04.962Z</time></trkpt><trkpt lat="50.855255108460604" lon="11.97344168047918"><ele>256.0</ele><time>2026-05-03T14:21:05.962Z</time></trkpt><trkpt lat="50.8551953181309" lon="11.973223325813143"><ele>255.0</ele><time>2026-05-03T14:21:06.962Z</time></trkpt><trkpt lat="50.855136996150215" lon="11.972993379312063"><ele>254.0</ele><time>2026-05-03T14:21:07.962Z</time></trkpt><trkpt lat="50.85508103605899" lon="11.972745501462366"><ele>253.0</ele><time>2026-05-03T14:21:08.962Z</time></trkpt><trkpt lat="50.85502941689059" lon="11.97248869482885"><ele>253.0</ele><time>2026-05-03T14:21:09.962Z</time></trkpt><trkpt lat="50.85497810597486" lon="11.972220430152595"><ele>253.0</ele><time>2026-05-03T14:21:10.962Z</time></trkpt><trkpt lat="50.85492140563055" lon="11.971939293021025"><ele>253.0</ele><time>2026-05-03T14:21:11.962Z</time></trkpt><trkpt lat="50.85485681314399" lon="11.971651702314906"><ele>254.33333333333331</ele><time>2026-05-03T14:21:12.962Z</time></trkpt><trkpt lat="50.85479087795062" lon="11.971341742648224"><ele>255.66666666666669</ele><time>2026-05-03T14:21:13.962Z</time></trkpt><trkpt lat="50.8547221155598" lon="11.971020881838884"><ele>257.0</ele><time>2026-05-03T14:21:14.962Z</time></trkpt><trkpt lat="50.854652025864844" lon="11.970693402239784"><ele>257.6666666666667</ele><time>2026-05-03T14:21:15.962Z</time></trkpt><trkpt lat="50.854586155374264" lon="11.970351817466009"><ele>258.3333333333333</ele><time>2026-05-03T14:21:16.962Z</time></trkpt><trkpt lat="50.854533515361965" lon="11.970020129306668"><ele>259.0</ele><time>2026-05-03T14:21:17.962Z</time></trkpt><trkpt lat="50.8545041178806" lon="11.969703932186762"><ele>259.66666666666663</ele><time>2026-05-03T14:21:18.962Z</time></trkpt><trkpt lat="50.85448350827392" lon="11.969389246546644"><ele>260.3333333333333</ele><time>2026-05-03T14:21:19.962Z</time></trkpt><trkpt lat="50.854465392126464" lon="11.96907497062515"><ele>261.0</ele><time>2026-05-03T14:21:20.962Z</time></trkpt><trkpt lat="50.854439175375674" lon="11.96876302570916"><ele>261.0</ele><time>2026-05-03T14:21:21.962Z</time></trkpt><trkpt lat="50.85441701453984" lon="11.968458014032127"><ele>261.0</ele><time>2026-05-03T14:21:22.962Z</time></trkpt><trkpt lat="50.854393189031235" lon="11.968151892731976"><ele>261.0</ele><time>2026-05-03T14:21:23.962Z</time></trkpt><trkpt lat="50.854371524158395" lon="11.967857079846874"><ele>261.0</ele><time>2026-05-03T14:21:24.962Z</time></trkpt><trkpt lat="50.85434806777393" lon="11.967566407307933"><ele>261.0</ele><time>2026-05-03T14:21:25.962Z</time></trkpt><trkpt lat="50.8543255479548" lon="11.967280908959808"><ele>261.0</ele><time>2026-05-03T14:21:26.962Z</time></trkpt><trkpt lat="50.854306513173036" lon="11.96699134632401"><ele>259.0</ele><time>2026-05-03T14:21:27.962Z</time></trkpt><trkpt lat="50.85428478830953" lon="11.966701871996076"><ele>257.0</ele><time>2026-05-03T14:21:28.962Z</time></trkpt><trkpt lat="50.85426116444118" lon="11.966403132948209"><ele>255.0</ele><time>2026-05-03T14:21:29.962Z</time></trkpt><trkpt lat="50.854237600537786" lon="11.966109649153006"><ele>254.66666666666669</ele><time>2026-05-03T14:21:30.962Z</time></trkpt><trkpt lat="50.85421417685908" lon="11.965804617330276"><ele>254.33333333333334</ele><time>2026-05-03T14:21:31.962Z</time></trkpt><trkpt lat="50.85419320142038" lon="11.96550260292194"><ele>254.0</ele><time>2026-05-03T14:21:32.962Z</time></trkpt><trkpt lat="50.8541689762275" lon="11.965212172980543"><ele>254.66666666666669</ele><time>2026-05-03T14:21:33.962Z</time></trkpt><trkpt lat="50.854144457770424" lon="11.964910451095326"><ele>255.33333333333331</ele><time>2026-05-03T14:21:34.962Z</time></trkpt><trkpt lat="50.85412089943401" lon="11.964610111171844"><ele>256.0</ele><time>2026-05-03T14:21:35.962Z</time></trkpt><trkpt lat="50.85409817930321" lon="11.964315658862105"><ele>256.66666666666663</ele><time>2026-05-03T14:21:36.962Z</time></trkpt><trkpt lat="50.85407550877666" lon="11.964030087554226"><ele>257.3333333333333</ele><time>2026-05-03T14:21:37.962Z</time></trkpt><trkpt lat="50.85405493800976" lon="11.963754570415539"><ele>258.0</ele><time>2026-05-03T14:21:38.962Z</time></trkpt><trkpt lat="50.854034502018855" lon="11.96350364421906"><ele>258.25</ele><time>2026-05-03T14:21:39.962Z</time></trkpt><trkpt lat="50.854015544202596" lon="11.963275982432432"><ele>258.5</ele><time>2026-05-03T14:21:40.962Z</time></trkpt><trkpt lat="50.85400154704952" lon="11.963059861536925"><ele>258.75</ele><time>2026-05-03T14:21:41.962Z</time></trkpt><trkpt lat="50.85398776647194" lon="11.962852678190806"><ele>259.0</ele><time>2026-05-03T14:21:42.962Z</time></trkpt><trkpt lat="50.853975360642906" lon="11.96266459905311"><ele>259.5</ele><time>2026-05-03T14:21:43.962Z</time></trkpt><trkpt lat="50.853962236792384" lon="11.962475678900885"><ele>260.0</ele><time>2026-05-03T14:21:44.962Z</time></trkpt><trkpt lat="50.853945488777796" lon="11.962273174792125"><ele>260.5</ele><time>2026-05-03T14:21:45.962Z</time></trkpt><trkpt lat="50.85393014507184" lon="11.96207117687854"><ele>261.0</ele><time>2026-05-03T14:21:46.962Z</time></trkpt><trkpt lat="50.85391621050624" lon="11.961861416437195"><ele>261.5</ele><time>2026-05-03T14:21:47.962Z</time></trkpt><trkpt lat="50.85389969869388" lon="11.961651225353044"><ele>262.0</ele><time>2026-05-03T14:21:48.962Z</time></trkpt><trkpt lat="50.85388490041984" lon="11.961440258047542"><ele>262.5</ele><time>2026-05-03T14:21:49.962Z</time></trkpt><trkpt lat="50.85386759193012" lon="11.961233884851262"><ele>263.0</ele><time>2026-05-03T14:21:50.962Z</time></trkpt><trkpt lat="50.85385075591815" lon="11.961017953653977"><ele>263.25</ele><time>2026-05-03T14:21:51.962Z</time></trkpt><trkpt lat="50.8538369757976" lon="11.960805926013427"><ele>263.5</ele><time>2026-05-03T14:21:52.962Z</time></trkpt><trkpt lat="50.85382060168868" lon="11.960587876426656"><ele>263.75</ele><time>2026-05-03T14:21:53.962Z</time></trkpt><trkpt lat="50.853801750839345" lon="11.96037070450416"><ele>264.0</ele><time>2026-05-03T14:21:54.962Z</time></trkpt><trkpt lat="50.853785008264225" lon="11.96015143891296"><ele>264.25</ele><time>2026-05-03T14:21:55.962Z</time></trkpt><trkpt lat="50.85376614013112" lon="11.959932363323293"><ele>264.5</ele><time>2026-05-03T14:21:56.962Z</time></trkpt><trkpt lat="50.85374583740989" lon="11.959712474334461"><ele>264.75</ele><time>2026-05-03T14:21:57.962Z</time></trkpt><trkpt lat="50.85371968844495" lon="11.959483844050723"><ele>265.0</ele><time>2026-05-03T14:21:58.962Z</time></trkpt><trkpt lat="50.85369319658792" lon="11.959263438040875"><ele>265.5</ele><time>2026-05-03T14:21:59.962Z</time></trkpt><trkpt lat="50.85366732596333" lon="11.959051905932048"><ele>266.0</ele><time>2026-05-03T14:22:00.962Z</time></trkpt><trkpt lat="50.85363071537596" lon="11.958850685196865"><ele>266.5</ele><time>2026-05-03T14:22:01.962Z</time></trkpt><trkpt lat="50.853602665501754" lon="11.958653538534948"><ele>267.0</ele><time>2026-05-03T14:22:02.962Z</time></trkpt><trkpt lat="50.85358929617512" lon="11.95845005331197"><ele>267.75</ele><time>2026-05-03T14:22:03.962Z</time></trkpt><trkpt lat="50.85357503238093" lon="11.958243445451613"><ele>268.5</ele><time>2026-05-03T14:22:04.962Z</time></trkpt><trkpt lat="50.853567161517276" lon="11.958038653217558"><ele>269.25</ele><time>2026-05-03T14:22:05.962Z</time></trkpt><trkpt lat="50.85354299017182" lon="11.95784370655813"><ele>270.0</ele><time>2026-05-03T14:22:06.962Z</time></trkpt><trkpt lat="50.85350377478261" lon="11.957654282561371"><ele>267.25</ele><time>2026-05-03T14:22:07.962Z</time></trkpt><trkpt lat="50.85344828416462" lon="11.957473806100786"><ele>264.5</ele><time>2026-05-03T14:22:08.962Z</time></trkpt><trkpt lat="50.853382743516484" lon="11.957303424529744"><ele>261.75</ele><time>2026-05-03T14:22:09.962Z</time></trkpt><trkpt lat="50.853327436796405" lon="11.957119282027698"><ele>259.0</ele><time>2026-05-03T14:22:10.962Z</time></trkpt><trkpt lat="50.853281550459506" lon="11.956920046843795"><ele>259.0</ele><time>2026-05-03T14:22:11.962Z</time></trkpt><trkpt lat="50.85325236363281" lon="11.956717904927864"><ele>259.0</ele><time>2026-05-03T14:22:12.962Z</time></trkpt><trkpt lat="50.85326652920327" lon="11.956501449766336"><ele>259.0</ele><time>2026-05-03T14:22:13.962Z</time></trkpt><trkpt lat="50.85326978034575" lon="11.95629888516016"><ele>259.0</ele><time>2026-05-03T14:22:14.962Z</time></trkpt><trkpt lat="50.85325832275092" lon="11.956110493055427"><ele>259.3333333333333</ele><time>2026-05-03T14:22:15.962Z</time></trkpt><trkpt lat="50.85326741176114" lon="11.955941802606674"><ele>259.66666666666663</ele><time>2026-05-03T14:22:16.962Z</time></trkpt><trkpt lat="50.85327327943364" lon="11.955794055315607"><ele>260.0</ele><time>2026-05-03T14:22:17.962Z</time></trkpt><trkpt lat="50.85327586936724" lon="11.955694184126951"><ele>260.3333333333333</ele><time>2026-05-03T14:22:18.962Z</time></trkpt><trkpt lat="50.85329939402555" lon="11.955599971614566"><ele>260.6666666666667</ele><time>2026-05-03T14:22:20.962Z</time></trkpt><trkpt lat="50.85338059397761" lon="11.955621735903465"><ele>261.0</ele><time>2026-05-03T14:22:22.962Z</time></trkpt><trkpt lat="50.85344496474148" lon="11.955616015954961"><ele>262.8333333333333</ele><time>2026-05-03T14:22:23.962Z</time></trkpt><trkpt lat="50.85351552608461" lon="11.955583380669648"><ele>264.6666666666667</ele><time>2026-05-03T14:22:24.962Z</time></trkpt><trkpt lat="50.8535955561513" lon="11.955597916942798"><ele>266.5</ele><time>2026-05-03T14:22:25.962Z</time></trkpt><trkpt lat="50.85368304464589" lon="11.955587204069392"><ele>268.33333333333337</ele><time>2026-05-03T14:22:26.962Z</time></trkpt><trkpt lat="50.85377570635431" lon="11.95558129393486"><ele>270.1666666666667</ele><time>2026-05-03T14:22:27.962Z</time></trkpt><trkpt lat="50.85387606012909" lon="11.955581953137592"><ele>272.0</ele><time>2026-05-03T14:22:28.962Z</time></trkpt><trkpt lat="50.85398366123055" lon="11.955579008315665"><ele>272.0</ele><time>2026-05-03T14:22:29.962Z</time></trkpt><trkpt lat="50.85409564940946" lon="11.955589025419323"><ele>272.0</ele><time>2026-05-03T14:22:30.962Z</time></trkpt><trkpt lat="50.85421132011102" lon="11.955597010872733"><ele>272.0</ele><time>2026-05-03T14:22:31.962Z</time></trkpt><trkpt lat="50.85433124848629" lon="11.955590924099631"><ele>272.0</ele><time>2026-05-03T14:22:32.962Z</time></trkpt><trkpt lat="50.85445331965805" lon="11.955553124335678"><ele>274.5</ele><time>2026-05-03T14:22:33.962Z</time></trkpt><trkpt lat="50.854570975603096" lon="11.955467258342415"><ele>277.0</ele><time>2026-05-03T14:22:34.962Z</time></trkpt><trkpt lat="50.85468765313352" lon="11.955321503829436"><ele>279.5</ele><time>2026-05-03T14:22:35.962Z</time></trkpt><trkpt lat="50.854805861873" lon="11.955148587928822"><ele>282.0</ele><time>2026-05-03T14:22:36.962Z</time></trkpt><trkpt lat="50.85493741328806" lon="11.955020573106072"><ele>282.0</ele><time>2026-05-03T14:22:37.962Z</time></trkpt><trkpt lat="50.85506588807898" lon="11.95489728080466"><ele>282.0</ele><time>2026-05-03T14:22:38.962Z</time></trkpt><trkpt lat="50.85520258132168" lon="11.95480616968833"><ele>282.0</ele><time>2026-05-03T14:22:39.962Z</time></trkpt><trkpt lat="50.85536403375151" lon="11.954732899622956"><ele>285.0</ele><time>2026-05-03T14:22:40.962Z</time></trkpt><trkpt lat="50.85552795805338" lon="11.954675969231294"><ele>288.0</ele><time>2026-05-03T14:22:41.962Z</time></trkpt><trkpt lat="50.85568719024288" lon="11.954609368709542"><ele>291.0</ele><time>2026-05-03T14:22:42.962Z</time></trkpt><trkpt lat="50.85585471521733" lon="11.954564746919651"><ele>293.25</ele><time>2026-05-03T14:22:43.962Z</time></trkpt><trkpt lat="50.85599583792123" lon="11.954544604543088"><ele>295.5</ele><time>2026-05-03T14:22:44.962Z</time></trkpt><trkpt lat="50.8561295253884" lon="11.954515033140662"><ele>297.75</ele><time>2026-05-03T14:22:45.962Z</time></trkpt><trkpt lat="50.85626210832192" lon="11.954485706009368"><ele>300.0</ele><time>2026-05-03T14:22:46.962Z</time></trkpt><trkpt lat="50.856389612383" lon="11.954433418019063"><ele>300.0</ele><time>2026-05-03T14:22:47.962Z</time></trkpt><trkpt lat="50.856523844120396" lon="11.954444793379977"><ele>300.0</ele><time>2026-05-03T14:22:48.962Z</time></trkpt><trkpt lat="50.85665838336407" lon="11.954450059779427"><ele>300.0</ele><time>2026-05-03T14:22:49.961Z</time></trkpt><trkpt lat="50.85680658877691" lon="11.954461625940493"><ele>300.0</ele><time>2026-05-03T14:22:50.961Z</time></trkpt><trkpt lat="50.856965097366846" lon="11.954511411447337"><ele>302.6666666666667</ele><time>2026-05-03T14:22:51.961Z</time></trkpt><trkpt lat="50.8571193685126" lon="11.954568529614946"><ele>305.33333333333337</ele><time>2026-05-03T14:22:52.96Z</time></trkpt><trkpt lat="50.857271690594764" lon="11.954678197665316"><ele>308.0</ele><time>2026-05-03T14:22:53.96Z</time></trkpt><trkpt lat="50.857428991714606" lon="11.954793274131742"><ele>308.0</ele><time>2026-05-03T14:22:54.96Z</time></trkpt><trkpt lat="50.85758876520494" lon="11.954904874236012"><ele>308.0</ele><time>2026-05-03T14:22:55.961Z</time></trkpt><trkpt lat="50.857739508279884" lon="11.955036104290897"><ele>308.0</ele><time>2026-05-03T14:22:56.961Z</time></trkpt><trkpt lat="50.85788433983758" lon="11.955139402860077"><ele>311.6666666666667</ele><time>2026-05-03T14:22:57.961Z</time></trkpt><trkpt lat="50.85804084144722" lon="11.955201684896423"><ele>315.3333333333333</ele><time>2026-05-03T14:22:58.961Z</time></trkpt><trkpt lat="50.85819146531019" lon="11.955218018963377"><ele>319.0</ele><time>2026-05-03T14:22:59.96Z</time></trkpt><trkpt lat="50.858341538955614" lon="11.955189857765445"><ele>321.0</ele><time>2026-05-03T14:23:00.96Z</time></trkpt><trkpt lat="50.8584895277801" lon="11.955101929650636"><ele>323.0</ele><time>2026-05-03T14:23:01.96Z</time></trkpt><trkpt lat="50.8586494810306" lon="11.955019872534908"><ele>325.0</ele><time>2026-05-03T14:23:02.961Z</time></trkpt><trkpt lat="50.85880678234754" lon="11.95491682559305"><ele>325.0</ele><time>2026-05-03T14:23:03.961Z</time></trkpt><trkpt lat="50.85896797991832" lon="11.954814534017837"><ele>325.0</ele><time>2026-05-03T14:23:04.961Z</time></trkpt><trkpt lat="50.85913289830986" lon="11.954711044744913"><ele>325.0</ele><time>2026-05-03T14:23:05.961Z</time></trkpt><trkpt lat="50.8592956920501" lon="11.954614465085996"><ele>327.66666666666663</ele><time>2026-05-03T14:23:06.961Z</time></trkpt><trkpt lat="50.85946287655491" lon="11.954518917866368"><ele>330.3333333333333</ele><time>2026-05-03T14:23:07.961Z</time></trkpt><trkpt lat="50.8596276035544" lon="11.954424404324516"><ele>333.0</ele><time>2026-05-03T14:23:08.961Z</time></trkpt><trkpt lat="50.859766853505285" lon="11.954325520158575"><ele>333.0</ele><time>2026-05-03T14:23:09.961Z</time></trkpt><trkpt lat="50.85990735716987" lon="11.954258834477516"><ele>333.0</ele><time>2026-05-03T14:23:10.961Z</time></trkpt><trkpt lat="50.86005269721534" lon="11.954167857845032"><ele>333.0</ele><time>2026-05-03T14:23:11.961Z</time></trkpt><trkpt lat="50.860197295246756" lon="11.954078331248086"><ele>334.25</ele><time>2026-05-03T14:23:12.961Z</time></trkpt><trkpt lat="50.86033695519487" lon="11.953994257813061"><ele>335.5</ele><time>2026-05-03T14:23:13.961Z</time></trkpt><trkpt lat="50.860464211422396" lon="11.953893664755816"><ele>336.75</ele><time>2026-05-03T14:23:14.961Z</time></trkpt><trkpt lat="50.860589229783564" lon="11.953840119014718"><ele>338.0</ele><time>2026-05-03T14:23:15.961Z</time></trkpt><trkpt lat="50.86070355433402" lon="11.953773869809693"><ele>338.0</ele><time>2026-05-03T14:23:16.961Z</time></trkpt><trkpt lat="50.860814833055194" lon="11.953706580746227"><ele>338.0</ele><time>2026-05-03T14:23:17.961Z</time></trkpt><trkpt lat="50.86093040265729" lon="11.953649124205615"><ele>338.0</ele><time>2026-05-03T14:23:18.961Z</time></trkpt><trkpt lat="50.861044163033796" lon="11.953595711267047"><ele>338.0</ele><time>2026-05-03T14:23:19.961Z</time></trkpt><trkpt lat="50.86115342356808" lon="11.953528802691714"><ele>338.0</ele><time>2026-05-03T14:23:20.961Z</time></trkpt><trkpt lat="50.86125999870766" lon="11.953443755797691"><ele>338.0</ele><time>2026-05-03T14:23:21.961Z</time></trkpt><trkpt lat="50.86137051787696" lon="11.953350033544824"><ele>338.0</ele><time>2026-05-03T14:23:22.961Z</time></trkpt><trkpt lat="50.86148892538314" lon="11.953283171104456"><ele>338.0</ele><time>2026-05-03T14:23:23.961Z</time></trkpt><trkpt lat="50.8615799497629" lon="11.953219997774688"><ele>338.0</ele><time>2026-05-03T14:23:24.961Z</time></trkpt><trkpt lat="50.86165429155343" lon="11.953197925619524"><ele>338.0</ele><time>2026-05-03T14:23:25.961Z</time></trkpt><trkpt lat="50.861725245037036" lon="11.953227456402951"><ele>338.0</ele><time>2026-05-03T14:23:26.961Z</time></trkpt><trkpt lat="50.861793510167345" lon="11.953304744873419"><ele>338.0</ele><time>2026-05-03T14:23:27.961Z</time></trkpt><trkpt lat="50.86180455462229" lon="11.953441509537297"><ele>338.0</ele><time>2026-05-03T14:23:28.961Z</time></trkpt><trkpt lat="50.861812357532884" lon="11.953591671023128"><ele>338.0</ele><time>2026-05-03T14:23:29.961Z</time></trkpt><trkpt lat="50.86185335787901" lon="11.953746536974327"><ele>338.75</ele><time>2026-05-03T14:23:30.961Z</time></trkpt><trkpt lat="50.8619228287951" lon="11.953871505955439"><ele>339.5</ele><time>2026-05-03T14:23:31.961Z</time></trkpt><trkpt lat="50.86204836995659" lon="11.953923630778041"><ele>340.25</ele><time>2026-05-03T14:23:32.961Z</time></trkpt><trkpt lat="50.862195293910396" lon="11.95394162065915"><ele>341.0</ele><time>2026-05-03T14:23:33.961Z</time></trkpt><trkpt lat="50.86234763974436" lon="11.953950462355632"><ele>341.0</ele><time>2026-05-03T14:23:34.961Z</time></trkpt><trkpt lat="50.862498151976446" lon="11.95398636966073"><ele>341.0</ele><time>2026-05-03T14:23:35.961Z</time></trkpt><trkpt lat="50.86265325844995" lon="11.954030157462114"><ele>341.0</ele><time>2026-05-03T14:23:36.961Z</time></trkpt><trkpt lat="50.86280816312094" lon="11.954073571085829"><ele>341.25</ele><time>2026-05-03T14:23:37.961Z</time></trkpt><trkpt lat="50.862953316049115" lon="11.954117978543655"><ele>341.5</ele><time>2026-05-03T14:23:38.961Z</time></trkpt><trkpt lat="50.86308179702805" lon="11.95416149801241"><ele>341.75</ele><time>2026-05-03T14:23:39.961Z</time></trkpt><trkpt lat="50.86319739423659" lon="11.954206114202176"><ele>342.0</ele><time>2026-05-03T14:23:40.961Z</time></trkpt><trkpt lat="50.8633054015834" lon="11.954247874930648"><ele>342.0</ele><time>2026-05-03T14:23:41.961Z</time></trkpt><trkpt lat="50.863407071850865" lon="11.954281230491558"><ele>342.0</ele><time>2026-05-03T14:23:42.961Z</time></trkpt><trkpt lat="50.86350461790849" lon="11.954307502100491"><ele>342.0</ele><time>2026-05-03T14:23:43.961Z</time></trkpt><trkpt lat="50.86361368902798" lon="11.954322375678007"><ele>342.0</ele><time>2026-05-03T14:23:44.961Z</time></trkpt><trkpt lat="50.8637293334012" lon="11.954363182177232"><ele>342.0</ele><time>2026-05-03T14:23:45.961Z</time></trkpt><trkpt lat="50.86385185320475" lon="11.954389376186937"><ele>340.75</ele><time>2026-05-03T14:23:46.961Z</time></trkpt><trkpt lat="50.86397478786906" lon="11.954413426371286"><ele>339.5</ele><time>2026-05-03T14:23:47.961Z</time></trkpt><trkpt lat="50.86409089705543" lon="11.954409803204829"><ele>338.25</ele><time>2026-05-03T14:23:48.961Z</time></trkpt><trkpt lat="50.86420549814996" lon="11.954432074968475"><ele>337.0</ele><time>2026-05-03T14:23:49.961Z</time></trkpt><trkpt lat="50.86432178597898" lon="11.954437529086958"><ele>335.8</ele><time>2026-05-03T14:23:50.961Z</time></trkpt><trkpt lat="50.86443346485417" lon="11.954425439647595"><ele>334.6</ele><time>2026-05-03T14:23:51.961Z</time></trkpt><trkpt lat="50.86453694587823" lon="11.954434010220401"><ele>333.40000000000003</ele><time>2026-05-03T14:23:52.961Z</time></trkpt><trkpt lat="50.86463151494582" lon="11.95445952621976"><ele>332.20000000000005</ele><time>2026-05-03T14:23:53.961Z</time></trkpt><trkpt lat="50.864732481191226" lon="11.954508104866921"><ele>331.0</ele><time>2026-05-03T14:23:54.961Z</time></trkpt><trkpt lat="50.86482634370175" lon="11.95457548727921"><ele>331.0</ele><time>2026-05-03T14:23:55.961Z</time></trkpt><trkpt lat="50.86491650894558" lon="11.954667428850511"><ele>331.0</ele><time>2026-05-03T14:23:56.961Z</time></trkpt><trkpt lat="50.86500292941297" lon="11.95479219676569"><ele>331.0</ele><time>2026-05-03T14:23:57.961Z</time></trkpt><trkpt lat="50.86507119722729" lon="11.954967033844326"><ele>331.0</ele><time>2026-05-03T14:23:58.961Z</time></trkpt><trkpt lat="50.86514374478071" lon="11.955155546040682"><ele>329.75</ele><time>2026-05-03T14:23:59.961Z</time></trkpt><trkpt lat="50.86521884957762" lon="11.955341557742434"><ele>328.5</ele><time>2026-05-03T14:24:00.961Z</time></trkpt><trkpt lat="50.86529856024922" lon="11.955555503473946"><ele>327.25</ele><time>2026-05-03T14:24:01.961Z</time></trkpt><trkpt lat="50.865373590144316" lon="11.955765484153131"><ele>326.0</ele><time>2026-05-03T14:24:02.961Z</time></trkpt><trkpt lat="50.86546438385071" lon="11.955957531509423"><ele>325.0</ele><time>2026-05-03T14:24:03.961Z</time></trkpt><trkpt lat="50.865539541180596" lon="11.956162741613992"><ele>324.0</ele><time>2026-05-03T14:24:04.961Z</time></trkpt><trkpt lat="50.86561088933951" lon="11.956360346609838"><ele>323.0</ele><time>2026-05-03T14:24:05.961Z</time></trkpt><trkpt lat="50.86567812587716" lon="11.956555108224372"><ele>322.0</ele><time>2026-05-03T14:24:06.961Z</time></trkpt><trkpt lat="50.86574969666517" lon="11.956715603800596"><ele>321.25</ele><time>2026-05-03T14:24:07.961Z</time></trkpt><trkpt lat="50.86582002835336" lon="11.956885783551188"><ele>320.5</ele><time>2026-05-03T14:24:08.961Z</time></trkpt><trkpt lat="50.86590788825856" lon="11.956998202419804"><ele>319.75</ele><time>2026-05-03T14:24:09.961Z</time></trkpt><trkpt lat="50.865997319893594" lon="11.957135137761414"><ele>319.0</ele><time>2026-05-03T14:24:10.961Z</time></trkpt><trkpt lat="50.866079233729074" lon="11.957261264083783"><ele>318.59999999999997</ele><time>2026-05-03T14:24:11.961Z</time></trkpt><trkpt lat="50.86614992671591" lon="11.957399223850556"><ele>318.2</ele><time>2026-05-03T14:24:12.961Z</time></trkpt><trkpt lat="50.86620421360111" lon="11.957558003420944"><ele>317.79999999999995</ele><time>2026-05-03T14:24:13.961Z</time></trkpt><trkpt lat="50.86626237152616" lon="11.957700939234922"><ele>317.4</ele><time>2026-05-03T14:24:14.961Z</time></trkpt><trkpt lat="50.86631432039814" lon="11.957849763956963"><ele>317.0</ele><time>2026-05-03T14:24:15.961Z</time></trkpt><trkpt lat="50.86638831946401" lon="11.957985742832175"><ele>315.6</ele><time>2026-05-03T14:24:16.961Z</time></trkpt><trkpt lat="50.866444906473326" lon="11.95812981909419"><ele>314.2</ele><time>2026-05-03T14:24:17.961Z</time></trkpt><trkpt lat="50.866507782176996" lon="11.958271029898468"><ele>312.8</ele><time>2026-05-03T14:24:18.961Z</time></trkpt><trkpt lat="50.86656588084699" lon="11.958418448768207"><ele>311.4</ele><time>2026-05-03T14:24:19.961Z</time></trkpt><trkpt lat="50.86661674290197" lon="11.958563154549136"><ele>310.0</ele><time>2026-05-03T14:24:20.961Z</time></trkpt><trkpt lat="50.86668080290713" lon="11.958705611694224"><ele>309.6</ele><time>2026-05-03T14:24:21.961Z</time></trkpt><trkpt lat="50.86674867259649" lon="11.958833320411339"><ele>309.2</ele><time>2026-05-03T14:24:22.961Z</time></trkpt><trkpt lat="50.866823603681276" lon="11.958944962628484"><ele>308.8</ele><time>2026-05-03T14:24:23.961Z</time></trkpt><trkpt lat="50.86690116281947" lon="11.959050561678596"><ele>308.4</ele><time>2026-05-03T14:24:24.961Z</time></trkpt><trkpt lat="50.86697418034923" lon="11.959159810218292"><ele>308.0</ele><time>2026-05-03T14:24:25.961Z</time></trkpt><trkpt lat="50.86704263559127" lon="11.959265997934708"><ele>306.0</ele><time>2026-05-03T14:24:26.961Z</time></trkpt><trkpt lat="50.86710566140952" lon="11.959354308526493"><ele>304.0</ele><time>2026-05-03T14:24:27.961Z</time></trkpt><trkpt lat="50.86718159030488" lon="11.959437316171414"><ele>302.0</ele><time>2026-05-03T14:24:28.961Z</time></trkpt><trkpt lat="50.86727304339935" lon="11.959516201222035"><ele>300.0</ele><time>2026-05-03T14:24:29.961Z</time></trkpt><trkpt lat="50.86737454576483" lon="11.959587793611382"><ele>298.0</ele><time>2026-05-03T14:24:30.961Z</time></trkpt><trkpt lat="50.86748284831976" lon="11.959666421490057"><ele>298.0</ele><time>2026-05-03T14:24:31.961Z</time></trkpt><trkpt lat="50.86758746836802" lon="11.959755547979487"><ele>298.0</ele><time>2026-05-03T14:24:32.961Z</time></trkpt><trkpt lat="50.86768453550887" lon="11.959855143511364"><ele>298.0</ele><time>2026-05-03T14:24:33.961Z</time></trkpt><trkpt lat="50.86777873234726" lon="11.959949702745437"><ele>298.0</ele><time>2026-05-03T14:24:34.961Z</time></trkpt><trkpt lat="50.867864364441395" lon="11.960052573180812"><ele>296.8</ele><time>2026-05-03T14:24:35.961Z</time></trkpt><trkpt lat="50.867949484263335" lon="11.960142039298052"><ele>295.6</ele><time>2026-05-03T14:24:36.961Z</time></trkpt><trkpt lat="50.868036263167184" lon="11.960244891698197"><ele>294.4</ele><time>2026-05-03T14:24:37.961Z</time></trkpt><trkpt lat="50.86813440472337" lon="11.960342496528762"><ele>293.2</ele><time>2026-05-03T14:24:38.961Z</time></trkpt><trkpt lat="50.868241708391785" lon="11.960432762320645"><ele>292.0</ele><time>2026-05-03T14:24:39.961Z</time></trkpt><trkpt lat="50.868350724355366" lon="11.96051836815591"><ele>291.0</ele><time>2026-05-03T14:24:40.961Z</time></trkpt><trkpt lat="50.86845062208524" lon="11.960602887261361"><ele>290.0</ele><time>2026-05-03T14:24:41.961Z</time></trkpt><trkpt lat="50.8685412300032" lon="11.960692293340474"><ele>289.0</ele><time>2026-05-03T14:24:42.961Z</time></trkpt><trkpt lat="50.86863163688447" lon="11.960777783980244"><ele>288.0</ele><time>2026-05-03T14:24:43.961Z</time></trkpt><trkpt lat="50.868733547105585" lon="11.960847981330383"><ele>287.0</ele><time>2026-05-03T14:24:44.961Z</time></trkpt><trkpt lat="50.86884442680028" lon="11.960908971322622"><ele>286.75</ele><time>2026-05-03T14:24:45.961Z</time></trkpt><trkpt lat="50.86894687368253" lon="11.960978510760652"><ele>286.5</ele><time>2026-05-03T14:24:46.961Z</time></trkpt><trkpt lat="50.86904810865912" lon="11.961041225893597"><ele>286.25</ele><time>2026-05-03T14:24:47.961Z</time></trkpt><trkpt lat="50.86915358839424" lon="11.961109010803629"><ele>286.0</ele><time>2026-05-03T14:24:48.961Z</time></trkpt><trkpt lat="50.86926358113927" lon="11.961180860912455"><ele>285.0</ele><time>2026-05-03T14:24:49.961Z</time></trkpt><trkpt lat="50.869371472989585" lon="11.961253364689345"><ele>284.0</ele><time>2026-05-03T14:24:50.961Z</time></trkpt><trkpt lat="50.86947775210874" lon="11.961326544058526"><ele>283.0</ele><time>2026-05-03T14:24:51.961Z</time></trkpt><trkpt lat="50.869580473387" lon="11.96139096257343"><ele>282.0</ele><time>2026-05-03T14:24:52.961Z</time></trkpt><trkpt lat="50.869683165499495" lon="11.961453097037303"><ele>282.0</ele><time>2026-05-03T14:24:53.961Z</time></trkpt><trkpt lat="50.869785646998245" lon="11.961500938543011"><ele>282.0</ele><time>2026-05-03T14:24:54.961Z</time></trkpt><trkpt lat="50.86988584622768" lon="11.961542039239484"><ele>282.0</ele><time>2026-05-03T14:24:55.959Z</time></trkpt><trkpt lat="50.86998406113836" lon="11.961576296375677"><ele>282.0</ele><time>2026-05-03T14:24:56.959Z</time></trkpt><trkpt lat="50.870075481193815" lon="11.961586078479197"><ele>282.0</ele><time>2026-05-03T14:24:57.959Z</time></trkpt><trkpt lat="50.870164313725354" lon="11.961573552688026"><ele>281.4</ele><time>2026-05-03T14:24:58.959Z</time></trkpt><trkpt lat="50.8702496056529" lon="11.961541266819518"><ele>280.79999999999995</ele><time>2026-05-03T14:24:59.959Z</time></trkpt><trkpt lat="50.87032627175195" lon="11.961476893020944"><ele>280.2</ele><time>2026-05-03T14:25:00.959Z</time></trkpt><trkpt lat="50.87040585337835" lon="11.96138468848588"><ele>279.59999999999997</ele><time>2026-05-03T14:25:01.959Z</time></trkpt><trkpt lat="50.87048285848696" lon="11.961299601321828"><ele>279.0</ele><time>2026-05-03T14:25:02.959Z</time></trkpt><trkpt lat="50.87057447557626" lon="11.96121302517748"><ele>279.0</ele><time>2026-05-03T14:25:03.959Z</time></trkpt><trkpt lat="50.87067445810862" lon="11.961140144288711"><ele>279.0</ele><time>2026-05-03T14:25:04.959Z</time></trkpt><trkpt lat="50.870791899197904" lon="11.961095602642505"><ele>279.0</ele><time>2026-05-03T14:25:05.959Z</time></trkpt><trkpt lat="50.87090889618293" lon="11.961088847546934"><ele>279.0</ele><time>2026-05-03T14:25:06.959Z</time></trkpt><trkpt lat="50.87102164406658" lon="11.961116116352633"><ele>278.0</ele><time>2026-05-03T14:25:07.959Z</time></trkpt><trkpt lat="50.87112408951236" lon="11.96113699868099"><ele>277.0</ele><time>2026-05-03T14:25:08.959Z</time></trkpt><trkpt lat="50.87122981962883" lon="11.961153483801093"><ele>276.0</ele><time>2026-05-03T14:25:09.959Z</time></trkpt><trkpt lat="50.87132804539478" lon="11.961186546327266"><ele>275.0</ele><time>2026-05-03T14:25:10.959Z</time></trkpt><trkpt lat="50.871426968068064" lon="11.961220580397594"><ele>274.0</ele><time>2026-05-03T14:25:11.959Z</time></trkpt><trkpt lat="50.87154039879913" lon="11.961274560893038"><ele>274.0</ele><time>2026-05-03T14:25:12.959Z</time></trkpt><trkpt lat="50.871641539228754" lon="11.961342264151689"><ele>274.0</ele><time>2026-05-03T14:25:13.959Z</time></trkpt><trkpt lat="50.87172512425614" lon="11.961443823519925"><ele>274.0</ele><time>2026-05-03T14:25:14.959Z</time></trkpt><trkpt lat="50.87180309532865" lon="11.961546597964155"><ele>274.0</ele><time>2026-05-03T14:25:15.959Z</time></trkpt><trkpt lat="50.871878880982" lon="11.961633273475"><ele>274.0</ele><time>2026-05-03T14:25:16.959Z</time></trkpt><trkpt lat="50.871948045083286" lon="11.961659170480525"><ele>274.4</ele><time>2026-05-03T14:25:17.959Z</time></trkpt><trkpt lat="50.872029760272646" lon="11.961640997790832"><ele>274.79999999999995</ele><time>2026-05-03T14:25:18.959Z</time></trkpt><trkpt lat="50.87212647350754" lon="11.961571466027044"><ele>275.20000000000005</ele><time>2026-05-03T14:25:19.959Z</time></trkpt><trkpt lat="50.87222377905398" lon="11.961490015735308"><ele>275.6</ele><time>2026-05-03T14:25:20.959Z</time></trkpt><trkpt lat="50.872328137210566" lon="11.961437318535383"><ele>276.0</ele><time>2026-05-03T14:25:21.959Z</time></trkpt><trkpt lat="50.87243166732213" lon="11.961371566332039"><ele>276.0</ele><time>2026-05-03T14:25:22.959Z</time></trkpt><trkpt lat="50.872556340539425" lon="11.961351802198164"><ele>276.0</ele><time>2026-05-03T14:25:23.959Z</time></trkpt><trkpt lat="50.872685124503704" lon="11.961361282577547"><ele>276.0</ele><time>2026-05-03T14:25:24.959Z</time></trkpt><trkpt lat="50.872820098875636" lon="11.96139452960936"><ele>276.0</ele><time>2026-05-03T14:25:25.959Z</time></trkpt><trkpt lat="50.87295966091169" lon="11.96143763096634"><ele>277.5</ele><time>2026-05-03T14:25:26.959Z</time></trkpt><trkpt lat="50.873108521557874" lon="11.961476756475248"><ele>279.0</ele><time>2026-05-03T14:25:27.959Z</time></trkpt><trkpt lat="50.87325563163002" lon="11.961506310777075"><ele>280.5</ele><time>2026-05-03T14:25:28.959Z</time></trkpt><trkpt lat="50.87340445684972" lon="11.96153775789402"><ele>282.0</ele><time>2026-05-03T14:25:29.959Z</time></trkpt><trkpt lat="50.87354911231017" lon="11.961562395055589"><ele>282.0</ele><time>2026-05-03T14:25:30.959Z</time></trkpt><trkpt lat="50.87367765452429" lon="11.961571703896997"><ele>282.0</ele><time>2026-05-03T14:25:31.959Z</time></trkpt><trkpt lat="50.87381596212203" lon="11.961549824735494"><ele>282.0</ele><time>2026-05-03T14:25:32.959Z</time></trkpt><trkpt lat="50.87396080139813" lon="11.961475500858782"><ele>282.0</ele><time>2026-05-03T14:25:33.959Z</time></trkpt><trkpt lat="50.87409383342419" lon="11.961387335510507"><ele>282.0</ele><time>2026-05-03T14:25:34.959Z</time></trkpt><trkpt lat="50.87421272174207" lon="11.9613079215075"><ele>282.0</ele><time>2026-05-03T14:25:35.959Z</time></trkpt><trkpt lat="50.87432048901277" lon="11.96126076900415"><ele>282.0</ele><time>2026-05-03T14:25:36.959Z</time></trkpt><trkpt lat="50.87442148075592" lon="11.961257065603716"><ele>282.0</ele><time>2026-05-03T14:25:37.959Z</time></trkpt><trkpt lat="50.87451703498806" lon="11.961315442969125"><ele>282.0</ele><time>2026-05-03T14:25:38.959Z</time></trkpt><trkpt lat="50.874580218508065" lon="11.96147990508433"><ele>282.75</ele><time>2026-05-03T14:25:39.959Z</time></trkpt><trkpt lat="50.87464621501884" lon="11.96163836426382"><ele>283.5</ele><time>2026-05-03T14:25:40.959Z</time></trkpt><trkpt lat="50.87472217032061" lon="11.961811113097744"><ele>284.25</ele><time>2026-05-03T14:25:41.959Z</time></trkpt><trkpt lat="50.874795357193406" lon="11.9619988227032"><ele>285.0</ele><time>2026-05-03T14:25:42.959Z</time></trkpt><trkpt lat="50.87487194796863" lon="11.962181709607655"><ele>283.5</ele><time>2026-05-03T14:25:43.959Z</time></trkpt><trkpt lat="50.87494295478507" lon="11.962351912613457"><ele>282.0</ele><time>2026-05-03T14:25:44.959Z</time></trkpt><trkpt lat="50.87502232757832" lon="11.962516471145753"><ele>280.5</ele><time>2026-05-03T14:25:45.959Z</time></trkpt><trkpt lat="50.87510474396222" lon="11.962665038976027"><ele>279.0</ele><time>2026-05-03T14:25:46.959Z</time></trkpt><trkpt lat="50.875194212448875" lon="11.962801644111712"><ele>277.5</ele><time>2026-05-03T14:25:47.959Z</time></trkpt><trkpt lat="50.875294287421184" lon="11.962905764141851"><ele>276.0</ele><time>2026-05-03T14:25:48.959Z</time></trkpt><trkpt lat="50.87540275211089" lon="11.962998095845021"><ele>274.5</ele><time>2026-05-03T14:25:49.959Z</time></trkpt><trkpt lat="50.87552358013241" lon="11.963074354516154"><ele>273.0</ele><time>2026-05-03T14:25:50.959Z</time></trkpt><trkpt lat="50.875651831109515" lon="11.963134812012783"><ele>273.0</ele><time>2026-05-03T14:25:51.959Z</time></trkpt><trkpt lat="50.8757846801886" lon="11.963182575403073"><ele>273.0</ele><time>2026-05-03T14:25:52.959Z</time></trkpt><trkpt lat="50.87592182221535" lon="11.963232987306398"><ele>273.0</ele><time>2026-05-03T14:25:53.959Z</time></trkpt><trkpt lat="50.87605486383314" lon="11.963287947600971"><ele>273.0</ele><time>2026-05-03T14:25:54.959Z</time></trkpt><trkpt lat="50.876180581100684" lon="11.963345607417805"><ele>271.0</ele><time>2026-05-03T14:25:55.959Z</time></trkpt><trkpt lat="50.876300171611504" lon="11.963399530547854"><ele>269.0</ele><time>2026-05-03T14:25:56.959Z</time></trkpt><trkpt lat="50.87641826792019" lon="11.963439348309771"><ele>267.0</ele><time>2026-05-03T14:25:57.959Z</time></trkpt><trkpt lat="50.87653560381104" lon="11.963462294083529"><ele>265.0</ele><time>2026-05-03T14:25:58.959Z</time></trkpt><trkpt lat="50.876646023164646" lon="11.963508400970817"><ele>265.0</ele><time>2026-05-03T14:25:59.959Z</time></trkpt><trkpt lat="50.87675877370528" lon="11.96354214568717"><ele>265.0</ele><time>2026-05-03T14:26:00.959Z</time></trkpt><trkpt lat="50.87686632018898" lon="11.963613586722188"><ele>265.0</ele><time>2026-05-03T14:26:01.959Z</time></trkpt><trkpt lat="50.876970994752234" lon="11.963731240693143"><ele>265.0</ele><time>2026-05-03T14:26:02.959Z</time></trkpt><trkpt lat="50.87707296235798" lon="11.963885987035532"><ele>264.0</ele><time>2026-05-03T14:26:03.959Z</time></trkpt><trkpt lat="50.87717109407212" lon="11.964049243863847"><ele>263.0</ele><time>2026-05-03T14:26:04.959Z</time></trkpt><trkpt lat="50.87726357564923" lon="11.964190886727181"><ele>262.0</ele><time>2026-05-03T14:26:05.959Z</time></trkpt><trkpt lat="50.877354036609326" lon="11.964314365020147"><ele>261.0</ele><time>2026-05-03T14:26:06.959Z</time></trkpt><trkpt lat="50.87744044313274" lon="11.96443548695898"><ele>260.25</ele><time>2026-05-03T14:26:07.959Z</time></trkpt><trkpt lat="50.87752626409541" lon="11.964552072602348"><ele>259.5</ele><time>2026-05-03T14:26:08.959Z</time></trkpt><trkpt lat="50.877614823881366" lon="11.964672168196504"><ele>258.75</ele><time>2026-05-03T14:26:09.959Z</time></trkpt><trkpt lat="50.877707868847516" lon="11.964792524377573"><ele>258.0</ele><time>2026-05-03T14:26:10.959Z</time></trkpt><trkpt lat="50.87779942502851" lon="11.96491982260663"><ele>256.0</ele><time>2026-05-03T14:26:11.959Z</time></trkpt><trkpt lat="50.87789398995081" lon="11.965056100496314"><ele>254.0</ele><time>2026-05-03T14:26:12.959Z</time></trkpt><trkpt lat="50.877990263289504" lon="11.96520741135252"><ele>252.0</ele><time>2026-05-03T14:26:13.959Z</time></trkpt><trkpt lat="50.87808855320009" lon="11.965376977295142"><ele>250.0</ele><time>2026-05-03T14:26:14.959Z</time></trkpt><trkpt lat="50.87818370502842" lon="11.965557777893485"><ele>250.0</ele><time>2026-05-03T14:26:15.959Z</time></trkpt><trkpt lat="50.878277577457446" lon="11.965744065600559"><ele>250.0</ele><time>2026-05-03T14:26:16.959Z</time></trkpt><trkpt lat="50.87837703853746" lon="11.96592945530466"><ele>250.0</ele><time>2026-05-03T14:26:17.959Z</time></trkpt><trkpt lat="50.87848244271926" lon="11.966111214221687"><ele>247.0</ele><time>2026-05-03T14:26:18.959Z</time></trkpt><trkpt lat="50.87858779523167" lon="11.966295907871258"><ele>244.0</ele><time>2026-05-03T14:26:19.959Z</time></trkpt><trkpt lat="50.87868941535576" lon="11.96648182503021"><ele>241.0</ele><time>2026-05-03T14:26:20.959Z</time></trkpt><trkpt lat="50.87879048728673" lon="11.96665944069478"><ele>240.75</ele><time>2026-05-03T14:26:21.959Z</time></trkpt><trkpt lat="50.878898334714485" lon="11.96682277602436"><ele>240.5</ele><time>2026-05-03T14:26:22.959Z</time></trkpt><trkpt lat="50.87901227957552" lon="11.966972127989916"><ele>240.25</ele><time>2026-05-03T14:26:23.959Z</time></trkpt><trkpt lat="50.879126401697846" lon="11.967108603702423"><ele>240.0</ele><time>2026-05-03T14:26:24.959Z</time></trkpt><trkpt lat="50.87924176778369" lon="11.967227519228492"><ele>238.5</ele><time>2026-05-03T14:26:25.959Z</time></trkpt><trkpt lat="50.879355080757826" lon="11.967349605099237"><ele>237.0</ele><time>2026-05-03T14:26:26.959Z</time></trkpt><trkpt lat="50.87946355594367" lon="11.967473731068285"><ele>235.5</ele><time>2026-05-03T14:26:27.959Z</time></trkpt><trkpt lat="50.87957336662123" lon="11.967598044894011"><ele>234.0</ele><time>2026-05-03T14:26:28.959Z</time></trkpt><trkpt lat="50.87968179335545" lon="11.967718582315005"><ele>233.75</ele><time>2026-05-03T14:26:29.959Z</time></trkpt><trkpt lat="50.87979029641822" lon="11.967832188790483"><ele>233.5</ele><time>2026-05-03T14:26:30.959Z</time></trkpt><trkpt lat="50.87990008509341" lon="11.967944892587276"><ele>233.25</ele><time>2026-05-03T14:26:31.959Z</time></trkpt><trkpt lat="50.88000806617386" lon="11.968050379051489"><ele>233.0</ele><time>2026-05-03T14:26:32.959Z</time></trkpt><trkpt lat="50.88011885453425" lon="11.968152725985554"><ele>232.4</ele><time>2026-05-03T14:26:33.959Z</time></trkpt><trkpt lat="50.88022027458568" lon="11.96825141045205"><ele>231.8</ele><time>2026-05-03T14:26:34.959Z</time></trkpt><trkpt lat="50.880314146076714" lon="11.968340937876851"><ele>231.2</ele><time>2026-05-03T14:26:35.959Z</time></trkpt><trkpt lat="50.88040569205101" lon="11.96842182797103"><ele>230.6</ele><time>2026-05-03T14:26:36.959Z</time></trkpt><trkpt lat="50.88049000945101" lon="11.96846975137947"><ele>230.0</ele><time>2026-05-03T14:26:37.959Z</time></trkpt><trkpt lat="50.880570353011834" lon="11.96848275186262"><ele>230.00000000000003</ele><time>2026-05-03T14:26:38.959Z</time></trkpt><trkpt lat="50.88063887033568" lon="11.968481969048295"><ele>230.0</ele><time>2026-05-03T14:26:39.959Z</time></trkpt><trkpt lat="50.880749464093505" lon="11.96848232541817"><ele>230.0</ele><time>2026-05-03T14:26:41.959Z</time></trkpt><trkpt lat="50.88082353995065" lon="11.968491271994344"><ele>230.0</ele><time>2026-05-03T14:26:43.959Z</time></trkpt><trkpt lat="50.88089002140166" lon="11.96849377241991"><ele>230.00000000000003</ele><time>2026-05-03T14:26:46.959Z</time></trkpt><trkpt lat="50.880963854487014" lon="11.968476865484531"><ele>230.0</ele><time>2026-05-03T14:27:06.958Z</time></trkpt><trkpt lat="50.88093040589875" lon="11.968182120754133"><ele>230.0</ele><time>2026-05-03T14:27:09.958Z</time></trkpt><trkpt lat="50.8809016928745" lon="11.968066847090896"><ele>230.0</ele><time>2026-05-03T14:27:10.958Z</time></trkpt><trkpt lat="50.88086581892568" lon="11.967915412381508"><ele>230.0</ele><time>2026-05-03T14:27:11.957Z</time></trkpt><trkpt lat="50.88081684432671" lon="11.967737645405974"><ele>230.0</ele><time>2026-05-03T14:27:12.957Z</time></trkpt><trkpt lat="50.8807726591339" lon="11.967556024009161"><ele>230.0</ele><time>2026-05-03T14:27:13.957Z</time></trkpt><trkpt lat="50.880722292153244" lon="11.967362493687876"><ele>230.0</ele><time>2026-05-03T14:27:14.958Z</time></trkpt><trkpt lat="50.88067245240307" lon="11.967156411184803"><ele>230.0</ele><time>2026-05-03T14:27:15.958Z</time></trkpt><trkpt lat="50.880621913176626" lon="11.966949984491025"><ele>230.0</ele><time>2026-05-03T14:27:16.958Z</time></trkpt><trkpt lat="50.880566632493434" lon="11.966738888373422"><ele>230.0</ele><time>2026-05-03T14:27:17.958Z</time></trkpt><trkpt lat="50.88050532674794" lon="11.966512832111933"><ele>231.0</ele><time>2026-05-03T14:27:18.958Z</time></trkpt><trkpt lat="50.88046340232297" lon="11.966273213410783"><ele>232.0</ele><time>2026-05-03T14:27:19.958Z</time></trkpt><trkpt lat="50.88039303950907" lon="11.966045329053381"><ele>233.0</ele><time>2026-05-03T14:27:20.958Z</time></trkpt><trkpt lat="50.88032147866869" lon="11.965814794389408"><ele>233.0</ele><time>2026-05-03T14:27:21.958Z</time></trkpt><trkpt lat="50.88024430268063" lon="11.965574557612836"><ele>233.0</ele><time>2026-05-03T14:27:22.958Z</time></trkpt><trkpt lat="50.8801645488611" lon="11.96532772520009"><ele>233.0</ele><time>2026-05-03T14:27:23.958Z</time></trkpt><trkpt lat="50.880080122528845" lon="11.965077218352198"><ele>232.66666666666669</ele><time>2026-05-03T14:27:24.958Z</time></trkpt><trkpt lat="50.87999378456144" lon="11.964815959941198"><ele>232.33333333333331</ele><time>2026-05-03T14:27:25.958Z</time></trkpt><trkpt lat="50.87991302626864" lon="11.964547984414796"><ele>232.0</ele><time>2026-05-03T14:27:26.958Z</time></trkpt><trkpt lat="50.879843361354624" lon="11.964281481202603"><ele>232.33333333333331</ele><time>2026-05-03T14:27:27.958Z</time></trkpt><trkpt lat="50.8797952123517" lon="11.96400526308233"><ele>232.66666666666669</ele><time>2026-05-03T14:27:28.958Z</time></trkpt><trkpt lat="50.87978008980979" lon="11.963715773489811"><ele>233.0</ele><time>2026-05-03T14:27:29.958Z</time></trkpt><trkpt lat="50.879796543040406" lon="11.96341623166972"><ele>232.66666666666669</ele><time>2026-05-03T14:27:30.958Z</time></trkpt><trkpt lat="50.87980319919622" lon="11.96312927341348"><ele>232.33333333333331</ele><time>2026-05-03T14:27:31.958Z</time></trkpt><trkpt lat="50.879799181598926" lon="11.96283948721708"><ele>232.0</ele><time>2026-05-03T14:27:32.958Z</time></trkpt><trkpt lat="50.87979584498394" lon="11.962542953316374"><ele>232.0</ele><time>2026-05-03T14:27:33.958Z</time></trkpt><trkpt lat="50.87979703850721" lon="11.962246872496443"><ele>232.0</ele><time>2026-05-03T14:27:34.958Z</time></trkpt><trkpt lat="50.879797208932416" lon="11.961946272543859"><ele>232.0</ele><time>2026-05-03T14:27:35.958Z</time></trkpt><trkpt lat="50.87980170305257" lon="11.961647353849333"><ele>232.0</ele><time>2026-05-03T14:27:36.958Z</time></trkpt><trkpt lat="50.879815140797206" lon="11.961359468610288"><ele>232.0</ele><time>2026-05-03T14:27:37.958Z</time></trkpt><trkpt lat="50.87982737228087" lon="11.9610900435255"><ele>232.0</ele><time>2026-05-03T14:27:38.958Z</time></trkpt><trkpt lat="50.879832586727645" lon="11.960847302838845"><ele>232.0</ele><time>2026-05-03T14:27:39.958Z</time></trkpt><trkpt lat="50.87983546994087" lon="11.960620307483898"><ele>232.0</ele><time>2026-05-03T14:27:40.958Z</time></trkpt><trkpt lat="50.87983985240388" lon="11.96041468784064"><ele>232.0</ele><time>2026-05-03T14:27:41.958Z</time></trkpt><trkpt lat="50.87984300688643" lon="11.960196926489335"><ele>232.0</ele><time>2026-05-03T14:27:42.958Z</time></trkpt><trkpt lat="50.879836472489345" lon="11.959970434217517"><ele>232.25</ele><time>2026-05-03T14:27:43.958Z</time></trkpt><trkpt lat="50.879814675449275" lon="11.959739472791645"><ele>232.5</ele><time>2026-05-03T14:27:44.958Z</time></trkpt><trkpt lat="50.87977337337007" lon="11.959511905217282"><ele>232.75</ele><time>2026-05-03T14:27:45.958Z</time></trkpt><trkpt lat="50.879729872474925" lon="11.95928579502378"><ele>233.0</ele><time>2026-05-03T14:27:46.958Z</time></trkpt><trkpt lat="50.879685382806024" lon="11.959052819444072"><ele>233.0</ele><time>2026-05-03T14:27:47.958Z</time></trkpt><trkpt lat="50.879635058763796" lon="11.958809683805958"><ele>233.0</ele><time>2026-05-03T14:27:48.958Z</time></trkpt><trkpt lat="50.87958938647442" lon="11.958574965528"><ele>233.0</ele><time>2026-05-03T14:27:49.958Z</time></trkpt><trkpt lat="50.879550789762675" lon="11.958370354472512"><ele>233.60000000000002</ele><time>2026-05-03T14:27:50.958Z</time></trkpt><trkpt lat="50.87951793698478" lon="11.958174491599722"><ele>234.20000000000002</ele><time>2026-05-03T14:27:51.958Z</time></trkpt><trkpt lat="50.879482215928704" lon="11.958004301990131"><ele>234.8</ele><time>2026-05-03T14:27:52.958Z</time></trkpt><trkpt lat="50.87944569516978" lon="11.957850149583825"><ele>235.4</ele><time>2026-05-03T14:27:53.958Z</time></trkpt><trkpt lat="50.879435422121766" lon="11.95772501281822"><ele>236.0</ele><time>2026-05-03T14:27:54.958Z</time></trkpt><trkpt lat="50.879417845804916" lon="11.957587318910857"><ele>236.0</ele><time>2026-05-03T14:27:56.958Z</time></trkpt><trkpt lat="50.879678826975756" lon="11.957543888958563"><ele>236.0</ele><time>2026-05-03T14:28:16.958Z</time></trkpt><trkpt lat="50.87975289260153" lon="11.957595742136704"><ele>236.0</ele><time>2026-05-03T14:28:17.958Z</time></trkpt><trkpt lat="50.87980173901839" lon="11.957692716608603"><ele>236.0</ele><time>2026-05-03T14:28:18.958Z</time></trkpt><trkpt lat="50.87983018623864" lon="11.957803148447665"><ele>236.0</ele><time>2026-05-03T14:28:19.958Z</time></trkpt><trkpt lat="50.87984918540906" lon="11.957949362196363"><ele>236.0</ele><time>2026-05-03T14:28:20.958Z</time></trkpt><trkpt lat="50.87988383380763" lon="11.958148123202713"><ele>236.0</ele><time>2026-05-03T14:28:21.958Z</time></trkpt><trkpt lat="50.87992209946863" lon="11.9583280525126"><ele>236.0</ele><time>2026-05-03T14:28:22.958Z</time></trkpt><trkpt lat="50.87997019292797" lon="11.958518345191532"><ele>235.4</ele><time>2026-05-03T14:28:23.958Z</time></trkpt><trkpt lat="50.880011782798235" lon="11.958707355204062"><ele>234.8</ele><time>2026-05-03T14:28:24.958Z</time></trkpt><trkpt lat="50.880053664777776" lon="11.95888359385615"><ele>234.20000000000002</ele><time>2026-05-03T14:28:25.958Z</time></trkpt><trkpt lat="50.88008424798161" lon="11.95905316930101"><ele>233.60000000000002</ele><time>2026-05-03T14:28:26.958Z</time></trkpt><trkpt lat="50.880099962791626" lon="11.959183545843219"><ele>233.0</ele><time>2026-05-03T14:28:27.958Z</time></trkpt><trkpt lat="50.880099589156494" lon="11.959335730762767"><ele>233.0</ele><time>2026-05-03T14:28:28.958Z</time></trkpt><trkpt lat="50.88007721896701" lon="11.959490594788534"><ele>233.0</ele><time>2026-05-03T14:28:29.958Z</time></trkpt><trkpt lat="50.88004998046855" lon="11.95963641154468"><ele>233.0</ele><time>2026-05-03T14:28:30.958Z</time></trkpt><trkpt lat="50.880041899477085" lon="11.959778742399308"><ele>233.0</ele><time>2026-05-03T14:28:31.958Z</time></trkpt><trkpt lat="50.88005760336766" lon="11.959940302795836"><ele>233.0</ele><time>2026-05-03T14:28:32.958Z</time></trkpt><trkpt lat="50.88007943522176" lon="11.960105604389181"><ele>232.83333333333334</ele><time>2026-05-03T14:28:33.958Z</time></trkpt><trkpt lat="50.880098912636186" lon="11.96024267876349"><ele>232.66666666666669</ele><time>2026-05-03T14:28:34.958Z</time></trkpt><trkpt lat="50.88011554361878" lon="11.960363968118815"><ele>232.5</ele><time>2026-05-03T14:28:35.958Z</time></trkpt><trkpt lat="50.88013859816894" lon="11.960485495522525"><ele>232.33333333333331</ele><time>2026-05-03T14:28:36.958Z</time></trkpt><trkpt lat="50.8801639795505" lon="11.960598794335695"><ele>232.16666666666666</ele><time>2026-05-03T14:28:37.958Z</time></trkpt><trkpt lat="50.8801953166325" lon="11.960703972661115"><ele>232.0</ele><time>2026-05-03T14:28:38.958Z</time></trkpt><trkpt lat="50.88030266065484" lon="11.96082164532652"><ele>233.2</ele><time>2026-05-03T14:28:40.958Z</time></trkpt><trkpt lat="50.880380293544604" lon="11.960839940758072"><ele>234.39999999999998</ele><time>2026-05-03T14:28:41.958Z</time></trkpt><trkpt lat="50.880473720268434" lon="11.960835034005678"><ele>235.60000000000002</ele><time>2026-05-03T14:28:42.958Z</time></trkpt><trkpt lat="50.880561023953696" lon="11.960824835733494"><ele>236.8</ele><time>2026-05-03T14:28:43.958Z</time></trkpt><trkpt lat="50.880661060762314" lon="11.96082652875866"><ele>238.0</ele><time>2026-05-03T14:28:44.958Z</time></trkpt><trkpt lat="50.880785574937306" lon="11.960832068221958"><ele>238.0</ele><time>2026-05-03T14:28:45.958Z</time></trkpt><trkpt lat="50.88088278988828" lon="11.960811492325586"><ele>238.0</ele><time>2026-05-03T14:28:46.958Z</time></trkpt><trkpt lat="50.88098522595177" lon="11.960756270324561"><ele>238.0</ele><time>2026-05-03T14:28:47.958Z</time></trkpt><trkpt lat="50.88107779763647" lon="11.960665853358334"><ele>238.0</ele><time>2026-05-03T14:28:48.958Z</time></trkpt><trkpt lat="50.88115977086956" lon="11.960584987412997"><ele>238.0</ele><time>2026-05-03T14:28:49.958Z</time></trkpt><trkpt lat="50.88125942556667" lon="11.960539172943115"><ele>240.33333333333331</ele><time>2026-05-03T14:28:50.958Z</time></trkpt><trkpt lat="50.881352285341364" lon="11.960535721457568"><ele>242.66666666666666</ele><time>2026-05-03T14:28:51.958Z</time></trkpt><trkpt lat="50.88144194955983" lon="11.960557987486428"><ele>245.0</ele><time>2026-05-03T14:28:52.958Z</time></trkpt><trkpt lat="50.88154219621095" lon="11.960567576830584"><ele>247.33333333333331</ele><time>2026-05-03T14:28:53.958Z</time></trkpt><trkpt lat="50.88162931359833" lon="11.960573445967894"><ele>249.66666666666666</ele><time>2026-05-03T14:28:54.958Z</time></trkpt><trkpt lat="50.88169349960512" lon="11.960571243225829"><ele>252.0</ele><time>2026-05-03T14:28:55.958Z</time></trkpt><trkpt lat="50.881763067397124" lon="11.960557421797986"><ele>254.39999999999998</ele><time>2026-05-03T14:28:56.958Z</time></trkpt><trkpt lat="50.88186485857502" lon="11.960494156185648"><ele>256.79999999999995</ele><time>2026-05-03T14:28:58.958Z</time></trkpt><trkpt lat="50.88196559218686" lon="11.960444476819632"><ele>259.2</ele><time>2026-05-03T14:29:01.958Z</time></trkpt><trkpt lat="50.8820912994838" lon="11.960505975339904"><ele>261.59999999999997</ele><time>2026-05-03T14:29:03.958Z</time></trkpt><trkpt lat="50.88216354293773" lon="11.960556682369631"><ele>264.0</ele><time>2026-05-03T14:29:04.958Z</time></trkpt><trkpt lat="50.882230175540876" lon="11.960611778401688"><ele>264.0</ele><time>2026-05-03T14:29:05.958Z</time></trkpt><trkpt lat="50.882320924585954" lon="11.96067062884444"><ele>264.0</ele><time>2026-05-03T14:29:06.958Z</time></trkpt><trkpt lat="50.88240267379451" lon="11.960722249534955"><ele>264.0</ele><time>2026-05-03T14:29:07.956Z</time></trkpt><trkpt lat="50.8824867018524" lon="11.960778773298399"><ele>264.0</ele><time>2026-05-03T14:29:08.957Z</time></trkpt><trkpt lat="50.88255193574923" lon="11.9608214946847"><ele>264.0</ele><time>2026-05-03T14:29:09.957Z</time></trkpt><trkpt lat="50.88262418553674" lon="11.960881859230946"><ele>264.0</ele><time>2026-05-03T14:29:11.956Z</time></trkpt><trkpt lat="50.88268061701903" lon="11.960835306359368"><ele>264.0</ele><time>2026-05-03T14:29:23.957Z</time></trkpt><trkpt lat="50.882598087968354" lon="11.960806885537963"><ele>264.0</ele><time>2026-05-03T14:29:26.957Z</time></trkpt><trkpt lat="50.88253538062947" lon="11.960777020301872"><ele>264.0</ele><time>2026-05-03T14:29:28.957Z</time></trkpt><trkpt lat="50.882459002384465" lon="11.960722802558879"><ele>264.0</ele><time>2026-05-03T14:29:30.957Z</time></trkpt><trkpt lat="50.88233965153114" lon="11.960646525948409"><ele>264.0</ele><time>2026-05-03T14:29:32.957Z</time></trkpt><trkpt lat="50.882271154608006" lon="11.960607905591983"><ele>264.0</ele><time>2026-05-03T14:29:33.957Z</time></trkpt><trkpt lat="50.88221192357446" lon="11.960570144402288"><ele>264.0</ele><time>2026-05-03T14:29:34.957Z</time></trkpt><trkpt lat="50.88210489502007" lon="11.960486787237713"><ele>264.0</ele><time>2026-05-03T14:29:36.957Z</time></trkpt><trkpt lat="50.882030630056605" lon="11.960439185462514"><ele>264.0</ele><time>2026-05-03T14:29:38.957Z</time></trkpt><trkpt lat="50.88196314532806" lon="11.96041198775701"><ele>264.0</ele><time>2026-05-03T14:29:40.957Z</time></trkpt><trkpt lat="50.8818819983263" lon="11.960463047582605"><ele>264.0</ele><time>2026-05-03T14:29:43.957Z</time></trkpt><trkpt lat="50.8817802060944" lon="11.960498183176236"><ele>261.59999999999997</ele><time>2026-05-03T14:29:46.957Z</time></trkpt><trkpt lat="50.88167641324156" lon="11.96054926419151"><ele>259.2</ele><time>2026-05-03T14:29:48.957Z</time></trkpt><trkpt lat="50.88156253733277" lon="11.960536816020552"><ele>256.79999999999995</ele><time>2026-05-03T14:29:50.957Z</time></trkpt><trkpt lat="50.881453353737676" lon="11.960535321254318"><ele>254.39999999999998</ele><time>2026-05-03T14:29:52.957Z</time></trkpt><trkpt lat="50.88134376412637" lon="11.960545181084226"><ele>252.0</ele><time>2026-05-03T14:29:54.957Z</time></trkpt><trkpt lat="50.88123340402993" lon="11.960565935672252"><ele>252.0</ele><time>2026-05-03T14:29:56.957Z</time></trkpt><trkpt lat="50.88113611778938" lon="11.960608978504878"><ele>252.0</ele><time>2026-05-03T14:29:58.957Z</time></trkpt><trkpt lat="50.88102456560611" lon="11.960687836349592"><ele>252.0</ele><time>2026-05-03T14:30:00.957Z</time></trkpt><trkpt lat="50.88097042922099" lon="11.96073906491796"><ele>252.0</ele><time>2026-05-03T14:30:01.957Z</time></trkpt><trkpt lat="50.88086163455312" lon="11.960813174341707"><ele>252.0</ele><time>2026-05-03T14:30:03.957Z</time></trkpt><trkpt lat="50.880797545528495" lon="11.960824552316735"><ele>249.2</ele><time>2026-05-03T14:30:04.957Z</time></trkpt><trkpt lat="50.88071948395547" lon="11.960824331236964"><ele>246.39999999999998</ele><time>2026-05-03T14:30:05.957Z</time></trkpt><trkpt lat="50.88063968921667" lon="11.960823414242109"><ele>243.60000000000002</ele><time>2026-05-03T14:30:06.957Z</time></trkpt><trkpt lat="50.880515994649905" lon="11.960818280642977"><ele>240.8</ele><time>2026-05-03T14:30:08.957Z</time></trkpt><trkpt lat="50.88044781117918" lon="11.960819477462213"><ele>238.0</ele><time>2026-05-03T14:30:09.957Z</time></trkpt><trkpt lat="50.88033264821162" lon="11.960812356245452"><ele>237.99999999999997</ele><time>2026-05-03T14:30:11.957Z</time></trkpt><trkpt lat="50.880235481796575" lon="11.960749442415134"><ele>238.0</ele><time>2026-05-03T14:30:13.957Z</time></trkpt><trkpt lat="50.880192562853075" lon="11.960667899031106"><ele>238.0</ele><time>2026-05-03T14:30:14.957Z</time></trkpt><trkpt lat="50.88015318499516" lon="11.96056985965605"><ele>238.0</ele><time>2026-05-03T14:30:15.957Z</time></trkpt><trkpt lat="50.88013700377888" lon="11.960453994662156"><ele>237.99999999999997</ele><time>2026-05-03T14:30:16.957Z</time></trkpt><trkpt lat="50.88012250173605" lon="11.960336114683304"><ele>238.0</ele><time>2026-05-03T14:30:17.957Z</time></trkpt><trkpt lat="50.88010254885178" lon="11.960185175438427"><ele>238.4</ele><time>2026-05-03T14:30:18.957Z</time></trkpt><trkpt lat="50.88008269991405" lon="11.960047141605937"><ele>238.8</ele><time>2026-05-03T14:30:19.957Z</time></trkpt><trkpt lat="50.880069547197714" lon="11.959905320227175"><ele>239.2</ele><time>2026-05-03T14:30:20.957Z</time></trkpt><trkpt lat="50.880056619905055" lon="11.959679903754067"><ele>239.6</ele><time>2026-05-03T14:30:22.957Z</time></trkpt><trkpt lat="50.88007334412579" lon="11.959558317352743"><ele>240.0</ele><time>2026-05-03T14:30:23.957Z</time></trkpt><trkpt lat="50.88010186569244" lon="11.959420139846694"><ele>240.0</ele><time>2026-05-03T14:30:24.957Z</time></trkpt><trkpt lat="50.880119521473596" lon="11.959298150842466"><ele>240.0</ele><time>2026-05-03T14:30:25.957Z</time></trkpt><trkpt lat="50.880118421238734" lon="11.959169746329096"><ele>240.0</ele><time>2026-05-03T14:30:26.957Z</time></trkpt><trkpt lat="50.88009506262705" lon="11.959029567653657"><ele>240.0</ele><time>2026-05-03T14:30:27.957Z</time></trkpt><trkpt lat="50.88006861229887" lon="11.958895624323596"><ele>240.0</ele><time>2026-05-03T14:30:28.957Z</time></trkpt><trkpt lat="50.880036816957386" lon="11.958764481450391"><ele>240.0</ele><time>2026-05-03T14:30:29.957Z</time></trkpt><trkpt lat="50.880011594995345" lon="11.95862963142003"><ele>239.2</ele><time>2026-05-03T14:30:30.957Z</time></trkpt><trkpt lat="50.87997738671896" lon="11.958480731409699"><ele>238.4</ele><time>2026-05-03T14:30:31.957Z</time></trkpt><trkpt lat="50.87994225039566" lon="11.95831886522594"><ele>237.60000000000002</ele><time>2026-05-03T14:30:32.957Z</time></trkpt><trkpt lat="50.87991290995137" lon="11.958177209042582"><ele>236.8</ele><time>2026-05-03T14:30:33.957Z</time></trkpt><trkpt lat="50.87988347867948" lon="11.958044479677607"><ele>236.0</ele><time>2026-05-03T14:30:34.957Z</time></trkpt><trkpt lat="50.87985884017508" lon="11.957924015917985"><ele>236.00000000000003</ele><time>2026-05-03T14:30:35.957Z</time></trkpt><trkpt lat="50.87983506498863" lon="11.957717156773386"><ele>236.0</ele><time>2026-05-03T14:30:37.957Z</time></trkpt><trkpt lat="50.879801958907606" lon="11.95762796696825"><ele>236.0</ele><time>2026-05-03T14:30:38.957Z</time></trkpt><trkpt lat="50.87974323148927" lon="11.957571890314632"><ele>236.0</ele><time>2026-05-03T14:30:39.957Z</time></trkpt><trkpt lat="50.87967072052995" lon="11.957531650910141"><ele>236.00000000000003</ele><time>2026-05-03T14:30:40.957Z</time></trkpt><trkpt lat="50.87959794240481" lon="11.957516786189329"><ele>236.0</ele><time>2026-05-03T14:30:41.957Z</time></trkpt><trkpt lat="50.8794897231276" lon="11.957551379223762"><ele>236.00000000000003</ele><time>2026-05-03T14:30:43.957Z</time></trkpt><trkpt lat="50.879425771451125" lon="11.957582148847457"><ele>236.0</ele><time>2026-05-03T14:30:55.957Z</time></trkpt><trkpt lat="50.87935786291955" lon="11.957478845895102"><ele>236.0</ele><time>2026-05-03T14:30:58.957Z</time></trkpt><trkpt lat="50.879352354543954" lon="11.957371715101521"><ele>236.0</ele><time>2026-05-03T14:30:59.957Z</time></trkpt><trkpt lat="50.87933936968431" lon="11.957255579590676"><ele>236.00000000000003</ele><time>2026-05-03T14:31:00.957Z</time></trkpt><trkpt lat="50.879313124780786" lon="11.957120253666814"><ele>236.0</ele><time>2026-05-03T14:31:01.957Z</time></trkpt><trkpt lat="50.879278131679605" lon="11.956980179525283"><ele>235.75</ele><time>2026-05-03T14:31:02.957Z</time></trkpt><trkpt lat="50.879244387575085" lon="11.956823552763533"><ele>235.5</ele><time>2026-05-03T14:31:03.957Z</time></trkpt><trkpt lat="50.87921229753448" lon="11.956654923926811"><ele>235.25</ele><time>2026-05-03T14:31:04.957Z</time></trkpt><trkpt lat="50.87917449353216" lon="11.95646932369266"><ele>235.0</ele><time>2026-05-03T14:31:05.957Z</time></trkpt><trkpt lat="50.8791368158115" lon="11.956276882105847"><ele>235.5</ele><time>2026-05-03T14:31:06.957Z</time></trkpt><trkpt lat="50.87909792281584" lon="11.956083995920132"><ele>236.0</ele><time>2026-05-03T14:31:07.957Z</time></trkpt><trkpt lat="50.87905560371384" lon="11.95589706374226"><ele>236.5</ele><time>2026-05-03T14:31:08.957Z</time></trkpt><trkpt lat="50.87901823230202" lon="11.955708354329655"><ele>237.0</ele><time>2026-05-03T14:31:09.957Z</time></trkpt><trkpt lat="50.87898640289626" lon="11.955511771049752"><ele>237.25</ele><time>2026-05-03T14:31:10.957Z</time></trkpt><trkpt lat="50.87895217165127" lon="11.955310414186966"><ele>237.5</ele><time>2026-05-03T14:31:11.957Z</time></trkpt><trkpt lat="50.878916215318725" lon="11.955106922227872"><ele>237.75</ele><time>2026-05-03T14:31:12.957Z</time></trkpt><trkpt lat="50.878881923727285" lon="11.954909818834905"><ele>238.0</ele><time>2026-05-03T14:31:13.956Z</time></trkpt><trkpt lat="50.878845766850276" lon="11.95472187565772"><ele>238.25</ele><time>2026-05-03T14:31:14.955Z</time></trkpt><trkpt lat="50.878810403165105" lon="11.954537604221768"><ele>238.5</ele><time>2026-05-03T14:31:15.955Z</time></trkpt><trkpt lat="50.87877819591316" lon="11.954353368199756"><ele>238.75</ele><time>2026-05-03T14:31:16.956Z</time></trkpt><trkpt lat="50.87873738959821" lon="11.954181230287611"><ele>239.0</ele><time>2026-05-03T14:31:17.955Z</time></trkpt><trkpt lat="50.87868928469743" lon="11.954008721458035"><ele>239.25</ele><time>2026-05-03T14:31:18.955Z</time></trkpt><trkpt lat="50.87863142546927" lon="11.953847842048042"><ele>239.5</ele><time>2026-05-03T14:31:19.955Z</time></trkpt><trkpt lat="50.87856903502375" lon="11.953692996604495"><ele>239.75</ele><time>2026-05-03T14:31:20.955Z</time></trkpt><trkpt lat="50.87850404290913" lon="11.95354473063327"><ele>240.0</ele><time>2026-05-03T14:31:21.955Z</time></trkpt><trkpt lat="50.878434476913746" lon="11.95340043256086"><ele>239.25</ele><time>2026-05-03T14:31:22.955Z</time></trkpt><trkpt lat="50.878362539633095" lon="11.953259008308939"><ele>238.5</ele><time>2026-05-03T14:31:23.955Z</time></trkpt><trkpt lat="50.878289488347335" lon="11.953115306334901"><ele>237.75</ele><time>2026-05-03T14:31:24.955Z</time></trkpt><trkpt lat="50.87821535304628" lon="11.952970914270894"><ele>237.0</ele><time>2026-05-03T14:31:25.955Z</time></trkpt><trkpt lat="50.878140578672436" lon="11.952829934611382"><ele>237.0</ele><time>2026-05-03T14:31:26.955Z</time></trkpt><trkpt lat="50.87807009383294" lon="11.952675661820562"><ele>237.0</ele><time>2026-05-03T14:31:27.955Z</time></trkpt><trkpt lat="50.87800502055303" lon="11.952510518350604"><ele>237.0</ele><time>2026-05-03T14:31:28.955Z</time></trkpt><trkpt lat="50.877939812889984" lon="11.952330915852905"><ele>237.0</ele><time>2026-05-03T14:31:29.955Z</time></trkpt><trkpt lat="50.87788439171945" lon="11.952142639665658"><ele>237.25</ele><time>2026-05-03T14:31:30.955Z</time></trkpt><trkpt lat="50.87783529247583" lon="11.951954430500164"><ele>237.5</ele><time>2026-05-03T14:31:31.955Z</time></trkpt><trkpt lat="50.877784256647224" lon="11.951782859055935"><ele>237.75</ele><time>2026-05-03T14:31:32.955Z</time></trkpt><trkpt lat="50.87774129314636" lon="11.951603576608512"><ele>238.0</ele><time>2026-05-03T14:31:33.955Z</time></trkpt><trkpt lat="50.87770615990086" lon="11.951409814696108"><ele>239.0</ele><time>2026-05-03T14:31:34.955Z</time></trkpt><trkpt lat="50.87767938883718" lon="11.951215060890707"><ele>240.0</ele><time>2026-05-03T14:31:35.955Z</time></trkpt><trkpt lat="50.87766028030223" lon="11.951012172455663"><ele>241.0</ele><time>2026-05-03T14:31:36.955Z</time></trkpt><trkpt lat="50.87762828237444" lon="11.950818049330143"><ele>242.0</ele><time>2026-05-03T14:31:37.955Z</time></trkpt><trkpt lat="50.87761109347467" lon="11.950619086243627"><ele>241.25</ele><time>2026-05-03T14:31:38.955Z</time></trkpt><trkpt lat="50.877593626050825" lon="11.95041746891428"><ele>240.5</ele><time>2026-05-03T14:31:39.955Z</time></trkpt><trkpt lat="50.87756991735062" lon="11.9502144236062"><ele>239.75</ele><time>2026-05-03T14:31:40.955Z</time></trkpt><trkpt lat="50.877546466694554" lon="11.950010615096788"><ele>239.0</ele><time>2026-05-03T14:31:41.955Z</time></trkpt><trkpt lat="50.87752253898287" lon="11.949802921470262"><ele>239.0</ele><time>2026-05-03T14:31:42.955Z</time></trkpt><trkpt lat="50.877496979321734" lon="11.94959923659904"><ele>239.0</ele><time>2026-05-03T14:31:43.955Z</time></trkpt><trkpt lat="50.877466475703216" lon="11.949402253548993"><ele>239.0</ele><time>2026-05-03T14:31:44.955Z</time></trkpt><trkpt lat="50.87743682162366" lon="11.949199396044643"><ele>239.0</ele><time>2026-05-03T14:31:45.955Z</time></trkpt><trkpt lat="50.87740125070165" lon="11.94899405225368"><ele>239.5</ele><time>2026-05-03T14:31:46.955Z</time></trkpt><trkpt lat="50.87736370000644" lon="11.948794619090192"><ele>240.0</ele><time>2026-05-03T14:31:47.955Z</time></trkpt><trkpt lat="50.87732497565041" lon="11.948598846983248"><ele>240.5</ele><time>2026-05-03T14:31:48.955Z</time></trkpt><trkpt lat="50.8772894787349" lon="11.948403263232901"><ele>241.0</ele><time>2026-05-03T14:31:49.955Z</time></trkpt><trkpt lat="50.87725761643397" lon="11.9482041978119"><ele>241.25</ele><time>2026-05-03T14:31:50.955Z</time></trkpt><trkpt lat="50.87722824847014" lon="11.9480013530759"><ele>241.5</ele><time>2026-05-03T14:31:51.955Z</time></trkpt><trkpt lat="50.87720491084241" lon="11.947798837240857"><ele>241.75</ele><time>2026-05-03T14:31:52.955Z</time></trkpt><trkpt lat="50.87718686987376" lon="11.947586763593522"><ele>242.0</ele><time>2026-05-03T14:31:53.955Z</time></trkpt><trkpt lat="50.87716778191004" lon="11.947378174692735"><ele>242.5</ele><time>2026-05-03T14:31:54.955Z</time></trkpt><trkpt lat="50.87714448480817" lon="11.947178793943925"><ele>243.0</ele><time>2026-05-03T14:31:55.955Z</time></trkpt><trkpt lat="50.87711795509269" lon="11.94698276413693"><ele>243.5</ele><time>2026-05-03T14:31:56.955Z</time></trkpt><trkpt lat="50.87709287807789" lon="11.946792099026013"><ele>244.0</ele><time>2026-05-03T14:31:57.955Z</time></trkpt><trkpt lat="50.87707172274708" lon="11.946600786674773"><ele>244.25</ele><time>2026-05-03T14:31:58.955Z</time></trkpt><trkpt lat="50.877056766776676" lon="11.946409791933815"><ele>244.5</ele><time>2026-05-03T14:31:59.955Z</time></trkpt><trkpt lat="50.877050987605145" lon="11.946218148247407"><ele>244.75</ele><time>2026-05-03T14:32:00.955Z</time></trkpt><trkpt lat="50.87704138869643" lon="11.946024426142875"><ele>245.0</ele><time>2026-05-03T14:32:01.955Z</time></trkpt><trkpt lat="50.877041153409166" lon="11.945826802997326"><ele>245.25</ele><time>2026-05-03T14:32:02.955Z</time></trkpt><trkpt lat="50.87704504183152" lon="11.945631272157193"><ele>245.5</ele><time>2026-05-03T14:32:03.955Z</time></trkpt><trkpt lat="50.87705369239243" lon="11.945423484247861"><ele>245.75</ele><time>2026-05-03T14:32:04.955Z</time></trkpt><trkpt lat="50.877068500945064" lon="11.945223626724719"><ele>246.0</ele><time>2026-05-03T14:32:05.955Z</time></trkpt><trkpt lat="50.877096101645094" lon="11.945023555256105"><ele>246.25</ele><time>2026-05-03T14:32:06.955Z</time></trkpt><trkpt lat="50.87712393189054" lon="11.944821778842776"><ele>246.5</ele><time>2026-05-03T14:32:07.955Z</time></trkpt><trkpt lat="50.8771436414902" lon="11.944625196095538"><ele>246.75</ele><time>2026-05-03T14:32:08.955Z</time></trkpt><trkpt lat="50.87717256734559" lon="11.944428814195735"><ele>247.0</ele><time>2026-05-03T14:32:09.955Z</time></trkpt><trkpt lat="50.87719896673599" lon="11.944230717888308"><ele>247.25</ele><time>2026-05-03T14:32:10.955Z</time></trkpt><trkpt lat="50.8772430488742" lon="11.944036248160405"><ele>247.5</ele><time>2026-05-03T14:32:11.955Z</time></trkpt><trkpt lat="50.87725405034536" lon="11.943848154171409"><ele>247.75</ele><time>2026-05-03T14:32:12.955Z</time></trkpt><trkpt lat="50.87727771926815" lon="11.94366326459834"><ele>248.0</ele><time>2026-05-03T14:32:13.955Z</time></trkpt><trkpt lat="50.87729498297124" lon="11.943478008537113"><ele>247.75</ele><time>2026-05-03T14:32:14.955Z</time></trkpt><trkpt lat="50.8773033492627" lon="11.943289510470194"><ele>247.5</ele><time>2026-05-03T14:32:15.955Z</time></trkpt><trkpt lat="50.87730632050812" lon="11.94310741651528"><ele>247.25</ele><time>2026-05-03T14:32:16.955Z</time></trkpt><trkpt lat="50.877312044234124" lon="11.942916197537869"><ele>247.0</ele><time>2026-05-03T14:32:17.955Z</time></trkpt><trkpt lat="50.877321280147854" lon="11.942723379515906"><ele>246.75</ele><time>2026-05-03T14:32:18.955Z</time></trkpt><trkpt lat="50.87733818171839" lon="11.942527240204585"><ele>246.5</ele><time>2026-05-03T14:32:19.955Z</time></trkpt><trkpt lat="50.877364601432035" lon="11.942332156943907"><ele>246.25</ele><time>2026-05-03T14:32:20.955Z</time></trkpt><trkpt lat="50.877399974234415" lon="11.942145237942004"><ele>246.0</ele><time>2026-05-03T14:32:21.955Z</time></trkpt><trkpt lat="50.87743102415657" lon="11.941952642770351"><ele>246.0</ele><time>2026-05-03T14:32:22.955Z</time></trkpt><trkpt lat="50.877456094497894" lon="11.941762124724193"><ele>246.0</ele><time>2026-05-03T14:32:23.955Z</time></trkpt><trkpt lat="50.87747006126636" lon="11.941564979027328"><ele>246.0</ele><time>2026-05-03T14:32:24.955Z</time></trkpt><trkpt lat="50.87747447380743" lon="11.94136447883283"><ele>246.0</ele><time>2026-05-03T14:32:25.955Z</time></trkpt><trkpt lat="50.8774726169936" lon="11.941162916457776"><ele>246.0</ele><time>2026-05-03T14:32:26.955Z</time></trkpt><trkpt lat="50.87747025410515" lon="11.940962713310968"><ele>246.0</ele><time>2026-05-03T14:32:27.955Z</time></trkpt><trkpt lat="50.87746741889995" lon="11.940767162999006"><ele>246.0</ele><time>2026-05-03T14:32:28.955Z</time></trkpt><trkpt lat="50.87745372296165" lon="11.940569751686622"><ele>246.0</ele><time>2026-05-03T14:32:29.955Z</time></trkpt><trkpt lat="50.87743197907404" lon="11.940367070156931"><ele>246.0</ele><time>2026-05-03T14:32:30.955Z</time></trkpt><trkpt lat="50.87740308951295" lon="11.940171096966758"><ele>246.0</ele><time>2026-05-03T14:32:31.955Z</time></trkpt><trkpt lat="50.87737019139176" lon="11.939972790201836"><ele>246.0</ele><time>2026-05-03T14:32:32.955Z</time></trkpt><trkpt lat="50.87733561188295" lon="11.939780400968512"><ele>246.0</ele><time>2026-05-03T14:32:33.955Z</time></trkpt><trkpt lat="50.877302502223245" lon="11.939587360662937"><ele>245.75</ele><time>2026-05-03T14:32:34.955Z</time></trkpt><trkpt lat="50.877269070078384" lon="11.939392867423576"><ele>245.5</ele><time>2026-05-03T14:32:35.955Z</time></trkpt><trkpt lat="50.8772358123837" lon="11.939200703086238"><ele>245.25</ele><time>2026-05-03T14:32:36.955Z</time></trkpt><trkpt lat="50.87720422776147" lon="11.939005102951997"><ele>245.0</ele><time>2026-05-03T14:32:37.955Z</time></trkpt><trkpt lat="50.877177810202305" lon="11.938813105989718"><ele>245.75</ele><time>2026-05-03T14:32:38.955Z</time></trkpt><trkpt lat="50.87715802499273" lon="11.938621427651858"><ele>246.5</ele><time>2026-05-03T14:32:39.955Z</time></trkpt><trkpt lat="50.87713772248746" lon="11.938423975656729"><ele>247.25</ele><time>2026-05-03T14:32:40.955Z</time></trkpt><trkpt lat="50.8771190927065" lon="11.938232909506947"><ele>248.0</ele><time>2026-05-03T14:32:41.955Z</time></trkpt><trkpt lat="50.87710752911957" lon="11.938044902396708"><ele>249.0</ele><time>2026-05-03T14:32:42.955Z</time></trkpt><trkpt lat="50.8771203291721" lon="11.937852148773581"><ele>250.0</ele><time>2026-05-03T14:32:43.955Z</time></trkpt><trkpt lat="50.877112466548354" lon="11.937660290285521"><ele>251.0</ele><time>2026-05-03T14:32:44.955Z</time></trkpt><trkpt lat="50.87714882001125" lon="11.937456633037591"><ele>252.0</ele><time>2026-05-03T14:32:45.955Z</time></trkpt><trkpt lat="50.877198052350614" lon="11.93728251093509"><ele>252.25</ele><time>2026-05-03T14:32:46.955Z</time></trkpt><trkpt lat="50.877239114784054" lon="11.937110638612404"><ele>252.5</ele><time>2026-05-03T14:32:47.955Z</time></trkpt><trkpt lat="50.87726563922794" lon="11.936930640714186"><ele>252.75</ele><time>2026-05-03T14:32:48.955Z</time></trkpt><trkpt lat="50.87730515079142" lon="11.936757841292506"><ele>253.0</ele><time>2026-05-03T14:32:49.955Z</time></trkpt><trkpt lat="50.87732440623708" lon="11.936575529117313"><ele>252.75</ele><time>2026-05-03T14:32:50.955Z</time></trkpt><trkpt lat="50.87733482542249" lon="11.936386818531862"><ele>252.5</ele><time>2026-05-03T14:32:51.955Z</time></trkpt><trkpt lat="50.8773260979223" lon="11.936192225416356"><ele>252.25</ele><time>2026-05-03T14:32:52.955Z</time></trkpt><trkpt lat="50.87731253345914" lon="11.9360079120866"><ele>252.0</ele><time>2026-05-03T14:32:53.955Z</time></trkpt><trkpt lat="50.877293918311636" lon="11.9358261065448"><ele>252.0</ele><time>2026-05-03T14:32:54.955Z</time></trkpt><trkpt lat="50.87728646828237" lon="11.935638027344535"><ele>252.0</ele><time>2026-05-03T14:32:55.955Z</time></trkpt><trkpt lat="50.87727016604517" lon="11.935448407010467"><ele>252.0</ele><time>2026-05-03T14:32:56.955Z</time></trkpt><trkpt lat="50.87725821467637" lon="11.935258148049366"><ele>252.0</ele><time>2026-05-03T14:32:57.955Z</time></trkpt><trkpt lat="50.8772431768025" lon="11.93506747627973"><ele>251.75</ele><time>2026-05-03T14:32:58.955Z</time></trkpt><trkpt lat="50.87722822819757" lon="11.934878284072315"><ele>251.5</ele><time>2026-05-03T14:32:59.955Z</time></trkpt><trkpt lat="50.87721137386324" lon="11.934687746329566"><ele>251.25</ele><time>2026-05-03T14:33:00.955Z</time></trkpt><trkpt lat="50.8771926193139" lon="11.934498533583316"><ele>251.0</ele><time>2026-05-03T14:33:01.955Z</time></trkpt><trkpt lat="50.877173474608156" lon="11.93431572994909"><ele>251.25</ele><time>2026-05-03T14:33:02.955Z</time></trkpt><trkpt lat="50.87716055250699" lon="11.934126355264251"><ele>251.5</ele><time>2026-05-03T14:33:03.955Z</time></trkpt><trkpt lat="50.877148796470095" lon="11.933938228188385"><ele>251.75</ele><time>2026-05-03T14:33:04.955Z</time></trkpt><trkpt lat="50.87713193268728" lon="11.933753675802521"><ele>252.0</ele><time>2026-05-03T14:33:05.955Z</time></trkpt><trkpt lat="50.87711396595961" lon="11.933568497909892"><ele>252.25</ele><time>2026-05-03T14:33:06.955Z</time></trkpt><trkpt lat="50.87710121376894" lon="11.933376503233346"><ele>252.5</ele><time>2026-05-03T14:33:07.955Z</time></trkpt><trkpt lat="50.87708802844084" lon="11.933187257906033"><ele>252.75</ele><time>2026-05-03T14:33:08.955Z</time></trkpt><trkpt lat="50.87706876958524" lon="11.932999413637827"><ele>253.0</ele><time>2026-05-03T14:33:09.955Z</time></trkpt><trkpt lat="50.87705469411622" lon="11.93281150611064"><ele>253.0</ele><time>2026-05-03T14:33:10.955Z</time></trkpt><trkpt lat="50.87704237801135" lon="11.932622872731896"><ele>253.0</ele><time>2026-05-03T14:33:11.955Z</time></trkpt><trkpt lat="50.87702976819622" lon="11.932436450687353"><ele>253.0</ele><time>2026-05-03T14:33:12.955Z</time></trkpt><trkpt lat="50.877019347242744" lon="11.932250625198485"><ele>253.0</ele><time>2026-05-03T14:33:13.955Z</time></trkpt><trkpt lat="50.877007803222085" lon="11.93206411467165"><ele>254.75</ele><time>2026-05-03T14:33:14.955Z</time></trkpt><trkpt lat="50.876991518240835" lon="11.931879580916162"><ele>256.5</ele><time>2026-05-03T14:33:15.955Z</time></trkpt><trkpt lat="50.87697670264513" lon="11.93169725400693"><ele>258.25</ele><time>2026-05-03T14:33:16.955Z</time></trkpt><trkpt lat="50.87696310115199" lon="11.931514796654442"><ele>260.0</ele><time>2026-05-03T14:33:17.955Z</time></trkpt><trkpt lat="50.87694646056911" lon="11.931335800470771"><ele>262.0</ele><time>2026-05-03T14:33:18.955Z</time></trkpt><trkpt lat="50.87692561055289" lon="11.931157881451586"><ele>264.0</ele><time>2026-05-03T14:33:19.954Z</time></trkpt><trkpt lat="50.87690606242192" lon="11.93097923204642"><ele>266.0</ele><time>2026-05-03T14:33:20.954Z</time></trkpt><trkpt lat="50.87687903091889" lon="11.930802010614103"><ele>268.0</ele><time>2026-05-03T14:33:21.954Z</time></trkpt><trkpt lat="50.87683929551517" lon="11.930630157719243"><ele>268.5</ele><time>2026-05-03T14:33:22.954Z</time></trkpt><trkpt lat="50.876791048394196" lon="11.930467079029011"><ele>269.0</ele><time>2026-05-03T14:33:23.954Z</time></trkpt><trkpt lat="50.87674338518018" lon="11.930300338911106"><ele>269.5</ele><time>2026-05-03T14:33:24.954Z</time></trkpt><trkpt lat="50.87669331885112" lon="11.930128301391914"><ele>270.0</ele><time>2026-05-03T14:33:25.954Z</time></trkpt><trkpt lat="50.87664386838689" lon="11.929955800170857"><ele>268.0</ele><time>2026-05-03T14:33:26.954Z</time></trkpt><trkpt lat="50.876595024818556" lon="11.929786201907586"><ele>266.0</ele><time>2026-05-03T14:33:27.954Z</time></trkpt><trkpt lat="50.87654737122323" lon="11.929614476281046"><ele>264.0</ele><time>2026-05-03T14:33:28.954Z</time></trkpt><trkpt lat="50.87650166357786" lon="11.929438296271417"><ele>262.0</ele><time>2026-05-03T14:33:29.954Z</time></trkpt><trkpt lat="50.87646169221386" lon="11.92926176264563"><ele>264.0</ele><time>2026-05-03T14:33:30.954Z</time></trkpt><trkpt lat="50.87642818562744" lon="11.929085936080646"><ele>266.0</ele><time>2026-05-03T14:33:31.954Z</time></trkpt><trkpt lat="50.87639795426653" lon="11.92889840170417"><ele>268.0</ele><time>2026-05-03T14:33:32.954Z</time></trkpt><trkpt lat="50.87636458884344" lon="11.928718281301599"><ele>270.0</ele><time>2026-05-03T14:33:33.954Z</time></trkpt><trkpt lat="50.87632881000108" lon="11.928544361037856"><ele>270.75</ele><time>2026-05-03T14:33:34.954Z</time></trkpt><trkpt lat="50.87629088563194" lon="11.928368240251118"><ele>271.5</ele><time>2026-05-03T14:33:35.954Z</time></trkpt><trkpt lat="50.876249202201095" lon="11.928192710838843"><ele>272.25</ele><time>2026-05-03T14:33:36.954Z</time></trkpt><trkpt lat="50.876205440686334" lon="11.928017983499169"><ele>273.0</ele><time>2026-05-03T14:33:37.954Z</time></trkpt><trkpt lat="50.87616370359086" lon="11.927843334641297"><ele>273.0</ele><time>2026-05-03T14:33:38.954Z</time></trkpt><trkpt lat="50.87611715467288" lon="11.927664848887726"><ele>273.0</ele><time>2026-05-03T14:33:39.954Z</time></trkpt><trkpt lat="50.876061775041734" lon="11.927499096219472"><ele>273.0</ele><time>2026-05-03T14:33:40.954Z</time></trkpt><trkpt lat="50.87599823449926" lon="11.927336928241761"><ele>273.0</ele><time>2026-05-03T14:33:41.954Z</time></trkpt><trkpt lat="50.87593935150332" lon="11.927171343701822"><ele>269.75</ele><time>2026-05-03T14:33:42.954Z</time></trkpt><trkpt lat="50.87589193152127" lon="11.926993141408833"><ele>266.5</ele><time>2026-05-03T14:33:43.954Z</time></trkpt><trkpt lat="50.87585487322626" lon="11.926807224030927"><ele>263.25</ele><time>2026-05-03T14:33:44.954Z</time></trkpt><trkpt lat="50.87582875188131" lon="11.92660944907054"><ele>260.0</ele><time>2026-05-03T14:33:45.954Z</time></trkpt><trkpt lat="50.87580916728643" lon="11.926415084165473"><ele>260.0</ele><time>2026-05-03T14:33:46.954Z</time></trkpt><trkpt lat="50.875791714104786" lon="11.926212827704783"><ele>260.0</ele><time>2026-05-03T14:33:47.954Z</time></trkpt><trkpt lat="50.87577977360795" lon="11.926026416084294"><ele>260.0</ele><time>2026-05-03T14:33:48.954Z</time></trkpt><trkpt lat="50.87576572649022" lon="11.925840985469023"><ele>260.0</ele><time>2026-05-03T14:33:49.954Z</time></trkpt><trkpt lat="50.875749089082056" lon="11.925654490848583"><ele>259.5</ele><time>2026-05-03T14:33:50.954Z</time></trkpt><trkpt lat="50.87573049758364" lon="11.925468728413922"><ele>259.0</ele><time>2026-05-03T14:33:51.954Z</time></trkpt><trkpt lat="50.875713774233276" lon="11.925284976766976"><ele>258.5</ele><time>2026-05-03T14:33:52.954Z</time></trkpt><trkpt lat="50.87569707360296" lon="11.925096499105655"><ele>258.0</ele><time>2026-05-03T14:33:53.954Z</time></trkpt><trkpt lat="50.87568032507042" lon="11.924913176356696"><ele>258.0</ele><time>2026-05-03T14:33:54.954Z</time></trkpt><trkpt lat="50.87566273207968" lon="11.924734781033887"><ele>258.0</ele><time>2026-05-03T14:33:55.954Z</time></trkpt><trkpt lat="50.875643863670994" lon="11.924553469862918"><ele>258.0</ele><time>2026-05-03T14:33:56.954Z</time></trkpt><trkpt lat="50.875623020905245" lon="11.924374258450873"><ele>258.0</ele><time>2026-05-03T14:33:57.954Z</time></trkpt><trkpt lat="50.8756041713557" lon="11.924200431643058"><ele>258.75</ele><time>2026-05-03T14:33:58.954Z</time></trkpt><trkpt lat="50.8755927517939" lon="11.924023818378426"><ele>259.5</ele><time>2026-05-03T14:33:59.954Z</time></trkpt><trkpt lat="50.87558229515418" lon="11.923839252575167"><ele>260.25</ele><time>2026-05-03T14:34:00.954Z</time></trkpt><trkpt lat="50.875573677503986" lon="11.923657002582113"><ele>261.0</ele><time>2026-05-03T14:34:01.954Z</time></trkpt><trkpt lat="50.87556878106728" lon="11.92347780984257"><ele>261.40000000000003</ele><time>2026-05-03T14:34:02.954Z</time></trkpt><trkpt lat="50.875560187907354" lon="11.923299987226542"><ele>261.8</ele><time>2026-05-03T14:34:03.954Z</time></trkpt><trkpt lat="50.87555195905323" lon="11.923122644829519"><ele>262.20000000000005</ele><time>2026-05-03T14:34:04.954Z</time></trkpt><trkpt lat="50.87554445905114" lon="11.922948824686097"><ele>262.6</ele><time>2026-05-03T14:34:05.954Z</time></trkpt><trkpt lat="50.87553986913403" lon="11.922774342441798"><ele>263.0</ele><time>2026-05-03T14:34:06.954Z</time></trkpt><trkpt lat="50.87553585190898" lon="11.922599331876903"><ele>263.0</ele><time>2026-05-03T14:34:07.954Z</time></trkpt><trkpt lat="50.87553590488697" lon="11.922421761654862"><ele>263.0</ele><time>2026-05-03T14:34:08.954Z</time></trkpt><trkpt lat="50.8755310532094" lon="11.922245764615663"><ele>263.0</ele><time>2026-05-03T14:34:09.954Z</time></trkpt><trkpt lat="50.875538478054146" lon="11.922076386703951"><ele>263.0</ele><time>2026-05-03T14:34:10.954Z</time></trkpt><trkpt lat="50.8755435250811" lon="11.92190053216648"><ele>263.0</ele><time>2026-05-03T14:34:11.954Z</time></trkpt><trkpt lat="50.87554843729717" lon="11.921726726671544"><ele>263.0</ele><time>2026-05-03T14:34:12.954Z</time></trkpt><trkpt lat="50.875557105702974" lon="11.92155288926453"><ele>263.0</ele><time>2026-05-03T14:34:13.954Z</time></trkpt><trkpt lat="50.87557483751289" lon="11.921386372089453"><ele>263.0</ele><time>2026-05-03T14:34:14.954Z</time></trkpt><trkpt lat="50.875599437940856" lon="11.921217930429593"><ele>263.0</ele><time>2026-05-03T14:34:15.954Z</time></trkpt><trkpt lat="50.87562739411425" lon="11.921050646517578"><ele>263.0</ele><time>2026-05-03T14:34:16.954Z</time></trkpt><trkpt lat="50.87568203088684" lon="11.920885589482582"><ele>263.0</ele><time>2026-05-03T14:34:17.954Z</time></trkpt><trkpt lat="50.87572646037592" lon="11.920717148978513"><ele>263.0</ele><time>2026-05-03T14:34:18.954Z</time></trkpt><trkpt lat="50.87577180257097" lon="11.920554187435648"><ele>263.0</ele><time>2026-05-03T14:34:19.954Z</time></trkpt><trkpt lat="50.875820846900716" lon="11.920389680007169"><ele>263.0</ele><time>2026-05-03T14:34:20.954Z</time></trkpt><trkpt lat="50.87586937268613" lon="11.920226269157084"><ele>263.0</ele><time>2026-05-03T14:34:21.954Z</time></trkpt><trkpt lat="50.87591933845432" lon="11.920058209521214"><ele>263.0</ele><time>2026-05-03T14:34:22.954Z</time></trkpt><trkpt lat="50.87596851282549" lon="11.919892893562555"><ele>263.0</ele><time>2026-05-03T14:34:23.954Z</time></trkpt><trkpt lat="50.87601305317787" lon="11.919715899008391"><ele>263.0</ele><time>2026-05-03T14:34:24.954Z</time></trkpt><trkpt lat="50.876064083312805" lon="11.919552349091303"><ele>265.75</ele><time>2026-05-03T14:34:25.954Z</time></trkpt><trkpt lat="50.87611111841545" lon="11.919372071498676"><ele>268.5</ele><time>2026-05-03T14:34:26.954Z</time></trkpt><trkpt lat="50.87616217197046" lon="11.919208588255858"><ele>271.25</ele><time>2026-05-03T14:34:27.954Z</time></trkpt><trkpt lat="50.87621305612239" lon="11.919037661749233"><ele>274.0</ele><time>2026-05-03T14:34:28.954Z</time></trkpt><trkpt lat="50.87626104443917" lon="11.918858467883183"><ele>274.0</ele><time>2026-05-03T14:34:29.954Z</time></trkpt><trkpt lat="50.87630722952302" lon="11.918681460838219"><ele>274.0</ele><time>2026-05-03T14:34:30.954Z</time></trkpt><trkpt lat="50.876369504619376" lon="11.918527154344611"><ele>274.0</ele><time>2026-05-03T14:34:31.954Z</time></trkpt><trkpt lat="50.87640276397302" lon="11.918341927282462"><ele>274.0</ele><time>2026-05-03T14:34:32.954Z</time></trkpt><trkpt lat="50.87642795023259" lon="11.918154516479918"><ele>273.5</ele><time>2026-05-03T14:34:33.954Z</time></trkpt><trkpt lat="50.87643942472206" lon="11.91796099392541"><ele>273.0</ele><time>2026-05-03T14:34:34.954Z</time></trkpt><trkpt lat="50.87643359289287" lon="11.917766064812634"><ele>272.5</ele><time>2026-05-03T14:34:35.954Z</time></trkpt><trkpt lat="50.87641146596823" lon="11.917572925954772"><ele>272.0</ele><time>2026-05-03T14:34:36.954Z</time></trkpt><trkpt lat="50.87637695527427" lon="11.917390041390828"><ele>271.75</ele><time>2026-05-03T14:34:37.954Z</time></trkpt><trkpt lat="50.876337808746655" lon="11.91720917564681"><ele>271.5</ele><time>2026-05-03T14:34:38.954Z</time></trkpt><trkpt lat="50.876302095927535" lon="11.917025103631989"><ele>271.25</ele><time>2026-05-03T14:34:39.954Z</time></trkpt><trkpt lat="50.87626389357602" lon="11.916847933361986"><ele>271.0</ele><time>2026-05-03T14:34:40.954Z</time></trkpt><trkpt lat="50.87622713136037" lon="11.916666282999952"><ele>272.0</ele><time>2026-05-03T14:34:41.954Z</time></trkpt><trkpt lat="50.87618907859707" lon="11.916484929749565"><ele>273.0</ele><time>2026-05-03T14:34:42.954Z</time></trkpt><trkpt lat="50.87614985221492" lon="11.916307954033435"><ele>274.0</ele><time>2026-05-03T14:34:43.954Z</time></trkpt><trkpt lat="50.876107386157585" lon="11.916131886747637"><ele>275.0</ele><time>2026-05-03T14:34:44.954Z</time></trkpt><trkpt lat="50.87606351342123" lon="11.915953773577714"><ele>275.75</ele><time>2026-05-03T14:34:45.954Z</time></trkpt><trkpt lat="50.87602072572317" lon="11.915773441973847"><ele>276.5</ele><time>2026-05-03T14:34:46.954Z</time></trkpt><trkpt lat="50.87597759542066" lon="11.915595665230226"><ele>277.25</ele><time>2026-05-03T14:34:47.954Z</time></trkpt><trkpt lat="50.87594083780997" lon="11.915416769418327"><ele>278.0</ele><time>2026-05-03T14:34:48.954Z</time></trkpt><trkpt lat="50.875907733779044" lon="11.915227013532444"><ele>275.75</ele><time>2026-05-03T14:34:49.954Z</time></trkpt><trkpt lat="50.875873939254376" lon="11.915043289471983"><ele>273.5</ele><time>2026-05-03T14:34:50.954Z</time></trkpt><trkpt lat="50.87583731198049" lon="11.914859982471418"><ele>271.25</ele><time>2026-05-03T14:34:51.954Z</time></trkpt><trkpt lat="50.87579845347093" lon="11.914682393083213"><ele>269.0</ele><time>2026-05-03T14:34:52.954Z</time></trkpt><trkpt lat="50.87577004451652" lon="11.914494089648118"><ele>269.0</ele><time>2026-05-03T14:34:53.954Z</time></trkpt><trkpt lat="50.875775202089436" lon="11.91430294226064"><ele>269.0</ele><time>2026-05-03T14:34:54.954Z</time></trkpt><trkpt lat="50.87581092205528" lon="11.914126550202806"><ele>269.0</ele><time>2026-05-03T14:34:55.954Z</time></trkpt><trkpt lat="50.87586484935968" lon="11.913968890779977"><ele>269.0</ele><time>2026-05-03T14:34:56.954Z</time></trkpt><trkpt lat="50.875934781519355" lon="11.913826789854099"><ele>270.8</ele><time>2026-05-03T14:34:57.954Z</time></trkpt><trkpt lat="50.87600703745725" lon="11.913695670220019"><ele>272.59999999999997</ele><time>2026-05-03T14:34:58.954Z</time></trkpt><trkpt lat="50.87607489838922" lon="11.91355922858754"><ele>274.4</ele><time>2026-05-03T14:34:59.954Z</time></trkpt><trkpt lat="50.87614107845476" lon="11.9134210526929"><ele>276.2</ele><time>2026-05-03T14:35:00.954Z</time></trkpt><trkpt lat="50.87620724692115" lon="11.91329284147214"><ele>278.0</ele><time>2026-05-03T14:35:01.954Z</time></trkpt><trkpt lat="50.87627559259224" lon="11.913154071467655"><ele>278.0</ele><time>2026-05-03T14:35:02.954Z</time></trkpt><trkpt lat="50.876332091997675" lon="11.91299938672113"><ele>278.0</ele><time>2026-05-03T14:35:03.954Z</time></trkpt><trkpt lat="50.87639543201351" lon="11.91285632909525"><ele>278.0</ele><time>2026-05-03T14:35:04.954Z</time></trkpt><trkpt lat="50.87644918049424" lon="11.91270148071818"><ele>278.0</ele><time>2026-05-03T14:35:05.954Z</time></trkpt><trkpt lat="50.8765051913243" lon="11.912541214769046"><ele>276.5</ele><time>2026-05-03T14:35:06.954Z</time></trkpt><trkpt lat="50.87656434434038" lon="11.912378455316514"><ele>275.0</ele><time>2026-05-03T14:35:07.954Z</time></trkpt><trkpt lat="50.8766187552721" lon="11.912215543838416"><ele>273.5</ele><time>2026-05-03T14:35:08.954Z</time></trkpt><trkpt lat="50.87667772790119" lon="11.912055393650064"><ele>272.0</ele><time>2026-05-03T14:35:09.955Z</time></trkpt><trkpt lat="50.87673939837652" lon="11.911899566982125"><ele>275.75</ele><time>2026-05-03T14:35:10.956Z</time></trkpt><trkpt lat="50.87680654066023" lon="11.911747875948848"><ele>279.5</ele><time>2026-05-03T14:35:11.956Z</time></trkpt><trkpt lat="50.87687455195901" lon="11.911589003936305"><ele>283.25</ele><time>2026-05-03T14:35:12.956Z</time></trkpt><trkpt lat="50.87693797312547" lon="11.911431426311651"><ele>287.0</ele><time>2026-05-03T14:35:13.957Z</time></trkpt><trkpt lat="50.87699444887278" lon="11.911265122280847"><ele>287.0</ele><time>2026-05-03T14:35:14.957Z</time></trkpt><trkpt lat="50.877041955389565" lon="11.911088275312887"><ele>287.0</ele><time>2026-05-03T14:35:15.958Z</time></trkpt><trkpt lat="50.87708087535493" lon="11.910912805925372"><ele>287.0</ele><time>2026-05-03T14:35:16.958Z</time></trkpt><trkpt lat="50.87711574022273" lon="11.910734382024662"><ele>287.0</ele><time>2026-05-03T14:35:17.958Z</time></trkpt><trkpt lat="50.877145326169156" lon="11.910553861556512"><ele>286.0</ele><time>2026-05-03T14:35:18.959Z</time></trkpt><trkpt lat="50.87717439693791" lon="11.910391814139901"><ele>285.0</ele><time>2026-05-03T14:35:19.959Z</time></trkpt><trkpt lat="50.877200773129005" lon="11.910248403594647"><ele>284.0</ele><time>2026-05-03T14:35:20.959Z</time></trkpt><trkpt lat="50.87722103098784" lon="11.910100995312916"><ele>283.0</ele><time>2026-05-03T14:35:21.96Z</time></trkpt><trkpt lat="50.87723289487685" lon="11.90996509005101"><ele>282.0</ele><time>2026-05-03T14:35:22.96Z</time></trkpt><trkpt lat="50.877233793396286" lon="11.909823781984803"><ele>281.4</ele><time>2026-05-03T14:35:23.96Z</time></trkpt><trkpt lat="50.87726799875538" lon="11.909691353540563"><ele>280.79999999999995</ele><time>2026-05-03T14:35:24.96Z</time></trkpt><trkpt lat="50.877281437512934" lon="11.90954201638144"><ele>280.2</ele><time>2026-05-03T14:35:25.959Z</time></trkpt><trkpt lat="50.877289661065866" lon="11.909389089185384"><ele>279.59999999999997</ele><time>2026-05-03T14:35:26.959Z</time></trkpt><trkpt lat="50.877293602728216" lon="11.909234089490942"><ele>279.0</ele><time>2026-05-03T14:35:27.96Z</time></trkpt><trkpt lat="50.87729858502701" lon="11.909081045063191"><ele>279.0</ele><time>2026-05-03T14:35:28.961Z</time></trkpt><trkpt lat="50.87730564936347" lon="11.908923055567136"><ele>279.0</ele><time>2026-05-03T14:35:29.96Z</time></trkpt><trkpt lat="50.87732108149603" lon="11.908758839346177"><ele>279.0</ele><time>2026-05-03T14:35:30.96Z</time></trkpt><trkpt lat="50.87733926951191" lon="11.908598725215807"><ele>279.0</ele><time>2026-05-03T14:35:31.96Z</time></trkpt><trkpt lat="50.87735587052699" lon="11.908430794140772"><ele>279.0</ele><time>2026-05-03T14:35:32.961Z</time></trkpt><trkpt lat="50.877376780619244" lon="11.908259793471341"><ele>278.8</ele><time>2026-05-03T14:35:33.961Z</time></trkpt><trkpt lat="50.87739944450524" lon="11.908090777828756"><ele>278.59999999999997</ele><time>2026-05-03T14:35:34.961Z</time></trkpt><trkpt lat="50.87742278313559" lon="11.907921347498108"><ele>278.4</ele><time>2026-05-03T14:35:35.961Z</time></trkpt><trkpt lat="50.877442231728594" lon="11.90774407503853"><ele>278.2</ele><time>2026-05-03T14:35:36.961Z</time></trkpt><trkpt lat="50.87746651662751" lon="11.907568009006924"><ele>278.0</ele><time>2026-05-03T14:35:37.961Z</time></trkpt><trkpt lat="50.877489753413776" lon="11.907391320622501"><ele>277.75</ele><time>2026-05-03T14:35:38.961Z</time></trkpt><trkpt lat="50.87751581845089" lon="11.907219046297413"><ele>277.5</ele><time>2026-05-03T14:35:39.961Z</time></trkpt><trkpt lat="50.877546749665036" lon="11.907046885612047"><ele>277.25</ele><time>2026-05-03T14:35:40.961Z</time></trkpt><trkpt lat="50.87758214078328" lon="11.906878127880315"><ele>277.0</ele><time>2026-05-03T14:35:41.961Z</time></trkpt><trkpt lat="50.8776269757745" lon="11.906712335672015"><ele>280.0</ele><time>2026-05-03T14:35:42.961Z</time></trkpt><trkpt lat="50.877675847903795" lon="11.906546766215444"><ele>283.0</ele><time>2026-05-03T14:35:43.962Z</time></trkpt><trkpt lat="50.877725778200315" lon="11.90638401888728"><ele>286.0</ele><time>2026-05-03T14:35:44.962Z</time></trkpt><trkpt lat="50.877777404696154" lon="11.906222168952507"><ele>289.0</ele><time>2026-05-03T14:35:45.962Z</time></trkpt><trkpt lat="50.87782380336401" lon="11.906049694495978"><ele>288.0</ele><time>2026-05-03T14:35:46.962Z</time></trkpt><trkpt lat="50.87787866831677" lon="11.905894826347525"><ele>287.0</ele><time>2026-05-03T14:35:47.962Z</time></trkpt><trkpt lat="50.87793880530254" lon="11.905742877090864"><ele>286.0</ele><time>2026-05-03T14:35:48.962Z</time></trkpt><trkpt lat="50.878000199552226" lon="11.905585692541674"><ele>285.0</ele><time>2026-05-03T14:35:49.962Z</time></trkpt><trkpt lat="50.878063107929755" lon="11.905427076272485"><ele>285.0</ele><time>2026-05-03T14:35:50.962Z</time></trkpt><trkpt lat="50.878144831025345" lon="11.905294524675584"><ele>285.0</ele><time>2026-05-03T14:35:51.962Z</time></trkpt><trkpt lat="50.878207769708254" lon="11.905143699744151"><ele>285.0</ele><time>2026-05-03T14:35:52.962Z</time></trkpt><trkpt lat="50.878269334840944" lon="11.904989612779474"><ele>285.0</ele><time>2026-05-03T14:35:53.962Z</time></trkpt><trkpt lat="50.878324092554784" lon="11.904831995504285"><ele>284.5</ele><time>2026-05-03T14:35:54.962Z</time></trkpt><trkpt lat="50.87837981229679" lon="11.904673854065571"><ele>284.0</ele><time>2026-05-03T14:35:55.962Z</time></trkpt><trkpt lat="50.87843494229954" lon="11.904517174615968"><ele>283.5</ele><time>2026-05-03T14:35:56.962Z</time></trkpt><trkpt lat="50.87849487235318" lon="11.904360627220917"><ele>283.0</ele><time>2026-05-03T14:35:57.962Z</time></trkpt><trkpt lat="50.878558120901324" lon="11.904210044730293"><ele>285.5</ele><time>2026-05-03T14:35:58.962Z</time></trkpt><trkpt lat="50.878627162538024" lon="11.90406843268399"><ele>288.0</ele><time>2026-05-03T14:35:59.962Z</time></trkpt><trkpt lat="50.87869337005264" lon="11.903921837672844"><ele>290.5</ele><time>2026-05-03T14:36:00.962Z</time></trkpt><trkpt lat="50.87876865263185" lon="11.903785929974969"><ele>293.0</ele><time>2026-05-03T14:36:01.962Z</time></trkpt><trkpt lat="50.87884183369323" lon="11.903644488102344"><ele>293.0</ele><time>2026-05-03T14:36:02.962Z</time></trkpt><trkpt lat="50.87891780363739" lon="11.903508317899103"><ele>293.0</ele><time>2026-05-03T14:36:03.962Z</time></trkpt><trkpt lat="50.8789921573225" lon="11.903373169468306"><ele>293.0</ele><time>2026-05-03T14:36:04.962Z</time></trkpt><trkpt lat="50.8790689617162" lon="11.903239553938448"><ele>293.0</ele><time>2026-05-03T14:36:05.962Z</time></trkpt><trkpt lat="50.87914421482611" lon="11.903106046159037"><ele>293.0</ele><time>2026-05-03T14:36:06.962Z</time></trkpt><trkpt lat="50.87921457047921" lon="11.902967126914614"><ele>293.0</ele><time>2026-05-03T14:36:07.962Z</time></trkpt><trkpt lat="50.87928176094252" lon="11.902833517887249"><ele>293.0</ele><time>2026-05-03T14:36:08.962Z</time></trkpt><trkpt lat="50.879344103411725" lon="11.902687267154626"><ele>293.0</ele><time>2026-05-03T14:36:09.962Z</time></trkpt><trkpt lat="50.879399550644905" lon="11.902548323513024"><ele>293.0</ele><time>2026-05-03T14:36:10.962Z</time></trkpt><trkpt lat="50.87946272167285" lon="11.90240809519729"><ele>294.2</ele><time>2026-05-03T14:36:11.962Z</time></trkpt><trkpt lat="50.879535074303504" lon="11.902277770072207"><ele>295.4</ele><time>2026-05-03T14:36:12.962Z</time></trkpt><trkpt lat="50.87960039065009" lon="11.902134679748185"><ele>296.59999999999997</ele><time>2026-05-03T14:36:13.962Z</time></trkpt><trkpt lat="50.879660836404874" lon="11.901983380620072"><ele>297.8</ele><time>2026-05-03T14:36:14.962Z</time></trkpt><trkpt lat="50.87971456834329" lon="11.901849981952314"><ele>299.0</ele><time>2026-05-03T14:36:15.962Z</time></trkpt><trkpt lat="50.879781576807304" lon="11.901702519758901"><ele>299.0</ele><time>2026-05-03T14:36:16.962Z</time></trkpt><trkpt lat="50.8798507912387" lon="11.901531656894713"><ele>299.0</ele><time>2026-05-03T14:36:17.962Z</time></trkpt><trkpt lat="50.87992935617246" lon="11.901399039524321"><ele>299.0</ele><time>2026-05-03T14:36:18.962Z</time></trkpt><trkpt lat="50.8800114381121" lon="11.901260776026392"><ele>299.0</ele><time>2026-05-03T14:36:19.962Z</time></trkpt><trkpt lat="50.880084583123804" lon="11.901115224690285"><ele>301.25</ele><time>2026-05-03T14:36:20.962Z</time></trkpt><trkpt lat="50.88016061777012" lon="11.900970342149838"><ele>303.5</ele><time>2026-05-03T14:36:21.962Z</time></trkpt><trkpt lat="50.880237897468106" lon="11.900830217568675"><ele>305.75</ele><time>2026-05-03T14:36:22.962Z</time></trkpt><trkpt lat="50.880323218604474" lon="11.900699756602439"><ele>308.0</ele><time>2026-05-03T14:36:23.962Z</time></trkpt><trkpt lat="50.88041169363276" lon="11.900569343507485"><ele>308.0</ele><time>2026-05-03T14:36:24.962Z</time></trkpt><trkpt lat="50.88050195497684" lon="11.900437447528793"><ele>308.0</ele><time>2026-05-03T14:36:25.962Z</time></trkpt><trkpt lat="50.88059272666253" lon="11.900313724700805"><ele>308.0</ele><time>2026-05-03T14:36:26.962Z</time></trkpt><trkpt lat="50.880687945149525" lon="11.90020421193408"><ele>308.0</ele><time>2026-05-03T14:36:27.963Z</time></trkpt><trkpt lat="50.88078467302438" lon="11.900099643430002"><ele>306.75</ele><time>2026-05-03T14:36:28.963Z</time></trkpt><trkpt lat="50.88086922677605" lon="11.899991781621152"><ele>305.5</ele><time>2026-05-03T14:36:29.963Z</time></trkpt><trkpt lat="50.880965769995356" lon="11.899872573800362"><ele>304.25</ele><time>2026-05-03T14:36:30.963Z</time></trkpt><trkpt lat="50.88106464413645" lon="11.899754672944054"><ele>303.0</ele><time>2026-05-03T14:36:31.963Z</time></trkpt><trkpt lat="50.88116415439525" lon="11.899634910055104"><ele>305.5</ele><time>2026-05-03T14:36:32.963Z</time></trkpt><trkpt lat="50.88127586561698" lon="11.899523580802846"><ele>308.0</ele><time>2026-05-03T14:36:33.963Z</time></trkpt><trkpt lat="50.88138374976386" lon="11.899384745799876"><ele>310.5</ele><time>2026-05-03T14:36:34.963Z</time></trkpt><trkpt lat="50.88148566184107" lon="11.899261593600771"><ele>313.0</ele><time>2026-05-03T14:36:35.963Z</time></trkpt><trkpt lat="50.88158984668275" lon="11.899169127640832"><ele>313.0</ele><time>2026-05-03T14:36:36.963Z</time></trkpt><trkpt lat="50.88167884841851" lon="11.899063278533713"><ele>313.0</ele><time>2026-05-03T14:36:37.963Z</time></trkpt><trkpt lat="50.881767991752135" lon="11.898980437304635"><ele>313.0</ele><time>2026-05-03T14:36:38.963Z</time></trkpt><trkpt lat="50.88187117309556" lon="11.898918467801938"><ele>313.0</ele><time>2026-05-03T14:36:39.963Z</time></trkpt><trkpt lat="50.88198356797008" lon="11.89889294765613"><ele>313.0</ele><time>2026-05-03T14:36:40.963Z</time></trkpt><trkpt lat="50.882087295658664" lon="11.898883550863552"><ele>313.0</ele><time>2026-05-03T14:36:41.963Z</time></trkpt><trkpt lat="50.882211820576366" lon="11.898880139767265"><ele>313.0</ele><time>2026-05-03T14:36:42.963Z</time></trkpt><trkpt lat="50.88233393806482" lon="11.898857731573756"><ele>313.0</ele><time>2026-05-03T14:36:43.963Z</time></trkpt><trkpt lat="50.882460105728796" lon="11.898845964687498"><ele>313.0</ele><time>2026-05-03T14:36:44.963Z</time></trkpt><trkpt lat="50.88259169142164" lon="11.898811445316463"><ele>314.5</ele><time>2026-05-03T14:36:45.963Z</time></trkpt><trkpt lat="50.8827257758128" lon="11.89879892882866"><ele>316.0</ele><time>2026-05-03T14:36:46.963Z</time></trkpt><trkpt lat="50.882850267719476" lon="11.898743389313644"><ele>317.5</ele><time>2026-05-03T14:36:47.963Z</time></trkpt><trkpt lat="50.882976722125164" lon="11.898692531913996"><ele>319.0</ele><time>2026-05-03T14:36:48.963Z</time></trkpt><trkpt lat="50.88309404755172" lon="11.89861471677388"><ele>319.0</ele><time>2026-05-03T14:36:49.963Z</time></trkpt><trkpt lat="50.88321727354127" lon="11.898544718101093"><ele>319.0</ele><time>2026-05-03T14:36:50.963Z</time></trkpt><trkpt lat="50.88334268542083" lon="11.898491217169907"><ele>319.0</ele><time>2026-05-03T14:36:51.963Z</time></trkpt><trkpt lat="50.88346964515205" lon="11.89842953136558"><ele>319.0</ele><time>2026-05-03T14:36:52.963Z</time></trkpt><trkpt lat="50.88359041526383" lon="11.898349600046155"><ele>317.75</ele><time>2026-05-03T14:36:53.963Z</time></trkpt><trkpt lat="50.883699138244204" lon="11.898278444417842"><ele>316.5</ele><time>2026-05-03T14:36:54.963Z</time></trkpt><trkpt lat="50.88380038943485" lon="11.898213609019807"><ele>315.25</ele><time>2026-05-03T14:36:55.963Z</time></trkpt><trkpt lat="50.88390211765586" lon="11.898155927675443"><ele>314.0</ele><time>2026-05-03T14:36:56.963Z</time></trkpt><trkpt lat="50.88401467813438" lon="11.898110103723226"><ele>314.0</ele><time>2026-05-03T14:36:57.963Z</time></trkpt><trkpt lat="50.88413242251574" lon="11.898077830057908"><ele>314.0</ele><time>2026-05-03T14:36:58.963Z</time></trkpt><trkpt lat="50.88425338991016" lon="11.898066875367702"><ele>314.0</ele><time>2026-05-03T14:36:59.963Z</time></trkpt><trkpt lat="50.88437598723233" lon="11.898065806528294"><ele>314.0</ele><time>2026-05-03T14:37:00.963Z</time></trkpt><trkpt lat="50.88450043152235" lon="11.898047603875344"><ele>312.25</ele><time>2026-05-03T14:37:01.963Z</time></trkpt><trkpt lat="50.88461935344105" lon="11.898028844957334"><ele>310.5</ele><time>2026-05-03T14:37:02.963Z</time></trkpt><trkpt lat="50.88473248831324" lon="11.898046574941189"><ele>308.75</ele><time>2026-05-03T14:37:03.963Z</time></trkpt><trkpt lat="50.88484263285239" lon="11.898091782732383"><ele>307.0</ele><time>2026-05-03T14:37:04.963Z</time></trkpt><trkpt lat="50.884949825879005" lon="11.898167189657439"><ele>307.0</ele><time>2026-05-03T14:37:05.963Z</time></trkpt><trkpt lat="50.885052466746856" lon="11.89826593486428"><ele>307.0</ele><time>2026-05-03T14:37:06.963Z</time></trkpt><trkpt lat="50.88514450733867" lon="11.898390526446915"><ele>307.0</ele><time>2026-05-03T14:37:07.963Z</time></trkpt><trkpt lat="50.88522257731778" lon="11.898541698108907"><ele>307.0</ele><time>2026-05-03T14:37:08.963Z</time></trkpt><trkpt lat="50.885287231783465" lon="11.898700449157019"><ele>307.75</ele><time>2026-05-03T14:37:09.963Z</time></trkpt><trkpt lat="50.88534725348322" lon="11.898863954774193"><ele>308.5</ele><time>2026-05-03T14:37:10.963Z</time></trkpt><trkpt lat="50.88541326633698" lon="11.899021795569764"><ele>309.25</ele><time>2026-05-03T14:37:11.963Z</time></trkpt><trkpt lat="50.88547921170713" lon="11.899167591526883"><ele>310.0</ele><time>2026-05-03T14:37:12.963Z</time></trkpt><trkpt lat="50.88557248620802" lon="11.899283508310189"><ele>310.5</ele><time>2026-05-03T14:37:13.963Z</time></trkpt><trkpt lat="50.88567006287522" lon="11.899363878656883"><ele>311.0</ele><time>2026-05-03T14:37:14.963Z</time></trkpt><trkpt lat="50.88578141030588" lon="11.899417973206777"><ele>311.5</ele><time>2026-05-03T14:37:15.963Z</time></trkpt><trkpt lat="50.885897558037456" lon="11.89945986219868"><ele>312.0</ele><time>2026-05-03T14:37:16.963Z</time></trkpt><trkpt lat="50.88600759762869" lon="11.899512332947682"><ele>312.5</ele><time>2026-05-03T14:37:17.963Z</time></trkpt><trkpt lat="50.88612434423189" lon="11.899563912914182"><ele>313.0</ele><time>2026-05-03T14:37:18.963Z</time></trkpt><trkpt lat="50.88624052937488" lon="11.899609903932987"><ele>313.5</ele><time>2026-05-03T14:37:19.963Z</time></trkpt><trkpt lat="50.88636082661785" lon="11.899628716189214"><ele>314.0</ele><time>2026-05-03T14:37:20.963Z</time></trkpt><trkpt lat="50.88648397875148" lon="11.89963446034247"><ele>314.0</ele><time>2026-05-03T14:37:21.963Z</time></trkpt><trkpt lat="50.88660474613914" lon="11.899623883914623"><ele>314.0</ele><time>2026-05-03T14:37:22.963Z</time></trkpt><trkpt lat="50.886721983472476" lon="11.899604348165903"><ele>314.0</ele><time>2026-05-03T14:37:23.963Z</time></trkpt><trkpt lat="50.88682894533723" lon="11.899581494944776"><ele>314.0</ele><time>2026-05-03T14:37:24.963Z</time></trkpt><trkpt lat="50.88693915929032" lon="11.899554803244378"><ele>314.59999999999997</ele><time>2026-05-03T14:37:25.963Z</time></trkpt><trkpt lat="50.887039909059474" lon="11.899529100228195"><ele>315.2</ele><time>2026-05-03T14:37:26.963Z</time></trkpt><trkpt lat="50.88713620770395" lon="11.899497626095775"><ele>315.79999999999995</ele><time>2026-05-03T14:37:27.963Z</time></trkpt><trkpt lat="50.88722893659731" lon="11.899450570657475"><ele>316.4</ele><time>2026-05-03T14:37:28.963Z</time></trkpt><trkpt lat="50.88731506496117" lon="11.899375418304068"><ele>317.0</ele><time>2026-05-03T14:37:29.963Z</time></trkpt><trkpt lat="50.887408622743635" lon="11.899285700770536"><ele>317.2</ele><time>2026-05-03T14:37:30.963Z</time></trkpt><trkpt lat="50.887466863520636" lon="11.899138173459658"><ele>317.4</ele><time>2026-05-03T14:37:31.962Z</time></trkpt><trkpt lat="50.887523992818515" lon="11.899003859532918"><ele>317.6</ele><time>2026-05-03T14:37:32.962Z</time></trkpt><trkpt lat="50.887573061539776" lon="11.898861062946173"><ele>317.8</ele><time>2026-05-03T14:37:33.962Z</time></trkpt><trkpt lat="50.88761217213967" lon="11.8987123970232"><ele>318.0</ele><time>2026-05-03T14:37:34.962Z</time></trkpt><trkpt lat="50.88764566193789" lon="11.898568097421638"><ele>318.0</ele><time>2026-05-03T14:37:35.962Z</time></trkpt><trkpt lat="50.88766953755624" lon="11.898420253132361"><ele>318.0</ele><time>2026-05-03T14:37:36.962Z</time></trkpt><trkpt lat="50.88767630263779" lon="11.89826710361544"><ele>318.0</ele><time>2026-05-03T14:37:37.962Z</time></trkpt><trkpt lat="50.88766787397756" lon="11.89811253855926"><ele>318.0</ele><time>2026-05-03T14:37:38.962Z</time></trkpt><trkpt lat="50.88765857113745" lon="11.897968160910555"><ele>318.0</ele><time>2026-05-03T14:37:39.962Z</time></trkpt><trkpt lat="50.887647833294565" lon="11.897819854616822"><ele>318.4</ele><time>2026-05-03T14:37:40.962Z</time></trkpt><trkpt lat="50.88763587962271" lon="11.897681517854513"><ele>318.8</ele><time>2026-05-03T14:37:41.961Z</time></trkpt><trkpt lat="50.88762676349665" lon="11.897542638814762"><ele>319.2</ele><time>2026-05-03T14:37:42.961Z</time></trkpt><trkpt lat="50.88761914793405" lon="11.897393006722272"><ele>319.6</ele><time>2026-05-03T14:37:43.962Z</time></trkpt><trkpt lat="50.88761383600989" lon="11.897242433776665"><ele>320.0</ele><time>2026-05-03T14:37:44.962Z</time></trkpt><trkpt lat="50.887613674617754" lon="11.897089852505944"><ele>321.0</ele><time>2026-05-03T14:37:45.962Z</time></trkpt><trkpt lat="50.887630200336" lon="11.896929841601947"><ele>322.0</ele><time>2026-05-03T14:37:46.962Z</time></trkpt><trkpt lat="50.88766044876603" lon="11.896766215138674"><ele>323.0</ele><time>2026-05-03T14:37:47.962Z</time></trkpt><trkpt lat="50.88772004720799" lon="11.896629616207946"><ele>324.0</ele><time>2026-05-03T14:37:48.962Z</time></trkpt><trkpt lat="50.88775183188467" lon="11.896482956195754"><ele>325.0</ele><time>2026-05-03T14:37:49.962Z</time></trkpt><trkpt lat="50.88780764703851" lon="11.896351424543885"><ele>325.0</ele><time>2026-05-03T14:37:50.962Z</time></trkpt><trkpt lat="50.88784677523677" lon="11.896210525729336"><ele>325.0</ele><time>2026-05-03T14:37:51.962Z</time></trkpt><trkpt lat="50.88786399639997" lon="11.896059230820102"><ele>325.0</ele><time>2026-05-03T14:37:52.962Z</time></trkpt><trkpt lat="50.88787358884488" lon="11.895912143826717"><ele>325.0</ele><time>2026-05-03T14:37:53.962Z</time></trkpt><trkpt lat="50.88787612603099" lon="11.895757923503385"><ele>325.0</ele><time>2026-05-03T14:37:54.962Z</time></trkpt><trkpt lat="50.88787888369425" lon="11.8956055309117"><ele>324.8</ele><time>2026-05-03T14:37:55.962Z</time></trkpt><trkpt lat="50.88788855927928" lon="11.895453957922923"><ele>324.6</ele><time>2026-05-03T14:37:56.962Z</time></trkpt><trkpt lat="50.8879010664334" lon="11.895303880684114"><ele>324.4</ele><time>2026-05-03T14:37:57.962Z</time></trkpt><trkpt lat="50.88791666657562" lon="11.895154539513733"><ele>324.2</ele><time>2026-05-03T14:37:58.962Z</time></trkpt><trkpt lat="50.88794567765593" lon="11.895005257075349"><ele>324.0</ele><time>2026-05-03T14:37:59.962Z</time></trkpt><trkpt lat="50.88796822484852" lon="11.894857285938098"><ele>324.4</ele><time>2026-05-03T14:38:00.962Z</time></trkpt><trkpt lat="50.88792186960187" lon="11.894691174024405"><ele>324.79999999999995</ele><time>2026-05-03T14:38:01.962Z</time></trkpt><trkpt lat="50.887883864445854" lon="11.89452978741545"><ele>325.20000000000005</ele><time>2026-05-03T14:38:02.962Z</time></trkpt><trkpt lat="50.887840196359654" lon="11.89437732874903"><ele>325.6</ele><time>2026-05-03T14:38:03.962Z</time></trkpt><trkpt lat="50.887795864602495" lon="11.894222641749058"><ele>326.0</ele><time>2026-05-03T14:38:04.962Z</time></trkpt><trkpt lat="50.88775226064423" lon="11.89407539177206"><ele>326.6</ele><time>2026-05-03T14:38:05.962Z</time></trkpt><trkpt lat="50.88770737892159" lon="11.89391587312737"><ele>327.20000000000005</ele><time>2026-05-03T14:38:06.962Z</time></trkpt><trkpt lat="50.887666064763415" lon="11.893752113693356"><ele>327.79999999999995</ele><time>2026-05-03T14:38:07.962Z</time></trkpt><trkpt lat="50.887615755213034" lon="11.893606329546246"><ele>328.4</ele><time>2026-05-03T14:38:08.962Z</time></trkpt><trkpt lat="50.887565671570066" lon="11.893454915574138"><ele>329.0</ele><time>2026-05-03T14:38:09.962Z</time></trkpt><trkpt lat="50.887525326687566" lon="11.893296237211318"><ele>329.5</ele><time>2026-05-03T14:38:10.962Z</time></trkpt><trkpt lat="50.88749442600389" lon="11.893121103306942"><ele>330.0</ele><time>2026-05-03T14:38:11.962Z</time></trkpt><trkpt lat="50.887465289281195" lon="11.892943638908763"><ele>330.5</ele><time>2026-05-03T14:38:12.962Z</time></trkpt><trkpt lat="50.88743097591754" lon="11.892769573582035"><ele>331.0</ele><time>2026-05-03T14:38:13.962Z</time></trkpt><trkpt lat="50.88737978323114" lon="11.892600077431831"><ele>331.0</ele><time>2026-05-03T14:38:14.962Z</time></trkpt><trkpt lat="50.887315910714136" lon="11.89243724891218"><ele>331.0</ele><time>2026-05-03T14:38:15.962Z</time></trkpt><trkpt lat="50.887243934961205" lon="11.892284662481327"><ele>331.0</ele><time>2026-05-03T14:38:16.962Z</time></trkpt><trkpt lat="50.88716915803342" lon="11.892128543877957"><ele>331.0</ele><time>2026-05-03T14:38:17.962Z</time></trkpt><trkpt lat="50.88709953271745" lon="11.89198385738712"><ele>331.0</ele><time>2026-05-03T14:38:18.962Z</time></trkpt><trkpt lat="50.88703641591505" lon="11.89183342783519"><ele>331.0</ele><time>2026-05-03T14:38:19.962Z</time></trkpt><trkpt lat="50.88697489942098" lon="11.891668236148089"><ele>331.0</ele><time>2026-05-03T14:38:20.962Z</time></trkpt><trkpt lat="50.88692188645143" lon="11.891489353734748"><ele>331.0</ele><time>2026-05-03T14:38:21.962Z</time></trkpt><trkpt lat="50.886873111424606" lon="11.891309952191284"><ele>331.25</ele><time>2026-05-03T14:38:22.962Z</time></trkpt><trkpt lat="50.88682391628825" lon="11.89113534540674"><ele>331.5</ele><time>2026-05-03T14:38:23.962Z</time></trkpt><trkpt lat="50.886770595755316" lon="11.890957630238105"><ele>331.75</ele><time>2026-05-03T14:38:24.962Z</time></trkpt><trkpt lat="50.88672462274712" lon="11.890775263353978"><ele>332.0</ele><time>2026-05-03T14:38:25.962Z</time></trkpt><trkpt lat="50.886689306317464" lon="11.89058316445889"><ele>332.75</ele><time>2026-05-03T14:38:26.962Z</time></trkpt><trkpt lat="50.886653198750146" lon="11.89038879035032"><ele>333.5</ele><time>2026-05-03T14:38:27.962Z</time></trkpt><trkpt lat="50.88661706256166" lon="11.89019535060023"><ele>334.25</ele><time>2026-05-03T14:38:28.962Z</time></trkpt><trkpt lat="50.88658074164681" lon="11.890002771801973"><ele>335.0</ele><time>2026-05-03T14:38:29.962Z</time></trkpt><trkpt lat="50.88654332432346" lon="11.889810907517974"><ele>335.25</ele><time>2026-05-03T14:38:30.962Z</time></trkpt><trkpt lat="50.88650472891289" lon="11.88961434545079"><ele>335.5</ele><time>2026-05-03T14:38:31.962Z</time></trkpt><trkpt lat="50.886471084814865" lon="11.889417500281711"><ele>335.75</ele><time>2026-05-03T14:38:32.962Z</time></trkpt><trkpt lat="50.88643033258291" lon="11.889215037889068"><ele>336.0</ele><time>2026-05-03T14:38:33.962Z</time></trkpt><trkpt lat="50.886389614007655" lon="11.889002051563237"><ele>336.0</ele><time>2026-05-03T14:38:34.962Z</time></trkpt><trkpt lat="50.886347866317266" lon="11.888786642416154"><ele>336.0</ele><time>2026-05-03T14:38:35.962Z</time></trkpt><trkpt lat="50.886302683627584" lon="11.888565598754981"><ele>336.0</ele><time>2026-05-03T14:38:36.962Z</time></trkpt><trkpt lat="50.88625343440305" lon="11.888331768066857"><ele>336.0</ele><time>2026-05-03T14:38:37.962Z</time></trkpt><trkpt lat="50.886206072169884" lon="11.888080189586942"><ele>336.6666666666667</ele><time>2026-05-03T14:38:38.962Z</time></trkpt><trkpt lat="50.886155629012784" lon="11.88782099561049"><ele>337.33333333333337</ele><time>2026-05-03T14:38:39.962Z</time></trkpt><trkpt lat="50.88610560365026" lon="11.88756178616752"><ele>338.0</ele><time>2026-05-03T14:38:40.962Z</time></trkpt><trkpt lat="50.88606257373425" lon="11.887306396270567"><ele>338.33333333333337</ele><time>2026-05-03T14:38:41.962Z</time></trkpt><trkpt lat="50.88604465224273" lon="11.887032582854026"><ele>338.6666666666667</ele><time>2026-05-03T14:38:42.962Z</time></trkpt><trkpt lat="50.88603387326265" lon="11.886774585905334"><ele>339.0</ele><time>2026-05-03T14:38:43.962Z</time></trkpt><trkpt lat="50.88603704639625" lon="11.886509791712292"><ele>339.3333333333333</ele><time>2026-05-03T14:38:44.962Z</time></trkpt><trkpt lat="50.88604033660239" lon="11.88625253335306"><ele>339.66666666666663</ele><time>2026-05-03T14:38:45.962Z</time></trkpt><trkpt lat="50.88609479140664" lon="11.88600359048249"><ele>340.0</ele><time>2026-05-03T14:38:46.962Z</time></trkpt><trkpt lat="50.88612863256211" lon="11.885744589955204"><ele>340.66666666666663</ele><time>2026-05-03T14:38:47.962Z</time></trkpt><trkpt lat="50.88620319583172" lon="11.885517930497992"><ele>341.3333333333333</ele><time>2026-05-03T14:38:48.962Z</time></trkpt><trkpt lat="50.88625594677531" lon="11.885283323138621"><ele>342.0</ele><time>2026-05-03T14:38:49.962Z</time></trkpt><trkpt lat="50.8863279206921" lon="11.885067553553203"><ele>343.0</ele><time>2026-05-03T14:38:50.962Z</time></trkpt><trkpt lat="50.88639710913736" lon="11.884849108721745"><ele>344.0</ele><time>2026-05-03T14:38:51.962Z</time></trkpt><trkpt lat="50.886461570334426" lon="11.884628898782406"><ele>345.0</ele><time>2026-05-03T14:38:52.962Z</time></trkpt><trkpt lat="50.88652657228479" lon="11.884413834871186"><ele>346.0</ele><time>2026-05-03T14:38:53.962Z</time></trkpt><trkpt lat="50.88659347521839" lon="11.884204533531815"><ele>347.0</ele><time>2026-05-03T14:38:54.962Z</time></trkpt><trkpt lat="50.886656350146204" lon="11.884005058314518"><ele>348.0</ele><time>2026-05-03T14:38:55.962Z</time></trkpt><trkpt lat="50.886718041657204" lon="11.883800969060566"><ele>349.0</ele><time>2026-05-03T14:38:56.962Z</time></trkpt><trkpt lat="50.88677890041588" lon="11.883594165270068"><ele>349.25</ele><time>2026-05-03T14:38:57.962Z</time></trkpt><trkpt lat="50.886854970136184" lon="11.883395583934389"><ele>349.5</ele><time>2026-05-03T14:38:58.962Z</time></trkpt><trkpt lat="50.886918320295" lon="11.8831903035277"><ele>349.75</ele><time>2026-05-03T14:38:59.962Z</time></trkpt><trkpt lat="50.88698256878323" lon="11.882981266897835"><ele>350.0</ele><time>2026-05-03T14:39:00.962Z</time></trkpt><trkpt lat="50.88705009266651" lon="11.882762440491625"><ele>350.33333333333337</ele><time>2026-05-03T14:39:01.962Z</time></trkpt><trkpt lat="50.88711805595596" lon="11.882540599723624"><ele>350.6666666666667</ele><time>2026-05-03T14:39:02.962Z</time></trkpt><trkpt lat="50.88717916035146" lon="11.88229640360413"><ele>351.0</ele><time>2026-05-03T14:39:03.962Z</time></trkpt><trkpt lat="50.8872558454345" lon="11.882054225377441"><ele>351.0</ele><time>2026-05-03T14:39:04.962Z</time></trkpt><trkpt lat="50.88733454429403" lon="11.881808561937058"><ele>351.0</ele><time>2026-05-03T14:39:05.962Z</time></trkpt><trkpt lat="50.88741926332988" lon="11.881558199332785"><ele>351.0</ele><time>2026-05-03T14:39:06.962Z</time></trkpt><trkpt lat="50.88752606679625" lon="11.88133060899806"><ele>350.6666666666667</ele><time>2026-05-03T14:39:07.962Z</time></trkpt><trkpt lat="50.887619210519674" lon="11.881102856204627"><ele>350.33333333333337</ele><time>2026-05-03T14:39:08.962Z</time></trkpt><trkpt lat="50.88771655364458" lon="11.880899591365566"><ele>350.0</ele><time>2026-05-03T14:39:09.962Z</time></trkpt><trkpt lat="50.88779105766321" lon="11.88070991071682"><ele>350.4</ele><time>2026-05-03T14:39:10.962Z</time></trkpt><trkpt lat="50.88786744609837" lon="11.880557414721375"><ele>350.8</ele><time>2026-05-03T14:39:11.962Z</time></trkpt><trkpt lat="50.887931956129826" lon="11.88041908179332"><ele>351.20000000000005</ele><time>2026-05-03T14:39:12.962Z</time></trkpt><trkpt lat="50.8879863829992" lon="11.880294129842543"><ele>351.6</ele><time>2026-05-03T14:39:13.962Z</time></trkpt><trkpt lat="50.88802816341774" lon="11.880191958417212"><ele>352.0</ele><time>2026-05-03T14:39:14.962Z</time></trkpt><trkpt lat="50.888065167026156" lon="11.880107897762189"><ele>352.16666666666663</ele><time>2026-05-03T14:39:15.962Z</time></trkpt><trkpt lat="50.88810876263476" lon="11.880033543147722"><ele>352.3333333333333</ele><time>2026-05-03T14:39:16.962Z</time></trkpt><trkpt lat="50.88822490902022" lon="11.879946523916363"><ele>352.5</ele><time>2026-05-03T14:39:18.962Z</time></trkpt><trkpt lat="50.88830303697623" lon="11.87991631583396"><ele>352.6666666666667</ele><time>2026-05-03T14:39:19.962Z</time></trkpt><trkpt lat="50.8883597508422" lon="11.879838110839758"><ele>352.83333333333337</ele><time>2026-05-03T14:39:20.962Z</time></trkpt><trkpt lat="50.8883830652414" lon="11.879718243821287"><ele>353.0</ele><time>2026-05-03T14:39:21.962Z</time></trkpt><trkpt lat="50.888367267264" lon="11.879596855713098"><ele>353.0</ele><time>2026-05-03T14:39:22.962Z</time></trkpt><trkpt lat="50.888318437613165" lon="11.879499871167395"><ele>353.0</ele><time>2026-05-03T14:39:23.962Z</time></trkpt><trkpt lat="50.88824263289155" lon="11.87944141346487"><ele>353.0</ele><time>2026-05-03T14:39:24.962Z</time></trkpt><trkpt lat="50.88815570527699" lon="11.879430724608351"><ele>353.0</ele><time>2026-05-03T14:39:25.962Z</time></trkpt><trkpt lat="50.88807290398031" lon="11.879463614875329"><ele>353.0</ele><time>2026-05-03T14:39:26.962Z</time></trkpt><trkpt lat="50.887988184373405" lon="11.879286691038761"><ele>352.25</ele><time>2026-05-03T14:39:27.962Z</time></trkpt><trkpt lat="50.887898067624086" lon="11.879155372333816"><ele>351.5</ele><time>2026-05-03T14:39:28.962Z</time></trkpt><trkpt lat="50.887802989756814" lon="11.879017340529199"><ele>350.75</ele><time>2026-05-03T14:39:29.962Z</time></trkpt><trkpt lat="50.88770807612359" lon="11.878860065645757"><ele>350.0</ele><time>2026-05-03T14:39:30.962Z</time></trkpt><trkpt lat="50.88760411072489" lon="11.878680957852996"><ele>350.0</ele><time>2026-05-03T14:39:31.962Z</time></trkpt><trkpt lat="50.88746840916772" lon="11.878506475770319"><ele>350.0</ele><time>2026-05-03T14:39:32.962Z</time></trkpt><trkpt lat="50.88731056103673" lon="11.87832849107975"><ele>350.0</ele><time>2026-05-03T14:39:33.962Z</time></trkpt><trkpt lat="50.88713750732311" lon="11.878139646205682"><ele>350.6666666666667</ele><time>2026-05-03T14:39:34.962Z</time></trkpt><trkpt lat="50.88695777079811" lon="11.877957393193702"><ele>351.3333333333333</ele><time>2026-05-03T14:39:35.962Z</time></trkpt><trkpt lat="50.886773040342234" lon="11.877781389711638"><ele>352.0</ele><time>2026-05-03T14:39:36.962Z</time></trkpt><trkpt lat="50.88657358538079" lon="11.877617556099613"><ele>352.0</ele><time>2026-05-03T14:39:37.961Z</time></trkpt><trkpt lat="50.88635668318995" lon="11.877455865075577"><ele>352.0</ele><time>2026-05-03T14:39:38.961Z</time></trkpt><trkpt lat="50.88613354548906" lon="11.87730660076939"><ele>352.0</ele><time>2026-05-03T14:39:39.961Z</time></trkpt><trkpt lat="50.885912230345085" lon="11.877162676993803"><ele>352.0</ele><time>2026-05-03T14:39:40.961Z</time></trkpt><trkpt lat="50.88568709788751" lon="11.877008144121973"><ele>352.0</ele><time>2026-05-03T14:39:41.961Z</time></trkpt><trkpt lat="50.88545545514391" lon="11.87684907680975"><ele>352.0</ele><time>2026-05-03T14:39:42.961Z</time></trkpt><trkpt lat="50.88521959235993" lon="11.87668303139407"><ele>352.0</ele><time>2026-05-03T14:39:43.961Z</time></trkpt><trkpt lat="50.884977799944565" lon="11.876511248662766"><ele>352.0</ele><time>2026-05-03T14:39:44.961Z</time></trkpt><trkpt lat="50.88473670170422" lon="11.87634630899762"><ele>352.0</ele><time>2026-05-03T14:39:45.961Z</time></trkpt><trkpt lat="50.88450812481047" lon="11.876184905435347"><ele>352.0</ele><time>2026-05-03T14:39:46.961Z</time></trkpt><trkpt lat="50.88430079543159" lon="11.876028199144981"><ele>353.0</ele><time>2026-05-03T14:39:47.961Z</time></trkpt><trkpt lat="50.884108025622425" lon="11.87586981343702"><ele>354.0</ele><time>2026-05-03T14:39:48.961Z</time></trkpt><trkpt lat="50.883914698874534" lon="11.875695899871443"><ele>355.0</ele><time>2026-05-03T14:39:49.961Z</time></trkpt><trkpt lat="50.88372961286585" lon="11.875494519642203"><ele>355.0</ele><time>2026-05-03T14:39:50.961Z</time></trkpt><trkpt lat="50.88355125082756" lon="11.875279099235511"><ele>355.0</ele><time>2026-05-03T14:39:51.961Z</time></trkpt><trkpt lat="50.88337391635062" lon="11.875049341425793"><ele>354.0</ele><time>2026-05-03T14:39:52.961Z</time></trkpt><trkpt lat="50.88320038841859" lon="11.874808091134943"><ele>353.0</ele><time>2026-05-03T14:39:53.961Z</time></trkpt><trkpt lat="50.88303418878694" lon="11.874551302388069"><ele>353.0</ele><time>2026-05-03T14:39:54.961Z</time></trkpt><trkpt lat="50.882879402859835" lon="11.874278709926294"><ele>353.0</ele><time>2026-05-03T14:39:55.961Z</time></trkpt><trkpt lat="50.88273119301705" lon="11.873989377965573"><ele>352.5</ele><time>2026-05-03T14:39:56.961Z</time></trkpt><trkpt lat="50.88258393298237" lon="11.873700682438665"><ele>352.0</ele><time>2026-05-03T14:39:57.961Z</time></trkpt><trkpt lat="50.88243415981041" lon="11.873410851167867"><ele>352.0</ele><time>2026-05-03T14:39:58.961Z</time></trkpt><trkpt lat="50.88228046149657" lon="11.873118383708762"><ele>352.0</ele><time>2026-05-03T14:39:59.961Z</time></trkpt><trkpt lat="50.88212956551096" lon="11.872836220625913"><ele>351.66666666666663</ele><time>2026-05-03T14:40:00.961Z</time></trkpt><trkpt lat="50.88198489756554" lon="11.872560178766474"><ele>351.3333333333333</ele><time>2026-05-03T14:40:01.961Z</time></trkpt><trkpt lat="50.88184472852236" lon="11.872286773957612"><ele>351.0</ele><time>2026-05-03T14:40:02.961Z</time></trkpt><trkpt lat="50.8817060165589" lon="11.8720222082181"><ele>350.6666666666667</ele><time>2026-05-03T14:40:03.961Z</time></trkpt><trkpt lat="50.88156664499635" lon="11.871763875493619"><ele>350.33333333333337</ele><time>2026-05-03T14:40:04.961Z</time></trkpt><trkpt lat="50.88142816977115" lon="11.871507764910232"><ele>350.0</ele><time>2026-05-03T14:40:05.961Z</time></trkpt><trkpt lat="50.88129222063737" lon="11.871253389670061"><ele>350.0</ele><time>2026-05-03T14:40:06.961Z</time></trkpt><trkpt lat="50.88116097433095" lon="11.870992846932543"><ele>350.0</ele><time>2026-05-03T14:40:07.961Z</time></trkpt><trkpt lat="50.88102845701426" lon="11.870741374442014"><ele>350.0</ele><time>2026-05-03T14:40:08.961Z</time></trkpt><trkpt lat="50.880895120416696" lon="11.870488298985958"><ele>349.6666666666667</ele><time>2026-05-03T14:40:09.961Z</time></trkpt><trkpt lat="50.88075869811452" lon="11.870245454374714"><ele>349.3333333333333</ele><time>2026-05-03T14:40:10.961Z</time></trkpt><trkpt lat="50.88062586022354" lon="11.870005649565785"><ele>349.0</ele><time>2026-05-03T14:40:11.961Z</time></trkpt><trkpt lat="50.88050342639799" lon="11.869766932309181"><ele>349.0</ele><time>2026-05-03T14:40:12.961Z</time></trkpt><trkpt lat="50.88038916326986" lon="11.869504380193497"><ele>349.0</ele><time>2026-05-03T14:40:13.961Z</time></trkpt><trkpt lat="50.88028729690067" lon="11.869211710362597"><ele>349.0</ele><time>2026-05-03T14:40:14.961Z</time></trkpt><trkpt lat="50.88019723501244" lon="11.868903971800972"><ele>349.0</ele><time>2026-05-03T14:40:15.961Z</time></trkpt><trkpt lat="50.88012199202537" lon="11.868583184099485"><ele>349.0</ele><time>2026-05-03T14:40:16.961Z</time></trkpt><trkpt lat="50.880065102070105" lon="11.868240571687542"><ele>349.0</ele><time>2026-05-03T14:40:17.961Z</time></trkpt><trkpt lat="50.88002459950085" lon="11.867885046902636"><ele>348.5</ele><time>2026-05-03T14:40:18.961Z</time></trkpt><trkpt lat="50.879997121776086" lon="11.867527033889212"><ele>348.0</ele><time>2026-05-03T14:40:19.961Z</time></trkpt><trkpt lat="50.879985750030286" lon="11.86717522890787"><ele>348.0</ele><time>2026-05-03T14:40:20.961Z</time></trkpt><trkpt lat="50.87999448986709" lon="11.866830653909464"><ele>348.0</ele><time>2026-05-03T14:40:21.961Z</time></trkpt><trkpt lat="50.87995885526391" lon="11.866496613918482"><ele>348.0</ele><time>2026-05-03T14:40:22.961Z</time></trkpt><trkpt lat="50.88005686218649" lon="11.86614123116888"><ele>347.6666666666667</ele><time>2026-05-03T14:40:23.961Z</time></trkpt><trkpt lat="50.88012961686481" lon="11.865811178000445"><ele>347.33333333333337</ele><time>2026-05-03T14:40:24.961Z</time></trkpt><trkpt lat="50.88021389477651" lon="11.865486740841277"><ele>347.0</ele><time>2026-05-03T14:40:25.961Z</time></trkpt><trkpt lat="50.88031555295758" lon="11.865178487122854"><ele>347.6666666666667</ele><time>2026-05-03T14:40:26.961Z</time></trkpt><trkpt lat="50.88043113541884" lon="11.864879063156597"><ele>348.3333333333333</ele><time>2026-05-03T14:40:27.961Z</time></trkpt><trkpt lat="50.8805518955706" lon="11.864578671052426"><ele>349.0</ele><time>2026-05-03T14:40:28.961Z</time></trkpt><trkpt lat="50.88067237226604" lon="11.864290361016696"><ele>350.0</ele><time>2026-05-03T14:40:29.961Z</time></trkpt><trkpt lat="50.88079745674186" lon="11.864016656778693"><ele>351.0</ele><time>2026-05-03T14:40:30.961Z</time></trkpt><trkpt lat="50.88091217267175" lon="11.863773412281086"><ele>352.0</ele><time>2026-05-03T14:40:31.961Z</time></trkpt><trkpt lat="50.88102483196082" lon="11.863542091309116"><ele>350.0</ele><time>2026-05-03T14:40:32.961Z</time></trkpt><trkpt lat="50.881139740526386" lon="11.863329054971924"><ele>348.0</ele><time>2026-05-03T14:40:33.961Z</time></trkpt><trkpt lat="50.881262502196336" lon="11.863117785924855"><ele>346.0</ele><time>2026-05-03T14:40:34.961Z</time></trkpt><trkpt lat="50.88138957624878" lon="11.862910558782918"><ele>346.0</ele><time>2026-05-03T14:40:35.961Z</time></trkpt><trkpt lat="50.88151765684172" lon="11.86271920939194"><ele>346.0</ele><time>2026-05-03T14:40:36.961Z</time></trkpt><trkpt lat="50.88164977885043" lon="11.862523335360132"><ele>346.0</ele><time>2026-05-03T14:40:37.961Z</time></trkpt><trkpt lat="50.881786039990416" lon="11.862331943690812"><ele>345.3333333333333</ele><time>2026-05-03T14:40:38.961Z</time></trkpt><trkpt lat="50.881934846687834" lon="11.86217136536936"><ele>344.6666666666667</ele><time>2026-05-03T14:40:39.961Z</time></trkpt><trkpt lat="50.88210159192408" lon="11.862022653088749"><ele>344.0</ele><time>2026-05-03T14:40:40.961Z</time></trkpt><trkpt lat="50.882258485937776" lon="11.861891309235743"><ele>344.0</ele><time>2026-05-03T14:40:41.961Z</time></trkpt><trkpt lat="50.88240479654284" lon="11.861774362234836"><ele>344.0</ele><time>2026-05-03T14:40:42.961Z</time></trkpt><trkpt lat="50.88254589794647" lon="11.861659520398426"><ele>344.0</ele><time>2026-05-03T14:40:43.961Z</time></trkpt><trkpt lat="50.88268478242392" lon="11.861543282381463"><ele>343.0</ele><time>2026-05-03T14:40:44.961Z</time></trkpt><trkpt lat="50.882824504084915" lon="11.861424850593107"><ele>342.0</ele><time>2026-05-03T14:40:45.961Z</time></trkpt><trkpt lat="50.88296388429591" lon="11.861307213715396"><ele>341.0</ele><time>2026-05-03T14:40:46.961Z</time></trkpt><trkpt lat="50.88309263746396" lon="11.861197184295378"><ele>341.0</ele><time>2026-05-03T14:40:47.961Z</time></trkpt><trkpt lat="50.8832310120225" lon="11.861076386572712"><ele>341.0</ele><time>2026-05-03T14:40:48.961Z</time></trkpt><trkpt lat="50.883361659344494" lon="11.86094532971257"><ele>341.0</ele><time>2026-05-03T14:40:49.961Z</time></trkpt><trkpt lat="50.88348417650746" lon="11.86079146145179"><ele>340.0</ele><time>2026-05-03T14:40:50.961Z</time></trkpt><trkpt lat="50.883597647123516" lon="11.860625850560067"><ele>339.0</ele><time>2026-05-03T14:40:51.961Z</time></trkpt><trkpt lat="50.88370001046743" lon="11.8604492169195"><ele>338.0</ele><time>2026-05-03T14:40:52.961Z</time></trkpt><trkpt lat="50.88379392412971" lon="11.860252091607382"><ele>337.6666666666667</ele><time>2026-05-03T14:40:53.961Z</time></trkpt><trkpt lat="50.88388518149488" lon="11.860032949911156"><ele>337.3333333333333</ele><time>2026-05-03T14:40:54.961Z</time></trkpt><trkpt lat="50.883962829737" lon="11.859788061319485"><ele>337.0</ele><time>2026-05-03T14:40:55.961Z</time></trkpt><trkpt lat="50.88403027540241" lon="11.85951604095591"><ele>337.0</ele><time>2026-05-03T14:40:56.961Z</time></trkpt><trkpt lat="50.884093435249994" lon="11.85923625854007"><ele>337.0</ele><time>2026-05-03T14:40:57.961Z</time></trkpt><trkpt lat="50.884161210448596" lon="11.858956462758174"><ele>337.0</ele><time>2026-05-03T14:40:58.961Z</time></trkpt><trkpt lat="50.88423499006131" lon="11.858674614450065"><ele>336.66666666666663</ele><time>2026-05-03T14:40:59.961Z</time></trkpt><trkpt lat="50.884309920223934" lon="11.858393332227102"><ele>336.3333333333333</ele><time>2026-05-03T14:41:00.961Z</time></trkpt><trkpt lat="50.88438758356783" lon="11.858120006528445"><ele>336.0</ele><time>2026-05-03T14:41:01.961Z</time></trkpt><trkpt lat="50.884469010091095" lon="11.85786310194619"><ele>336.0</ele><time>2026-05-03T14:41:02.961Z</time></trkpt><trkpt lat="50.88455573233119" lon="11.857611020067386"><ele>336.0</ele><time>2026-05-03T14:41:03.961Z</time></trkpt><trkpt lat="50.88463988960178" lon="11.857365352863983"><ele>336.0</ele><time>2026-05-03T14:41:04.961Z</time></trkpt><trkpt lat="50.88472021846181" lon="11.857123265739517"><ele>336.0</ele><time>2026-05-03T14:41:05.961Z</time></trkpt><trkpt lat="50.88480222478547" lon="11.856888644838094"><ele>336.0</ele><time>2026-05-03T14:41:06.961Z</time></trkpt><trkpt lat="50.88487909064024" lon="11.856666652206309"><ele>336.0</ele><time>2026-05-03T14:41:07.961Z</time></trkpt><trkpt lat="50.88495049916196" lon="11.856463938638342"><ele>335.5</ele><time>2026-05-03T14:41:08.961Z</time></trkpt><trkpt lat="50.88501550199999" lon="11.856274469023386"><ele>335.0</ele><time>2026-05-03T14:41:09.961Z</time></trkpt><trkpt lat="50.88507527210725" lon="11.85609634599826"><ele>334.5</ele><time>2026-05-03T14:41:10.961Z</time></trkpt><trkpt lat="50.88513573037675" lon="11.855922386490526"><ele>334.0</ele><time>2026-05-03T14:41:11.961Z</time></trkpt><trkpt lat="50.88519302220714" lon="11.855758694391605"><ele>333.5</ele><time>2026-05-03T14:41:12.961Z</time></trkpt><trkpt lat="50.885244276562084" lon="11.855603599414756"><ele>333.0</ele><time>2026-05-03T14:41:13.961Z</time></trkpt><trkpt lat="50.885300251123404" lon="11.85543682124157"><ele>332.5</ele><time>2026-05-03T14:41:14.961Z</time></trkpt><trkpt lat="50.88535569732645" lon="11.855261105705834"><ele>332.0</ele><time>2026-05-03T14:41:15.961Z</time></trkpt><trkpt lat="50.885412437189366" lon="11.855088187052036"><ele>332.0</ele><time>2026-05-03T14:41:16.961Z</time></trkpt><trkpt lat="50.88547498626646" lon="11.854914055706171"><ele>332.0</ele><time>2026-05-03T14:41:17.961Z</time></trkpt><trkpt lat="50.885544499217666" lon="11.8547403307001"><ele>332.0</ele><time>2026-05-03T14:41:18.961Z</time></trkpt><trkpt lat="50.885616827676394" lon="11.85456258156287"><ele>332.0</ele><time>2026-05-03T14:41:19.961Z</time></trkpt><trkpt lat="50.88569452288718" lon="11.854375989969213"><ele>332.0</ele><time>2026-05-03T14:41:20.961Z</time></trkpt><trkpt lat="50.88577246569474" lon="11.85418988155912"><ele>332.0</ele><time>2026-05-03T14:41:21.961Z</time></trkpt><trkpt lat="50.885846305225535" lon="11.85400832467449"><ele>332.0</ele><time>2026-05-03T14:41:22.961Z</time></trkpt><trkpt lat="50.88591846380532" lon="11.85382897503859"><ele>332.0</ele><time>2026-05-03T14:41:23.961Z</time></trkpt><trkpt lat="50.88599543960968" lon="11.85364566358614"><ele>332.0</ele><time>2026-05-03T14:41:24.961Z</time></trkpt><trkpt lat="50.88607187967002" lon="11.85346477917019"><ele>332.0</ele><time>2026-05-03T14:41:25.961Z</time></trkpt><trkpt lat="50.8861484169362" lon="11.853281117765924"><ele>332.0</ele><time>2026-05-03T14:41:26.961Z</time></trkpt><trkpt lat="50.886223379334034" lon="11.85310462837565"><ele>332.0</ele><time>2026-05-03T14:41:27.961Z</time></trkpt><trkpt lat="50.88629897284888" lon="11.8529235244832"><ele>332.0</ele><time>2026-05-03T14:41:28.961Z</time></trkpt><trkpt lat="50.88637386374411" lon="11.85274319366922"><ele>332.0</ele><time>2026-05-03T14:41:29.961Z</time></trkpt><trkpt lat="50.88645033755277" lon="11.852565999392718"><ele>332.0</ele><time>2026-05-03T14:41:30.961Z</time></trkpt><trkpt lat="50.886524081927504" lon="11.852391648560292"><ele>332.0</ele><time>2026-05-03T14:41:31.961Z</time></trkpt><trkpt lat="50.88659441742355" lon="11.852222272554176"><ele>332.33333333333337</ele><time>2026-05-03T14:41:32.961Z</time></trkpt><trkpt lat="50.886659987028615" lon="11.852076978750404"><ele>332.6666666666667</ele><time>2026-05-03T14:41:33.961Z</time></trkpt><trkpt lat="50.88671879001657" lon="11.85195904415864"><ele>333.0</ele><time>2026-05-03T14:41:34.961Z</time></trkpt><trkpt lat="50.88676421609834" lon="11.851844140713524"><ele>333.3333333333333</ele><time>2026-05-03T14:41:35.961Z</time></trkpt><trkpt lat="50.88680709616279" lon="11.85174748454417"><ele>333.66666666666663</ele><time>2026-05-03T14:41:36.961Z</time></trkpt><trkpt lat="50.88686737860307" lon="11.851681807914217"><ele>334.0</ele><time>2026-05-03T14:41:37.961Z</time></trkpt><trkpt lat="50.88693199041873" lon="11.851607595779384"><ele>334.6</ele><time>2026-05-03T14:41:38.961Z</time></trkpt><trkpt lat="50.886968266520434" lon="11.851503865483444"><ele>335.2</ele><time>2026-05-03T14:41:39.961Z</time></trkpt><trkpt lat="50.88698605160543" lon="11.8513511185401"><ele>335.8</ele><time>2026-05-03T14:41:40.961Z</time></trkpt><trkpt lat="50.88701214426447" lon="11.851181287146469"><ele>336.40000000000003</ele><time>2026-05-03T14:41:41.961Z</time></trkpt><trkpt lat="50.88707265640093" lon="11.851021060959521"><ele>337.0</ele><time>2026-05-03T14:41:42.961Z</time></trkpt><trkpt lat="50.88714637386742" lon="11.850857505607522"><ele>337.25</ele><time>2026-05-03T14:41:43.96Z</time></trkpt><trkpt lat="50.887215419648385" lon="11.850670364751226"><ele>337.5</ele><time>2026-05-03T14:41:44.961Z</time></trkpt><trkpt lat="50.88729077608549" lon="11.850482423958471"><ele>337.75</ele><time>2026-05-03T14:41:45.961Z</time></trkpt><trkpt lat="50.88737615555933" lon="11.850305208506494"><ele>338.0</ele><time>2026-05-03T14:41:46.961Z</time></trkpt><trkpt lat="50.88746383239979" lon="11.850161528683534"><ele>338.0</ele><time>2026-05-03T14:41:47.96Z</time></trkpt><trkpt lat="50.887544924731216" lon="11.850046104086063"><ele>338.0</ele><time>2026-05-03T14:41:48.96Z</time></trkpt><trkpt lat="50.88762252619457" lon="11.849940454669033"><ele>338.0</ele><time>2026-05-03T14:41:49.96Z</time></trkpt><trkpt lat="50.88769944192729" lon="11.849856950925599"><ele>338.0</ele><time>2026-05-03T14:41:50.96Z</time></trkpt><trkpt lat="50.88777534668619" lon="11.849788536095632"><ele>338.0</ele><time>2026-05-03T14:41:51.96Z</time></trkpt><trkpt lat="50.88785936266438" lon="11.849723070287935"><ele>338.75</ele><time>2026-05-03T14:41:52.961Z</time></trkpt><trkpt lat="50.887951422886765" lon="11.849645233281427"><ele>339.5</ele><time>2026-05-03T14:41:53.96Z</time></trkpt><trkpt lat="50.888055296339175" lon="11.849569221745476"><ele>340.25</ele><time>2026-05-03T14:41:54.96Z</time></trkpt><trkpt lat="50.888162586074486" lon="11.849490167065932"><ele>341.0</ele><time>2026-05-03T14:41:55.96Z</time></trkpt><trkpt lat="50.88827068734137" lon="11.8494163207576"><ele>341.0</ele><time>2026-05-03T14:41:56.96Z</time></trkpt><trkpt lat="50.88837576408963" lon="11.849341192046442"><ele>341.0</ele><time>2026-05-03T14:41:57.96Z</time></trkpt><trkpt lat="50.88848101559732" lon="11.849264652714318"><ele>341.0</ele><time>2026-05-03T14:41:58.96Z</time></trkpt><trkpt lat="50.88858663857036" lon="11.849188530218626"><ele>341.0</ele><time>2026-05-03T14:41:59.96Z</time></trkpt><trkpt lat="50.888693251283115" lon="11.849106130138214"><ele>341.25</ele><time>2026-05-03T14:42:00.96Z</time></trkpt><trkpt lat="50.888797594579636" lon="11.84902605067028"><ele>341.5</ele><time>2026-05-03T14:42:01.96Z</time></trkpt><trkpt lat="50.888903533777416" lon="11.848927478876483"><ele>341.75</ele><time>2026-05-03T14:42:02.96Z</time></trkpt><trkpt lat="50.88901428184543" lon="11.84880681355023"><ele>342.0</ele><time>2026-05-03T14:42:03.96Z</time></trkpt><trkpt lat="50.889120131720055" lon="11.848670220367794"><ele>342.0</ele><time>2026-05-03T14:42:04.96Z</time></trkpt><trkpt lat="50.889219486373605" lon="11.848509978090597"><ele>342.0</ele><time>2026-05-03T14:42:05.96Z</time></trkpt><trkpt lat="50.88930529473431" lon="11.848343960340909"><ele>342.0</ele><time>2026-05-03T14:42:06.96Z</time></trkpt><trkpt lat="50.889387502900306" lon="11.848188123441412"><ele>342.0</ele><time>2026-05-03T14:42:07.96Z</time></trkpt><trkpt lat="50.88947908070742" lon="11.848044630779654"><ele>342.40000000000003</ele><time>2026-05-03T14:42:08.96Z</time></trkpt><trkpt lat="50.889580837086285" lon="11.847927127722063"><ele>342.8</ele><time>2026-05-03T14:42:09.96Z</time></trkpt><trkpt lat="50.889678382879204" lon="11.847832092605705"><ele>343.2</ele><time>2026-05-03T14:42:10.96Z</time></trkpt><trkpt lat="50.889764418762276" lon="11.84774844368657"><ele>343.6</ele><time>2026-05-03T14:42:11.96Z</time></trkpt><trkpt lat="50.88985309599586" lon="11.847674144462639"><ele>344.0</ele><time>2026-05-03T14:42:12.96Z</time></trkpt><trkpt lat="50.88995683862295" lon="11.847603490424437"><ele>344.0</ele><time>2026-05-03T14:42:13.96Z</time></trkpt><trkpt lat="50.89006913005528" lon="11.847550017017628"><ele>344.0</ele><time>2026-05-03T14:42:14.96Z</time></trkpt><trkpt lat="50.890186648931476" lon="11.84749002928437"><ele>344.0</ele><time>2026-05-03T14:42:15.96Z</time></trkpt><trkpt lat="50.89030733400301" lon="11.84744821316527"><ele>344.0</ele><time>2026-05-03T14:42:16.96Z</time></trkpt><trkpt lat="50.89042876217524" lon="11.847425223033879"><ele>344.0</ele><time>2026-05-03T14:42:17.96Z</time></trkpt><trkpt lat="50.89054747507481" lon="11.847403805371558"><ele>344.0</ele><time>2026-05-03T14:42:18.96Z</time></trkpt><trkpt lat="50.890667582939194" lon="11.847388552999648"><ele>344.0</ele><time>2026-05-03T14:42:19.96Z</time></trkpt><trkpt lat="50.89079300385268" lon="11.847396709795188"><ele>344.0</ele><time>2026-05-03T14:42:20.96Z</time></trkpt><trkpt lat="50.89092168481884" lon="11.847420277293612"><ele>344.0</ele><time>2026-05-03T14:42:21.96Z</time></trkpt><trkpt lat="50.891054477620706" lon="11.847453285979196"><ele>344.0</ele><time>2026-05-03T14:42:22.96Z</time></trkpt><trkpt lat="50.891184229225864" lon="11.847477199304302"><ele>344.0</ele><time>2026-05-03T14:42:23.96Z</time></trkpt><trkpt lat="50.89131511843679" lon="11.847485333879103"><ele>344.0</ele><time>2026-05-03T14:42:24.96Z</time></trkpt><trkpt lat="50.891447932532735" lon="11.847474347545369"><ele>344.0</ele><time>2026-05-03T14:42:25.96Z</time></trkpt><trkpt lat="50.89157859481554" lon="11.847461140081817"><ele>344.0</ele><time>2026-05-03T14:42:26.96Z</time></trkpt><trkpt lat="50.89171185857507" lon="11.847443304611753"><ele>344.0</ele><time>2026-05-03T14:42:27.96Z</time></trkpt><trkpt lat="50.89184616548058" lon="11.847416445955089"><ele>344.0</ele><time>2026-05-03T14:42:28.96Z</time></trkpt><trkpt lat="50.89198143547132" lon="11.847394455565269"><ele>343.75</ele><time>2026-05-03T14:42:29.96Z</time></trkpt><trkpt lat="50.89211215879315" lon="11.847374239215217"><ele>343.5</ele><time>2026-05-03T14:42:30.96Z</time></trkpt><trkpt lat="50.89224168181632" lon="11.84735600441458"><ele>343.25</ele><time>2026-05-03T14:42:31.96Z</time></trkpt><trkpt lat="50.89237099493755" lon="11.847337525951628"><ele>343.0</ele><time>2026-05-03T14:42:32.96Z</time></trkpt><trkpt lat="50.892497828227036" lon="11.847324795033375"><ele>343.25</ele><time>2026-05-03T14:42:33.96Z</time></trkpt><trkpt lat="50.89262184252838" lon="11.847313376522555"><ele>343.5</ele><time>2026-05-03T14:42:34.96Z</time></trkpt><trkpt lat="50.89274352495192" lon="11.847295829077234"><ele>343.75</ele><time>2026-05-03T14:42:35.96Z</time></trkpt><trkpt lat="50.89287410783285" lon="11.84727432482163"><ele>344.0</ele><time>2026-05-03T14:42:36.96Z</time></trkpt><trkpt lat="50.89300421206569" lon="11.847254442181988"><ele>344.0</ele><time>2026-05-03T14:42:37.96Z</time></trkpt><trkpt lat="50.89313321018526" lon="11.847242296007982"><ele>344.0</ele><time>2026-05-03T14:42:38.96Z</time></trkpt><trkpt lat="50.8932626032576" lon="11.847220616883275"><ele>344.0</ele><time>2026-05-03T14:42:39.96Z</time></trkpt><trkpt lat="50.89338869491622" lon="11.847203971160699"><ele>344.0</ele><time>2026-05-03T14:42:40.96Z</time></trkpt><trkpt lat="50.89351498472193" lon="11.84719094109272"><ele>342.75</ele><time>2026-05-03T14:42:41.96Z</time></trkpt><trkpt lat="50.89363867084724" lon="11.847176844964004"><ele>341.5</ele><time>2026-05-03T14:42:42.96Z</time></trkpt><trkpt lat="50.89375979055909" lon="11.847158816215655"><ele>340.25</ele><time>2026-05-03T14:42:43.961Z</time></trkpt><trkpt lat="50.89387606004618" lon="11.847138756081849"><ele>339.0</ele><time>2026-05-03T14:42:44.961Z</time></trkpt><trkpt lat="50.8939841822881" lon="11.847115809457323"><ele>339.0</ele><time>2026-05-03T14:42:45.961Z</time></trkpt><trkpt lat="50.89409136573383" lon="11.847094756441946"><ele>339.0</ele><time>2026-05-03T14:42:46.961Z</time></trkpt><trkpt lat="50.894204833543064" lon="11.847077095733702"><ele>339.0</ele><time>2026-05-03T14:42:47.961Z</time></trkpt><trkpt lat="50.89431831415378" lon="11.847058494890886"><ele>339.0</ele><time>2026-05-03T14:42:48.961Z</time></trkpt><trkpt lat="50.894430097879855" lon="11.847033382670995"><ele>339.0</ele><time>2026-05-03T14:42:49.961Z</time></trkpt><trkpt lat="50.894544131664276" lon="11.84701397489185"><ele>338.25</ele><time>2026-05-03T14:42:50.961Z</time></trkpt><trkpt lat="50.894655094049064" lon="11.846995764840587"><ele>337.5</ele><time>2026-05-03T14:42:51.961Z</time></trkpt><trkpt lat="50.8947664730316" lon="11.84698583736096"><ele>336.75</ele><time>2026-05-03T14:42:52.961Z</time></trkpt><trkpt lat="50.89488311247023" lon="11.846972957972179"><ele>336.0</ele><time>2026-05-03T14:42:53.961Z</time></trkpt><trkpt lat="50.89500441450792" lon="11.846953954479359"><ele>335.0</ele><time>2026-05-03T14:42:54.961Z</time></trkpt><trkpt lat="50.895125275065325" lon="11.846953226078544"><ele>334.0</ele><time>2026-05-03T14:42:55.961Z</time></trkpt><trkpt lat="50.89523623446952" lon="11.84697073740558"><ele>333.0</ele><time>2026-05-03T14:42:56.961Z</time></trkpt><trkpt lat="50.89535286887366" lon="11.847003857275205"><ele>332.0</ele><time>2026-05-03T14:42:57.961Z</time></trkpt><trkpt lat="50.89546734055639" lon="11.847057444838526"><ele>332.0</ele><time>2026-05-03T14:42:58.961Z</time></trkpt><trkpt lat="50.895575761659636" lon="11.84711915042931"><ele>332.0</ele><time>2026-05-03T14:42:59.961Z</time></trkpt><trkpt lat="50.89568182192304" lon="11.847206839868345"><ele>332.0</ele><time>2026-05-03T14:43:00.961Z</time></trkpt><trkpt lat="50.89578100897055" lon="11.847306750012796"><ele>332.0</ele><time>2026-05-03T14:43:01.961Z</time></trkpt><trkpt lat="50.895876154884455" lon="11.847407504951786"><ele>331.20000000000005</ele><time>2026-05-03T14:43:02.961Z</time></trkpt><trkpt lat="50.8959612534553" lon="11.847523659400467"><ele>330.4</ele><time>2026-05-03T14:43:03.961Z</time></trkpt><trkpt lat="50.896041476660315" lon="11.847652078570375"><ele>329.6</ele><time>2026-05-03T14:43:04.961Z</time></trkpt><trkpt lat="50.896119269935724" lon="11.847779439835822"><ele>328.79999999999995</ele><time>2026-05-03T14:43:05.961Z</time></trkpt><trkpt lat="50.89619116750672" lon="11.847911396862855"><ele>328.0</ele><time>2026-05-03T14:43:06.961Z</time></trkpt><trkpt lat="50.896263535395654" lon="11.848049768328146"><ele>328.0</ele><time>2026-05-03T14:43:07.961Z</time></trkpt><trkpt lat="50.896344209952524" lon="11.84817789107387"><ele>328.0</ele><time>2026-05-03T14:43:08.961Z</time></trkpt><trkpt lat="50.89642247090477" lon="11.848303656819395"><ele>328.0</ele><time>2026-05-03T14:43:09.961Z</time></trkpt><trkpt lat="50.8964972108631" lon="11.8484301146816"><ele>328.0</ele><time>2026-05-03T14:43:10.961Z</time></trkpt><trkpt lat="50.896565793534485" lon="11.848554844548467"><ele>328.0</ele><time>2026-05-03T14:43:11.961Z</time></trkpt><trkpt lat="50.8966328724691" lon="11.848668723031132"><ele>328.3333333333333</ele><time>2026-05-03T14:43:12.961Z</time></trkpt><trkpt lat="50.89669312483096" lon="11.848777185345648"><ele>328.66666666666663</ele><time>2026-05-03T14:43:13.961Z</time></trkpt><trkpt lat="50.89676478410415" lon="11.848878384869291"><ele>329.0</ele><time>2026-05-03T14:43:14.961Z</time></trkpt><trkpt lat="50.896829745421975" lon="11.848974527079534"><ele>329.3333333333333</ele><time>2026-05-03T14:43:15.961Z</time></trkpt><trkpt lat="50.89687833311282" lon="11.849076735573888"><ele>329.6666666666667</ele><time>2026-05-03T14:43:16.961Z</time></trkpt><trkpt lat="50.89693234523376" lon="11.849176454670516"><ele>330.0</ele><time>2026-05-03T14:43:17.961Z</time></trkpt><trkpt lat="50.89697465530737" lon="11.84925227467675"><ele>329.0</ele><time>2026-05-03T14:43:18.961Z</time></trkpt><trkpt lat="50.89704835384285" lon="11.849375814212468"><ele>328.0</ele><time>2026-05-03T14:43:20.961Z</time></trkpt><trkpt lat="50.8972095261647" lon="11.849217903703254"><ele>327.0</ele><time>2026-05-03T14:43:22.961Z</time></trkpt><trkpt lat="50.89727625769394" lon="11.849111869267725"><ele>326.0</ele><time>2026-05-03T14:43:23.961Z</time></trkpt><trkpt lat="50.897330870569974" lon="11.84902642911167"><ele>325.8571428571429</ele><time>2026-05-03T14:43:24.961Z</time></trkpt><trkpt lat="50.89738445456846" lon="11.848958008957913"><ele>325.71428571428567</ele><time>2026-05-03T14:43:25.961Z</time></trkpt><trkpt lat="50.89743771923176" lon="11.848883950553873"><ele>325.57142857142856</ele><time>2026-05-03T14:43:26.961Z</time></trkpt><trkpt lat="50.897491740049084" lon="11.848806472482963"><ele>325.42857142857144</ele><time>2026-05-03T14:43:27.961Z</time></trkpt><trkpt lat="50.89754704448117" lon="11.848728650304706"><ele>325.28571428571433</ele><time>2026-05-03T14:43:28.961Z</time></trkpt><trkpt lat="50.89760448743374" lon="11.84865214923543"><ele>325.1428571428571</ele><time>2026-05-03T14:43:29.961Z</time></trkpt><trkpt lat="50.89765680706216" lon="11.848577702790305"><ele>325.0</ele><time>2026-05-03T14:43:30.961Z</time></trkpt><trkpt lat="50.89774198401196" lon="11.848451046852041"><ele>324.66666666666663</ele><time>2026-05-03T14:43:32.961Z</time></trkpt><trkpt lat="50.89781251871406" lon="11.848358698610236"><ele>324.3333333333333</ele><time>2026-05-03T14:43:34.961Z</time></trkpt><trkpt lat="50.89786934152864" lon="11.848274975533338"><ele>324.0</ele><time>2026-05-03T14:43:36.961Z</time></trkpt><trkpt lat="50.89792395954022" lon="11.848199174654138"><ele>323.6666666666667</ele><time>2026-05-03T14:43:38.961Z</time></trkpt><trkpt lat="50.89801100972901" lon="11.848103036269613"><ele>323.33333333333337</ele><time>2026-05-03T14:43:41.961Z</time></trkpt><trkpt lat="50.898069543732646" lon="11.848019983317299"><ele>323.0</ele><time>2026-05-03T14:43:43.961Z</time></trkpt><trkpt lat="50.89812284136519" lon="11.84794923595543"><ele>323.0</ele><time>2026-05-03T14:43:45.961Z</time></trkpt><trkpt lat="50.89817641241975" lon="11.847871385403241"><ele>323.0</ele><time>2026-05-03T14:43:48.961Z</time></trkpt><trkpt lat="50.89823505829377" lon="11.847784237229886"><ele>323.0</ele><time>2026-05-03T14:43:52.96Z</time></trkpt><trkpt lat="50.89830307971149" lon="11.847672121984095"><ele>323.0</ele><time>2026-05-03T14:43:54.96Z</time></trkpt><trkpt lat="50.898362240489156" lon="11.847588761851489"><ele>323.0</ele><time>2026-05-03T14:43:56.959Z</time></trkpt><trkpt lat="50.89841232317706" lon="11.847516285101392"><ele>323.0</ele><time>2026-05-03T14:43:58.959Z</time></trkpt><trkpt lat="50.898477213556205" lon="11.847428427075835"><ele>322.33333333333337</ele><time>2026-05-03T14:44:00.959Z</time></trkpt><trkpt lat="50.89854044535639" lon="11.847408509756686"><ele>321.6666666666667</ele><time>2026-05-03T14:44:02.96Z</time></trkpt><trkpt lat="50.89862291941791" lon="11.847558550183336"><ele>321.0</ele><time>2026-05-03T14:44:04.96Z</time></trkpt><trkpt lat="50.89866803891979" lon="11.847640075343513"><ele>320.3333333333333</ele><time>2026-05-03T14:44:05.96Z</time></trkpt><trkpt lat="50.89872269720946" lon="11.84773785026798"><ele>319.66666666666663</ele><time>2026-05-03T14:44:06.96Z</time></trkpt><trkpt lat="50.89877865500778" lon="11.847836827217066"><ele>319.0</ele><time>2026-05-03T14:44:07.96Z</time></trkpt><trkpt lat="50.89883831638971" lon="11.847935001968304"><ele>319.0</ele><time>2026-05-03T14:44:08.96Z</time></trkpt><trkpt lat="50.898895173749686" lon="11.848027420108968"><ele>319.0</ele><time>2026-05-03T14:44:09.96Z</time></trkpt><trkpt lat="50.898956303848635" lon="11.848129919017298"><ele>319.0</ele><time>2026-05-03T14:44:10.96Z</time></trkpt><trkpt lat="50.899016843716616" lon="11.84822069577946"><ele>319.0</ele><time>2026-05-03T14:44:11.96Z</time></trkpt><trkpt lat="50.89908040620382" lon="11.848302136733654"><ele>319.0</ele><time>2026-05-03T14:44:12.96Z</time></trkpt><trkpt lat="50.89914200333796" lon="11.848386237623757"><ele>319.0</ele><time>2026-05-03T14:44:13.96Z</time></trkpt><trkpt lat="50.89920431854031" lon="11.848487774564413"><ele>319.0</ele><time>2026-05-03T14:44:14.96Z</time></trkpt><trkpt lat="50.899263992258376" lon="11.848589895862496"><ele>319.0</ele><time>2026-05-03T14:44:15.96Z</time></trkpt><trkpt lat="50.899316983385496" lon="11.848690676114572"><ele>319.0</ele><time>2026-05-03T14:44:16.96Z</time></trkpt><trkpt lat="50.89937023217047" lon="11.848789268666662"><ele>319.0</ele><time>2026-05-03T14:44:17.96Z</time></trkpt><trkpt lat="50.899425549001535" lon="11.848880857729682"><ele>319.0</ele><time>2026-05-03T14:44:18.96Z</time></trkpt><trkpt lat="50.899480065723246" lon="11.848979868702651"><ele>319.0</ele><time>2026-05-03T14:44:19.96Z</time></trkpt><trkpt lat="50.89953192231775" lon="11.849077774846709"><ele>319.0</ele><time>2026-05-03T14:44:20.96Z</time></trkpt><trkpt lat="50.89958875258402" lon="11.849178927293371"><ele>319.0</ele><time>2026-05-03T14:44:21.96Z</time></trkpt><trkpt lat="50.899646943473314" lon="11.849278767400115"><ele>319.0</ele><time>2026-05-03T14:44:22.96Z</time></trkpt><trkpt lat="50.89970685962922" lon="11.849380823952426"><ele>319.0</ele><time>2026-05-03T14:44:23.96Z</time></trkpt><trkpt lat="50.89975846754484" lon="11.849478208718311"><ele>319.0</ele><time>2026-05-03T14:44:24.96Z</time></trkpt><trkpt lat="50.899811751118655" lon="11.849566209923864"><ele>319.0</ele><time>2026-05-03T14:44:25.96Z</time></trkpt><trkpt lat="50.899862077424984" lon="11.849652488290136"><ele>319.14285714285717</ele><time>2026-05-03T14:44:26.96Z</time></trkpt><trkpt lat="50.899915494851996" lon="11.849740654249269"><ele>319.2857142857143</ele><time>2026-05-03T14:44:27.96Z</time></trkpt><trkpt lat="50.89995220299936" lon="11.84982922269114"><ele>319.42857142857144</ele><time>2026-05-03T14:44:28.96Z</time></trkpt><trkpt lat="50.90000370403457" lon="11.849919644220101"><ele>319.57142857142856</ele><time>2026-05-03T14:44:29.96Z</time></trkpt><trkpt lat="50.90004831654477" lon="11.850002299921847"><ele>319.7142857142857</ele><time>2026-05-03T14:44:30.96Z</time></trkpt><trkpt lat="50.90009735105703" lon="11.850075844882708"><ele>319.85714285714283</ele><time>2026-05-03T14:44:31.96Z</time></trkpt><trkpt lat="50.90014714525979" lon="11.85014860479791"><ele>320.0</ele><time>2026-05-03T14:44:32.96Z</time></trkpt><trkpt lat="50.90021908779932" lon="11.85027682288236"><ele>320.2</ele><time>2026-05-03T14:44:34.96Z</time></trkpt><trkpt lat="50.90018798623661" lon="11.850439864704995"><ele>320.4</ele><time>2026-05-03T14:44:36.96Z</time></trkpt><trkpt lat="50.900138368390536" lon="11.850513986834835"><ele>320.6</ele><time>2026-05-03T14:44:37.96Z</time></trkpt><trkpt lat="50.90006653043584" lon="11.85058660899854"><ele>320.8</ele><time>2026-05-03T14:44:38.96Z</time></trkpt><trkpt lat="50.899987922889295" lon="11.850684769151718"><ele>321.0</ele><time>2026-05-03T14:44:39.96Z</time></trkpt><trkpt lat="50.8999085591849" lon="11.850802738049692"><ele>321.0</ele><time>2026-05-03T14:44:40.96Z</time></trkpt><trkpt lat="50.89982750551927" lon="11.850920819009733"><ele>321.0</ele><time>2026-05-03T14:44:41.96Z</time></trkpt><trkpt lat="50.89974872707471" lon="11.851034561645866"><ele>321.0</ele><time>2026-05-03T14:44:42.96Z</time></trkpt><trkpt lat="50.89966413672549" lon="11.851158927709374"><ele>321.0</ele><time>2026-05-03T14:44:43.96Z</time></trkpt><trkpt lat="50.89957335856635" lon="11.851275646218944"><ele>321.0</ele><time>2026-05-03T14:44:44.96Z</time></trkpt><trkpt lat="50.899493460948996" lon="11.851389644476868"><ele>321.3333333333333</ele><time>2026-05-03T14:44:45.96Z</time></trkpt><trkpt lat="50.89942537574804" lon="11.851484732422783"><ele>321.6666666666667</ele><time>2026-05-03T14:44:46.96Z</time></trkpt><trkpt lat="50.89936697864974" lon="11.851568290860166"><ele>322.0</ele><time>2026-05-03T14:44:47.96Z</time></trkpt><trkpt lat="50.89931408738926" lon="11.851640414179439"><ele>322.33333333333337</ele><time>2026-05-03T14:44:48.96Z</time></trkpt><trkpt lat="50.89926149868173" lon="11.851717266237156"><ele>322.6666666666667</ele><time>2026-05-03T14:44:49.96Z</time></trkpt><trkpt lat="50.89920430939057" lon="11.85179513923392"><ele>323.0</ele><time>2026-05-03T14:44:50.96Z</time></trkpt><trkpt lat="50.89914867792359" lon="11.851886024425417"><ele>324.1666666666667</ele><time>2026-05-03T14:44:51.96Z</time></trkpt><trkpt lat="50.89909881991548" lon="11.851975371461359"><ele>325.33333333333337</ele><time>2026-05-03T14:44:52.96Z</time></trkpt><trkpt lat="50.89904428713313" lon="11.852069746764878"><ele>326.5</ele><time>2026-05-03T14:44:53.96Z</time></trkpt><trkpt lat="50.89899369994813" lon="11.852155704859594"><ele>327.6666666666667</ele><time>2026-05-03T14:44:54.96Z</time></trkpt><trkpt lat="50.89891242551289" lon="11.852167640537287"><ele>328.8333333333333</ele><time>2026-05-03T14:44:55.96Z</time></trkpt><trkpt lat="50.89885131127888" lon="11.852251817612787"><ele>330.0</ele><time>2026-05-03T14:44:57.96Z</time></trkpt><trkpt lat="50.89879147636246" lon="11.852334232686474"><ele>330.0</ele><time>2026-05-03T14:45:02.96Z</time></trkpt><trkpt lat="50.898885340317136" lon="11.852655615595458"><ele>330.0</ele><time>2026-05-03T14:45:04.96Z</time></trkpt><trkpt lat="50.89896474168059" lon="11.852756273495785"><ele>330.0</ele><time>2026-05-03T14:45:05.96Z</time></trkpt><trkpt lat="50.899044344218424" lon="11.852862012673222"><ele>330.0</ele><time>2026-05-03T14:45:06.96Z</time></trkpt><trkpt lat="50.89913143000907" lon="11.852961144957026"><ele>330.0</ele><time>2026-05-03T14:45:07.96Z</time></trkpt><trkpt lat="50.89921825179728" lon="11.85304215355241"><ele>330.0</ele><time>2026-05-03T14:45:08.96Z</time></trkpt><trkpt lat="50.899295674571825" lon="11.8530976123061"><ele>330.0</ele><time>2026-05-03T14:45:09.96Z</time></trkpt><trkpt lat="50.899365143779356" lon="11.853133899998632"><ele>330.0</ele><time>2026-05-03T14:45:10.96Z</time></trkpt><trkpt lat="50.89942401215191" lon="11.853179441656476"><ele>330.0</ele><time>2026-05-03T14:45:11.96Z</time></trkpt><trkpt lat="50.89947016422934" lon="11.853252717335891"><ele>330.0</ele><time>2026-05-03T14:45:12.96Z</time></trkpt><trkpt lat="50.89950545273086" lon="11.853347061295434"><ele>329.3333333333333</ele><time>2026-05-03T14:45:13.96Z</time></trkpt><trkpt lat="50.89955363125619" lon="11.85342253032107"><ele>328.6666666666667</ele><time>2026-05-03T14:45:14.96Z</time></trkpt><trkpt lat="50.89961792556989" lon="11.853434698998667"><ele>328.0</ele><time>2026-05-03T14:45:15.96Z</time></trkpt><trkpt lat="50.89968457613226" lon="11.853386122634893"><ele>327.33333333333337</ele><time>2026-05-03T14:45:16.96Z</time></trkpt><trkpt lat="50.89972605013672" lon="11.853281186922148"><ele>326.6666666666667</ele><time>2026-05-03T14:45:17.96Z</time></trkpt><trkpt lat="50.89974765859455" lon="11.853139080782281"><ele>326.0</ele><time>2026-05-03T14:45:18.96Z</time></trkpt><trkpt lat="50.89977663380128" lon="11.853019397962957"><ele>326.0</ele><time>2026-05-03T14:45:19.96Z</time></trkpt><trkpt lat="50.899842546916126" lon="11.8529082892367"><ele>326.0</ele><time>2026-05-03T14:45:20.96Z</time></trkpt><trkpt lat="50.89990225605762" lon="11.85282629503074"><ele>326.0</ele><time>2026-05-03T14:45:21.96Z</time></trkpt><trkpt lat="50.8999512985625" lon="11.852736944951609"><ele>326.0</ele><time>2026-05-03T14:45:22.96Z</time></trkpt><trkpt lat="50.89999831054928" lon="11.85264231270856"><ele>326.0</ele><time>2026-05-03T14:45:23.96Z</time></trkpt><trkpt lat="50.900047489845484" lon="11.85254490197976"><ele>326.0</ele><time>2026-05-03T14:45:24.96Z</time></trkpt><trkpt lat="50.90009775235482" lon="11.852430198779736"><ele>326.0</ele><time>2026-05-03T14:45:25.96Z</time></trkpt><trkpt lat="50.900147291361485" lon="11.852310627583819"><ele>326.0</ele><time>2026-05-03T14:45:26.96Z</time></trkpt><trkpt lat="50.90020522185947" lon="11.852188566639583"><ele>326.0</ele><time>2026-05-03T14:45:27.96Z</time></trkpt><trkpt lat="50.9002698698459" lon="11.85206082753628"><ele>326.0</ele><time>2026-05-03T14:45:28.96Z</time></trkpt><trkpt lat="50.90033549740282" lon="11.851930644227302"><ele>326.0</ele><time>2026-05-03T14:45:29.96Z</time></trkpt><trkpt lat="50.90040025090855" lon="11.851794282762219"><ele>325.0</ele><time>2026-05-03T14:45:30.96Z</time></trkpt><trkpt lat="50.9004690651518" lon="11.851653337773387"><ele>324.0</ele><time>2026-05-03T14:45:31.96Z</time></trkpt><trkpt lat="50.90054367186374" lon="11.851513160024236"><ele>323.0</ele><time>2026-05-03T14:45:32.96Z</time></trkpt><trkpt lat="50.90061274595408" lon="11.851377237297271"><ele>322.0</ele><time>2026-05-03T14:45:33.96Z</time></trkpt><trkpt lat="50.900689792036886" lon="11.851241045617774"><ele>322.0</ele><time>2026-05-03T14:45:34.96Z</time></trkpt><trkpt lat="50.90076019607687" lon="11.851108987064679"><ele>322.0</ele><time>2026-05-03T14:45:35.96Z</time></trkpt><trkpt lat="50.900828556475396" lon="11.850973412912678"><ele>322.0</ele><time>2026-05-03T14:45:36.96Z</time></trkpt><trkpt lat="50.90089968585926" lon="11.850832785252964"><ele>322.0</ele><time>2026-05-03T14:45:37.96Z</time></trkpt><trkpt lat="50.90096892225513" lon="11.850684886485569"><ele>322.0</ele><time>2026-05-03T14:45:38.96Z</time></trkpt><trkpt lat="50.90103941782226" lon="11.850541337047789"><ele>322.5</ele><time>2026-05-03T14:45:39.96Z</time></trkpt><trkpt lat="50.90111112312995" lon="11.850392878247874"><ele>323.0</ele><time>2026-05-03T14:45:40.96Z</time></trkpt><trkpt lat="50.90118336641948" lon="11.850234841992158"><ele>323.5</ele><time>2026-05-03T14:45:41.96Z</time></trkpt><trkpt lat="50.90125463970228" lon="11.850072624909709"><ele>324.0</ele><time>2026-05-03T14:45:42.96Z</time></trkpt><trkpt lat="50.90132980880555" lon="11.849919167802078"><ele>324.0</ele><time>2026-05-03T14:45:43.96Z</time></trkpt><trkpt lat="50.90140800777434" lon="11.849760427400094"><ele>324.0</ele><time>2026-05-03T14:45:44.96Z</time></trkpt><trkpt lat="50.90148449803636" lon="11.84961136975316"><ele>324.0</ele><time>2026-05-03T14:45:45.96Z</time></trkpt><trkpt lat="50.90155596136519" lon="11.849475263327435"><ele>324.0</ele><time>2026-05-03T14:45:46.96Z</time></trkpt><trkpt lat="50.901622705898504" lon="11.849337621118144"><ele>324.2</ele><time>2026-05-03T14:45:47.96Z</time></trkpt><trkpt lat="50.90169053683068" lon="11.849197976470101"><ele>324.4</ele><time>2026-05-03T14:45:48.96Z</time></trkpt><trkpt lat="50.90175584753839" lon="11.849058831701557"><ele>324.6</ele><time>2026-05-03T14:45:49.96Z</time></trkpt><trkpt lat="50.90182527258532" lon="11.848921754585165"><ele>324.8</ele><time>2026-05-03T14:45:50.96Z</time></trkpt><trkpt lat="50.901896877718855" lon="11.848784460630785"><ele>325.0</ele><time>2026-05-03T14:45:51.96Z</time></trkpt><trkpt lat="50.90196661026583" lon="11.84865341760446"><ele>325.6</ele><time>2026-05-03T14:45:52.96Z</time></trkpt><trkpt lat="50.90202753613096" lon="11.848521004794687"><ele>326.2</ele><time>2026-05-03T14:45:53.96Z</time></trkpt><trkpt lat="50.902088386271075" lon="11.848392658945189"><ele>326.79999999999995</ele><time>2026-05-03T14:45:54.96Z</time></trkpt><trkpt lat="50.90214772418464" lon="11.848273836512188"><ele>327.4</ele><time>2026-05-03T14:45:55.959Z</time></trkpt><trkpt lat="50.90220095533236" lon="11.848171458224055"><ele>328.0</ele><time>2026-05-03T14:45:56.96Z</time></trkpt><trkpt lat="50.90224536216422" lon="11.8480834624651"><ele>328.0</ele><time>2026-05-03T14:45:57.96Z</time></trkpt><trkpt lat="50.902321838201246" lon="11.847942224644003"><ele>328.0</ele><time>2026-05-03T14:45:59.959Z</time></trkpt><trkpt lat="50.902401106413556" lon="11.84785116579327"><ele>328.0</ele><time>2026-05-03T14:46:01.959Z</time></trkpt><trkpt lat="50.90246225053356" lon="11.847793621205899"><ele>328.0</ele><time>2026-05-03T14:46:17.96Z</time></trkpt><trkpt lat="50.902579118418394" lon="11.847695390440931"><ele>328.0</ele><time>2026-05-03T14:46:19.96Z</time></trkpt><trkpt lat="50.90265915686286" lon="11.847635153580582"><ele>328.75</ele><time>2026-05-03T14:46:20.96Z</time></trkpt><trkpt lat="50.90275757214094" lon="11.847562669664915"><ele>329.5</ele><time>2026-05-03T14:46:21.96Z</time></trkpt><trkpt lat="50.902868296603216" lon="11.84748661751475"><ele>330.25</ele><time>2026-05-03T14:46:22.96Z</time></trkpt><trkpt lat="50.90297279539206" lon="11.847409135813107"><ele>331.0</ele><time>2026-05-03T14:46:23.96Z</time></trkpt><trkpt lat="50.90309392841616" lon="11.847340198360458"><ele>331.0</ele><time>2026-05-03T14:46:24.96Z</time></trkpt><trkpt lat="50.903209947455494" lon="11.847249316587382"><ele>331.0</ele><time>2026-05-03T14:46:25.96Z</time></trkpt><trkpt lat="50.90331817800644" lon="11.847166540342453"><ele>331.0</ele><time>2026-05-03T14:46:26.96Z</time></trkpt><trkpt lat="50.9034207772634" lon="11.847087212305462"><ele>331.0</ele><time>2026-05-03T14:46:27.96Z</time></trkpt><trkpt lat="50.903523543515306" lon="11.847009685519557"><ele>331.0</ele><time>2026-05-03T14:46:28.96Z</time></trkpt><trkpt lat="50.90362558693877" lon="11.846936001869175"><ele>331.0</ele><time>2026-05-03T14:46:29.96Z</time></trkpt><trkpt lat="50.90372015409648" lon="11.84686621239361"><ele>331.0</ele><time>2026-05-03T14:46:30.96Z</time></trkpt><trkpt lat="50.90381490319075" lon="11.846804368930908"><ele>331.0</ele><time>2026-05-03T14:46:31.96Z</time></trkpt><trkpt lat="50.90389764075286" lon="11.846747687006255"><ele>331.0</ele><time>2026-05-03T14:46:32.96Z</time></trkpt><trkpt lat="50.90397339183482" lon="11.846683816110115"><ele>331.0</ele><time>2026-05-03T14:46:33.96Z</time></trkpt><trkpt lat="50.904052934999335" lon="11.84661914136353"><ele>331.0</ele><time>2026-05-03T14:46:34.96Z</time></trkpt><trkpt lat="50.904130924846356" lon="11.846562422499604"><ele>331.0</ele><time>2026-05-03T14:46:35.96Z</time></trkpt><trkpt lat="50.904210492955514" lon="11.846519672413521"><ele>331.0</ele><time>2026-05-03T14:46:36.96Z</time></trkpt><trkpt lat="50.90428812744558" lon="11.846462249308061"><ele>331.0</ele><time>2026-05-03T14:46:37.96Z</time></trkpt><trkpt lat="50.90436363963723" lon="11.84640750125369"><ele>331.0</ele><time>2026-05-03T14:46:38.96Z</time></trkpt><trkpt lat="50.90444278102132" lon="11.84635098370382"><ele>330.8333333333333</ele><time>2026-05-03T14:46:39.96Z</time></trkpt><trkpt lat="50.90451763925561" lon="11.84629794289561"><ele>330.66666666666663</ele><time>2026-05-03T14:46:40.96Z</time></trkpt><trkpt lat="50.90459410323032" lon="11.846243724883228"><ele>330.5</ele><time>2026-05-03T14:46:41.96Z</time></trkpt><trkpt lat="50.90467069791478" lon="11.846189410026792"><ele>330.3333333333333</ele><time>2026-05-03T14:46:42.96Z</time></trkpt><trkpt lat="50.90474869853253" lon="11.84613282992377"><ele>330.1666666666667</ele><time>2026-05-03T14:46:43.96Z</time></trkpt><trkpt lat="50.90482639383772" lon="11.84607516608033"><ele>330.0</ele><time>2026-05-03T14:46:44.96Z</time></trkpt><trkpt lat="50.904901833655025" lon="11.84599369388118"><ele>329.8333333333333</ele><time>2026-05-03T14:46:45.96Z</time></trkpt><trkpt lat="50.90498511765161" lon="11.845941466475612"><ele>329.6666666666667</ele><time>2026-05-03T14:46:46.96Z</time></trkpt><trkpt lat="50.90506111008372" lon="11.845884315079829"><ele>329.5</ele><time>2026-05-03T14:46:47.96Z</time></trkpt><trkpt lat="50.90514105405366" lon="11.845827065752733"><ele>329.33333333333337</ele><time>2026-05-03T14:46:48.96Z</time></trkpt><trkpt lat="50.9052247821904" lon="11.845778616567442"><ele>329.1666666666667</ele><time>2026-05-03T14:46:49.96Z</time></trkpt><trkpt lat="50.905299292981354" lon="11.845723538499707"><ele>329.0</ele><time>2026-05-03T14:46:50.96Z</time></trkpt><trkpt lat="50.90538220936273" lon="11.845670999290322"><ele>328.6666666666667</ele><time>2026-05-03T14:46:51.96Z</time></trkpt><trkpt lat="50.905453894713006" lon="11.845613856068127"><ele>328.33333333333337</ele><time>2026-05-03T14:46:52.96Z</time></trkpt><trkpt lat="50.90552719116729" lon="11.845565922166761"><ele>328.0</ele><time>2026-05-03T14:46:53.96Z</time></trkpt><trkpt lat="50.90559658259209" lon="11.845505355006766"><ele>327.6666666666667</ele><time>2026-05-03T14:46:54.96Z</time></trkpt><trkpt lat="50.90567911490485" lon="11.845450901086593"><ele>327.3333333333333</ele><time>2026-05-03T14:46:55.96Z</time></trkpt><trkpt lat="50.905762956739544" lon="11.84539110502476"><ele>327.0</ele><time>2026-05-03T14:46:56.96Z</time></trkpt><trkpt lat="50.90584840272005" lon="11.845326119896535"><ele>327.0</ele><time>2026-05-03T14:46:57.96Z</time></trkpt><trkpt lat="50.90593831059551" lon="11.84526421781349"><ele>327.0</ele><time>2026-05-03T14:46:58.96Z</time></trkpt><trkpt lat="50.90603165550216" lon="11.845198356203758"><ele>327.0</ele><time>2026-05-03T14:46:59.96Z</time></trkpt><trkpt lat="50.906129502224886" lon="11.845127718271824"><ele>327.0</ele><time>2026-05-03T14:47:00.96Z</time></trkpt><trkpt lat="50.90623079823751" lon="11.845057937554369"><ele>327.0</ele><time>2026-05-03T14:47:01.96Z</time></trkpt><trkpt lat="50.90633740372588" lon="11.844977908597205"><ele>326.25</ele><time>2026-05-03T14:47:02.96Z</time></trkpt><trkpt lat="50.906442451754245" lon="11.844901667972321"><ele>325.5</ele><time>2026-05-03T14:47:03.96Z</time></trkpt><trkpt lat="50.90655013442982" lon="11.844826294438805"><ele>324.75</ele><time>2026-05-03T14:47:04.96Z</time></trkpt><trkpt lat="50.90666054116708" lon="11.844747885709253"><ele>324.0</ele><time>2026-05-03T14:47:05.96Z</time></trkpt><trkpt lat="50.906773445628055" lon="11.844663869683158"><ele>325.75</ele><time>2026-05-03T14:47:06.96Z</time></trkpt><trkpt lat="50.90688916591104" lon="11.844582461306121"><ele>327.5</ele><time>2026-05-03T14:47:07.96Z</time></trkpt><trkpt lat="50.90701039087276" lon="11.844498760706815"><ele>329.25</ele><time>2026-05-03T14:47:08.96Z</time></trkpt><trkpt lat="50.90713800039356" lon="11.844404606799605"><ele>331.0</ele><time>2026-05-03T14:47:09.96Z</time></trkpt><trkpt lat="50.907274501967954" lon="11.844304267937"><ele>330.66666666666663</ele><time>2026-05-03T14:47:10.96Z</time></trkpt><trkpt lat="50.90742195730774" lon="11.844192099826362"><ele>330.3333333333333</ele><time>2026-05-03T14:47:11.96Z</time></trkpt><trkpt lat="50.90757666003597" lon="11.84408180827894"><ele>330.0</ele><time>2026-05-03T14:47:12.96Z</time></trkpt><trkpt lat="50.9077421917718" lon="11.84397502342239"><ele>330.0</ele><time>2026-05-03T14:47:13.96Z</time></trkpt><trkpt lat="50.907908114081984" lon="11.843873792728001"><ele>330.0</ele><time>2026-05-03T14:47:14.96Z</time></trkpt><trkpt lat="50.90807266693025" lon="11.843775378438046"><ele>330.0</ele><time>2026-05-03T14:47:15.96Z</time></trkpt><trkpt lat="50.90822950069604" lon="11.843661882602554"><ele>330.0</ele><time>2026-05-03T14:47:16.96Z</time></trkpt><trkpt lat="50.90837791812089" lon="11.843550892737339"><ele>330.0</ele><time>2026-05-03T14:47:17.96Z</time></trkpt><trkpt lat="50.90851998179406" lon="11.84344341238207"><ele>330.0</ele><time>2026-05-03T14:47:18.96Z</time></trkpt><trkpt lat="50.90866859807757" lon="11.843321733084737"><ele>329.6666666666667</ele><time>2026-05-03T14:47:19.96Z</time></trkpt><trkpt lat="50.90881454437474" lon="11.843195713602114"><ele>329.33333333333337</ele><time>2026-05-03T14:47:20.96Z</time></trkpt><trkpt lat="50.90895000823903" lon="11.84309317775953"><ele>329.0</ele><time>2026-05-03T14:47:21.96Z</time></trkpt><trkpt lat="50.909098331156144" lon="11.843016470870689"><ele>329.33333333333337</ele><time>2026-05-03T14:47:22.96Z</time></trkpt><trkpt lat="50.90924812819272" lon="11.842963415872983"><ele>329.6666666666667</ele><time>2026-05-03T14:47:23.96Z</time></trkpt><trkpt lat="50.909402060161646" lon="11.842934743820518"><ele>330.0</ele><time>2026-05-03T14:47:24.96Z</time></trkpt><trkpt lat="50.9095537366078" lon="11.842925761700517"><ele>330.0</ele><time>2026-05-03T14:47:25.96Z</time></trkpt><trkpt lat="50.90971033796383" lon="11.84294049673597"><ele>330.0</ele><time>2026-05-03T14:47:26.96Z</time></trkpt><trkpt lat="50.90987326405956" lon="11.842980939172431"><ele>330.0</ele><time>2026-05-03T14:47:27.96Z</time></trkpt><trkpt lat="50.91003168244345" lon="11.843038077820504"><ele>329.3333333333333</ele><time>2026-05-03T14:47:28.96Z</time></trkpt><trkpt lat="50.9101853032248" lon="11.84310946222801"><ele>328.66666666666663</ele><time>2026-05-03T14:47:29.96Z</time></trkpt><trkpt lat="50.91033979441438" lon="11.843185345905788"><ele>328.0</ele><time>2026-05-03T14:47:30.96Z</time></trkpt><trkpt lat="50.910493932075234" lon="11.843254266066642"><ele>328.0</ele><time>2026-05-03T14:47:31.96Z</time></trkpt><trkpt lat="50.910652139086174" lon="11.843321453754085"><ele>328.0</ele><time>2026-05-03T14:47:32.96Z</time></trkpt><trkpt lat="50.91080571793127" lon="11.843386902924696"><ele>328.0</ele><time>2026-05-03T14:47:33.96Z</time></trkpt><trkpt lat="50.910948831925" lon="11.843446111527252"><ele>326.5</ele><time>2026-05-03T14:47:34.96Z</time></trkpt><trkpt lat="50.9110856438918" lon="11.843498914904714"><ele>325.0</ele><time>2026-05-03T14:47:35.96Z</time></trkpt><trkpt lat="50.911213660690464" lon="11.843537371869262"><ele>323.5</ele><time>2026-05-03T14:47:36.96Z</time></trkpt><trkpt lat="50.91133177490578" lon="11.84355047631398"><ele>322.0</ele><time>2026-05-03T14:47:37.96Z</time></trkpt><trkpt lat="50.911446263254966" lon="11.8435437099708"><ele>322.0</ele><time>2026-05-03T14:47:38.96Z</time></trkpt><trkpt lat="50.911540205038044" lon="11.843545854114517"><ele>322.0</ele><time>2026-05-03T14:47:39.96Z</time></trkpt><trkpt lat="50.911603600371116" lon="11.843550748259476"><ele>322.0</ele><time>2026-05-03T14:47:40.96Z</time></trkpt><trkpt lat="50.911680577513685" lon="11.843572513369327"><ele>322.0</ele><time>2026-05-03T14:47:42.96Z</time></trkpt><trkpt lat="50.91176255532422" lon="11.843647095431116"><ele>322.0</ele><time>2026-05-03T14:47:44.96Z</time></trkpt><trkpt lat="50.91181750048661" lon="11.843714400813546"><ele>322.0</ele><time>2026-05-03T14:47:45.96Z</time></trkpt><trkpt lat="50.911887671497766" lon="11.843732243794967"><ele>322.20000000000005</ele><time>2026-05-03T14:47:46.96Z</time></trkpt><trkpt lat="50.91195695119752" lon="11.843699407847927"><ele>322.4</ele><time>2026-05-03T14:47:47.96Z</time></trkpt><trkpt lat="50.9120529060042" lon="11.843527148866169"><ele>322.6</ele><time>2026-05-03T14:47:49.96Z</time></trkpt><trkpt lat="50.912025395308895" lon="11.843400856647182"><ele>322.79999999999995</ele><time>2026-05-03T14:47:50.96Z</time></trkpt><trkpt lat="50.911979173423724" lon="11.843310374447086"><ele>323.0</ele><time>2026-05-03T14:47:51.96Z</time></trkpt><trkpt lat="50.91191557519938" lon="11.843223289593825"><ele>323.0</ele><time>2026-05-03T14:47:52.96Z</time></trkpt><trkpt lat="50.911859249753824" lon="11.843115931350566"><ele>323.0</ele><time>2026-05-03T14:47:53.96Z</time></trkpt><trkpt lat="50.91181601112187" lon="11.842965985489508"><ele>323.0</ele><time>2026-05-03T14:47:54.96Z</time></trkpt><trkpt lat="50.91177660795999" lon="11.842776610817712"><ele>323.0</ele><time>2026-05-03T14:47:55.96Z</time></trkpt><trkpt lat="50.911736066055596" lon="11.842579848137108"><ele>323.0</ele><time>2026-05-03T14:47:56.96Z</time></trkpt><trkpt lat="50.911701352497005" lon="11.842372039354506"><ele>323.6666666666667</ele><time>2026-05-03T14:47:57.96Z</time></trkpt><trkpt lat="50.91166124452754" lon="11.8421511525857"><ele>324.3333333333333</ele><time>2026-05-03T14:47:58.96Z</time></trkpt><trkpt lat="50.91161356780133" lon="11.841923136945393"><ele>325.0</ele><time>2026-05-03T14:47:59.96Z</time></trkpt><trkpt lat="50.9115639507792" lon="11.84168933082628"><ele>323.66666666666663</ele><time>2026-05-03T14:48:00.96Z</time></trkpt><trkpt lat="50.91152812452781" lon="11.841453740905926"><ele>322.3333333333333</ele><time>2026-05-03T14:48:01.959Z</time></trkpt><trkpt lat="50.911478539763316" lon="11.841217439558868"><ele>321.0</ele><time>2026-05-03T14:48:02.958Z</time></trkpt><trkpt lat="50.91143827514342" lon="11.840981413287508"><ele>320.0</ele><time>2026-05-03T14:48:03.958Z</time></trkpt><trkpt lat="50.911392583305194" lon="11.840742483370896"><ele>319.0</ele><time>2026-05-03T14:48:04.958Z</time></trkpt><trkpt lat="50.91134629724472" lon="11.840522509315353"><ele>318.0</ele><time>2026-05-03T14:48:05.959Z</time></trkpt><trkpt lat="50.91130221658292" lon="11.84032213075185"><ele>317.0</ele><time>2026-05-03T14:48:06.959Z</time></trkpt><trkpt lat="50.91126539592344" lon="11.840136650852305"><ele>316.2</ele><time>2026-05-03T14:48:07.959Z</time></trkpt><trkpt lat="50.911233960746046" lon="11.839956248274436"><ele>315.4</ele><time>2026-05-03T14:48:08.958Z</time></trkpt><trkpt lat="50.911205504203004" lon="11.839785253054572"><ele>314.6</ele><time>2026-05-03T14:48:09.958Z</time></trkpt><trkpt lat="50.91117574656053" lon="11.839626518719111"><ele>313.8</ele><time>2026-05-03T14:48:10.958Z</time></trkpt><trkpt lat="50.91114798465422" lon="11.839470608944326"><ele>313.0</ele><time>2026-05-03T14:48:11.959Z</time></trkpt><trkpt lat="50.91113000631035" lon="11.83933904866223"><ele>313.0</ele><time>2026-05-03T14:48:12.959Z</time></trkpt><trkpt lat="50.91112483249531" lon="11.839231447294654"><ele>313.0</ele><time>2026-05-03T14:48:13.959Z</time></trkpt><trkpt lat="50.91113908299027" lon="11.839122067407024"><ele>313.0</ele><time>2026-05-03T14:48:14.958Z</time></trkpt><trkpt lat="50.91118890521321" lon="11.83902863798909"><ele>313.0</ele><time>2026-05-03T14:48:15.958Z</time></trkpt><trkpt lat="50.91126472618132" lon="11.838937572908426"><ele>313.0</ele><time>2026-05-03T14:48:16.958Z</time></trkpt><trkpt lat="50.911349996138995" lon="11.838875474774838"><ele>313.0</ele><time>2026-05-03T14:48:17.958Z</time></trkpt><trkpt lat="50.911461418339435" lon="11.838832253847551"><ele>313.0</ele><time>2026-05-03T14:48:18.958Z</time></trkpt><trkpt lat="50.911590067773794" lon="11.838819993594312"><ele>313.0</ele><time>2026-05-03T14:48:19.958Z</time></trkpt><trkpt lat="50.911723362702844" lon="11.83883952693259"><ele>313.0</ele><time>2026-05-03T14:48:20.958Z</time></trkpt><trkpt lat="50.911865385652" lon="11.838899617034766"><ele>313.0</ele><time>2026-05-03T14:48:21.958Z</time></trkpt><trkpt lat="50.91200764821613" lon="11.838981683852463"><ele>312.66666666666663</ele><time>2026-05-03T14:48:22.958Z</time></trkpt><trkpt lat="50.91215102429448" lon="11.839078764725837"><ele>312.3333333333333</ele><time>2026-05-03T14:48:23.958Z</time></trkpt><trkpt lat="50.91230795349836" lon="11.839173728614524"><ele>312.0</ele><time>2026-05-03T14:48:24.958Z</time></trkpt><trkpt lat="50.912466951166095" lon="11.839266191503405"><ele>313.6666666666667</ele><time>2026-05-03T14:48:25.958Z</time></trkpt><trkpt lat="50.91262585473155" lon="11.839364300580202"><ele>315.33333333333337</ele><time>2026-05-03T14:48:26.958Z</time></trkpt><trkpt lat="50.912794258211385" lon="11.839457411284059"><ele>317.0</ele><time>2026-05-03T14:48:27.958Z</time></trkpt><trkpt lat="50.912956186695496" lon="11.839533893215648"><ele>317.0</ele><time>2026-05-03T14:48:28.958Z</time></trkpt><trkpt lat="50.91310985395319" lon="11.83958252634061"><ele>317.0</ele><time>2026-05-03T14:48:29.958Z</time></trkpt><trkpt lat="50.91327479811743" lon="11.839607787397565"><ele>317.0</ele><time>2026-05-03T14:48:30.958Z</time></trkpt><trkpt lat="50.913442323329484" lon="11.839634272212118"><ele>318.0</ele><time>2026-05-03T14:48:31.958Z</time></trkpt><trkpt lat="50.91360677438023" lon="11.839615310578454"><ele>319.0</ele><time>2026-05-03T14:48:32.958Z</time></trkpt><trkpt lat="50.91376876653729" lon="11.839564427966923"><ele>320.0</ele><time>2026-05-03T14:48:33.958Z</time></trkpt><trkpt lat="50.91393276868683" lon="11.83948901941003"><ele>320.0</ele><time>2026-05-03T14:48:34.958Z</time></trkpt><trkpt lat="50.91409971577109" lon="11.83938458376798"><ele>320.0</ele><time>2026-05-03T14:48:35.958Z</time></trkpt><trkpt lat="50.91426720026202" lon="11.839269294193059"><ele>320.0</ele><time>2026-05-03T14:48:36.958Z</time></trkpt><trkpt lat="50.91442966754718" lon="11.839150645835192"><ele>321.0</ele><time>2026-05-03T14:48:37.958Z</time></trkpt><trkpt lat="50.914595195530694" lon="11.839029763363744"><ele>322.0</ele><time>2026-05-03T14:48:38.958Z</time></trkpt><trkpt lat="50.914765864252715" lon="11.838907300265742"><ele>323.0</ele><time>2026-05-03T14:48:39.958Z</time></trkpt><trkpt lat="50.91494273376109" lon="11.83878036508687"><ele>322.33333333333337</ele><time>2026-05-03T14:48:40.958Z</time></trkpt><trkpt lat="50.915112574827674" lon="11.838656237763997"><ele>321.6666666666667</ele><time>2026-05-03T14:48:41.958Z</time></trkpt><trkpt lat="50.915279613398376" lon="11.838534158541018"><ele>321.0</ele><time>2026-05-03T14:48:42.958Z</time></trkpt><trkpt lat="50.91545112991764" lon="11.83839483080961"><ele>320.3333333333333</ele><time>2026-05-03T14:48:43.958Z</time></trkpt><trkpt lat="50.915618800840264" lon="11.838261063891705"><ele>319.66666666666663</ele><time>2026-05-03T14:48:44.958Z</time></trkpt><trkpt lat="50.91579207372796" lon="11.838133576848362"><ele>319.0</ele><time>2026-05-03T14:48:45.958Z</time></trkpt><trkpt lat="50.915967915228165" lon="11.838019115390368"><ele>319.0</ele><time>2026-05-03T14:48:46.958Z</time></trkpt><trkpt lat="50.91614035813639" lon="11.837894404835598"><ele>319.0</ele><time>2026-05-03T14:48:47.958Z</time></trkpt><trkpt lat="50.9163141934933" lon="11.837770442507027"><ele>319.0</ele><time>2026-05-03T14:48:48.958Z</time></trkpt><trkpt lat="50.91648098778589" lon="11.83764477641088"><ele>318.3333333333333</ele><time>2026-05-03T14:48:49.958Z</time></trkpt><trkpt lat="50.91665189180377" lon="11.83751689510433"><ele>317.6666666666667</ele><time>2026-05-03T14:48:50.958Z</time></trkpt><trkpt lat="50.91682686637951" lon="11.837391933345243"><ele>317.0</ele><time>2026-05-03T14:48:51.958Z</time></trkpt><trkpt lat="50.91699750722382" lon="11.837267503417257"><ele>317.0</ele><time>2026-05-03T14:48:52.958Z</time></trkpt><trkpt lat="50.917166175905095" lon="11.837143875563674"><ele>317.0</ele><time>2026-05-03T14:48:53.958Z</time></trkpt><trkpt lat="50.91734084317237" lon="11.837018550157957"><ele>317.0</ele><time>2026-05-03T14:48:54.958Z</time></trkpt><trkpt lat="50.917511914383475" lon="11.836885216314625"><ele>315.6666666666667</ele><time>2026-05-03T14:48:55.958Z</time></trkpt><trkpt lat="50.917682844744604" lon="11.8367620890683"><ele>314.3333333333333</ele><time>2026-05-03T14:48:56.958Z</time></trkpt><trkpt lat="50.91786633523864" lon="11.836651605488752"><ele>313.0</ele><time>2026-05-03T14:48:57.958Z</time></trkpt><trkpt lat="50.91804123390328" lon="11.836524019718329"><ele>313.0</ele><time>2026-05-03T14:48:58.958Z</time></trkpt><trkpt lat="50.91821834905998" lon="11.836394817051419"><ele>313.0</ele><time>2026-05-03T14:48:59.958Z</time></trkpt><trkpt lat="50.91839189936688" lon="11.836268214881715"><ele>313.0</ele><time>2026-05-03T14:49:00.958Z</time></trkpt><trkpt lat="50.91856728531308" lon="11.836140273663316"><ele>313.66666666666663</ele><time>2026-05-03T14:49:01.958Z</time></trkpt><trkpt lat="50.91873534047761" lon="11.835991700399111"><ele>314.3333333333333</ele><time>2026-05-03T14:49:02.958Z</time></trkpt><trkpt lat="50.918913096373856" lon="11.835877893630002"><ele>315.0</ele><time>2026-05-03T14:49:03.958Z</time></trkpt><trkpt lat="50.91908111066499" lon="11.83575231007749"><ele>314.3333333333333</ele><time>2026-05-03T14:49:04.958Z</time></trkpt><trkpt lat="50.91925571944678" lon="11.83563556224237"><ele>313.66666666666663</ele><time>2026-05-03T14:49:05.958Z</time></trkpt><trkpt lat="50.91942908894226" lon="11.835514016817001"><ele>313.0</ele><time>2026-05-03T14:49:06.958Z</time></trkpt><trkpt lat="50.919604165776136" lon="11.83539909237914"><ele>313.0</ele><time>2026-05-03T14:49:07.958Z</time></trkpt><trkpt lat="50.91977401800777" lon="11.835266369735514"><ele>313.0</ele><time>2026-05-03T14:49:08.958Z</time></trkpt><trkpt lat="50.91994792535799" lon="11.83513731930428"><ele>313.0</ele><time>2026-05-03T14:49:09.958Z</time></trkpt><trkpt lat="50.92012069707505" lon="11.835012351823963"><ele>312.66666666666663</ele><time>2026-05-03T14:49:10.958Z</time></trkpt><trkpt lat="50.92029474419331" lon="11.834885742357017"><ele>312.3333333333333</ele><time>2026-05-03T14:49:11.958Z</time></trkpt><trkpt lat="50.92046346021931" lon="11.834760190779464"><ele>312.0</ele><time>2026-05-03T14:49:12.958Z</time></trkpt><trkpt lat="50.920632978330886" lon="11.8346326376757"><ele>312.0</ele><time>2026-05-03T14:49:13.958Z</time></trkpt><trkpt lat="50.920806539870746" lon="11.83451183107841"><ele>312.0</ele><time>2026-05-03T14:49:14.958Z</time></trkpt><trkpt lat="50.92097655331236" lon="11.834393893562115"><ele>312.0</ele><time>2026-05-03T14:49:15.958Z</time></trkpt><trkpt lat="50.92114702958523" lon="11.834274865327664"><ele>311.0</ele><time>2026-05-03T14:49:16.958Z</time></trkpt><trkpt lat="50.92131518985357" lon="11.83415758214009"><ele>310.0</ele><time>2026-05-03T14:49:17.958Z</time></trkpt><trkpt lat="50.921480914803865" lon="11.834036189374984"><ele>309.0</ele><time>2026-05-03T14:49:18.958Z</time></trkpt><trkpt lat="50.92164219806192" lon="11.833911200298264"><ele>307.6666666666667</ele><time>2026-05-03T14:49:19.958Z</time></trkpt><trkpt lat="50.92180620845906" lon="11.833791045288184"><ele>306.33333333333337</ele><time>2026-05-03T14:49:20.958Z</time></trkpt><trkpt lat="50.92197408408354" lon="11.83367199354786"><ele>305.0</ele><time>2026-05-03T14:49:21.958Z</time></trkpt><trkpt lat="50.92214019972084" lon="11.83354818087557"><ele>305.6666666666667</ele><time>2026-05-03T14:49:22.958Z</time></trkpt><trkpt lat="50.92230408091124" lon="11.833427427486134"><ele>306.3333333333333</ele><time>2026-05-03T14:49:23.958Z</time></trkpt><trkpt lat="50.92246477272251" lon="11.833309658914198"><ele>307.0</ele><time>2026-05-03T14:49:24.958Z</time></trkpt><trkpt lat="50.922623053917526" lon="11.833198368173404"><ele>308.66666666666663</ele><time>2026-05-03T14:49:25.958Z</time></trkpt><trkpt lat="50.922785340386596" lon="11.83308439702986"><ele>310.3333333333333</ele><time>2026-05-03T14:49:26.958Z</time></trkpt><trkpt lat="50.92295658938089" lon="11.832977355784598"><ele>312.0</ele><time>2026-05-03T14:49:27.958Z</time></trkpt><trkpt lat="50.92312472667777" lon="11.8328555302142"><ele>312.0</ele><time>2026-05-03T14:49:28.958Z</time></trkpt><trkpt lat="50.92328662013429" lon="11.83271116806603"><ele>312.0</ele><time>2026-05-03T14:49:29.958Z</time></trkpt><trkpt lat="50.92345921352799" lon="11.832615945938628"><ele>312.0</ele><time>2026-05-03T14:49:30.958Z</time></trkpt><trkpt lat="50.9236274830247" lon="11.832495011012506"><ele>314.3333333333333</ele><time>2026-05-03T14:49:31.958Z</time></trkpt><trkpt lat="50.92379374257139" lon="11.832373649705124"><ele>316.66666666666663</ele><time>2026-05-03T14:49:32.958Z</time></trkpt><trkpt lat="50.9239572248287" lon="11.83225316661157"><ele>319.0</ele><time>2026-05-03T14:49:33.958Z</time></trkpt><trkpt lat="50.92412031363786" lon="11.832132926742235"><ele>318.3333333333333</ele><time>2026-05-03T14:49:34.958Z</time></trkpt><trkpt lat="50.924286316978" lon="11.832010619886802"><ele>317.6666666666667</ele><time>2026-05-03T14:49:35.958Z</time></trkpt><trkpt lat="50.92444984183447" lon="11.831890361830206"><ele>317.0</ele><time>2026-05-03T14:49:36.958Z</time></trkpt><trkpt lat="50.92461035479831" lon="11.831772318752687"><ele>316.0</ele><time>2026-05-03T14:49:37.958Z</time></trkpt><trkpt lat="50.92476618708887" lon="11.83165771789573"><ele>315.0</ele><time>2026-05-03T14:49:38.958Z</time></trkpt><trkpt lat="50.924919163351596" lon="11.831545217396293"><ele>314.0</ele><time>2026-05-03T14:49:39.958Z</time></trkpt><trkpt lat="50.92506906898454" lon="11.831434975074199"><ele>317.0</ele><time>2026-05-03T14:49:40.958Z</time></trkpt><trkpt lat="50.92521743247155" lon="11.831325866861588"><ele>320.0</ele><time>2026-05-03T14:49:41.958Z</time></trkpt><trkpt lat="50.92536234700504" lon="11.831220017985228"><ele>323.0</ele><time>2026-05-03T14:49:42.958Z</time></trkpt><trkpt lat="50.925502766233635" lon="11.83109551672025"><ele>323.0</ele><time>2026-05-03T14:49:43.958Z</time></trkpt><trkpt lat="50.92564249381442" lon="11.830994561061331"><ele>323.0</ele><time>2026-05-03T14:49:44.958Z</time></trkpt><trkpt lat="50.92578259774752" lon="11.830897451373172"><ele>323.0</ele><time>2026-05-03T14:49:45.958Z</time></trkpt><trkpt lat="50.92592936418235" lon="11.830811020285136"><ele>325.0</ele><time>2026-05-03T14:49:46.958Z</time></trkpt><trkpt lat="50.926064065690966" lon="11.830712923662277"><ele>327.0</ele><time>2026-05-03T14:49:47.958Z</time></trkpt><trkpt lat="50.92619633585874" lon="11.830617336503305"><ele>329.0</ele><time>2026-05-03T14:49:48.958Z</time></trkpt><trkpt lat="50.92632840419802" lon="11.830523318335432"><ele>331.0</ele><time>2026-05-03T14:49:49.958Z</time></trkpt><trkpt lat="50.92646531550338" lon="11.830425852447386"><ele>331.0</ele><time>2026-05-03T14:49:50.958Z</time></trkpt><trkpt lat="50.926591666658645" lon="11.830335202755048"><ele>331.0</ele><time>2026-05-03T14:49:51.958Z</time></trkpt><trkpt lat="50.92671293572922" lon="11.830248154738367"><ele>331.0</ele><time>2026-05-03T14:49:52.958Z</time></trkpt><trkpt lat="50.926830478791196" lon="11.83016983211531"><ele>331.0</ele><time>2026-05-03T14:49:53.958Z</time></trkpt><trkpt lat="50.92694262072222" lon="11.830084082284932"><ele>331.25</ele><time>2026-05-03T14:49:54.958Z</time></trkpt><trkpt lat="50.927073765057095" lon="11.830054215972181"><ele>331.5</ele><time>2026-05-03T14:49:55.958Z</time></trkpt><trkpt lat="50.927201547519154" lon="11.830056914062503"><ele>331.75</ele><time>2026-05-03T14:49:56.959Z</time></trkpt><trkpt lat="50.92733566216994" lon="11.83010548167207"><ele>332.0</ele><time>2026-05-03T14:49:57.959Z</time></trkpt><trkpt lat="50.9274867886878" lon="11.830204813600139"><ele>329.33333333333337</ele><time>2026-05-03T14:49:58.959Z</time></trkpt><trkpt lat="50.927641914656334" lon="11.830302281258877"><ele>326.6666666666667</ele><time>2026-05-03T14:49:59.959Z</time></trkpt><trkpt lat="50.9277848105407" lon="11.83040093950537"><ele>324.0</ele><time>2026-05-03T14:50:00.959Z</time></trkpt><trkpt lat="50.92793018709326" lon="11.830499221436709"><ele>324.0</ele><time>2026-05-03T14:50:01.959Z</time></trkpt><trkpt lat="50.92806500265231" lon="11.83059179842335"><ele>324.0</ele><time>2026-05-03T14:50:02.959Z</time></trkpt><trkpt lat="50.92819823405024" lon="11.830683946692146"><ele>324.0</ele><time>2026-05-03T14:50:03.959Z</time></trkpt><trkpt lat="50.928318695233116" lon="11.830771843996517"><ele>324.0</ele><time>2026-05-03T14:50:04.959Z</time></trkpt><trkpt lat="50.92843082115089" lon="11.830854802724543"><ele>322.75</ele><time>2026-05-03T14:50:05.959Z</time></trkpt><trkpt lat="50.92853362319565" lon="11.830937290255417"><ele>321.5</ele><time>2026-05-03T14:50:06.959Z</time></trkpt><trkpt lat="50.92863729989552" lon="11.831016274407917"><ele>320.25</ele><time>2026-05-03T14:50:07.958Z</time></trkpt><trkpt lat="50.92874478035679" lon="11.831081152394315"><ele>319.0</ele><time>2026-05-03T14:50:08.958Z</time></trkpt><trkpt lat="50.92885527503402" lon="11.831138132327089"><ele>319.0</ele><time>2026-05-03T14:50:09.958Z</time></trkpt><trkpt lat="50.928978026717445" lon="11.831180794023451"><ele>319.0</ele><time>2026-05-03T14:50:10.958Z</time></trkpt><trkpt lat="50.929104127784626" lon="11.831196602608781"><ele>319.0</ele><time>2026-05-03T14:50:11.958Z</time></trkpt><trkpt lat="50.92922896318017" lon="11.83118223252761"><ele>319.0</ele><time>2026-05-03T14:50:12.958Z</time></trkpt><trkpt lat="50.929348458875616" lon="11.831139817737697"><ele>319.0</ele><time>2026-05-03T14:50:13.958Z</time></trkpt><trkpt lat="50.92946421918611" lon="11.83107212106154"><ele>319.0</ele><time>2026-05-03T14:50:14.958Z</time></trkpt><trkpt lat="50.92957209655483" lon="11.830971450391852"><ele>319.0</ele><time>2026-05-03T14:50:15.958Z</time></trkpt><trkpt lat="50.92966217219856" lon="11.830836786280603"><ele>319.0</ele><time>2026-05-03T14:50:16.958Z</time></trkpt><trkpt lat="50.92973859869816" lon="11.830683417012436"><ele>318.75</ele><time>2026-05-03T14:50:17.958Z</time></trkpt><trkpt lat="50.92981552347827" lon="11.83052455572932"><ele>318.5</ele><time>2026-05-03T14:50:18.958Z</time></trkpt><trkpt lat="50.929910015209" lon="11.830379414098362"><ele>318.25</ele><time>2026-05-03T14:50:19.958Z</time></trkpt><trkpt lat="50.93002186173984" lon="11.830249756906007"><ele>318.0</ele><time>2026-05-03T14:50:20.958Z</time></trkpt><trkpt lat="50.93014170004794" lon="11.830128336869238"><ele>321.6666666666667</ele><time>2026-05-03T14:50:21.958Z</time></trkpt><trkpt lat="50.93027119807377" lon="11.829999801357584"><ele>325.33333333333337</ele><time>2026-05-03T14:50:22.958Z</time></trkpt><trkpt lat="50.93040671495746" lon="11.829869367658878"><ele>329.0</ele><time>2026-05-03T14:50:23.958Z</time></trkpt><trkpt lat="50.93055312719862" lon="11.829762823630814"><ele>329.0</ele><time>2026-05-03T14:50:24.958Z</time></trkpt><trkpt lat="50.93068658157796" lon="11.82961491952202"><ele>329.0</ele><time>2026-05-03T14:50:25.958Z</time></trkpt><trkpt lat="50.930837987312096" lon="11.829480489748235"><ele>329.0</ele><time>2026-05-03T14:50:26.958Z</time></trkpt><trkpt lat="50.930989701473244" lon="11.82934551581742"><ele>331.33333333333337</ele><time>2026-05-03T14:50:27.958Z</time></trkpt><trkpt lat="50.93113944580365" lon="11.829210382885027"><ele>333.6666666666667</ele><time>2026-05-03T14:50:28.958Z</time></trkpt><trkpt lat="50.9312957068848" lon="11.829072075263328"><ele>336.0</ele><time>2026-05-03T14:50:29.958Z</time></trkpt><trkpt lat="50.931449724466454" lon="11.82893244309438"><ele>336.0</ele><time>2026-05-03T14:50:30.958Z</time></trkpt><trkpt lat="50.93161028917491" lon="11.828811190563282"><ele>336.0</ele><time>2026-05-03T14:50:31.958Z</time></trkpt><trkpt lat="50.931780788199326" lon="11.828704146314054"><ele>336.0</ele><time>2026-05-03T14:50:32.958Z</time></trkpt><trkpt lat="50.93195891741582" lon="11.828618697757864"><ele>336.3333333333333</ele><time>2026-05-03T14:50:33.958Z</time></trkpt><trkpt lat="50.932138718216216" lon="11.828542509517783"><ele>336.66666666666663</ele><time>2026-05-03T14:50:34.958Z</time></trkpt><trkpt lat="50.932315711804016" lon="11.828466902585475"><ele>337.0</ele><time>2026-05-03T14:50:35.958Z</time></trkpt><trkpt lat="50.93249481148736" lon="11.828413841804515"><ele>338.66666666666663</ele><time>2026-05-03T14:50:36.958Z</time></trkpt><trkpt lat="50.9326606400744" lon="11.828341940012782"><ele>340.3333333333333</ele><time>2026-05-03T14:50:37.958Z</time></trkpt><trkpt lat="50.93282455310773" lon="11.828269919121878"><ele>342.0</ele><time>2026-05-03T14:50:38.958Z</time></trkpt><trkpt lat="50.93298840103792" lon="11.828197571031433"><ele>342.0</ele><time>2026-05-03T14:50:39.958Z</time></trkpt><trkpt lat="50.933155693188034" lon="11.828123702016114"><ele>342.0</ele><time>2026-05-03T14:50:40.958Z</time></trkpt><trkpt lat="50.93332004409789" lon="11.828051131980063"><ele>342.0</ele><time>2026-05-03T14:50:41.958Z</time></trkpt><trkpt lat="50.93348766434343" lon="11.827978840402091"><ele>342.3333333333333</ele><time>2026-05-03T14:50:42.958Z</time></trkpt><trkpt lat="50.933646882520215" lon="11.8279103948673"><ele>342.66666666666663</ele><time>2026-05-03T14:50:43.958Z</time></trkpt><trkpt lat="50.93381032351377" lon="11.827813411300518"><ele>343.0</ele><time>2026-05-03T14:50:44.958Z</time></trkpt><trkpt lat="50.933982769869154" lon="11.827763842671834"><ele>343.0</ele><time>2026-05-03T14:50:45.958Z</time></trkpt><trkpt lat="50.934149173211125" lon="11.827690662829504"><ele>343.0</ele><time>2026-05-03T14:50:46.958Z</time></trkpt><trkpt lat="50.934320122929805" lon="11.82761548363432"><ele>343.0</ele><time>2026-05-03T14:50:47.958Z</time></trkpt><trkpt lat="50.93449640413528" lon="11.827537959741774"><ele>340.3333333333333</ele><time>2026-05-03T14:50:48.958Z</time></trkpt><trkpt lat="50.93467195334135" lon="11.827460757773148"><ele>337.6666666666667</ele><time>2026-05-03T14:50:49.958Z</time></trkpt><trkpt lat="50.93483293606319" lon="11.827390490548822"><ele>335.0</ele><time>2026-05-03T14:50:50.958Z</time></trkpt><trkpt lat="50.93497939314869" lon="11.827326893327168"><ele>333.6</ele><time>2026-05-03T14:50:51.958Z</time></trkpt><trkpt lat="50.9351140546459" lon="11.827268418379584"><ele>332.2</ele><time>2026-05-03T14:50:52.958Z</time></trkpt><trkpt lat="50.935227809089646" lon="11.827219021874017"><ele>330.79999999999995</ele><time>2026-05-03T14:50:53.958Z</time></trkpt><trkpt lat="50.935307087231905" lon="11.827184596498142"><ele>329.4</ele><time>2026-05-03T14:50:54.958Z</time></trkpt><trkpt lat="50.93538928120644" lon="11.827150216736518"><ele>328.0</ele><time>2026-05-03T14:50:56.958Z</time></trkpt><trkpt lat="50.93538242423072" lon="11.826890880258592"><ele>328.4</ele><time>2026-05-03T14:50:57.958Z</time></trkpt><trkpt lat="50.93535668740796" lon="11.826743407999802"><ele>328.79999999999995</ele><time>2026-05-03T14:50:58.958Z</time></trkpt><trkpt lat="50.93532645161826" lon="11.826578117524162"><ele>329.2</ele><time>2026-05-03T14:50:59.958Z</time></trkpt><trkpt lat="50.93529914978742" lon="11.826428866014473"><ele>329.6</ele><time>2026-05-03T14:51:00.958Z</time></trkpt><trkpt lat="50.93526091916774" lon="11.826313159006043"><ele>330.0</ele><time>2026-05-03T14:51:01.958Z</time></trkpt><trkpt lat="50.93525271386129" lon="11.8262057469588"><ele>330.0</ele><time>2026-05-03T14:51:02.958Z</time></trkpt><trkpt lat="50.93522728086296" lon="11.826052947496123"><ele>330.0</ele><time>2026-05-03T14:51:04.958Z</time></trkpt><trkpt lat="50.935191491722165" lon="11.82588574690226"><ele>330.0</ele><time>2026-05-03T14:51:06.958Z</time></trkpt><trkpt lat="50.93516699466145" lon="11.825789322030056"><ele>330.0</ele><time>2026-05-03T14:51:07.958Z</time></trkpt><trkpt lat="50.93514497457721" lon="11.825681961408973"><ele>330.0</ele><time>2026-05-03T14:51:08.958Z</time></trkpt><trkpt lat="50.93512928756895" lon="11.825531885427202"><ele>330.0</ele><time>2026-05-03T14:51:10.958Z</time></trkpt><trkpt lat="50.93511336310615" lon="11.825422720607952"><ele>330.0</ele><time>2026-05-03T14:51:13.958Z</time></trkpt><trkpt lat="50.93513797474692" lon="11.825553300878779"><ele>330.0</ele><time>2026-05-03T14:51:18.958Z</time></trkpt><trkpt lat="50.93516280101338" lon="11.825661431058624"><ele>330.0</ele><time>2026-05-03T14:51:21.958Z</time></trkpt><trkpt lat="50.935171091215345" lon="11.825786872181965"><ele>330.0</ele><time>2026-05-03T14:51:23.958Z</time></trkpt><trkpt lat="50.935214684307184" lon="11.82596740955821"><ele>330.0</ele><time>2026-05-03T14:51:25.958Z</time></trkpt><trkpt lat="50.93522261920039" lon="11.826105138055961"><ele>330.0</ele><time>2026-05-03T14:51:26.958Z</time></trkpt><trkpt lat="50.93525049714552" lon="11.826253154307572"><ele>330.0</ele><time>2026-05-03T14:51:27.958Z</time></trkpt><trkpt lat="50.935279492960085" lon="11.826409838289134"><ele>330.0</ele><time>2026-05-03T14:51:28.958Z</time></trkpt><trkpt lat="50.93532115069949" lon="11.826549149147507"><ele>330.0</ele><time>2026-05-03T14:51:29.958Z</time></trkpt><trkpt lat="50.93534390835187" lon="11.826676032503366"><ele>330.0</ele><time>2026-05-03T14:51:30.958Z</time></trkpt><trkpt lat="50.93534581204327" lon="11.82678952814007"><ele>330.0</ele><time>2026-05-03T14:51:31.958Z</time></trkpt><trkpt lat="50.93537654404054" lon="11.826940221379113"><ele>329.6666666666667</ele><time>2026-05-03T14:51:33.958Z</time></trkpt><trkpt lat="50.93537386587486" lon="11.827042913592466"><ele>329.3333333333333</ele><time>2026-05-03T14:51:36.958Z</time></trkpt><trkpt lat="50.93534406100817" lon="11.827152944276728"><ele>329.0</ele><time>2026-05-03T14:51:39.958Z</time></trkpt><trkpt lat="50.935278942825114" lon="11.827203806372848"><ele>328.66666666666663</ele><time>2026-05-03T14:51:40.958Z</time></trkpt><trkpt lat="50.93519115550414" lon="11.827222599763257"><ele>328.3333333333333</ele><time>2026-05-03T14:51:41.958Z</time></trkpt><trkpt lat="50.93509222348007" lon="11.827242717703687"><ele>328.0</ele><time>2026-05-03T14:51:42.958Z</time></trkpt><trkpt lat="50.93498565460236" lon="11.827281574258336"><ele>329.75</ele><time>2026-05-03T14:51:43.958Z</time></trkpt><trkpt lat="50.93486303702128" lon="11.827336471989343"><ele>331.5</ele><time>2026-05-03T14:51:44.958Z</time></trkpt><trkpt lat="50.93473135807264" lon="11.827394492205944"><ele>333.25</ele><time>2026-05-03T14:51:45.958Z</time></trkpt><trkpt lat="50.93458847221748" lon="11.827458256178977"><ele>335.0</ele><time>2026-05-03T14:51:46.958Z</time></trkpt><trkpt lat="50.93444153384543" lon="11.827523182491374"><ele>335.0</ele><time>2026-05-03T14:51:47.958Z</time></trkpt><trkpt lat="50.934287117520626" lon="11.8275972003977"><ele>335.0</ele><time>2026-05-03T14:51:48.958Z</time></trkpt><trkpt lat="50.93411556327501" lon="11.827660813063291"><ele>335.0</ele><time>2026-05-03T14:51:49.958Z</time></trkpt><trkpt lat="50.933952341267236" lon="11.827733213330728"><ele>337.6666666666667</ele><time>2026-05-03T14:51:50.958Z</time></trkpt><trkpt lat="50.933789192461795" lon="11.827804277624256"><ele>340.3333333333333</ele><time>2026-05-03T14:51:51.958Z</time></trkpt><trkpt lat="50.933639411238886" lon="11.8278709142045"><ele>343.0</ele><time>2026-05-03T14:51:52.958Z</time></trkpt><trkpt lat="50.933496711987594" lon="11.827932760565528"><ele>342.75</ele><time>2026-05-03T14:51:53.958Z</time></trkpt><trkpt lat="50.933368405411876" lon="11.827984579772604"><ele>342.5</ele><time>2026-05-03T14:51:54.958Z</time></trkpt><trkpt lat="50.93324083978653" lon="11.828035862158043"><ele>342.25</ele><time>2026-05-03T14:51:55.958Z</time></trkpt><trkpt lat="50.9331086485972" lon="11.828097826416244"><ele>342.0</ele><time>2026-05-03T14:51:56.958Z</time></trkpt><trkpt lat="50.93297707386711" lon="11.828154660286943"><ele>342.0</ele><time>2026-05-03T14:51:57.958Z</time></trkpt><trkpt lat="50.93284049033627" lon="11.828214200235745"><ele>342.0</ele><time>2026-05-03T14:51:58.958Z</time></trkpt><trkpt lat="50.93269983597722" lon="11.828270197180844"><ele>342.0</ele><time>2026-05-03T14:51:59.958Z</time></trkpt><trkpt lat="50.932550208940896" lon="11.828334439224248"><ele>342.0</ele><time>2026-05-03T14:52:00.958Z</time></trkpt><trkpt lat="50.932395873894734" lon="11.828410771758213"><ele>340.3333333333333</ele><time>2026-05-03T14:52:01.958Z</time></trkpt><trkpt lat="50.932245690210785" lon="11.828484985428805"><ele>338.66666666666663</ele><time>2026-05-03T14:52:02.958Z</time></trkpt><trkpt lat="50.932099554935476" lon="11.828552942370726"><ele>337.0</ele><time>2026-05-03T14:52:03.958Z</time></trkpt><trkpt lat="50.93195420194083" lon="11.82861098957582"><ele>337.0</ele><time>2026-05-03T14:52:04.958Z</time></trkpt><trkpt lat="50.93181195058298" lon="11.828671788100314"><ele>337.0</ele><time>2026-05-03T14:52:05.958Z</time></trkpt><trkpt lat="50.93166361209268" lon="11.828727388422974"><ele>337.0</ele><time>2026-05-03T14:52:06.958Z</time></trkpt><trkpt lat="50.93152749779307" lon="11.828830643228395"><ele>336.66666666666663</ele><time>2026-05-03T14:52:07.958Z</time></trkpt><trkpt lat="50.931389809587884" lon="11.828948516839992"><ele>336.3333333333333</ele><time>2026-05-03T14:52:08.958Z</time></trkpt><trkpt lat="50.93125839643095" lon="11.829065705209178"><ele>336.0</ele><time>2026-05-03T14:52:09.958Z</time></trkpt><trkpt lat="50.93112911934978" lon="11.82918099131554"><ele>336.0</ele><time>2026-05-03T14:52:10.958Z</time></trkpt><trkpt lat="50.93100216601416" lon="11.829294202539932"><ele>336.0</ele><time>2026-05-03T14:52:11.958Z</time></trkpt><trkpt lat="50.93087018380983" lon="11.8294136770829"><ele>336.0</ele><time>2026-05-03T14:52:12.958Z</time></trkpt><trkpt lat="50.9307468582494" lon="11.829526291798258"><ele>336.0</ele><time>2026-05-03T14:52:13.957Z</time></trkpt><trkpt lat="50.93062520947422" lon="11.829636752999894"><ele>334.25</ele><time>2026-05-03T14:52:14.958Z</time></trkpt><trkpt lat="50.930508681119846" lon="11.829742310512525"><ele>332.5</ele><time>2026-05-03T14:52:15.958Z</time></trkpt><trkpt lat="50.930394140669215" lon="11.829845518115725"><ele>330.75</ele><time>2026-05-03T14:52:16.958Z</time></trkpt><trkpt lat="50.930290160496114" lon="11.829939210379067"><ele>329.0</ele><time>2026-05-03T14:52:17.958Z</time></trkpt><trkpt lat="50.930195814162836" lon="11.830026527656363"><ele>329.0</ele><time>2026-05-03T14:52:18.958Z</time></trkpt><trkpt lat="50.930117174048334" lon="11.830102033570679"><ele>329.0</ele><time>2026-05-03T14:52:19.957Z</time></trkpt><trkpt lat="50.93005107360071" lon="11.830167699565722"><ele>329.0</ele><time>2026-05-03T14:52:20.958Z</time></trkpt><trkpt lat="50.929993351730985" lon="11.830228879894792"><ele>329.0</ele><time>2026-05-03T14:52:21.958Z</time></trkpt><trkpt lat="50.929936397789966" lon="11.830321557040513"><ele>329.0</ele><time>2026-05-03T14:52:23.958Z</time></trkpt><trkpt lat="50.92989281589335" lon="11.830243380266522"><ele>329.0</ele><time>2026-05-03T14:52:26.958Z</time></trkpt><trkpt lat="50.92985876946109" lon="11.830108839594574"><ele>327.6666666666667</ele><time>2026-05-03T14:52:29.958Z</time></trkpt><trkpt lat="50.92986369039359" lon="11.829962608030653"><ele>326.33333333333337</ele><time>2026-05-03T14:52:31.958Z</time></trkpt><trkpt lat="50.92985345898749" lon="11.829836588126609"><ele>325.0</ele><time>2026-05-03T14:52:33.958Z</time></trkpt><trkpt lat="50.92986584667885" lon="11.829727357576646"><ele>323.6666666666667</ele><time>2026-05-03T14:52:35.958Z</time></trkpt><trkpt lat="50.929888554928475" lon="11.829606290068732"><ele>322.3333333333333</ele><time>2026-05-03T14:52:38.958Z</time></trkpt><trkpt lat="50.92990295277655" lon="11.829470140815717"><ele>321.0</ele><time>2026-05-03T14:52:42.958Z</time></trkpt><trkpt lat="50.92990754081634" lon="11.829325344861939"><ele>321.1666666666667</ele><time>2026-05-03T14:52:45.958Z</time></trkpt><trkpt lat="50.92991935823208" lon="11.82920491034353"><ele>321.3333333333333</ele><time>2026-05-03T14:52:47.958Z</time></trkpt><trkpt lat="50.92993322731303" lon="11.829084331767113"><ele>321.5</ele><time>2026-05-03T14:52:49.958Z</time></trkpt><trkpt lat="50.92994713208264" lon="11.828963505539633"><ele>321.66666666666663</ele><time>2026-05-03T14:52:51.958Z</time></trkpt><trkpt lat="50.92996171564462" lon="11.828840345585139"><ele>321.8333333333333</ele><time>2026-05-03T14:52:53.958Z</time></trkpt><trkpt lat="50.929973714699926" lon="11.828712686237871"><ele>322.0</ele><time>2026-05-03T14:52:55.958Z</time></trkpt><trkpt lat="50.92998070121234" lon="11.828600966398126"><ele>322.0</ele><time>2026-05-03T14:52:57.958Z</time></trkpt><trkpt lat="50.9299872145402" lon="11.828473807238503"><ele>322.0</ele><time>2026-05-03T14:52:59.958Z</time></trkpt><trkpt lat="50.92999332346249" lon="11.82835220098567"><ele>322.0</ele><time>2026-05-03T14:53:01.958Z</time></trkpt><trkpt lat="50.92999464309863" lon="11.828248420271763"><ele>322.0</ele><time>2026-05-03T14:53:05.958Z</time></trkpt><trkpt lat="50.93000206307048" lon="11.828410926131214"><ele>322.0</ele><time>2026-05-03T14:53:26.958Z</time></trkpt><trkpt lat="50.92999567691512" lon="11.828540776212582"><ele>322.0</ele><time>2026-05-03T14:53:27.958Z</time></trkpt><trkpt lat="50.929989437385466" lon="11.828667644530011"><ele>322.0</ele><time>2026-05-03T14:53:28.958Z</time></trkpt><trkpt lat="50.9299796715457" lon="11.828783932658595"><ele>322.0</ele><time>2026-05-03T14:53:29.958Z</time></trkpt><trkpt lat="50.92996539874549" lon="11.828913391808229"><ele>322.0</ele><time>2026-05-03T14:53:30.958Z</time></trkpt><trkpt lat="50.92995510552769" lon="11.829017985191204"><ele>322.0</ele><time>2026-05-03T14:53:31.958Z</time></trkpt><trkpt lat="50.92993855987023" lon="11.82914431361391"><ele>322.0</ele><time>2026-05-03T14:53:32.958Z</time></trkpt><trkpt lat="50.92992534721899" lon="11.829259422945105"><ele>322.0</ele><time>2026-05-03T14:53:33.958Z</time></trkpt><trkpt lat="50.92990212483378" lon="11.8294005826773"><ele>321.8333333333333</ele><time>2026-05-03T14:53:34.958Z</time></trkpt><trkpt lat="50.92988419709174" lon="11.829524116843222"><ele>321.66666666666663</ele><time>2026-05-03T14:53:35.958Z</time></trkpt><trkpt lat="50.92986647018317" lon="11.82967754065578"><ele>321.5</ele><time>2026-05-03T14:53:37.958Z</time></trkpt><trkpt lat="50.92985669958975" lon="11.829783425240242"><ele>321.3333333333333</ele><time>2026-05-03T14:53:41.958Z</time></trkpt><trkpt lat="50.9298579918705" lon="11.829910843076592"><ele>321.1666666666667</ele><time>2026-05-03T14:53:49.958Z</time></trkpt><trkpt lat="50.92985212870853" lon="11.830047446778641"><ele>321.0</ele><time>2026-05-03T14:53:51.958Z</time></trkpt><trkpt lat="50.929854887648524" lon="11.830205039735686"><ele>320.25</ele><time>2026-05-03T14:53:53.958Z</time></trkpt><trkpt lat="50.92985812085016" lon="11.83036734779095"><ele>319.5</ele><time>2026-05-03T14:53:56.958Z</time></trkpt><trkpt lat="50.92971334597805" lon="11.830626479561197"><ele>318.75</ele><time>2026-05-03T14:53:58.958Z</time></trkpt><trkpt lat="50.92964844459669" lon="11.830746501675335"><ele>318.0</ele><time>2026-05-03T14:53:59.958Z</time></trkpt><trkpt lat="50.92957664253728" lon="11.830877418145212"><ele>318.25</ele><time>2026-05-03T14:54:00.958Z</time></trkpt><trkpt lat="50.92948444611752" lon="11.830986335947209"><ele>318.5</ele><time>2026-05-03T14:54:01.958Z</time></trkpt><trkpt lat="50.929371294977166" lon="11.831053320178523"><ele>318.75</ele><time>2026-05-03T14:54:02.958Z</time></trkpt><trkpt lat="50.929240073540264" lon="11.83108611165075"><ele>319.0</ele><time>2026-05-03T14:54:03.958Z</time></trkpt><trkpt lat="50.9291061335608" lon="11.831097414267214"><ele>319.0</ele><time>2026-05-03T14:54:04.958Z</time></trkpt><trkpt lat="50.92897566079206" lon="11.8310898588362"><ele>319.0</ele><time>2026-05-03T14:54:05.958Z</time></trkpt><trkpt lat="50.928860286110194" lon="11.831044222021989"><ele>319.0</ele><time>2026-05-03T14:54:06.958Z</time></trkpt><trkpt lat="50.92875424175672" lon="11.830992283898254"><ele>319.0</ele><time>2026-05-03T14:54:07.958Z</time></trkpt><trkpt lat="50.928662655985995" lon="11.830940068845761"><ele>319.0</ele><time>2026-05-03T14:54:08.958Z</time></trkpt><trkpt lat="50.92858029001222" lon="11.83087321564127"><ele>319.0</ele><time>2026-05-03T14:54:09.958Z</time></trkpt><trkpt lat="50.92849798074726" lon="11.83081698248416"><ele>319.0</ele><time>2026-05-03T14:54:10.958Z</time></trkpt><trkpt lat="50.92841029597218" lon="11.830769477197844"><ele>319.0</ele><time>2026-05-03T14:54:11.958Z</time></trkpt><trkpt lat="50.92832366195591" lon="11.830710733540032"><ele>319.0</ele><time>2026-05-03T14:54:12.958Z</time></trkpt><trkpt lat="50.92823508197075" lon="11.830654699187873"><ele>320.0</ele><time>2026-05-03T14:54:13.958Z</time></trkpt><trkpt lat="50.928147964273876" lon="11.830590237418233"><ele>321.0</ele><time>2026-05-03T14:54:14.958Z</time></trkpt><trkpt lat="50.92806427407078" lon="11.830519378356657"><ele>322.0</ele><time>2026-05-03T14:54:15.958Z</time></trkpt><trkpt lat="50.92796318918612" lon="11.830453174336135"><ele>323.0</ele><time>2026-05-03T14:54:16.958Z</time></trkpt><trkpt lat="50.927865886685495" lon="11.830384307271194"><ele>324.0</ele><time>2026-05-03T14:54:17.958Z</time></trkpt><trkpt lat="50.927758002653576" lon="11.830304510854267"><ele>324.0</ele><time>2026-05-03T14:54:18.958Z</time></trkpt><trkpt lat="50.927659728844" lon="11.830225464214262"><ele>324.0</ele><time>2026-05-03T14:54:19.957Z</time></trkpt><trkpt lat="50.927568810556714" lon="11.83016405635148"><ele>324.0</ele><time>2026-05-03T14:54:20.957Z</time></trkpt><trkpt lat="50.92748674281261" lon="11.830108768270764"><ele>324.0</ele><time>2026-05-03T14:54:21.957Z</time></trkpt><trkpt lat="50.927412293302076" lon="11.830060256771358"><ele>324.0</ele><time>2026-05-03T14:54:22.957Z</time></trkpt><trkpt lat="50.92734979958009" lon="11.82999951167754"><ele>324.5</ele><time>2026-05-03T14:54:23.957Z</time></trkpt><trkpt lat="50.92729969848155" lon="11.829910205377107"><ele>325.0</ele><time>2026-05-03T14:54:24.957Z</time></trkpt><trkpt lat="50.927215756483385" lon="11.829656446381671"><ele>325.5</ele><time>2026-05-03T14:54:26.957Z</time></trkpt><trkpt lat="50.927181823295534" lon="11.829549248336132"><ele>326.0</ele><time>2026-05-03T14:54:27.957Z</time></trkpt><trkpt lat="50.9271226734027" lon="11.829373598454817"><ele>325.2857142857143</ele><time>2026-05-03T14:54:29.957Z</time></trkpt><trkpt lat="50.92708470066015" lon="11.829278386205267"><ele>324.57142857142856</ele><time>2026-05-03T14:54:30.957Z</time></trkpt><trkpt lat="50.92705215185112" lon="11.82918980185899"><ele>323.85714285714283</ele><time>2026-05-03T14:54:31.957Z</time></trkpt><trkpt lat="50.927018495961256" lon="11.829093672053979"><ele>323.1428571428571</ele><time>2026-05-03T14:54:32.957Z</time></trkpt><trkpt lat="50.92698762599145" lon="11.828988300053448"><ele>322.42857142857144</ele><time>2026-05-03T14:54:33.957Z</time></trkpt><trkpt lat="50.9269548182817" lon="11.828884579040382"><ele>321.71428571428567</ele><time>2026-05-03T14:54:34.957Z</time></trkpt><trkpt lat="50.92690859534662" lon="11.828774636113984"><ele>321.0</ele><time>2026-05-03T14:54:35.957Z</time></trkpt><trkpt lat="50.926870002232945" lon="11.828663826255344"><ele>321.0</ele><time>2026-05-03T14:54:36.957Z</time></trkpt><trkpt lat="50.92682825942318" lon="11.828548234100657"><ele>321.0</ele><time>2026-05-03T14:54:37.957Z</time></trkpt><trkpt lat="50.92679058749818" lon="11.828439465866143"><ele>321.0</ele><time>2026-05-03T14:54:38.957Z</time></trkpt><trkpt lat="50.92674825034251" lon="11.828311852538445"><ele>321.0</ele><time>2026-05-03T14:54:39.957Z</time></trkpt><trkpt lat="50.92669729195375" lon="11.828192094432602"><ele>321.0</ele><time>2026-05-03T14:54:40.957Z</time></trkpt><trkpt lat="50.92664958756384" lon="11.828064071442435"><ele>321.0</ele><time>2026-05-03T14:54:41.957Z</time></trkpt><trkpt lat="50.926600615326834" lon="11.827915968974203"><ele>323.25</ele><time>2026-05-03T14:54:42.957Z</time></trkpt><trkpt lat="50.92654685577575" lon="11.827765389210928"><ele>325.5</ele><time>2026-05-03T14:54:43.957Z</time></trkpt><trkpt lat="50.926492583702355" lon="11.827611220568139"><ele>327.75</ele><time>2026-05-03T14:54:44.957Z</time></trkpt><trkpt lat="50.926429470716116" lon="11.827442232320742"><ele>330.0</ele><time>2026-05-03T14:54:45.957Z</time></trkpt><trkpt lat="50.92636971085041" lon="11.827276141560061"><ele>330.0</ele><time>2026-05-03T14:54:46.957Z</time></trkpt><trkpt lat="50.92630908008287" lon="11.827104321217293"><ele>330.0</ele><time>2026-05-03T14:54:47.957Z</time></trkpt><trkpt lat="50.92625780216864" lon="11.826928035370141"><ele>330.0</ele><time>2026-05-03T14:54:48.957Z</time></trkpt><trkpt lat="50.92619107910681" lon="11.826757775150071"><ele>330.0</ele><time>2026-05-03T14:54:49.957Z</time></trkpt><trkpt lat="50.92612921873497" lon="11.826579126741981"><ele>331.5</ele><time>2026-05-03T14:54:50.957Z</time></trkpt><trkpt lat="50.92607526179395" lon="11.826395741971753"><ele>333.0</ele><time>2026-05-03T14:54:51.957Z</time></trkpt><trkpt lat="50.92602295001843" lon="11.826226889686488"><ele>334.5</ele><time>2026-05-03T14:54:52.957Z</time></trkpt><trkpt lat="50.925977850941514" lon="11.826068074276618"><ele>336.0</ele><time>2026-05-03T14:54:53.957Z</time></trkpt><trkpt lat="50.92594016347499" lon="11.82590215148995"><ele>336.5</ele><time>2026-05-03T14:54:54.957Z</time></trkpt><trkpt lat="50.92590565149617" lon="11.825732045711918"><ele>337.0</ele><time>2026-05-03T14:54:55.957Z</time></trkpt><trkpt lat="50.925848505950206" lon="11.825581560309354"><ele>337.5</ele><time>2026-05-03T14:54:56.957Z</time></trkpt><trkpt lat="50.92576791405164" lon="11.825442626974587"><ele>338.0</ele><time>2026-05-03T14:54:57.957Z</time></trkpt><trkpt lat="50.925672524664805" lon="11.825316808383098"><ele>338.0</ele><time>2026-05-03T14:54:58.957Z</time></trkpt><trkpt lat="50.92556092703443" lon="11.825223857298287"><ele>338.0</ele><time>2026-05-03T14:54:59.957Z</time></trkpt><trkpt lat="50.92544672234025" lon="11.825116007567866"><ele>338.0</ele><time>2026-05-03T14:55:00.957Z</time></trkpt><trkpt lat="50.92533780587258" lon="11.824978445876495"><ele>338.0</ele><time>2026-05-03T14:55:01.957Z</time></trkpt><trkpt lat="50.92524319237779" lon="11.824818501368947"><ele>339.0</ele><time>2026-05-03T14:55:02.957Z</time></trkpt><trkpt lat="50.925167708936534" lon="11.824629257834529"><ele>340.0</ele><time>2026-05-03T14:55:03.957Z</time></trkpt><trkpt lat="50.92510640888119" lon="11.824406146738"><ele>341.0</ele><time>2026-05-03T14:55:04.957Z</time></trkpt><trkpt lat="50.92503838096829" lon="11.824179759587732"><ele>341.0</ele><time>2026-05-03T14:55:05.957Z</time></trkpt><trkpt lat="50.9249632763194" lon="11.823959635368235"><ele>341.0</ele><time>2026-05-03T14:55:06.957Z</time></trkpt><trkpt lat="50.924896541560805" lon="11.823740163609296"><ele>341.0</ele><time>2026-05-03T14:55:07.957Z</time></trkpt><trkpt lat="50.92483649119329" lon="11.823524342543264"><ele>341.0</ele><time>2026-05-03T14:55:08.957Z</time></trkpt><trkpt lat="50.924774955159286" lon="11.823300738245154"><ele>341.0</ele><time>2026-05-03T14:55:09.957Z</time></trkpt><trkpt lat="50.924740364000584" lon="11.823076770482645"><ele>341.0</ele><time>2026-05-03T14:55:10.957Z</time></trkpt><trkpt lat="50.924718908144015" lon="11.822842762816942"><ele>341.0</ele><time>2026-05-03T14:55:11.957Z</time></trkpt><trkpt lat="50.924702393607404" lon="11.822600416647273"><ele>342.25</ele><time>2026-05-03T14:55:12.957Z</time></trkpt><trkpt lat="50.92467233129761" lon="11.822365727413148"><ele>343.5</ele><time>2026-05-03T14:55:13.957Z</time></trkpt><trkpt lat="50.92465461327859" lon="11.822136435532729"><ele>344.75</ele><time>2026-05-03T14:55:14.957Z</time></trkpt><trkpt lat="50.92463318441474" lon="11.82191094484039"><ele>346.0</ele><time>2026-05-03T14:55:15.957Z</time></trkpt><trkpt lat="50.924609998859985" lon="11.821685537083841"><ele>347.25</ele><time>2026-05-03T14:55:16.957Z</time></trkpt><trkpt lat="50.92458540565887" lon="11.82145459863349"><ele>348.5</ele><time>2026-05-03T14:55:17.957Z</time></trkpt><trkpt lat="50.924564072431686" lon="11.82123190644466"><ele>349.75</ele><time>2026-05-03T14:55:18.957Z</time></trkpt><trkpt lat="50.92454136627674" lon="11.82102115179553"><ele>351.0</ele><time>2026-05-03T14:55:19.957Z</time></trkpt><trkpt lat="50.9245157202327" lon="11.820822537966347"><ele>351.5</ele><time>2026-05-03T14:55:20.957Z</time></trkpt><trkpt lat="50.92447501888603" lon="11.820626379522105"><ele>352.0</ele><time>2026-05-03T14:55:21.957Z</time></trkpt><trkpt lat="50.92440942745837" lon="11.82043278941004"><ele>352.5</ele><time>2026-05-03T14:55:22.957Z</time></trkpt><trkpt lat="50.92432747470231" lon="11.820244313477072"><ele>353.0</ele><time>2026-05-03T14:55:23.957Z</time></trkpt><trkpt lat="50.924239114081224" lon="11.820047058118565"><ele>351.33333333333337</ele><time>2026-05-03T14:55:24.957Z</time></trkpt><trkpt lat="50.92415278507171" lon="11.819837506570254"><ele>349.6666666666667</ele><time>2026-05-03T14:55:25.957Z</time></trkpt><trkpt lat="50.924064243560615" lon="11.819620040443906"><ele>348.0</ele><time>2026-05-03T14:55:26.957Z</time></trkpt><trkpt lat="50.92397270088782" lon="11.819392778889373"><ele>347.6666666666667</ele><time>2026-05-03T14:55:27.957Z</time></trkpt><trkpt lat="50.92388383103212" lon="11.819160248460282"><ele>347.33333333333337</ele><time>2026-05-03T14:55:28.957Z</time></trkpt><trkpt lat="50.92379816924079" lon="11.81894954986653"><ele>347.0</ele><time>2026-05-03T14:55:29.957Z</time></trkpt><trkpt lat="50.92372118525687" lon="11.818752835906071"><ele>347.0</ele><time>2026-05-03T14:55:30.957Z</time></trkpt><trkpt lat="50.923637886748686" lon="11.818559763482765"><ele>347.0</ele><time>2026-05-03T14:55:31.957Z</time></trkpt><trkpt lat="50.92356077736838" lon="11.818361229368076"><ele>347.0</ele><time>2026-05-03T14:55:32.957Z</time></trkpt><trkpt lat="50.92348333028081" lon="11.81815258875156"><ele>347.0</ele><time>2026-05-03T14:55:33.957Z</time></trkpt><trkpt lat="50.92340729526819" lon="11.817950627727946"><ele>347.5</ele><time>2026-05-03T14:55:34.957Z</time></trkpt><trkpt lat="50.92332628442998" lon="11.817753702055475"><ele>348.0</ele><time>2026-05-03T14:55:35.957Z</time></trkpt><trkpt lat="50.92324606760276" lon="11.81755714217762"><ele>348.5</ele><time>2026-05-03T14:55:36.957Z</time></trkpt><trkpt lat="50.92316559561996" lon="11.817363803869872"><ele>349.0</ele><time>2026-05-03T14:55:37.957Z</time></trkpt><trkpt lat="50.923088729595435" lon="11.817167639837319"><ele>349.0</ele><time>2026-05-03T14:55:38.957Z</time></trkpt><trkpt lat="50.923015633842844" lon="11.816972445798438"><ele>349.0</ele><time>2026-05-03T14:55:39.957Z</time></trkpt><trkpt lat="50.922934942485966" lon="11.816774431427174"><ele>349.0</ele><time>2026-05-03T14:55:40.957Z</time></trkpt><trkpt lat="50.92285632452619" lon="11.816583739008093"><ele>349.0</ele><time>2026-05-03T14:55:41.957Z</time></trkpt><trkpt lat="50.922791852796365" lon="11.816392776960218"><ele>349.0</ele><time>2026-05-03T14:55:42.957Z</time></trkpt><trkpt lat="50.922718593241015" lon="11.81620221247797"><ele>349.0</ele><time>2026-05-03T14:55:43.957Z</time></trkpt><trkpt lat="50.92264380600717" lon="11.816013759943514"><ele>349.0</ele><time>2026-05-03T14:55:44.957Z</time></trkpt><trkpt lat="50.92256356991061" lon="11.815827445958163"><ele>349.0</ele><time>2026-05-03T14:55:45.957Z</time></trkpt><trkpt lat="50.92248388521636" lon="11.815644201548112"><ele>349.25</ele><time>2026-05-03T14:55:46.957Z</time></trkpt><trkpt lat="50.92239969154377" lon="11.815475873679748"><ele>349.5</ele><time>2026-05-03T14:55:47.957Z</time></trkpt><trkpt lat="50.92230190265749" lon="11.815301453104281"><ele>349.75</ele><time>2026-05-03T14:55:48.957Z</time></trkpt><trkpt lat="50.922203823968616" lon="11.815149204319933"><ele>350.0</ele><time>2026-05-03T14:55:49.957Z</time></trkpt><trkpt lat="50.92211017813947" lon="11.814984301255588"><ele>350.5</ele><time>2026-05-03T14:55:50.957Z</time></trkpt><trkpt lat="50.92202105340408" lon="11.814813713408585"><ele>351.0</ele><time>2026-05-03T14:55:51.957Z</time></trkpt><trkpt lat="50.921932994349554" lon="11.814645851050836"><ele>351.5</ele><time>2026-05-03T14:55:52.957Z</time></trkpt><trkpt lat="50.921849897297825" lon="11.814476587531281"><ele>352.0</ele><time>2026-05-03T14:55:53.957Z</time></trkpt><trkpt lat="50.92176195022183" lon="11.814302566045301"><ele>352.25</ele><time>2026-05-03T14:55:54.957Z</time></trkpt><trkpt lat="50.92168578526659" lon="11.814133640644277"><ele>352.5</ele><time>2026-05-03T14:55:55.957Z</time></trkpt><trkpt lat="50.92161037503414" lon="11.813954650816475"><ele>352.75</ele><time>2026-05-03T14:55:56.957Z</time></trkpt><trkpt lat="50.921532498159074" lon="11.813779363789545"><ele>353.0</ele><time>2026-05-03T14:55:57.957Z</time></trkpt><trkpt lat="50.921440112783046" lon="11.813610635671463"><ele>353.0</ele><time>2026-05-03T14:55:58.957Z</time></trkpt><trkpt lat="50.92133782620288" lon="11.813454659262668"><ele>353.0</ele><time>2026-05-03T14:55:59.957Z</time></trkpt><trkpt lat="50.92124955551508" lon="11.813277917472965"><ele>353.0</ele><time>2026-05-03T14:56:00.957Z</time></trkpt><trkpt lat="50.921148269141014" lon="11.813121704276735"><ele>353.0</ele><time>2026-05-03T14:56:01.957Z</time></trkpt><trkpt lat="50.92104737103499" lon="11.812950784104016"><ele>353.0</ele><time>2026-05-03T14:56:02.957Z</time></trkpt><trkpt lat="50.92094600489052" lon="11.812787280543006"><ele>353.0</ele><time>2026-05-03T14:56:03.957Z</time></trkpt><trkpt lat="50.920841957915904" lon="11.812615268567383"><ele>353.0</ele><time>2026-05-03T14:56:04.957Z</time></trkpt><trkpt lat="50.92074140013616" lon="11.812446952974101"><ele>353.0</ele><time>2026-05-03T14:56:05.957Z</time></trkpt><trkpt lat="50.920635590102236" lon="11.812282635019283"><ele>353.0</ele><time>2026-05-03T14:56:06.957Z</time></trkpt><trkpt lat="50.920525521085374" lon="11.812115923011882"><ele>353.0</ele><time>2026-05-03T14:56:07.957Z</time></trkpt><trkpt lat="50.92042176326646" lon="11.811960378307244"><ele>353.0</ele><time>2026-05-03T14:56:08.957Z</time></trkpt><trkpt lat="50.92032441363266" lon="11.811802920630141"><ele>353.0</ele><time>2026-05-03T14:56:09.957Z</time></trkpt><trkpt lat="50.92022208155331" lon="11.811642284160431"><ele>353.0</ele><time>2026-05-03T14:56:10.957Z</time></trkpt><trkpt lat="50.92012441175929" lon="11.811479592944176"><ele>353.0</ele><time>2026-05-03T14:56:11.957Z</time></trkpt><trkpt lat="50.92002899702964" lon="11.811321337964266"><ele>353.0</ele><time>2026-05-03T14:56:12.957Z</time></trkpt><trkpt lat="50.91992715353494" lon="11.811169867479018"><ele>353.0</ele><time>2026-05-03T14:56:13.957Z</time></trkpt><trkpt lat="50.91982309530184" lon="11.811022371461545"><ele>353.0</ele><time>2026-05-03T14:56:14.957Z</time></trkpt><trkpt lat="50.91970503255418" lon="11.810893287066406"><ele>353.0</ele><time>2026-05-03T14:56:15.957Z</time></trkpt><trkpt lat="50.91958382362493" lon="11.81078892229031"><ele>353.0</ele><time>2026-05-03T14:56:16.957Z</time></trkpt><trkpt lat="50.91945541765384" lon="11.810719679236733"><ele>353.0</ele><time>2026-05-03T14:56:17.957Z</time></trkpt><trkpt lat="50.91931743077983" lon="11.810656194151003"><ele>353.5</ele><time>2026-05-03T14:56:18.957Z</time></trkpt><trkpt lat="50.91919094484148" lon="11.81059030347411"><ele>354.0</ele><time>2026-05-03T14:56:19.957Z</time></trkpt><trkpt lat="50.91906839033915" lon="11.810516857138714"><ele>354.5</ele><time>2026-05-03T14:56:20.957Z</time></trkpt><trkpt lat="50.91895854048745" lon="11.810438638113972"><ele>355.0</ele><time>2026-05-03T14:56:21.957Z</time></trkpt><trkpt lat="50.91885429054824" lon="11.81036036092187"><ele>355.0</ele><time>2026-05-03T14:56:22.957Z</time></trkpt><trkpt lat="50.91875519645819" lon="11.810297846782822"><ele>355.0</ele><time>2026-05-03T14:56:23.957Z</time></trkpt><trkpt lat="50.91865811788329" lon="11.810243346380492"><ele>355.0</ele><time>2026-05-03T14:56:24.957Z</time></trkpt><trkpt lat="50.91856996602806" lon="11.810189286124553"><ele>355.0</ele><time>2026-05-03T14:56:25.957Z</time></trkpt><trkpt lat="50.9184998452646" lon="11.810098254219126"><ele>355.0</ele><time>2026-05-03T14:56:26.956Z</time></trkpt><trkpt lat="50.91843972458922" lon="11.80997965623766"><ele>354.8</ele><time>2026-05-03T14:56:27.956Z</time></trkpt><trkpt lat="50.918401681225646" lon="11.809816320010782"><ele>354.6</ele><time>2026-05-03T14:56:28.957Z</time></trkpt><trkpt lat="50.91839818008204" lon="11.80965004752261"><ele>354.4</ele><time>2026-05-03T14:56:29.957Z</time></trkpt><trkpt lat="50.918408284239284" lon="11.809498586200762"><ele>354.2</ele><time>2026-05-03T14:56:30.957Z</time></trkpt><trkpt lat="50.91839389669265" lon="11.809369957188443"><ele>354.0</ele><time>2026-05-03T14:56:31.956Z</time></trkpt><trkpt lat="50.91835458026472" lon="11.80926407337373"><ele>354.0</ele><time>2026-05-03T14:56:32.954Z</time></trkpt><trkpt lat="50.91826474429877" lon="11.809226263130954"><ele>354.0</ele><time>2026-05-03T14:56:33.953Z</time></trkpt><trkpt lat="50.918180088181025" lon="11.809200097060474"><ele>354.0</ele><time>2026-05-03T14:56:34.953Z</time></trkpt><trkpt lat="50.91806852932294" lon="11.809162472387214"><ele>354.0</ele><time>2026-05-03T14:56:35.952Z</time></trkpt><trkpt lat="50.917965152884626" lon="11.809090815811121"><ele>354.0</ele><time>2026-05-03T14:56:36.951Z</time></trkpt><trkpt lat="50.917847860402055" lon="11.809039061602203"><ele>354.0</ele><time>2026-05-03T14:56:37.951Z</time></trkpt><trkpt lat="50.91772853338573" lon="11.80897640705255"><ele>354.0</ele><time>2026-05-03T14:56:38.949Z</time></trkpt><trkpt lat="50.91760577943447" lon="11.80891201408378"><ele>354.0</ele><time>2026-05-03T14:56:39.949Z</time></trkpt><trkpt lat="50.917475320552974" lon="11.80885472958521"><ele>354.0</ele><time>2026-05-03T14:56:40.948Z</time></trkpt><trkpt lat="50.9173419370942" lon="11.808791404040626"><ele>353.5</ele><time>2026-05-03T14:56:41.948Z</time></trkpt><trkpt lat="50.91720205221293" lon="11.808716318107919"><ele>353.0</ele><time>2026-05-03T14:56:42.947Z</time></trkpt><trkpt lat="50.917064009529334" lon="11.808660990889665"><ele>352.5</ele><time>2026-05-03T14:56:43.947Z</time></trkpt><trkpt lat="50.91691627399799" lon="11.80860110585544"><ele>352.0</ele><time>2026-05-03T14:56:44.946Z</time></trkpt><trkpt lat="50.91677286956352" lon="11.808534912821186"><ele>353.3333333333333</ele><time>2026-05-03T14:56:45.946Z</time></trkpt><trkpt lat="50.916624167321345" lon="11.808463017420197"><ele>354.6666666666667</ele><time>2026-05-03T14:56:46.946Z</time></trkpt><trkpt lat="50.916475382015456" lon="11.808387791984934"><ele>356.0</ele><time>2026-05-03T14:56:47.945Z</time></trkpt><trkpt lat="50.9163273671776" lon="11.808316546920636"><ele>356.0</ele><time>2026-05-03T14:56:48.945Z</time></trkpt><trkpt lat="50.91617594585557" lon="11.808257710322264"><ele>356.0</ele><time>2026-05-03T14:56:49.945Z</time></trkpt><trkpt lat="50.916025962637484" lon="11.808187632168309"><ele>356.0</ele><time>2026-05-03T14:56:50.944Z</time></trkpt><trkpt lat="50.9158787670304" lon="11.80811664634125"><ele>357.0</ele><time>2026-05-03T14:56:51.944Z</time></trkpt><trkpt lat="50.91573543729218" lon="11.808053808045255"><ele>358.0</ele><time>2026-05-03T14:56:52.944Z</time></trkpt><trkpt lat="50.915592220725685" lon="11.807986432653617"><ele>359.0</ele><time>2026-05-03T14:56:53.944Z</time></trkpt><trkpt lat="50.91544985486732" lon="11.807920146711844"><ele>360.0</ele><time>2026-05-03T14:56:54.943Z</time></trkpt><trkpt lat="50.915303846176414" lon="11.807851828118745"><ele>360.0</ele><time>2026-05-03T14:56:55.943Z</time></trkpt><trkpt lat="50.91515999101119" lon="11.807775323073113"><ele>360.0</ele><time>2026-05-03T14:56:56.943Z</time></trkpt><trkpt lat="50.91501640717762" lon="11.807699049790502"><ele>360.0</ele><time>2026-05-03T14:56:57.943Z</time></trkpt><trkpt lat="50.91486949410128" lon="11.807638995448585"><ele>359.3333333333333</ele><time>2026-05-03T14:56:58.943Z</time></trkpt><trkpt lat="50.91472048892612" lon="11.807566647587018"><ele>358.66666666666663</ele><time>2026-05-03T14:56:59.942Z</time></trkpt><trkpt lat="50.914568141622524" lon="11.807501007408776"><ele>358.0</ele><time>2026-05-03T14:57:00.942Z</time></trkpt><trkpt lat="50.91440864777038" lon="11.807433575733974"><ele>358.0</ele><time>2026-05-03T14:57:01.942Z</time></trkpt><trkpt lat="50.91425086340516" lon="11.807355848134437"><ele>358.0</ele><time>2026-05-03T14:57:02.942Z</time></trkpt><trkpt lat="50.914099529067705" lon="11.807280282920656"><ele>358.0</ele><time>2026-05-03T14:57:03.942Z</time></trkpt><trkpt lat="50.913944182685086" lon="11.807203266160675"><ele>358.0</ele><time>2026-05-03T14:57:04.942Z</time></trkpt><trkpt lat="50.91380353131175" lon="11.807142803103467"><ele>358.0</ele><time>2026-05-03T14:57:05.942Z</time></trkpt><trkpt lat="50.9136589988172" lon="11.807074332344627"><ele>358.0</ele><time>2026-05-03T14:57:06.941Z</time></trkpt><trkpt lat="50.91351902763174" lon="11.807003622678826"><ele>358.0</ele><time>2026-05-03T14:57:07.941Z</time></trkpt><trkpt lat="50.91338308142138" lon="11.806929732683352"><ele>357.75</ele><time>2026-05-03T14:57:08.941Z</time></trkpt><trkpt lat="50.913241959063456" lon="11.806867809919103"><ele>357.5</ele><time>2026-05-03T14:57:09.941Z</time></trkpt><trkpt lat="50.9131032540423" lon="11.806808037291832"><ele>357.25</ele><time>2026-05-03T14:57:10.941Z</time></trkpt><trkpt lat="50.912966212374194" lon="11.806746733468493"><ele>357.0</ele><time>2026-05-03T14:57:11.941Z</time></trkpt><trkpt lat="50.91283330222063" lon="11.806679445581176"><ele>357.0</ele><time>2026-05-03T14:57:12.941Z</time></trkpt><trkpt lat="50.912688583652994" lon="11.80660735351481"><ele>357.0</ele><time>2026-05-03T14:57:13.941Z</time></trkpt><trkpt lat="50.912548615289666" lon="11.806544575426438"><ele>357.0</ele><time>2026-05-03T14:57:14.941Z</time></trkpt><trkpt lat="50.9123983394902" lon="11.806471006526513"><ele>357.0</ele><time>2026-05-03T14:57:15.941Z</time></trkpt><trkpt lat="50.9122521662935" lon="11.806397176850572"><ele>357.0</ele><time>2026-05-03T14:57:16.941Z</time></trkpt><trkpt lat="50.912107037708694" lon="11.806334090686757"><ele>357.0</ele><time>2026-05-03T14:57:17.941Z</time></trkpt><trkpt lat="50.91196838668128" lon="11.80626481264196"><ele>357.0</ele><time>2026-05-03T14:57:18.941Z</time></trkpt><trkpt lat="50.91184182260367" lon="11.806190259441484"><ele>357.5</ele><time>2026-05-03T14:57:19.941Z</time></trkpt><trkpt lat="50.91173249241485" lon="11.80609714595233"><ele>358.0</ele><time>2026-05-03T14:57:20.94Z</time></trkpt><trkpt lat="50.91163740545153" lon="11.805979720161131"><ele>358.5</ele><time>2026-05-03T14:57:21.94Z</time></trkpt><trkpt lat="50.91155498731064" lon="11.805834228260759"><ele>359.0</ele><time>2026-05-03T14:57:22.94Z</time></trkpt><trkpt lat="50.9114626504156" lon="11.805707022610468"><ele>359.0</ele><time>2026-05-03T14:57:23.94Z</time></trkpt><trkpt lat="50.91138387708649" lon="11.805582494431361"><ele>359.0</ele><time>2026-05-03T14:57:24.94Z</time></trkpt><trkpt lat="50.911310205746425" lon="11.805456523727404"><ele>359.0</ele><time>2026-05-03T14:57:25.94Z</time></trkpt><trkpt lat="50.91124553609921" lon="11.80531862362048"><ele>359.0</ele><time>2026-05-03T14:57:26.94Z</time></trkpt><trkpt lat="50.91118361770731" lon="11.805177901992446"><ele>359.0</ele><time>2026-05-03T14:57:27.94Z</time></trkpt><trkpt lat="50.91112930447885" lon="11.805017942084753"><ele>359.25</ele><time>2026-05-03T14:57:28.94Z</time></trkpt><trkpt lat="50.91108098860361" lon="11.804850781973613"><ele>359.5</ele><time>2026-05-03T14:57:29.94Z</time></trkpt><trkpt lat="50.91103981296935" lon="11.804675790204062"><ele>359.75</ele><time>2026-05-03T14:57:30.94Z</time></trkpt><trkpt lat="50.91099784348975" lon="11.804495671353909"><ele>360.0</ele><time>2026-05-03T14:57:31.94Z</time></trkpt><trkpt lat="50.91096865690126" lon="11.80432211515419"><ele>360.0</ele><time>2026-05-03T14:57:32.94Z</time></trkpt><trkpt lat="50.91093314787978" lon="11.804139613734128"><ele>360.0</ele><time>2026-05-03T14:57:33.94Z</time></trkpt><trkpt lat="50.910895422722774" lon="11.803956843579268"><ele>360.0</ele><time>2026-05-03T14:57:34.94Z</time></trkpt><trkpt lat="50.91085759653067" lon="11.803787459511819"><ele>360.0</ele><time>2026-05-03T14:57:35.94Z</time></trkpt><trkpt lat="50.91082279643796" lon="11.803603498764922"><ele>360.0</ele><time>2026-05-03T14:57:36.94Z</time></trkpt><trkpt lat="50.91076444172127" lon="11.803420954315936"><ele>360.0</ele><time>2026-05-03T14:57:37.94Z</time></trkpt><trkpt lat="50.91071024428793" lon="11.803254533539285"><ele>360.0</ele><time>2026-05-03T14:57:38.94Z</time></trkpt><trkpt lat="50.91065297012715" lon="11.803087145693096"><ele>360.0</ele><time>2026-05-03T14:57:39.94Z</time></trkpt><trkpt lat="50.910594443409664" lon="11.802923499408866"><ele>360.0</ele><time>2026-05-03T14:57:40.94Z</time></trkpt><trkpt lat="50.91052006909687" lon="11.80277028774524"><ele>360.0</ele><time>2026-05-03T14:57:41.94Z</time></trkpt><trkpt lat="50.910463635123726" lon="11.80259575331308"><ele>360.0</ele><time>2026-05-03T14:57:42.94Z</time></trkpt><trkpt lat="50.910394937835584" lon="11.80243231038464"><ele>360.0</ele><time>2026-05-03T14:57:43.94Z</time></trkpt><trkpt lat="50.91031957006101" lon="11.80227192553464"><ele>360.0</ele><time>2026-05-03T14:57:44.94Z</time></trkpt><trkpt lat="50.91025168455812" lon="11.802107805748077"><ele>360.0</ele><time>2026-05-03T14:57:45.94Z</time></trkpt><trkpt lat="50.910182610122796" lon="11.8019406113868"><ele>360.0</ele><time>2026-05-03T14:57:46.94Z</time></trkpt><trkpt lat="50.9101225132888" lon="11.801774508195052"><ele>360.0</ele><time>2026-05-03T14:57:47.94Z</time></trkpt><trkpt lat="50.91006805628557" lon="11.801618078123134"><ele>359.75</ele><time>2026-05-03T14:57:48.94Z</time></trkpt><trkpt lat="50.91002104333538" lon="11.801448970729892"><ele>359.5</ele><time>2026-05-03T14:57:49.94Z</time></trkpt><trkpt lat="50.90998097722439" lon="11.801266426014202"><ele>359.25</ele><time>2026-05-03T14:57:50.94Z</time></trkpt><trkpt lat="50.909979526827506" lon="11.801069269208329"><ele>359.0</ele><time>2026-05-03T14:57:51.94Z</time></trkpt><trkpt lat="50.90996128476503" lon="11.800869202268641"><ele>359.5</ele><time>2026-05-03T14:57:52.94Z</time></trkpt><trkpt lat="50.90993828459197" lon="11.800682822673586"><ele>360.0</ele><time>2026-05-03T14:57:53.94Z</time></trkpt><trkpt lat="50.90991923947732" lon="11.800495968925157"><ele>360.5</ele><time>2026-05-03T14:57:54.94Z</time></trkpt><trkpt lat="50.909901394832936" lon="11.800305222471163"><ele>361.0</ele><time>2026-05-03T14:57:55.94Z</time></trkpt><trkpt lat="50.90988385469714" lon="11.800113092546802"><ele>361.20000000000005</ele><time>2026-05-03T14:57:56.94Z</time></trkpt><trkpt lat="50.909867735741756" lon="11.799937416393083"><ele>361.40000000000003</ele><time>2026-05-03T14:57:57.94Z</time></trkpt><trkpt lat="50.90984927383561" lon="11.79975648604018"><ele>361.6</ele><time>2026-05-03T14:57:58.94Z</time></trkpt><trkpt lat="50.90983447456344" lon="11.799576550814185"><ele>361.8</ele><time>2026-05-03T14:57:59.94Z</time></trkpt><trkpt lat="50.90981840737998" lon="11.799408197962258"><ele>362.0</ele><time>2026-05-03T14:58:00.94Z</time></trkpt><trkpt lat="50.90980663051666" lon="11.799244999916137"><ele>362.20000000000005</ele><time>2026-05-03T14:58:01.94Z</time></trkpt><trkpt lat="50.9098019895132" lon="11.799081780212491"><ele>362.4</ele><time>2026-05-03T14:58:02.94Z</time></trkpt><trkpt lat="50.909804081859534" lon="11.798924968602048"><ele>362.6</ele><time>2026-05-03T14:58:03.94Z</time></trkpt><trkpt lat="50.909812351217276" lon="11.798775922579079"><ele>362.79999999999995</ele><time>2026-05-03T14:58:04.94Z</time></trkpt><trkpt lat="50.90981713722184" lon="11.798644599704637"><ele>363.0</ele><time>2026-05-03T14:58:05.94Z</time></trkpt><trkpt lat="50.9098285747503" lon="11.798513349615655"><ele>362.8333333333333</ele><time>2026-05-03T14:58:06.94Z</time></trkpt><trkpt lat="50.909838553732236" lon="11.798397942421019"><ele>362.6666666666667</ele><time>2026-05-03T14:58:07.94Z</time></trkpt><trkpt lat="50.90985764733334" lon="11.798267363348975"><ele>362.5</ele><time>2026-05-03T14:58:08.94Z</time></trkpt><trkpt lat="50.909867259071774" lon="11.798148740176675"><ele>362.33333333333337</ele><time>2026-05-03T14:58:09.94Z</time></trkpt><trkpt lat="50.90987580124178" lon="11.79802583371863"><ele>362.1666666666667</ele><time>2026-05-03T14:58:10.94Z</time></trkpt><trkpt lat="50.90988752912734" lon="11.797914433292675"><ele>362.0</ele><time>2026-05-03T14:58:11.94Z</time></trkpt><trkpt lat="50.9099056755561" lon="11.797758913084381"><ele>362.0</ele><time>2026-05-03T14:58:13.94Z</time></trkpt><trkpt lat="50.90992546022698" lon="11.797649623868216"><ele>362.0</ele><time>2026-05-03T14:58:16.94Z</time></trkpt><trkpt lat="50.90994264830023" lon="11.797544929985952"><ele>362.0</ele><time>2026-05-03T14:58:18.94Z</time></trkpt><trkpt lat="50.90997180871249" lon="11.797415926644636"><ele>362.0</ele><time>2026-05-03T14:58:20.94Z</time></trkpt><trkpt lat="50.91002578252393" lon="11.797269772643414"><ele>362.0</ele><time>2026-05-03T14:58:22.94Z</time></trkpt><trkpt lat="50.91011704750572" lon="11.797114097875076"><ele>361.8</ele><time>2026-05-03T14:58:24.94Z</time></trkpt><trkpt lat="50.91017724416738" lon="11.796987151745663"><ele>361.6</ele><time>2026-05-03T14:58:25.94Z</time></trkpt><trkpt lat="50.910242553552145" lon="11.796882352013952"><ele>361.40000000000003</ele><time>2026-05-03T14:58:26.94Z</time></trkpt><trkpt lat="50.910326794122504" lon="11.796789767743908"><ele>361.20000000000005</ele><time>2026-05-03T14:58:27.94Z</time></trkpt><trkpt lat="50.910424173361584" lon="11.796708801863309"><ele>361.0</ele><time>2026-05-03T14:58:28.94Z</time></trkpt><trkpt lat="50.91053300023795" lon="11.796624729181925"><ele>361.0</ele><time>2026-05-03T14:58:29.94Z</time></trkpt><trkpt lat="50.910642752667236" lon="11.796545389089138"><ele>361.0</ele><time>2026-05-03T14:58:30.94Z</time></trkpt><trkpt lat="50.910761670262076" lon="11.796464072592572"><ele>361.0</ele><time>2026-05-03T14:58:31.94Z</time></trkpt><trkpt lat="50.91087740400754" lon="11.796377139296279"><ele>361.0</ele><time>2026-05-03T14:58:32.939Z</time></trkpt><trkpt lat="50.91099012820542" lon="11.796298632863648"><ele>361.0</ele><time>2026-05-03T14:58:33.939Z</time></trkpt><trkpt lat="50.91109594944971" lon="11.796240343795999"><ele>361.0</ele><time>2026-05-03T14:58:34.939Z</time></trkpt><trkpt lat="50.911217636567635" lon="11.796176896220317"><ele>361.0</ele><time>2026-05-03T14:58:35.939Z</time></trkpt><trkpt lat="50.91133690956912" lon="11.796116287587026"><ele>361.0</ele><time>2026-05-03T14:58:36.939Z</time></trkpt><trkpt lat="50.91146185233879" lon="11.79605630295246"><ele>361.5</ele><time>2026-05-03T14:58:37.939Z</time></trkpt><trkpt lat="50.91158057494291" lon="11.795998275772167"><ele>362.0</ele><time>2026-05-03T14:58:38.94Z</time></trkpt><trkpt lat="50.911704587146104" lon="11.795959303720496"><ele>362.5</ele><time>2026-05-03T14:58:39.94Z</time></trkpt><trkpt lat="50.9118318157057" lon="11.795901944936197"><ele>363.0</ele><time>2026-05-03T14:58:40.939Z</time></trkpt><trkpt lat="50.91195237366698" lon="11.795821339127029"><ele>363.25</ele><time>2026-05-03T14:58:41.939Z</time></trkpt><trkpt lat="50.91208507734731" lon="11.795784617970723"><ele>363.5</ele><time>2026-05-03T14:58:42.939Z</time></trkpt><trkpt lat="50.91221167552877" lon="11.795705875756989"><ele>363.75</ele><time>2026-05-03T14:58:43.94Z</time></trkpt><trkpt lat="50.91233961927126" lon="11.795623393992015"><ele>364.0</ele><time>2026-05-03T14:58:44.94Z</time></trkpt><trkpt lat="50.91246796598145" lon="11.795530212214162"><ele>364.0</ele><time>2026-05-03T14:58:45.94Z</time></trkpt><trkpt lat="50.91257919095471" lon="11.795393277237007"><ele>364.0</ele><time>2026-05-03T14:58:46.94Z</time></trkpt><trkpt lat="50.91268220290805" lon="11.795240053344715"><ele>364.0</ele><time>2026-05-03T14:58:47.94Z</time></trkpt><trkpt lat="50.91278938197955" lon="11.795098231156153"><ele>364.0</ele><time>2026-05-03T14:58:48.94Z</time></trkpt><trkpt lat="50.91288862537023" lon="11.794945278660265"><ele>364.0</ele><time>2026-05-03T14:58:49.94Z</time></trkpt><trkpt lat="50.9130037259993" lon="11.794795053570166"><ele>364.0</ele><time>2026-05-03T14:58:50.94Z</time></trkpt><trkpt lat="50.91310562414815" lon="11.794641979073797"><ele>364.0</ele><time>2026-05-03T14:58:51.94Z</time></trkpt><trkpt lat="50.913209683066505" lon="11.794493176807332"><ele>364.0</ele><time>2026-05-03T14:58:52.94Z</time></trkpt><trkpt lat="50.913315369852846" lon="11.794334738093905"><ele>363.25</ele><time>2026-05-03T14:58:53.94Z</time></trkpt><trkpt lat="50.9134246608335" lon="11.794176502406106"><ele>362.5</ele><time>2026-05-03T14:58:54.94Z</time></trkpt><trkpt lat="50.913528918068195" lon="11.794027157872266"><ele>361.75</ele><time>2026-05-03T14:58:55.94Z</time></trkpt><trkpt lat="50.913641498759304" lon="11.793870241101786"><ele>361.0</ele><time>2026-05-03T14:58:56.94Z</time></trkpt><trkpt lat="50.91375496225185" lon="11.793697486975331"><ele>361.0</ele><time>2026-05-03T14:58:57.94Z</time></trkpt><trkpt lat="50.91386607646784" lon="11.793533548534114"><ele>361.0</ele><time>2026-05-03T14:58:58.94Z</time></trkpt><trkpt lat="50.9139824579609" lon="11.79335905086155"><ele>361.0</ele><time>2026-05-03T14:58:59.94Z</time></trkpt><trkpt lat="50.91410706333102" lon="11.793181374455985"><ele>359.66666666666663</ele><time>2026-05-03T14:59:00.94Z</time></trkpt><trkpt lat="50.9142404557326" lon="11.793022765345501"><ele>358.3333333333333</ele><time>2026-05-03T14:59:01.94Z</time></trkpt><trkpt lat="50.914356146024275" lon="11.792859875950706"><ele>357.0</ele><time>2026-05-03T14:59:02.94Z</time></trkpt><trkpt lat="50.91446088721197" lon="11.792673953188146"><ele>356.5</ele><time>2026-05-03T14:59:03.94Z</time></trkpt><trkpt lat="50.91456986272286" lon="11.792512691675785"><ele>356.0</ele><time>2026-05-03T14:59:04.94Z</time></trkpt><trkpt lat="50.91465609538431" lon="11.792359335148934"><ele>355.5</ele><time>2026-05-03T14:59:05.94Z</time></trkpt><trkpt lat="50.9147174049993" lon="11.792210954034713"><ele>355.0</ele><time>2026-05-03T14:59:06.94Z</time></trkpt><trkpt lat="50.914758262897465" lon="11.792043911127818"><ele>355.0</ele><time>2026-05-03T14:59:07.94Z</time></trkpt><trkpt lat="50.914772417024984" lon="11.79185278833599"><ele>355.0</ele><time>2026-05-03T14:59:08.94Z</time></trkpt><trkpt lat="50.91478473032357" lon="11.791656093803352"><ele>355.0</ele><time>2026-05-03T14:59:09.94Z</time></trkpt><trkpt lat="50.91477488392565" lon="11.791447616273125"><ele>355.0</ele><time>2026-05-03T14:59:10.94Z</time></trkpt><trkpt lat="50.91479604516649" lon="11.791226988860322"><ele>355.66666666666663</ele><time>2026-05-03T14:59:11.94Z</time></trkpt><trkpt lat="50.914803661135906" lon="11.790982989118346"><ele>356.3333333333333</ele><time>2026-05-03T14:59:12.94Z</time></trkpt><trkpt lat="50.9148139442251" lon="11.790745650788251"><ele>357.0</ele><time>2026-05-03T14:59:13.94Z</time></trkpt><trkpt lat="50.91482417508463" lon="11.790514657107689"><ele>357.0</ele><time>2026-05-03T14:59:14.94Z</time></trkpt><trkpt lat="50.91483727628274" lon="11.790288618303432"><ele>357.0</ele><time>2026-05-03T14:59:15.94Z</time></trkpt><trkpt lat="50.914858202192704" lon="11.790053690468714"><ele>357.0</ele><time>2026-05-03T14:59:16.94Z</time></trkpt><trkpt lat="50.914893840374525" lon="11.78981854045799"><ele>357.0</ele><time>2026-05-03T14:59:17.94Z</time></trkpt><trkpt lat="50.914940411266755" lon="11.789598035189089"><ele>356.5</ele><time>2026-05-03T14:59:18.94Z</time></trkpt><trkpt lat="50.914980877765856" lon="11.789389131850895"><ele>356.0</ele><time>2026-05-03T14:59:19.94Z</time></trkpt><trkpt lat="50.91503613240353" lon="11.789177873812784"><ele>355.5</ele><time>2026-05-03T14:59:20.94Z</time></trkpt><trkpt lat="50.915062230573966" lon="11.788959214267448"><ele>355.0</ele><time>2026-05-03T14:59:21.94Z</time></trkpt><trkpt lat="50.915100036779315" lon="11.78875068870663"><ele>355.5</ele><time>2026-05-03T14:59:22.94Z</time></trkpt><trkpt lat="50.915150868686304" lon="11.788563447842769"><ele>356.0</ele><time>2026-05-03T14:59:23.94Z</time></trkpt><trkpt lat="50.915171828884446" lon="11.788366544502423"><ele>356.5</ele><time>2026-05-03T14:59:24.94Z</time></trkpt><trkpt lat="50.915188914484695" lon="11.788188099433489"><ele>357.0</ele><time>2026-05-03T14:59:25.94Z</time></trkpt><trkpt lat="50.915205656095914" lon="11.788023844724076"><ele>357.0</ele><time>2026-05-03T14:59:26.94Z</time></trkpt><trkpt lat="50.91522836130788" lon="11.787861567913994"><ele>357.0</ele><time>2026-05-03T14:59:27.94Z</time></trkpt><trkpt lat="50.915252939546264" lon="11.787700257216127"><ele>357.0</ele><time>2026-05-03T14:59:28.94Z</time></trkpt><trkpt lat="50.915275071780634" lon="11.78753652990011"><ele>357.0</ele><time>2026-05-03T14:59:29.94Z</time></trkpt><trkpt lat="50.91529675062491" lon="11.787375242241506"><ele>357.0</ele><time>2026-05-03T14:59:30.94Z</time></trkpt><trkpt lat="50.91531221542456" lon="11.787215583865748"><ele>356.6</ele><time>2026-05-03T14:59:31.94Z</time></trkpt><trkpt lat="50.915332790501765" lon="11.78705356022384"><ele>356.20000000000005</ele><time>2026-05-03T14:59:32.94Z</time></trkpt><trkpt lat="50.91535619809534" lon="11.786887204953084"><ele>355.8</ele><time>2026-05-03T14:59:33.94Z</time></trkpt><trkpt lat="50.915378124645414" lon="11.786729380007635"><ele>355.4</ele><time>2026-05-03T14:59:34.94Z</time></trkpt><trkpt lat="50.91540763599888" lon="11.786584390781593"><ele>355.0</ele><time>2026-05-03T14:59:35.94Z</time></trkpt><trkpt lat="50.91543236811946" lon="11.786458759802402"><ele>354.5</ele><time>2026-05-03T14:59:36.94Z</time></trkpt><trkpt lat="50.91545418451571" lon="11.786354085778681"><ele>354.0</ele><time>2026-05-03T14:59:37.94Z</time></trkpt><trkpt lat="50.915509318291136" lon="11.7862325128462"><ele>353.5</ele><time>2026-05-03T14:59:39.94Z</time></trkpt><trkpt lat="50.915559411027694" lon="11.786164213104032"><ele>353.0</ele><time>2026-05-03T14:59:41.94Z</time></trkpt><trkpt lat="50.91566289677724" lon="11.786089878640238"><ele>352.5</ele><time>2026-05-03T14:59:43.94Z</time></trkpt><trkpt lat="50.91573567832542" lon="11.786063945533712"><ele>352.0</ele><time>2026-05-03T14:59:44.94Z</time></trkpt><trkpt lat="50.91582576039888" lon="11.786032842697166"><ele>353.5</ele><time>2026-05-03T14:59:45.94Z</time></trkpt><trkpt lat="50.91592686383667" lon="11.785998066522557"><ele>355.0</ele><time>2026-05-03T14:59:46.94Z</time></trkpt><trkpt lat="50.91603322900212" lon="11.785953950743957"><ele>356.5</ele><time>2026-05-03T14:59:47.94Z</time></trkpt><trkpt lat="50.91616467356437" lon="11.785905919625101"><ele>358.0</ele><time>2026-05-03T14:59:48.94Z</time></trkpt><trkpt lat="50.91630218970816" lon="11.78586053090593"><ele>358.0</ele><time>2026-05-03T14:59:49.94Z</time></trkpt><trkpt lat="50.916462434893496" lon="11.785798066293152"><ele>358.0</ele><time>2026-05-03T14:59:50.94Z</time></trkpt><trkpt lat="50.91663046092296" lon="11.78573774415301"><ele>358.0</ele><time>2026-05-03T14:59:51.94Z</time></trkpt><trkpt lat="50.91680076997842" lon="11.785711836774105"><ele>357.3333333333333</ele><time>2026-05-03T14:59:52.94Z</time></trkpt><trkpt lat="50.91697472309877" lon="11.785647148113478"><ele>356.6666666666667</ele><time>2026-05-03T14:59:53.94Z</time></trkpt><trkpt lat="50.91714402890851" lon="11.78557892867554"><ele>356.0</ele><time>2026-05-03T14:59:54.94Z</time></trkpt><trkpt lat="50.91731527442936" lon="11.78551248313887"><ele>356.0</ele><time>2026-05-03T14:59:55.94Z</time></trkpt><trkpt lat="50.917478093552305" lon="11.785465865112696"><ele>356.0</ele><time>2026-05-03T14:59:56.94Z</time></trkpt><trkpt lat="50.917629663273274" lon="11.78538906442313"><ele>356.0</ele><time>2026-05-03T14:59:57.94Z</time></trkpt><trkpt lat="50.91778505452434" lon="11.785344280920565"><ele>355.6666666666667</ele><time>2026-05-03T14:59:58.94Z</time></trkpt><trkpt lat="50.917941596779094" lon="11.785286079337302"><ele>355.3333333333333</ele><time>2026-05-03T14:59:59.94Z</time></trkpt><trkpt lat="50.91810864371707" lon="11.785251937857288"><ele>355.0</ele><time>2026-05-03T15:00:00.94Z</time></trkpt><trkpt lat="50.91826209469905" lon="11.785199820042939"><ele>354.0</ele><time>2026-05-03T15:00:01.94Z</time></trkpt><trkpt lat="50.91840429215329" lon="11.785144913892431"><ele>353.0</ele><time>2026-05-03T15:00:02.94Z</time></trkpt><trkpt lat="50.918547615078445" lon="11.785089249781375"><ele>352.0</ele><time>2026-05-03T15:00:03.94Z</time></trkpt><trkpt lat="50.91869623167122" lon="11.78504534711107"><ele>351.0</ele><time>2026-05-03T15:00:04.94Z</time></trkpt><trkpt lat="50.91884551913865" lon="11.78500301803566"><ele>351.0</ele><time>2026-05-03T15:00:05.94Z</time></trkpt><trkpt lat="50.918987905909944" lon="11.784957705701375"><ele>351.0</ele><time>2026-05-03T15:00:06.94Z</time></trkpt><trkpt lat="50.91913433606639" lon="11.784928008168658"><ele>351.0</ele><time>2026-05-03T15:00:07.94Z</time></trkpt><trkpt lat="50.919288809077145" lon="11.78492559567963"><ele>351.0</ele><time>2026-05-03T15:00:08.94Z</time></trkpt><trkpt lat="50.91945899600078" lon="11.784920957447415"><ele>350.3333333333333</ele><time>2026-05-03T15:00:09.94Z</time></trkpt><trkpt lat="50.9196411044578" lon="11.784923888624503"><ele>349.66666666666663</ele><time>2026-05-03T15:00:10.94Z</time></trkpt><trkpt lat="50.919812905238324" lon="11.784936588932363"><ele>349.0</ele><time>2026-05-03T15:00:11.94Z</time></trkpt><trkpt lat="50.91998436812442" lon="11.784938120380488"><ele>349.0</ele><time>2026-05-03T15:00:12.94Z</time></trkpt><trkpt lat="50.92015291069413" lon="11.784949221782465"><ele>349.0</ele><time>2026-05-03T15:00:13.94Z</time></trkpt><trkpt lat="50.92031427950883" lon="11.784950687141642"><ele>349.0</ele><time>2026-05-03T15:00:14.94Z</time></trkpt><trkpt lat="50.92047066122376" lon="11.784964042422232"><ele>349.0</ele><time>2026-05-03T15:00:15.94Z</time></trkpt><trkpt lat="50.920631307503555" lon="11.784974592196683"><ele>349.0</ele><time>2026-05-03T15:00:16.94Z</time></trkpt><trkpt lat="50.920788288125145" lon="11.784977245529223"><ele>349.0</ele><time>2026-05-03T15:00:17.94Z</time></trkpt><trkpt lat="50.920942145576966" lon="11.784983404692015"><ele>347.3333333333333</ele><time>2026-05-03T15:00:18.94Z</time></trkpt><trkpt lat="50.92109494748231" lon="11.784979457955517"><ele>345.6666666666667</ele><time>2026-05-03T15:00:19.94Z</time></trkpt><trkpt lat="50.921250894467484" lon="11.784982259433562"><ele>344.0</ele><time>2026-05-03T15:00:20.94Z</time></trkpt><trkpt lat="50.921406910839366" lon="11.78497785987752"><ele>344.0</ele><time>2026-05-03T15:00:21.94Z</time></trkpt><trkpt lat="50.92155844658446" lon="11.784977495233115"><ele>344.0</ele><time>2026-05-03T15:00:22.94Z</time></trkpt><trkpt lat="50.92171193728187" lon="11.78497259313318"><ele>344.0</ele><time>2026-05-03T15:00:23.94Z</time></trkpt><trkpt lat="50.921867287084304" lon="11.78495342227092"><ele>343.0</ele><time>2026-05-03T15:00:24.94Z</time></trkpt><trkpt lat="50.92202273179869" lon="11.784936390038464"><ele>342.0</ele><time>2026-05-03T15:00:25.94Z</time></trkpt><trkpt lat="50.92217699240482" lon="11.784901815781021"><ele>341.0</ele><time>2026-05-03T15:00:26.94Z</time></trkpt><trkpt lat="50.92232600622996" lon="11.784845779301405"><ele>341.0</ele><time>2026-05-03T15:00:27.94Z</time></trkpt><trkpt lat="50.922473498573986" lon="11.784762290262647"><ele>341.0</ele><time>2026-05-03T15:00:28.94Z</time></trkpt><trkpt lat="50.92261260084507" lon="11.7846634531546"><ele>341.0</ele><time>2026-05-03T15:00:29.94Z</time></trkpt><trkpt lat="50.92276359543383" lon="11.784562431702385"><ele>340.0</ele><time>2026-05-03T15:00:30.94Z</time></trkpt><trkpt lat="50.92290231912863" lon="11.784449173400954"><ele>339.0</ele><time>2026-05-03T15:00:31.94Z</time></trkpt><trkpt lat="50.92303484634188" lon="11.784345530960637"><ele>338.0</ele><time>2026-05-03T15:00:32.94Z</time></trkpt><trkpt lat="50.92316768302673" lon="11.784243298540968"><ele>337.0</ele><time>2026-05-03T15:00:33.94Z</time></trkpt><trkpt lat="50.923304587937956" lon="11.784158492657552"><ele>336.0</ele><time>2026-05-03T15:00:34.94Z</time></trkpt><trkpt lat="50.92344300822032" lon="11.784044059659896"><ele>335.0</ele><time>2026-05-03T15:00:35.94Z</time></trkpt><trkpt lat="50.923572138961056" lon="11.783906248496365"><ele>332.6666666666667</ele><time>2026-05-03T15:00:36.94Z</time></trkpt><trkpt lat="50.92369639380124" lon="11.783754061465071"><ele>330.3333333333333</ele><time>2026-05-03T15:00:37.938Z</time></trkpt><trkpt lat="50.923813467020544" lon="11.783580477981504"><ele>328.0</ele><time>2026-05-03T15:00:38.938Z</time></trkpt><trkpt lat="50.92392650742081" lon="11.783385772125362"><ele>328.0</ele><time>2026-05-03T15:00:39.938Z</time></trkpt><trkpt lat="50.92403354108409" lon="11.783191455432684"><ele>328.0</ele><time>2026-05-03T15:00:40.938Z</time></trkpt><trkpt lat="50.92413408220887" lon="11.78299139233224"><ele>328.0</ele><time>2026-05-03T15:00:41.938Z</time></trkpt><trkpt lat="50.92423027567673" lon="11.782785072576148"><ele>326.3333333333333</ele><time>2026-05-03T15:00:42.938Z</time></trkpt><trkpt lat="50.92431953702595" lon="11.7825754721149"><ele>324.6666666666667</ele><time>2026-05-03T15:00:43.939Z</time></trkpt><trkpt lat="50.92440696884424" lon="11.782357483123578"><ele>323.0</ele><time>2026-05-03T15:00:44.939Z</time></trkpt><trkpt lat="50.924491903443084" lon="11.78214326840592"><ele>323.0</ele><time>2026-05-03T15:00:45.939Z</time></trkpt><trkpt lat="50.92457958914547" lon="11.781923754323179"><ele>323.0</ele><time>2026-05-03T15:00:46.939Z</time></trkpt><trkpt lat="50.92466651867443" lon="11.781708759936908"><ele>323.0</ele><time>2026-05-03T15:00:47.938Z</time></trkpt><trkpt lat="50.924739850286066" lon="11.781493127171082"><ele>322.25</ele><time>2026-05-03T15:00:48.938Z</time></trkpt><trkpt lat="50.924824419033875" lon="11.781308733516335"><ele>321.5</ele><time>2026-05-03T15:00:49.938Z</time></trkpt><trkpt lat="50.924921606305816" lon="11.78112891272936"><ele>320.75</ele><time>2026-05-03T15:00:50.939Z</time></trkpt><trkpt lat="50.92502821188356" lon="11.780960969804534"><ele>320.0</ele><time>2026-05-03T15:00:51.939Z</time></trkpt><trkpt lat="50.925150044263425" lon="11.780809408583142"><ele>318.0</ele><time>2026-05-03T15:00:52.939Z</time></trkpt><trkpt lat="50.92527330849138" lon="11.780674849555108"><ele>316.0</ele><time>2026-05-03T15:00:53.939Z</time></trkpt><trkpt lat="50.92540778816856" lon="11.780545538735488"><ele>314.0</ele><time>2026-05-03T15:00:54.939Z</time></trkpt><trkpt lat="50.92554970211219" lon="11.78042727160281"><ele>314.0</ele><time>2026-05-03T15:00:55.939Z</time></trkpt><trkpt lat="50.92568344264787" lon="11.78030862266496"><ele>314.0</ele><time>2026-05-03T15:00:56.939Z</time></trkpt><trkpt lat="50.925812558701246" lon="11.780194869776457"><ele>314.0</ele><time>2026-05-03T15:00:57.939Z</time></trkpt><trkpt lat="50.92594037033738" lon="11.780093020407737"><ele>314.0</ele><time>2026-05-03T15:00:58.939Z</time></trkpt><trkpt lat="50.92607241511532" lon="11.779992110431804"><ele>312.75</ele><time>2026-05-03T15:00:59.939Z</time></trkpt><trkpt lat="50.92620124594858" lon="11.779887137781133"><ele>311.5</ele><time>2026-05-03T15:01:00.939Z</time></trkpt><trkpt lat="50.92633384584154" lon="11.779797828493761"><ele>310.25</ele><time>2026-05-03T15:01:01.939Z</time></trkpt><trkpt lat="50.926477773003526" lon="11.779685511482482"><ele>309.0</ele><time>2026-05-03T15:01:02.939Z</time></trkpt><trkpt lat="50.92661464044581" lon="11.779551549528712"><ele>306.6666666666667</ele><time>2026-05-03T15:01:03.939Z</time></trkpt><trkpt lat="50.926761499483604" lon="11.779466461773024"><ele>304.33333333333337</ele><time>2026-05-03T15:01:04.939Z</time></trkpt><trkpt lat="50.92690989756857" lon="11.779368160278112"><ele>302.0</ele><time>2026-05-03T15:01:05.939Z</time></trkpt><trkpt lat="50.92705781616818" lon="11.77927253719903"><ele>301.0</ele><time>2026-05-03T15:01:06.939Z</time></trkpt><trkpt lat="50.927216886302006" lon="11.779174847696996"><ele>300.0</ele><time>2026-05-03T15:01:07.939Z</time></trkpt><trkpt lat="50.92736922357787" lon="11.77909835467387"><ele>299.0</ele><time>2026-05-03T15:01:08.939Z</time></trkpt><trkpt lat="50.92751472960651" lon="11.779023154612519"><ele>295.6666666666667</ele><time>2026-05-03T15:01:09.939Z</time></trkpt><trkpt lat="50.92765833346513" lon="11.778953117700073"><ele>292.3333333333333</ele><time>2026-05-03T15:01:10.939Z</time></trkpt><trkpt lat="50.927800890078366" lon="11.778874189482568"><ele>289.0</ele><time>2026-05-03T15:01:11.939Z</time></trkpt><trkpt lat="50.927948122363496" lon="11.778801225182681"><ele>289.0</ele><time>2026-05-03T15:01:12.939Z</time></trkpt><trkpt lat="50.92809112146686" lon="11.778717502790684"><ele>289.0</ele><time>2026-05-03T15:01:13.939Z</time></trkpt><trkpt lat="50.928239641874775" lon="11.77863683298192"><ele>289.0</ele><time>2026-05-03T15:01:14.939Z</time></trkpt><trkpt lat="50.92838001755603" lon="11.778560853906306"><ele>287.25</ele><time>2026-05-03T15:01:15.939Z</time></trkpt><trkpt lat="50.92851622966956" lon="11.778480157476"><ele>285.5</ele><time>2026-05-03T15:01:16.939Z</time></trkpt><trkpt lat="50.92863659171335" lon="11.778380758997368"><ele>283.75</ele><time>2026-05-03T15:01:17.939Z</time></trkpt><trkpt lat="50.928741499625374" lon="11.77827339800344"><ele>282.0</ele><time>2026-05-03T15:01:18.939Z</time></trkpt><trkpt lat="50.928857256395084" lon="11.778184168571011"><ele>282.0</ele><time>2026-05-03T15:01:19.939Z</time></trkpt><trkpt lat="50.9289494946228" lon="11.778062612242959"><ele>282.0</ele><time>2026-05-03T15:01:20.939Z</time></trkpt><trkpt lat="50.929031395185646" lon="11.777910075539122"><ele>282.0</ele><time>2026-05-03T15:01:21.939Z</time></trkpt><trkpt lat="50.92908952410316" lon="11.777714563740892"><ele>282.0</ele><time>2026-05-03T15:01:22.939Z</time></trkpt><trkpt lat="50.929124814035646" lon="11.777500957965435"><ele>283.3333333333333</ele><time>2026-05-03T15:01:23.939Z</time></trkpt><trkpt lat="50.92914374626031" lon="11.777271901631272"><ele>284.66666666666663</ele><time>2026-05-03T15:01:24.939Z</time></trkpt><trkpt lat="50.929154866516626" lon="11.777022402782457"><ele>286.0</ele><time>2026-05-03T15:01:25.939Z</time></trkpt><trkpt lat="50.92915846480647" lon="11.776757079493654"><ele>286.0</ele><time>2026-05-03T15:01:26.939Z</time></trkpt><trkpt lat="50.92916191696805" lon="11.77649144506184"><ele>286.0</ele><time>2026-05-03T15:01:27.939Z</time></trkpt><trkpt lat="50.92917007991653" lon="11.776233803107347"><ele>286.0</ele><time>2026-05-03T15:01:28.939Z</time></trkpt><trkpt lat="50.92918677409797" lon="11.775978270539756"><ele>286.0</ele><time>2026-05-03T15:01:29.939Z</time></trkpt><trkpt lat="50.929208569747225" lon="11.77574960327214"><ele>286.0</ele><time>2026-05-03T15:01:30.939Z</time></trkpt><trkpt lat="50.92923674226417" lon="11.775510528657522"><ele>286.0</ele><time>2026-05-03T15:01:31.939Z</time></trkpt><trkpt lat="50.929266912102" lon="11.775275635013418"><ele>276.3333333333333</ele><time>2026-05-03T15:01:32.939Z</time></trkpt><trkpt lat="50.92929326766427" lon="11.77503903352676"><ele>266.6666666666667</ele><time>2026-05-03T15:01:33.939Z</time></trkpt><trkpt lat="50.92931030391925" lon="11.774797987189658"><ele>257.0</ele><time>2026-05-03T15:01:34.939Z</time></trkpt><trkpt lat="50.929322911289816" lon="11.7745536913843"><ele>257.0</ele><time>2026-05-03T15:01:35.939Z</time></trkpt><trkpt lat="50.92933284749265" lon="11.774316500740673"><ele>257.0</ele><time>2026-05-03T15:01:36.939Z</time></trkpt><trkpt lat="50.929339636260075" lon="11.774078971564153"><ele>257.0</ele><time>2026-05-03T15:01:37.939Z</time></trkpt><trkpt lat="50.92933952278381" lon="11.773852399307863"><ele>257.0</ele><time>2026-05-03T15:01:38.939Z</time></trkpt><trkpt lat="50.92933361916534" lon="11.773630934137202"><ele>255.75</ele><time>2026-05-03T15:01:39.939Z</time></trkpt><trkpt lat="50.92931676449634" lon="11.773409035457606"><ele>254.5</ele><time>2026-05-03T15:01:40.939Z</time></trkpt><trkpt lat="50.929274973562144" lon="11.773191681761078"><ele>253.25</ele><time>2026-05-03T15:01:41.939Z</time></trkpt><trkpt lat="50.92923996114985" lon="11.772965417159687"><ele>252.0</ele><time>2026-05-03T15:01:42.939Z</time></trkpt><trkpt lat="50.92920039026946" lon="11.77275093662661"><ele>258.25</ele><time>2026-05-03T15:01:43.939Z</time></trkpt><trkpt lat="50.92916271699487" lon="11.772545968501703"><ele>264.5</ele><time>2026-05-03T15:01:44.939Z</time></trkpt><trkpt lat="50.92912573397707" lon="11.772362703823376"><ele>270.75</ele><time>2026-05-03T15:01:45.939Z</time></trkpt><trkpt lat="50.92908612268768" lon="11.772187029592878"><ele>277.0</ele><time>2026-05-03T15:01:46.939Z</time></trkpt><trkpt lat="50.92905413503693" lon="11.772016648870565"><ele>275.0</ele><time>2026-05-03T15:01:47.939Z</time></trkpt><trkpt lat="50.92902799289346" lon="11.771837476044393"><ele>273.0</ele><time>2026-05-03T15:01:48.939Z</time></trkpt><trkpt lat="50.92900471254722" lon="11.77165212561545"><ele>271.0</ele><time>2026-05-03T15:01:49.939Z</time></trkpt><trkpt lat="50.92897671331761" lon="11.771457998259509"><ele>269.0</ele><time>2026-05-03T15:01:50.939Z</time></trkpt><trkpt lat="50.928953707419886" lon="11.77126962360586"><ele>269.0</ele><time>2026-05-03T15:01:51.939Z</time></trkpt><trkpt lat="50.92892488906181" lon="11.771083559895487"><ele>269.0</ele><time>2026-05-03T15:01:52.939Z</time></trkpt><trkpt lat="50.92890317275962" lon="11.770911704600826"><ele>269.0</ele><time>2026-05-03T15:01:53.939Z</time></trkpt><trkpt lat="50.92887935314456" lon="11.770733316164415"><ele>269.0</ele><time>2026-05-03T15:01:54.939Z</time></trkpt><trkpt lat="50.92885408479972" lon="11.770556920095615"><ele>266.75</ele><time>2026-05-03T15:01:55.939Z</time></trkpt><trkpt lat="50.928833570265994" lon="11.770382180054346"><ele>264.5</ele><time>2026-05-03T15:01:56.939Z</time></trkpt><trkpt lat="50.92880501119598" lon="11.770208021708106"><ele>262.25</ele><time>2026-05-03T15:01:57.939Z</time></trkpt><trkpt lat="50.92877793336746" lon="11.770031140169555"><ele>260.0</ele><time>2026-05-03T15:01:58.939Z</time></trkpt><trkpt lat="50.928752771642586" lon="11.769860519745254"><ele>258.2</ele><time>2026-05-03T15:01:59.939Z</time></trkpt><trkpt lat="50.928731534337054" lon="11.769699264379422"><ele>256.4</ele><time>2026-05-03T15:02:00.939Z</time></trkpt><trkpt lat="50.92871100958388" lon="11.76954401357313"><ele>254.60000000000002</ele><time>2026-05-03T15:02:01.939Z</time></trkpt><trkpt lat="50.92869502243264" lon="11.769386533710287"><ele>252.8</ele><time>2026-05-03T15:02:02.939Z</time></trkpt><trkpt lat="50.92868499083565" lon="11.769230132486642"><ele>251.0</ele><time>2026-05-03T15:02:03.939Z</time></trkpt><trkpt lat="50.92868256684336" lon="11.76908211160217"><ele>250.0</ele><time>2026-05-03T15:02:04.939Z</time></trkpt><trkpt lat="50.92867443349004" lon="11.768924995880207"><ele>249.00000000000003</ele><time>2026-05-03T15:02:05.939Z</time></trkpt><trkpt lat="50.928671677236096" lon="11.768770551236459"><ele>248.00000000000003</ele><time>2026-05-03T15:02:06.939Z</time></trkpt><trkpt lat="50.92866118426147" lon="11.768602477665016"><ele>247.0</ele><time>2026-05-03T15:02:07.939Z</time></trkpt><trkpt lat="50.9286553577676" lon="11.768443783767788"><ele>246.0</ele><time>2026-05-03T15:02:08.939Z</time></trkpt><trkpt lat="50.928650614080006" lon="11.768268227993712"><ele>245.20000000000002</ele><time>2026-05-03T15:02:09.939Z</time></trkpt><trkpt lat="50.92865976468661" lon="11.7680893248979"><ele>244.40000000000003</ele><time>2026-05-03T15:02:10.939Z</time></trkpt><trkpt lat="50.92867066484063" lon="11.767925164163708"><ele>243.6</ele><time>2026-05-03T15:02:11.939Z</time></trkpt><trkpt lat="50.928679718398335" lon="11.767761593767416"><ele>242.8</ele><time>2026-05-03T15:02:12.939Z</time></trkpt><trkpt lat="50.92868546547731" lon="11.767587200986645"><ele>242.0</ele><time>2026-05-03T15:02:13.939Z</time></trkpt><trkpt lat="50.92869359570592" lon="11.767411762501998"><ele>241.2</ele><time>2026-05-03T15:02:14.939Z</time></trkpt><trkpt lat="50.92869730342763" lon="11.767248533477918"><ele>240.39999999999998</ele><time>2026-05-03T15:02:15.939Z</time></trkpt><trkpt lat="50.92869187686025" lon="11.767082497905198"><ele>239.60000000000002</ele><time>2026-05-03T15:02:16.939Z</time></trkpt><trkpt lat="50.92869849140269" lon="11.766904895922686"><ele>238.8</ele><time>2026-05-03T15:02:17.939Z</time></trkpt><trkpt lat="50.9286787485438" lon="11.766735124804303"><ele>238.0</ele><time>2026-05-03T15:02:18.939Z</time></trkpt><trkpt lat="50.928642799538686" lon="11.766571918198801"><ele>238.0</ele><time>2026-05-03T15:02:19.939Z</time></trkpt><trkpt lat="50.92861919557466" lon="11.766402755488745"><ele>238.0</ele><time>2026-05-03T15:02:20.939Z</time></trkpt><trkpt lat="50.92859382264198" lon="11.766236513939656"><ele>238.0</ele><time>2026-05-03T15:02:21.939Z</time></trkpt><trkpt lat="50.92856446688499" lon="11.766066417868945"><ele>238.0</ele><time>2026-05-03T15:02:22.939Z</time></trkpt><trkpt lat="50.92853619923244" lon="11.765905103807848"><ele>238.0</ele><time>2026-05-03T15:02:23.939Z</time></trkpt><trkpt lat="50.92850738285517" lon="11.76574952998235"><ele>238.0</ele><time>2026-05-03T15:02:24.939Z</time></trkpt><trkpt lat="50.92848458303293" lon="11.765589966011285"><ele>238.0</ele><time>2026-05-03T15:02:25.939Z</time></trkpt><trkpt lat="50.92845963434322" lon="11.765434991044883"><ele>238.0</ele><time>2026-05-03T15:02:26.939Z</time></trkpt><trkpt lat="50.9284289356383" lon="11.765273891329466"><ele>238.0</ele><time>2026-05-03T15:02:27.939Z</time></trkpt><trkpt lat="50.92840016652739" lon="11.765109787786514"><ele>238.0</ele><time>2026-05-03T15:02:28.939Z</time></trkpt><trkpt lat="50.92838056627011" lon="11.764937515504727"><ele>238.2</ele><time>2026-05-03T15:02:29.939Z</time></trkpt><trkpt lat="50.928370354227894" lon="11.76476341436143"><ele>238.4</ele><time>2026-05-03T15:02:30.939Z</time></trkpt><trkpt lat="50.92837197962054" lon="11.764602329706307"><ele>238.59999999999997</ele><time>2026-05-03T15:02:31.939Z</time></trkpt><trkpt lat="50.92838446454731" lon="11.764455476196861"><ele>238.79999999999998</ele><time>2026-05-03T15:02:32.939Z</time></trkpt><trkpt lat="50.928407111647694" lon="11.764309388707085"><ele>239.0</ele><time>2026-05-03T15:02:33.939Z</time></trkpt><trkpt lat="50.9284397534063" lon="11.76416871518206"><ele>239.00000000000003</ele><time>2026-05-03T15:02:34.939Z</time></trkpt><trkpt lat="50.92848324943021" lon="11.764024327832843"><ele>239.0</ele><time>2026-05-03T15:02:35.939Z</time></trkpt><trkpt lat="50.928530685749" lon="11.763903476067322"><ele>239.0</ele><time>2026-05-03T15:02:36.939Z</time></trkpt><trkpt lat="50.92857711260591" lon="11.763796375561277"><ele>239.0</ele><time>2026-05-03T15:02:37.939Z</time></trkpt><trkpt lat="50.92864236659626" lon="11.763751780412372"><ele>239.00000000000003</ele><time>2026-05-03T15:02:38.939Z</time></trkpt><trkpt lat="50.92870614169525" lon="11.763680328482833"><ele>239.0</ele><time>2026-05-03T15:02:40.939Z</time></trkpt><trkpt lat="50.92859347169983" lon="11.76348747789295"><ele>238.66666666666669</ele><time>2026-05-03T15:02:42.939Z</time></trkpt><trkpt lat="50.92851797822084" lon="11.763461592621312"><ele>238.33333333333334</ele><time>2026-05-03T15:02:43.937Z</time></trkpt><trkpt lat="50.92845014821514" lon="11.763418546406223"><ele>238.0</ele><time>2026-05-03T15:02:44.937Z</time></trkpt><trkpt lat="50.928372211290956" lon="11.763366700109932"><ele>237.66666666666669</ele><time>2026-05-03T15:02:45.937Z</time></trkpt><trkpt lat="50.92829208756997" lon="11.76331096257935"><ele>237.33333333333334</ele><time>2026-05-03T15:02:46.937Z</time></trkpt><trkpt lat="50.92819417425152" lon="11.763244413419791"><ele>237.0</ele><time>2026-05-03T15:02:47.937Z</time></trkpt><trkpt lat="50.928081827957655" lon="11.76317006191171"><ele>235.75</ele><time>2026-05-03T15:02:48.937Z</time></trkpt><trkpt lat="50.92797169277172" lon="11.763096839664467"><ele>234.5</ele><time>2026-05-03T15:02:49.937Z</time></trkpt><trkpt lat="50.92785895469694" lon="11.763026683640083"><ele>233.25</ele><time>2026-05-03T15:02:50.937Z</time></trkpt><trkpt lat="50.927729708276665" lon="11.762988723191219"><ele>232.0</ele><time>2026-05-03T15:02:51.937Z</time></trkpt><trkpt lat="50.927594846501414" lon="11.762970849979084"><ele>234.25</ele><time>2026-05-03T15:02:52.937Z</time></trkpt><trkpt lat="50.9274526389089" lon="11.762980188153461"><ele>236.5</ele><time>2026-05-03T15:02:53.937Z</time></trkpt><trkpt lat="50.9273130137837" lon="11.763014420633331"><ele>238.75</ele><time>2026-05-03T15:02:54.937Z</time></trkpt><trkpt lat="50.927187660772404" lon="11.763043039458447"><ele>241.0</ele><time>2026-05-03T15:02:55.937Z</time></trkpt><trkpt lat="50.9270766931496" lon="11.763040331185074"><ele>241.0</ele><time>2026-05-03T15:02:56.937Z</time></trkpt><trkpt lat="50.92696270390977" lon="11.762968680477575"><ele>241.0</ele><time>2026-05-03T15:02:57.937Z</time></trkpt><trkpt lat="50.92683708763042" lon="11.762876324942395"><ele>241.0</ele><time>2026-05-03T15:02:58.937Z</time></trkpt><trkpt lat="50.92670596313763" lon="11.762760848081642"><ele>241.0</ele><time>2026-05-03T15:02:59.937Z</time></trkpt><trkpt lat="50.92655856794463" lon="11.762631459739676"><ele>237.0</ele><time>2026-05-03T15:03:00.937Z</time></trkpt><trkpt lat="50.92641032418534" lon="11.762520675581847"><ele>233.0</ele><time>2026-05-03T15:03:01.937Z</time></trkpt><trkpt lat="50.926258036064866" lon="11.762380539626728"><ele>229.0</ele><time>2026-05-03T15:03:02.937Z</time></trkpt><trkpt lat="50.92610188273831" lon="11.76224481616949"><ele>229.0</ele><time>2026-05-03T15:03:03.937Z</time></trkpt><trkpt lat="50.925953715542626" lon="11.762119179754608"><ele>229.0</ele><time>2026-05-03T15:03:04.937Z</time></trkpt><trkpt lat="50.92581356655299" lon="11.762003851886702"><ele>229.0</ele><time>2026-05-03T15:03:05.937Z</time></trkpt><trkpt lat="50.9256913781029" lon="11.761902421184752"><ele>230.25</ele><time>2026-05-03T15:03:06.937Z</time></trkpt><trkpt lat="50.925578459443166" lon="11.761821175034918"><ele>231.5</ele><time>2026-05-03T15:03:07.937Z</time></trkpt><trkpt lat="50.925462840163526" lon="11.761773133341899"><ele>232.75</ele><time>2026-05-03T15:03:08.937Z</time></trkpt><trkpt lat="50.92534631770335" lon="11.761788155121971"><ele>234.0</ele><time>2026-05-03T15:03:09.937Z</time></trkpt><trkpt lat="50.92523259022537" lon="11.76184933088493"><ele>235.0</ele><time>2026-05-03T15:03:10.937Z</time></trkpt><trkpt lat="50.92511453172142" lon="11.761970208050343"><ele>236.0</ele><time>2026-05-03T15:03:11.937Z</time></trkpt><trkpt lat="50.92498954018359" lon="11.762102088327051"><ele>237.0</ele><time>2026-05-03T15:03:12.937Z</time></trkpt><trkpt lat="50.924858598141945" lon="11.76221626727542"><ele>238.0</ele><time>2026-05-03T15:03:13.937Z</time></trkpt><trkpt lat="50.92472860628039" lon="11.762336206430474"><ele>238.0</ele><time>2026-05-03T15:03:14.937Z</time></trkpt><trkpt lat="50.9246141986227" lon="11.762451586792935"><ele>238.0</ele><time>2026-05-03T15:03:15.937Z</time></trkpt><trkpt lat="50.924517094204646" lon="11.76254325452767"><ele>238.0</ele><time>2026-05-03T15:03:16.937Z</time></trkpt><trkpt lat="50.92441957776704" lon="11.762624055208809"><ele>238.0</ele><time>2026-05-03T15:03:17.937Z</time></trkpt><trkpt lat="50.924319134819136" lon="11.762699949135875"><ele>240.0</ele><time>2026-05-03T15:03:18.937Z</time></trkpt><trkpt lat="50.92421140197273" lon="11.76274566444683"><ele>242.0</ele><time>2026-05-03T15:03:19.937Z</time></trkpt><trkpt lat="50.92410500830092" lon="11.762773503541231"><ele>244.0</ele><time>2026-05-03T15:03:20.937Z</time></trkpt><trkpt lat="50.924015427932915" lon="11.76278036716384"><ele>246.0</ele><time>2026-05-03T15:03:21.937Z</time></trkpt><trkpt lat="50.92393247435536" lon="11.762784774652914"><ele>248.0</ele><time>2026-05-03T15:03:22.937Z</time></trkpt><trkpt lat="50.92385701420551" lon="11.7627963322944"><ele>248.0</ele><time>2026-05-03T15:03:23.937Z</time></trkpt><trkpt lat="50.92379047365495" lon="11.762794529732535"><ele>248.0</ele><time>2026-05-03T15:03:24.937Z</time></trkpt><trkpt lat="50.92367607392014" lon="11.762789364094047"><ele>248.0</ele><time>2026-05-03T15:03:26.937Z</time></trkpt><trkpt lat="50.92354144292794" lon="11.762788634794902"><ele>248.0</ele><time>2026-05-03T15:03:28.937Z</time></trkpt><trkpt lat="50.92347008018185" lon="11.76279667850573"><ele>248.0</ele><time>2026-05-03T15:03:29.937Z</time></trkpt><trkpt lat="50.92339283357763" lon="11.762794608060211"><ele>248.2</ele><time>2026-05-03T15:03:30.937Z</time></trkpt><trkpt lat="50.92332859577303" lon="11.762766552318602"><ele>248.4</ele><time>2026-05-03T15:03:31.937Z</time></trkpt><trkpt lat="50.923225424582185" lon="11.762742763746774"><ele>248.59999999999997</ele><time>2026-05-03T15:03:33.937Z</time></trkpt><trkpt lat="50.923241356208365" lon="11.762515776378379"><ele>248.79999999999998</ele><time>2026-05-03T15:03:34.937Z</time></trkpt><trkpt lat="50.92322639717843" lon="11.762387718097294"><ele>249.0</ele><time>2026-05-03T15:03:35.937Z</time></trkpt><trkpt lat="50.923225706849855" lon="11.762251508820793"><ele>250.2</ele><time>2026-05-03T15:03:36.937Z</time></trkpt><trkpt lat="50.92321817268663" lon="11.762122614174523"><ele>251.39999999999998</ele><time>2026-05-03T15:03:37.937Z</time></trkpt><trkpt lat="50.92320610577044" lon="11.761980903650441"><ele>252.6</ele><time>2026-05-03T15:03:38.937Z</time></trkpt><trkpt lat="50.92318847210548" lon="11.761830543519379"><ele>253.8</ele><time>2026-05-03T15:03:39.937Z</time></trkpt><trkpt lat="50.923159082734315" lon="11.761669259388944"><ele>255.0</ele><time>2026-05-03T15:03:40.937Z</time></trkpt><trkpt lat="50.923133007647664" lon="11.761494737616033"><ele>256.75</ele><time>2026-05-03T15:03:41.937Z</time></trkpt><trkpt lat="50.923106147864225" lon="11.761303637146064"><ele>258.5</ele><time>2026-05-03T15:03:42.937Z</time></trkpt><trkpt lat="50.92307563033814" lon="11.761105416788753"><ele>260.25</ele><time>2026-05-03T15:03:43.937Z</time></trkpt><trkpt lat="50.92304072157664" lon="11.760919350783427"><ele>262.0</ele><time>2026-05-03T15:03:44.937Z</time></trkpt><trkpt lat="50.92301414803845" lon="11.760720959295826"><ele>263.0</ele><time>2026-05-03T15:03:45.937Z</time></trkpt><trkpt lat="50.92298420161234" lon="11.760527818647212"><ele>264.0</ele><time>2026-05-03T15:03:46.937Z</time></trkpt><trkpt lat="50.9229550791639" lon="11.76035253816126"><ele>265.0</ele><time>2026-05-03T15:03:47.937Z</time></trkpt><trkpt lat="50.92294720202083" lon="11.760194271859536"><ele>266.0</ele><time>2026-05-03T15:03:48.937Z</time></trkpt><trkpt lat="50.92293573978137" lon="11.760041224479814"><ele>267.0</ele><time>2026-05-03T15:03:49.937Z</time></trkpt><trkpt lat="50.92292262782964" lon="11.759908019434867"><ele>267.1666666666667</ele><time>2026-05-03T15:03:50.937Z</time></trkpt><trkpt lat="50.92290987415356" lon="11.759786379788556"><ele>267.3333333333333</ele><time>2026-05-03T15:03:51.937Z</time></trkpt><trkpt lat="50.922893435550165" lon="11.759656417045752"><ele>267.5</ele><time>2026-05-03T15:03:52.937Z</time></trkpt><trkpt lat="50.922871837103244" lon="11.759513617239994"><ele>267.66666666666663</ele><time>2026-05-03T15:03:53.937Z</time></trkpt><trkpt lat="50.92286871434885" lon="11.75936870059776"><ele>267.8333333333333</ele><time>2026-05-03T15:03:54.937Z</time></trkpt><trkpt lat="50.922837467510135" lon="11.759218993058584"><ele>268.0</ele><time>2026-05-03T15:03:55.937Z</time></trkpt><trkpt lat="50.922798082006885" lon="11.759061198476653"><ele>268.0</ele><time>2026-05-03T15:03:56.937Z</time></trkpt><trkpt lat="50.92275189024202" lon="11.758896220264992"><ele>268.0</ele><time>2026-05-03T15:03:57.937Z</time></trkpt><trkpt lat="50.92270395815095" lon="11.758724891707882"><ele>268.0</ele><time>2026-05-03T15:03:58.937Z</time></trkpt><trkpt lat="50.922645679227564" lon="11.758554010678875"><ele>268.0</ele><time>2026-05-03T15:03:59.937Z</time></trkpt><trkpt lat="50.92256540842833" lon="11.758388104293443"><ele>268.66666666666663</ele><time>2026-05-03T15:04:00.937Z</time></trkpt><trkpt lat="50.92245870274964" lon="11.75822522795629"><ele>269.3333333333333</ele><time>2026-05-03T15:04:01.937Z</time></trkpt><trkpt lat="50.92233322012479" lon="11.758068362737356"><ele>270.0</ele><time>2026-05-03T15:04:02.937Z</time></trkpt><trkpt lat="50.92219853236119" lon="11.757932729181475"><ele>270.0</ele><time>2026-05-03T15:04:03.937Z</time></trkpt><trkpt lat="50.922048314787006" lon="11.75780281195855"><ele>270.0</ele><time>2026-05-03T15:04:04.937Z</time></trkpt><trkpt lat="50.92189453663899" lon="11.757683687828333"><ele>270.0</ele><time>2026-05-03T15:04:05.937Z</time></trkpt><trkpt lat="50.92173979155875" lon="11.757567104512594"><ele>271.6666666666667</ele><time>2026-05-03T15:04:06.937Z</time></trkpt><trkpt lat="50.92158294181633" lon="11.757458288143601"><ele>273.33333333333337</ele><time>2026-05-03T15:04:07.937Z</time></trkpt><trkpt lat="50.921428465266274" lon="11.757357587245867"><ele>275.0</ele><time>2026-05-03T15:04:08.937Z</time></trkpt><trkpt lat="50.921283542397575" lon="11.75726082928779"><ele>275.0</ele><time>2026-05-03T15:04:09.937Z</time></trkpt><trkpt lat="50.92115852482171" lon="11.757168656105762"><ele>275.0</ele><time>2026-05-03T15:04:10.937Z</time></trkpt><trkpt lat="50.92104544212294" lon="11.757072419787418"><ele>275.0</ele><time>2026-05-03T15:04:11.937Z</time></trkpt><trkpt lat="50.92095482728374" lon="11.756935225689118"><ele>275.0</ele><time>2026-05-03T15:04:12.937Z</time></trkpt><trkpt lat="50.9208744962866" lon="11.756797435155631"><ele>276.2</ele><time>2026-05-03T15:04:13.937Z</time></trkpt><trkpt lat="50.920799697813734" lon="11.756646664968379"><ele>277.4</ele><time>2026-05-03T15:04:14.937Z</time></trkpt><trkpt lat="50.92072250932336" lon="11.756516782707573"><ele>278.6</ele><time>2026-05-03T15:04:15.937Z</time></trkpt><trkpt lat="50.92065573163085" lon="11.756384153497283"><ele>279.8</ele><time>2026-05-03T15:04:16.937Z</time></trkpt><trkpt lat="50.92058835308835" lon="11.756257558199877"><ele>281.0</ele><time>2026-05-03T15:04:17.937Z</time></trkpt><trkpt lat="50.92052192841981" lon="11.756139317800388"><ele>281.40000000000003</ele><time>2026-05-03T15:04:18.937Z</time></trkpt><trkpt lat="50.92047022590898" lon="11.75600230742548"><ele>281.8</ele><time>2026-05-03T15:04:19.937Z</time></trkpt><trkpt lat="50.92041018927332" lon="11.75586764121655"><ele>282.20000000000005</ele><time>2026-05-03T15:04:20.937Z</time></trkpt><trkpt lat="50.92035023757347" lon="11.755737670221835"><ele>282.6</ele><time>2026-05-03T15:04:21.937Z</time></trkpt><trkpt lat="50.920298241151194" lon="11.755604612503577"><ele>283.0</ele><time>2026-05-03T15:04:22.937Z</time></trkpt><trkpt lat="50.9202563874459" lon="11.755475238596922"><ele>283.0</ele><time>2026-05-03T15:04:23.937Z</time></trkpt><trkpt lat="50.92021742063959" lon="11.75534527987816"><ele>283.0</ele><time>2026-05-03T15:04:24.937Z</time></trkpt><trkpt lat="50.92017890517712" lon="11.755217123339607"><ele>283.0</ele><time>2026-05-03T15:04:25.937Z</time></trkpt><trkpt lat="50.92013730158283" lon="11.755089198045441"><ele>283.0</ele><time>2026-05-03T15:04:26.937Z</time></trkpt><trkpt lat="50.92009729143325" lon="11.754959401596738"><ele>283.0</ele><time>2026-05-03T15:04:27.937Z</time></trkpt><trkpt lat="50.92005543423584" lon="11.754834265443433"><ele>283.3333333333333</ele><time>2026-05-03T15:04:28.937Z</time></trkpt><trkpt lat="50.92001306695223" lon="11.75471603489483"><ele>283.66666666666663</ele><time>2026-05-03T15:04:29.937Z</time></trkpt><trkpt lat="50.919979110645755" lon="11.754612576692406"><ele>284.0</ele><time>2026-05-03T15:04:30.937Z</time></trkpt><trkpt lat="50.91994819557547" lon="11.754514168929164"><ele>284.3333333333333</ele><time>2026-05-03T15:04:31.937Z</time></trkpt><trkpt lat="50.919899534987735" lon="11.75435527659529"><ele>284.6666666666667</ele><time>2026-05-03T15:04:33.937Z</time></trkpt><trkpt lat="50.919835336210824" lon="11.754224897378851"><ele>285.0</ele><time>2026-05-03T15:04:35.937Z</time></trkpt><trkpt lat="50.91973877840128" lon="11.75412292275764"><ele>285.0</ele><time>2026-05-03T15:04:37.937Z</time></trkpt><trkpt lat="50.91968132261008" lon="11.754065174962115"><ele>285.0</ele><time>2026-05-03T15:04:38.937Z</time></trkpt><trkpt lat="50.91962548197993" lon="11.754007314964092"><ele>285.0</ele><time>2026-05-03T15:04:39.937Z</time></trkpt><trkpt lat="50.91956953296086" lon="11.753955924157571"><ele>285.0</ele><time>2026-05-03T15:04:40.937Z</time></trkpt><trkpt lat="50.91950029528858" lon="11.75393720851439"><ele>285.0</ele><time>2026-05-03T15:04:41.937Z</time></trkpt><trkpt lat="50.91942945591234" lon="11.75396616060326"><ele>285.0</ele><time>2026-05-03T15:04:42.937Z</time></trkpt><trkpt lat="50.91935649336218" lon="11.754038487689389"><ele>285.0</ele><time>2026-05-03T15:04:43.937Z</time></trkpt><trkpt lat="50.919291890221885" lon="11.754109526017078"><ele>285.0</ele><time>2026-05-03T15:04:44.937Z</time></trkpt><trkpt lat="50.91922339796658" lon="11.754164522975746"><ele>285.0</ele><time>2026-05-03T15:04:45.937Z</time></trkpt><trkpt lat="50.919162725481236" lon="11.754208591405563"><ele>285.0</ele><time>2026-05-03T15:04:46.937Z</time></trkpt><trkpt lat="50.91910422958291" lon="11.754246344632616"><ele>285.0</ele><time>2026-05-03T15:04:47.937Z</time></trkpt><trkpt lat="50.91900023779394" lon="11.754334874793736"><ele>285.0</ele><time>2026-05-03T15:04:49.937Z</time></trkpt><trkpt lat="50.918902702897434" lon="11.754413447532905"><ele>285.0</ele><time>2026-05-03T15:04:51.936Z</time></trkpt><trkpt lat="50.91885298127474" lon="11.754496721672927"><ele>284.8333333333333</ele><time>2026-05-03T15:04:52.936Z</time></trkpt><trkpt lat="50.91878776826883" lon="11.754581797623096"><ele>284.6666666666667</ele><time>2026-05-03T15:04:53.936Z</time></trkpt><trkpt lat="50.918720329337255" lon="11.754643758107282"><ele>284.5</ele><time>2026-05-03T15:04:54.936Z</time></trkpt><trkpt lat="50.91871486691048" lon="11.754796978073898"><ele>284.33333333333337</ele><time>2026-05-03T15:04:55.936Z</time></trkpt><trkpt lat="50.918683111941036" lon="11.754897812940898"><ele>284.1666666666667</ele><time>2026-05-03T15:04:56.936Z</time></trkpt><trkpt lat="50.91863316003518" lon="11.754967488791035"><ele>284.0</ele><time>2026-05-03T15:04:57.936Z</time></trkpt><trkpt lat="50.91855333294727" lon="11.755064852420068"><ele>284.0</ele><time>2026-05-03T15:04:59.936Z</time></trkpt><trkpt lat="50.91844805213079" lon="11.754995560229316"><ele>284.0</ele><time>2026-05-03T15:05:01.937Z</time></trkpt><trkpt lat="50.918398906189836" lon="11.7549321304068"><ele>284.0</ele><time>2026-05-03T15:05:02.937Z</time></trkpt><trkpt lat="50.91834599599732" lon="11.754863356139225"><ele>284.0</ele><time>2026-05-03T15:05:03.937Z</time></trkpt><trkpt lat="50.91828708820282" lon="11.75478081427903"><ele>284.0</ele><time>2026-05-03T15:05:04.937Z</time></trkpt><trkpt lat="50.91823165923796" lon="11.75469927973782"><ele>284.0</ele><time>2026-05-03T15:05:05.937Z</time></trkpt><trkpt lat="50.91817568117485" lon="11.754629466133757"><ele>283.4</ele><time>2026-05-03T15:05:06.937Z</time></trkpt><trkpt lat="50.91810408416577" lon="11.754559575057163"><ele>282.79999999999995</ele><time>2026-05-03T15:05:07.937Z</time></trkpt><trkpt lat="50.91802667561323" lon="11.754500016649434"><ele>282.20000000000005</ele><time>2026-05-03T15:05:08.937Z</time></trkpt><trkpt lat="50.91792904010904" lon="11.754444762748212"><ele>281.6</ele><time>2026-05-03T15:05:09.937Z</time></trkpt><trkpt lat="50.91782894379551" lon="11.754382488248808"><ele>281.0</ele><time>2026-05-03T15:05:10.937Z</time></trkpt><trkpt lat="50.91773591709342" lon="11.754323165163598"><ele>281.0</ele><time>2026-05-03T15:05:11.937Z</time></trkpt><trkpt lat="50.917636738785866" lon="11.754249441076833"><ele>281.0</ele><time>2026-05-03T15:05:12.937Z</time></trkpt><trkpt lat="50.91753371674649" lon="11.754162286770516"><ele>281.0</ele><time>2026-05-03T15:05:13.937Z</time></trkpt><trkpt lat="50.91742964533936" lon="11.754077758194903"><ele>281.0</ele><time>2026-05-03T15:05:14.937Z</time></trkpt><trkpt lat="50.91730593021453" lon="11.754004752681201"><ele>280.5</ele><time>2026-05-03T15:05:15.937Z</time></trkpt><trkpt lat="50.917174537658525" lon="11.753971743936242"><ele>280.0</ele><time>2026-05-03T15:05:16.937Z</time></trkpt><trkpt lat="50.91703800069525" lon="11.753961777746358"><ele>279.5</ele><time>2026-05-03T15:05:17.937Z</time></trkpt><trkpt lat="50.916898042091766" lon="11.753951435690093"><ele>279.0</ele><time>2026-05-03T15:05:18.937Z</time></trkpt><trkpt lat="50.916756997735106" lon="11.75392340060271"><ele>278.75</ele><time>2026-05-03T15:05:19.937Z</time></trkpt><trkpt lat="50.916622710932906" lon="11.753898411675323"><ele>278.5</ele><time>2026-05-03T15:05:20.937Z</time></trkpt><trkpt lat="50.916499602584494" lon="11.753881347659872"><ele>278.25</ele><time>2026-05-03T15:05:21.937Z</time></trkpt><trkpt lat="50.916376859297586" lon="11.753857728089873"><ele>278.0</ele><time>2026-05-03T15:05:22.937Z</time></trkpt><trkpt lat="50.916250548366946" lon="11.75383358601715"><ele>278.0</ele><time>2026-05-03T15:05:23.937Z</time></trkpt><trkpt lat="50.91612518375402" lon="11.753822971069768"><ele>278.0</ele><time>2026-05-03T15:05:24.937Z</time></trkpt><trkpt lat="50.91599910270086" lon="11.753812549173626"><ele>278.0</ele><time>2026-05-03T15:05:25.937Z</time></trkpt><trkpt lat="50.91586557493284" lon="11.753803645143627"><ele>278.0</ele><time>2026-05-03T15:05:26.937Z</time></trkpt><trkpt lat="50.915719653405546" lon="11.753793200821125"><ele>276.0</ele><time>2026-05-03T15:05:27.937Z</time></trkpt><trkpt lat="50.91555964626548" lon="11.753765304799416"><ele>274.0</ele><time>2026-05-03T15:05:28.937Z</time></trkpt><trkpt lat="50.91539574242369" lon="11.753728413694233"><ele>272.0</ele><time>2026-05-03T15:05:29.937Z</time></trkpt><trkpt lat="50.91522894180402" lon="11.753671413660935"><ele>272.0</ele><time>2026-05-03T15:05:30.937Z</time></trkpt><trkpt lat="50.91507222232873" lon="11.753566205872234"><ele>272.0</ele><time>2026-05-03T15:05:31.937Z</time></trkpt><trkpt lat="50.91491674533983" lon="11.753437405002344"><ele>272.0</ele><time>2026-05-03T15:05:32.937Z</time></trkpt><trkpt lat="50.91478269760205" lon="11.753295757759915"><ele>270.25</ele><time>2026-05-03T15:05:33.937Z</time></trkpt><trkpt lat="50.914663320095045" lon="11.753131610558059"><ele>268.5</ele><time>2026-05-03T15:05:34.937Z</time></trkpt><trkpt lat="50.91456040334555" lon="11.75297619749883"><ele>266.75</ele><time>2026-05-03T15:05:35.937Z</time></trkpt><trkpt lat="50.91447062508581" lon="11.752838219020363"><ele>265.0</ele><time>2026-05-03T15:05:36.937Z</time></trkpt><trkpt lat="50.914388049419316" lon="11.752709560788782"><ele>265.2</ele><time>2026-05-03T15:05:37.937Z</time></trkpt><trkpt lat="50.914327820692094" lon="11.7526077889912"><ele>265.4</ele><time>2026-05-03T15:05:38.937Z</time></trkpt><trkpt lat="50.914272157252" lon="11.752523479788845"><ele>265.6</ele><time>2026-05-03T15:05:39.937Z</time></trkpt><trkpt lat="50.914187562211666" lon="11.752394554645994"><ele>265.8</ele><time>2026-05-03T15:05:41.937Z</time></trkpt><trkpt lat="50.91414030026715" lon="11.752327634431188"><ele>266.0</ele><time>2026-05-03T15:05:42.937Z</time></trkpt><trkpt lat="50.91406695479163" lon="11.752202827384583"><ele>268.0</ele><time>2026-05-03T15:05:44.936Z</time></trkpt><trkpt lat="50.91396076095222" lon="11.752111045704625"><ele>270.0</ele><time>2026-05-03T15:05:46.936Z</time></trkpt><trkpt lat="50.91389067218927" lon="11.75212896957798"><ele>272.0</ele><time>2026-05-03T15:05:47.936Z</time></trkpt><trkpt lat="50.91383090283671" lon="11.752190555999137"><ele>274.0</ele><time>2026-05-03T15:05:48.936Z</time></trkpt><trkpt lat="50.913773314932484" lon="11.752250094359356"><ele>276.0</ele><time>2026-05-03T15:05:49.936Z</time></trkpt><trkpt lat="50.91371128948794" lon="11.752299200498083"><ele>278.0</ele><time>2026-05-03T15:05:50.936Z</time></trkpt><trkpt lat="50.91365387117624" lon="11.752340638725386"><ele>278.0</ele><time>2026-05-03T15:05:51.936Z</time></trkpt><trkpt lat="50.91359340727312" lon="11.752371901678126"><ele>278.0</ele><time>2026-05-03T15:05:52.936Z</time></trkpt><trkpt lat="50.91347894100685" lon="11.75241036649563"><ele>278.0</ele><time>2026-05-03T15:05:54.936Z</time></trkpt><trkpt lat="50.91338335049418" lon="11.752291103999022"><ele>278.0</ele><time>2026-05-03T15:05:56.936Z</time></trkpt><trkpt lat="50.91335266132612" lon="11.752200503827353"><ele>278.0</ele><time>2026-05-03T15:05:57.936Z</time></trkpt><trkpt lat="50.9133206523128" lon="11.752081514212344"><ele>278.0</ele><time>2026-05-03T15:05:58.936Z</time></trkpt><trkpt lat="50.91327835316732" lon="11.751970996811465"><ele>279.6666666666667</ele><time>2026-05-03T15:05:59.936Z</time></trkpt><trkpt lat="50.91324102973576" lon="11.751863008162488"><ele>281.33333333333337</ele><time>2026-05-03T15:06:00.936Z</time></trkpt><trkpt lat="50.913222909846695" lon="11.751750244721658"><ele>283.0</ele><time>2026-05-03T15:06:01.936Z</time></trkpt><trkpt lat="50.913200248828794" lon="11.751651497417901"><ele>284.6666666666667</ele><time>2026-05-03T15:06:02.936Z</time></trkpt><trkpt lat="50.91316555643153" lon="11.751552565107811"><ele>286.3333333333333</ele><time>2026-05-03T15:06:03.936Z</time></trkpt><trkpt lat="50.91312219713757" lon="11.751432530946389"><ele>288.0</ele><time>2026-05-03T15:06:04.936Z</time></trkpt><trkpt lat="50.913083531494784" lon="11.751308403331125"><ele>288.0</ele><time>2026-05-03T15:06:05.936Z</time></trkpt><trkpt lat="50.91305486058041" lon="11.751170727021352"><ele>288.0</ele><time>2026-05-03T15:06:06.936Z</time></trkpt><trkpt lat="50.913021406313746" lon="11.751012143794846"><ele>288.0</ele><time>2026-05-03T15:06:07.936Z</time></trkpt><trkpt lat="50.912995965233996" lon="11.750832086330027"><ele>288.0</ele><time>2026-05-03T15:06:08.936Z</time></trkpt><trkpt lat="50.91300508113526" lon="11.75063068166407"><ele>288.0</ele><time>2026-05-03T15:06:09.936Z</time></trkpt><trkpt lat="50.91300901856898" lon="11.750415833596557"><ele>287.75</ele><time>2026-05-03T15:06:10.936Z</time></trkpt><trkpt lat="50.91303038270208" lon="11.750200611742903"><ele>287.5</ele><time>2026-05-03T15:06:11.936Z</time></trkpt><trkpt lat="50.913061621680505" lon="11.749981278032086"><ele>287.25</ele><time>2026-05-03T15:06:12.936Z</time></trkpt><trkpt lat="50.91309879335335" lon="11.749775098449849"><ele>287.0</ele><time>2026-05-03T15:06:13.936Z</time></trkpt><trkpt lat="50.913133334360104" lon="11.74956498655959"><ele>286.6666666666667</ele><time>2026-05-03T15:06:14.936Z</time></trkpt><trkpt lat="50.91316965384988" lon="11.749350243505077"><ele>286.3333333333333</ele><time>2026-05-03T15:06:15.936Z</time></trkpt><trkpt lat="50.91316240230953" lon="11.749108444520916"><ele>286.0</ele><time>2026-05-03T15:06:16.936Z</time></trkpt><trkpt lat="50.913134783741505" lon="11.748851915696678"><ele>286.0</ele><time>2026-05-03T15:06:17.936Z</time></trkpt><trkpt lat="50.91309140882863" lon="11.748577656240403"><ele>286.0</ele><time>2026-05-03T15:06:18.936Z</time></trkpt><trkpt lat="50.91304313106194" lon="11.748272343434"><ele>286.0</ele><time>2026-05-03T15:06:19.936Z</time></trkpt><trkpt lat="50.91299303778834" lon="11.747954995473274"><ele>286.3333333333333</ele><time>2026-05-03T15:06:20.936Z</time></trkpt><trkpt lat="50.91293726835913" lon="11.747626934805659"><ele>286.6666666666667</ele><time>2026-05-03T15:06:21.936Z</time></trkpt><trkpt lat="50.912875119373346" lon="11.747307066543407"><ele>287.0</ele><time>2026-05-03T15:06:22.936Z</time></trkpt><trkpt lat="50.91280641845568" lon="11.746983359612784"><ele>287.0</ele><time>2026-05-03T15:06:23.936Z</time></trkpt><trkpt lat="50.91273373359816" lon="11.746644347993326"><ele>287.0</ele><time>2026-05-03T15:06:24.936Z</time></trkpt><trkpt lat="50.912641697083465" lon="11.746293124135642"><ele>287.6666666666667</ele><time>2026-05-03T15:06:25.936Z</time></trkpt><trkpt lat="50.912544787646986" lon="11.74597028589957"><ele>288.3333333333333</ele><time>2026-05-03T15:06:26.936Z</time></trkpt><trkpt lat="50.91246929008852" lon="11.745660639408174"><ele>289.0</ele><time>2026-05-03T15:06:27.936Z</time></trkpt><trkpt lat="50.91240617949628" lon="11.745357871053507"><ele>288.66666666666663</ele><time>2026-05-03T15:06:28.936Z</time></trkpt><trkpt lat="50.912381083728114" lon="11.745045563792646"><ele>288.3333333333333</ele><time>2026-05-03T15:06:29.936Z</time></trkpt><trkpt lat="50.91235828371358" lon="11.744719723352489"><ele>288.0</ele><time>2026-05-03T15:06:30.936Z</time></trkpt><trkpt lat="50.912359735908154" lon="11.74438106197455"><ele>288.0</ele><time>2026-05-03T15:06:31.936Z</time></trkpt><trkpt lat="50.91237800302681" lon="11.744027649608999"><ele>288.0</ele><time>2026-05-03T15:06:32.936Z</time></trkpt><trkpt lat="50.912403409739944" lon="11.743668337958773"><ele>289.0</ele><time>2026-05-03T15:06:33.936Z</time></trkpt><trkpt lat="50.91242909287605" lon="11.743305116035247"><ele>290.0</ele><time>2026-05-03T15:06:34.936Z</time></trkpt><trkpt lat="50.912455377698365" lon="11.74293338565151"><ele>290.0</ele><time>2026-05-03T15:06:35.936Z</time></trkpt><trkpt lat="50.91247966691251" lon="11.742589167891637"><ele>290.0</ele><time>2026-05-03T15:06:36.936Z</time></trkpt><trkpt lat="50.91250254777394" lon="11.742276866802895"><ele>290.0</ele><time>2026-05-03T15:06:37.936Z</time></trkpt><trkpt lat="50.91252581387489" lon="11.741989758169773"><ele>290.33333333333337</ele><time>2026-05-03T15:06:38.936Z</time></trkpt><trkpt lat="50.91254519097786" lon="11.741713214175943"><ele>290.6666666666667</ele><time>2026-05-03T15:06:39.936Z</time></trkpt><trkpt lat="50.912543579163625" lon="11.741459003679344"><ele>291.0</ele><time>2026-05-03T15:06:40.936Z</time></trkpt><trkpt lat="50.912542649521534" lon="11.741208994032322"><ele>291.3333333333333</ele><time>2026-05-03T15:06:41.936Z</time></trkpt><trkpt lat="50.91246953905639" lon="11.740953581416846"><ele>291.66666666666663</ele><time>2026-05-03T15:06:42.936Z</time></trkpt><trkpt lat="50.91239370485288" lon="11.740713516025034"><ele>292.0</ele><time>2026-05-03T15:06:43.936Z</time></trkpt><trkpt lat="50.91231297152286" lon="11.74047983438448"><ele>292.0</ele><time>2026-05-03T15:06:44.936Z</time></trkpt><trkpt lat="50.912257344073815" lon="11.740202755561146"><ele>292.0</ele><time>2026-05-03T15:06:45.936Z</time></trkpt><trkpt lat="50.91218999055981" lon="11.73992168927338"><ele>292.0</ele><time>2026-05-03T15:06:46.936Z</time></trkpt><trkpt lat="50.912124786638444" lon="11.739631942519566"><ele>291.66666666666663</ele><time>2026-05-03T15:06:47.936Z</time></trkpt><trkpt lat="50.91206071600743" lon="11.739351893521993"><ele>291.3333333333333</ele><time>2026-05-03T15:06:48.936Z</time></trkpt><trkpt lat="50.9119827700116" lon="11.73911972125097"><ele>291.0</ele><time>2026-05-03T15:06:49.936Z</time></trkpt><trkpt lat="50.91191591050852" lon="11.738864561046292"><ele>291.0</ele><time>2026-05-03T15:06:50.936Z</time></trkpt><trkpt lat="50.911841899489865" lon="11.738601863528983"><ele>291.0</ele><time>2026-05-03T15:06:51.936Z</time></trkpt><trkpt lat="50.911763373769254" lon="11.738318055956425"><ele>291.0</ele><time>2026-05-03T15:06:52.936Z</time></trkpt><trkpt lat="50.911713116407704" lon="11.738014063039374"><ele>291.0</ele><time>2026-05-03T15:06:53.936Z</time></trkpt><trkpt lat="50.91164968272775" lon="11.737704526620492"><ele>291.0</ele><time>2026-05-03T15:06:54.936Z</time></trkpt><trkpt lat="50.91158793546892" lon="11.737400470362815"><ele>291.0</ele><time>2026-05-03T15:06:55.935Z</time></trkpt><trkpt lat="50.91152651826939" lon="11.737100031061546"><ele>291.0</ele><time>2026-05-03T15:06:56.936Z</time></trkpt><trkpt lat="50.91146430224026" lon="11.736798259688973"><ele>291.0</ele><time>2026-05-03T15:06:57.936Z</time></trkpt><trkpt lat="50.91140196864723" lon="11.736509503642873"><ele>291.0</ele><time>2026-05-03T15:06:58.935Z</time></trkpt><trkpt lat="50.91131966714567" lon="11.736233296774943"><ele>290.6666666666667</ele><time>2026-05-03T15:06:59.935Z</time></trkpt><trkpt lat="50.911253932718" lon="11.735969531104422"><ele>290.33333333333337</ele><time>2026-05-03T15:07:00.935Z</time></trkpt><trkpt lat="50.91118185551462" lon="11.735707168907977"><ele>290.0</ele><time>2026-05-03T15:07:01.935Z</time></trkpt><trkpt lat="50.9111046053671" lon="11.735434780763308"><ele>290.0</ele><time>2026-05-03T15:07:02.935Z</time></trkpt><trkpt lat="50.911025289524616" lon="11.735165607321507"><ele>290.0</ele><time>2026-05-03T15:07:03.935Z</time></trkpt><trkpt lat="50.91093672580721" lon="11.734884557671641"><ele>290.0</ele><time>2026-05-03T15:07:04.935Z</time></trkpt><trkpt lat="50.91084766838409" lon="11.734612732155718"><ele>289.6666666666667</ele><time>2026-05-03T15:07:05.935Z</time></trkpt><trkpt lat="50.91076133094146" lon="11.734341971333256"><ele>289.3333333333333</ele><time>2026-05-03T15:07:06.935Z</time></trkpt><trkpt lat="50.91069674083069" lon="11.73406985443645"><ele>289.0</ele><time>2026-05-03T15:07:07.935Z</time></trkpt><trkpt lat="50.91062689142087" lon="11.733821412639967"><ele>289.0</ele><time>2026-05-03T15:07:08.935Z</time></trkpt><trkpt lat="50.91056074813925" lon="11.733582153793755"><ele>289.0</ele><time>2026-05-03T15:07:09.935Z</time></trkpt><trkpt lat="50.9104996331302" lon="11.73336108565252"><ele>289.0</ele><time>2026-05-03T15:07:10.935Z</time></trkpt><trkpt lat="50.91042682287834" lon="11.733159267327427"><ele>288.75</ele><time>2026-05-03T15:07:11.935Z</time></trkpt><trkpt lat="50.91037105739336" lon="11.732954822052907"><ele>288.5</ele><time>2026-05-03T15:07:12.935Z</time></trkpt><trkpt lat="50.91033175399524" lon="11.732752553244334"><ele>288.25</ele><time>2026-05-03T15:07:13.935Z</time></trkpt><trkpt lat="50.91028295692755" lon="11.732571089178323"><ele>288.0</ele><time>2026-05-03T15:07:14.935Z</time></trkpt><trkpt lat="50.91023787893816" lon="11.732400388998565"><ele>288.0</ele><time>2026-05-03T15:07:15.935Z</time></trkpt><trkpt lat="50.910181366943476" lon="11.732250436602726"><ele>288.0</ele><time>2026-05-03T15:07:16.935Z</time></trkpt><trkpt lat="50.91015249463108" lon="11.732090839337374"><ele>288.0</ele><time>2026-05-03T15:07:17.935Z</time></trkpt><trkpt lat="50.910110788868366" lon="11.731951280809911"><ele>288.0</ele><time>2026-05-03T15:07:18.935Z</time></trkpt><trkpt lat="50.910105427796836" lon="11.731813717454203"><ele>288.0</ele><time>2026-05-03T15:07:19.935Z</time></trkpt><trkpt lat="50.91007868121151" lon="11.731707040297815"><ele>288.0</ele><time>2026-05-03T15:07:20.935Z</time></trkpt><trkpt lat="50.910106591887654" lon="11.731612935434589"><ele>288.0</ele><time>2026-05-03T15:07:21.935Z</time></trkpt><trkpt lat="50.9100527677565" lon="11.731376920767334"><ele>288.0</ele><time>2026-05-03T15:07:23.935Z</time></trkpt><trkpt lat="50.909999341136086" lon="11.731224710045396"><ele>288.0</ele><time>2026-05-03T15:07:24.935Z</time></trkpt><trkpt lat="50.90994774980777" lon="11.731047579457552"><ele>287.4</ele><time>2026-05-03T15:07:25.935Z</time></trkpt><trkpt lat="50.909905207904906" lon="11.730866070052894"><ele>286.8</ele><time>2026-05-03T15:07:26.935Z</time></trkpt><trkpt lat="50.909864363538794" lon="11.730700977088828"><ele>286.2</ele><time>2026-05-03T15:07:27.935Z</time></trkpt><trkpt lat="50.909817283011265" lon="11.730558966593831"><ele>285.6</ele><time>2026-05-03T15:07:28.935Z</time></trkpt><trkpt lat="50.90975604804727" lon="11.730428471539314"><ele>285.0</ele><time>2026-05-03T15:07:29.935Z</time></trkpt><trkpt lat="50.909692104605455" lon="11.73030040477847"><ele>284.6</ele><time>2026-05-03T15:07:30.935Z</time></trkpt><trkpt lat="50.909624811913396" lon="11.730169285718437"><ele>284.2</ele><time>2026-05-03T15:07:31.935Z</time></trkpt><trkpt lat="50.90956849166444" lon="11.730035786766187"><ele>283.8</ele><time>2026-05-03T15:07:32.935Z</time></trkpt><trkpt lat="50.90951224778973" lon="11.729901584925143"><ele>283.4</ele><time>2026-05-03T15:07:33.935Z</time></trkpt><trkpt lat="50.90945750345463" lon="11.729769850587262"><ele>283.0</ele><time>2026-05-03T15:07:34.935Z</time></trkpt><trkpt lat="50.909406167741096" lon="11.729639886784726"><ele>283.0</ele><time>2026-05-03T15:07:35.935Z</time></trkpt><trkpt lat="50.909358890436735" lon="11.72950899457803"><ele>283.0</ele><time>2026-05-03T15:07:36.935Z</time></trkpt><trkpt lat="50.90931765409267" lon="11.72938810237432"><ele>283.0</ele><time>2026-05-03T15:07:37.935Z</time></trkpt><trkpt lat="50.90928036048668" lon="11.729258759592584"><ele>283.0</ele><time>2026-05-03T15:07:38.935Z</time></trkpt><trkpt lat="50.90924093871169" lon="11.729131992551501"><ele>283.0</ele><time>2026-05-03T15:07:39.935Z</time></trkpt><trkpt lat="50.909207819544086" lon="11.729003818460415"><ele>283.0</ele><time>2026-05-03T15:07:40.935Z</time></trkpt><trkpt lat="50.909177659241074" lon="11.728870591397053"><ele>283.0</ele><time>2026-05-03T15:07:41.935Z</time></trkpt><trkpt lat="50.909149276133746" lon="11.728723946644562"><ele>283.0</ele><time>2026-05-03T15:07:42.935Z</time></trkpt><trkpt lat="50.90910691630082" lon="11.728593696216638"><ele>283.0</ele><time>2026-05-03T15:07:43.935Z</time></trkpt><trkpt lat="50.909058586999855" lon="11.728481934643577"><ele>283.0</ele><time>2026-05-03T15:07:44.935Z</time></trkpt><trkpt lat="50.90901112444179" lon="11.72838779339412"><ele>283.0</ele><time>2026-05-03T15:07:45.935Z</time></trkpt><trkpt lat="50.908963814234056" lon="11.728311168113256"><ele>283.0</ele><time>2026-05-03T15:07:46.935Z</time></trkpt><trkpt lat="50.90892175494124" lon="11.728235109756437"><ele>283.0</ele><time>2026-05-03T15:07:47.935Z</time></trkpt><trkpt lat="50.908869741991275" lon="11.728116406278593"><ele>283.0</ele><time>2026-05-03T15:07:49.935Z</time></trkpt><trkpt lat="50.908812728329785" lon="11.728011811415827"><ele>283.0</ele><time>2026-05-03T15:07:54.935Z</time></trkpt><trkpt lat="50.908786785429335" lon="11.727909832102348"><ele>283.0</ele><time>2026-05-03T15:07:56.935Z</time></trkpt><trkpt lat="50.908835531864135" lon="11.727827888636506"><ele>283.0</ele><time>2026-05-03T15:07:57.935Z</time></trkpt><trkpt lat="50.90894883846508" lon="11.727734389080469"><ele>283.0</ele><time>2026-05-03T15:07:59.935Z</time></trkpt><trkpt lat="50.909010585036306" lon="11.727652900366476"><ele>283.16666666666663</ele><time>2026-05-03T15:08:00.935Z</time></trkpt><trkpt lat="50.909081376006974" lon="11.727562389768481"><ele>283.3333333333333</ele><time>2026-05-03T15:08:01.935Z</time></trkpt><trkpt lat="50.90915186135419" lon="11.72747910113109"><ele>283.5</ele><time>2026-05-03T15:08:02.935Z</time></trkpt><trkpt lat="50.90920908242915" lon="11.727367713269448"><ele>283.6666666666667</ele><time>2026-05-03T15:08:03.935Z</time></trkpt><trkpt lat="50.90923981194006" lon="11.727263804784224"><ele>283.83333333333337</ele><time>2026-05-03T15:08:04.935Z</time></trkpt><trkpt lat="50.90928385382408" lon="11.727171202978946"><ele>284.0</ele><time>2026-05-03T15:08:05.935Z</time></trkpt><trkpt lat="50.909312722072414" lon="11.727081489668718"><ele>284.0</ele><time>2026-05-03T15:08:06.935Z</time></trkpt><trkpt lat="50.909427782298124" lon="11.727046673634389"><ele>284.0</ele><time>2026-05-03T15:08:07.935Z</time></trkpt><trkpt lat="50.90950962007202" lon="11.727020223803812"><ele>284.0</ele><time>2026-05-03T15:08:08.935Z</time></trkpt><trkpt lat="50.9095843059316" lon="11.726948757311364"><ele>284.0</ele><time>2026-05-03T15:08:09.935Z</time></trkpt><trkpt lat="50.90966874457428" lon="11.726895326015764"><ele>284.0</ele><time>2026-05-03T15:08:10.935Z</time></trkpt><trkpt lat="50.90976321248873" lon="11.72686902347386"><ele>284.0</ele><time>2026-05-03T15:08:11.935Z</time></trkpt><trkpt lat="50.909858231280694" lon="11.726812681463286"><ele>284.0</ele><time>2026-05-03T15:08:12.935Z</time></trkpt><trkpt lat="50.909951966242915" lon="11.726764057881022"><ele>284.0</ele><time>2026-05-03T15:08:13.935Z</time></trkpt><trkpt lat="50.91004873059399" lon="11.726721455656692"><ele>284.0</ele><time>2026-05-03T15:08:14.935Z</time></trkpt><trkpt lat="50.91015754913602" lon="11.726662105962973"><ele>284.0</ele><time>2026-05-03T15:08:15.935Z</time></trkpt><trkpt lat="50.91026332791823" lon="11.726604450772168"><ele>285.0</ele><time>2026-05-03T15:08:16.935Z</time></trkpt><trkpt lat="50.91037098897652" lon="11.726548721880516"><ele>286.0</ele><time>2026-05-03T15:08:17.935Z</time></trkpt><trkpt lat="50.9104816045334" lon="11.726488583083185"><ele>287.0</ele><time>2026-05-03T15:08:18.935Z</time></trkpt><trkpt lat="50.91059364936455" lon="11.726427483832575"><ele>288.0</ele><time>2026-05-03T15:08:19.935Z</time></trkpt><trkpt lat="50.91071703623056" lon="11.726358211458415"><ele>288.0</ele><time>2026-05-03T15:08:20.935Z</time></trkpt><trkpt lat="50.91084886211866" lon="11.726293583855437"><ele>288.0</ele><time>2026-05-03T15:08:21.935Z</time></trkpt><trkpt lat="50.91098986798315" lon="11.726217497245598"><ele>288.0</ele><time>2026-05-03T15:08:22.935Z</time></trkpt><trkpt lat="50.911134248734164" lon="11.72614060126407"><ele>288.0</ele><time>2026-05-03T15:08:23.935Z</time></trkpt><trkpt lat="50.91128570654858" lon="11.726065037322094"><ele>290.3333333333333</ele><time>2026-05-03T15:08:24.935Z</time></trkpt><trkpt lat="50.91143931721961" lon="11.725978914073695"><ele>292.66666666666663</ele><time>2026-05-03T15:08:25.935Z</time></trkpt><trkpt lat="50.91158870964501" lon="11.725890162654057"><ele>295.0</ele><time>2026-05-03T15:08:26.935Z</time></trkpt><trkpt lat="50.91173704028866" lon="11.72580207624275"><ele>297.66666666666663</ele><time>2026-05-03T15:08:27.935Z</time></trkpt><trkpt lat="50.911886692822186" lon="11.725722504660586"><ele>300.3333333333333</ele><time>2026-05-03T15:08:28.935Z</time></trkpt><trkpt lat="50.91203507258892" lon="11.725647744474532"><ele>303.0</ele><time>2026-05-03T15:08:29.935Z</time></trkpt><trkpt lat="50.91217814568313" lon="11.725566870876152"><ele>303.0</ele><time>2026-05-03T15:08:30.935Z</time></trkpt><trkpt lat="50.91231230273464" lon="11.725488755531993"><ele>303.0</ele><time>2026-05-03T15:08:31.935Z</time></trkpt><trkpt lat="50.912448994237295" lon="11.725413222929262"><ele>303.0</ele><time>2026-05-03T15:08:32.935Z</time></trkpt><trkpt lat="50.91258646349794" lon="11.725335467514583"><ele>303.0</ele><time>2026-05-03T15:08:33.935Z</time></trkpt><trkpt lat="50.91271865785074" lon="11.725248693108563"><ele>304.0</ele><time>2026-05-03T15:08:34.935Z</time></trkpt><trkpt lat="50.9128469644526" lon="11.725149913666957"><ele>305.0</ele><time>2026-05-03T15:08:35.935Z</time></trkpt><trkpt lat="50.91297304525966" lon="11.725049369307678"><ele>306.0</ele><time>2026-05-03T15:08:36.935Z</time></trkpt><trkpt lat="50.91310555388673" lon="11.72495457661457"><ele>307.0</ele><time>2026-05-03T15:08:37.935Z</time></trkpt><trkpt lat="50.91323682533878" lon="11.724865111560918"><ele>307.0</ele><time>2026-05-03T15:08:38.935Z</time></trkpt><trkpt lat="50.91336877727053" lon="11.72476869809025"><ele>307.0</ele><time>2026-05-03T15:08:39.935Z</time></trkpt><trkpt lat="50.91350211051514" lon="11.724666665519578"><ele>307.0</ele><time>2026-05-03T15:08:40.935Z</time></trkpt><trkpt lat="50.91364035644714" lon="11.724559628688134"><ele>307.0</ele><time>2026-05-03T15:08:41.935Z</time></trkpt><trkpt lat="50.91377977694305" lon="11.72444974145186"><ele>308.66666666666663</ele><time>2026-05-03T15:08:42.935Z</time></trkpt><trkpt lat="50.91392021592618" lon="11.724339262455064"><ele>310.3333333333333</ele><time>2026-05-03T15:08:43.935Z</time></trkpt><trkpt lat="50.91407310236786" lon="11.724254164932919"><ele>312.0</ele><time>2026-05-03T15:08:44.935Z</time></trkpt><trkpt lat="50.9142125226696" lon="11.724151360373936"><ele>313.5</ele><time>2026-05-03T15:08:45.935Z</time></trkpt><trkpt lat="50.91433514143295" lon="11.724054875936341"><ele>315.0</ele><time>2026-05-03T15:08:46.935Z</time></trkpt><trkpt lat="50.914443409123" lon="11.723971589279408"><ele>316.5</ele><time>2026-05-03T15:08:47.935Z</time></trkpt><trkpt lat="50.91454954114564" lon="11.723925311536988"><ele>318.0</ele><time>2026-05-03T15:08:48.935Z</time></trkpt><trkpt lat="50.91466461724047" lon="11.723948737629543"><ele>318.0</ele><time>2026-05-03T15:08:49.935Z</time></trkpt><trkpt lat="50.91479309696615" lon="11.723939736748415"><ele>318.0</ele><time>2026-05-03T15:08:50.935Z</time></trkpt><trkpt lat="50.91492155320372" lon="11.723959882114551"><ele>318.0</ele><time>2026-05-03T15:08:51.935Z</time></trkpt><trkpt lat="50.91506654894889" lon="11.723965567198334"><ele>318.0</ele><time>2026-05-03T15:08:52.935Z</time></trkpt><trkpt lat="50.915220305683995" lon="11.723977723994455"><ele>318.75</ele><time>2026-05-03T15:08:53.935Z</time></trkpt><trkpt lat="50.91537286346722" lon="11.723982766853362"><ele>319.5</ele><time>2026-05-03T15:08:54.935Z</time></trkpt><trkpt lat="50.915500795874806" lon="11.724009592112216"><ele>320.25</ele><time>2026-05-03T15:08:55.935Z</time></trkpt><trkpt lat="50.91560349942838" lon="11.723980413331635"><ele>321.0</ele><time>2026-05-03T15:08:56.935Z</time></trkpt><trkpt lat="50.91568662372925" lon="11.723901921392399"><ele>321.0</ele><time>2026-05-03T15:08:57.935Z</time></trkpt><trkpt lat="50.91574421502059" lon="11.723780039979317"><ele>321.0</ele><time>2026-05-03T15:08:58.935Z</time></trkpt><trkpt lat="50.915780560419364" lon="11.723657486595018"><ele>321.0</ele><time>2026-05-03T15:08:59.935Z</time></trkpt><trkpt lat="50.91579719113083" lon="11.723544535646177"><ele>321.0</ele><time>2026-05-03T15:09:00.935Z</time></trkpt><trkpt lat="50.91578734228856" lon="11.723423701627453"><ele>321.0</ele><time>2026-05-03T15:09:01.934Z</time></trkpt><trkpt lat="50.91578542161267" lon="11.723270548574389"><ele>321.0</ele><time>2026-05-03T15:09:02.935Z</time></trkpt><trkpt lat="50.91576051846352" lon="11.723095557135117"><ele>323.25</ele><time>2026-05-03T15:09:03.935Z</time></trkpt><trkpt lat="50.915721287820325" lon="11.722907822262934"><ele>325.5</ele><time>2026-05-03T15:09:04.934Z</time></trkpt><trkpt lat="50.91569082989406" lon="11.722685398748734"><ele>327.75</ele><time>2026-05-03T15:09:05.934Z</time></trkpt><trkpt lat="50.91565984218437" lon="11.722475281011043"><ele>330.0</ele><time>2026-05-03T15:09:06.934Z</time></trkpt><trkpt lat="50.915618081783244" lon="11.722263196182409"><ele>331.75</ele><time>2026-05-03T15:09:07.935Z</time></trkpt><trkpt lat="50.91557004688858" lon="11.722043213432602"><ele>333.5</ele><time>2026-05-03T15:09:08.935Z</time></trkpt><trkpt lat="50.91552624163702" lon="11.721827756087096"><ele>335.25</ele><time>2026-05-03T15:09:09.935Z</time></trkpt><trkpt lat="50.91547366515392" lon="11.721603197320148"><ele>337.0</ele><time>2026-05-03T15:09:10.934Z</time></trkpt><trkpt lat="50.915421488478756" lon="11.721372355939685"><ele>338.75</ele><time>2026-05-03T15:09:11.934Z</time></trkpt><trkpt lat="50.915364178525294" lon="11.721131866393444"><ele>340.5</ele><time>2026-05-03T15:09:12.934Z</time></trkpt><trkpt lat="50.91531379533858" lon="11.720922375533968"><ele>342.25</ele><time>2026-05-03T15:09:13.934Z</time></trkpt><trkpt lat="50.91527506229106" lon="11.720743277756709"><ele>344.0</ele><time>2026-05-03T15:09:14.934Z</time></trkpt><trkpt lat="50.91524618483346" lon="11.72060483879085"><ele>344.7142857142857</ele><time>2026-05-03T15:09:15.934Z</time></trkpt><trkpt lat="50.91522545419668" lon="11.720501535305607"><ele>345.42857142857144</ele><time>2026-05-03T15:09:16.934Z</time></trkpt><trkpt lat="50.91520485257387" lon="11.720396719252163"><ele>346.1428571428571</ele><time>2026-05-03T15:09:17.934Z</time></trkpt><trkpt lat="50.91518830296497" lon="11.720265238026311"><ele>346.8571428571429</ele><time>2026-05-03T15:09:18.934Z</time></trkpt><trkpt lat="50.915199651801494" lon="11.720135805654374"><ele>347.57142857142856</ele><time>2026-05-03T15:09:19.934Z</time></trkpt><trkpt lat="50.91522052457059" lon="11.720022629314332"><ele>348.2857142857143</ele><time>2026-05-03T15:09:20.934Z</time></trkpt><trkpt lat="50.91523779263947" lon="11.71992048758392"><ele>349.0</ele><time>2026-05-03T15:09:21.934Z</time></trkpt><trkpt lat="50.91525380050727" lon="11.719816361185458"><ele>349.66666666666663</ele><time>2026-05-03T15:09:22.934Z</time></trkpt><trkpt lat="50.91525723654582" lon="11.719696100023693"><ele>350.3333333333333</ele><time>2026-05-03T15:09:23.934Z</time></trkpt><trkpt lat="50.91524366771004" lon="11.719569116694583"><ele>351.0</ele><time>2026-05-03T15:09:24.934Z</time></trkpt><trkpt lat="50.915218576879155" lon="11.719435200081772"><ele>351.6666666666667</ele><time>2026-05-03T15:09:25.934Z</time></trkpt><trkpt lat="50.915192329337984" lon="11.719310783795768"><ele>352.33333333333337</ele><time>2026-05-03T15:09:26.934Z</time></trkpt><trkpt lat="50.9151689666998" lon="11.719211477295952"><ele>353.0</ele><time>2026-05-03T15:09:27.934Z</time></trkpt><trkpt lat="50.91514213996353" lon="11.719117522871656"><ele>353.33333333333337</ele><time>2026-05-03T15:09:28.934Z</time></trkpt><trkpt lat="50.91508175515619" lon="11.718965995367297"><ele>353.6666666666667</ele><time>2026-05-03T15:09:30.934Z</time></trkpt><trkpt lat="50.915041956834465" lon="11.718864971371824"><ele>354.0</ele><time>2026-05-03T15:09:32.934Z</time></trkpt><trkpt lat="50.91500490139173" lon="11.718773521137704"><ele>354.3333333333333</ele><time>2026-05-03T15:09:35.934Z</time></trkpt><trkpt lat="50.914946182956726" lon="11.718608254848789"><ele>354.66666666666663</ele><time>2026-05-03T15:09:38.934Z</time></trkpt><trkpt lat="50.91490914542752" lon="11.718514640355469"><ele>355.0</ele><time>2026-05-03T15:09:39.934Z</time></trkpt><trkpt lat="50.91485867738031" lon="11.718432471085436"><ele>356.2</ele><time>2026-05-03T15:09:40.934Z</time></trkpt><trkpt lat="50.91480680377546" lon="11.718302661733318"><ele>357.4</ele><time>2026-05-03T15:09:42.934Z</time></trkpt><trkpt lat="50.91476681750988" lon="11.718167378034186"><ele>358.6</ele><time>2026-05-03T15:09:44.934Z</time></trkpt><trkpt lat="50.91476922574251" lon="11.718056397741773"><ele>359.8</ele><time>2026-05-03T15:09:46.934Z</time></trkpt><trkpt lat="50.9147921068433" lon="11.718218299110342"><ele>361.0</ele><time>2026-05-03T15:09:53.934Z</time></trkpt><trkpt lat="50.914839894483734" lon="11.718339103798591"><ele>361.0</ele><time>2026-05-03T15:09:54.934Z</time></trkpt><trkpt lat="50.91489016929449" lon="11.718466541080563"><ele>361.0</ele><time>2026-05-03T15:09:55.934Z</time></trkpt><trkpt lat="50.91491404893272" lon="11.718613886480652"><ele>361.0</ele><time>2026-05-03T15:09:56.934Z</time></trkpt><trkpt lat="50.914963813236966" lon="11.718767665141698"><ele>361.0</ele><time>2026-05-03T15:09:57.934Z</time></trkpt><trkpt lat="50.91502412587599" lon="11.718910345591828"><ele>361.0</ele><time>2026-05-03T15:09:58.934Z</time></trkpt><trkpt lat="50.91507731591164" lon="11.71904102960752"><ele>359.8</ele><time>2026-05-03T15:09:59.934Z</time></trkpt><trkpt lat="50.91515669673048" lon="11.719144714486065"><ele>358.6</ele><time>2026-05-03T15:10:00.934Z</time></trkpt><trkpt lat="50.91520254513273" lon="11.719271812647372"><ele>357.4</ele><time>2026-05-03T15:10:01.934Z</time></trkpt><trkpt lat="50.9152395846404" lon="11.719402531730628"><ele>356.2</ele><time>2026-05-03T15:10:02.934Z</time></trkpt><trkpt lat="50.915198861833275" lon="11.719564879395513"><ele>355.0</ele><time>2026-05-03T15:10:03.934Z</time></trkpt><trkpt lat="50.91520216744433" lon="11.719738279547192"><ele>354.6</ele><time>2026-05-03T15:10:05.934Z</time></trkpt><trkpt lat="50.91517872860987" lon="11.71991303856442"><ele>354.2</ele><time>2026-05-03T15:10:07.934Z</time></trkpt><trkpt lat="50.915156955074146" lon="11.72001550429097"><ele>353.79999999999995</ele><time>2026-05-03T15:10:08.934Z</time></trkpt><trkpt lat="50.91513493392742" lon="11.720211250913929"><ele>353.4</ele><time>2026-05-03T15:10:10.934Z</time></trkpt><trkpt lat="50.915144035464614" lon="11.720358415417058"><ele>353.0</ele><time>2026-05-03T15:10:11.934Z</time></trkpt><trkpt lat="50.91516990129157" lon="11.720526905329756"><ele>352.0</ele><time>2026-05-03T15:10:12.934Z</time></trkpt><trkpt lat="50.91521353937297" lon="11.720690790047513"><ele>351.0</ele><time>2026-05-03T15:10:13.934Z</time></trkpt><trkpt lat="50.91526084745393" lon="11.720888060543556"><ele>350.0</ele><time>2026-05-03T15:10:14.934Z</time></trkpt><trkpt lat="50.915309967620246" lon="11.721097122330683"><ele>349.0</ele><time>2026-05-03T15:10:15.934Z</time></trkpt><trkpt lat="50.915358436432086" lon="11.721299860274346"><ele>347.75</ele><time>2026-05-03T15:10:16.934Z</time></trkpt><trkpt lat="50.91540655794163" lon="11.721499366562952"><ele>346.5</ele><time>2026-05-03T15:10:17.934Z</time></trkpt><trkpt lat="50.91545645548053" lon="11.721703437758695"><ele>345.25</ele><time>2026-05-03T15:10:18.934Z</time></trkpt><trkpt lat="50.915499799653766" lon="11.721898670323442"><ele>344.0</ele><time>2026-05-03T15:10:19.934Z</time></trkpt><trkpt lat="50.915546447767994" lon="11.722095670639288"><ele>342.25</ele><time>2026-05-03T15:10:20.934Z</time></trkpt><trkpt lat="50.91558530977741" lon="11.722297195408615"><ele>340.5</ele><time>2026-05-03T15:10:21.934Z</time></trkpt><trkpt lat="50.91562424945831" lon="11.72249222135131"><ele>338.75</ele><time>2026-05-03T15:10:22.934Z</time></trkpt><trkpt lat="50.915658083361166" lon="11.722672804845333"><ele>337.0</ele><time>2026-05-03T15:10:23.934Z</time></trkpt><trkpt lat="50.91568495282679" lon="11.722828181889353"><ele>335.8333333333333</ele><time>2026-05-03T15:10:24.934Z</time></trkpt><trkpt lat="50.915708805851196" lon="11.722982055522667"><ele>334.66666666666663</ele><time>2026-05-03T15:10:25.934Z</time></trkpt><trkpt lat="50.91573111128984" lon="11.723127074097995"><ele>333.5</ele><time>2026-05-03T15:10:26.934Z</time></trkpt><trkpt lat="50.915751562606204" lon="11.723256385133208"><ele>332.3333333333333</ele><time>2026-05-03T15:10:27.934Z</time></trkpt><trkpt lat="50.91576431587704" lon="11.723381369562222"><ele>331.1666666666667</ele><time>2026-05-03T15:10:28.934Z</time></trkpt><trkpt lat="50.915758912829126" lon="11.723496173611927"><ele>330.0</ele><time>2026-05-03T15:10:29.934Z</time></trkpt><trkpt lat="50.91573891000481" lon="11.72361880810692"><ele>328.2</ele><time>2026-05-03T15:10:30.934Z</time></trkpt><trkpt lat="50.91570027553604" lon="11.723731080646985"><ele>326.4</ele><time>2026-05-03T15:10:31.934Z</time></trkpt><trkpt lat="50.91563970623173" lon="11.72382343819002"><ele>324.6</ele><time>2026-05-03T15:10:32.934Z</time></trkpt><trkpt lat="50.91556241385564" lon="11.723895394535477"><ele>322.8</ele><time>2026-05-03T15:10:33.934Z</time></trkpt><trkpt lat="50.91547222783921" lon="11.723937525156522"><ele>321.0</ele><time>2026-05-03T15:10:34.934Z</time></trkpt><trkpt lat="50.91536398740562" lon="11.723956238871336"><ele>321.0</ele><time>2026-05-03T15:10:35.934Z</time></trkpt><trkpt lat="50.91523707374522" lon="11.723950551076662"><ele>321.0</ele><time>2026-05-03T15:10:36.934Z</time></trkpt><trkpt lat="50.91509475395469" lon="11.72393865138343"><ele>321.0</ele><time>2026-05-03T15:10:37.934Z</time></trkpt><trkpt lat="50.91494475392038" lon="11.723917005224923"><ele>321.0</ele><time>2026-05-03T15:10:38.934Z</time></trkpt><trkpt lat="50.914796315070355" lon="11.723900761901314"><ele>320.40000000000003</ele><time>2026-05-03T15:10:39.934Z</time></trkpt><trkpt lat="50.91466974696298" lon="11.72389305929294"><ele>319.8</ele><time>2026-05-03T15:10:40.934Z</time></trkpt><trkpt lat="50.91457015652245" lon="11.723891149653817"><ele>319.20000000000005</ele><time>2026-05-03T15:10:41.934Z</time></trkpt><trkpt lat="50.91448087181041" lon="11.723900854424802"><ele>318.6</ele><time>2026-05-03T15:10:42.934Z</time></trkpt><trkpt lat="50.91439124695353" lon="11.723940264917625"><ele>318.0</ele><time>2026-05-03T15:10:43.934Z</time></trkpt><trkpt lat="50.914297334384656" lon="11.72400152080786"><ele>316.5</ele><time>2026-05-03T15:10:44.934Z</time></trkpt><trkpt lat="50.91419016229531" lon="11.724089959940288"><ele>315.0</ele><time>2026-05-03T15:10:45.934Z</time></trkpt><trkpt lat="50.914068919851736" lon="11.72418683188971"><ele>313.5</ele><time>2026-05-03T15:10:46.934Z</time></trkpt><trkpt lat="50.91393513615864" lon="11.724285465677147"><ele>312.0</ele><time>2026-05-03T15:10:47.934Z</time></trkpt><trkpt lat="50.91379967900474" lon="11.724387989196384"><ele>311.0</ele><time>2026-05-03T15:10:48.934Z</time></trkpt><trkpt lat="50.91365699882496" lon="11.724501341703586"><ele>310.0</ele><time>2026-05-03T15:10:49.934Z</time></trkpt><trkpt lat="50.913505390200534" lon="11.724613134702297"><ele>309.0</ele><time>2026-05-03T15:10:50.934Z</time></trkpt><trkpt lat="50.913347580474735" lon="11.72473275186887"><ele>308.3333333333333</ele><time>2026-05-03T15:10:51.934Z</time></trkpt><trkpt lat="50.91317991803854" lon="11.7248546066212"><ele>307.66666666666663</ele><time>2026-05-03T15:10:52.934Z</time></trkpt><trkpt lat="50.91300921406885" lon="11.724979823901819"><ele>307.0</ele><time>2026-05-03T15:10:53.934Z</time></trkpt><trkpt lat="50.912838614086276" lon="11.725109426621982"><ele>306.3333333333333</ele><time>2026-05-03T15:10:54.934Z</time></trkpt><trkpt lat="50.912672183885896" lon="11.725231800545094"><ele>305.6666666666667</ele><time>2026-05-03T15:10:55.934Z</time></trkpt><trkpt lat="50.91250912880031" lon="11.725345908570155"><ele>305.0</ele><time>2026-05-03T15:10:56.934Z</time></trkpt><trkpt lat="50.912351613477426" lon="11.725439439776585"><ele>304.33333333333337</ele><time>2026-05-03T15:10:57.934Z</time></trkpt><trkpt lat="50.91219642428899" lon="11.725524530592812"><ele>303.6666666666667</ele><time>2026-05-03T15:10:58.934Z</time></trkpt><trkpt lat="50.912047298201934" lon="11.725602929198658"><ele>303.0</ele><time>2026-05-03T15:10:59.934Z</time></trkpt><trkpt lat="50.91188568960756" lon="11.725684696353557"><ele>300.3333333333333</ele><time>2026-05-03T15:11:00.934Z</time></trkpt><trkpt lat="50.911727735720724" lon="11.725770694925059"><ele>297.66666666666663</ele><time>2026-05-03T15:11:01.934Z</time></trkpt><trkpt lat="50.91156919475103" lon="11.725851423703089"><ele>295.0</ele><time>2026-05-03T15:11:02.934Z</time></trkpt><trkpt lat="50.91141775164731" lon="11.725927019351941"><ele>295.0</ele><time>2026-05-03T15:11:03.934Z</time></trkpt><trkpt lat="50.91126250575098" lon="11.72600965737457"><ele>295.0</ele><time>2026-05-03T15:11:04.934Z</time></trkpt><trkpt lat="50.91111193652936" lon="11.726089211230763"><ele>295.0</ele><time>2026-05-03T15:11:05.934Z</time></trkpt><trkpt lat="50.91097212944581" lon="11.726159010987843"><ele>293.6</ele><time>2026-05-03T15:11:06.934Z</time></trkpt><trkpt lat="50.910850720499425" lon="11.726223418013834"><ele>292.2</ele><time>2026-05-03T15:11:07.933Z</time></trkpt><trkpt lat="50.91075113698562" lon="11.726278476040791"><ele>290.8</ele><time>2026-05-03T15:11:08.933Z</time></trkpt><trkpt lat="50.91065773768503" lon="11.726327854234942"><ele>289.4</ele><time>2026-05-03T15:11:09.933Z</time></trkpt><trkpt lat="50.91056206807826" lon="11.726384346831791"><ele>288.0</ele><time>2026-05-03T15:11:10.933Z</time></trkpt><trkpt lat="50.91047031075055" lon="11.726427696655605"><ele>288.0</ele><time>2026-05-03T15:11:11.933Z</time></trkpt><trkpt lat="50.91038247367233" lon="11.726474539289006"><ele>288.0</ele><time>2026-05-03T15:11:12.933Z</time></trkpt><trkpt lat="50.91029541822855" lon="11.726521907046756"><ele>288.0</ele><time>2026-05-03T15:11:13.933Z</time></trkpt><trkpt lat="50.910214750027414" lon="11.72656244608607"><ele>288.0</ele><time>2026-05-03T15:11:14.933Z</time></trkpt><trkpt lat="50.910142721819504" lon="11.726568434338839"><ele>288.0</ele><time>2026-05-03T15:11:16.934Z</time></trkpt><trkpt lat="50.91007119075875" lon="11.726627531278845"><ele>288.0</ele><time>2026-05-03T15:12:03.933Z</time></trkpt><trkpt lat="50.909970493089745" lon="11.726697474591326"><ele>287.3333333333333</ele><time>2026-05-03T15:12:05.933Z</time></trkpt><trkpt lat="50.90990539560438" lon="11.726730140957745"><ele>286.6666666666667</ele><time>2026-05-03T15:12:06.933Z</time></trkpt><trkpt lat="50.909833670025705" lon="11.726766807009545"><ele>286.0</ele><time>2026-05-03T15:12:07.933Z</time></trkpt><trkpt lat="50.909760438452274" lon="11.7268096769185"><ele>285.33333333333337</ele><time>2026-05-03T15:12:08.933Z</time></trkpt><trkpt lat="50.90969368897568" lon="11.72685364524105"><ele>284.6666666666667</ele><time>2026-05-03T15:12:09.933Z</time></trkpt><trkpt lat="50.909582760943835" lon="11.726934966691115"><ele>284.0</ele><time>2026-05-03T15:12:11.933Z</time></trkpt><trkpt lat="50.90947504374113" lon="11.727002533920537"><ele>284.0</ele><time>2026-05-03T15:12:13.933Z</time></trkpt><trkpt lat="50.90937092280055" lon="11.727048523120285"><ele>284.0</ele><time>2026-05-03T15:12:15.933Z</time></trkpt><trkpt lat="50.909292018124496" lon="11.727062484924884"><ele>284.0</ele><time>2026-05-03T15:12:18.933Z</time></trkpt><trkpt lat="50.909219451671454" lon="11.727048948231184"><ele>284.0</ele><time>2026-05-03T15:12:20.933Z</time></trkpt><trkpt lat="50.909172386752175" lon="11.727315577369126"><ele>284.0</ele><time>2026-05-03T15:12:21.933Z</time></trkpt><trkpt lat="50.909126793130405" lon="11.727420591619788"><ele>284.0</ele><time>2026-05-03T15:12:22.933Z</time></trkpt><trkpt lat="50.90906365519735" lon="11.727519593415119"><ele>284.0</ele><time>2026-05-03T15:12:23.933Z</time></trkpt><trkpt lat="50.908994264129234" lon="11.727602633264786"><ele>284.0</ele><time>2026-05-03T15:12:24.933Z</time></trkpt><trkpt lat="50.908928803659045" lon="11.727687892588776"><ele>284.0</ele><time>2026-05-03T15:12:25.933Z</time></trkpt><trkpt lat="50.90886990762378" lon="11.72776974628657"><ele>284.0</ele><time>2026-05-03T15:12:26.933Z</time></trkpt><trkpt lat="50.90881881356741" lon="11.727837416375268"><ele>284.0</ele><time>2026-05-03T15:12:27.933Z</time></trkpt><trkpt lat="50.90875153776029" lon="11.727921429689633"><ele>283.75</ele><time>2026-05-03T15:12:29.933Z</time></trkpt><trkpt lat="50.90886646559403" lon="11.728172166978643"><ele>283.5</ele><time>2026-05-03T15:12:32.933Z</time></trkpt><trkpt lat="50.90892381271189" lon="11.728271433142977"><ele>283.25</ele><time>2026-05-03T15:12:33.933Z</time></trkpt><trkpt lat="50.908972873157204" lon="11.728381000134108"><ele>283.0</ele><time>2026-05-03T15:12:34.933Z</time></trkpt><trkpt lat="50.9090226091369" lon="11.728495055120364"><ele>283.2</ele><time>2026-05-03T15:12:35.933Z</time></trkpt><trkpt lat="50.90907929647764" lon="11.72861634621091"><ele>283.4</ele><time>2026-05-03T15:12:36.933Z</time></trkpt><trkpt lat="50.909126871473845" lon="11.728748896505882"><ele>283.59999999999997</ele><time>2026-05-03T15:12:37.933Z</time></trkpt><trkpt lat="50.909168588843265" lon="11.728891140511172"><ele>283.8</ele><time>2026-05-03T15:12:38.933Z</time></trkpt><trkpt lat="50.90920610077545" lon="11.729040137324139"><ele>284.0</ele><time>2026-05-03T15:12:39.933Z</time></trkpt><trkpt lat="50.909241548806605" lon="11.729201064062064"><ele>284.2</ele><time>2026-05-03T15:12:40.933Z</time></trkpt><trkpt lat="50.90928552829675" lon="11.729357420837884"><ele>284.4</ele><time>2026-05-03T15:12:41.933Z</time></trkpt><trkpt lat="50.90933443185938" lon="11.72951104954755"><ele>284.6</ele><time>2026-05-03T15:12:42.933Z</time></trkpt><trkpt lat="50.909389421777405" lon="11.729661025901905"><ele>284.8</ele><time>2026-05-03T15:12:43.933Z</time></trkpt><trkpt lat="50.90945165082836" lon="11.729805396744682"><ele>285.0</ele><time>2026-05-03T15:12:44.933Z</time></trkpt><trkpt lat="50.90951117878858" lon="11.729952289422494"><ele>285.0</ele><time>2026-05-03T15:12:45.933Z</time></trkpt><trkpt lat="50.909567854924234" lon="11.730100374860145"><ele>285.0</ele><time>2026-05-03T15:12:46.933Z</time></trkpt><trkpt lat="50.90962711483241" lon="11.730249046430174"><ele>285.0</ele><time>2026-05-03T15:12:47.933Z</time></trkpt><trkpt lat="50.90969328641134" lon="11.73039287502469"><ele>285.0</ele><time>2026-05-03T15:12:48.933Z</time></trkpt><trkpt lat="50.909761230324314" lon="11.730534192102011"><ele>285.0</ele><time>2026-05-03T15:12:49.933Z</time></trkpt><trkpt lat="50.909827233824494" lon="11.730666650082552"><ele>285.0</ele><time>2026-05-03T15:12:50.933Z</time></trkpt><trkpt lat="50.9098802073161" lon="11.730817710972634"><ele>285.0</ele><time>2026-05-03T15:12:51.933Z</time></trkpt><trkpt lat="50.90992069569025" lon="11.730977836110956"><ele>285.0</ele><time>2026-05-03T15:12:52.933Z</time></trkpt><trkpt lat="50.90995379102947" lon="11.731143068468239"><ele>285.0</ele><time>2026-05-03T15:12:53.933Z</time></trkpt><trkpt lat="50.90999204388211" lon="11.7313075510579"><ele>285.0</ele><time>2026-05-03T15:12:54.933Z</time></trkpt><trkpt lat="50.91003672435544" lon="11.731452839486973"><ele>285.75</ele><time>2026-05-03T15:12:55.933Z</time></trkpt><trkpt lat="50.91010721540979" lon="11.73159060341517"><ele>286.5</ele><time>2026-05-03T15:12:56.933Z</time></trkpt><trkpt lat="50.910185676520896" lon="11.731691043084126"><ele>287.25</ele><time>2026-05-03T15:12:57.933Z</time></trkpt><trkpt lat="50.910314008620794" lon="11.731688226612663"><ele>288.0</ele><time>2026-05-03T15:12:58.933Z</time></trkpt><trkpt lat="50.910428106312125" lon="11.731666382075757"><ele>288.0</ele><time>2026-05-03T15:12:59.933Z</time></trkpt><trkpt lat="50.91054477211209" lon="11.73162968756679"><ele>288.0</ele><time>2026-05-03T15:13:00.933Z</time></trkpt><trkpt lat="50.91066512853943" lon="11.731589280586192"><ele>288.0</ele><time>2026-05-03T15:13:01.933Z</time></trkpt><trkpt lat="50.91079563176799" lon="11.731550474554158"><ele>288.0</ele><time>2026-05-03T15:13:02.933Z</time></trkpt><trkpt lat="50.910933759394226" lon="11.7315067396346"><ele>290.0</ele><time>2026-05-03T15:13:03.933Z</time></trkpt><trkpt lat="50.91107727524188" lon="11.731461048788807"><ele>292.0</ele><time>2026-05-03T15:13:04.933Z</time></trkpt><trkpt lat="50.911226597985504" lon="11.731417404904594"><ele>294.0</ele><time>2026-05-03T15:13:05.933Z</time></trkpt><trkpt lat="50.91137915565307" lon="11.73137979179566"><ele>294.0</ele><time>2026-05-03T15:13:06.933Z</time></trkpt><trkpt lat="50.911535297390316" lon="11.73138330215392"><ele>294.0</ele><time>2026-05-03T15:13:07.933Z</time></trkpt><trkpt lat="50.91168650225225" lon="11.731406252073075"><ele>294.0</ele><time>2026-05-03T15:13:08.933Z</time></trkpt><trkpt lat="50.911839382411635" lon="11.731453274573626"><ele>295.0</ele><time>2026-05-03T15:13:09.933Z</time></trkpt><trkpt lat="50.911980708233344" lon="11.731535574892897"><ele>296.0</ele><time>2026-05-03T15:13:10.933Z</time></trkpt><trkpt lat="50.91210458072603" lon="11.731590467511687"><ele>297.0</ele><time>2026-05-03T15:13:11.933Z</time></trkpt><trkpt lat="50.912221235406925" lon="11.731604203799883"><ele>298.0</ele><time>2026-05-03T15:13:12.933Z</time></trkpt><trkpt lat="50.91235512321788" lon="11.731570175135204"><ele>298.0</ele><time>2026-05-03T15:13:13.931Z</time></trkpt><trkpt lat="50.91249391071079" lon="11.731518508933107"><ele>298.0</ele><time>2026-05-03T15:13:14.932Z</time></trkpt><trkpt lat="50.91263390283297" lon="11.731508476542091"><ele>298.0</ele><time>2026-05-03T15:13:15.932Z</time></trkpt><trkpt lat="50.912771524167034" lon="11.731472622130717"><ele>298.0</ele><time>2026-05-03T15:13:16.932Z</time></trkpt><trkpt lat="50.91291629946844" lon="11.731438207202988"><ele>296.0</ele><time>2026-05-03T15:13:17.932Z</time></trkpt><trkpt lat="50.91307326708605" lon="11.7314066753708"><ele>294.0</ele><time>2026-05-03T15:13:18.932Z</time></trkpt><trkpt lat="50.913234039414796" lon="11.731366000230352"><ele>292.0</ele><time>2026-05-03T15:13:19.932Z</time></trkpt><trkpt lat="50.91339315838558" lon="11.731322410621676"><ele>290.3333333333333</ele><time>2026-05-03T15:13:20.931Z</time></trkpt><trkpt lat="50.91356209592394" lon="11.73128057790492"><ele>288.6666666666667</ele><time>2026-05-03T15:13:21.931Z</time></trkpt><trkpt lat="50.91373437479912" lon="11.73124228144877"><ele>287.0</ele><time>2026-05-03T15:13:22.932Z</time></trkpt><trkpt lat="50.91391055433326" lon="11.731196336211312"><ele>287.0</ele><time>2026-05-03T15:13:23.932Z</time></trkpt><trkpt lat="50.91409281041492" lon="11.731150507932094"><ele>287.0</ele><time>2026-05-03T15:13:24.932Z</time></trkpt><trkpt lat="50.91427693810475" lon="11.731106486775678"><ele>287.0</ele><time>2026-05-03T15:13:25.932Z</time></trkpt><trkpt lat="50.91446284994944" lon="11.731065209578771"><ele>286.6666666666667</ele><time>2026-05-03T15:13:26.931Z</time></trkpt><trkpt lat="50.91464499942853" lon="11.731022117916638"><ele>286.3333333333333</ele><time>2026-05-03T15:13:27.931Z</time></trkpt><trkpt lat="50.914824877426845" lon="11.73098119433486"><ele>286.0</ele><time>2026-05-03T15:13:28.931Z</time></trkpt><trkpt lat="50.91500382984587" lon="11.730942588823988"><ele>285.3333333333333</ele><time>2026-05-03T15:13:29.931Z</time></trkpt><trkpt lat="50.91516764991233" lon="11.730905215422224"><ele>284.6666666666667</ele><time>2026-05-03T15:13:30.931Z</time></trkpt><trkpt lat="50.915321476680575" lon="11.730868789018757"><ele>284.0</ele><time>2026-05-03T15:13:31.931Z</time></trkpt><trkpt lat="50.91546579216751" lon="11.73083271383136"><ele>284.0</ele><time>2026-05-03T15:13:32.931Z</time></trkpt><trkpt lat="50.91562266592311" lon="11.73080707415554"><ele>284.0</ele><time>2026-05-03T15:13:33.931Z</time></trkpt><trkpt lat="50.91579003580039" lon="11.73079943444055"><ele>284.0</ele><time>2026-05-03T15:13:34.931Z</time></trkpt><trkpt lat="50.91596668029753" lon="11.730835726245093"><ele>285.0</ele><time>2026-05-03T15:13:35.931Z</time></trkpt><trkpt lat="50.916152009709506" lon="11.73090459516308"><ele>286.0</ele><time>2026-05-03T15:13:36.931Z</time></trkpt><trkpt lat="50.91634052978525" lon="11.730977809612762"><ele>287.0</ele><time>2026-05-03T15:13:37.931Z</time></trkpt><trkpt lat="50.91652957392035" lon="11.731047045670959"><ele>287.0</ele><time>2026-05-03T15:13:38.931Z</time></trkpt><trkpt lat="50.91671294107673" lon="11.731108343356611"><ele>287.0</ele><time>2026-05-03T15:13:39.931Z</time></trkpt><trkpt lat="50.916892486853385" lon="11.73116041677827"><ele>287.0</ele><time>2026-05-03T15:13:40.931Z</time></trkpt><trkpt lat="50.91706513613677" lon="11.731209958036978"><ele>287.0</ele><time>2026-05-03T15:13:41.931Z</time></trkpt><trkpt lat="50.917233560505196" lon="11.73125486731754"><ele>287.0</ele><time>2026-05-03T15:13:42.931Z</time></trkpt><trkpt lat="50.91739609926993" lon="11.731305965112323"><ele>287.0</ele><time>2026-05-03T15:13:43.931Z</time></trkpt><trkpt lat="50.91755362878266" lon="11.731349324382437"><ele>286.0</ele><time>2026-05-03T15:13:44.931Z</time></trkpt><trkpt lat="50.917699397475985" lon="11.731388692142412"><ele>285.0</ele><time>2026-05-03T15:13:45.931Z</time></trkpt><trkpt lat="50.91783496276565" lon="11.731428584496669"><ele>284.0</ele><time>2026-05-03T15:13:46.931Z</time></trkpt><trkpt lat="50.917969108133086" lon="11.731464132156319"><ele>283.0</ele><time>2026-05-03T15:13:47.931Z</time></trkpt><trkpt lat="50.91810234937008" lon="11.731500620937076"><ele>283.0</ele><time>2026-05-03T15:13:48.931Z</time></trkpt><trkpt lat="50.91823590748695" lon="11.731540721692433"><ele>283.0</ele><time>2026-05-03T15:13:49.931Z</time></trkpt><trkpt lat="50.91837695616011" lon="11.731582071069825"><ele>283.0</ele><time>2026-05-03T15:13:50.931Z</time></trkpt><trkpt lat="50.91852128190234" lon="11.731627161522146"><ele>283.0</ele><time>2026-05-03T15:13:51.931Z</time></trkpt><trkpt lat="50.91866179912226" lon="11.73166996648986"><ele>282.0</ele><time>2026-05-03T15:13:52.931Z</time></trkpt><trkpt lat="50.918807266581744" lon="11.731715963806428"><ele>281.0</ele><time>2026-05-03T15:13:53.931Z</time></trkpt><trkpt lat="50.91894720152693" lon="11.731783061081238"><ele>280.0</ele><time>2026-05-03T15:13:54.931Z</time></trkpt><trkpt lat="50.91909529978283" lon="11.731828111340763"><ele>279.0</ele><time>2026-05-03T15:13:55.931Z</time></trkpt><trkpt lat="50.91923921881464" lon="11.731865959623406"><ele>279.0</ele><time>2026-05-03T15:13:56.931Z</time></trkpt><trkpt lat="50.91938644051634" lon="11.731879971083995"><ele>279.0</ele><time>2026-05-03T15:13:57.931Z</time></trkpt><trkpt lat="50.91954859949162" lon="11.731866325655602"><ele>279.0</ele><time>2026-05-03T15:13:58.931Z</time></trkpt><trkpt lat="50.91970301749683" lon="11.731843781816501"><ele>279.0</ele><time>2026-05-03T15:13:59.931Z</time></trkpt><trkpt lat="50.91984975246448" lon="11.731827295877611"><ele>279.0</ele><time>2026-05-03T15:14:00.931Z</time></trkpt><trkpt lat="50.91999713029112" lon="11.731823088385333"><ele>279.0</ele><time>2026-05-03T15:14:01.931Z</time></trkpt><trkpt lat="50.92014603363716" lon="11.731809970082171"><ele>279.0</ele><time>2026-05-03T15:14:02.931Z</time></trkpt><trkpt lat="50.92029682113598" lon="11.73179426804099"><ele>279.0</ele><time>2026-05-03T15:14:03.931Z</time></trkpt><trkpt lat="50.92044969802626" lon="11.731781021701746"><ele>279.0</ele><time>2026-05-03T15:14:04.931Z</time></trkpt><trkpt lat="50.9206071040657" lon="11.731790221050769"><ele>279.0</ele><time>2026-05-03T15:14:05.931Z</time></trkpt><trkpt lat="50.920756384142024" lon="11.731773250747112"><ele>279.0</ele><time>2026-05-03T15:14:06.931Z</time></trkpt><trkpt lat="50.92089215004436" lon="11.731768446332662"><ele>279.0</ele><time>2026-05-03T15:14:07.931Z</time></trkpt><trkpt lat="50.921023072371966" lon="11.731756828711216"><ele>279.0</ele><time>2026-05-03T15:14:08.931Z</time></trkpt><trkpt lat="50.921155882351655" lon="11.731709912914566"><ele>279.0</ele><time>2026-05-03T15:14:09.931Z</time></trkpt><trkpt lat="50.921289906767925" lon="11.731618749522177"><ele>279.0</ele><time>2026-05-03T15:14:10.931Z</time></trkpt><trkpt lat="50.92141512054432" lon="11.731511996178963"><ele>279.0</ele><time>2026-05-03T15:14:11.931Z</time></trkpt><trkpt lat="50.92153315512511" lon="11.731371627518671"><ele>279.0</ele><time>2026-05-03T15:14:12.931Z</time></trkpt><trkpt lat="50.92164991443768" lon="11.731211869213181"><ele>279.0</ele><time>2026-05-03T15:14:13.931Z</time></trkpt><trkpt lat="50.921775198599214" lon="11.731044058540647"><ele>279.0</ele><time>2026-05-03T15:14:14.931Z</time></trkpt><trkpt lat="50.92190457048859" lon="11.730881812064933"><ele>279.0</ele><time>2026-05-03T15:14:15.931Z</time></trkpt><trkpt lat="50.92203659160175" lon="11.730703763327107"><ele>279.0</ele><time>2026-05-03T15:14:16.931Z</time></trkpt><trkpt lat="50.92217600120765" lon="11.730519075721002"><ele>279.0</ele><time>2026-05-03T15:14:17.931Z</time></trkpt><trkpt lat="50.92232183036" lon="11.73033430237788"><ele>279.0</ele><time>2026-05-03T15:14:18.931Z</time></trkpt><trkpt lat="50.92246936530934" lon="11.730145401873697"><ele>279.0</ele><time>2026-05-03T15:14:19.931Z</time></trkpt><trkpt lat="50.9226291015511" lon="11.729952064486001"><ele>279.3333333333333</ele><time>2026-05-03T15:14:20.931Z</time></trkpt><trkpt lat="50.92278686170822" lon="11.729754365031727"><ele>279.66666666666663</ele><time>2026-05-03T15:14:21.931Z</time></trkpt><trkpt lat="50.922939747860376" lon="11.729549014365316"><ele>280.0</ele><time>2026-05-03T15:14:22.931Z</time></trkpt><trkpt lat="50.923097891165476" lon="11.729352334339845"><ele>280.0</ele><time>2026-05-03T15:14:23.931Z</time></trkpt><trkpt lat="50.92326925600028" lon="11.729176219730965"><ele>280.0</ele><time>2026-05-03T15:14:24.931Z</time></trkpt><trkpt lat="50.92342232652806" lon="11.728972222504114"><ele>280.0</ele><time>2026-05-03T15:14:25.931Z</time></trkpt><trkpt lat="50.92356932276396" lon="11.72877790215512"><ele>280.3333333333333</ele><time>2026-05-03T15:14:26.931Z</time></trkpt><trkpt lat="50.92371392468932" lon="11.728590825015596"><ele>280.6666666666667</ele><time>2026-05-03T15:14:27.931Z</time></trkpt><trkpt lat="50.92385689208182" lon="11.728405871368444"><ele>281.0</ele><time>2026-05-03T15:14:28.931Z</time></trkpt><trkpt lat="50.92399491611433" lon="11.728225451375382"><ele>281.0</ele><time>2026-05-03T15:14:29.931Z</time></trkpt><trkpt lat="50.92413756405089" lon="11.728083330760425"><ele>281.0</ele><time>2026-05-03T15:14:30.931Z</time></trkpt><trkpt lat="50.9242623374679" lon="11.727928270288686"><ele>281.0</ele><time>2026-05-03T15:14:31.931Z</time></trkpt><trkpt lat="50.92439848059633" lon="11.727755890195631"><ele>280.33333333333337</ele><time>2026-05-03T15:14:32.931Z</time></trkpt><trkpt lat="50.92454356617956" lon="11.72757211215362"><ele>279.6666666666667</ele><time>2026-05-03T15:14:33.931Z</time></trkpt><trkpt lat="50.92468749876739" lon="11.727359868085177"><ele>279.0</ele><time>2026-05-03T15:14:34.931Z</time></trkpt><trkpt lat="50.92485009802046" lon="11.727162480785207"><ele>279.0</ele><time>2026-05-03T15:14:35.931Z</time></trkpt><trkpt lat="50.924995283154345" lon="11.726942160164567"><ele>279.0</ele><time>2026-05-03T15:14:36.931Z</time></trkpt><trkpt lat="50.925156449809556" lon="11.726773592510668"><ele>279.0</ele><time>2026-05-03T15:14:37.931Z</time></trkpt><trkpt lat="50.92530673574818" lon="11.726564950772968"><ele>279.0</ele><time>2026-05-03T15:14:38.931Z</time></trkpt><trkpt lat="50.92546861114002" lon="11.726378529150011"><ele>279.0</ele><time>2026-05-03T15:14:39.931Z</time></trkpt><trkpt lat="50.92562491838818" lon="11.726217327655773"><ele>279.0</ele><time>2026-05-03T15:14:40.931Z</time></trkpt><trkpt lat="50.92574974136867" lon="11.726020628138167"><ele>278.6666666666667</ele><time>2026-05-03T15:14:41.931Z</time></trkpt><trkpt lat="50.925875655026594" lon="11.725841838806904"><ele>278.33333333333337</ele><time>2026-05-03T15:14:42.931Z</time></trkpt><trkpt lat="50.92599187424678" lon="11.725658685519862"><ele>278.0</ele><time>2026-05-03T15:14:43.931Z</time></trkpt><trkpt lat="50.92610226712841" lon="11.72548306258368"><ele>277.33333333333337</ele><time>2026-05-03T15:14:44.931Z</time></trkpt><trkpt lat="50.92621464664508" lon="11.725300819147604"><ele>276.6666666666667</ele><time>2026-05-03T15:14:45.931Z</time></trkpt><trkpt lat="50.926333653932325" lon="11.725098929564302"><ele>276.0</ele><time>2026-05-03T15:14:46.931Z</time></trkpt><trkpt lat="50.926470092001324" lon="11.7249015230904"><ele>275.0</ele><time>2026-05-03T15:14:47.931Z</time></trkpt><trkpt lat="50.92658683804783" lon="11.724673986572384"><ele>274.0</ele><time>2026-05-03T15:14:48.931Z</time></trkpt><trkpt lat="50.92669698179614" lon="11.724436379227045"><ele>273.0</ele><time>2026-05-03T15:14:49.931Z</time></trkpt><trkpt lat="50.92680808800818" lon="11.72419909850192"><ele>272.0</ele><time>2026-05-03T15:14:50.931Z</time></trkpt><trkpt lat="50.92691875691847" lon="11.723975357344143"><ele>271.0</ele><time>2026-05-03T15:14:51.931Z</time></trkpt><trkpt lat="50.92702230720752" lon="11.7237632252152"><ele>270.0</ele><time>2026-05-03T15:14:52.931Z</time></trkpt><trkpt lat="50.927112100919956" lon="11.723579068092882"><ele>270.75</ele><time>2026-05-03T15:14:53.931Z</time></trkpt><trkpt lat="50.92719967815739" lon="11.723402742474283"><ele>271.5</ele><time>2026-05-03T15:14:54.931Z</time></trkpt><trkpt lat="50.92728527581892" lon="11.723237052424397"><ele>272.25</ele><time>2026-05-03T15:14:55.931Z</time></trkpt><trkpt lat="50.92737592327961" lon="11.723074960002743"><ele>273.0</ele><time>2026-05-03T15:14:56.931Z</time></trkpt><trkpt lat="50.927472175644866" lon="11.72292566933087"><ele>273.0</ele><time>2026-05-03T15:14:57.931Z</time></trkpt><trkpt lat="50.927571787326265" lon="11.722787402504812"><ele>273.0</ele><time>2026-05-03T15:14:58.931Z</time></trkpt><trkpt lat="50.92766780933476" lon="11.722652868065342"><ele>273.0</ele><time>2026-05-03T15:14:59.931Z</time></trkpt><trkpt lat="50.92776332688788" lon="11.72253404130829"><ele>273.0</ele><time>2026-05-03T15:15:00.931Z</time></trkpt><trkpt lat="50.927863288308615" lon="11.722446814602016"><ele>273.1666666666667</ele><time>2026-05-03T15:15:01.931Z</time></trkpt><trkpt lat="50.927930229101975" lon="11.722328251744365"><ele>273.3333333333333</ele><time>2026-05-03T15:15:02.931Z</time></trkpt><trkpt lat="50.92801311848789" lon="11.722257123966669"><ele>273.5</ele><time>2026-05-03T15:15:03.931Z</time></trkpt><trkpt lat="50.92808311086721" lon="11.722175995897098"><ele>273.66666666666663</ele><time>2026-05-03T15:15:04.931Z</time></trkpt><trkpt lat="50.92814715180186" lon="11.722097204170886"><ele>273.8333333333333</ele><time>2026-05-03T15:15:05.931Z</time></trkpt><trkpt lat="50.92820300729579" lon="11.722031279944986"><ele>274.0</ele><time>2026-05-03T15:15:06.931Z</time></trkpt><trkpt lat="50.92826183242299" lon="11.721954435687943"><ele>274.2</ele><time>2026-05-03T15:15:07.931Z</time></trkpt><trkpt lat="50.928327857434326" lon="11.721892235174456"><ele>274.4</ele><time>2026-05-03T15:15:08.931Z</time></trkpt><trkpt lat="50.92841219072863" lon="11.721870807013518"><ele>274.6</ele><time>2026-05-03T15:15:09.931Z</time></trkpt><trkpt lat="50.92848749301585" lon="11.721884917690776"><ele>274.8</ele><time>2026-05-03T15:15:10.931Z</time></trkpt><trkpt lat="50.92861475596226" lon="11.721884609224619"><ele>275.0</ele><time>2026-05-03T15:15:11.931Z</time></trkpt><trkpt lat="50.928744002217876" lon="11.721819844025578"><ele>274.5</ele><time>2026-05-03T15:15:12.931Z</time></trkpt><trkpt lat="50.928875439864015" lon="11.721752287656015"><ele>274.0</ele><time>2026-05-03T15:15:13.931Z</time></trkpt><trkpt lat="50.92902348150757" lon="11.721698642130914"><ele>273.5</ele><time>2026-05-03T15:15:14.931Z</time></trkpt><trkpt lat="50.929163445662496" lon="11.721606802701082"><ele>273.0</ele><time>2026-05-03T15:15:15.931Z</time></trkpt><trkpt lat="50.929308384914705" lon="11.721528084000957"><ele>273.0</ele><time>2026-05-03T15:15:16.931Z</time></trkpt><trkpt lat="50.929463205772166" lon="11.721461155064294"><ele>273.0</ele><time>2026-05-03T15:15:17.931Z</time></trkpt><trkpt lat="50.929627140909574" lon="11.721388271778578"><ele>273.0</ele><time>2026-05-03T15:15:18.931Z</time></trkpt><trkpt lat="50.92979025661816" lon="11.721286368531262"><ele>273.0</ele><time>2026-05-03T15:15:19.931Z</time></trkpt><trkpt lat="50.92993717401115" lon="11.721156920822418"><ele>273.0</ele><time>2026-05-03T15:15:20.931Z</time></trkpt><trkpt lat="50.930070548091614" lon="11.72099708239651"><ele>273.0</ele><time>2026-05-03T15:15:21.931Z</time></trkpt><trkpt lat="50.930203254062846" lon="11.720824657493795"><ele>274.0</ele><time>2026-05-03T15:15:22.931Z</time></trkpt><trkpt lat="50.93033167201216" lon="11.720657576706232"><ele>275.0</ele><time>2026-05-03T15:15:23.93Z</time></trkpt><trkpt lat="50.93043956936784" lon="11.72052427401352"><ele>276.0</ele><time>2026-05-03T15:15:24.93Z</time></trkpt><trkpt lat="50.93054464327547" lon="11.720397894110313"><ele>277.0</ele><time>2026-05-03T15:15:25.93Z</time></trkpt><trkpt lat="50.9306494329408" lon="11.720277612322842"><ele>276.5</ele><time>2026-05-03T15:15:26.931Z</time></trkpt><trkpt lat="50.93076312514041" lon="11.720155873694244"><ele>276.0</ele><time>2026-05-03T15:15:27.931Z</time></trkpt><trkpt lat="50.93088071221275" lon="11.720037654442411"><ele>275.5</ele><time>2026-05-03T15:15:28.931Z</time></trkpt><trkpt lat="50.93100177749916" lon="11.719918020555031"><ele>275.0</ele><time>2026-05-03T15:15:29.931Z</time></trkpt><trkpt lat="50.931126361078924" lon="11.719790665358788"><ele>275.0</ele><time>2026-05-03T15:15:30.931Z</time></trkpt><trkpt lat="50.93124959288891" lon="11.719653522393923"><ele>275.0</ele><time>2026-05-03T15:15:31.931Z</time></trkpt><trkpt lat="50.931371635202886" lon="11.71949828648623"><ele>275.0</ele><time>2026-05-03T15:15:32.931Z</time></trkpt><trkpt lat="50.93148802060806" lon="11.719333557630659"><ele>274.6666666666667</ele><time>2026-05-03T15:15:33.931Z</time></trkpt><trkpt lat="50.93160085900911" lon="11.719167493735053"><ele>274.3333333333333</ele><time>2026-05-03T15:15:34.931Z</time></trkpt><trkpt lat="50.931722762818886" lon="11.718998110758154"><ele>274.0</ele><time>2026-05-03T15:15:35.931Z</time></trkpt><trkpt lat="50.931850175741666" lon="11.718836273133117"><ele>271.3333333333333</ele><time>2026-05-03T15:15:36.931Z</time></trkpt><trkpt lat="50.931993947901056" lon="11.718672923541112"><ele>268.6666666666667</ele><time>2026-05-03T15:15:37.931Z</time></trkpt><trkpt lat="50.93214873674385" lon="11.7185125535249"><ele>266.0</ele><time>2026-05-03T15:15:38.931Z</time></trkpt><trkpt lat="50.932317815793496" lon="11.718356778085724"><ele>265.6666666666667</ele><time>2026-05-03T15:15:39.931Z</time></trkpt><trkpt lat="50.93247218334247" lon="11.718200648773026"><ele>265.3333333333333</ele><time>2026-05-03T15:15:40.931Z</time></trkpt><trkpt lat="50.93262362426135" lon="11.718049946573222"><ele>265.0</ele><time>2026-05-03T15:15:41.931Z</time></trkpt><trkpt lat="50.932774852684915" lon="11.717915201916297"><ele>263.0</ele><time>2026-05-03T15:15:42.931Z</time></trkpt><trkpt lat="50.932921813450164" lon="11.717778245555381"><ele>261.0</ele><time>2026-05-03T15:15:43.931Z</time></trkpt><trkpt lat="50.93306906192334" lon="11.71765244814675"><ele>259.0</ele><time>2026-05-03T15:15:44.931Z</time></trkpt><trkpt lat="50.93320277426544" lon="11.717552550613966"><ele>258.5</ele><time>2026-05-03T15:15:45.931Z</time></trkpt><trkpt lat="50.93332466075293" lon="11.71746367092925"><ele>258.0</ele><time>2026-05-03T15:15:46.931Z</time></trkpt><trkpt lat="50.9334385021598" lon="11.717384294207346"><ele>257.5</ele><time>2026-05-03T15:15:47.931Z</time></trkpt><trkpt lat="50.93355075155084" lon="11.7173118459489"><ele>257.0</ele><time>2026-05-03T15:15:48.931Z</time></trkpt><trkpt lat="50.93365133188042" lon="11.717252170319908"><ele>256.33333333333337</ele><time>2026-05-03T15:15:49.931Z</time></trkpt><trkpt lat="50.933744625106605" lon="11.717198017864044"><ele>255.66666666666669</ele><time>2026-05-03T15:15:50.931Z</time></trkpt><trkpt lat="50.93382327546895" lon="11.717144082560315"><ele>255.0</ele><time>2026-05-03T15:15:51.931Z</time></trkpt><trkpt lat="50.93389492939146" lon="11.717100980358575"><ele>254.33333333333331</ele><time>2026-05-03T15:15:52.931Z</time></trkpt><trkpt lat="50.93395933731991" lon="11.717064964252884"><ele>253.66666666666666</ele><time>2026-05-03T15:15:53.931Z</time></trkpt><trkpt lat="50.93404819663379" lon="11.717044666352317"><ele>253.0</ele><time>2026-05-03T15:15:55.931Z</time></trkpt><trkpt lat="50.93413207343464" lon="11.717174352663697"><ele>253.0</ele><time>2026-05-03T15:15:57.931Z</time></trkpt><trkpt lat="50.934186132499505" lon="11.717306789850625"><ele>253.0</ele><time>2026-05-03T15:15:58.931Z</time></trkpt><trkpt lat="50.934248339361616" lon="11.717466295201453"><ele>253.0</ele><time>2026-05-03T15:15:59.931Z</time></trkpt><trkpt lat="50.93431506551502" lon="11.717639816996487"><ele>253.0</ele><time>2026-05-03T15:16:00.931Z</time></trkpt><trkpt lat="50.934385013919574" lon="11.717823376302059"><ele>252.66666666666666</ele><time>2026-05-03T15:16:01.931Z</time></trkpt><trkpt lat="50.934462921637824" lon="11.718032375997808"><ele>252.33333333333331</ele><time>2026-05-03T15:16:02.931Z</time></trkpt><trkpt lat="50.934546066247755" lon="11.718246517268033"><ele>252.0</ele><time>2026-05-03T15:16:03.931Z</time></trkpt><trkpt lat="50.93463177790619" lon="11.718483475388581"><ele>252.0</ele><time>2026-05-03T15:16:04.931Z</time></trkpt><trkpt lat="50.934718520052336" lon="11.718730820785385"><ele>252.0</ele><time>2026-05-03T15:16:05.931Z</time></trkpt><trkpt lat="50.934814271727035" lon="11.718963650779997"><ele>252.0</ele><time>2026-05-03T15:16:06.931Z</time></trkpt><trkpt lat="50.93489922726288" lon="11.71919171548281"><ele>252.0</ele><time>2026-05-03T15:16:07.931Z</time></trkpt><trkpt lat="50.9349787562359" lon="11.71940795702628"><ele>252.0</ele><time>2026-05-03T15:16:08.931Z</time></trkpt><trkpt lat="50.935056168287666" lon="11.719619267239821"><ele>252.0</ele><time>2026-05-03T15:16:09.931Z</time></trkpt><trkpt lat="50.935132141254385" lon="11.719833965288782"><ele>252.0</ele><time>2026-05-03T15:16:10.931Z</time></trkpt><trkpt lat="50.93521840147856" lon="11.720061557377685"><ele>252.0</ele><time>2026-05-03T15:16:11.931Z</time></trkpt><trkpt lat="50.93530465779683" lon="11.720291890400793"><ele>252.0</ele><time>2026-05-03T15:16:12.931Z</time></trkpt><trkpt lat="50.935387557142136" lon="11.720509398488382"><ele>252.0</ele><time>2026-05-03T15:16:13.931Z</time></trkpt><trkpt lat="50.93546861820241" lon="11.720731226252283"><ele>252.0</ele><time>2026-05-03T15:16:14.931Z</time></trkpt><trkpt lat="50.93554970018037" lon="11.720938124849123"><ele>252.0</ele><time>2026-05-03T15:16:15.931Z</time></trkpt><trkpt lat="50.935632664884416" lon="11.721147903247592"><ele>251.66666666666669</ele><time>2026-05-03T15:16:16.931Z</time></trkpt><trkpt lat="50.93571803961739" lon="11.72137176935879"><ele>251.33333333333334</ele><time>2026-05-03T15:16:17.931Z</time></trkpt><trkpt lat="50.93580853840931" lon="11.721608548927223"><ele>251.0</ele><time>2026-05-03T15:16:18.931Z</time></trkpt><trkpt lat="50.935898570403296" lon="11.72185636617293"><ele>250.66666666666669</ele><time>2026-05-03T15:16:19.931Z</time></trkpt><trkpt lat="50.93597788941946" lon="11.722140966078063"><ele>250.33333333333331</ele><time>2026-05-03T15:16:20.931Z</time></trkpt><trkpt lat="50.9360388476861" lon="11.722453914442141"><ele>250.0</ele><time>2026-05-03T15:16:21.931Z</time></trkpt><trkpt lat="50.93608683936243" lon="11.72278786947639"><ele>250.0</ele><time>2026-05-03T15:16:22.931Z</time></trkpt><trkpt lat="50.93612124316402" lon="11.723146762579612"><ele>250.0</ele><time>2026-05-03T15:16:23.931Z</time></trkpt><trkpt lat="50.9361429763779" lon="11.723521916988544"><ele>250.0</ele><time>2026-05-03T15:16:24.931Z</time></trkpt><trkpt lat="50.936152139024415" lon="11.723910784514981"><ele>250.0</ele><time>2026-05-03T15:16:25.931Z</time></trkpt><trkpt lat="50.93616136068303" lon="11.724314072197558"><ele>251.0</ele><time>2026-05-03T15:16:26.931Z</time></trkpt><trkpt lat="50.93617929503943" lon="11.724728049135525"><ele>252.0</ele><time>2026-05-03T15:16:27.931Z</time></trkpt><trkpt lat="50.93620622228199" lon="11.725154602804675"><ele>252.5</ele><time>2026-05-03T15:16:28.931Z</time></trkpt><trkpt lat="50.936249402453456" lon="11.72558898565651"><ele>253.0</ele><time>2026-05-03T15:16:29.931Z</time></trkpt><trkpt lat="50.93630522167688" lon="11.726016975964114"><ele>252.5</ele><time>2026-05-03T15:16:30.931Z</time></trkpt><trkpt lat="50.936373421479345" lon="11.726430008624043"><ele>252.0</ele><time>2026-05-03T15:16:31.931Z</time></trkpt><trkpt lat="50.9364631643446" lon="11.726820137463164"><ele>251.0</ele><time>2026-05-03T15:16:32.931Z</time></trkpt><trkpt lat="50.93657159852557" lon="11.727206262533358"><ele>250.0</ele><time>2026-05-03T15:16:33.931Z</time></trkpt><trkpt lat="50.93669545309298" lon="11.727593949963145"><ele>248.5</ele><time>2026-05-03T15:16:34.931Z</time></trkpt><trkpt lat="50.9368316006696" lon="11.727986652654652"><ele>247.0</ele><time>2026-05-03T15:16:35.931Z</time></trkpt><trkpt lat="50.936972066758436" lon="11.72836493614894"><ele>245.5</ele><time>2026-05-03T15:16:36.931Z</time></trkpt><trkpt lat="50.93710098077222" lon="11.728709866476672"><ele>244.0</ele><time>2026-05-03T15:16:37.931Z</time></trkpt><trkpt lat="50.93722274152911" lon="11.72902211768011"><ele>244.0</ele><time>2026-05-03T15:16:38.931Z</time></trkpt><trkpt lat="50.93733239368673" lon="11.72931053797042"><ele>244.0</ele><time>2026-05-03T15:16:39.931Z</time></trkpt><trkpt lat="50.937428981910024" lon="11.729567505599173"><ele>244.0</ele><time>2026-05-03T15:16:40.931Z</time></trkpt><trkpt lat="50.93751741207554" lon="11.72979536467941"><ele>242.25</ele><time>2026-05-03T15:16:41.931Z</time></trkpt><trkpt lat="50.93760025763562" lon="11.729997622520436"><ele>240.5</ele><time>2026-05-03T15:16:42.931Z</time></trkpt><trkpt lat="50.93767654773713" lon="11.73018806744096"><ele>238.75</ele><time>2026-05-03T15:16:43.931Z</time></trkpt><trkpt lat="50.93774293191988" lon="11.730359832373038"><ele>237.0</ele><time>2026-05-03T15:16:44.931Z</time></trkpt><trkpt lat="50.93779902195538" lon="11.730495031391346"><ele>237.0</ele><time>2026-05-03T15:16:45.931Z</time></trkpt><trkpt lat="50.93784120977207" lon="11.730584693531565"><ele>237.0</ele><time>2026-05-03T15:16:46.931Z</time></trkpt><trkpt lat="50.93786565987147" lon="11.730690550323924"><ele>237.0</ele><time>2026-05-03T15:16:48.931Z</time></trkpt><trkpt lat="50.93805215654985" lon="11.73045616225088"><ele>237.0</ele><time>2026-05-03T15:16:50.931Z</time></trkpt><trkpt lat="50.93813114450514" lon="11.730381174221964"><ele>237.0</ele><time>2026-05-03T15:16:51.931Z</time></trkpt><trkpt lat="50.93822149699859" lon="11.730286502727882"><ele>237.0</ele><time>2026-05-03T15:16:52.931Z</time></trkpt><trkpt lat="50.93833055933894" lon="11.73017589516087"><ele>237.0</ele><time>2026-05-03T15:16:53.931Z</time></trkpt><trkpt lat="50.93844570831604" lon="11.730055669941054"><ele>237.0</ele><time>2026-05-03T15:16:54.931Z</time></trkpt><trkpt lat="50.93856809256376" lon="11.72992595686567"><ele>234.25</ele><time>2026-05-03T15:16:55.931Z</time></trkpt><trkpt lat="50.93869535308293" lon="11.729784548487263"><ele>231.5</ele><time>2026-05-03T15:16:56.931Z</time></trkpt><trkpt lat="50.9388193903039" lon="11.729652446256955"><ele>228.75</ele><time>2026-05-03T15:16:57.931Z</time></trkpt><trkpt lat="50.93893525652938" lon="11.729534417919034"><ele>226.0</ele><time>2026-05-03T15:16:58.931Z</time></trkpt><trkpt lat="50.9390467018311" lon="11.729428594996945"><ele>226.75</ele><time>2026-05-03T15:16:59.931Z</time></trkpt><trkpt lat="50.93916340121483" lon="11.729320453331425"><ele>227.5</ele><time>2026-05-03T15:17:00.931Z</time></trkpt><trkpt lat="50.93928798262786" lon="11.729224050241283"><ele>228.25</ele><time>2026-05-03T15:17:01.931Z</time></trkpt><trkpt lat="50.939413573624535" lon="11.72913413642041"><ele>229.0</ele><time>2026-05-03T15:17:02.931Z</time></trkpt><trkpt lat="50.939532979444515" lon="11.729054129741476"><ele>229.0</ele><time>2026-05-03T15:17:03.931Z</time></trkpt><trkpt lat="50.93964186585962" lon="11.728981256877287"><ele>228.99999999999997</ele><time>2026-05-03T15:17:04.931Z</time></trkpt><trkpt lat="50.93974284454105" lon="11.728911847685902"><ele>228.99999999999997</ele><time>2026-05-03T15:17:05.93Z</time></trkpt><trkpt lat="50.939835212855186" lon="11.72884556494742"><ele>229.0</ele><time>2026-05-03T15:17:06.929Z</time></trkpt><trkpt lat="50.93992889172086" lon="11.728800488280797"><ele>229.0</ele><time>2026-05-03T15:17:07.928Z</time></trkpt><trkpt lat="50.94002845910471" lon="11.728726287130943"><ele>228.83333333333331</ele><time>2026-05-03T15:17:08.926Z</time></trkpt><trkpt lat="50.940125501106884" lon="11.728656501631141"><ele>228.66666666666666</ele><time>2026-05-03T15:17:09.925Z</time></trkpt><trkpt lat="50.940210877394954" lon="11.728595403409445"><ele>228.5</ele><time>2026-05-03T15:17:10.924Z</time></trkpt><trkpt lat="50.940283896435304" lon="11.7285333080928"><ele>228.33333333333331</ele><time>2026-05-03T15:17:11.923Z</time></trkpt><trkpt lat="50.94034885113062" lon="11.728467553720144"><ele>228.16666666666666</ele><time>2026-05-03T15:17:12.922Z</time></trkpt><trkpt lat="50.94040839691525" lon="11.72841402575587"><ele>228.0</ele><time>2026-05-03T15:17:13.922Z</time></trkpt><trkpt lat="50.94046693343857" lon="11.728360619407068"><ele>228.0</ele><time>2026-05-03T15:17:14.921Z</time></trkpt><trkpt lat="50.94055610361787" lon="11.728279044934903"><ele>228.0</ele><time>2026-05-03T15:17:16.919Z</time></trkpt><trkpt lat="50.94065416909775" lon="11.728280853898402"><ele>228.0</ele><time>2026-05-03T15:17:18.918Z</time></trkpt><trkpt lat="50.94076872816073" lon="11.72846518283831"><ele>228.0</ele><time>2026-05-03T15:17:21.917Z</time></trkpt><trkpt lat="50.94081014470981" lon="11.728550077215692"><ele>228.0</ele><time>2026-05-03T15:17:22.916Z</time></trkpt><trkpt lat="50.94084625317575" lon="11.728650483460278"><ele>227.0</ele><time>2026-05-03T15:17:23.916Z</time></trkpt><trkpt lat="50.940886529440625" lon="11.728755462739263"><ele>225.99999999999997</ele><time>2026-05-03T15:17:24.915Z</time></trkpt><trkpt lat="50.9409247758406" lon="11.728858869649535"><ele>225.0</ele><time>2026-05-03T15:17:25.913Z</time></trkpt><trkpt lat="50.94096165507707" lon="11.72895310619407"><ele>224.0</ele><time>2026-05-03T15:17:26.914Z</time></trkpt><trkpt lat="50.9409925479809" lon="11.729049125922236"><ele>223.0</ele><time>2026-05-03T15:17:27.913Z</time></trkpt><trkpt lat="50.941023486519676" lon="11.729147587569443"><ele>222.0</ele><time>2026-05-03T15:17:28.913Z</time></trkpt><trkpt lat="50.94105080871337" lon="11.729245672622607"><ele>221.0</ele><time>2026-05-03T15:17:29.913Z</time></trkpt><trkpt lat="50.941108557791836" lon="11.729423072495004"><ele>220.50000000000003</ele><time>2026-05-03T15:17:31.912Z</time></trkpt><trkpt lat="50.9411468683229" lon="11.729506887629627"><ele>220.0</ele><time>2026-05-03T15:17:32.912Z</time></trkpt><trkpt lat="50.94118538954701" lon="11.729591339908946"><ele>219.5</ele><time>2026-05-03T15:17:33.911Z</time></trkpt><trkpt lat="50.941229913761845" lon="11.729670796340587"><ele>219.0</ele><time>2026-05-03T15:17:34.911Z</time></trkpt><trkpt lat="50.9413066505183" lon="11.729806124881776"><ele>218.50000000000003</ele><time>2026-05-03T15:17:36.911Z</time></trkpt><trkpt lat="50.941393034513425" lon="11.729891039995858"><ele>218.0</ele><time>2026-05-03T15:17:38.91Z</time></trkpt><trkpt lat="50.94149332867117" lon="11.729959748805344"><ele>218.0</ele><time>2026-05-03T15:17:40.909Z</time></trkpt><trkpt lat="50.94157875470055" lon="11.730001862869557"><ele>218.0</ele><time>2026-05-03T15:17:42.909Z</time></trkpt><trkpt lat="50.941651482727345" lon="11.729980550446928"><ele>218.0</ele><time>2026-05-03T15:17:44.909Z</time></trkpt><trkpt lat="50.94174474708221" lon="11.729935036796444"><ele>218.0</ele><time>2026-05-03T15:17:46.909Z</time></trkpt><trkpt lat="50.941836724124315" lon="11.730016464601215"><ele>218.0</ele><time>2026-05-03T15:17:48.909Z</time></trkpt><trkpt lat="50.9418128041946" lon="11.730209745098632"><ele>216.66666666666669</ele><time>2026-05-03T15:17:50.908Z</time></trkpt><trkpt lat="50.941748990406474" lon="11.730315574221262"><ele>215.33333333333334</ele><time>2026-05-03T15:17:51.908Z</time></trkpt><trkpt lat="50.9416763586445" lon="11.730417549452643"><ele>214.0</ele><time>2026-05-03T15:17:52.908Z</time></trkpt><trkpt lat="50.94161288005598" lon="11.730518799083788"><ele>212.66666666666669</ele><time>2026-05-03T15:17:53.908Z</time></trkpt><trkpt lat="50.94156445786429" lon="11.730613451606748"><ele>211.33333333333334</ele><time>2026-05-03T15:17:54.908Z</time></trkpt><trkpt lat="50.94151769873031" lon="11.73072498012483"><ele>210.0</ele><time>2026-05-03T15:17:55.908Z</time></trkpt><trkpt lat="50.941482952421346" lon="11.730852838993716"><ele>210.0</ele><time>2026-05-03T15:17:56.908Z</time></trkpt><trkpt lat="50.94145706683015" lon="11.730983168704357"><ele>210.0</ele><time>2026-05-03T15:17:57.908Z</time></trkpt><trkpt lat="50.94142922548714" lon="11.731111501332542"><ele>210.0</ele><time>2026-05-03T15:17:58.908Z</time></trkpt><trkpt lat="50.94140487093685" lon="11.731238137953993"><ele>210.0</ele><time>2026-05-03T15:17:59.908Z</time></trkpt><trkpt lat="50.94138946847126" lon="11.73134788484658"><ele>210.0</ele><time>2026-05-03T15:18:00.908Z</time></trkpt><trkpt lat="50.94136811056267" lon="11.73146444339488"><ele>210.0</ele><time>2026-05-03T15:18:01.908Z</time></trkpt><trkpt lat="50.941356435037136" lon="11.731577256045936"><ele>208.66666666666666</ele><time>2026-05-03T15:18:02.908Z</time></trkpt><trkpt lat="50.94133845520838" lon="11.731690760268492"><ele>207.33333333333331</ele><time>2026-05-03T15:18:03.908Z</time></trkpt><trkpt lat="50.94133419213539" lon="11.731798155342426"><ele>206.0</ele><time>2026-05-03T15:18:04.908Z</time></trkpt><trkpt lat="50.94135391363056" lon="11.731948161644679"><ele>204.66666666666666</ele><time>2026-05-03T15:18:06.908Z</time></trkpt><trkpt lat="50.941370564569155" lon="11.732050946885979"><ele>203.33333333333331</ele><time>2026-05-03T15:18:08.907Z</time></trkpt><trkpt lat="50.941391020287156" lon="11.732197611428102"><ele>202.0</ele><time>2026-05-03T15:18:11.907Z</time></trkpt><trkpt lat="50.941428669895316" lon="11.732349658965363"><ele>201.6</ele><time>2026-05-03T15:18:13.907Z</time></trkpt><trkpt lat="50.9414818295299" lon="11.732426629716402"><ele>201.2</ele><time>2026-05-03T15:18:14.907Z</time></trkpt><trkpt lat="50.9415625435315" lon="11.732488221424221"><ele>200.8</ele><time>2026-05-03T15:18:15.907Z</time></trkpt><trkpt lat="50.94166744466023" lon="11.732535206172964"><ele>200.4</ele><time>2026-05-03T15:18:16.907Z</time></trkpt><trkpt lat="50.94176802410089" lon="11.732578224035262"><ele>200.0</ele><time>2026-05-03T15:18:17.907Z</time></trkpt><trkpt lat="50.94185668965509" lon="11.732624631964406"><ele>200.00000000000003</ele><time>2026-05-03T15:18:18.907Z</time></trkpt><trkpt lat="50.94193975277339" lon="11.732650439336728"><ele>200.0</ele><time>2026-05-03T15:18:19.907Z</time></trkpt><trkpt lat="50.94201405513686" lon="11.732653410769391"><ele>200.0</ele><time>2026-05-03T15:18:20.907Z</time></trkpt><trkpt lat="50.942108210027776" lon="11.732644361281979"><ele>200.0</ele><time>2026-05-03T15:18:22.907Z</time></trkpt><trkpt lat="50.942206673921234" lon="11.732686568698329"><ele>200.00000000000003</ele><time>2026-05-03T15:18:24.907Z</time></trkpt><trkpt lat="50.94227388746669" lon="11.732701661923802"><ele>200.0</ele><time>2026-05-03T15:18:25.907Z</time></trkpt><trkpt lat="50.94234827531158" lon="11.732728457810598"><ele>200.0</ele><time>2026-05-03T15:18:26.907Z</time></trkpt><trkpt lat="50.942424115065464" lon="11.732765164875293"><ele>200.0</ele><time>2026-05-03T15:18:27.907Z</time></trkpt><trkpt lat="50.942503536014904" lon="11.732833729944662"><ele>200.0</ele><time>2026-05-03T15:18:28.907Z</time></trkpt><trkpt lat="50.94258388648675" lon="11.732924059421043"><ele>200.0</ele><time>2026-05-03T15:18:29.907Z</time></trkpt><trkpt lat="50.94266520158809" lon="11.733010256335872"><ele>200.0</ele><time>2026-05-03T15:18:30.907Z</time></trkpt><trkpt lat="50.94274747411296" lon="11.733101151392741"><ele>201.6</ele><time>2026-05-03T15:18:31.907Z</time></trkpt><trkpt lat="50.94282861896578" lon="11.733201689563295"><ele>203.2</ele><time>2026-05-03T15:18:32.907Z</time></trkpt><trkpt lat="50.94290770648725" lon="11.733294973713495"><ele>204.8</ele><time>2026-05-03T15:18:33.907Z</time></trkpt><trkpt lat="50.94299405898667" lon="11.733386902245929"><ele>206.4</ele><time>2026-05-03T15:18:34.907Z</time></trkpt><trkpt lat="50.9430722627898" lon="11.73349066075129"><ele>208.0</ele><time>2026-05-03T15:18:35.907Z</time></trkpt><trkpt lat="50.943154662342096" lon="11.733583630095957"><ele>207.99999999999997</ele><time>2026-05-03T15:18:36.907Z</time></trkpt><trkpt lat="50.94323608638911" lon="11.73367782076951"><ele>208.0</ele><time>2026-05-03T15:18:37.907Z</time></trkpt><trkpt lat="50.94330355056524" lon="11.733761939119919"><ele>208.0</ele><time>2026-05-03T15:18:38.907Z</time></trkpt><trkpt lat="50.94336078011051" lon="11.733843180004195"><ele>208.0</ele><time>2026-05-03T15:18:39.907Z</time></trkpt><trkpt lat="50.94341696231603" lon="11.733914958844899"><ele>207.99999999999997</ele><time>2026-05-03T15:18:40.907Z</time></trkpt><trkpt lat="50.94344364476357" lon="11.734029246565816"><ele>208.0</ele><time>2026-05-03T15:18:42.907Z</time></trkpt><trkpt lat="50.94348490312049" lon="11.734187939419103"><ele>209.0</ele><time>2026-05-03T15:18:44.907Z</time></trkpt><trkpt lat="50.943580893107786" lon="11.734284302839571"><ele>210.0</ele><time>2026-05-03T15:18:46.907Z</time></trkpt><trkpt lat="50.94364449911205" lon="11.73431631762974"><ele>211.0</ele><time>2026-05-03T15:18:47.907Z</time></trkpt><trkpt lat="50.943762195492035" lon="11.734365491641366"><ele>212.0</ele><time>2026-05-03T15:18:49.907Z</time></trkpt><trkpt lat="50.94382607972516" lon="11.734429853477154"><ele>213.0</ele><time>2026-05-03T15:18:50.907Z</time></trkpt><trkpt lat="50.94393085398158" lon="11.734552332416106"><ele>213.16666666666666</ele><time>2026-05-03T15:18:52.907Z</time></trkpt><trkpt lat="50.94398972297429" lon="11.73462879369015"><ele>213.33333333333331</ele><time>2026-05-03T15:18:53.907Z</time></trkpt><trkpt lat="50.944043530961586" lon="11.734694234577177"><ele>213.5</ele><time>2026-05-03T15:18:54.907Z</time></trkpt><trkpt lat="50.94413010026599" lon="11.73481033655716"><ele>213.66666666666666</ele><time>2026-05-03T15:18:56.907Z</time></trkpt><trkpt lat="50.944196501405784" lon="11.734976757610083"><ele>213.83333333333331</ele><time>2026-05-03T15:18:58.907Z</time></trkpt><trkpt lat="50.944215778924196" lon="11.735074534438835"><ele>214.0</ele><time>2026-05-03T15:18:59.907Z</time></trkpt><trkpt lat="50.944241735361615" lon="11.73522860799749"><ele>215.0</ele><time>2026-05-03T15:19:01.907Z</time></trkpt><trkpt lat="50.94433058503306" lon="11.735324471946186"><ele>215.99999999999997</ele><time>2026-05-03T15:19:03.907Z</time></trkpt><trkpt lat="50.94442761528131" lon="11.73539888151381"><ele>216.99999999999997</ele><time>2026-05-03T15:19:05.907Z</time></trkpt><trkpt lat="50.944506752815506" lon="11.735485245296127"><ele>218.0</ele><time>2026-05-03T15:19:07.907Z</time></trkpt><trkpt lat="50.94456531712827" lon="11.735623302558832"><ele>219.0</ele><time>2026-05-03T15:19:09.907Z</time></trkpt><trkpt lat="50.94460291746334" lon="11.735742400529169"><ele>219.0</ele><time>2026-05-03T15:19:10.907Z</time></trkpt><trkpt lat="50.94464679723401" lon="11.735876181802313"><ele>219.0</ele><time>2026-05-03T15:19:11.907Z</time></trkpt><trkpt lat="50.944679984213295" lon="11.73598193617173"><ele>219.0</ele><time>2026-05-03T15:19:12.907Z</time></trkpt><trkpt lat="50.944705803868764" lon="11.736074692567561"><ele>219.0</ele><time>2026-05-03T15:19:13.907Z</time></trkpt><trkpt lat="50.94474752626755" lon="11.736165918615143"><ele>219.0</ele><time>2026-05-03T15:19:14.907Z</time></trkpt><trkpt lat="50.944788021786046" lon="11.736311930789464"><ele>219.0</ele><time>2026-05-03T15:19:15.907Z</time></trkpt><trkpt lat="50.94481909793622" lon="11.73642107513231"><ele>220.2</ele><time>2026-05-03T15:19:16.907Z</time></trkpt><trkpt lat="50.94485592164879" lon="11.736587110980246"><ele>221.39999999999998</ele><time>2026-05-03T15:19:18.907Z</time></trkpt><trkpt lat="50.944894480651946" lon="11.736706580654245"><ele>222.6</ele><time>2026-05-03T15:19:20.907Z</time></trkpt><trkpt lat="50.94487180535993" lon="11.736889284056874"><ele>223.8</ele><time>2026-05-03T15:19:22.907Z</time></trkpt><trkpt lat="50.944801640111876" lon="11.73700207987868"><ele>225.0</ele><time>2026-05-03T15:19:24.907Z</time></trkpt><trkpt lat="50.94472179870642" lon="11.737033479113208"><ele>225.0</ele><time>2026-05-03T15:19:26.907Z</time></trkpt><trkpt lat="50.94467427285747" lon="11.737143900942064"><ele>225.0</ele><time>2026-05-03T15:19:28.907Z</time></trkpt><trkpt lat="50.94468118396638" lon="11.737326890144656"><ele>225.0</ele><time>2026-05-03T15:19:30.907Z</time></trkpt><trkpt lat="50.94469600895823" lon="11.73744621388519"><ele>225.0</ele><time>2026-05-03T15:19:31.906Z</time></trkpt><trkpt lat="50.944695215301955" lon="11.737578464004654"><ele>225.0</ele><time>2026-05-03T15:19:32.906Z</time></trkpt><trkpt lat="50.94468654995806" lon="11.737741405153798"><ele>224.5</ele><time>2026-05-03T15:19:33.906Z</time></trkpt><trkpt lat="50.94468425827246" lon="11.737905584827283"><ele>224.0</ele><time>2026-05-03T15:19:34.907Z</time></trkpt><trkpt lat="50.94468009049799" lon="11.738090731167787"><ele>223.5</ele><time>2026-05-03T15:19:35.907Z</time></trkpt><trkpt lat="50.94469072592879" lon="11.738272075931285"><ele>223.0</ele><time>2026-05-03T15:19:36.907Z</time></trkpt><trkpt lat="50.94470288480627" lon="11.738458506649176"><ele>222.75</ele><time>2026-05-03T15:19:37.907Z</time></trkpt><trkpt lat="50.94470684911035" lon="11.738652816693724"><ele>222.5</ele><time>2026-05-03T15:19:38.906Z</time></trkpt><trkpt lat="50.94470213515364" lon="11.738838487854448"><ele>222.25</ele><time>2026-05-03T15:19:39.906Z</time></trkpt><trkpt lat="50.94470109919472" lon="11.739055634396"><ele>222.0</ele><time>2026-05-03T15:19:40.906Z</time></trkpt><trkpt lat="50.94470508024641" lon="11.739243936813208"><ele>222.5</ele><time>2026-05-03T15:19:41.907Z</time></trkpt><trkpt lat="50.944704482833195" lon="11.73943238719787"><ele>223.0</ele><time>2026-05-03T15:19:42.907Z</time></trkpt><trkpt lat="50.944704767395216" lon="11.739629301890211"><ele>223.5</ele><time>2026-05-03T15:19:43.906Z</time></trkpt><trkpt lat="50.9447148128039" lon="11.73982506993537"><ele>224.0</ele><time>2026-05-03T15:19:44.906Z</time></trkpt><trkpt lat="50.94472827508695" lon="11.740017237314687"><ele>224.75</ele><time>2026-05-03T15:19:45.906Z</time></trkpt><trkpt lat="50.944739228932974" lon="11.740225646025179"><ele>225.5</ele><time>2026-05-03T15:19:46.906Z</time></trkpt><trkpt lat="50.94473838317677" lon="11.74041852623835"><ele>226.25</ele><time>2026-05-03T15:19:47.906Z</time></trkpt><trkpt lat="50.94474126603908" lon="11.740609606765789"><ele>227.0</ele><time>2026-05-03T15:19:48.906Z</time></trkpt><trkpt lat="50.944741878985404" lon="11.740802897803453"><ele>227.0</ele><time>2026-05-03T15:19:49.906Z</time></trkpt><trkpt lat="50.94473554499237" lon="11.740998088809535"><ele>227.0</ele><time>2026-05-03T15:19:50.906Z</time></trkpt><trkpt lat="50.9447351689507" lon="11.741183306592278"><ele>227.0</ele><time>2026-05-03T15:19:51.906Z</time></trkpt><trkpt lat="50.94473599272128" lon="11.74137257656489"><ele>227.0</ele><time>2026-05-03T15:19:52.906Z</time></trkpt><trkpt lat="50.944742781713394" lon="11.741529530345458"><ele>227.33333333333334</ele><time>2026-05-03T15:19:53.906Z</time></trkpt><trkpt lat="50.94474783492527" lon="11.741658747507053"><ele>227.66666666666669</ele><time>2026-05-03T15:19:54.906Z</time></trkpt><trkpt lat="50.94474903770538" lon="11.741766932022498"><ele>228.0</ele><time>2026-05-03T15:19:55.906Z</time></trkpt><trkpt lat="50.94474941471254" lon="11.741935437803365"><ele>228.33333333333331</ele><time>2026-05-03T15:19:57.906Z</time></trkpt><trkpt lat="50.944764638614515" lon="11.74204628847666"><ele>228.66666666666666</ele><time>2026-05-03T15:19:59.906Z</time></trkpt><trkpt lat="50.944835009620554" lon="11.742101411496245"><ele>229.0</ele><time>2026-05-03T15:20:02.906Z</time></trkpt><trkpt lat="50.94488747040007" lon="11.742017620748467"><ele>229.33333333333331</ele><time>2026-05-03T15:20:05.906Z</time></trkpt><trkpt lat="50.944967037000985" lon="11.741972806528377"><ele>229.66666666666666</ele><time>2026-05-03T15:20:07.906Z</time></trkpt><trkpt lat="50.9450579861543" lon="11.741971511081934"><ele>230.0</ele><time>2026-05-03T15:20:09.906Z</time></trkpt><trkpt lat="50.94512662022676" lon="11.74198017562559"><ele>230.33333333333331</ele><time>2026-05-03T15:20:11.906Z</time></trkpt><trkpt lat="50.94519607943448" lon="11.741922668270732"><ele>230.66666666666666</ele><time>2026-05-03T15:20:14.906Z</time></trkpt><trkpt lat="50.94527317151307" lon="11.741879920587488"><ele>231.0</ele><time>2026-05-03T15:20:17.906Z</time></trkpt><trkpt lat="50.94535130966813" lon="11.741863721884155"><ele>229.0</ele><time>2026-05-03T15:20:19.906Z</time></trkpt><trkpt lat="50.94542276314911" lon="11.741804101560732"><ele>227.0</ele><time>2026-05-03T15:20:22.906Z</time></trkpt><trkpt lat="50.9454799291153" lon="11.741722125905264"><ele>225.0</ele><time>2026-05-03T15:20:25.906Z</time></trkpt><trkpt lat="50.945564037973014" lon="11.741703772133896"><ele>223.0</ele><time>2026-05-03T15:20:28.906Z</time></trkpt><trkpt lat="50.945641908197445" lon="11.741638779756734"><ele>221.0</ele><time>2026-05-03T15:20:30.906Z</time></trkpt><trkpt lat="50.94571400164784" lon="11.741548643175905"><ele>219.0</ele><time>2026-05-03T15:20:32.906Z</time></trkpt><trkpt lat="50.945799070078394" lon="11.741474692250003"><ele>219.0</ele><time>2026-05-03T15:20:34.906Z</time></trkpt><trkpt lat="50.945885823673684" lon="11.74136991374288"><ele>218.99999999999997</ele><time>2026-05-03T15:20:36.906Z</time></trkpt><trkpt lat="50.94593634295487" lon="11.741300181988306"><ele>218.99999999999997</ele><time>2026-05-03T15:20:37.906Z</time></trkpt><trkpt lat="50.945987431832336" lon="11.741214403332528"><ele>219.0</ele><time>2026-05-03T15:20:38.906Z</time></trkpt><trkpt lat="50.94604452776619" lon="11.741065478499728"><ele>219.0</ele><time>2026-05-03T15:20:40.906Z</time></trkpt><trkpt lat="50.9461070276655" lon="11.740943318454693"><ele>219.0</ele><time>2026-05-03T15:20:42.906Z</time></trkpt><trkpt lat="50.946170158892244" lon="11.740843058986602"><ele>218.99999999999997</ele><time>2026-05-03T15:20:44.906Z</time></trkpt><trkpt lat="50.946243019734375" lon="11.740896787907067"><ele>218.99999999999997</ele><time>2026-05-03T15:20:47.906Z</time></trkpt><trkpt lat="50.946251338643755" lon="11.741040467849176"><ele>219.0</ele><time>2026-05-03T15:20:49.906Z</time></trkpt><trkpt lat="50.946212414278214" lon="11.741279852547887"><ele>219.0</ele><time>2026-05-03T15:20:51.906Z</time></trkpt><trkpt lat="50.946198326131196" lon="11.74142634675604"><ele>219.0</ele><time>2026-05-03T15:20:52.906Z</time></trkpt><trkpt lat="50.94620510650286" lon="11.741552912555282"><ele>218.99999999999997</ele><time>2026-05-03T15:20:53.906Z</time></trkpt><trkpt lat="50.94620312533292" lon="11.741680349466408"><ele>218.99999999999997</ele><time>2026-05-03T15:20:54.906Z</time></trkpt><trkpt lat="50.94620375145773" lon="11.74183858083801"><ele>219.0</ele><time>2026-05-03T15:20:55.906Z</time></trkpt><trkpt lat="50.94621468766989" lon="11.741984499224749"><ele>219.0</ele><time>2026-05-03T15:20:56.906Z</time></trkpt><trkpt lat="50.9462441108762" lon="11.742166731426149"><ele>219.0</ele><time>2026-05-03T15:20:57.906Z</time></trkpt><trkpt lat="50.946293082596625" lon="11.742366567609775"><ele>219.0</ele><time>2026-05-03T15:20:58.906Z</time></trkpt><trkpt lat="50.94633867884372" lon="11.74256167096981"><ele>219.0</ele><time>2026-05-03T15:20:59.906Z</time></trkpt><trkpt lat="50.9463911299479" lon="11.74276449253471"><ele>219.0</ele><time>2026-05-03T15:21:00.906Z</time></trkpt><trkpt lat="50.94644424600751" lon="11.74294659944152"><ele>219.0</ele><time>2026-05-03T15:21:01.906Z</time></trkpt><trkpt lat="50.9464938927371" lon="11.743118610342494"><ele>219.0</ele><time>2026-05-03T15:21:02.906Z</time></trkpt><trkpt lat="50.946538143077206" lon="11.74326745564932"><ele>219.0</ele><time>2026-05-03T15:21:03.906Z</time></trkpt><trkpt lat="50.94659894745349" lon="11.743435435368637"><ele>219.0</ele><time>2026-05-03T15:21:04.906Z</time></trkpt><trkpt lat="50.946680266901296" lon="11.74359006300662"><ele>220.0</ele><time>2026-05-03T15:21:05.906Z</time></trkpt><trkpt lat="50.94673076319661" lon="11.74375686090959"><ele>220.99999999999997</ele><time>2026-05-03T15:21:06.906Z</time></trkpt><trkpt lat="50.946790834816674" lon="11.743890884382468"><ele>221.99999999999997</ele><time>2026-05-03T15:21:07.906Z</time></trkpt><trkpt lat="50.94686477640156" lon="11.74398955968259"><ele>223.0</ele><time>2026-05-03T15:21:08.906Z</time></trkpt><trkpt lat="50.94694548858767" lon="11.74410536499821"><ele>224.0</ele><time>2026-05-03T15:21:09.906Z</time></trkpt><trkpt lat="50.94705162411343" lon="11.744215996455956"><ele>224.0</ele><time>2026-05-03T15:21:10.906Z</time></trkpt><trkpt lat="50.94716156350358" lon="11.744329438574608"><ele>223.99999999999997</ele><time>2026-05-03T15:21:11.906Z</time></trkpt><trkpt lat="50.94723861307181" lon="11.744458258899591"><ele>223.99999999999997</ele><time>2026-05-03T15:21:12.906Z</time></trkpt><trkpt lat="50.94730308950889" lon="11.744565749047942"><ele>224.0</ele><time>2026-05-03T15:21:13.906Z</time></trkpt><trkpt lat="50.947348486447176" lon="11.74469290737296"><ele>224.0</ele><time>2026-05-03T15:21:14.906Z</time></trkpt><trkpt lat="50.94736379511289" lon="11.744862516096463"><ele>223.5</ele><time>2026-05-03T15:21:15.905Z</time></trkpt><trkpt lat="50.94741079540118" lon="11.745031824733532"><ele>223.0</ele><time>2026-05-03T15:21:16.905Z</time></trkpt><trkpt lat="50.9474600399152" lon="11.745209217834333"><ele>222.5</ele><time>2026-05-03T15:21:17.905Z</time></trkpt><trkpt lat="50.947368844891166" lon="11.745343158082465"><ele>222.0</ele><time>2026-05-03T15:21:18.905Z</time></trkpt><trkpt lat="50.947871524987114" lon="11.745410822227393"><ele>223.5</ele><time>2026-05-03T15:21:19.905Z</time></trkpt><trkpt lat="50.94797988409799" lon="11.745564110798782"><ele>225.0</ele><time>2026-05-03T15:21:20.905Z</time></trkpt><trkpt lat="50.94809336759209" lon="11.745712286199504"><ele>226.5</ele><time>2026-05-03T15:21:21.905Z</time></trkpt><trkpt lat="50.948204613227716" lon="11.745860703995975"><ele>228.0</ele><time>2026-05-03T15:21:22.905Z</time></trkpt><trkpt lat="50.9483006266071" lon="11.74601802938566"><ele>229.25</ele><time>2026-05-03T15:21:23.905Z</time></trkpt><trkpt lat="50.948394818092915" lon="11.746194806481459"><ele>230.5</ele><time>2026-05-03T15:21:24.905Z</time></trkpt><trkpt lat="50.948487510025764" lon="11.746379550283224"><ele>231.75</ele><time>2026-05-03T15:21:25.905Z</time></trkpt><trkpt lat="50.94857579398943" lon="11.746572112283388"><ele>233.0</ele><time>2026-05-03T15:21:26.905Z</time></trkpt><trkpt lat="50.94866238323205" lon="11.746787167838207"><ele>232.5</ele><time>2026-05-03T15:21:27.905Z</time></trkpt><trkpt lat="50.94873776658065" lon="11.746984056940192"><ele>232.0</ele><time>2026-05-03T15:21:28.905Z</time></trkpt><trkpt lat="50.948818137212946" lon="11.747161616569436"><ele>231.5</ele><time>2026-05-03T15:21:29.905Z</time></trkpt><trkpt lat="50.94890783526805" lon="11.747334364623203"><ele>231.0</ele><time>2026-05-03T15:21:30.905Z</time></trkpt><trkpt lat="50.9489864502032" lon="11.74748983034507"><ele>231.0</ele><time>2026-05-03T15:21:31.905Z</time></trkpt><trkpt lat="50.94906356596534" lon="11.747623730182143"><ele>231.0</ele><time>2026-05-03T15:21:32.905Z</time></trkpt><trkpt lat="50.94913856790354" lon="11.747742304763788"><ele>231.0</ele><time>2026-05-03T15:21:33.905Z</time></trkpt><trkpt lat="50.94922315596398" lon="11.747863929574603"><ele>231.0</ele><time>2026-05-03T15:21:34.905Z</time></trkpt><trkpt lat="50.94931115415629" lon="11.748003515496341"><ele>231.75</ele><time>2026-05-03T15:21:35.905Z</time></trkpt><trkpt lat="50.949407693013946" lon="11.748156607771113"><ele>232.5</ele><time>2026-05-03T15:21:36.905Z</time></trkpt><trkpt lat="50.94950345607451" lon="11.748306706893354"><ele>233.25</ele><time>2026-05-03T15:21:37.905Z</time></trkpt><trkpt lat="50.949594716672024" lon="11.748437309859414"><ele>234.0</ele><time>2026-05-03T15:21:38.904Z</time></trkpt><trkpt lat="50.949671934811995" lon="11.748565745993204"><ele>234.2</ele><time>2026-05-03T15:21:39.904Z</time></trkpt><trkpt lat="50.9497201153769" lon="11.748688610637164"><ele>234.39999999999998</ele><time>2026-05-03T15:21:40.905Z</time></trkpt><trkpt lat="50.94977895827134" lon="11.74882869970113"><ele>234.6</ele><time>2026-05-03T15:21:41.905Z</time></trkpt><trkpt lat="50.94984941400111" lon="11.748931054298017"><ele>234.8</ele><time>2026-05-03T15:21:42.905Z</time></trkpt><trkpt lat="50.949910205010156" lon="11.749016450673098"><ele>235.0</ele><time>2026-05-03T15:21:43.905Z</time></trkpt><trkpt lat="50.94999782638401" lon="11.74908919382719"><ele>236.0</ele><time>2026-05-03T15:21:44.905Z</time></trkpt><trkpt lat="50.95009397552069" lon="11.749167973742907"><ele>237.0</ele><time>2026-05-03T15:21:45.905Z</time></trkpt><trkpt lat="50.95017985836691" lon="11.749227268032877"><ele>238.0</ele><time>2026-05-03T15:21:46.904Z</time></trkpt><trkpt lat="50.95023722844375" lon="11.749289605314583"><ele>239.0</ele><time>2026-05-03T15:21:47.905Z</time></trkpt><trkpt lat="50.95029927406065" lon="11.749463613484549"><ele>240.0</ele><time>2026-05-03T15:21:49.904Z</time></trkpt><trkpt lat="50.950342817675555" lon="11.749609733848754"><ele>240.0</ele><time>2026-05-03T15:21:51.904Z</time></trkpt><trkpt lat="50.950440745401046" lon="11.749632738154949"><ele>240.0</ele><time>2026-05-03T15:21:53.904Z</time></trkpt><trkpt lat="50.95049637021909" lon="11.749583558284797"><ele>240.0</ele><time>2026-05-03T15:21:54.904Z</time></trkpt><trkpt lat="50.95055037103399" lon="11.749509216215076"><ele>240.0</ele><time>2026-05-03T15:21:55.904Z</time></trkpt><trkpt lat="50.95061001070851" lon="11.749406634094997"><ele>240.0</ele><time>2026-05-03T15:21:56.904Z</time></trkpt><trkpt lat="50.95069288328081" lon="11.749293946991873"><ele>240.0</ele><time>2026-05-03T15:21:57.904Z</time></trkpt><trkpt lat="50.95080071772884" lon="11.749164012357987"><ele>241.75</ele><time>2026-05-03T15:21:58.904Z</time></trkpt><trkpt lat="50.95090382818941" lon="11.749041595073104"><ele>243.5</ele><time>2026-05-03T15:21:59.904Z</time></trkpt><trkpt lat="50.951009281026884" lon="11.748906897125007"><ele>245.25</ele><time>2026-05-03T15:22:00.904Z</time></trkpt><trkpt lat="50.95111222397633" lon="11.748783678847138"><ele>247.0</ele><time>2026-05-03T15:22:01.904Z</time></trkpt><trkpt lat="50.951208235812935" lon="11.748671353007715"><ele>247.0</ele><time>2026-05-03T15:22:02.904Z</time></trkpt><trkpt lat="50.951310335773" lon="11.748564326980773"><ele>247.0</ele><time>2026-05-03T15:22:03.904Z</time></trkpt><trkpt lat="50.951402589264454" lon="11.748466812277286"><ele>247.0</ele><time>2026-05-03T15:22:04.904Z</time></trkpt><trkpt lat="50.95148113563378" lon="11.748381207780623"><ele>247.0</ele><time>2026-05-03T15:22:05.904Z</time></trkpt><trkpt lat="50.951550105462466" lon="11.748314199897662"><ele>247.0</ele><time>2026-05-03T15:22:06.904Z</time></trkpt><trkpt lat="50.95162681399409" lon="11.748260680399556"><ele>247.83333333333331</ele><time>2026-05-03T15:22:07.904Z</time></trkpt><trkpt lat="50.95170898287861" lon="11.748213228097466"><ele>248.66666666666666</ele><time>2026-05-03T15:22:08.904Z</time></trkpt><trkpt lat="50.95179603523711" lon="11.74817303253625"><ele>249.5</ele><time>2026-05-03T15:22:09.904Z</time></trkpt><trkpt lat="50.951872637782664" lon="11.748156568365241"><ele>250.33333333333331</ele><time>2026-05-03T15:22:10.904Z</time></trkpt><trkpt lat="50.951960453588754" lon="11.748155096973004"><ele>251.16666666666666</ele><time>2026-05-03T15:22:11.904Z</time></trkpt><trkpt lat="50.95205434782017" lon="11.748166151843524"><ele>252.0</ele><time>2026-05-03T15:22:12.904Z</time></trkpt><trkpt lat="50.95216456244045" lon="11.748186110877677"><ele>252.0</ele><time>2026-05-03T15:22:13.904Z</time></trkpt><trkpt lat="50.95227902540219" lon="11.748206465380516"><ele>252.0</ele><time>2026-05-03T15:22:14.904Z</time></trkpt><trkpt lat="50.95240187086561" lon="11.7482187715102"><ele>252.0</ele><time>2026-05-03T15:22:15.904Z</time></trkpt><trkpt lat="50.95252644437003" lon="11.74821475539911"><ele>252.0</ele><time>2026-05-03T15:22:16.904Z</time></trkpt><trkpt lat="50.95264075774208" lon="11.748204589572124"><ele>253.6</ele><time>2026-05-03T15:22:17.904Z</time></trkpt><trkpt lat="50.95274602283272" lon="11.748194479129623"><ele>255.2</ele><time>2026-05-03T15:22:18.904Z</time></trkpt><trkpt lat="50.952854217346946" lon="11.748195049038143"><ele>256.8</ele><time>2026-05-03T15:22:19.904Z</time></trkpt><trkpt lat="50.95296278146687" lon="11.748196126144567"><ele>258.4</ele><time>2026-05-03T15:22:20.904Z</time></trkpt><trkpt lat="50.953072437838124" lon="11.748200881994297"><ele>260.0</ele><time>2026-05-03T15:22:21.904Z</time></trkpt><trkpt lat="50.95318806129499" lon="11.74821105412184"><ele>260.0</ele><time>2026-05-03T15:22:22.904Z</time></trkpt><trkpt lat="50.95331244101968" lon="11.74820798314504"><ele>260.0</ele><time>2026-05-03T15:22:23.904Z</time></trkpt><trkpt lat="50.953429777686566" lon="11.748198008802213"><ele>260.0</ele><time>2026-05-03T15:22:24.904Z</time></trkpt><trkpt lat="50.953536833856944" lon="11.748176190959196"><ele>260.0</ele><time>2026-05-03T15:22:25.904Z</time></trkpt><trkpt lat="50.95363850300671" lon="11.748158642346093"><ele>261.4</ele><time>2026-05-03T15:22:26.904Z</time></trkpt><trkpt lat="50.953736912532996" lon="11.748151472398597"><ele>262.8</ele><time>2026-05-03T15:22:27.904Z</time></trkpt><trkpt lat="50.953851102109" lon="11.748155303507941"><ele>264.2</ele><time>2026-05-03T15:22:28.904Z</time></trkpt><trkpt lat="50.95396222617143" lon="11.748161967242424"><ele>265.6</ele><time>2026-05-03T15:22:29.904Z</time></trkpt><trkpt lat="50.954087159771454" lon="11.748156009266136"><ele>267.0</ele><time>2026-05-03T15:22:30.904Z</time></trkpt><trkpt lat="50.95420636512547" lon="11.748141202357232"><ele>268.25</ele><time>2026-05-03T15:22:31.904Z</time></trkpt><trkpt lat="50.954329016521015" lon="11.74813048203203"><ele>269.5</ele><time>2026-05-03T15:22:32.904Z</time></trkpt><trkpt lat="50.95445446927692" lon="11.748114088690107"><ele>270.75</ele><time>2026-05-03T15:22:33.904Z</time></trkpt><trkpt lat="50.95457233652494" lon="11.748092725276033"><ele>272.0</ele><time>2026-05-03T15:22:34.904Z</time></trkpt><trkpt lat="50.95468624873004" lon="11.748082723358712"><ele>272.0</ele><time>2026-05-03T15:22:35.904Z</time></trkpt><trkpt lat="50.954789135323864" lon="11.748061025572435"><ele>272.0</ele><time>2026-05-03T15:22:36.904Z</time></trkpt><trkpt lat="50.954884695404964" lon="11.748025989456691"><ele>272.0</ele><time>2026-05-03T15:22:37.904Z</time></trkpt><trkpt lat="50.95495643748974" lon="11.748002286779338"><ele>272.0</ele><time>2026-05-03T15:22:38.904Z</time></trkpt><trkpt lat="50.95504184292093" lon="11.74794794649061"><ele>272.0</ele><time>2026-05-03T15:22:40.904Z</time></trkpt><trkpt lat="50.95512115773526" lon="11.747864814538401"><ele>272.4</ele><time>2026-05-03T15:22:43.904Z</time></trkpt><trkpt lat="50.955196529867614" lon="11.747779322269464"><ele>272.79999999999995</ele><time>2026-05-03T15:22:45.904Z</time></trkpt><trkpt lat="50.95527810705863" lon="11.747662108890419"><ele>273.2</ele><time>2026-05-03T15:22:47.904Z</time></trkpt><trkpt lat="50.95535654482494" lon="11.747503390233227"><ele>273.59999999999997</ele><time>2026-05-03T15:22:49.904Z</time></trkpt><trkpt lat="50.955411235913765" lon="11.747399318632745"><ele>274.0</ele><time>2026-05-03T15:22:50.904Z</time></trkpt><trkpt lat="50.955476370781106" lon="11.747272824210118"><ele>274.0</ele><time>2026-05-03T15:22:51.904Z</time></trkpt><trkpt lat="50.95555350174141" lon="11.747126094253764"><ele>274.0</ele><time>2026-05-03T15:22:52.904Z</time></trkpt><trkpt lat="50.95561575880684" lon="11.74701451245234"><ele>274.0</ele><time>2026-05-03T15:22:53.904Z</time></trkpt><trkpt lat="50.95566768970761" lon="11.746927690466233"><ele>274.0</ele><time>2026-05-03T15:22:54.904Z</time></trkpt><trkpt lat="50.955774854800275" lon="11.746809258697931"><ele>274.0</ele><time>2026-05-03T15:22:56.904Z</time></trkpt><trkpt lat="50.95585586657799" lon="11.746750297610554"><ele>275.0</ele><time>2026-05-03T15:22:57.904Z</time></trkpt><trkpt lat="50.95594953065395" lon="11.74668888146862"><ele>276.0</ele><time>2026-05-03T15:22:58.904Z</time></trkpt><trkpt lat="50.95603647773743" lon="11.74664367481203"><ele>277.0</ele><time>2026-05-03T15:22:59.904Z</time></trkpt><trkpt lat="50.956124133968" lon="11.74660830943616"><ele>278.0</ele><time>2026-05-03T15:23:00.904Z</time></trkpt><trkpt lat="50.95623161165614" lon="11.74661811834959"><ele>279.0</ele><time>2026-05-03T15:23:01.904Z</time></trkpt><trkpt lat="50.95633242149706" lon="11.746554342485688"><ele>279.0</ele><time>2026-05-03T15:23:02.904Z</time></trkpt><trkpt lat="50.95642945610197" lon="11.7464535256533"><ele>279.0</ele><time>2026-05-03T15:23:03.904Z</time></trkpt><trkpt lat="50.95654123166925" lon="11.746319438341898"><ele>279.0</ele><time>2026-05-03T15:23:04.904Z</time></trkpt><trkpt lat="50.95664873567367" lon="11.746158599343197"><ele>279.0</ele><time>2026-05-03T15:23:05.904Z</time></trkpt><trkpt lat="50.95675663734481" lon="11.74599220248092"><ele>279.25</ele><time>2026-05-03T15:23:06.904Z</time></trkpt><trkpt lat="50.95685373742957" lon="11.745839064361"><ele>279.5</ele><time>2026-05-03T15:23:07.904Z</time></trkpt><trkpt lat="50.95694133715795" lon="11.745717695058147"><ele>279.75</ele><time>2026-05-03T15:23:08.904Z</time></trkpt><trkpt lat="50.95703054203362" lon="11.745628193662965"><ele>280.0</ele><time>2026-05-03T15:23:09.904Z</time></trkpt><trkpt lat="50.95710892529993" lon="11.74554417693333"><ele>280.0</ele><time>2026-05-03T15:23:10.904Z</time></trkpt><trkpt lat="50.957183439147535" lon="11.745454956027357"><ele>280.0</ele><time>2026-05-03T15:23:11.904Z</time></trkpt><trkpt lat="50.957283240702324" lon="11.745404875185397"><ele>280.0</ele><time>2026-05-03T15:23:12.904Z</time></trkpt><trkpt lat="50.95737982281531" lon="11.745366940577856"><ele>280.0</ele><time>2026-05-03T15:23:13.904Z</time></trkpt><trkpt lat="50.95750387970087" lon="11.745335733196447"><ele>280.0</ele><time>2026-05-03T15:23:14.904Z</time></trkpt><trkpt lat="50.95761370683243" lon="11.745306603766682"><ele>278.66666666666663</ele><time>2026-05-03T15:23:15.904Z</time></trkpt><trkpt lat="50.957714998391666" lon="11.745291576824824"><ele>277.3333333333333</ele><time>2026-05-03T15:23:16.904Z</time></trkpt><trkpt lat="50.957786868701476" lon="11.745295370102326"><ele>276.0</ele><time>2026-05-03T15:23:17.904Z</time></trkpt><trkpt lat="50.95785757449956" lon="11.745320258436784"><ele>274.6666666666667</ele><time>2026-05-03T15:23:18.904Z</time></trkpt><trkpt lat="50.95793279846024" lon="11.745359385092168"><ele>273.33333333333337</ele><time>2026-05-03T15:23:19.904Z</time></trkpt><trkpt lat="50.95803410721176" lon="11.745444285676385"><ele>272.0</ele><time>2026-05-03T15:23:20.904Z</time></trkpt><trkpt lat="50.958155144247016" lon="11.74552221577894"><ele>272.0</ele><time>2026-05-03T15:23:21.904Z</time></trkpt><trkpt lat="50.95826206387128" lon="11.745605457528036"><ele>272.0</ele><time>2026-05-03T15:23:22.904Z</time></trkpt><trkpt lat="50.958361202398855" lon="11.745675624718775"><ele>272.0</ele><time>2026-05-03T15:23:23.904Z</time></trkpt><trkpt lat="50.95845216112612" lon="11.745744912545929"><ele>272.0</ele><time>2026-05-03T15:23:24.904Z</time></trkpt><trkpt lat="50.9585388838675" lon="11.745797101570492"><ele>272.0</ele><time>2026-05-03T15:23:25.904Z</time></trkpt><trkpt lat="50.95862032281778" lon="11.74584153671068"><ele>271.33333333333337</ele><time>2026-05-03T15:23:26.904Z</time></trkpt><trkpt lat="50.95869541033773" lon="11.745898098769077"><ele>270.6666666666667</ele><time>2026-05-03T15:23:27.904Z</time></trkpt><trkpt lat="50.95876372529662" lon="11.745947825440544"><ele>270.0</ele><time>2026-05-03T15:23:28.904Z</time></trkpt><trkpt lat="50.958828371210046" lon="11.74599630351068"><ele>269.3333333333333</ele><time>2026-05-03T15:23:29.904Z</time></trkpt><trkpt lat="50.95889833383569" lon="11.74606667796782"><ele>268.66666666666663</ele><time>2026-05-03T15:23:30.904Z</time></trkpt><trkpt lat="50.95899003124386" lon="11.746150857186501"><ele>268.0</ele><time>2026-05-03T15:23:31.904Z</time></trkpt><trkpt lat="50.959093745270685" lon="11.746254344700459"><ele>268.0</ele><time>2026-05-03T15:23:32.904Z</time></trkpt><trkpt lat="50.95918695763214" lon="11.746336185364235"><ele>268.0</ele><time>2026-05-03T15:23:33.904Z</time></trkpt><trkpt lat="50.95927234755059" lon="11.746407580153965"><ele>268.0</ele><time>2026-05-03T15:23:34.904Z</time></trkpt><trkpt lat="50.959349079395736" lon="11.746459052531568"><ele>268.0</ele><time>2026-05-03T15:23:35.904Z</time></trkpt><trkpt lat="50.95941604060471" lon="11.746511636258601"><ele>268.0</ele><time>2026-05-03T15:23:36.904Z</time></trkpt><trkpt lat="50.95953638021065" lon="11.74649387314419"><ele>263.8</ele><time>2026-05-03T15:23:38.904Z</time></trkpt><trkpt lat="50.95967609117348" lon="11.746457629584585"><ele>259.6</ele><time>2026-05-03T15:23:40.904Z</time></trkpt><trkpt lat="50.959758400544096" lon="11.746383682723923"><ele>255.39999999999998</ele><time>2026-05-03T15:23:41.904Z</time></trkpt><trkpt lat="50.95982691052903" lon="11.746315829891214"><ele>251.2</ele><time>2026-05-03T15:23:42.904Z</time></trkpt><trkpt lat="50.95988955605759" lon="11.746223706594606"><ele>247.0</ele><time>2026-05-03T15:23:43.903Z</time></trkpt><trkpt lat="50.95996148118545" lon="11.746171907188266"><ele>246.99999999999997</ele><time>2026-05-03T15:23:44.903Z</time></trkpt><trkpt lat="50.960022063228024" lon="11.746101930325194"><ele>247.0</ele><time>2026-05-03T15:23:45.903Z</time></trkpt><trkpt lat="50.96006997423446" lon="11.74601878569486"><ele>247.0</ele><time>2026-05-03T15:23:46.903Z</time></trkpt><trkpt lat="50.960159354997984" lon="11.745916441015039"><ele>247.0</ele><time>2026-05-03T15:23:48.902Z</time></trkpt><trkpt lat="50.96024508551534" lon="11.745806083107258"><ele>246.99999999999997</ele><time>2026-05-03T15:23:50.902Z</time></trkpt><trkpt lat="50.96031178332435" lon="11.745749347571667"><ele>247.0</ele><time>2026-05-03T15:23:54.902Z</time></trkpt><trkpt lat="50.96048849513593" lon="11.746070403830279"><ele>246.39999999999998</ele><time>2026-05-03T15:23:59.902Z</time></trkpt><trkpt lat="50.960538819573024" lon="11.746176094148177"><ele>245.79999999999998</ele><time>2026-05-03T15:24:00.902Z</time></trkpt><trkpt lat="50.96061172053189" lon="11.74628051885446"><ele>245.2</ele><time>2026-05-03T15:24:01.902Z</time></trkpt><trkpt lat="50.96067935496519" lon="11.746411933598475"><ele>244.6</ele><time>2026-05-03T15:24:02.902Z</time></trkpt><trkpt lat="50.9607556861995" lon="11.746530148378634"><ele>244.0</ele><time>2026-05-03T15:24:03.902Z</time></trkpt><trkpt lat="50.96084662472628" lon="11.746662485888313"><ele>244.5</ele><time>2026-05-03T15:24:04.902Z</time></trkpt><trkpt lat="50.96093783043555" lon="11.746798528921014"><ele>245.0</ele><time>2026-05-03T15:24:05.902Z</time></trkpt><trkpt lat="50.96102240622429" lon="11.746922913806094"><ele>245.5</ele><time>2026-05-03T15:24:06.902Z</time></trkpt><trkpt lat="50.96110487486982" lon="11.747039631905352"><ele>246.0</ele><time>2026-05-03T15:24:07.902Z</time></trkpt><trkpt lat="50.961184551114435" lon="11.747159572345204"><ele>247.0</ele><time>2026-05-03T15:24:08.902Z</time></trkpt><trkpt lat="50.96126255374359" lon="11.747252146611865"><ele>248.0</ele><time>2026-05-03T15:24:09.902Z</time></trkpt><trkpt lat="50.96130851253367" lon="11.747325074149641"><ele>249.0</ele><time>2026-05-03T15:24:10.902Z</time></trkpt><trkpt lat="50.961352154586656" lon="11.747471678567663"><ele>250.0</ele><time>2026-05-03T15:24:12.902Z</time></trkpt><trkpt lat="50.961350276938205" lon="11.747584007305091"><ele>251.0</ele><time>2026-05-03T15:24:13.902Z</time></trkpt><trkpt lat="50.96133956203573" lon="11.747729463502296"><ele>252.0</ele><time>2026-05-03T15:24:14.902Z</time></trkpt><trkpt lat="50.961315791185335" lon="11.747857101153514"><ele>253.0</ele><time>2026-05-03T15:24:15.902Z</time></trkpt><trkpt lat="50.961283121583726" lon="11.748008025589794"><ele>254.0</ele><time>2026-05-03T15:24:16.902Z</time></trkpt><trkpt lat="50.961257249099944" lon="11.748163832647819"><ele>255.0</ele><time>2026-05-03T15:24:17.902Z</time></trkpt><trkpt lat="50.96124467515051" lon="11.748331787827546"><ele>256.0</ele><time>2026-05-03T15:24:18.902Z</time></trkpt><trkpt lat="50.96122720493575" lon="11.74851022195614"><ele>257.0</ele><time>2026-05-03T15:24:19.902Z</time></trkpt><trkpt lat="50.96120809324644" lon="11.748677693870444"><ele>257.75</ele><time>2026-05-03T15:24:20.902Z</time></trkpt><trkpt lat="50.961189242912326" lon="11.748843558466127"><ele>258.5</ele><time>2026-05-03T15:24:21.902Z</time></trkpt><trkpt lat="50.961172172149425" lon="11.74900896863488"><ele>259.25</ele><time>2026-05-03T15:24:22.902Z</time></trkpt><trkpt lat="50.96115912742862" lon="11.749189593466939"><ele>260.0</ele><time>2026-05-03T15:24:23.902Z</time></trkpt><trkpt lat="50.961139796188824" lon="11.749388945742933"><ele>261.5</ele><time>2026-05-03T15:24:24.902Z</time></trkpt><trkpt lat="50.961130312533214" lon="11.749591790041022"><ele>263.0</ele><time>2026-05-03T15:24:25.902Z</time></trkpt><trkpt lat="50.96111486170567" lon="11.749790569115955"><ele>264.5</ele><time>2026-05-03T15:24:26.902Z</time></trkpt><trkpt lat="50.961106116165396" lon="11.74997730540506"><ele>266.0</ele><time>2026-05-03T15:24:27.902Z</time></trkpt><trkpt lat="50.96109682221922" lon="11.750162259507581"><ele>266.8</ele><time>2026-05-03T15:24:28.902Z</time></trkpt><trkpt lat="50.96108500071675" lon="11.750322517038182"><ele>267.6</ele><time>2026-05-03T15:24:29.902Z</time></trkpt><trkpt lat="50.961072317801644" lon="11.750492212604199"><ele>268.4</ele><time>2026-05-03T15:24:30.902Z</time></trkpt><trkpt lat="50.96107154703536" lon="11.750647688949877"><ele>269.2</ele><time>2026-05-03T15:24:31.902Z</time></trkpt><trkpt lat="50.9610661347108" lon="11.75078384834371"><ele>270.0</ele><time>2026-05-03T15:24:32.902Z</time></trkpt><trkpt lat="50.96106186849246" lon="11.750898786144486"><ele>270.0</ele><time>2026-05-03T15:24:33.902Z</time></trkpt><trkpt lat="50.961059870053894" lon="11.751007194177813"><ele>270.0</ele><time>2026-05-03T15:24:34.902Z</time></trkpt><trkpt lat="50.961052910046455" lon="11.751110915254557"><ele>270.0</ele><time>2026-05-03T15:24:35.902Z</time></trkpt><trkpt lat="50.96101799057055" lon="11.751267591982298"><ele>270.0</ele><time>2026-05-03T15:24:37.902Z</time></trkpt><trkpt lat="50.9610168838241" lon="11.751379581508083"><ele>270.0</ele><time>2026-05-03T15:24:39.902Z</time></trkpt><trkpt lat="50.96103659129299" lon="11.75147797577004"><ele>270.0</ele><time>2026-05-03T15:24:41.902Z</time></trkpt><trkpt lat="50.961056174497756" lon="11.751617709997248"><ele>271.1666666666667</ele><time>2026-05-03T15:24:43.902Z</time></trkpt><trkpt lat="50.96106162650434" lon="11.751825515628097"><ele>272.3333333333333</ele><time>2026-05-03T15:24:45.902Z</time></trkpt><trkpt lat="50.96107311926006" lon="11.751945241212596"><ele>273.5</ele><time>2026-05-03T15:24:46.902Z</time></trkpt><trkpt lat="50.96107354213753" lon="11.752052762083261"><ele>274.66666666666663</ele><time>2026-05-03T15:24:47.902Z</time></trkpt><trkpt lat="50.961081223357475" lon="11.752170598405655"><ele>275.8333333333333</ele><time>2026-05-03T15:24:48.902Z</time></trkpt><trkpt lat="50.961088379655685" lon="11.752292584979898"><ele>277.0</ele><time>2026-05-03T15:24:49.902Z</time></trkpt><trkpt lat="50.96108238529549" lon="11.752427742175028"><ele>277.8333333333333</ele><time>2026-05-03T15:24:50.902Z</time></trkpt><trkpt lat="50.961079508831986" lon="11.752564221438996"><ele>278.66666666666663</ele><time>2026-05-03T15:24:51.902Z</time></trkpt><trkpt lat="50.961087614771394" lon="11.752678777630058"><ele>279.5</ele><time>2026-05-03T15:24:52.902Z</time></trkpt><trkpt lat="50.96108419876978" lon="11.752804911384251"><ele>280.3333333333333</ele><time>2026-05-03T15:24:53.902Z</time></trkpt><trkpt lat="50.96109560203159" lon="11.752914361565676"><ele>281.1666666666667</ele><time>2026-05-03T15:24:54.902Z</time></trkpt><trkpt lat="50.96108829706623" lon="11.753016402424397"><ele>282.0</ele><time>2026-05-03T15:24:55.902Z</time></trkpt><trkpt lat="50.96108431910174" lon="11.753209708583187"><ele>283.1666666666667</ele><time>2026-05-03T15:24:57.902Z</time></trkpt><trkpt lat="50.961087796214414" lon="11.753331079419812"><ele>284.3333333333333</ele><time>2026-05-03T15:24:58.902Z</time></trkpt><trkpt lat="50.961105613216255" lon="11.75343071586562"><ele>285.5</ele><time>2026-05-03T15:24:59.902Z</time></trkpt><trkpt lat="50.96112195703218" lon="11.753592875568042"><ele>286.66666666666663</ele><time>2026-05-03T15:25:01.902Z</time></trkpt><trkpt lat="50.96113609805732" lon="11.753702938850045"><ele>287.8333333333333</ele><time>2026-05-03T15:25:02.902Z</time></trkpt><trkpt lat="50.96113434301574" lon="11.753817659864442"><ele>289.0</ele><time>2026-05-03T15:25:03.902Z</time></trkpt><trkpt lat="50.961159450702745" lon="11.754028195869942"><ele>290.16666666666663</ele><time>2026-05-03T15:25:05.902Z</time></trkpt><trkpt lat="50.96116359975183" lon="11.754134358229374"><ele>291.3333333333333</ele><time>2026-05-03T15:25:06.902Z</time></trkpt><trkpt lat="50.96117539780771" lon="11.754237097278166"><ele>292.5</ele><time>2026-05-03T15:25:07.902Z</time></trkpt><trkpt lat="50.96122373384006" lon="11.754418526932657"><ele>293.6666666666667</ele><time>2026-05-03T15:25:09.902Z</time></trkpt><trkpt lat="50.96128451072814" lon="11.75457466219769"><ele>294.83333333333337</ele><time>2026-05-03T15:25:11.902Z</time></trkpt><trkpt lat="50.96133915834126" lon="11.754655150913552"><ele>296.0</ele><time>2026-05-03T15:25:12.902Z</time></trkpt><trkpt lat="50.96139637451816" lon="11.754756510875618"><ele>297.83333333333337</ele><time>2026-05-03T15:25:13.902Z</time></trkpt><trkpt lat="50.961453873321254" lon="11.754834571571346"><ele>299.6666666666667</ele><time>2026-05-03T15:25:14.902Z</time></trkpt><trkpt lat="50.9615169508619" lon="11.754927767640314"><ele>301.5</ele><time>2026-05-03T15:25:15.902Z</time></trkpt><trkpt lat="50.96159120184652" lon="11.755005191160524"><ele>303.3333333333333</ele><time>2026-05-03T15:25:16.902Z</time></trkpt><trkpt lat="50.96165804048709" lon="11.755079007447874"><ele>305.16666666666663</ele><time>2026-05-03T15:25:17.902Z</time></trkpt><trkpt lat="50.96171196049405" lon="11.755157203526634"><ele>307.0</ele><time>2026-05-03T15:25:18.902Z</time></trkpt><trkpt lat="50.96176342659173" lon="11.755226182794626"><ele>309.0</ele><time>2026-05-03T15:25:19.902Z</time></trkpt><trkpt lat="50.9618029957734" lon="11.755331112585118"><ele>311.0</ele><time>2026-05-03T15:25:20.902Z</time></trkpt><trkpt lat="50.961877481558375" lon="11.755456095063176"><ele>313.0</ele><time>2026-05-03T15:25:21.902Z</time></trkpt><trkpt lat="50.96195386813878" lon="11.755585342692846"><ele>315.0</ele><time>2026-05-03T15:25:22.902Z</time></trkpt><trkpt lat="50.96202016505566" lon="11.755708558274378"><ele>317.0</ele><time>2026-05-03T15:25:23.902Z</time></trkpt><trkpt lat="50.9620871187818" lon="11.75581211672804"><ele>317.0</ele><time>2026-05-03T15:25:24.902Z</time></trkpt><trkpt lat="50.96215293593193" lon="11.75590604719627"><ele>317.0</ele><time>2026-05-03T15:25:25.902Z</time></trkpt><trkpt lat="50.962196432021216" lon="11.756022264521633"><ele>317.0</ele><time>2026-05-03T15:25:26.902Z</time></trkpt><trkpt lat="50.96222877341563" lon="11.756125958189635"><ele>317.0</ele><time>2026-05-03T15:25:27.902Z</time></trkpt><trkpt lat="50.962258943893644" lon="11.756219560475389"><ele>317.0</ele><time>2026-05-03T15:25:28.902Z</time></trkpt><trkpt lat="50.96230510888715" lon="11.756340918414516"><ele>317.0</ele><time>2026-05-03T15:25:29.902Z</time></trkpt><trkpt lat="50.96232055504284" lon="11.756473837148526"><ele>318.5</ele><time>2026-05-03T15:25:30.902Z</time></trkpt><trkpt lat="50.96233713839541" lon="11.756595969263355"><ele>320.0</ele><time>2026-05-03T15:25:31.902Z</time></trkpt><trkpt lat="50.9623528614002" lon="11.756712517854448"><ele>321.5</ele><time>2026-05-03T15:25:32.902Z</time></trkpt><trkpt lat="50.96236783908288" lon="11.756835837256926"><ele>323.0</ele><time>2026-05-03T15:25:33.902Z</time></trkpt><trkpt lat="50.962390250025784" lon="11.756983360718653"><ele>324.5</ele><time>2026-05-03T15:25:34.902Z</time></trkpt><trkpt lat="50.9624145733884" lon="11.757131194832898"><ele>326.0</ele><time>2026-05-03T15:25:35.902Z</time></trkpt><trkpt lat="50.962444636985275" lon="11.75727709280303"><ele>327.33333333333337</ele><time>2026-05-03T15:25:36.902Z</time></trkpt><trkpt lat="50.96245439483443" lon="11.757428003474796"><ele>328.6666666666667</ele><time>2026-05-03T15:25:37.902Z</time></trkpt><trkpt lat="50.962462211718886" lon="11.75754571402202"><ele>330.0</ele><time>2026-05-03T15:25:38.902Z</time></trkpt><trkpt lat="50.962470755964354" lon="11.757683639175232"><ele>331.3333333333333</ele><time>2026-05-03T15:25:39.902Z</time></trkpt><trkpt lat="50.96247465067055" lon="11.757831340055048"><ele>332.66666666666663</ele><time>2026-05-03T15:25:40.902Z</time></trkpt><trkpt lat="50.96248267415308" lon="11.757973589118812"><ele>334.0</ele><time>2026-05-03T15:25:41.902Z</time></trkpt><trkpt lat="50.96248899314202" lon="11.75807645662792"><ele>334.16666666666663</ele><time>2026-05-03T15:25:42.902Z</time></trkpt><trkpt lat="50.96251393739545" lon="11.75818425094585"><ele>334.3333333333333</ele><time>2026-05-03T15:25:43.902Z</time></trkpt><trkpt lat="50.96254433088955" lon="11.75837461266177"><ele>334.5</ele><time>2026-05-03T15:25:45.902Z</time></trkpt><trkpt lat="50.962587324025165" lon="11.758493787922955"><ele>334.6666666666667</ele><time>2026-05-03T15:25:46.902Z</time></trkpt><trkpt lat="50.96262304283767" lon="11.758580099634068"><ele>334.83333333333337</ele><time>2026-05-03T15:25:47.902Z</time></trkpt><trkpt lat="50.962694304199125" lon="11.758684011436767"><ele>335.0</ele><time>2026-05-03T15:25:49.901Z</time></trkpt><trkpt lat="50.96275380815991" lon="11.758726377021702"><ele>335.6</ele><time>2026-05-03T15:25:50.901Z</time></trkpt><trkpt lat="50.962817330880576" lon="11.758784571356152"><ele>336.2</ele><time>2026-05-03T15:25:51.901Z</time></trkpt><trkpt lat="50.962932734355896" lon="11.758873235279973"><ele>336.79999999999995</ele><time>2026-05-03T15:25:53.901Z</time></trkpt><trkpt lat="50.96305774806735" lon="11.758943636893983"><ele>337.4</ele><time>2026-05-03T15:25:55.901Z</time></trkpt><trkpt lat="50.96311956926309" lon="11.758967028757363"><ele>338.0</ele><time>2026-05-03T15:25:56.901Z</time></trkpt><trkpt lat="50.963239556872246" lon="11.758982179945624"><ele>338.0</ele><time>2026-05-03T15:25:58.901Z</time></trkpt><trkpt lat="50.96330761485973" lon="11.758970440267257"><ele>338.0</ele><time>2026-05-03T15:25:59.901Z</time></trkpt><trkpt lat="50.96342154710554" lon="11.758948882848369"><ele>338.0</ele><time>2026-05-03T15:26:01.901Z</time></trkpt><trkpt lat="50.96349405676389" lon="11.758927749206258"><ele>338.0</ele><time>2026-05-03T15:26:02.901Z</time></trkpt><trkpt lat="50.96356356989836" lon="11.758903778184498"><ele>338.0</ele><time>2026-05-03T15:26:03.901Z</time></trkpt><trkpt lat="50.96364207925438" lon="11.758879497648795"><ele>338.0</ele><time>2026-05-03T15:26:04.901Z</time></trkpt><trkpt lat="50.96372836756238" lon="11.758854412605874"><ele>339.0</ele><time>2026-05-03T15:26:05.901Z</time></trkpt><trkpt lat="50.963810663957474" lon="11.758826694178586"><ele>340.0</ele><time>2026-05-03T15:26:06.901Z</time></trkpt><trkpt lat="50.963911182359254" lon="11.758793434847517"><ele>341.0</ele><time>2026-05-03T15:26:07.901Z</time></trkpt><trkpt lat="50.963988696731306" lon="11.758778583623512"><ele>342.0</ele><time>2026-05-03T15:26:08.901Z</time></trkpt><trkpt lat="50.964071143302625" lon="11.75876188259972"><ele>343.0</ele><time>2026-05-03T15:26:09.901Z</time></trkpt><trkpt lat="50.964140171626944" lon="11.75874684156593"><ele>344.0</ele><time>2026-05-03T15:26:10.901Z</time></trkpt><trkpt lat="50.96420404025789" lon="11.758736694420527"><ele>344.00000000000006</ele><time>2026-05-03T15:26:11.901Z</time></trkpt><trkpt lat="50.964266267428414" lon="11.758708119384405"><ele>344.0</ele><time>2026-05-03T15:26:12.901Z</time></trkpt><trkpt lat="50.964333833566876" lon="11.758673452107008"><ele>344.0</ele><time>2026-05-03T15:26:13.901Z</time></trkpt><trkpt lat="50.9644039814896" lon="11.7586360875152"><ele>344.0</ele><time>2026-05-03T15:26:14.901Z</time></trkpt><trkpt lat="50.96447861922516" lon="11.758589697832019"><ele>344.0</ele><time>2026-05-03T15:26:15.901Z</time></trkpt><trkpt lat="50.96454438749787" lon="11.758579911341144"><ele>344.00000000000006</ele><time>2026-05-03T15:26:16.901Z</time></trkpt><trkpt lat="50.96462400237399" lon="11.758572269004159"><ele>344.0</ele><time>2026-05-03T15:26:17.901Z</time></trkpt><trkpt lat="50.9646961503693" lon="11.758578786109608"><ele>344.0</ele><time>2026-05-03T15:26:18.901Z</time></trkpt><trkpt lat="50.96479038985058" lon="11.75856182784796"><ele>344.0</ele><time>2026-05-03T15:26:20.901Z</time></trkpt><trkpt lat="50.9648668079001" lon="11.758565882340973"><ele>344.0</ele><time>2026-05-03T15:26:23.901Z</time></trkpt><trkpt lat="50.96493175150079" lon="11.758580200394732"><ele>344.0</ele><time>2026-05-03T15:26:26.9Z</time></trkpt><trkpt lat="50.96500618333785" lon="11.758662677125024"><ele>344.0</ele><time>2026-05-03T15:26:29.9Z</time></trkpt><trkpt lat="50.965059668782935" lon="11.758842159290602"><ele>343.4</ele><time>2026-05-03T15:26:31.9Z</time></trkpt><trkpt lat="50.96508779701747" lon="11.758976405166623"><ele>342.79999999999995</ele><time>2026-05-03T15:26:32.9Z</time></trkpt><trkpt lat="50.965108449328284" lon="11.759126176753421"><ele>342.20000000000005</ele><time>2026-05-03T15:26:33.9Z</time></trkpt><trkpt lat="50.96513469539234" lon="11.759290487210034"><ele>341.6</ele><time>2026-05-03T15:26:34.9Z</time></trkpt><trkpt lat="50.96515610512889" lon="11.7594637837058"><ele>341.0</ele><time>2026-05-03T15:26:35.9Z</time></trkpt><trkpt lat="50.965180387344596" lon="11.75964938775812"><ele>341.25</ele><time>2026-05-03T15:26:36.9Z</time></trkpt><trkpt lat="50.965205134106995" lon="11.759833583283614"><ele>341.5</ele><time>2026-05-03T15:26:37.9Z</time></trkpt><trkpt lat="50.96521299486421" lon="11.760017729833102"><ele>341.75</ele><time>2026-05-03T15:26:38.9Z</time></trkpt><trkpt lat="50.96522332525906" lon="11.760193871009632"><ele>342.0</ele><time>2026-05-03T15:26:39.9Z</time></trkpt><trkpt lat="50.965228326296966" lon="11.760379535326457"><ele>342.0</ele><time>2026-05-03T15:26:40.9Z</time></trkpt><trkpt lat="50.96522558841307" lon="11.76056563485558"><ele>342.0</ele><time>2026-05-03T15:26:41.9Z</time></trkpt><trkpt lat="50.965225162264595" lon="11.760766886747328"><ele>342.0</ele><time>2026-05-03T15:26:42.9Z</time></trkpt><trkpt lat="50.96522696933651" lon="11.760983606283478"><ele>342.0</ele><time>2026-05-03T15:26:43.9Z</time></trkpt><trkpt lat="50.9652274935209" lon="11.761182804097542"><ele>342.0</ele><time>2026-05-03T15:26:44.9Z</time></trkpt><trkpt lat="50.96522419449964" lon="11.761387476970027"><ele>342.0</ele><time>2026-05-03T15:26:45.9Z</time></trkpt><trkpt lat="50.965218194917746" lon="11.761593226990392"><ele>342.0</ele><time>2026-05-03T15:26:46.9Z</time></trkpt><trkpt lat="50.96520624240203" lon="11.76179654211559"><ele>342.0</ele><time>2026-05-03T15:26:47.9Z</time></trkpt><trkpt lat="50.965196422698384" lon="11.7620002159416"><ele>342.0</ele><time>2026-05-03T15:26:48.9Z</time></trkpt><trkpt lat="50.96518567572139" lon="11.76222340150962"><ele>342.0</ele><time>2026-05-03T15:26:49.9Z</time></trkpt><trkpt lat="50.965179968301314" lon="11.762449112642784"><ele>342.0</ele><time>2026-05-03T15:26:50.9Z</time></trkpt><trkpt lat="50.965187781000495" lon="11.76266256154005"><ele>342.0</ele><time>2026-05-03T15:26:51.9Z</time></trkpt><trkpt lat="50.965207663848226" lon="11.762870046419431"><ele>342.0</ele><time>2026-05-03T15:26:52.9Z</time></trkpt><trkpt lat="50.96523085589089" lon="11.763058490649893"><ele>342.0</ele><time>2026-05-03T15:26:53.9Z</time></trkpt><trkpt lat="50.96524904323566" lon="11.763231953618345"><ele>342.0</ele><time>2026-05-03T15:26:54.9Z</time></trkpt><trkpt lat="50.96527021401947" lon="11.763399909062422"><ele>342.0</ele><time>2026-05-03T15:26:55.9Z</time></trkpt><trkpt lat="50.96526903102348" lon="11.763541907283635"><ele>342.0</ele><time>2026-05-03T15:26:56.9Z</time></trkpt><trkpt lat="50.965238641295166" lon="11.763665757632324"><ele>342.0</ele><time>2026-05-03T15:26:57.9Z</time></trkpt><trkpt lat="50.96518904247592" lon="11.763785073782575"><ele>342.0</ele><time>2026-05-03T15:26:58.9Z</time></trkpt><trkpt lat="50.96512805325739" lon="11.763899336040165"><ele>342.0</ele><time>2026-05-03T15:26:59.9Z</time></trkpt><trkpt lat="50.96506428340319" lon="11.764004574812104"><ele>342.0</ele><time>2026-05-03T15:27:01.9Z</time></trkpt><trkpt lat="50.96504579625124" lon="11.764101845523449"><ele>342.0</ele><time>2026-05-03T15:27:04.9Z</time></trkpt><trkpt lat="50.965152241389696" lon="11.764137482584632"><ele>342.0</ele><time>2026-05-03T15:27:07.9Z</time></trkpt><trkpt lat="50.965222403195604" lon="11.764124486502594"><ele>342.0</ele><time>2026-05-03T15:27:08.9Z</time></trkpt><trkpt lat="50.96529832975227" lon="11.764145080571298"><ele>342.0</ele><time>2026-05-03T15:27:09.9Z</time></trkpt><trkpt lat="50.9653998262832" lon="11.764144802565944"><ele>342.0</ele><time>2026-05-03T15:27:10.9Z</time></trkpt><trkpt lat="50.96551219132119" lon="11.764103887540564"><ele>342.0</ele><time>2026-05-03T15:27:11.9Z</time></trkpt><trkpt lat="50.96563642020411" lon="11.764093860429465"><ele>342.0</ele><time>2026-05-03T15:27:12.9Z</time></trkpt><trkpt lat="50.965755572390734" lon="11.764064478445176"><ele>342.5</ele><time>2026-05-03T15:27:13.9Z</time></trkpt><trkpt lat="50.96588002327662" lon="11.764065358036307"><ele>343.0</ele><time>2026-05-03T15:27:14.9Z</time></trkpt><trkpt lat="50.966015611765044" lon="11.764056211581925"><ele>343.5</ele><time>2026-05-03T15:27:15.9Z</time></trkpt><trkpt lat="50.966161808734576" lon="11.76403551070559"><ele>344.0</ele><time>2026-05-03T15:27:16.9Z</time></trkpt><trkpt lat="50.96628748466337" lon="11.764006035632995"><ele>344.0</ele><time>2026-05-03T15:27:17.9Z</time></trkpt><trkpt lat="50.96642133562363" lon="11.763972698380137"><ele>344.0</ele><time>2026-05-03T15:27:18.9Z</time></trkpt><trkpt lat="50.96654571036304" lon="11.763961812484517"><ele>344.0</ele><time>2026-05-03T15:27:19.9Z</time></trkpt><trkpt lat="50.96667587998602" lon="11.763956160984051"><ele>344.0</ele><time>2026-05-03T15:27:20.9Z</time></trkpt><trkpt lat="50.96681111156787" lon="11.76394688556366"><ele>344.25</ele><time>2026-05-03T15:27:21.9Z</time></trkpt><trkpt lat="50.96693306752011" lon="11.763934720706613"><ele>344.5</ele><time>2026-05-03T15:27:22.9Z</time></trkpt><trkpt lat="50.967061509314085" lon="11.763935402013262"><ele>344.75</ele><time>2026-05-03T15:27:23.9Z</time></trkpt><trkpt lat="50.967198839082975" lon="11.763930789311603"><ele>345.0</ele><time>2026-05-03T15:27:24.9Z</time></trkpt><trkpt lat="50.967326696541775" lon="11.76391356186067"><ele>345.0</ele><time>2026-05-03T15:27:25.9Z</time></trkpt><trkpt lat="50.96745184047252" lon="11.763898337063535"><ele>345.0</ele><time>2026-05-03T15:27:26.9Z</time></trkpt><trkpt lat="50.96756286299952" lon="11.763901654117225"><ele>345.0</ele><time>2026-05-03T15:27:27.9Z</time></trkpt><trkpt lat="50.967695010933646" lon="11.763890556056733"><ele>345.0</ele><time>2026-05-03T15:27:28.9Z</time></trkpt><trkpt lat="50.967830277067044" lon="11.763909774485738"><ele>345.25</ele><time>2026-05-03T15:27:29.9Z</time></trkpt><trkpt lat="50.96795546703016" lon="11.76392039813117"><ele>345.5</ele><time>2026-05-03T15:27:30.9Z</time></trkpt><trkpt lat="50.96810457519104" lon="11.763935403102144"><ele>345.75</ele><time>2026-05-03T15:27:31.9Z</time></trkpt><trkpt lat="50.96825850168617" lon="11.763939856226061"><ele>346.0</ele><time>2026-05-03T15:27:32.9Z</time></trkpt><trkpt lat="50.968408668671465" lon="11.763944526625037"><ele>346.25</ele><time>2026-05-03T15:27:33.9Z</time></trkpt><trkpt lat="50.96855420255585" lon="11.763945626230427"><ele>346.5</ele><time>2026-05-03T15:27:34.9Z</time></trkpt><trkpt lat="50.968676638303286" lon="11.763946636343558"><ele>346.75</ele><time>2026-05-03T15:27:35.9Z</time></trkpt><trkpt lat="50.9687788180063" lon="11.76394745134057"><ele>347.0</ele><time>2026-05-03T15:27:36.9Z</time></trkpt><trkpt lat="50.968861611137285" lon="11.763960401964699"><ele>347.0</ele><time>2026-05-03T15:27:37.9Z</time></trkpt><trkpt lat="50.968941913531665" lon="11.763964182475265"><ele>347.0</ele><time>2026-05-03T15:27:38.9Z</time></trkpt><trkpt lat="50.96900742417229" lon="11.763958015095469"><ele>347.0</ele><time>2026-05-03T15:27:39.9Z</time></trkpt><trkpt lat="50.96912107453589" lon="11.763917231097226"><ele>347.0</ele><time>2026-05-03T15:27:41.9Z</time></trkpt><trkpt lat="50.9691829914076" lon="11.763855982132954"><ele>347.0</ele><time>2026-05-03T15:27:42.9Z</time></trkpt><trkpt lat="50.969257309472574" lon="11.763836082695073"><ele>347.0</ele><time>2026-05-03T15:27:43.9Z</time></trkpt><trkpt lat="50.96928268890135" lon="11.763650011844236"><ele>347.20000000000005</ele><time>2026-05-03T15:27:44.9Z</time></trkpt><trkpt lat="50.969319198263584" lon="11.763525511647165"><ele>347.4</ele><time>2026-05-03T15:27:45.9Z</time></trkpt><trkpt lat="50.96935490167305" lon="11.76338915020154"><ele>347.6</ele><time>2026-05-03T15:27:46.9Z</time></trkpt><trkpt lat="50.969386352867666" lon="11.763236737886201"><ele>347.79999999999995</ele><time>2026-05-03T15:27:47.9Z</time></trkpt><trkpt lat="50.969436696960045" lon="11.763094410978091"><ele>348.0</ele><time>2026-05-03T15:27:48.9Z</time></trkpt><trkpt lat="50.96945140546466" lon="11.762917129874008"><ele>348.0</ele><time>2026-05-03T15:27:49.9Z</time></trkpt><trkpt lat="50.96946637829891" lon="11.76275057566869"><ele>348.0</ele><time>2026-05-03T15:27:50.9Z</time></trkpt><trkpt lat="50.969485634184736" lon="11.762558016932665"><ele>348.0</ele><time>2026-05-03T15:27:51.9Z</time></trkpt><trkpt lat="50.96950445548297" lon="11.762369803846216"><ele>348.0</ele><time>2026-05-03T15:27:52.9Z</time></trkpt><trkpt lat="50.96952285525576" lon="11.762199124157627"><ele>348.0</ele><time>2026-05-03T15:27:53.9Z</time></trkpt><trkpt lat="50.96953442999294" lon="11.762052611360554"><ele>348.0</ele><time>2026-05-03T15:27:54.9Z</time></trkpt><trkpt lat="50.96955026224064" lon="11.761925003009782"><ele>348.0</ele><time>2026-05-03T15:27:55.9Z</time></trkpt><trkpt lat="50.96957648650091" lon="11.76178424497303"><ele>348.0</ele><time>2026-05-03T15:27:56.899Z</time></trkpt><trkpt lat="50.9695987448666" lon="11.76166046628384"><ele>348.0</ele><time>2026-05-03T15:27:57.899Z</time></trkpt><trkpt lat="50.96964693854076" lon="11.761537931926517"><ele>348.0</ele><time>2026-05-03T15:27:58.899Z</time></trkpt><trkpt lat="50.96968590451726" lon="11.76139480982446"><ele>348.0</ele><time>2026-05-03T15:27:59.899Z</time></trkpt><trkpt lat="50.96973120244668" lon="11.761245703034675"><ele>348.0</ele><time>2026-05-03T15:28:00.899Z</time></trkpt><trkpt lat="50.96977112591759" lon="11.761077356382575"><ele>348.0</ele><time>2026-05-03T15:28:01.899Z</time></trkpt><trkpt lat="50.96983747278665" lon="11.760885670513206"><ele>348.0</ele><time>2026-05-03T15:28:02.899Z</time></trkpt><trkpt lat="50.96991073939201" lon="11.760687124532812"><ele>348.0</ele><time>2026-05-03T15:28:03.899Z</time></trkpt><trkpt lat="50.96998214117051" lon="11.760481392203484"><ele>348.0</ele><time>2026-05-03T15:28:04.899Z</time></trkpt><trkpt lat="50.970060725562355" lon="11.760265708098146"><ele>348.0</ele><time>2026-05-03T15:28:05.899Z</time></trkpt><trkpt lat="50.9701416508353" lon="11.760058784551703"><ele>350.0</ele><time>2026-05-03T15:28:06.899Z</time></trkpt><trkpt lat="50.9702246026215" lon="11.759854908322566"><ele>352.0</ele><time>2026-05-03T15:28:07.899Z</time></trkpt><trkpt lat="50.97032404026037" lon="11.759675526547715"><ele>354.0</ele><time>2026-05-03T15:28:08.899Z</time></trkpt><trkpt lat="50.97041325979361" lon="11.759478129326164"><ele>354.0</ele><time>2026-05-03T15:28:09.899Z</time></trkpt><trkpt lat="50.97049702196724" lon="11.759271878399018"><ele>354.0</ele><time>2026-05-03T15:28:10.899Z</time></trkpt><trkpt lat="50.97057307872964" lon="11.759071462101485"><ele>354.0</ele><time>2026-05-03T15:28:11.899Z</time></trkpt><trkpt lat="50.97063390755334" lon="11.758857119762562"><ele>354.0</ele><time>2026-05-03T15:28:12.899Z</time></trkpt><trkpt lat="50.970721569124954" lon="11.758669689120197"><ele>354.0</ele><time>2026-05-03T15:28:13.899Z</time></trkpt><trkpt lat="50.97078420626889" lon="11.758481635588636"><ele>354.0</ele><time>2026-05-03T15:28:14.899Z</time></trkpt><trkpt lat="50.97084211794477" lon="11.758272623033664"><ele>354.0</ele><time>2026-05-03T15:28:15.899Z</time></trkpt><trkpt lat="50.97089289871401" lon="11.75806380494465"><ele>354.0</ele><time>2026-05-03T15:28:16.899Z</time></trkpt><trkpt lat="50.97093359409196" lon="11.757885077259578"><ele>354.0</ele><time>2026-05-03T15:28:17.899Z</time></trkpt><trkpt lat="50.97095690623393" lon="11.75769807871303"><ele>354.0</ele><time>2026-05-03T15:28:18.899Z</time></trkpt><trkpt lat="50.97099937745644" lon="11.757552700454296"><ele>354.0</ele><time>2026-05-03T15:28:19.899Z</time></trkpt><trkpt lat="50.97102710617213" lon="11.757411598337209"><ele>354.0</ele><time>2026-05-03T15:28:20.899Z</time></trkpt><trkpt lat="50.97106817328401" lon="11.757280680232196"><ele>354.0</ele><time>2026-05-03T15:28:21.899Z</time></trkpt><trkpt lat="50.97110152577159" lon="11.757140865359798"><ele>354.0</ele><time>2026-05-03T15:28:22.899Z</time></trkpt><trkpt lat="50.9711467439818" lon="11.756983487475887"><ele>354.0</ele><time>2026-05-03T15:28:23.899Z</time></trkpt><trkpt lat="50.971205988597774" lon="11.756813261014631"><ele>354.0</ele><time>2026-05-03T15:28:24.899Z</time></trkpt><trkpt lat="50.971268709936275" lon="11.756649386790858"><ele>354.0</ele><time>2026-05-03T15:28:25.899Z</time></trkpt><trkpt lat="50.97132494008259" lon="11.756493292786562"><ele>353.79999999999995</ele><time>2026-05-03T15:28:26.899Z</time></trkpt><trkpt lat="50.97137867842411" lon="11.756335102797355"><ele>353.59999999999997</ele><time>2026-05-03T15:28:27.899Z</time></trkpt><trkpt lat="50.971444962929446" lon="11.756195339699358"><ele>353.4</ele><time>2026-05-03T15:28:28.899Z</time></trkpt><trkpt lat="50.971495443372774" lon="11.756043029021791"><ele>353.2</ele><time>2026-05-03T15:28:29.899Z</time></trkpt><trkpt lat="50.97154187828141" lon="11.755902925904424"><ele>353.0</ele><time>2026-05-03T15:28:30.899Z</time></trkpt><trkpt lat="50.97159255730733" lon="11.755789370020823"><ele>353.0</ele><time>2026-05-03T15:28:31.899Z</time></trkpt><trkpt lat="50.97165163879634" lon="11.755703511583206"><ele>353.0</ele><time>2026-05-03T15:28:32.899Z</time></trkpt><trkpt lat="50.97170838247268" lon="11.75556248963701"><ele>353.0</ele><time>2026-05-03T15:28:33.899Z</time></trkpt><trkpt lat="50.97178753498745" lon="11.755453639444847"><ele>353.0</ele><time>2026-05-03T15:28:34.899Z</time></trkpt><trkpt lat="50.971850207590336" lon="11.755333370999482"><ele>353.0</ele><time>2026-05-03T15:28:35.899Z</time></trkpt><trkpt lat="50.97192776452454" lon="11.75518723064282"><ele>352.75</ele><time>2026-05-03T15:28:36.899Z</time></trkpt><trkpt lat="50.972002930496444" lon="11.75502943481197"><ele>352.5</ele><time>2026-05-03T15:28:37.899Z</time></trkpt><trkpt lat="50.97208475343152" lon="11.75489028689859"><ele>352.25</ele><time>2026-05-03T15:28:38.899Z</time></trkpt><trkpt lat="50.97217095424917" lon="11.75474282688615"><ele>352.0</ele><time>2026-05-03T15:28:39.899Z</time></trkpt><trkpt lat="50.97226157079098" lon="11.754584261160977"><ele>352.0</ele><time>2026-05-03T15:28:40.899Z</time></trkpt><trkpt lat="50.972349014108055" lon="11.754435717654141"><ele>352.0</ele><time>2026-05-03T15:28:41.899Z</time></trkpt><trkpt lat="50.972428584335766" lon="11.75429642634289"><ele>352.0</ele><time>2026-05-03T15:28:42.899Z</time></trkpt><trkpt lat="50.97249990747256" lon="11.75418492064458"><ele>352.0</ele><time>2026-05-03T15:28:43.899Z</time></trkpt><trkpt lat="50.97256843361139" lon="11.754070420026146"><ele>352.0</ele><time>2026-05-03T15:28:44.899Z</time></trkpt><trkpt lat="50.9726246334635" lon="11.753962286356565"><ele>351.6</ele><time>2026-05-03T15:28:45.899Z</time></trkpt><trkpt lat="50.97267827644311" lon="11.75387708804494"><ele>351.20000000000005</ele><time>2026-05-03T15:28:46.899Z</time></trkpt><trkpt lat="50.972737619045816" lon="11.753785215744712"><ele>350.8</ele><time>2026-05-03T15:28:47.899Z</time></trkpt><trkpt lat="50.97278865568675" lon="11.75368499542615"><ele>350.4</ele><time>2026-05-03T15:28:48.899Z</time></trkpt><trkpt lat="50.97287827526083" lon="11.753565751912149"><ele>350.0</ele><time>2026-05-03T15:28:49.899Z</time></trkpt><trkpt lat="50.97296221297157" lon="11.753430988766004"><ele>350.0</ele><time>2026-05-03T15:28:50.899Z</time></trkpt><trkpt lat="50.97303776780399" lon="11.753273242207108"><ele>350.0</ele><time>2026-05-03T15:28:51.899Z</time></trkpt><trkpt lat="50.97313725188009" lon="11.753135291417138"><ele>350.0</ele><time>2026-05-03T15:28:52.899Z</time></trkpt><trkpt lat="50.97322890463993" lon="11.752973889484103"><ele>350.0</ele><time>2026-05-03T15:28:53.899Z</time></trkpt><trkpt lat="50.9733251468472" lon="11.752814380136366"><ele>350.0</ele><time>2026-05-03T15:28:54.899Z</time></trkpt><trkpt lat="50.9734126625987" lon="11.7526660225264"><ele>350.0</ele><time>2026-05-03T15:28:55.899Z</time></trkpt><trkpt lat="50.973499172947136" lon="11.752516732363913"><ele>350.0</ele><time>2026-05-03T15:28:56.899Z</time></trkpt><trkpt lat="50.97357930358081" lon="11.75237726060259"><ele>350.0</ele><time>2026-05-03T15:28:57.899Z</time></trkpt><trkpt lat="50.9736556725337" lon="11.752249952423025"><ele>350.0</ele><time>2026-05-03T15:28:58.899Z</time></trkpt><trkpt lat="50.97372188561523" lon="11.752131659519478"><ele>350.0</ele><time>2026-05-03T15:28:59.899Z</time></trkpt><trkpt lat="50.97377585025174" lon="11.752003773965"><ele>350.0</ele><time>2026-05-03T15:29:00.899Z</time></trkpt><trkpt lat="50.97382539632054" lon="11.751893353635293"><ele>350.0</ele><time>2026-05-03T15:29:01.899Z</time></trkpt><trkpt lat="50.973874971768566" lon="11.751760948968766"><ele>350.0</ele><time>2026-05-03T15:29:02.899Z</time></trkpt><trkpt lat="50.97393126380593" lon="11.751589258276667"><ele>349.5</ele><time>2026-05-03T15:29:03.899Z</time></trkpt><trkpt lat="50.97398110014" lon="11.751417485029062"><ele>349.0</ele><time>2026-05-03T15:29:04.899Z</time></trkpt><trkpt lat="50.9740336515842" lon="11.751257169742985"><ele>348.5</ele><time>2026-05-03T15:29:05.899Z</time></trkpt><trkpt lat="50.97409108350289" lon="11.751114547198176"><ele>348.0</ele><time>2026-05-03T15:29:06.899Z</time></trkpt><trkpt lat="50.97415451853344" lon="11.75093989771208"><ele>348.0</ele><time>2026-05-03T15:29:07.899Z</time></trkpt><trkpt lat="50.97420613225592" lon="11.750766365671021"><ele>348.0</ele><time>2026-05-03T15:29:08.899Z</time></trkpt><trkpt lat="50.97426944000057" lon="11.750622428343846"><ele>348.0</ele><time>2026-05-03T15:29:09.899Z</time></trkpt><trkpt lat="50.97431992138501" lon="11.750473867684878"><ele>348.0</ele><time>2026-05-03T15:29:10.899Z</time></trkpt><trkpt lat="50.97437341118854" lon="11.750315777982571"><ele>347.75</ele><time>2026-05-03T15:29:11.899Z</time></trkpt><trkpt lat="50.974421244241" lon="11.750128797063986"><ele>347.5</ele><time>2026-05-03T15:29:12.899Z</time></trkpt><trkpt lat="50.97448934328627" lon="11.749965186639363"><ele>347.25</ele><time>2026-05-03T15:29:13.899Z</time></trkpt><trkpt lat="50.974542468184985" lon="11.74978562625803"><ele>347.0</ele><time>2026-05-03T15:29:14.899Z</time></trkpt><trkpt lat="50.97459934393255" lon="11.749611121389599"><ele>347.0</ele><time>2026-05-03T15:29:15.899Z</time></trkpt><trkpt lat="50.97465331847463" lon="11.74943404381232"><ele>347.0</ele><time>2026-05-03T15:29:16.899Z</time></trkpt><trkpt lat="50.974699928294726" lon="11.749280866396115"><ele>347.0</ele><time>2026-05-03T15:29:17.899Z</time></trkpt><trkpt lat="50.974746045575195" lon="11.749163887648926"><ele>347.0</ele><time>2026-05-03T15:29:18.899Z</time></trkpt><trkpt lat="50.97478552646579" lon="11.7490038642279"><ele>347.0</ele><time>2026-05-03T15:29:20.899Z</time></trkpt><trkpt lat="50.97481585446886" lon="11.748911555844177"><ele>347.0</ele><time>2026-05-03T15:29:24.898Z</time></trkpt><trkpt lat="50.97440844909894" lon="11.749889304257758"><ele>347.33333333333337</ele><time>2026-05-03T15:38:39.931Z</time></trkpt><trkpt lat="50.97427652879851" lon="11.75039011662727"><ele>347.6666666666667</ele><time>2026-05-03T15:38:41.931Z</time></trkpt><trkpt lat="50.97424107862424" lon="11.750486941487146"><ele>348.0</ele><time>2026-05-03T15:38:45.931Z</time></trkpt><trkpt lat="50.97421250353718" lon="11.75060379511225"><ele>348.0</ele><time>2026-05-03T15:38:47.931Z</time></trkpt><trkpt lat="50.974180279087385" lon="11.750698646140895"><ele>348.0</ele><time>2026-05-03T15:38:48.931Z</time></trkpt><trkpt lat="50.97413892143729" lon="11.750827329933854"><ele>348.0</ele><time>2026-05-03T15:38:49.931Z</time></trkpt><trkpt lat="50.97410139832509" lon="11.750981971868612"><ele>348.0</ele><time>2026-05-03T15:38:50.931Z</time></trkpt><trkpt lat="50.97406722239938" lon="11.751100797681536"><ele>348.0</ele><time>2026-05-03T15:38:51.931Z</time></trkpt><trkpt lat="50.97402733119737" lon="11.751233485873238"><ele>348.0</ele><time>2026-05-03T15:38:52.931Z</time></trkpt><trkpt lat="50.97399383811824" lon="11.75135099372404"><ele>348.0</ele><time>2026-05-03T15:38:53.931Z</time></trkpt><trkpt lat="50.97396741393434" lon="11.751458828376547"><ele>348.0</ele><time>2026-05-03T15:38:54.93Z</time></trkpt><trkpt lat="50.97393062660962" lon="11.751591229162825"><ele>348.0</ele><time>2026-05-03T15:38:55.93Z</time></trkpt><trkpt lat="50.97389476977161" lon="11.751731871365998"><ele>348.0</ele><time>2026-05-03T15:38:56.931Z</time></trkpt><trkpt lat="50.973842712011276" lon="11.751890688759596"><ele>348.0</ele><time>2026-05-03T15:38:57.931Z</time></trkpt><trkpt lat="50.97379099830789" lon="11.752029228598882"><ele>348.3333333333333</ele><time>2026-05-03T15:38:58.931Z</time></trkpt><trkpt lat="50.97374673138376" lon="11.752135354552616"><ele>348.6666666666667</ele><time>2026-05-03T15:38:59.931Z</time></trkpt><trkpt lat="50.97368959115791" lon="11.752232684886817"><ele>349.0</ele><time>2026-05-03T15:39:00.931Z</time></trkpt><trkpt lat="50.97362966491411" lon="11.752327518779586"><ele>349.33333333333337</ele><time>2026-05-03T15:39:01.931Z</time></trkpt><trkpt lat="50.97357546068988" lon="11.752419994672087"><ele>349.6666666666667</ele><time>2026-05-03T15:39:02.931Z</time></trkpt><trkpt lat="50.97352288407677" lon="11.752518132789685"><ele>350.0</ele><time>2026-05-03T15:39:03.931Z</time></trkpt><trkpt lat="50.97345802795076" lon="11.752606127253765"><ele>350.0</ele><time>2026-05-03T15:39:04.931Z</time></trkpt><trkpt lat="50.973396403060164" lon="11.752710100763956"><ele>350.0</ele><time>2026-05-03T15:39:05.931Z</time></trkpt><trkpt lat="50.973325186714995" lon="11.752826672083403"><ele>350.0</ele><time>2026-05-03T15:39:06.931Z</time></trkpt><trkpt lat="50.97325631265011" lon="11.752939325652294"><ele>350.0</ele><time>2026-05-03T15:39:07.931Z</time></trkpt><trkpt lat="50.973200946103006" lon="11.75305046644814"><ele>350.0</ele><time>2026-05-03T15:39:08.931Z</time></trkpt><trkpt lat="50.97314050589022" lon="11.753162619076269"><ele>350.0</ele><time>2026-05-03T15:39:09.931Z</time></trkpt><trkpt lat="50.97306442743277" lon="11.753276232501031"><ele>350.0</ele><time>2026-05-03T15:39:10.931Z</time></trkpt><trkpt lat="50.97299374582316" lon="11.753382183291968"><ele>350.0</ele><time>2026-05-03T15:39:11.931Z</time></trkpt><trkpt lat="50.972915235299745" lon="11.75348708073563"><ele>350.0</ele><time>2026-05-03T15:39:12.931Z</time></trkpt><trkpt lat="50.972836926832734" lon="11.753599360933038"><ele>350.0</ele><time>2026-05-03T15:39:13.931Z</time></trkpt><trkpt lat="50.97276587758956" lon="11.75373193163222"><ele>350.0</ele><time>2026-05-03T15:39:14.931Z</time></trkpt><trkpt lat="50.97267653072084" lon="11.753882647071613"><ele>350.0</ele><time>2026-05-03T15:39:15.931Z</time></trkpt><trkpt lat="50.972584079141235" lon="11.754036006353298"><ele>350.0</ele><time>2026-05-03T15:39:16.931Z</time></trkpt><trkpt lat="50.972497450971" lon="11.754181462473996"><ele>350.0</ele><time>2026-05-03T15:39:17.931Z</time></trkpt><trkpt lat="50.97240404851589" lon="11.754340705389707"><ele>350.6666666666667</ele><time>2026-05-03T15:39:18.931Z</time></trkpt><trkpt lat="50.97230669637258" lon="11.75449657822308"><ele>351.3333333333333</ele><time>2026-05-03T15:39:19.931Z</time></trkpt><trkpt lat="50.972195035131655" lon="11.754745677658114"><ele>352.0</ele><time>2026-05-03T15:39:20.931Z</time></trkpt><trkpt lat="50.97209739715498" lon="11.754912244889901"><ele>352.0</ele><time>2026-05-03T15:39:21.931Z</time></trkpt><trkpt lat="50.97201033638198" lon="11.75505094631619"><ele>352.0</ele><time>2026-05-03T15:39:22.931Z</time></trkpt><trkpt lat="50.97192298495542" lon="11.75520104612296"><ele>352.0</ele><time>2026-05-03T15:39:23.931Z</time></trkpt><trkpt lat="50.971842355331255" lon="11.75533035336263"><ele>352.0</ele><time>2026-05-03T15:39:24.931Z</time></trkpt><trkpt lat="50.97178135790413" lon="11.755440367488138"><ele>352.0</ele><time>2026-05-03T15:39:25.931Z</time></trkpt><trkpt lat="50.97169580030351" lon="11.75560595289961"><ele>352.0</ele><time>2026-05-03T15:39:27.929Z</time></trkpt><trkpt lat="50.97161087706808" lon="11.755696746915445"><ele>352.0</ele><time>2026-05-03T15:39:28.929Z</time></trkpt><trkpt lat="50.97154381493859" lon="11.755809521719547"><ele>352.0</ele><time>2026-05-03T15:39:29.929Z</time></trkpt><trkpt lat="50.971486379117835" lon="11.755957048660695"><ele>352.0</ele><time>2026-05-03T15:39:30.929Z</time></trkpt><trkpt lat="50.971454824694135" lon="11.756095252085332"><ele>352.0</ele><time>2026-05-03T15:39:31.929Z</time></trkpt><trkpt lat="50.97139801086367" lon="11.75624184578404"><ele>352.0</ele><time>2026-05-03T15:39:32.929Z</time></trkpt><trkpt lat="50.97133568605706" lon="11.756427317501041"><ele>352.0</ele><time>2026-05-03T15:39:33.929Z</time></trkpt><trkpt lat="50.97125540437167" lon="11.756608636628668"><ele>352.0</ele><time>2026-05-03T15:39:34.929Z</time></trkpt><trkpt lat="50.97119799609804" lon="11.756781951388701"><ele>352.40000000000003</ele><time>2026-05-03T15:39:35.929Z</time></trkpt><trkpt lat="50.97115384714821" lon="11.756931302618712"><ele>352.8</ele><time>2026-05-03T15:39:36.929Z</time></trkpt><trkpt lat="50.971112438994446" lon="11.757075871961701"><ele>353.2</ele><time>2026-05-03T15:39:37.929Z</time></trkpt><trkpt lat="50.971064037326244" lon="11.757228277447233"><ele>353.6</ele><time>2026-05-03T15:39:38.929Z</time></trkpt><trkpt lat="50.971020573618254" lon="11.757389976642218"><ele>354.0</ele><time>2026-05-03T15:39:39.929Z</time></trkpt><trkpt lat="50.970973708934245" lon="11.757563863214942"><ele>354.2</ele><time>2026-05-03T15:39:40.929Z</time></trkpt><trkpt lat="50.97093636261602" lon="11.757718041377693"><ele>354.4</ele><time>2026-05-03T15:39:41.929Z</time></trkpt><trkpt lat="50.970902949982914" lon="11.757846189777995"><ele>354.6</ele><time>2026-05-03T15:39:42.929Z</time></trkpt><trkpt lat="50.97087734483558" lon="11.758000615492984"><ele>354.8</ele><time>2026-05-03T15:39:43.929Z</time></trkpt><trkpt lat="50.97084008985324" lon="11.75812870717895"><ele>355.0</ele><time>2026-05-03T15:39:44.929Z</time></trkpt><trkpt lat="50.97080134323348" lon="11.758272157014682"><ele>354.75</ele><time>2026-05-03T15:39:45.929Z</time></trkpt><trkpt lat="50.97075586202047" lon="11.75843296536374"><ele>354.5</ele><time>2026-05-03T15:39:46.929Z</time></trkpt><trkpt lat="50.970706675456285" lon="11.758607627287907"><ele>354.25</ele><time>2026-05-03T15:39:47.929Z</time></trkpt><trkpt lat="50.970649220652284" lon="11.758774727689977"><ele>354.0</ele><time>2026-05-03T15:39:48.929Z</time></trkpt><trkpt lat="50.970587550076836" lon="11.758939926745871"><ele>354.0</ele><time>2026-05-03T15:39:49.929Z</time></trkpt><trkpt lat="50.97052935472618" lon="11.759117016253063"><ele>354.0</ele><time>2026-05-03T15:39:50.929Z</time></trkpt><trkpt lat="50.97045751037127" lon="11.759299112205342"><ele>354.0</ele><time>2026-05-03T15:39:51.929Z</time></trkpt><trkpt lat="50.970379966345696" lon="11.75948125154356"><ele>354.0</ele><time>2026-05-03T15:39:52.929Z</time></trkpt><trkpt lat="50.97030292801484" lon="11.759647919989854"><ele>354.0</ele><time>2026-05-03T15:39:53.929Z</time></trkpt><trkpt lat="50.97022929497376" lon="11.759815543052104"><ele>354.0</ele><time>2026-05-03T15:39:54.929Z</time></trkpt><trkpt lat="50.97016414950147" lon="11.759975615572184"><ele>354.0</ele><time>2026-05-03T15:39:55.929Z</time></trkpt><trkpt lat="50.970105133928364" lon="11.760127292164627"><ele>354.0</ele><time>2026-05-03T15:39:56.929Z</time></trkpt><trkpt lat="50.97003814574149" lon="11.760285748781502"><ele>352.5</ele><time>2026-05-03T15:39:57.929Z</time></trkpt><trkpt lat="50.9699760740467" lon="11.760459789630415"><ele>351.0</ele><time>2026-05-03T15:39:58.929Z</time></trkpt><trkpt lat="50.96991247717904" lon="11.760637063375452"><ele>349.5</ele><time>2026-05-03T15:39:59.929Z</time></trkpt><trkpt lat="50.9698515363013" lon="11.760809418881221"><ele>348.0</ele><time>2026-05-03T15:40:00.929Z</time></trkpt><trkpt lat="50.96978914594433" lon="11.760974477661206"><ele>348.0</ele><time>2026-05-03T15:40:01.929Z</time></trkpt><trkpt lat="50.969735931637956" lon="11.761159700614341"><ele>348.0</ele><time>2026-05-03T15:40:02.929Z</time></trkpt><trkpt lat="50.969682264283364" lon="11.761324999828373"><ele>348.0</ele><time>2026-05-03T15:40:03.929Z</time></trkpt><trkpt lat="50.969640285435695" lon="11.761482421392587"><ele>348.0</ele><time>2026-05-03T15:40:04.929Z</time></trkpt><trkpt lat="50.969595108578865" lon="11.761630996193547"><ele>348.0</ele><time>2026-05-03T15:40:05.929Z</time></trkpt><trkpt lat="50.9695557131027" lon="11.761768262680997"><ele>348.0</ele><time>2026-05-03T15:40:06.929Z</time></trkpt><trkpt lat="50.96950996465212" lon="11.761925199411454"><ele>348.0</ele><time>2026-05-03T15:40:07.929Z</time></trkpt><trkpt lat="50.96948553044194" lon="11.762102776646312"><ele>348.0</ele><time>2026-05-03T15:40:08.929Z</time></trkpt><trkpt lat="50.96947229256393" lon="11.762292045753789"><ele>348.0</ele><time>2026-05-03T15:40:09.929Z</time></trkpt><trkpt lat="50.96946327835723" lon="11.762457106360026"><ele>348.0</ele><time>2026-05-03T15:40:10.929Z</time></trkpt><trkpt lat="50.96944460245219" lon="11.762623925769308"><ele>348.0</ele><time>2026-05-03T15:40:11.929Z</time></trkpt><trkpt lat="50.9694282012764" lon="11.762766779470883"><ele>348.0</ele><time>2026-05-03T15:40:12.929Z</time></trkpt><trkpt lat="50.9694226705281" lon="11.762914075029812"><ele>348.0</ele><time>2026-05-03T15:40:13.929Z</time></trkpt><trkpt lat="50.96941029022592" lon="11.763071614604081"><ele>348.0</ele><time>2026-05-03T15:40:14.929Z</time></trkpt><trkpt lat="50.969386259687816" lon="11.763206347675457"><ele>348.0</ele><time>2026-05-03T15:40:15.929Z</time></trkpt><trkpt lat="50.96936488411681" lon="11.763328428162684"><ele>348.0</ele><time>2026-05-03T15:40:16.929Z</time></trkpt><trkpt lat="50.96933151468321" lon="11.763438958563711"><ele>348.0</ele><time>2026-05-03T15:40:17.929Z</time></trkpt><trkpt lat="50.96930696887718" lon="11.763532614328428"><ele>348.0</ele><time>2026-05-03T15:40:18.929Z</time></trkpt><trkpt lat="50.96926740397891" lon="11.763663723887085"><ele>348.0</ele><time>2026-05-03T15:40:20.929Z</time></trkpt><trkpt lat="50.96921467522322" lon="11.763734970878145"><ele>348.0</ele><time>2026-05-03T15:40:24.929Z</time></trkpt><trkpt lat="50.96914569440945" lon="11.763854973351071"><ele>347.79999999999995</ele><time>2026-05-03T15:40:27.929Z</time></trkpt><trkpt lat="50.96902862043575" lon="11.763948449473853"><ele>347.6</ele><time>2026-05-03T15:40:29.929Z</time></trkpt><trkpt lat="50.968945711281364" lon="11.763916034814464"><ele>347.4</ele><time>2026-05-03T15:40:30.929Z</time></trkpt><trkpt lat="50.968859965905274" lon="11.763916124016024"><ele>347.20000000000005</ele><time>2026-05-03T15:40:31.929Z</time></trkpt><trkpt lat="50.96878504734167" lon="11.763915434369107"><ele>347.0</ele><time>2026-05-03T15:40:32.929Z</time></trkpt><trkpt lat="50.96871054476453" lon="11.763912780671346"><ele>347.0</ele><time>2026-05-03T15:40:33.929Z</time></trkpt><trkpt lat="50.96860190929563" lon="11.763906963310932"><ele>347.0</ele><time>2026-05-03T15:40:34.929Z</time></trkpt><trkpt lat="50.96848703816453" lon="11.763925980470615"><ele>347.0</ele><time>2026-05-03T15:40:35.929Z</time></trkpt><trkpt lat="50.96836306736534" lon="11.763912012628442"><ele>347.0</ele><time>2026-05-03T15:40:36.929Z</time></trkpt><trkpt lat="50.96823214839461" lon="11.763915320420454"><ele>346.75</ele><time>2026-05-03T15:40:37.929Z</time></trkpt><trkpt lat="50.968098636885166" lon="11.763904282281032"><ele>346.5</ele><time>2026-05-03T15:40:38.929Z</time></trkpt><trkpt lat="50.96797035287904" lon="11.763891353022355"><ele>346.25</ele><time>2026-05-03T15:40:39.929Z</time></trkpt><trkpt lat="50.96783747990417" lon="11.763858376504768"><ele>346.0</ele><time>2026-05-03T15:40:40.929Z</time></trkpt><trkpt lat="50.967709175882334" lon="11.763845250435077"><ele>346.0</ele><time>2026-05-03T15:40:41.929Z</time></trkpt><trkpt lat="50.967579033894744" lon="11.76385687871221"><ele>346.0</ele><time>2026-05-03T15:40:42.929Z</time></trkpt><trkpt lat="50.96747016103334" lon="11.763858192020807"><ele>346.0</ele><time>2026-05-03T15:40:43.929Z</time></trkpt><trkpt lat="50.967375525214564" lon="11.763875811935247"><ele>346.0</ele><time>2026-05-03T15:40:44.929Z</time></trkpt><trkpt lat="50.96727009104741" lon="11.76388494805377"><ele>346.0</ele><time>2026-05-03T15:40:45.929Z</time></trkpt><trkpt lat="50.96715417327879" lon="11.763894292228922"><ele>345.75</ele><time>2026-05-03T15:40:46.929Z</time></trkpt><trkpt lat="50.967030128103346" lon="11.76388743830382"><ele>345.5</ele><time>2026-05-03T15:40:47.929Z</time></trkpt><trkpt lat="50.96690760375394" lon="11.763920920805367"><ele>345.25</ele><time>2026-05-03T15:40:48.929Z</time></trkpt><trkpt lat="50.96679028713227" lon="11.76391066191786"><ele>345.0</ele><time>2026-05-03T15:40:49.929Z</time></trkpt><trkpt lat="50.966665323703225" lon="11.76391078519031"><ele>344.75</ele><time>2026-05-03T15:40:50.927Z</time></trkpt><trkpt lat="50.96656017838723" lon="11.763942649579022"><ele>344.5</ele><time>2026-05-03T15:40:51.927Z</time></trkpt><trkpt lat="50.966447340340274" lon="11.76392644752205"><ele>344.25</ele><time>2026-05-03T15:40:52.927Z</time></trkpt><trkpt lat="50.96631742755085" lon="11.763961692309149"><ele>344.0</ele><time>2026-05-03T15:40:53.927Z</time></trkpt><trkpt lat="50.966184874879936" lon="11.763980379183085"><ele>344.0</ele><time>2026-05-03T15:40:54.927Z</time></trkpt><trkpt lat="50.96606897348516" lon="11.764005576934368"><ele>344.0</ele><time>2026-05-03T15:40:55.927Z</time></trkpt><trkpt lat="50.96596307376423" lon="11.764000906299646"><ele>344.0</ele><time>2026-05-03T15:40:56.927Z</time></trkpt><trkpt lat="50.9658447668971" lon="11.764042962264792"><ele>344.0</ele><time>2026-05-03T15:40:57.927Z</time></trkpt><trkpt lat="50.96571359327292" lon="11.764035765684858"><ele>343.6</ele><time>2026-05-03T15:40:58.927Z</time></trkpt><trkpt lat="50.96559815150193" lon="11.764046296347525"><ele>343.2</ele><time>2026-05-03T15:40:59.927Z</time></trkpt><trkpt lat="50.96549105750657" lon="11.764065480724703"><ele>342.8</ele><time>2026-05-03T15:41:00.928Z</time></trkpt><trkpt lat="50.965387306676625" lon="11.764082217643331"><ele>342.40000000000003</ele><time>2026-05-03T15:41:01.928Z</time></trkpt><trkpt lat="50.965277551684956" lon="11.76409490092905"><ele>342.0</ele><time>2026-05-03T15:41:02.927Z</time></trkpt><trkpt lat="50.96515590217809" lon="11.76409567668393"><ele>342.0</ele><time>2026-05-03T15:41:03.927Z</time></trkpt><trkpt lat="50.965033216991074" lon="11.764091819767778"><ele>342.0</ele><time>2026-05-03T15:41:04.927Z</time></trkpt><trkpt lat="50.96491503651647" lon="11.76408853145452"><ele>342.0</ele><time>2026-05-03T15:41:05.927Z</time></trkpt><trkpt lat="50.96480536159348" lon="11.764089841444433"><ele>342.0</ele><time>2026-05-03T15:41:06.927Z</time></trkpt><trkpt lat="50.964687947994655" lon="11.764096016379959"><ele>342.0</ele><time>2026-05-03T15:41:07.927Z</time></trkpt><trkpt lat="50.964586926650874" lon="11.764089146273294"><ele>342.0</ele><time>2026-05-03T15:41:08.927Z</time></trkpt><trkpt lat="50.96447807425072" lon="11.764077945246736"><ele>342.0</ele><time>2026-05-03T15:41:09.927Z</time></trkpt><trkpt lat="50.964360365510565" lon="11.764081222826617"><ele>342.0</ele><time>2026-05-03T15:41:10.927Z</time></trkpt><trkpt lat="50.964248955201604" lon="11.76408208245333"><ele>342.0</ele><time>2026-05-03T15:41:11.927Z</time></trkpt><trkpt lat="50.96414951398357" lon="11.764071762187829"><ele>342.20000000000005</ele><time>2026-05-03T15:41:12.927Z</time></trkpt><trkpt lat="50.964064383860666" lon="11.764061259113662"><ele>342.4</ele><time>2026-05-03T15:41:13.927Z</time></trkpt><trkpt lat="50.963954277891986" lon="11.764040497433635"><ele>342.6</ele><time>2026-05-03T15:41:14.927Z</time></trkpt><trkpt lat="50.963844803836714" lon="11.764048058346216"><ele>342.79999999999995</ele><time>2026-05-03T15:41:15.927Z</time></trkpt><trkpt lat="50.963738329839906" lon="11.764056920604501"><ele>343.0</ele><time>2026-05-03T15:41:16.927Z</time></trkpt><trkpt lat="50.96363291328284" lon="11.76405589901723"><ele>343.0</ele><time>2026-05-03T15:41:17.927Z</time></trkpt><trkpt lat="50.963528281569126" lon="11.76404572420207"><ele>343.0</ele><time>2026-05-03T15:41:18.927Z</time></trkpt><trkpt lat="50.963408221590356" lon="11.76403881092096"><ele>343.0</ele><time>2026-05-03T15:41:19.927Z</time></trkpt><trkpt lat="50.96329219082713" lon="11.764022477930702"><ele>343.0</ele><time>2026-05-03T15:41:20.927Z</time></trkpt><trkpt lat="50.96319415677662" lon="11.764028786088732"><ele>343.0</ele><time>2026-05-03T15:41:21.927Z</time></trkpt><trkpt lat="50.96309354371814" lon="11.764000641634512"><ele>343.4</ele><time>2026-05-03T15:41:22.927Z</time></trkpt><trkpt lat="50.96299149097314" lon="11.76399152474963"><ele>343.79999999999995</ele><time>2026-05-03T15:41:23.927Z</time></trkpt><trkpt lat="50.9628835477637" lon="11.76399392831858"><ele>344.2</ele><time>2026-05-03T15:41:24.927Z</time></trkpt><trkpt lat="50.96277576671881" lon="11.763975244164104"><ele>344.6</ele><time>2026-05-03T15:41:25.927Z</time></trkpt><trkpt lat="50.962657404082066" lon="11.763941458389642"><ele>345.0</ele><time>2026-05-03T15:41:26.927Z</time></trkpt><trkpt lat="50.962536696160164" lon="11.763889745146047"><ele>345.25</ele><time>2026-05-03T15:41:27.927Z</time></trkpt><trkpt lat="50.96241910412962" lon="11.763835033873448"><ele>345.5</ele><time>2026-05-03T15:41:28.927Z</time></trkpt><trkpt lat="50.962303616084995" lon="11.763768590284501"><ele>345.75</ele><time>2026-05-03T15:41:29.927Z</time></trkpt><trkpt lat="50.962190675076315" lon="11.763713992665757"><ele>346.0</ele><time>2026-05-03T15:41:30.927Z</time></trkpt><trkpt lat="50.96208619556692" lon="11.763677302360623"><ele>346.0</ele><time>2026-05-03T15:41:31.927Z</time></trkpt><trkpt lat="50.96198920023502" lon="11.763656234474619"><ele>346.0</ele><time>2026-05-03T15:41:32.927Z</time></trkpt><trkpt lat="50.96190646362875" lon="11.76363338200974"><ele>346.0</ele><time>2026-05-03T15:41:33.927Z</time></trkpt><trkpt lat="50.96182893792061" lon="11.763605439228623"><ele>346.0</ele><time>2026-05-03T15:41:34.927Z</time></trkpt><trkpt lat="50.961747407938475" lon="11.76357692022574"><ele>346.0</ele><time>2026-05-03T15:41:35.927Z</time></trkpt><trkpt lat="50.96167652206177" lon="11.763575661941191"><ele>346.0</ele><time>2026-05-03T15:41:36.927Z</time></trkpt><trkpt lat="50.96158035687428" lon="11.763579025235835"><ele>346.0</ele><time>2026-05-03T15:41:37.927Z</time></trkpt><trkpt lat="50.96148782479968" lon="11.763560185833107"><ele>346.0</ele><time>2026-05-03T15:41:38.927Z</time></trkpt><trkpt lat="50.96138975779064" lon="11.763572875096868"><ele>346.0</ele><time>2026-05-03T15:41:39.927Z</time></trkpt><trkpt lat="50.961268650280495" lon="11.76359748745616"><ele>346.0</ele><time>2026-05-03T15:41:40.927Z</time></trkpt><trkpt lat="50.96116272977376" lon="11.763623733342703"><ele>346.0</ele><time>2026-05-03T15:41:41.927Z</time></trkpt><trkpt lat="50.96106446239096" lon="11.763673368917082"><ele>346.0</ele><time>2026-05-03T15:41:42.927Z</time></trkpt><trkpt lat="50.96096188097788" lon="11.763730542580838"><ele>346.0</ele><time>2026-05-03T15:41:43.927Z</time></trkpt><trkpt lat="50.960851623041805" lon="11.763805767951546"><ele>346.0</ele><time>2026-05-03T15:41:44.927Z</time></trkpt><trkpt lat="50.96074485229872" lon="11.76387605741298"><ele>346.0</ele><time>2026-05-03T15:41:45.927Z</time></trkpt><trkpt lat="50.96064314857766" lon="11.763922861045993"><ele>345.6</ele><time>2026-05-03T15:41:46.927Z</time></trkpt><trkpt lat="50.96054675181507" lon="11.763989865866403"><ele>345.20000000000005</ele><time>2026-05-03T15:41:47.927Z</time></trkpt><trkpt lat="50.96043656740709" lon="11.764045422917308"><ele>344.79999999999995</ele><time>2026-05-03T15:41:48.927Z</time></trkpt><trkpt lat="50.96033382242763" lon="11.764105239677315"><ele>344.4</ele><time>2026-05-03T15:41:49.927Z</time></trkpt><trkpt lat="50.96024641673353" lon="11.76417172888219"><ele>344.0</ele><time>2026-05-03T15:41:50.927Z</time></trkpt><trkpt lat="50.96014468321929" lon="11.76418741835488"><ele>344.0</ele><time>2026-05-03T15:41:51.927Z</time></trkpt><trkpt lat="50.96005018411531" lon="11.764234847270489"><ele>344.0</ele><time>2026-05-03T15:41:52.927Z</time></trkpt><trkpt lat="50.95996058062963" lon="11.764285551493305"><ele>344.0</ele><time>2026-05-03T15:41:53.927Z</time></trkpt><trkpt lat="50.95987329240834" lon="11.76434342791298"><ele>344.0</ele><time>2026-05-03T15:41:54.927Z</time></trkpt><trkpt lat="50.959768073159495" lon="11.76441397406717"><ele>344.0</ele><time>2026-05-03T15:41:55.927Z</time></trkpt><trkpt lat="50.959674848006095" lon="11.764477336591439"><ele>343.6666666666667</ele><time>2026-05-03T15:41:56.927Z</time></trkpt><trkpt lat="50.959598977979795" lon="11.764518793788778"><ele>343.33333333333337</ele><time>2026-05-03T15:41:57.927Z</time></trkpt><trkpt lat="50.95953139964659" lon="11.764562150465075"><ele>343.0</ele><time>2026-05-03T15:41:58.927Z</time></trkpt><trkpt lat="50.959472863430854" lon="11.76460667054771"><ele>342.6666666666667</ele><time>2026-05-03T15:41:59.927Z</time></trkpt><trkpt lat="50.959399609298195" lon="11.764622592898322"><ele>342.3333333333333</ele><time>2026-05-03T15:42:01.927Z</time></trkpt><trkpt lat="50.95931987277779" lon="11.76465796390897"><ele>342.0</ele><time>2026-05-03T15:42:28.927Z</time></trkpt><trkpt lat="50.959204896017425" lon="11.76473216224654"><ele>341.8</ele><time>2026-05-03T15:42:30.927Z</time></trkpt><trkpt lat="50.9591323830074" lon="11.764773336373214"><ele>341.6</ele><time>2026-05-03T15:42:31.927Z</time></trkpt><trkpt lat="50.959049420821096" lon="11.76482044373447"><ele>341.40000000000003</ele><time>2026-05-03T15:42:32.927Z</time></trkpt><trkpt lat="50.958946242968686" lon="11.764879030075331"><ele>341.20000000000005</ele><time>2026-05-03T15:42:33.927Z</time></trkpt><trkpt lat="50.95883452490868" lon="11.7649503497458"><ele>341.0</ele><time>2026-05-03T15:42:34.927Z</time></trkpt><trkpt lat="50.95871165069298" lon="11.765026517415242"><ele>341.0</ele><time>2026-05-03T15:42:35.927Z</time></trkpt><trkpt lat="50.95858204584269" lon="11.765093986754179"><ele>341.0</ele><time>2026-05-03T15:42:36.927Z</time></trkpt><trkpt lat="50.958460102116945" lon="11.765143149887198"><ele>341.0</ele><time>2026-05-03T15:42:37.927Z</time></trkpt><trkpt lat="50.9583562489175" lon="11.765171820594748"><ele>341.0</ele><time>2026-05-03T15:42:38.927Z</time></trkpt><trkpt lat="50.95826122289311" lon="11.765227249655732"><ele>340.4</ele><time>2026-05-03T15:42:39.927Z</time></trkpt><trkpt lat="50.95816683051657" lon="11.765275781664425"><ele>339.8</ele><time>2026-05-03T15:42:40.927Z</time></trkpt><trkpt lat="50.958068281662115" lon="11.76531447581289"><ele>339.2</ele><time>2026-05-03T15:42:41.927Z</time></trkpt><trkpt lat="50.957963042792514" lon="11.765361055679824"><ele>338.59999999999997</ele><time>2026-05-03T15:42:42.927Z</time></trkpt><trkpt lat="50.957869949048856" lon="11.765403848050287"><ele>338.0</ele><time>2026-05-03T15:42:43.927Z</time></trkpt><trkpt lat="50.95778888196639" lon="11.765445860319304"><ele>338.0</ele><time>2026-05-03T15:42:44.927Z</time></trkpt><trkpt lat="50.95771795482321" lon="11.765498914534808"><ele>338.0</ele><time>2026-05-03T15:42:45.927Z</time></trkpt><trkpt lat="50.957650764260364" lon="11.765546962528159"><ele>338.0</ele><time>2026-05-03T15:42:46.927Z</time></trkpt><trkpt lat="50.95757876659451" lon="11.76558337244586"><ele>338.0</ele><time>2026-05-03T15:42:47.927Z</time></trkpt><trkpt lat="50.957484341182635" lon="11.76563434279121"><ele>338.0</ele><time>2026-05-03T15:42:48.927Z</time></trkpt><trkpt lat="50.95738110358209" lon="11.765708910518892"><ele>338.0</ele><time>2026-05-03T15:42:49.927Z</time></trkpt><trkpt lat="50.95727448946159" lon="11.765797579290068"><ele>338.0</ele><time>2026-05-03T15:42:50.927Z</time></trkpt><trkpt lat="50.957160012588076" lon="11.765885361517434"><ele>338.0</ele><time>2026-05-03T15:42:51.927Z</time></trkpt><trkpt lat="50.957048486049636" lon="11.765974983626393"><ele>338.0</ele><time>2026-05-03T15:42:52.927Z</time></trkpt><trkpt lat="50.956945848862" lon="11.76605045443262"><ele>338.0</ele><time>2026-05-03T15:42:53.927Z</time></trkpt><trkpt lat="50.95684344728102" lon="11.766114010942784"><ele>337.75</ele><time>2026-05-03T15:42:54.927Z</time></trkpt><trkpt lat="50.956737070138" lon="11.766174279129562"><ele>337.5</ele><time>2026-05-03T15:42:55.927Z</time></trkpt><trkpt lat="50.95663017599392" lon="11.76623267429016"><ele>337.25</ele><time>2026-05-03T15:42:56.927Z</time></trkpt><trkpt lat="50.956514672467065" lon="11.766277061416792"><ele>337.0</ele><time>2026-05-03T15:42:57.926Z</time></trkpt><trkpt lat="50.956405853988265" lon="11.766304489463458"><ele>337.0</ele><time>2026-05-03T15:42:58.926Z</time></trkpt><trkpt lat="50.95628581934931" lon="11.766295373526399"><ele>337.0</ele><time>2026-05-03T15:42:59.927Z</time></trkpt><trkpt lat="50.95615595430065" lon="11.766287818472385"><ele>337.0</ele><time>2026-05-03T15:43:00.927Z</time></trkpt><trkpt lat="50.956026201240824" lon="11.76628843134761"><ele>337.0</ele><time>2026-05-03T15:43:01.927Z</time></trkpt><trkpt lat="50.95589593745452" lon="11.766251705955325"><ele>336.5</ele><time>2026-05-03T15:43:02.926Z</time></trkpt><trkpt lat="50.95575317848805" lon="11.76622376181165"><ele>336.0</ele><time>2026-05-03T15:43:03.926Z</time></trkpt><trkpt lat="50.95561711776624" lon="11.766210049783263"><ele>335.5</ele><time>2026-05-03T15:43:04.926Z</time></trkpt><trkpt lat="50.95548910196097" lon="11.766180073265907"><ele>335.0</ele><time>2026-05-03T15:43:05.927Z</time></trkpt><trkpt lat="50.95536798732818" lon="11.766135077590514"><ele>335.0</ele><time>2026-05-03T15:43:06.926Z</time></trkpt><trkpt lat="50.95525584962564" lon="11.766047258603173"><ele>335.0</ele><time>2026-05-03T15:43:07.926Z</time></trkpt><trkpt lat="50.95513231075251" lon="11.766000814123332"><ele>335.0</ele><time>2026-05-03T15:43:08.926Z</time></trkpt><trkpt lat="50.95499350055383" lon="11.76592482457326"><ele>335.0</ele><time>2026-05-03T15:43:09.926Z</time></trkpt><trkpt lat="50.954844172347975" lon="11.765863389387013"><ele>333.25</ele><time>2026-05-03T15:43:10.926Z</time></trkpt><trkpt lat="50.95471324161022" lon="11.765797583027439"><ele>331.5</ele><time>2026-05-03T15:43:11.926Z</time></trkpt><trkpt lat="50.95458490743737" lon="11.765753307738613"><ele>329.75</ele><time>2026-05-03T15:43:12.926Z</time></trkpt><trkpt lat="50.95447321298143" lon="11.765708165260264"><ele>328.0</ele><time>2026-05-03T15:43:13.926Z</time></trkpt><trkpt lat="50.954376138134016" lon="11.765677411807248"><ele>328.0</ele><time>2026-05-03T15:43:14.926Z</time></trkpt><trkpt lat="50.95429959216247" lon="11.765690496781538"><ele>328.0</ele><time>2026-05-03T15:43:15.926Z</time></trkpt><trkpt lat="50.954236942391226" lon="11.765701321668258"><ele>328.0</ele><time>2026-05-03T15:43:16.926Z</time></trkpt><trkpt lat="50.95414393690741" lon="11.765804324975614"><ele>328.0</ele><time>2026-05-03T15:43:18.926Z</time></trkpt><trkpt lat="50.954125517065386" lon="11.76600324059349"><ele>328.0</ele><time>2026-05-03T15:43:20.926Z</time></trkpt><trkpt lat="50.954160239682764" lon="11.766141372831644"><ele>327.0</ele><time>2026-05-03T15:43:21.926Z</time></trkpt><trkpt lat="50.95423533098283" lon="11.766247455315957"><ele>326.0</ele><time>2026-05-03T15:43:22.926Z</time></trkpt><trkpt lat="50.95432426406079" lon="11.766329601003278"><ele>325.0</ele><time>2026-05-03T15:43:23.926Z</time></trkpt><trkpt lat="50.95440083380212" lon="11.766414496919193"><ele>324.0</ele><time>2026-05-03T15:43:24.926Z</time></trkpt><trkpt lat="50.95445917098727" lon="11.766491115948497"><ele>323.0</ele><time>2026-05-03T15:43:25.926Z</time></trkpt><trkpt lat="50.95450213907055" lon="11.76656625100729"><ele>322.0</ele><time>2026-05-03T15:43:26.926Z</time></trkpt><trkpt lat="50.95454173735673" lon="11.766662531267835"><ele>322.0</ele><time>2026-05-03T15:43:27.926Z</time></trkpt><trkpt lat="50.95457138620138" lon="11.76682617896014"><ele>322.0</ele><time>2026-05-03T15:43:29.926Z</time></trkpt><trkpt lat="50.95452085824848" lon="11.76697646421251"><ele>322.0</ele><time>2026-05-03T15:43:31.926Z</time></trkpt><trkpt lat="50.95446745256544" lon="11.76704018389678"><ele>322.0</ele><time>2026-05-03T15:43:32.926Z</time></trkpt><trkpt lat="50.954327473187284" lon="11.767037579827857"><ele>322.0</ele><time>2026-05-03T15:43:34.926Z</time></trkpt><trkpt lat="50.95423249676658" lon="11.766947756421564"><ele>319.0</ele><time>2026-05-03T15:43:35.926Z</time></trkpt><trkpt lat="50.95414235679931" lon="11.76684204588649"><ele>316.0</ele><time>2026-05-03T15:43:36.926Z</time></trkpt><trkpt lat="50.95404838424153" lon="11.76670952885547"><ele>313.0</ele><time>2026-05-03T15:43:37.926Z</time></trkpt><trkpt lat="50.95394058736463" lon="11.766574621740897"><ele>310.0</ele><time>2026-05-03T15:43:38.926Z</time></trkpt><trkpt lat="50.95383664208394" lon="11.766436901712332"><ele>310.0</ele><time>2026-05-03T15:43:39.926Z</time></trkpt><trkpt lat="50.95373708002732" lon="11.766306967705559"><ele>310.0</ele><time>2026-05-03T15:43:40.926Z</time></trkpt><trkpt lat="50.95364150233841" lon="11.766161346490511"><ele>310.0</ele><time>2026-05-03T15:43:41.926Z</time></trkpt><trkpt lat="50.953550267576105" lon="11.765989555540528"><ele>310.0</ele><time>2026-05-03T15:43:42.926Z</time></trkpt><trkpt lat="50.953440957106146" lon="11.765808878941762"><ele>308.0</ele><time>2026-05-03T15:43:43.926Z</time></trkpt><trkpt lat="50.95333205261134" lon="11.765636772445285"><ele>306.0</ele><time>2026-05-03T15:43:44.926Z</time></trkpt><trkpt lat="50.953225379887456" lon="11.765479048232008"><ele>304.0</ele><time>2026-05-03T15:43:45.926Z</time></trkpt><trkpt lat="50.953119155979046" lon="11.765333086263556"><ele>302.0</ele><time>2026-05-03T15:43:46.926Z</time></trkpt><trkpt lat="50.95300580138388" lon="11.765192610964794"><ele>302.0</ele><time>2026-05-03T15:43:47.926Z</time></trkpt><trkpt lat="50.95289041462482" lon="11.765061987958418"><ele>302.0</ele><time>2026-05-03T15:43:48.926Z</time></trkpt><trkpt lat="50.9527735980296" lon="11.764945992431212"><ele>302.0</ele><time>2026-05-03T15:43:49.926Z</time></trkpt><trkpt lat="50.95265476655686" lon="11.764848955576001"><ele>302.0</ele><time>2026-05-03T15:43:50.926Z</time></trkpt><trkpt lat="50.95253364400066" lon="11.764761803500784"><ele>298.5</ele><time>2026-05-03T15:43:51.926Z</time></trkpt><trkpt lat="50.95241197312222" lon="11.764685989253875"><ele>295.0</ele><time>2026-05-03T15:43:52.926Z</time></trkpt><trkpt lat="50.9522984445862" lon="11.764597945804633"><ele>291.5</ele><time>2026-05-03T15:43:53.926Z</time></trkpt><trkpt lat="50.95218899007628" lon="11.764500929141528"><ele>288.0</ele><time>2026-05-03T15:43:54.926Z</time></trkpt><trkpt lat="50.952079359659585" lon="11.764409208207745"><ele>287.75</ele><time>2026-05-03T15:43:55.926Z</time></trkpt><trkpt lat="50.95197665804415" lon="11.764329365300798"><ele>287.5</ele><time>2026-05-03T15:43:56.926Z</time></trkpt><trkpt lat="50.95186929287709" lon="11.76425115486392"><ele>287.25</ele><time>2026-05-03T15:43:57.926Z</time></trkpt><trkpt lat="50.95176334600697" lon="11.764172304957539"><ele>287.0</ele><time>2026-05-03T15:43:58.926Z</time></trkpt><trkpt lat="50.951663199456185" lon="11.764099921323782"><ele>285.8</ele><time>2026-05-03T15:43:59.926Z</time></trkpt><trkpt lat="50.95156501010485" lon="11.764034566477891"><ele>284.6</ele><time>2026-05-03T15:44:00.926Z</time></trkpt><trkpt lat="50.95146791628835" lon="11.763971168286334"><ele>283.40000000000003</ele><time>2026-05-03T15:44:01.926Z</time></trkpt><trkpt lat="50.95136748398798" lon="11.763907326370811"><ele>282.2</ele><time>2026-05-03T15:44:02.926Z</time></trkpt><trkpt lat="50.951253731586164" lon="11.763848035987513"><ele>281.0</ele><time>2026-05-03T15:44:03.926Z</time></trkpt><trkpt lat="50.951136317164035" lon="11.763799143289372"><ele>281.0</ele><time>2026-05-03T15:44:04.926Z</time></trkpt><trkpt lat="50.951015947620995" lon="11.763756959646141"><ele>281.0</ele><time>2026-05-03T15:44:05.926Z</time></trkpt><trkpt lat="50.95089692030133" lon="11.763711053042854"><ele>281.0</ele><time>2026-05-03T15:44:06.926Z</time></trkpt><trkpt lat="50.950778604370875" lon="11.763654139345084"><ele>281.0</ele><time>2026-05-03T15:44:07.926Z</time></trkpt><trkpt lat="50.95067214737289" lon="11.763583205996973"><ele>280.0</ele><time>2026-05-03T15:44:08.926Z</time></trkpt><trkpt lat="50.95056571670579" lon="11.76350450297212"><ele>279.0</ele><time>2026-05-03T15:44:09.926Z</time></trkpt><trkpt lat="50.95045453678631" lon="11.763414974622883"><ele>278.0</ele><time>2026-05-03T15:44:10.926Z</time></trkpt><trkpt lat="50.950342792438505" lon="11.763322431848835"><ele>277.0</ele><time>2026-05-03T15:44:11.926Z</time></trkpt><trkpt lat="50.950232483046484" lon="11.763229352097886"><ele>277.0</ele><time>2026-05-03T15:44:12.926Z</time></trkpt><trkpt lat="50.95011524651342" lon="11.763131286283226"><ele>277.0</ele><time>2026-05-03T15:44:13.926Z</time></trkpt><trkpt lat="50.950006653407804" lon="11.763036244204253"><ele>277.0</ele><time>2026-05-03T15:44:14.926Z</time></trkpt><trkpt lat="50.94989895995182" lon="11.762934814718593"><ele>277.0</ele><time>2026-05-03T15:44:15.926Z</time></trkpt><trkpt lat="50.949792324474544" lon="11.762835873197018"><ele>276.25</ele><time>2026-05-03T15:44:16.926Z</time></trkpt><trkpt lat="50.949689127082294" lon="11.762737402365072"><ele>275.5</ele><time>2026-05-03T15:44:17.926Z</time></trkpt><trkpt lat="50.94959175286677" lon="11.762635811273679"><ele>274.75</ele><time>2026-05-03T15:44:18.926Z</time></trkpt><trkpt lat="50.94949727969806" lon="11.762534286537043"><ele>274.0</ele><time>2026-05-03T15:44:19.926Z</time></trkpt><trkpt lat="50.9494059764355" lon="11.76243786601392"><ele>274.0</ele><time>2026-05-03T15:44:20.926Z</time></trkpt><trkpt lat="50.94931488233692" lon="11.762340898078541"><ele>274.0</ele><time>2026-05-03T15:44:21.926Z</time></trkpt><trkpt lat="50.9492239415952" lon="11.762249771865553"><ele>274.0</ele><time>2026-05-03T15:44:22.926Z</time></trkpt><trkpt lat="50.949127452638834" lon="11.762166571131877"><ele>274.0</ele><time>2026-05-03T15:44:23.926Z</time></trkpt><trkpt lat="50.94902635279082" lon="11.762082338411098"><ele>274.0</ele><time>2026-05-03T15:44:24.926Z</time></trkpt><trkpt lat="50.94892659904164" lon="11.762005605224052"><ele>273.25</ele><time>2026-05-03T15:44:25.926Z</time></trkpt><trkpt lat="50.948816900085795" lon="11.761932815146546"><ele>272.5</ele><time>2026-05-03T15:44:26.926Z</time></trkpt><trkpt lat="50.94870742404377" lon="11.761871008756952"><ele>271.75</ele><time>2026-05-03T15:44:27.926Z</time></trkpt><trkpt lat="50.9485958378486" lon="11.76180216344895"><ele>271.0</ele><time>2026-05-03T15:44:28.926Z</time></trkpt><trkpt lat="50.94848234236333" lon="11.76172774855012"><ele>269.5</ele><time>2026-05-03T15:44:29.926Z</time></trkpt><trkpt lat="50.948370640635446" lon="11.761651347255198"><ele>268.0</ele><time>2026-05-03T15:44:30.926Z</time></trkpt><trkpt lat="50.94826463425327" lon="11.761575005110535"><ele>266.5</ele><time>2026-05-03T15:44:31.926Z</time></trkpt><trkpt lat="50.948166429471726" lon="11.761494800266277"><ele>265.0</ele><time>2026-05-03T15:44:32.926Z</time></trkpt><trkpt lat="50.948061030177065" lon="11.761419436813059"><ele>265.0</ele><time>2026-05-03T15:44:33.926Z</time></trkpt><trkpt lat="50.94795626941015" lon="11.761348394150039"><ele>265.0</ele><time>2026-05-03T15:44:34.926Z</time></trkpt><trkpt lat="50.94785228298533" lon="11.76127707634325"><ele>265.0</ele><time>2026-05-03T15:44:35.926Z</time></trkpt><trkpt lat="50.947752750055365" lon="11.761207039379222"><ele>265.0</ele><time>2026-05-03T15:44:36.926Z</time></trkpt><trkpt lat="50.9476485357821" lon="11.761126579640393"><ele>265.0</ele><time>2026-05-03T15:44:37.926Z</time></trkpt><trkpt lat="50.94755044776851" lon="11.761046481576123"><ele>265.0</ele><time>2026-05-03T15:44:38.926Z</time></trkpt><trkpt lat="50.94745851367801" lon="11.76097685944375"><ele>265.0</ele><time>2026-05-03T15:44:39.926Z</time></trkpt><trkpt lat="50.9473657394101" lon="11.760917103988808"><ele>265.0</ele><time>2026-05-03T15:44:40.926Z</time></trkpt><trkpt lat="50.947265331856464" lon="11.760848168201397"><ele>265.0</ele><time>2026-05-03T15:44:41.926Z</time></trkpt><trkpt lat="50.947167986409795" lon="11.760786171686744"><ele>263.2</ele><time>2026-05-03T15:44:42.926Z</time></trkpt><trkpt lat="50.94707077270499" lon="11.760732273478016"><ele>261.4</ele><time>2026-05-03T15:44:43.926Z</time></trkpt><trkpt lat="50.946969138405564" lon="11.760701953869424"><ele>259.6</ele><time>2026-05-03T15:44:44.926Z</time></trkpt><trkpt lat="50.94687057915987" lon="11.760692711006088"><ele>257.8</ele><time>2026-05-03T15:44:45.926Z</time></trkpt><trkpt lat="50.94676034377275" lon="11.760684453769718"><ele>256.0</ele><time>2026-05-03T15:44:46.926Z</time></trkpt><trkpt lat="50.94665721783748" lon="11.760681243079484"><ele>254.20000000000002</ele><time>2026-05-03T15:44:47.926Z</time></trkpt><trkpt lat="50.94655434103546" lon="11.760660089393564"><ele>252.40000000000003</ele><time>2026-05-03T15:44:48.926Z</time></trkpt><trkpt lat="50.94645773936791" lon="11.760646172977621"><ele>250.6</ele><time>2026-05-03T15:44:49.926Z</time></trkpt><trkpt lat="50.94637000282245" lon="11.760620948249322"><ele>248.8</ele><time>2026-05-03T15:44:50.926Z</time></trkpt><trkpt lat="50.946290564301634" lon="11.760575067641554"><ele>247.0</ele><time>2026-05-03T15:44:51.926Z</time></trkpt><trkpt lat="50.94620257001789" lon="11.760521350619207"><ele>247.0</ele><time>2026-05-03T15:44:52.926Z</time></trkpt><trkpt lat="50.946118355951654" lon="11.760467573674074"><ele>247.0</ele><time>2026-05-03T15:44:53.926Z</time></trkpt><trkpt lat="50.94602758881496" lon="11.760408610583319"><ele>247.0</ele><time>2026-05-03T15:44:54.926Z</time></trkpt><trkpt lat="50.94594233283618" lon="11.760341242080223"><ele>247.0</ele><time>2026-05-03T15:44:55.926Z</time></trkpt><trkpt lat="50.94588438617449" lon="11.760248211135874"><ele>247.0</ele><time>2026-05-03T15:44:56.926Z</time></trkpt><trkpt lat="50.94581425562061" lon="11.76015590149049"><ele>246.6</ele><time>2026-05-03T15:44:57.926Z</time></trkpt><trkpt lat="50.945732053320796" lon="11.760076805532035"><ele>246.2</ele><time>2026-05-03T15:44:58.926Z</time></trkpt><trkpt lat="50.9456645618836" lon="11.759959708848873"><ele>245.8</ele><time>2026-05-03T15:44:59.926Z</time></trkpt><trkpt lat="50.945587672230076" lon="11.75986015664312"><ele>245.4</ele><time>2026-05-03T15:45:00.926Z</time></trkpt><trkpt lat="50.94550524351545" lon="11.759757026501603"><ele>245.0</ele><time>2026-05-03T15:45:01.926Z</time></trkpt><trkpt lat="50.945412479774355" lon="11.759674069116057"><ele>245.0</ele><time>2026-05-03T15:45:02.926Z</time></trkpt><trkpt lat="50.945353721931234" lon="11.759557838280026"><ele>245.0</ele><time>2026-05-03T15:45:03.925Z</time></trkpt><trkpt lat="50.945263570756616" lon="11.759479842405112"><ele>245.0</ele><time>2026-05-03T15:45:04.925Z</time></trkpt><trkpt lat="50.945163250000455" lon="11.759415883308531"><ele>245.0</ele><time>2026-05-03T15:45:05.926Z</time></trkpt><trkpt lat="50.94506094176181" lon="11.75934297215357"><ele>245.0</ele><time>2026-05-03T15:45:06.926Z</time></trkpt><trkpt lat="50.9449502674361" lon="11.759266920775516"><ele>245.75</ele><time>2026-05-03T15:45:07.926Z</time></trkpt><trkpt lat="50.944839104209564" lon="11.759186337370341"><ele>246.5</ele><time>2026-05-03T15:45:08.926Z</time></trkpt><trkpt lat="50.94472495849092" lon="11.759104533614414"><ele>247.25</ele><time>2026-05-03T15:45:09.926Z</time></trkpt><trkpt lat="50.944616067723985" lon="11.759019448893813"><ele>248.0</ele><time>2026-05-03T15:45:10.926Z</time></trkpt><trkpt lat="50.94450859419916" lon="11.758941381123025"><ele>248.0</ele><time>2026-05-03T15:45:11.925Z</time></trkpt><trkpt lat="50.944399844358614" lon="11.758859739850998"><ele>248.0</ele><time>2026-05-03T15:45:12.926Z</time></trkpt><trkpt lat="50.94429077550591" lon="11.75877219617657"><ele>248.0</ele><time>2026-05-03T15:45:13.926Z</time></trkpt><trkpt lat="50.944184513117946" lon="11.758691932215884"><ele>248.0</ele><time>2026-05-03T15:45:14.926Z</time></trkpt><trkpt lat="50.944082708880444" lon="11.758618532304252"><ele>248.50000000000003</ele><time>2026-05-03T15:45:15.926Z</time></trkpt><trkpt lat="50.943992271822914" lon="11.75854676296239"><ele>249.0</ele><time>2026-05-03T15:45:16.926Z</time></trkpt><trkpt lat="50.94391195871847" lon="11.758496055725391"><ele>249.5</ele><time>2026-05-03T15:45:17.926Z</time></trkpt><trkpt lat="50.94383858239251" lon="11.758462199652595"><ele>250.0</ele><time>2026-05-03T15:45:18.926Z</time></trkpt><trkpt lat="50.94376865882065" lon="11.758435180855354"><ele>250.50000000000003</ele><time>2026-05-03T15:45:19.926Z</time></trkpt><trkpt lat="50.94369440398959" lon="11.758421403829955"><ele>251.0</ele><time>2026-05-03T15:45:20.926Z</time></trkpt><trkpt lat="50.943606991287446" lon="11.758418478553502"><ele>251.00000000000003</ele><time>2026-05-03T15:45:21.926Z</time></trkpt><trkpt lat="50.943527170654896" lon="11.758464670797792"><ele>251.0</ele><time>2026-05-03T15:45:22.926Z</time></trkpt><trkpt lat="50.94344192737591" lon="11.758526399230742"><ele>251.0</ele><time>2026-05-03T15:45:23.926Z</time></trkpt><trkpt lat="50.943363696528046" lon="11.758576501615147"><ele>251.0</ele><time>2026-05-03T15:45:24.926Z</time></trkpt><trkpt lat="50.9432897594588" lon="11.758649173393575"><ele>251.00000000000003</ele><time>2026-05-03T15:45:25.926Z</time></trkpt><trkpt lat="50.943210879061986" lon="11.75870900197017"><ele>251.0</ele><time>2026-05-03T15:45:26.926Z</time></trkpt><trkpt lat="50.94313279559211" lon="11.758770195745504"><ele>251.33333333333334</ele><time>2026-05-03T15:45:27.926Z</time></trkpt><trkpt lat="50.94304721642826" lon="11.758836775095041"><ele>251.66666666666669</ele><time>2026-05-03T15:45:28.926Z</time></trkpt><trkpt lat="50.942962358514585" lon="11.75889882131217"><ele>252.0</ele><time>2026-05-03T15:45:29.926Z</time></trkpt><trkpt lat="50.94288240906765" lon="11.758957649514711"><ele>252.33333333333331</ele><time>2026-05-03T15:45:30.926Z</time></trkpt><trkpt lat="50.94280898747911" lon="11.759012744017447"><ele>252.66666666666666</ele><time>2026-05-03T15:45:31.926Z</time></trkpt><trkpt lat="50.94274020907928" lon="11.759060970814991"><ele>253.0</ele><time>2026-05-03T15:45:32.926Z</time></trkpt><trkpt lat="50.942674050438264" lon="11.759110365683114"><ele>253.0</ele><time>2026-05-03T15:45:33.926Z</time></trkpt><trkpt lat="50.9425712314224" lon="11.759171051022722"><ele>253.0</ele><time>2026-05-03T15:45:35.926Z</time></trkpt><trkpt lat="50.9424896182434" lon="11.759268296965098"><ele>253.0</ele><time>2026-05-03T15:45:40.926Z</time></trkpt><trkpt lat="50.94252079712615" lon="11.759519923783122"><ele>253.0</ele><time>2026-05-03T15:45:42.926Z</time></trkpt><trkpt lat="50.94255423879632" lon="11.759673995273035"><ele>252.60000000000002</ele><time>2026-05-03T15:45:43.926Z</time></trkpt><trkpt lat="50.94258508181586" lon="11.759826498177338"><ele>252.20000000000002</ele><time>2026-05-03T15:45:44.926Z</time></trkpt><trkpt lat="50.94260151260538" lon="11.759995275437873"><ele>251.8</ele><time>2026-05-03T15:45:45.926Z</time></trkpt><trkpt lat="50.94261394638914" lon="11.760165526316975"><ele>251.4</ele><time>2026-05-03T15:45:46.926Z</time></trkpt><trkpt lat="50.94261468155078" lon="11.760303648921608"><ele>251.0</ele><time>2026-05-03T15:45:47.926Z</time></trkpt><trkpt lat="50.94260908379872" lon="11.760435519769361"><ele>250.8</ele><time>2026-05-03T15:45:48.926Z</time></trkpt><trkpt lat="50.942605063096124" lon="11.760571706044672"><ele>250.60000000000002</ele><time>2026-05-03T15:45:49.926Z</time></trkpt><trkpt lat="50.942607065624124" lon="11.760713238252075"><ele>250.4</ele><time>2026-05-03T15:45:50.926Z</time></trkpt><trkpt lat="50.94260211753622" lon="11.760866501468604"><ele>250.2</ele><time>2026-05-03T15:45:51.926Z</time></trkpt><trkpt lat="50.942593821720564" lon="11.76101495311896"><ele>250.0</ele><time>2026-05-03T15:45:52.926Z</time></trkpt><trkpt lat="50.942558011413034" lon="11.761170015895592"><ele>250.0</ele><time>2026-05-03T15:45:53.926Z</time></trkpt><trkpt lat="50.9425525479878" lon="11.76134316776457"><ele>250.0</ele><time>2026-05-03T15:45:54.926Z</time></trkpt><trkpt lat="50.94254725897283" lon="11.761528184009164"><ele>250.0</ele><time>2026-05-03T15:45:55.926Z</time></trkpt><trkpt lat="50.94254867160715" lon="11.761716613301871"><ele>250.0</ele><time>2026-05-03T15:45:56.926Z</time></trkpt><trkpt lat="50.942554056248696" lon="11.761911696626642"><ele>249.75</ele><time>2026-05-03T15:45:57.926Z</time></trkpt><trkpt lat="50.942586947574334" lon="11.762119890021207"><ele>249.5</ele><time>2026-05-03T15:45:58.926Z</time></trkpt><trkpt lat="50.942604622345925" lon="11.762337815192552"><ele>249.25</ele><time>2026-05-03T15:45:59.926Z</time></trkpt><trkpt lat="50.94262427516074" lon="11.762543245636259"><ele>249.0</ele><time>2026-05-03T15:46:00.926Z</time></trkpt><trkpt lat="50.94261665765539" lon="11.762737384941637"><ele>248.5</ele><time>2026-05-03T15:46:01.926Z</time></trkpt><trkpt lat="50.94264022378931" lon="11.76293912061109"><ele>248.0</ele><time>2026-05-03T15:46:02.926Z</time></trkpt><trkpt lat="50.942663943272315" lon="11.763148540328162"><ele>247.5</ele><time>2026-05-03T15:46:03.926Z</time></trkpt><trkpt lat="50.94268938369324" lon="11.763362462714385"><ele>247.0</ele><time>2026-05-03T15:46:04.926Z</time></trkpt><trkpt lat="50.94271398393769" lon="11.763584512289423"><ele>246.66666666666666</ele><time>2026-05-03T15:46:05.926Z</time></trkpt><trkpt lat="50.94274113710314" lon="11.76382568252212"><ele>246.33333333333331</ele><time>2026-05-03T15:46:06.926Z</time></trkpt><trkpt lat="50.942773089351086" lon="11.764074468116279"><ele>246.0</ele><time>2026-05-03T15:46:07.926Z</time></trkpt><trkpt lat="50.94280246314181" lon="11.764339655408595"><ele>246.0</ele><time>2026-05-03T15:46:08.926Z</time></trkpt><trkpt lat="50.94283190829544" lon="11.76461217168716"><ele>246.0</ele><time>2026-05-03T15:46:09.926Z</time></trkpt><trkpt lat="50.94286672630347" lon="11.764900558045039"><ele>246.0</ele><time>2026-05-03T15:46:10.926Z</time></trkpt><trkpt lat="50.942906957994175" lon="11.76519974107971"><ele>246.33333333333331</ele><time>2026-05-03T15:46:11.926Z</time></trkpt><trkpt lat="50.94294650623356" lon="11.765500001541199"><ele>246.66666666666666</ele><time>2026-05-03T15:46:12.926Z</time></trkpt><trkpt lat="50.94298741093101" lon="11.765800137846098"><ele>247.0</ele><time>2026-05-03T15:46:13.926Z</time></trkpt><trkpt lat="50.9430302138506" lon="11.766103087109387"><ele>248.0</ele><time>2026-05-03T15:46:14.926Z</time></trkpt><trkpt lat="50.94306720250458" lon="11.766394116808733"><ele>249.0</ele><time>2026-05-03T15:46:15.926Z</time></trkpt><trkpt lat="50.94308871282764" lon="11.766702602723457"><ele>250.0</ele><time>2026-05-03T15:46:16.926Z</time></trkpt><trkpt lat="50.943084923374954" lon="11.767003584366083"><ele>251.0</ele><time>2026-05-03T15:46:17.926Z</time></trkpt><trkpt lat="50.94306153413955" lon="11.76729319952359"><ele>252.0</ele><time>2026-05-03T15:46:18.926Z</time></trkpt><trkpt lat="50.943020890401" lon="11.76757390760676"><ele>253.0</ele><time>2026-05-03T15:46:19.926Z</time></trkpt><trkpt lat="50.94295283541341" lon="11.767865116640778"><ele>254.0</ele><time>2026-05-03T15:46:20.926Z</time></trkpt><trkpt lat="50.94287347081691" lon="11.768146619522454"><ele>255.0</ele><time>2026-05-03T15:46:21.926Z</time></trkpt><trkpt lat="50.94279387129029" lon="11.768416141192509"><ele>256.0</ele><time>2026-05-03T15:46:22.926Z</time></trkpt><trkpt lat="50.94271193492156" lon="11.768683908581126"><ele>257.3333333333333</ele><time>2026-05-03T15:46:23.926Z</time></trkpt><trkpt lat="50.94263074731796" lon="11.768943444830791"><ele>258.6666666666667</ele><time>2026-05-03T15:46:24.926Z</time></trkpt><trkpt lat="50.94255489365634" lon="11.769213820869926"><ele>260.0</ele><time>2026-05-03T15:46:25.926Z</time></trkpt><trkpt lat="50.94248531646138" lon="11.769489428767281"><ele>260.33333333333337</ele><time>2026-05-03T15:46:26.926Z</time></trkpt><trkpt lat="50.942428763922955" lon="11.769778304657677"><ele>260.6666666666667</ele><time>2026-05-03T15:46:27.926Z</time></trkpt><trkpt lat="50.94239674210903" lon="11.770083487309114"><ele>261.0</ele><time>2026-05-03T15:46:28.926Z</time></trkpt><trkpt lat="50.942385862796755" lon="11.77039907058442"><ele>261.0</ele><time>2026-05-03T15:46:29.926Z</time></trkpt><trkpt lat="50.94239790844713" lon="11.770715634622535"><ele>261.0</ele><time>2026-05-03T15:46:30.926Z</time></trkpt><trkpt lat="50.942422849484664" lon="11.771039569529325"><ele>261.0</ele><time>2026-05-03T15:46:31.926Z</time></trkpt><trkpt lat="50.9424410233123" lon="11.771367926481386"><ele>260.0</ele><time>2026-05-03T15:46:32.926Z</time></trkpt><trkpt lat="50.942452027673944" lon="11.771698697007164"><ele>259.0</ele><time>2026-05-03T15:46:33.926Z</time></trkpt><trkpt lat="50.942463518924335" lon="11.77203285946009"><ele>258.0</ele><time>2026-05-03T15:46:34.926Z</time></trkpt><trkpt lat="50.942479981264164" lon="11.772375041353971"><ele>256.0</ele><time>2026-05-03T15:46:35.926Z</time></trkpt><trkpt lat="50.94249412647898" lon="11.772714378716001"><ele>254.0</ele><time>2026-05-03T15:46:36.926Z</time></trkpt><trkpt lat="50.942513048482745" lon="11.773062141768094"><ele>252.0</ele><time>2026-05-03T15:46:37.926Z</time></trkpt><trkpt lat="50.942527188442845" lon="11.773411174964773"><ele>252.33333333333331</ele><time>2026-05-03T15:46:38.926Z</time></trkpt><trkpt lat="50.94254037530337" lon="11.773752991019574"><ele>252.66666666666666</ele><time>2026-05-03T15:46:39.926Z</time></trkpt><trkpt lat="50.94254982917612" lon="11.774107096758604"><ele>253.0</ele><time>2026-05-03T15:46:40.926Z</time></trkpt><trkpt lat="50.94255762397395" lon="11.774466779308932"><ele>252.0</ele><time>2026-05-03T15:46:41.926Z</time></trkpt><trkpt lat="50.942561753101174" lon="11.77482823211082"><ele>251.0</ele><time>2026-05-03T15:46:42.926Z</time></trkpt><trkpt lat="50.9425587111312" lon="11.775186780226234"><ele>250.5</ele><time>2026-05-03T15:46:43.926Z</time></trkpt><trkpt lat="50.94256211096112" lon="11.775547628245315"><ele>250.0</ele><time>2026-05-03T15:46:44.927Z</time></trkpt><trkpt lat="50.942565167472374" lon="11.775907339021247"><ele>249.0</ele><time>2026-05-03T15:46:45.927Z</time></trkpt><trkpt lat="50.94256890938111" lon="11.776267338594097"><ele>248.0</ele><time>2026-05-03T15:46:46.927Z</time></trkpt><trkpt lat="50.94257305493107" lon="11.776627906805725"><ele>247.0</ele><time>2026-05-03T15:46:47.927Z</time></trkpt><trkpt lat="50.94257634838743" lon="11.776992373474892"><ele>246.0</ele><time>2026-05-03T15:46:48.927Z</time></trkpt><trkpt lat="50.94258325272643" lon="11.777353422476057"><ele>246.0</ele><time>2026-05-03T15:46:49.927Z</time></trkpt><trkpt lat="50.94258547332058" lon="11.77771592234959"><ele>246.0</ele><time>2026-05-03T15:46:50.927Z</time></trkpt><trkpt lat="50.94258893180066" lon="11.778067426311514"><ele>246.0</ele><time>2026-05-03T15:46:51.927Z</time></trkpt><trkpt lat="50.94258714558067" lon="11.778410888784682"><ele>246.0</ele><time>2026-05-03T15:46:52.927Z</time></trkpt><trkpt lat="50.942591998821" lon="11.778743008240848"><ele>246.0</ele><time>2026-05-03T15:46:53.927Z</time></trkpt><trkpt lat="50.94260090416892" lon="11.779058467974782"><ele>247.33333333333331</ele><time>2026-05-03T15:46:54.927Z</time></trkpt><trkpt lat="50.94264076464411" lon="11.779356094643873"><ele>248.66666666666666</ele><time>2026-05-03T15:46:55.927Z</time></trkpt><trkpt lat="50.942712719777546" lon="11.77964382109862"><ele>250.0</ele><time>2026-05-03T15:46:56.927Z</time></trkpt><trkpt lat="50.942795161637726" lon="11.779933234735088"><ele>250.66666666666666</ele><time>2026-05-03T15:46:57.927Z</time></trkpt><trkpt lat="50.94288287374783" lon="11.780228178175493"><ele>251.33333333333331</ele><time>2026-05-03T15:46:58.927Z</time></trkpt><trkpt lat="50.94296855368393" lon="11.780529818270447"><ele>252.0</ele><time>2026-05-03T15:46:59.927Z</time></trkpt><trkpt lat="50.94305308090376" lon="11.780840084779072"><ele>252.0</ele><time>2026-05-03T15:47:00.927Z</time></trkpt><trkpt lat="50.943133707698436" lon="11.781157484864352"><ele>252.0</ele><time>2026-05-03T15:47:01.927Z</time></trkpt><trkpt lat="50.94322004867152" lon="11.7814715558951"><ele>252.0</ele><time>2026-05-03T15:47:02.927Z</time></trkpt><trkpt lat="50.94329809415957" lon="11.781757704175467"><ele>252.0</ele><time>2026-05-03T15:47:03.927Z</time></trkpt><trkpt lat="50.943369039514835" lon="11.78203368521617"><ele>252.0</ele><time>2026-05-03T15:47:04.927Z</time></trkpt><trkpt lat="50.94343126194498" lon="11.782281223089065"><ele>252.0</ele><time>2026-05-03T15:47:05.927Z</time></trkpt><trkpt lat="50.94349769760055" lon="11.782521585756541"><ele>252.33333333333331</ele><time>2026-05-03T15:47:06.927Z</time></trkpt><trkpt lat="50.943561050773006" lon="11.78275487474605"><ele>252.66666666666666</ele><time>2026-05-03T15:47:07.927Z</time></trkpt><trkpt lat="50.94362496041934" lon="11.782999549560868"><ele>253.0</ele><time>2026-05-03T15:47:08.925Z</time></trkpt><trkpt lat="50.94370151211733" lon="11.783254124584518"><ele>253.0</ele><time>2026-05-03T15:47:09.925Z</time></trkpt><trkpt lat="50.943773675752944" lon="11.78350451314044"><ele>253.0</ele><time>2026-05-03T15:47:10.925Z</time></trkpt><trkpt lat="50.94384497168384" lon="11.783764351302358"><ele>253.0</ele><time>2026-05-03T15:47:11.925Z</time></trkpt><trkpt lat="50.94391240962729" lon="11.784021381739786"><ele>252.66666666666666</ele><time>2026-05-03T15:47:12.925Z</time></trkpt><trkpt lat="50.94398166999694" lon="11.78428240781768"><ele>252.33333333333331</ele><time>2026-05-03T15:47:13.925Z</time></trkpt><trkpt lat="50.94405168120226" lon="11.784536831718327"><ele>252.0</ele><time>2026-05-03T15:47:14.925Z</time></trkpt><trkpt lat="50.94411820083434" lon="11.784795328688475"><ele>251.66666666666669</ele><time>2026-05-03T15:47:15.925Z</time></trkpt><trkpt lat="50.944190197618425" lon="11.785054731537889"><ele>251.33333333333334</ele><time>2026-05-03T15:47:16.925Z</time></trkpt><trkpt lat="50.94425973605017" lon="11.785317896160004"><ele>251.0</ele><time>2026-05-03T15:47:17.926Z</time></trkpt><trkpt lat="50.944327544173106" lon="11.785572050809938"><ele>251.66666666666669</ele><time>2026-05-03T15:47:18.926Z</time></trkpt><trkpt lat="50.94439529403622" lon="11.785817486160791"><ele>252.33333333333331</ele><time>2026-05-03T15:47:19.926Z</time></trkpt><trkpt lat="50.944462432813104" lon="11.786066526862099"><ele>253.0</ele><time>2026-05-03T15:47:20.925Z</time></trkpt><trkpt lat="50.9445195371669" lon="11.786296095453602"><ele>253.5</ele><time>2026-05-03T15:47:21.926Z</time></trkpt><trkpt lat="50.94458306495221" lon="11.786516350287755"><ele>254.0</ele><time>2026-05-03T15:47:22.926Z</time></trkpt><trkpt lat="50.9446343197606" lon="11.786735582110513"><ele>254.5</ele><time>2026-05-03T15:47:23.926Z</time></trkpt><trkpt lat="50.94468576670803" lon="11.786949335308382"><ele>255.0</ele><time>2026-05-03T15:47:24.926Z</time></trkpt><trkpt lat="50.94474478268267" lon="11.787166163376257"><ele>255.33333333333331</ele><time>2026-05-03T15:47:25.926Z</time></trkpt><trkpt lat="50.94480596007367" lon="11.787384511517226"><ele>255.66666666666666</ele><time>2026-05-03T15:47:26.926Z</time></trkpt><trkpt lat="50.94485863088909" lon="11.787609814228235"><ele>256.0</ele><time>2026-05-03T15:47:27.926Z</time></trkpt><trkpt lat="50.944912141260275" lon="11.787844181104637"><ele>256.0</ele><time>2026-05-03T15:47:28.926Z</time></trkpt><trkpt lat="50.944951981229" lon="11.78807803106187"><ele>256.0</ele><time>2026-05-03T15:47:29.926Z</time></trkpt><trkpt lat="50.94499044639273" lon="11.788317825666883"><ele>256.0</ele><time>2026-05-03T15:47:30.926Z</time></trkpt><trkpt lat="50.9450190890633" lon="11.788558464065552"><ele>256.3333333333333</ele><time>2026-05-03T15:47:31.926Z</time></trkpt><trkpt lat="50.94504181828946" lon="11.788794776047228"><ele>256.6666666666667</ele><time>2026-05-03T15:47:32.926Z</time></trkpt><trkpt lat="50.94506272301175" lon="11.789042436143186"><ele>257.0</ele><time>2026-05-03T15:47:33.926Z</time></trkpt><trkpt lat="50.94507544093114" lon="11.789282502305893"><ele>259.33333333333337</ele><time>2026-05-03T15:47:34.926Z</time></trkpt><trkpt lat="50.94508706787176" lon="11.78952962726095"><ele>261.6666666666667</ele><time>2026-05-03T15:47:35.926Z</time></trkpt><trkpt lat="50.94509489927893" lon="11.78977570032152"><ele>264.0</ele><time>2026-05-03T15:47:36.926Z</time></trkpt><trkpt lat="50.94510154710198" lon="11.790026809046237"><ele>263.6666666666667</ele><time>2026-05-03T15:47:37.926Z</time></trkpt><trkpt lat="50.94510853855832" lon="11.79026754640791"><ele>263.33333333333337</ele><time>2026-05-03T15:47:38.926Z</time></trkpt><trkpt lat="50.94511575608942" lon="11.790515577346433"><ele>263.0</ele><time>2026-05-03T15:47:39.926Z</time></trkpt><trkpt lat="50.945101198029114" lon="11.790773650001015"><ele>263.0</ele><time>2026-05-03T15:47:40.926Z</time></trkpt><trkpt lat="50.945120161039554" lon="11.791017873474148"><ele>263.0</ele><time>2026-05-03T15:47:41.926Z</time></trkpt><trkpt lat="50.94515041609065" lon="11.791255362178735"><ele>263.0</ele><time>2026-05-03T15:47:42.926Z</time></trkpt><trkpt lat="50.945195219722414" lon="11.791471311477848"><ele>263.0</ele><time>2026-05-03T15:47:43.926Z</time></trkpt><trkpt lat="50.94524202921939" lon="11.79169835166828"><ele>263.0</ele><time>2026-05-03T15:47:44.926Z</time></trkpt><trkpt lat="50.94528626574624" lon="11.791942347669654"><ele>263.0</ele><time>2026-05-03T15:47:45.926Z</time></trkpt><trkpt lat="50.945326808852776" lon="11.792192009150389"><ele>263.0</ele><time>2026-05-03T15:47:46.926Z</time></trkpt><trkpt lat="50.94537153208595" lon="11.792436206351217"><ele>263.0</ele><time>2026-05-03T15:47:47.926Z</time></trkpt><trkpt lat="50.945418960139115" lon="11.792685602560482"><ele>263.0</ele><time>2026-05-03T15:47:48.926Z</time></trkpt><trkpt lat="50.94546554373117" lon="11.792945721629108"><ele>263.0</ele><time>2026-05-03T15:47:49.926Z</time></trkpt><trkpt lat="50.94551392236933" lon="11.793211903503964"><ele>263.0</ele><time>2026-05-03T15:47:50.926Z</time></trkpt><trkpt lat="50.945563215727425" lon="11.793480275653167"><ele>263.0</ele><time>2026-05-03T15:47:51.926Z</time></trkpt><trkpt lat="50.945610113695196" lon="11.793752774090658"><ele>263.0</ele><time>2026-05-03T15:47:52.926Z</time></trkpt><trkpt lat="50.94565743593449" lon="11.794037140748049"><ele>263.0</ele><time>2026-05-03T15:47:53.926Z</time></trkpt><trkpt lat="50.945707801225566" lon="11.794331339361657"><ele>263.0</ele><time>2026-05-03T15:47:54.926Z</time></trkpt><trkpt lat="50.94576160723549" lon="11.794638303949016"><ele>262.33333333333337</ele><time>2026-05-03T15:47:55.926Z</time></trkpt><trkpt lat="50.94581681884092" lon="11.794960644537104"><ele>261.6666666666667</ele><time>2026-05-03T15:47:56.926Z</time></trkpt><trkpt lat="50.94587197051292" lon="11.795290593698224"><ele>261.0</ele><time>2026-05-03T15:47:57.926Z</time></trkpt><trkpt lat="50.9459312300404" lon="11.795629283076511"><ele>261.0</ele><time>2026-05-03T15:47:58.926Z</time></trkpt><trkpt lat="50.94599144622995" lon="11.795975457469472"><ele>261.0</ele><time>2026-05-03T15:47:59.926Z</time></trkpt><trkpt lat="50.94605213794925" lon="11.796315971377417"><ele>261.0</ele><time>2026-05-03T15:48:00.926Z</time></trkpt><trkpt lat="50.94611151843309" lon="11.796669906834573"><ele>260.6666666666667</ele><time>2026-05-03T15:48:01.926Z</time></trkpt><trkpt lat="50.94616927855677" lon="11.797010138788243"><ele>260.33333333333337</ele><time>2026-05-03T15:48:02.926Z</time></trkpt><trkpt lat="50.946228192277616" lon="11.797350321420947"><ele>260.0</ele><time>2026-05-03T15:48:03.926Z</time></trkpt><trkpt lat="50.94628665729394" lon="11.797677023801626"><ele>260.0</ele><time>2026-05-03T15:48:04.926Z</time></trkpt><trkpt lat="50.946345738415026" lon="11.798004373459772"><ele>260.0</ele><time>2026-05-03T15:48:05.926Z</time></trkpt><trkpt lat="50.94640201488158" lon="11.798332315415982"><ele>260.0</ele><time>2026-05-03T15:48:06.926Z</time></trkpt><trkpt lat="50.94645274504209" lon="11.798653332471595"><ele>260.0</ele><time>2026-05-03T15:48:07.926Z</time></trkpt><trkpt lat="50.946507073535564" lon="11.798968949535453"><ele>260.0</ele><time>2026-05-03T15:48:08.926Z</time></trkpt><trkpt lat="50.94657335194347" lon="11.799292030128202"><ele>260.0</ele><time>2026-05-03T15:48:09.926Z</time></trkpt><trkpt lat="50.94665530323925" lon="11.79962001128694"><ele>261.5</ele><time>2026-05-03T15:48:10.926Z</time></trkpt><trkpt lat="50.94675492586669" lon="11.799957713278"><ele>263.0</ele><time>2026-05-03T15:48:11.926Z</time></trkpt><trkpt lat="50.94687047547471" lon="11.80029344409714"><ele>263.0</ele><time>2026-05-03T15:48:12.926Z</time></trkpt><trkpt lat="50.94699083083531" lon="11.800609768801001"><ele>263.0</ele><time>2026-05-03T15:48:13.926Z</time></trkpt><trkpt lat="50.94710851464326" lon="11.800902833892994"><ele>262.0</ele><time>2026-05-03T15:48:14.926Z</time></trkpt><trkpt lat="50.94722015537752" lon="11.801192600395517"><ele>261.0</ele><time>2026-05-03T15:48:15.926Z</time></trkpt><trkpt lat="50.947330008931154" lon="11.801483462441501"><ele>260.0</ele><time>2026-05-03T15:48:16.926Z</time></trkpt><trkpt lat="50.947440674664634" lon="11.801768671296806"><ele>260.6666666666667</ele><time>2026-05-03T15:48:17.926Z</time></trkpt><trkpt lat="50.9475503634597" lon="11.802062215239557"><ele>261.3333333333333</ele><time>2026-05-03T15:48:18.926Z</time></trkpt><trkpt lat="50.94766406823441" lon="11.802361038419033"><ele>262.0</ele><time>2026-05-03T15:48:19.926Z</time></trkpt><trkpt lat="50.947784961368285" lon="11.80266666639355"><ele>262.0</ele><time>2026-05-03T15:48:20.926Z</time></trkpt><trkpt lat="50.94791267187647" lon="11.802982656524836"><ele>262.0</ele><time>2026-05-03T15:48:21.926Z</time></trkpt><trkpt lat="50.948033654568455" lon="11.803289271748332"><ele>261.3333333333333</ele><time>2026-05-03T15:48:22.926Z</time></trkpt><trkpt lat="50.94814903274096" lon="11.803593693567834"><ele>260.6666666666667</ele><time>2026-05-03T15:48:23.926Z</time></trkpt><trkpt lat="50.94825808935125" lon="11.803885157717897"><ele>260.0</ele><time>2026-05-03T15:48:24.926Z</time></trkpt><trkpt lat="50.94836809583471" lon="11.804179812413107"><ele>261.0</ele><time>2026-05-03T15:48:25.926Z</time></trkpt><trkpt lat="50.948481102401374" lon="11.804472727340386"><ele>262.0</ele><time>2026-05-03T15:48:26.926Z</time></trkpt><trkpt lat="50.948593497499516" lon="11.804763313178015"><ele>263.0</ele><time>2026-05-03T15:48:27.926Z</time></trkpt><trkpt lat="50.94870833889854" lon="11.805052697809318"><ele>262.33333333333337</ele><time>2026-05-03T15:48:28.926Z</time></trkpt><trkpt lat="50.94882074744672" lon="11.80534574558593"><ele>261.6666666666667</ele><time>2026-05-03T15:48:29.926Z</time></trkpt><trkpt lat="50.94893139464844" lon="11.805639022854363"><ele>261.0</ele><time>2026-05-03T15:48:30.926Z</time></trkpt><trkpt lat="50.949045164848684" lon="11.80592862501494"><ele>261.0</ele><time>2026-05-03T15:48:31.926Z</time></trkpt><trkpt lat="50.94915993053324" lon="11.806225366868267"><ele>261.0</ele><time>2026-05-03T15:48:32.926Z</time></trkpt><trkpt lat="50.94927289196134" lon="11.8065264501978"><ele>261.0</ele><time>2026-05-03T15:48:33.926Z</time></trkpt><trkpt lat="50.94938455346225" lon="11.806822374133457"><ele>262.6666666666667</ele><time>2026-05-03T15:48:34.926Z</time></trkpt><trkpt lat="50.94949839221832" lon="11.807115924277795"><ele>264.33333333333337</ele><time>2026-05-03T15:48:35.926Z</time></trkpt><trkpt lat="50.94961493793342" lon="11.807408224021941"><ele>266.0</ele><time>2026-05-03T15:48:36.926Z</time></trkpt><trkpt lat="50.949735483919284" lon="11.807715446078422"><ele>266.0</ele><time>2026-05-03T15:48:37.926Z</time></trkpt><trkpt lat="50.94985677871443" lon="11.808026633093597"><ele>266.0</ele><time>2026-05-03T15:48:38.926Z</time></trkpt><trkpt lat="50.94997654145302" lon="11.808340078074439"><ele>267.5</ele><time>2026-05-03T15:48:39.926Z</time></trkpt><trkpt lat="50.95009841174769" lon="11.808657389733439"><ele>269.0</ele><time>2026-05-03T15:48:40.926Z</time></trkpt><trkpt lat="50.9502197424456" lon="11.808979086087827"><ele>269.0</ele><time>2026-05-03T15:48:41.926Z</time></trkpt><trkpt lat="50.950343693913425" lon="11.80930180733102"><ele>269.0</ele><time>2026-05-03T15:48:42.926Z</time></trkpt><trkpt lat="50.950470270739594" lon="11.809620256623234"><ele>269.0</ele><time>2026-05-03T15:48:43.926Z</time></trkpt><trkpt lat="50.950597961509715" lon="11.809941255101954"><ele>269.0</ele><time>2026-05-03T15:48:44.926Z</time></trkpt><trkpt lat="50.95072659895585" lon="11.810257296511535"><ele>270.0</ele><time>2026-05-03T15:48:45.926Z</time></trkpt><trkpt lat="50.950855180783044" lon="11.810567752925293"><ele>271.0</ele><time>2026-05-03T15:48:46.926Z</time></trkpt><trkpt lat="50.95098502757011" lon="11.81087172836473"><ele>271.0</ele><time>2026-05-03T15:48:47.926Z</time></trkpt><trkpt lat="50.95110862263405" lon="11.811158071130075"><ele>271.0</ele><time>2026-05-03T15:48:48.926Z</time></trkpt><trkpt lat="50.95120987018612" lon="11.81142795064708"><ele>271.0</ele><time>2026-05-03T15:48:49.926Z</time></trkpt><trkpt lat="50.95131646581895" lon="11.81166850325812"><ele>271.3333333333333</ele><time>2026-05-03T15:48:50.926Z</time></trkpt><trkpt lat="50.95141306965077" lon="11.8118908662491"><ele>271.6666666666667</ele><time>2026-05-03T15:48:51.926Z</time></trkpt><trkpt lat="50.9515071262048" lon="11.812108866782546"><ele>272.0</ele><time>2026-05-03T15:48:52.926Z</time></trkpt><trkpt lat="50.951599998186055" lon="11.812325219519526"><ele>272.0</ele><time>2026-05-03T15:48:53.926Z</time></trkpt><trkpt lat="50.95168831323994" lon="11.812536109467446"><ele>272.0</ele><time>2026-05-03T15:48:54.926Z</time></trkpt><trkpt lat="50.95178011764602" lon="11.812743312399052"><ele>272.0</ele><time>2026-05-03T15:48:55.926Z</time></trkpt><trkpt lat="50.951881901221" lon="11.812945405488332"><ele>273.25</ele><time>2026-05-03T15:48:56.926Z</time></trkpt><trkpt lat="50.95199332050502" lon="11.813130503841471"><ele>274.5</ele><time>2026-05-03T15:48:57.926Z</time></trkpt><trkpt lat="50.952095964275856" lon="11.813291182711607"><ele>275.75</ele><time>2026-05-03T15:48:58.926Z</time></trkpt><trkpt lat="50.952193154580364" lon="11.813451153046444"><ele>277.0</ele><time>2026-05-03T15:48:59.926Z</time></trkpt><trkpt lat="50.95228672162442" lon="11.813607492741667"><ele>277.0</ele><time>2026-05-03T15:49:00.926Z</time></trkpt><trkpt lat="50.95237601846626" lon="11.813740923699019"><ele>277.0</ele><time>2026-05-03T15:49:01.926Z</time></trkpt><trkpt lat="50.95245094204847" lon="11.813882048502387"><ele>277.0</ele><time>2026-05-03T15:49:02.926Z</time></trkpt><trkpt lat="50.95253760110776" lon="11.814023249527171"><ele>277.0</ele><time>2026-05-03T15:49:03.926Z</time></trkpt><trkpt lat="50.95261884794103" lon="11.814166858452124"><ele>277.0</ele><time>2026-05-03T15:49:04.926Z</time></trkpt><trkpt lat="50.952714964963675" lon="11.814311591907828"><ele>277.0</ele><time>2026-05-03T15:49:05.926Z</time></trkpt><trkpt lat="50.95279815417119" lon="11.814459371038497"><ele>277.0</ele><time>2026-05-03T15:49:06.926Z</time></trkpt><trkpt lat="50.952885581713666" lon="11.814604220589175"><ele>277.0</ele><time>2026-05-03T15:49:07.926Z</time></trkpt><trkpt lat="50.95297748059592" lon="11.814765165103356"><ele>277.0</ele><time>2026-05-03T15:49:08.926Z</time></trkpt><trkpt lat="50.9530646273118" lon="11.814916394493507"><ele>277.0</ele><time>2026-05-03T15:49:09.926Z</time></trkpt><trkpt lat="50.95314888927717" lon="11.815062979009404"><ele>277.0</ele><time>2026-05-03T15:49:10.926Z</time></trkpt><trkpt lat="50.953239874224394" lon="11.815208451659068"><ele>277.0</ele><time>2026-05-03T15:49:11.926Z</time></trkpt><trkpt lat="50.953325825776275" lon="11.815351753567386"><ele>277.6</ele><time>2026-05-03T15:49:12.926Z</time></trkpt><trkpt lat="50.953405162134494" lon="11.815479840926592"><ele>278.2</ele><time>2026-05-03T15:49:13.926Z</time></trkpt><trkpt lat="50.953479631485294" lon="11.815603991658953"><ele>278.8</ele><time>2026-05-03T15:49:14.925Z</time></trkpt><trkpt lat="50.953546803380355" lon="11.815718859231783"><ele>279.4</ele><time>2026-05-03T15:49:15.925Z</time></trkpt><trkpt lat="50.95360578460444" lon="11.815823979335036"><ele>280.0</ele><time>2026-05-03T15:49:16.925Z</time></trkpt><trkpt lat="50.95366145763734" lon="11.815925513920826"><ele>279.8333333333333</ele><time>2026-05-03T15:49:17.925Z</time></trkpt><trkpt lat="50.953720013546494" lon="11.816027601660126"><ele>279.66666666666663</ele><time>2026-05-03T15:49:18.924Z</time></trkpt><trkpt lat="50.953762968320476" lon="11.816121633655346"><ele>279.5</ele><time>2026-05-03T15:49:19.924Z</time></trkpt><trkpt lat="50.9537783356139" lon="11.816286453769047"><ele>279.3333333333333</ele><time>2026-05-03T15:49:21.925Z</time></trkpt><trkpt lat="50.95373467064726" lon="11.816361792373579"><ele>279.1666666666667</ele><time>2026-05-03T15:49:22.925Z</time></trkpt><trkpt lat="50.953664509698875" lon="11.816424977288031"><ele>279.0</ele><time>2026-05-03T15:49:23.925Z</time></trkpt><trkpt lat="50.953594455335775" lon="11.816508590364865"><ele>279.0</ele><time>2026-05-03T15:49:24.925Z</time></trkpt><trkpt lat="50.953514753997815" lon="11.816611696515821"><ele>279.0</ele><time>2026-05-03T15:49:25.925Z</time></trkpt><trkpt lat="50.953429997336556" lon="11.8167422486403"><ele>279.0</ele><time>2026-05-03T15:49:26.925Z</time></trkpt><trkpt lat="50.95334433442147" lon="11.816877814415983"><ele>279.0</ele><time>2026-05-03T15:49:27.925Z</time></trkpt><trkpt lat="50.953255547838815" lon="11.817009787103064"><ele>278.75</ele><time>2026-05-03T15:49:28.925Z</time></trkpt><trkpt lat="50.95315573584185" lon="11.817141192737301"><ele>278.5</ele><time>2026-05-03T15:49:29.925Z</time></trkpt><trkpt lat="50.95304549373725" lon="11.817273173567557"><ele>278.25</ele><time>2026-05-03T15:49:30.925Z</time></trkpt><trkpt lat="50.95293199617465" lon="11.817401841963814"><ele>278.0</ele><time>2026-05-03T15:49:31.925Z</time></trkpt><trkpt lat="50.95282562890343" lon="11.817520979149208"><ele>278.0</ele><time>2026-05-03T15:49:32.925Z</time></trkpt><trkpt lat="50.952731885478435" lon="11.817625872946554"><ele>278.0</ele><time>2026-05-03T15:49:33.925Z</time></trkpt><trkpt lat="50.95264616853073" lon="11.817717561288747"><ele>278.0</ele><time>2026-05-03T15:49:34.925Z</time></trkpt><trkpt lat="50.952569783140376" lon="11.817802055472919"><ele>278.0</ele><time>2026-05-03T15:49:35.925Z</time></trkpt><trkpt lat="50.95249973984793" lon="11.81787729339478"><ele>278.0</ele><time>2026-05-03T15:49:36.925Z</time></trkpt><trkpt lat="50.95243497517514" lon="11.81794659452045"><ele>278.4</ele><time>2026-05-03T15:49:37.925Z</time></trkpt><trkpt lat="50.952377290335484" lon="11.818014342588905"><ele>278.8</ele><time>2026-05-03T15:49:38.925Z</time></trkpt><trkpt lat="50.952310118087325" lon="11.818085531833265"><ele>279.2</ele><time>2026-05-03T15:49:40.925Z</time></trkpt><trkpt lat="50.9522422279119" lon="11.81819045278512"><ele>279.6</ele><time>2026-05-03T15:49:43.925Z</time></trkpt><trkpt lat="50.95231146426515" lon="11.818309969065862"><ele>280.0</ele><time>2026-05-03T15:49:45.925Z</time></trkpt><trkpt lat="50.95241321309731" lon="11.818244209703344"><ele>280.0</ele><time>2026-05-03T15:49:47.925Z</time></trkpt><trkpt lat="50.95241069081611" lon="11.818117353076245"><ele>280.0</ele><time>2026-05-03T15:49:49.925Z</time></trkpt><trkpt lat="50.952416343603595" lon="11.817998497137015"><ele>280.0</ele><time>2026-05-03T15:49:51.925Z</time></trkpt><trkpt lat="50.95245819396619" lon="11.817921834053168"><ele>280.0</ele><time>2026-05-03T15:49:52.925Z</time></trkpt><trkpt lat="50.9525378706369" lon="11.817844292463725"><ele>280.0</ele><time>2026-05-03T15:49:53.925Z</time></trkpt><trkpt lat="50.952637898642195" lon="11.817763727627673"><ele>280.0</ele><time>2026-05-03T15:49:54.925Z</time></trkpt><trkpt lat="50.95274970948211" lon="11.817649386061316"><ele>279.3333333333333</ele><time>2026-05-03T15:49:55.925Z</time></trkpt><trkpt lat="50.95286579679759" lon="11.81751155110565"><ele>278.6666666666667</ele><time>2026-05-03T15:49:56.925Z</time></trkpt><trkpt lat="50.952992462848435" lon="11.817364886045508"><ele>278.0</ele><time>2026-05-03T15:49:57.925Z</time></trkpt><trkpt lat="50.953119558042715" lon="11.817215675652733"><ele>278.0</ele><time>2026-05-03T15:49:58.925Z</time></trkpt><trkpt lat="50.95322743575937" lon="11.817078875433703"><ele>278.0</ele><time>2026-05-03T15:49:59.925Z</time></trkpt><trkpt lat="50.953325780764935" lon="11.816956198795632"><ele>278.0</ele><time>2026-05-03T15:50:00.925Z</time></trkpt><trkpt lat="50.9534185506085" lon="11.816831455362292"><ele>278.0</ele><time>2026-05-03T15:50:01.925Z</time></trkpt><trkpt lat="50.95351437200544" lon="11.81669908503556"><ele>278.2</ele><time>2026-05-03T15:50:02.925Z</time></trkpt><trkpt lat="50.95360156610702" lon="11.816579042932712"><ele>278.4</ele><time>2026-05-03T15:50:03.925Z</time></trkpt><trkpt lat="50.95367707439049" lon="11.81647267291888"><ele>278.59999999999997</ele><time>2026-05-03T15:50:04.925Z</time></trkpt><trkpt lat="50.95374060341842" lon="11.816394729164642"><ele>278.8</ele><time>2026-05-03T15:50:05.925Z</time></trkpt><trkpt lat="50.95382758218599" lon="11.816304922649339"><ele>279.0</ele><time>2026-05-03T15:50:07.925Z</time></trkpt><trkpt lat="50.95394759453799" lon="11.816589416629796"><ele>279.0</ele><time>2026-05-03T15:50:10.925Z</time></trkpt><trkpt lat="50.953992440187314" lon="11.816724597117885"><ele>279.0</ele><time>2026-05-03T15:50:11.925Z</time></trkpt><trkpt lat="50.95404554317943" lon="11.816878805998016"><ele>279.0</ele><time>2026-05-03T15:50:12.925Z</time></trkpt><trkpt lat="50.95410854337843" lon="11.817043364336053"><ele>279.0</ele><time>2026-05-03T15:50:13.925Z</time></trkpt><trkpt lat="50.95417611258496" lon="11.817222624748482"><ele>279.0</ele><time>2026-05-03T15:50:14.925Z</time></trkpt><trkpt lat="50.95425243005032" lon="11.817415560238073"><ele>279.0</ele><time>2026-05-03T15:50:15.925Z</time></trkpt><trkpt lat="50.954331583640254" lon="11.81762644310994"><ele>279.0</ele><time>2026-05-03T15:50:16.925Z</time></trkpt><trkpt lat="50.95441168002946" lon="11.817847973288616"><ele>279.0</ele><time>2026-05-03T15:50:17.925Z</time></trkpt><trkpt lat="50.95449404285044" lon="11.818077046682571"><ele>279.0</ele><time>2026-05-03T15:50:18.925Z</time></trkpt><trkpt lat="50.95458452083078" lon="11.818322341054435"><ele>279.0</ele><time>2026-05-03T15:50:19.925Z</time></trkpt><trkpt lat="50.954671780122105" lon="11.81857503428364"><ele>278.6666666666667</ele><time>2026-05-03T15:50:20.925Z</time></trkpt><trkpt lat="50.954769076999746" lon="11.818835585534536"><ele>278.33333333333337</ele><time>2026-05-03T15:50:21.925Z</time></trkpt><trkpt lat="50.95487082768254" lon="11.819096370281322"><ele>278.0</ele><time>2026-05-03T15:50:22.925Z</time></trkpt><trkpt lat="50.95497127820344" lon="11.819354732960552"><ele>278.0</ele><time>2026-05-03T15:50:23.925Z</time></trkpt><trkpt lat="50.955065745922184" lon="11.81961553131809"><ele>278.0</ele><time>2026-05-03T15:50:24.925Z</time></trkpt><trkpt lat="50.95516213242036" lon="11.8198755647444"><ele>278.0</ele><time>2026-05-03T15:50:25.925Z</time></trkpt><trkpt lat="50.95526177531065" lon="11.820135756726"><ele>277.6666666666667</ele><time>2026-05-03T15:50:26.925Z</time></trkpt><trkpt lat="50.95535289787578" lon="11.82039596420376"><ele>277.3333333333333</ele><time>2026-05-03T15:50:27.925Z</time></trkpt><trkpt lat="50.955445860177385" lon="11.820653807281317"><ele>277.0</ele><time>2026-05-03T15:50:28.925Z</time></trkpt><trkpt lat="50.95553866474915" lon="11.820911834871875"><ele>277.3333333333333</ele><time>2026-05-03T15:50:29.925Z</time></trkpt><trkpt lat="50.955634501371954" lon="11.821168208637003"><ele>277.6666666666667</ele><time>2026-05-03T15:50:30.925Z</time></trkpt><trkpt lat="50.9557315776421" lon="11.821430011365191"><ele>278.0</ele><time>2026-05-03T15:50:31.925Z</time></trkpt><trkpt lat="50.955828702121885" lon="11.821689478951708"><ele>277.6666666666667</ele><time>2026-05-03T15:50:32.925Z</time></trkpt><trkpt lat="50.955924050253614" lon="11.821944556647324"><ele>277.3333333333333</ele><time>2026-05-03T15:50:33.925Z</time></trkpt><trkpt lat="50.956022594706496" lon="11.82220032224668"><ele>277.0</ele><time>2026-05-03T15:50:34.925Z</time></trkpt><trkpt lat="50.95613043535762" lon="11.822455121729774"><ele>276.66666666666663</ele><time>2026-05-03T15:50:35.925Z</time></trkpt><trkpt lat="50.95625256882615" lon="11.822713571009187"><ele>276.3333333333333</ele><time>2026-05-03T15:50:36.925Z</time></trkpt><trkpt lat="50.95637180065915" lon="11.822980197267885"><ele>276.0</ele><time>2026-05-03T15:50:37.925Z</time></trkpt><trkpt lat="50.95648933213029" lon="11.823248225919953"><ele>276.0</ele><time>2026-05-03T15:50:38.925Z</time></trkpt><trkpt lat="50.95661094447885" lon="11.823525956220147"><ele>276.0</ele><time>2026-05-03T15:50:39.925Z</time></trkpt><trkpt lat="50.95673461606684" lon="11.82381116068466"><ele>276.0</ele><time>2026-05-03T15:50:40.925Z</time></trkpt><trkpt lat="50.956862508612964" lon="11.824099001314433"><ele>275.6666666666667</ele><time>2026-05-03T15:50:41.925Z</time></trkpt><trkpt lat="50.95698905351267" lon="11.82438441045875"><ele>275.33333333333337</ele><time>2026-05-03T15:50:42.925Z</time></trkpt><trkpt lat="50.95711832850577" lon="11.824680688696983"><ele>275.0</ele><time>2026-05-03T15:50:43.925Z</time></trkpt><trkpt lat="50.95724371826719" lon="11.824974246267438"><ele>274.5</ele><time>2026-05-03T15:50:44.925Z</time></trkpt><trkpt lat="50.957374652987454" lon="11.825273233474414"><ele>274.0</ele><time>2026-05-03T15:50:45.925Z</time></trkpt><trkpt lat="50.95751222122035" lon="11.825579231187387"><ele>274.0</ele><time>2026-05-03T15:50:46.925Z</time></trkpt><trkpt lat="50.95765002393088" lon="11.82589676784323"><ele>274.0</ele><time>2026-05-03T15:50:47.925Z</time></trkpt><trkpt lat="50.957788915626836" lon="11.826213978025653"><ele>274.0</ele><time>2026-05-03T15:50:48.925Z</time></trkpt><trkpt lat="50.95792542391045" lon="11.82653620331505"><ele>274.0</ele><time>2026-05-03T15:50:49.925Z</time></trkpt><trkpt lat="50.958059114637635" lon="11.826877846077425"><ele>274.0</ele><time>2026-05-03T15:50:50.925Z</time></trkpt><trkpt lat="50.95818925576382" lon="11.827226223488502"><ele>274.0</ele><time>2026-05-03T15:50:51.925Z</time></trkpt><trkpt lat="50.95832173382848" lon="11.827578672430151"><ele>272.0</ele><time>2026-05-03T15:50:52.925Z</time></trkpt><trkpt lat="50.95845918410815" lon="11.827932861035451"><ele>270.0</ele><time>2026-05-03T15:50:53.925Z</time></trkpt><trkpt lat="50.958601499023416" lon="11.828294812625266"><ele>270.0</ele><time>2026-05-03T15:50:54.925Z</time></trkpt><trkpt lat="50.95874489142418" lon="11.828666241332687"><ele>270.0</ele><time>2026-05-03T15:50:55.925Z</time></trkpt><trkpt lat="50.95889042416631" lon="11.829045503125728"><ele>270.0</ele><time>2026-05-03T15:50:56.925Z</time></trkpt><trkpt lat="50.95903931835235" lon="11.829428645668344"><ele>270.0</ele><time>2026-05-03T15:50:57.925Z</time></trkpt><trkpt lat="50.959185546970474" lon="11.829811973174213"><ele>270.5</ele><time>2026-05-03T15:50:58.925Z</time></trkpt><trkpt lat="50.95933267850271" lon="11.830201531335849"><ele>271.0</ele><time>2026-05-03T15:50:59.925Z</time></trkpt><trkpt lat="50.959480663328634" lon="11.830581723594737"><ele>271.0</ele><time>2026-05-03T15:51:00.925Z</time></trkpt><trkpt lat="50.959621158320886" lon="11.830946660456547"><ele>271.0</ele><time>2026-05-03T15:51:01.925Z</time></trkpt><trkpt lat="50.95974754428861" lon="11.83128489422821"><ele>270.5</ele><time>2026-05-03T15:51:02.925Z</time></trkpt><trkpt lat="50.959867016155634" lon="11.83160147528935"><ele>270.0</ele><time>2026-05-03T15:51:03.925Z</time></trkpt><trkpt lat="50.95998992722663" lon="11.831908554587246"><ele>270.0</ele><time>2026-05-03T15:51:04.925Z</time></trkpt><trkpt lat="50.96011339063834" lon="11.832209882709265"><ele>270.0</ele><time>2026-05-03T15:51:05.925Z</time></trkpt><trkpt lat="50.960258188683014" lon="11.832501981202396"><ele>270.0</ele><time>2026-05-03T15:51:06.925Z</time></trkpt><trkpt lat="50.96039377632738" lon="11.832792581896754"><ele>270.0</ele><time>2026-05-03T15:51:07.925Z</time></trkpt><trkpt lat="50.96052575772827" lon="11.833119632926252"><ele>270.0</ele><time>2026-05-03T15:51:08.925Z</time></trkpt><trkpt lat="50.96066362103823" lon="11.833412144879155"><ele>270.0</ele><time>2026-05-03T15:51:09.925Z</time></trkpt><trkpt lat="50.96087106253322" lon="11.833574325628572"><ele>270.6666666666667</ele><time>2026-05-03T15:51:10.925Z</time></trkpt><trkpt lat="50.96104108724949" lon="11.833766713695397"><ele>271.33333333333337</ele><time>2026-05-03T15:51:11.925Z</time></trkpt><trkpt lat="50.96119238703714" lon="11.833942970146145"><ele>272.0</ele><time>2026-05-03T15:51:12.925Z</time></trkpt><trkpt lat="50.96133331768752" lon="11.834106776886243"><ele>272.0</ele><time>2026-05-03T15:51:13.925Z</time></trkpt><trkpt lat="50.96146042592309" lon="11.834254926929233"><ele>272.0</ele><time>2026-05-03T15:51:14.925Z</time></trkpt><trkpt lat="50.96156960389253" lon="11.834373935241171"><ele>272.0</ele><time>2026-05-03T15:51:15.925Z</time></trkpt><trkpt lat="50.96166822231559" lon="11.834482390828095"><ele>272.0</ele><time>2026-05-03T15:51:16.925Z</time></trkpt><trkpt lat="50.96175291302848" lon="11.834578562481225"><ele>272.0</ele><time>2026-05-03T15:51:17.925Z</time></trkpt><trkpt lat="50.961827615683376" lon="11.834661935604636"><ele>272.0</ele><time>2026-05-03T15:51:18.925Z</time></trkpt><trkpt lat="50.961902272467654" lon="11.834739565666222"><ele>272.0</ele><time>2026-05-03T15:51:19.925Z</time></trkpt><trkpt lat="50.96198560085471" lon="11.834828565014183"><ele>272.0</ele><time>2026-05-03T15:51:20.924Z</time></trkpt><trkpt lat="50.96208570414843" lon="11.83493402174827"><ele>272.0</ele><time>2026-05-03T15:51:21.924Z</time></trkpt><trkpt lat="50.96219945869716" lon="11.835065296489061"><ele>272.33333333333337</ele><time>2026-05-03T15:51:22.924Z</time></trkpt><trkpt lat="50.96232179416244" lon="11.835206496229894"><ele>272.6666666666667</ele><time>2026-05-03T15:51:23.924Z</time></trkpt><trkpt lat="50.96245043357611" lon="11.83535227288161"><ele>273.0</ele><time>2026-05-03T15:51:24.924Z</time></trkpt><trkpt lat="50.96258582973591" lon="11.835509302950769"><ele>273.6666666666667</ele><time>2026-05-03T15:51:25.924Z</time></trkpt><trkpt lat="50.96272585907387" lon="11.835661479244937"><ele>274.33333333333337</ele><time>2026-05-03T15:51:26.924Z</time></trkpt><trkpt lat="50.96285652861426" lon="11.835805622464653"><ele>275.0</ele><time>2026-05-03T15:51:27.924Z</time></trkpt><trkpt lat="50.96298378251827" lon="11.83594354650617"><ele>274.6666666666667</ele><time>2026-05-03T15:51:28.924Z</time></trkpt><trkpt lat="50.96311341713731" lon="11.836082728408467"><ele>274.3333333333333</ele><time>2026-05-03T15:51:29.924Z</time></trkpt><trkpt lat="50.96324192739911" lon="11.83622075617283"><ele>274.0</ele><time>2026-05-03T15:51:30.924Z</time></trkpt><trkpt lat="50.963365934255826" lon="11.836360221953267"><ele>274.0</ele><time>2026-05-03T15:51:31.924Z</time></trkpt><trkpt lat="50.963486145989116" lon="11.836502831008534"><ele>274.0</ele><time>2026-05-03T15:51:32.924Z</time></trkpt><trkpt lat="50.9636110858027" lon="11.83664013360562"><ele>274.0</ele><time>2026-05-03T15:51:33.924Z</time></trkpt><trkpt lat="50.96373372188686" lon="11.836774913618116"><ele>273.75</ele><time>2026-05-03T15:51:34.924Z</time></trkpt><trkpt lat="50.96385433734925" lon="11.836910472283789"><ele>273.5</ele><time>2026-05-03T15:51:35.924Z</time></trkpt><trkpt lat="50.963973050759506" lon="11.837044291975868"><ele>273.25</ele><time>2026-05-03T15:51:36.924Z</time></trkpt><trkpt lat="50.96408737607902" lon="11.837189588711894"><ele>273.0</ele><time>2026-05-03T15:51:37.924Z</time></trkpt><trkpt lat="50.96419550253394" lon="11.837347297534011"><ele>272.6666666666667</ele><time>2026-05-03T15:51:38.924Z</time></trkpt><trkpt lat="50.964299254675254" lon="11.837525491574254"><ele>272.33333333333337</ele><time>2026-05-03T15:51:39.924Z</time></trkpt><trkpt lat="50.964401520966454" lon="11.837710305813404"><ele>272.0</ele><time>2026-05-03T15:51:40.924Z</time></trkpt><trkpt lat="50.9645004132562" lon="11.837899735207356"><ele>271.0</ele><time>2026-05-03T15:51:41.924Z</time></trkpt><trkpt lat="50.964596830039376" lon="11.838093399297508"><ele>270.0</ele><time>2026-05-03T15:51:42.924Z</time></trkpt><trkpt lat="50.96469230435372" lon="11.838305296167013"><ele>269.0</ele><time>2026-05-03T15:51:43.924Z</time></trkpt><trkpt lat="50.96478749693982" lon="11.838525730655967"><ele>269.0</ele><time>2026-05-03T15:51:44.924Z</time></trkpt><trkpt lat="50.96488359526937" lon="11.838751825976068"><ele>269.0</ele><time>2026-05-03T15:51:45.924Z</time></trkpt><trkpt lat="50.96497570814248" lon="11.838979141755116"><ele>269.0</ele><time>2026-05-03T15:51:46.924Z</time></trkpt><trkpt lat="50.96506297935753" lon="11.839211274511468"><ele>268.33333333333337</ele><time>2026-05-03T15:51:47.924Z</time></trkpt><trkpt lat="50.96514646394812" lon="11.839464314760171"><ele>267.6666666666667</ele><time>2026-05-03T15:51:48.924Z</time></trkpt><trkpt lat="50.96524133984985" lon="11.83971380927832"><ele>267.0</ele><time>2026-05-03T15:51:49.924Z</time></trkpt><trkpt lat="50.9653361501088" lon="11.839963152174047"><ele>266.6666666666667</ele><time>2026-05-03T15:51:50.924Z</time></trkpt><trkpt lat="50.965428147755894" lon="11.840207458752422"><ele>266.33333333333337</ele><time>2026-05-03T15:51:51.924Z</time></trkpt><trkpt lat="50.965523232093865" lon="11.840464668156105"><ele>266.0</ele><time>2026-05-03T15:51:52.924Z</time></trkpt><trkpt lat="50.96560953737372" lon="11.840718685998628"><ele>265.6666666666667</ele><time>2026-05-03T15:51:53.924Z</time></trkpt><trkpt lat="50.96569383037575" lon="11.84097674289583"><ele>265.3333333333333</ele><time>2026-05-03T15:51:54.924Z</time></trkpt><trkpt lat="50.965781835155155" lon="11.841232587019322"><ele>265.0</ele><time>2026-05-03T15:51:55.924Z</time></trkpt><trkpt lat="50.96587259766426" lon="11.841493297336166"><ele>265.0</ele><time>2026-05-03T15:51:56.924Z</time></trkpt><trkpt lat="50.96596504931888" lon="11.841755673553926"><ele>265.0</ele><time>2026-05-03T15:51:57.924Z</time></trkpt><trkpt lat="50.966056036934056" lon="11.842015185699422"><ele>265.0</ele><time>2026-05-03T15:51:58.924Z</time></trkpt><trkpt lat="50.966147237566375" lon="11.842265691600065"><ele>265.0</ele><time>2026-05-03T15:51:59.924Z</time></trkpt><trkpt lat="50.966238081794764" lon="11.842524850977215"><ele>265.0</ele><time>2026-05-03T15:52:00.924Z</time></trkpt><trkpt lat="50.96632898882691" lon="11.842795591390786"><ele>265.0</ele><time>2026-05-03T15:52:01.924Z</time></trkpt><trkpt lat="50.96642511939031" lon="11.843080325741285"><ele>264.3333333333333</ele><time>2026-05-03T15:52:02.924Z</time></trkpt><trkpt lat="50.966535443602844" lon="11.843369947017557"><ele>263.6666666666667</ele><time>2026-05-03T15:52:03.924Z</time></trkpt><trkpt lat="50.96666771660814" lon="11.843660529836358"><ele>263.0</ele><time>2026-05-03T15:52:04.924Z</time></trkpt><trkpt lat="50.96681592315557" lon="11.843948508578949"><ele>262.0</ele><time>2026-05-03T15:52:05.924Z</time></trkpt><trkpt lat="50.966970683491944" lon="11.844230207113837"><ele>261.0</ele><time>2026-05-03T15:52:06.924Z</time></trkpt><trkpt lat="50.96712963374663" lon="11.844515562330288"><ele>260.5</ele><time>2026-05-03T15:52:07.924Z</time></trkpt><trkpt lat="50.96729031166776" lon="11.844810373367178"><ele>260.0</ele><time>2026-05-03T15:52:08.924Z</time></trkpt><trkpt lat="50.96745357984071" lon="11.845121870555172"><ele>259.5</ele><time>2026-05-03T15:52:09.924Z</time></trkpt><trkpt lat="50.96761853745637" lon="11.84543872890582"><ele>259.0</ele><time>2026-05-03T15:52:10.924Z</time></trkpt><trkpt lat="50.967786989496425" lon="11.845754959707254"><ele>259.5</ele><time>2026-05-03T15:52:11.924Z</time></trkpt><trkpt lat="50.967959695062355" lon="11.846077529063555"><ele>260.0</ele><time>2026-05-03T15:52:12.924Z</time></trkpt><trkpt lat="50.96813501536947" lon="11.846404759809262"><ele>260.0</ele><time>2026-05-03T15:52:13.924Z</time></trkpt><trkpt lat="50.96831156008468" lon="11.84672504676493"><ele>260.0</ele><time>2026-05-03T15:52:14.924Z</time></trkpt><trkpt lat="50.968474699084695" lon="11.847034234841779"><ele>259.5</ele><time>2026-05-03T15:52:15.924Z</time></trkpt><trkpt lat="50.968630743314925" lon="11.847333942624289"><ele>259.0</ele><time>2026-05-03T15:52:16.924Z</time></trkpt><trkpt lat="50.96878081251735" lon="11.847631954479665"><ele>259.0</ele><time>2026-05-03T15:52:17.924Z</time></trkpt><trkpt lat="50.96892214366183" lon="11.847941557726765"><ele>259.0</ele><time>2026-05-03T15:52:18.924Z</time></trkpt><trkpt lat="50.96905197320514" lon="11.848268615757672"><ele>260.0</ele><time>2026-05-03T15:52:19.924Z</time></trkpt><trkpt lat="50.96916980387216" lon="11.84860168487346"><ele>261.0</ele><time>2026-05-03T15:52:20.924Z</time></trkpt><trkpt lat="50.96925826505967" lon="11.848949007528669"><ele>261.3333333333333</ele><time>2026-05-03T15:52:21.924Z</time></trkpt><trkpt lat="50.96935304443327" lon="11.84925731089828"><ele>261.66666666666663</ele><time>2026-05-03T15:52:22.924Z</time></trkpt><trkpt lat="50.96941300911415" lon="11.849557782801131"><ele>262.0</ele><time>2026-05-03T15:52:23.924Z</time></trkpt><trkpt lat="50.96946657260641" lon="11.84985607706306"><ele>262.66666666666663</ele><time>2026-05-03T15:52:24.924Z</time></trkpt><trkpt lat="50.96950838649465" lon="11.850156391111321"><ele>263.3333333333333</ele><time>2026-05-03T15:52:25.924Z</time></trkpt><trkpt lat="50.969549498866776" lon="11.850451088007253"><ele>264.0</ele><time>2026-05-03T15:52:26.924Z</time></trkpt><trkpt lat="50.96959388617102" lon="11.850737069941793"><ele>264.25</ele><time>2026-05-03T15:52:27.924Z</time></trkpt><trkpt lat="50.96964013579976" lon="11.851021079896643"><ele>264.5</ele><time>2026-05-03T15:52:28.924Z</time></trkpt><trkpt lat="50.96967373713784" lon="11.85125876891192"><ele>264.75</ele><time>2026-05-03T15:52:29.924Z</time></trkpt><trkpt lat="50.96970051480289" lon="11.851425171489762"><ele>265.0</ele><time>2026-05-03T15:52:30.924Z</time></trkpt><trkpt lat="50.96971356614719" lon="11.85154180542023"><ele>265.0</ele><time>2026-05-03T15:52:31.924Z</time></trkpt><trkpt lat="50.96972437683187" lon="11.851654545574277"><ele>265.0</ele><time>2026-05-03T15:53:23.924Z</time></trkpt><trkpt lat="50.969748917965866" lon="11.851784941988733"><ele>265.0</ele><time>2026-05-03T15:53:24.924Z</time></trkpt><trkpt lat="50.96978252299413" lon="11.85197316272194"><ele>265.0</ele><time>2026-05-03T15:53:25.924Z</time></trkpt><trkpt lat="50.96981682956724" lon="11.852202575987963"><ele>265.0</ele><time>2026-05-03T15:53:26.923Z</time></trkpt><trkpt lat="50.96984710899333" lon="11.852462203626182"><ele>266.3333333333333</ele><time>2026-05-03T15:53:27.923Z</time></trkpt><trkpt lat="50.969879007348865" lon="11.852746411780192"><ele>267.6666666666667</ele><time>2026-05-03T15:53:28.923Z</time></trkpt><trkpt lat="50.969912022461955" lon="11.85305617337286"><ele>269.0</ele><time>2026-05-03T15:53:29.924Z</time></trkpt><trkpt lat="50.969946641637215" lon="11.853381648989638"><ele>269.6666666666667</ele><time>2026-05-03T15:53:30.923Z</time></trkpt><trkpt lat="50.96998028471621" lon="11.85372537562409"><ele>270.3333333333333</ele><time>2026-05-03T15:53:31.923Z</time></trkpt><trkpt lat="50.970012454664264" lon="11.854075169880138"><ele>271.0</ele><time>2026-05-03T15:53:32.923Z</time></trkpt><trkpt lat="50.97004139462534" lon="11.854427758726452"><ele>271.0</ele><time>2026-05-03T15:53:33.924Z</time></trkpt><trkpt lat="50.9700698604309" lon="11.854797307633495"><ele>271.0</ele><time>2026-05-03T15:53:34.924Z</time></trkpt><trkpt lat="50.97009625377003" lon="11.855174850064799"><ele>272.0</ele><time>2026-05-03T15:53:35.924Z</time></trkpt><trkpt lat="50.97012167373745" lon="11.855535986383313"><ele>273.0</ele><time>2026-05-03T15:53:36.923Z</time></trkpt><trkpt lat="50.97014633720291" lon="11.855870378518945"><ele>274.0</ele><time>2026-05-03T15:53:37.923Z</time></trkpt><trkpt lat="50.97016747069148" lon="11.85618047788151"><ele>274.66666666666663</ele><time>2026-05-03T15:53:38.923Z</time></trkpt><trkpt lat="50.97018048117992" lon="11.856470123157102"><ele>275.3333333333333</ele><time>2026-05-03T15:53:39.923Z</time></trkpt><trkpt lat="50.9701903996007" lon="11.856744208896364"><ele>276.0</ele><time>2026-05-03T15:53:40.923Z</time></trkpt><trkpt lat="50.970200148100936" lon="11.856994514748486"><ele>276.3333333333333</ele><time>2026-05-03T15:53:41.923Z</time></trkpt><trkpt lat="50.97021043440163" lon="11.857250082604859"><ele>276.66666666666663</ele><time>2026-05-03T15:53:42.923Z</time></trkpt><trkpt lat="50.9702223201234" lon="11.857504758848275"><ele>277.0</ele><time>2026-05-03T15:53:43.923Z</time></trkpt><trkpt lat="50.97023708273271" lon="11.857749199508461"><ele>277.0</ele><time>2026-05-03T15:53:44.923Z</time></trkpt><trkpt lat="50.970250534717245" lon="11.857990211922244"><ele>277.0</ele><time>2026-05-03T15:53:45.923Z</time></trkpt><trkpt lat="50.97026512028363" lon="11.85822771835512"><ele>277.0</ele><time>2026-05-03T15:53:46.923Z</time></trkpt><trkpt lat="50.97027949881505" lon="11.858462911981091"><ele>277.25</ele><time>2026-05-03T15:53:47.923Z</time></trkpt><trkpt lat="50.9702950006746" lon="11.858689021526512"><ele>277.5</ele><time>2026-05-03T15:53:48.923Z</time></trkpt><trkpt lat="50.970306468479635" lon="11.85889625804817"><ele>277.75</ele><time>2026-05-03T15:53:49.923Z</time></trkpt><trkpt lat="50.97031401946855" lon="11.859084588427603"><ele>278.0</ele><time>2026-05-03T15:53:50.923Z</time></trkpt><trkpt lat="50.97032244545183" lon="11.859255396092422"><ele>278.0</ele><time>2026-05-03T15:53:51.923Z</time></trkpt><trkpt lat="50.97033369646432" lon="11.859422531323284"><ele>278.0</ele><time>2026-05-03T15:53:52.924Z</time></trkpt><trkpt lat="50.97034525971876" lon="11.859571307202916"><ele>278.0</ele><time>2026-05-03T15:53:53.924Z</time></trkpt><trkpt lat="50.97035459971096" lon="11.859706343225604"><ele>278.0</ele><time>2026-05-03T15:53:54.924Z</time></trkpt><trkpt lat="50.970363300131744" lon="11.859830793537382"><ele>278.0</ele><time>2026-05-03T15:53:55.924Z</time></trkpt><trkpt lat="50.970369950912215" lon="11.859955393865812"><ele>278.0</ele><time>2026-05-03T15:53:56.924Z</time></trkpt><trkpt lat="50.97037500122304" lon="11.860063894485764"><ele>278.2</ele><time>2026-05-03T15:53:57.924Z</time></trkpt><trkpt lat="50.97037875923404" lon="11.860169091530944"><ele>278.4</ele><time>2026-05-03T15:53:58.924Z</time></trkpt><trkpt lat="50.970382667921136" lon="11.86028952184905"><ele>278.59999999999997</ele><time>2026-05-03T15:53:59.924Z</time></trkpt><trkpt lat="50.97039674425853" lon="11.860430168053629"><ele>278.8</ele><time>2026-05-03T15:54:00.924Z</time></trkpt><trkpt lat="50.970404100843545" lon="11.860598854157343"><ele>279.0</ele><time>2026-05-03T15:54:01.924Z</time></trkpt><trkpt lat="50.97041282708856" lon="11.860785591074697"><ele>280.25</ele><time>2026-05-03T15:54:02.924Z</time></trkpt><trkpt lat="50.97042576062238" lon="11.860978255320369"><ele>281.5</ele><time>2026-05-03T15:54:03.924Z</time></trkpt><trkpt lat="50.97044033629101" lon="11.861180757850224"><ele>282.75</ele><time>2026-05-03T15:54:04.924Z</time></trkpt><trkpt lat="50.970455846072625" lon="11.861390926981347"><ele>284.0</ele><time>2026-05-03T15:54:05.924Z</time></trkpt><trkpt lat="50.97046955801405" lon="11.86161271689286"><ele>285.0</ele><time>2026-05-03T15:54:06.924Z</time></trkpt><trkpt lat="50.97048167031446" lon="11.861855287313617"><ele>286.0</ele><time>2026-05-03T15:54:07.924Z</time></trkpt><trkpt lat="50.97049524562073" lon="11.862110612498986"><ele>287.0</ele><time>2026-05-03T15:54:08.924Z</time></trkpt><trkpt lat="50.97051616988573" lon="11.86237937432868"><ele>286.6666666666667</ele><time>2026-05-03T15:54:09.924Z</time></trkpt><trkpt lat="50.97053134241348" lon="11.862621823754726"><ele>286.3333333333333</ele><time>2026-05-03T15:54:10.924Z</time></trkpt><trkpt lat="50.97055294333113" lon="11.862881623840506"><ele>286.0</ele><time>2026-05-03T15:54:11.924Z</time></trkpt><trkpt lat="50.9705730279478" lon="11.863147659069318"><ele>286.0</ele><time>2026-05-03T15:54:12.924Z</time></trkpt><trkpt lat="50.970585790334326" lon="11.863402057163722"><ele>286.0</ele><time>2026-05-03T15:54:13.924Z</time></trkpt><trkpt lat="50.97060325843322" lon="11.863661829287311"><ele>286.0</ele><time>2026-05-03T15:54:14.924Z</time></trkpt><trkpt lat="50.970621293703715" lon="11.863922753555258"><ele>286.3333333333333</ele><time>2026-05-03T15:54:15.924Z</time></trkpt><trkpt lat="50.970644962345276" lon="11.864194649489857"><ele>286.6666666666667</ele><time>2026-05-03T15:54:16.924Z</time></trkpt><trkpt lat="50.97066888403708" lon="11.864471988992133"><ele>287.0</ele><time>2026-05-03T15:54:17.924Z</time></trkpt><trkpt lat="50.97069842129547" lon="11.86474995443337"><ele>288.33333333333337</ele><time>2026-05-03T15:54:18.924Z</time></trkpt><trkpt lat="50.9707312382115" lon="11.865032083943584"><ele>289.6666666666667</ele><time>2026-05-03T15:54:19.924Z</time></trkpt><trkpt lat="50.97076255662538" lon="11.86533228900219"><ele>291.0</ele><time>2026-05-03T15:54:20.924Z</time></trkpt><trkpt lat="50.970801210076914" lon="11.86563686569267"><ele>291.6666666666667</ele><time>2026-05-03T15:54:21.924Z</time></trkpt><trkpt lat="50.97083991698843" lon="11.865944268261595"><ele>292.33333333333337</ele><time>2026-05-03T15:54:22.924Z</time></trkpt><trkpt lat="50.97087860801212" lon="11.866249373759295"><ele>293.0</ele><time>2026-05-03T15:54:23.924Z</time></trkpt><trkpt lat="50.970915332889625" lon="11.866539290575936"><ele>292.0</ele><time>2026-05-03T15:54:24.924Z</time></trkpt><trkpt lat="50.97095379504626" lon="11.866824576924028"><ele>291.0</ele><time>2026-05-03T15:54:25.924Z</time></trkpt><trkpt lat="50.97098775994533" lon="11.867108215671157"><ele>290.0</ele><time>2026-05-03T15:54:26.924Z</time></trkpt><trkpt lat="50.97102720550009" lon="11.867393343369448"><ele>290.33333333333337</ele><time>2026-05-03T15:54:27.924Z</time></trkpt><trkpt lat="50.97106635890455" lon="11.867689829425446"><ele>290.6666666666667</ele><time>2026-05-03T15:54:28.924Z</time></trkpt><trkpt lat="50.97110301840012" lon="11.86798878926097"><ele>291.0</ele><time>2026-05-03T15:54:29.924Z</time></trkpt><trkpt lat="50.971142307027804" lon="11.86830201589035"><ele>291.6666666666667</ele><time>2026-05-03T15:54:30.924Z</time></trkpt><trkpt lat="50.97118129764986" lon="11.868607809475854"><ele>292.33333333333337</ele><time>2026-05-03T15:54:31.924Z</time></trkpt><trkpt lat="50.97121739807671" lon="11.868895589935317"><ele>293.0</ele><time>2026-05-03T15:54:32.924Z</time></trkpt><trkpt lat="50.97125185221014" lon="11.869177581221345"><ele>293.0</ele><time>2026-05-03T15:54:33.924Z</time></trkpt><trkpt lat="50.97128080827066" lon="11.869456405867458"><ele>293.0</ele><time>2026-05-03T15:54:34.924Z</time></trkpt><trkpt lat="50.97131258707706" lon="11.869737734513013"><ele>293.0</ele><time>2026-05-03T15:54:35.924Z</time></trkpt><trkpt lat="50.97133503798339" lon="11.87001750358388"><ele>293.0</ele><time>2026-05-03T15:54:36.924Z</time></trkpt><trkpt lat="50.97135114694035" lon="11.870309891184682"><ele>293.0</ele><time>2026-05-03T15:54:37.924Z</time></trkpt><trkpt lat="50.9713579291773" lon="11.870599244130345"><ele>293.0</ele><time>2026-05-03T15:54:38.924Z</time></trkpt><trkpt lat="50.97135210805224" lon="11.870891279484967"><ele>294.33333333333337</ele><time>2026-05-03T15:54:39.924Z</time></trkpt><trkpt lat="50.97134304250325" lon="11.87117654186441"><ele>295.6666666666667</ele><time>2026-05-03T15:54:40.924Z</time></trkpt><trkpt lat="50.971332175741516" lon="11.871451899271579"><ele>297.0</ele><time>2026-05-03T15:54:41.924Z</time></trkpt><trkpt lat="50.971313731262384" lon="11.871717667674995"><ele>297.6666666666667</ele><time>2026-05-03T15:54:42.924Z</time></trkpt><trkpt lat="50.97128975561928" lon="11.871963515611997"><ele>298.33333333333337</ele><time>2026-05-03T15:54:43.924Z</time></trkpt><trkpt lat="50.97126279869012" lon="11.872203220887998"><ele>299.0</ele><time>2026-05-03T15:54:44.924Z</time></trkpt><trkpt lat="50.97123224379067" lon="11.872441580253147"><ele>299.0</ele><time>2026-05-03T15:54:45.924Z</time></trkpt><trkpt lat="50.971195528946225" lon="11.87266628016383"><ele>299.0</ele><time>2026-05-03T15:54:46.924Z</time></trkpt><trkpt lat="50.97115649348434" lon="11.872863650893557"><ele>299.0</ele><time>2026-05-03T15:54:47.924Z</time></trkpt><trkpt lat="50.97111562337316" lon="11.87304886597324"><ele>299.0</ele><time>2026-05-03T15:54:48.924Z</time></trkpt><trkpt lat="50.97107939124607" lon="11.87323115405859"><ele>299.0</ele><time>2026-05-03T15:54:49.924Z</time></trkpt><trkpt lat="50.97104186605676" lon="11.8734114784392"><ele>299.0</ele><time>2026-05-03T15:54:50.924Z</time></trkpt><trkpt lat="50.971004509415046" lon="11.873597799930431"><ele>299.0</ele><time>2026-05-03T15:54:51.924Z</time></trkpt><trkpt lat="50.97096462233315" lon="11.873790486835802"><ele>299.0</ele><time>2026-05-03T15:54:52.924Z</time></trkpt><trkpt lat="50.970929854060515" lon="11.873988060004049"><ele>298.75</ele><time>2026-05-03T15:54:53.924Z</time></trkpt><trkpt lat="50.97087954445779" lon="11.874185696682206"><ele>298.5</ele><time>2026-05-03T15:54:54.924Z</time></trkpt><trkpt lat="50.970861390431516" lon="11.874390146884378"><ele>298.25</ele><time>2026-05-03T15:54:55.924Z</time></trkpt><trkpt lat="50.97085048025368" lon="11.874587881000792"><ele>298.0</ele><time>2026-05-03T15:54:56.924Z</time></trkpt><trkpt lat="50.97084562580159" lon="11.874784664185308"><ele>298.0</ele><time>2026-05-03T15:54:57.924Z</time></trkpt><trkpt lat="50.97084876531792" lon="11.874979931142423"><ele>298.0</ele><time>2026-05-03T15:54:58.924Z</time></trkpt><trkpt lat="50.970852580633455" lon="11.875178756921429"><ele>298.0</ele><time>2026-05-03T15:54:59.924Z</time></trkpt><trkpt lat="50.97086167179075" lon="11.875376837597136"><ele>298.0</ele><time>2026-05-03T15:55:00.924Z</time></trkpt><trkpt lat="50.9708773222361" lon="11.87557880953748"><ele>297.25</ele><time>2026-05-03T15:55:01.924Z</time></trkpt><trkpt lat="50.970899489986245" lon="11.875781890076494"><ele>296.5</ele><time>2026-05-03T15:55:02.924Z</time></trkpt><trkpt lat="50.97092690784993" lon="11.875977567879987"><ele>295.75</ele><time>2026-05-03T15:55:03.924Z</time></trkpt><trkpt lat="50.97095573988596" lon="11.87617786756005"><ele>295.0</ele><time>2026-05-03T15:55:04.924Z</time></trkpt><trkpt lat="50.97098680311788" lon="11.876378508670552"><ele>294.25</ele><time>2026-05-03T15:55:05.924Z</time></trkpt><trkpt lat="50.97102033686262" lon="11.876575646956564"><ele>293.5</ele><time>2026-05-03T15:55:06.924Z</time></trkpt><trkpt lat="50.97105702166523" lon="11.876785210237447"><ele>292.75</ele><time>2026-05-03T15:55:07.924Z</time></trkpt><trkpt lat="50.97108912954207" lon="11.876986396933008"><ele>292.0</ele><time>2026-05-03T15:55:08.924Z</time></trkpt><trkpt lat="50.971119700196375" lon="11.877177087863165"><ele>291.25</ele><time>2026-05-03T15:55:09.924Z</time></trkpt><trkpt lat="50.97115174760794" lon="11.877359989233609"><ele>290.5</ele><time>2026-05-03T15:55:10.924Z</time></trkpt><trkpt lat="50.971182984440716" lon="11.877536645090036"><ele>289.75</ele><time>2026-05-03T15:55:11.924Z</time></trkpt><trkpt lat="50.97120796311026" lon="11.877707191598654"><ele>289.0</ele><time>2026-05-03T15:55:12.924Z</time></trkpt><trkpt lat="50.97122513501356" lon="11.877888611628462"><ele>288.75</ele><time>2026-05-03T15:55:13.924Z</time></trkpt><trkpt lat="50.97124682755271" lon="11.878073532095977"><ele>288.5</ele><time>2026-05-03T15:55:14.924Z</time></trkpt><trkpt lat="50.97126740756031" lon="11.878265075572575"><ele>288.25</ele><time>2026-05-03T15:55:15.924Z</time></trkpt><trkpt lat="50.97127979256246" lon="11.878462483960456"><ele>288.0</ele><time>2026-05-03T15:55:16.924Z</time></trkpt><trkpt lat="50.971288894151435" lon="11.878663350722949"><ele>287.25</ele><time>2026-05-03T15:55:17.924Z</time></trkpt><trkpt lat="50.97128800037803" lon="11.87886998521722"><ele>286.5</ele><time>2026-05-03T15:55:18.924Z</time></trkpt><trkpt lat="50.97128169341689" lon="11.879072789103319"><ele>285.75</ele><time>2026-05-03T15:55:19.924Z</time></trkpt><trkpt lat="50.971270356694774" lon="11.87928024708652"><ele>285.0</ele><time>2026-05-03T15:55:20.924Z</time></trkpt><trkpt lat="50.97124980334487" lon="11.879488485995749"><ele>284.75</ele><time>2026-05-03T15:55:21.924Z</time></trkpt><trkpt lat="50.971219618517374" lon="11.879698938521408"><ele>284.5</ele><time>2026-05-03T15:55:22.924Z</time></trkpt><trkpt lat="50.97118644059427" lon="11.879918881928996"><ele>284.25</ele><time>2026-05-03T15:55:23.924Z</time></trkpt><trkpt lat="50.97115278251066" lon="11.880138806326299"><ele>284.0</ele><time>2026-05-03T15:55:24.924Z</time></trkpt><trkpt lat="50.97111791281279" lon="11.880356377814211"><ele>283.5</ele><time>2026-05-03T15:55:25.924Z</time></trkpt><trkpt lat="50.971080745875284" lon="11.88056095234139"><ele>283.0</ele><time>2026-05-03T15:55:26.924Z</time></trkpt><trkpt lat="50.97104760421406" lon="11.880765123743636"><ele>282.5</ele><time>2026-05-03T15:55:27.924Z</time></trkpt><trkpt lat="50.971016542266334" lon="11.880974909674219"><ele>282.0</ele><time>2026-05-03T15:55:28.924Z</time></trkpt><trkpt lat="50.97098419930891" lon="11.881177632021014"><ele>282.0</ele><time>2026-05-03T15:55:29.924Z</time></trkpt><trkpt lat="50.9709541693265" lon="11.881373752831056"><ele>282.0</ele><time>2026-05-03T15:55:30.924Z</time></trkpt><trkpt lat="50.97092721277963" lon="11.881564312914213"><ele>282.0</ele><time>2026-05-03T15:55:31.924Z</time></trkpt><trkpt lat="50.97090387486015" lon="11.881750024018972"><ele>282.0</ele><time>2026-05-03T15:55:32.923Z</time></trkpt><trkpt lat="50.97087556773903" lon="11.881929785169833"><ele>282.8</ele><time>2026-05-03T15:55:33.923Z</time></trkpt><trkpt lat="50.970828509594455" lon="11.882103239753503"><ele>283.6</ele><time>2026-05-03T15:55:34.923Z</time></trkpt><trkpt lat="50.97079966387964" lon="11.882269792235581"><ele>284.40000000000003</ele><time>2026-05-03T15:55:35.923Z</time></trkpt><trkpt lat="50.97077118940921" lon="11.882425439728445"><ele>285.2</ele><time>2026-05-03T15:55:36.922Z</time></trkpt><trkpt lat="50.97073603780151" lon="11.882559866195853"><ele>286.0</ele><time>2026-05-03T15:55:37.922Z</time></trkpt><trkpt lat="50.97069267102041" lon="11.882673220573933"><ele>286.0</ele><time>2026-05-03T15:55:38.923Z</time></trkpt><trkpt lat="50.97064428666584" lon="11.882784274241374"><ele>286.0</ele><time>2026-05-03T15:55:39.922Z</time></trkpt><trkpt lat="50.970605939068356" lon="11.882896390757043"><ele>286.0</ele><time>2026-05-03T15:55:40.922Z</time></trkpt><trkpt lat="50.97059939400587" lon="11.883032589503474"><ele>286.0</ele><time>2026-05-03T15:55:41.923Z</time></trkpt><trkpt lat="50.970605097043844" lon="11.883179072546849"><ele>286.0</ele><time>2026-05-03T15:55:42.923Z</time></trkpt><trkpt lat="50.97061067360518" lon="11.883307395932736"><ele>286.0</ele><time>2026-05-03T15:55:43.923Z</time></trkpt><trkpt lat="50.97060252522698" lon="11.883448081710673"><ele>285.6</ele><time>2026-05-03T15:55:44.923Z</time></trkpt><trkpt lat="50.970585421507614" lon="11.883576832170682"><ele>285.20000000000005</ele><time>2026-05-03T15:55:45.923Z</time></trkpt><trkpt lat="50.97056637933598" lon="11.883710471376562"><ele>284.79999999999995</ele><time>2026-05-03T15:55:46.923Z</time></trkpt><trkpt lat="50.9705478494946" lon="11.883847343411835"><ele>284.4</ele><time>2026-05-03T15:55:47.923Z</time></trkpt><trkpt lat="50.9705258700883" lon="11.88398906085327"><ele>284.0</ele><time>2026-05-03T15:55:48.923Z</time></trkpt><trkpt lat="50.97049898741621" lon="11.884148056382054"><ele>283.5</ele><time>2026-05-03T15:55:49.923Z</time></trkpt><trkpt lat="50.97046828923344" lon="11.884322736397053"><ele>283.0</ele><time>2026-05-03T15:55:50.923Z</time></trkpt><trkpt lat="50.970438759999375" lon="11.884518338945846"><ele>282.5</ele><time>2026-05-03T15:55:51.923Z</time></trkpt><trkpt lat="50.970409703699026" lon="11.88471490076695"><ele>282.0</ele><time>2026-05-03T15:55:52.923Z</time></trkpt><trkpt lat="50.970379401738384" lon="11.884903021855886"><ele>282.25</ele><time>2026-05-03T15:55:53.923Z</time></trkpt><trkpt lat="50.97035058448654" lon="11.885098202405896"><ele>282.5</ele><time>2026-05-03T15:55:54.923Z</time></trkpt><trkpt lat="50.97032472786429" lon="11.885292228089003"><ele>282.75</ele><time>2026-05-03T15:55:55.923Z</time></trkpt><trkpt lat="50.97029514351214" lon="11.885485853779166"><ele>283.0</ele><time>2026-05-03T15:55:56.923Z</time></trkpt><trkpt lat="50.97027425902368" lon="11.885673581260406"><ele>283.0</ele><time>2026-05-03T15:55:57.923Z</time></trkpt><trkpt lat="50.97024406410097" lon="11.885861742940147"><ele>283.0</ele><time>2026-05-03T15:55:58.923Z</time></trkpt><trkpt lat="50.97021725131417" lon="11.886039561662201"><ele>283.0</ele><time>2026-05-03T15:55:59.923Z</time></trkpt><trkpt lat="50.970190733998216" lon="11.886209394484977"><ele>283.0</ele><time>2026-05-03T15:56:00.923Z</time></trkpt><trkpt lat="50.970167862663025" lon="11.886378128948243"><ele>283.4</ele><time>2026-05-03T15:56:01.923Z</time></trkpt><trkpt lat="50.97015120658747" lon="11.886546421635051"><ele>283.8</ele><time>2026-05-03T15:56:02.923Z</time></trkpt><trkpt lat="50.97013727380201" lon="11.886721489361541"><ele>284.2</ele><time>2026-05-03T15:56:03.923Z</time></trkpt><trkpt lat="50.97009460890032" lon="11.886889036249048"><ele>284.6</ele><time>2026-05-03T15:56:04.923Z</time></trkpt><trkpt lat="50.97007879457009" lon="11.887065449378671"><ele>285.0</ele><time>2026-05-03T15:56:05.923Z</time></trkpt><trkpt lat="50.97006258910797" lon="11.887244010681798"><ele>285.0</ele><time>2026-05-03T15:56:06.923Z</time></trkpt><trkpt lat="50.97004943252794" lon="11.887421428526858"><ele>285.0</ele><time>2026-05-03T15:56:07.923Z</time></trkpt><trkpt lat="50.97003224262347" lon="11.88759365737186"><ele>285.0</ele><time>2026-05-03T15:56:08.923Z</time></trkpt><trkpt lat="50.970017008571574" lon="11.887762875543494"><ele>285.0</ele><time>2026-05-03T15:56:09.923Z</time></trkpt><trkpt lat="50.97000247964202" lon="11.887933719080834"><ele>285.0</ele><time>2026-05-03T15:56:10.923Z</time></trkpt><trkpt lat="50.96998204410308" lon="11.88811431888842"><ele>285.2</ele><time>2026-05-03T15:56:11.923Z</time></trkpt><trkpt lat="50.96995928906286" lon="11.888292681557568"><ele>285.4</ele><time>2026-05-03T15:56:12.923Z</time></trkpt><trkpt lat="50.96993560790286" lon="11.888463965886473"><ele>285.6</ele><time>2026-05-03T15:56:13.923Z</time></trkpt><trkpt lat="50.96991304507102" lon="11.88862881338323"><ele>285.8</ele><time>2026-05-03T15:56:14.923Z</time></trkpt><trkpt lat="50.96990195754951" lon="11.888803639398573"><ele>286.0</ele><time>2026-05-03T15:56:15.923Z</time></trkpt><trkpt lat="50.969896221601665" lon="11.888977072462724"><ele>284.8</ele><time>2026-05-03T15:56:16.923Z</time></trkpt><trkpt lat="50.969902199914216" lon="11.889147968858456"><ele>283.6</ele><time>2026-05-03T15:56:17.923Z</time></trkpt><trkpt lat="50.96990803834846" lon="11.889330385845037"><ele>282.4</ele><time>2026-05-03T15:56:18.923Z</time></trkpt><trkpt lat="50.96991520388092" lon="11.88950608977229"><ele>281.2</ele><time>2026-05-03T15:56:19.923Z</time></trkpt><trkpt lat="50.96992456667726" lon="11.889685869467389"><ele>280.0</ele><time>2026-05-03T15:56:20.923Z</time></trkpt><trkpt lat="50.96994243148963" lon="11.889861757619705"><ele>279.5</ele><time>2026-05-03T15:56:21.923Z</time></trkpt><trkpt lat="50.96996772593111" lon="11.890035659770492"><ele>279.0</ele><time>2026-05-03T15:56:22.923Z</time></trkpt><trkpt lat="50.97000015522187" lon="11.890211494009431"><ele>278.5</ele><time>2026-05-03T15:56:23.923Z</time></trkpt><trkpt lat="50.97003671136627" lon="11.890383243450376"><ele>278.0</ele><time>2026-05-03T15:56:24.923Z</time></trkpt><trkpt lat="50.97007620288124" lon="11.890548444222224"><ele>277.75</ele><time>2026-05-03T15:56:25.923Z</time></trkpt><trkpt lat="50.97012440436882" lon="11.890708898478843"><ele>277.5</ele><time>2026-05-03T15:56:26.923Z</time></trkpt><trkpt lat="50.97017849268013" lon="11.890881191729905"><ele>277.25</ele><time>2026-05-03T15:56:27.923Z</time></trkpt><trkpt lat="50.97024054064059" lon="11.89104788995368"><ele>277.0</ele><time>2026-05-03T15:56:28.923Z</time></trkpt><trkpt lat="50.97029900285855" lon="11.891203452195741"><ele>276.0</ele><time>2026-05-03T15:56:29.923Z</time></trkpt><trkpt lat="50.970361975230375" lon="11.891354005036979"><ele>275.0</ele><time>2026-05-03T15:56:30.923Z</time></trkpt><trkpt lat="50.970397328570144" lon="11.891530641218173"><ele>274.0</ele><time>2026-05-03T15:56:31.923Z</time></trkpt><trkpt lat="50.97045875496887" lon="11.891696452818367"><ele>273.0</ele><time>2026-05-03T15:56:32.923Z</time></trkpt><trkpt lat="50.97051420164844" lon="11.891854271304153"><ele>272.6</ele><time>2026-05-03T15:56:33.923Z</time></trkpt><trkpt lat="50.97056596375961" lon="11.892006056532363"><ele>272.20000000000005</ele><time>2026-05-03T15:56:34.923Z</time></trkpt><trkpt lat="50.9706161157964" lon="11.892168324063482"><ele>271.8</ele><time>2026-05-03T15:56:35.923Z</time></trkpt><trkpt lat="50.97066528640947" lon="11.89232797085944"><ele>271.40000000000003</ele><time>2026-05-03T15:56:36.923Z</time></trkpt><trkpt lat="50.97071690763576" lon="11.892486481322221"><ele>271.0</ele><time>2026-05-03T15:56:37.923Z</time></trkpt><trkpt lat="50.97076754071907" lon="11.892632025420832"><ele>270.8</ele><time>2026-05-03T15:56:38.922Z</time></trkpt><trkpt lat="50.97081421714697" lon="11.892767808810097"><ele>270.6</ele><time>2026-05-03T15:56:39.922Z</time></trkpt><trkpt lat="50.97085556034132" lon="11.892896559028857"><ele>270.4</ele><time>2026-05-03T15:56:40.922Z</time></trkpt><trkpt lat="50.97088709474565" lon="11.89302227761088"><ele>270.2</ele><time>2026-05-03T15:56:41.922Z</time></trkpt><trkpt lat="50.970913133868784" lon="11.893135663141607"><ele>270.0</ele><time>2026-05-03T15:56:42.922Z</time></trkpt><trkpt lat="50.9709184907658" lon="11.893347382968178"><ele>270.0</ele><time>2026-05-03T15:56:44.922Z</time></trkpt><trkpt lat="50.97090215567273" lon="11.893459886298553"><ele>270.0</ele><time>2026-05-03T15:56:45.922Z</time></trkpt><trkpt lat="50.970916207797295" lon="11.893561159667115"><ele>270.0</ele><time>2026-05-03T15:56:46.922Z</time></trkpt><trkpt lat="50.970937285424704" lon="11.893670862466532"><ele>270.0</ele><time>2026-05-03T15:56:47.922Z</time></trkpt><trkpt lat="50.97093308552477" lon="11.89380010562839"><ele>270.0</ele><time>2026-05-03T15:56:48.922Z</time></trkpt><trkpt lat="50.970885070680524" lon="11.8939212312955"><ele>270.0</ele><time>2026-05-03T15:56:49.922Z</time></trkpt><trkpt lat="50.970822977417654" lon="11.894062125307"><ele>270.0</ele><time>2026-05-03T15:56:50.922Z</time></trkpt><trkpt lat="50.9707480128969" lon="11.894221526749439"><ele>270.0</ele><time>2026-05-03T15:56:51.922Z</time></trkpt><trkpt lat="50.97067834935799" lon="11.894362328045805"><ele>270.0</ele><time>2026-05-03T15:56:52.922Z</time></trkpt><trkpt lat="50.97062183625876" lon="11.894475934955365"><ele>270.0</ele><time>2026-05-03T15:56:53.922Z</time></trkpt><trkpt lat="50.9705659536847" lon="11.894590433837203"><ele>270.0</ele><time>2026-05-03T15:56:54.922Z</time></trkpt><trkpt lat="50.9705104675781" lon="11.894707009522548"><ele>270.0</ele><time>2026-05-03T15:56:55.922Z</time></trkpt><trkpt lat="50.97045886490879" lon="11.894824748956475"><ele>270.0</ele><time>2026-05-03T15:56:56.922Z</time></trkpt><trkpt lat="50.97042497880564" lon="11.894966495312532"><ele>270.0</ele><time>2026-05-03T15:56:57.922Z</time></trkpt><trkpt lat="50.970420253375536" lon="11.895132789828265"><ele>270.0</ele><time>2026-05-03T15:56:58.922Z</time></trkpt><trkpt lat="50.9704593244432" lon="11.895336143405924"><ele>270.0</ele><time>2026-05-03T15:56:59.922Z</time></trkpt><trkpt lat="50.97048942987913" lon="11.895556155164611"><ele>271.0</ele><time>2026-05-03T15:57:00.922Z</time></trkpt><trkpt lat="50.97050784796343" lon="11.895794322467653"><ele>272.0</ele><time>2026-05-03T15:57:01.922Z</time></trkpt><trkpt lat="50.970517636875954" lon="11.896037023062139"><ele>273.0</ele><time>2026-05-03T15:57:02.922Z</time></trkpt><trkpt lat="50.970520404991014" lon="11.896284014960983"><ele>273.5</ele><time>2026-05-03T15:57:03.922Z</time></trkpt><trkpt lat="50.97052405226936" lon="11.896503183465668"><ele>274.0</ele><time>2026-05-03T15:57:04.922Z</time></trkpt><trkpt lat="50.97053208184695" lon="11.896701623839268"><ele>274.5</ele><time>2026-05-03T15:57:05.922Z</time></trkpt><trkpt lat="50.97053940981259" lon="11.896888403822311"><ele>275.0</ele><time>2026-05-03T15:57:06.922Z</time></trkpt><trkpt lat="50.970534769866575" lon="11.897069842049753"><ele>275.0</ele><time>2026-05-03T15:57:07.922Z</time></trkpt><trkpt lat="50.97053182615603" lon="11.897227202404006"><ele>275.0</ele><time>2026-05-03T15:57:08.922Z</time></trkpt><trkpt lat="50.97053239588439" lon="11.897368007858736"><ele>275.0</ele><time>2026-05-03T15:57:09.922Z</time></trkpt><trkpt lat="50.97051468814723" lon="11.897491882663035"><ele>275.0</ele><time>2026-05-03T15:57:10.922Z</time></trkpt><trkpt lat="50.97051341450824" lon="11.89760531431835"><ele>275.0</ele><time>2026-05-03T15:57:11.922Z</time></trkpt><trkpt lat="50.97052174204775" lon="11.897721779007211"><ele>275.0</ele><time>2026-05-03T15:57:12.922Z</time></trkpt><trkpt lat="50.970476789075995" lon="11.897847914428995"><ele>275.75</ele><time>2026-05-03T15:57:13.922Z</time></trkpt><trkpt lat="50.970416035379515" lon="11.897970434929057"><ele>276.5</ele><time>2026-05-03T15:57:14.922Z</time></trkpt><trkpt lat="50.97037016006585" lon="11.898135437657798"><ele>277.25</ele><time>2026-05-03T15:57:15.922Z</time></trkpt><trkpt lat="50.97032086890243" lon="11.898305985041677"><ele>278.0</ele><time>2026-05-03T15:57:16.922Z</time></trkpt><trkpt lat="50.97024493261208" lon="11.898457096236639"><ele>278.25</ele><time>2026-05-03T15:57:17.922Z</time></trkpt><trkpt lat="50.9701533488701" lon="11.898592493578692"><ele>278.5</ele><time>2026-05-03T15:57:18.922Z</time></trkpt><trkpt lat="50.97003811270245" lon="11.898682035434025"><ele>278.75</ele><time>2026-05-03T15:57:19.922Z</time></trkpt><trkpt lat="50.96994705989505" lon="11.898820661235824"><ele>279.0</ele><time>2026-05-03T15:57:20.922Z</time></trkpt><trkpt lat="50.969850935927774" lon="11.898931058894576"><ele>279.2</ele><time>2026-05-03T15:57:21.922Z</time></trkpt><trkpt lat="50.96976453796818" lon="11.899034576130903"><ele>279.4</ele><time>2026-05-03T15:57:22.922Z</time></trkpt><trkpt lat="50.96970909405687" lon="11.899092486155137"><ele>279.6</ele><time>2026-05-03T15:57:23.922Z</time></trkpt><trkpt lat="50.96963358974008" lon="11.899179602295368"><ele>279.8</ele><time>2026-05-03T15:57:25.922Z</time></trkpt><trkpt lat="50.969566636796365" lon="11.89925159940732"><ele>280.0</ele><time>2026-05-03T15:57:26.922Z</time></trkpt><trkpt lat="50.9694847187767" lon="11.899347296027836"><ele>279.4</ele><time>2026-05-03T15:57:27.922Z</time></trkpt><trkpt lat="50.969387532767065" lon="11.899443768281127"><ele>278.8</ele><time>2026-05-03T15:57:28.922Z</time></trkpt><trkpt lat="50.96928990909668" lon="11.899545484992181"><ele>278.2</ele><time>2026-05-03T15:57:29.922Z</time></trkpt><trkpt lat="50.96919544199717" lon="11.899635102144497"><ele>277.6</ele><time>2026-05-03T15:57:30.922Z</time></trkpt><trkpt lat="50.96911137577482" lon="11.899713161295942"><ele>277.0</ele><time>2026-05-03T15:57:31.922Z</time></trkpt><trkpt lat="50.969039972705254" lon="11.899793425603425"><ele>278.3333333333333</ele><time>2026-05-03T15:57:32.922Z</time></trkpt><trkpt lat="50.96896805844419" lon="11.899852830368918"><ele>279.66666666666663</ele><time>2026-05-03T15:57:33.922Z</time></trkpt><trkpt lat="50.96888831601884" lon="11.899905232640014"><ele>281.0</ele><time>2026-05-03T15:57:34.922Z</time></trkpt><trkpt lat="50.968805178017504" lon="11.899950268588864"><ele>282.3333333333333</ele><time>2026-05-03T15:57:35.922Z</time></trkpt><trkpt lat="50.968725176855564" lon="11.899983068598626"><ele>283.6666666666667</ele><time>2026-05-03T15:57:36.922Z</time></trkpt><trkpt lat="50.968646232682815" lon="11.900025534210029"><ele>285.0</ele><time>2026-05-03T15:57:37.922Z</time></trkpt><trkpt lat="50.96856118825353" lon="11.900072607932644"><ele>284.6</ele><time>2026-05-03T15:57:38.921Z</time></trkpt><trkpt lat="50.968476308356486" lon="11.900118282617278"><ele>284.2</ele><time>2026-05-03T15:57:39.921Z</time></trkpt><trkpt lat="50.96840216409833" lon="11.900184873451721"><ele>283.8</ele><time>2026-05-03T15:57:40.921Z</time></trkpt><trkpt lat="50.96833664590571" lon="11.900284210354831"><ele>283.4</ele><time>2026-05-03T15:57:41.921Z</time></trkpt><trkpt lat="50.968278621952614" lon="11.90040803470296"><ele>283.0</ele><time>2026-05-03T15:57:42.921Z</time></trkpt><trkpt lat="50.96823510630033" lon="11.900531922810865"><ele>283.8333333333333</ele><time>2026-05-03T15:57:43.921Z</time></trkpt><trkpt lat="50.968185204503946" lon="11.90064483957717"><ele>284.66666666666663</ele><time>2026-05-03T15:57:44.92Z</time></trkpt><trkpt lat="50.96814995163335" lon="11.900773318088834"><ele>285.5</ele><time>2026-05-03T15:57:45.921Z</time></trkpt><trkpt lat="50.96812904086726" lon="11.900887420751566"><ele>286.3333333333333</ele><time>2026-05-03T15:57:46.921Z</time></trkpt><trkpt lat="50.968121638354084" lon="11.901000085535449"><ele>287.1666666666667</ele><time>2026-05-03T15:57:47.921Z</time></trkpt><trkpt lat="50.968103581726744" lon="11.901155090226421"><ele>288.0</ele><time>2026-05-03T15:57:49.921Z</time></trkpt><trkpt lat="50.96802637509698" lon="11.901231697148132"><ele>288.1666666666667</ele><time>2026-05-03T15:57:51.921Z</time></trkpt><trkpt lat="50.96795687977142" lon="11.901230250333894"><ele>288.3333333333333</ele><time>2026-05-03T15:57:52.921Z</time></trkpt><trkpt lat="50.96787113497822" lon="11.901222262944827"><ele>288.5</ele><time>2026-05-03T15:57:53.921Z</time></trkpt><trkpt lat="50.96778590051991" lon="11.901218850202008"><ele>288.66666666666663</ele><time>2026-05-03T15:57:54.921Z</time></trkpt><trkpt lat="50.967700137147595" lon="11.901228332046623"><ele>288.8333333333333</ele><time>2026-05-03T15:57:55.921Z</time></trkpt><trkpt lat="50.96760496344577" lon="11.90123572278869"><ele>289.0</ele><time>2026-05-03T15:57:56.921Z</time></trkpt><trkpt lat="50.96751071536781" lon="11.901250048995196"><ele>289.8</ele><time>2026-05-03T15:57:57.921Z</time></trkpt><trkpt lat="50.967408005128114" lon="11.901249686424732"><ele>290.59999999999997</ele><time>2026-05-03T15:57:58.921Z</time></trkpt><trkpt lat="50.967300045421474" lon="11.901271140734098"><ele>291.4</ele><time>2026-05-03T15:57:59.921Z</time></trkpt><trkpt lat="50.967197180392525" lon="11.901304213305409"><ele>292.2</ele><time>2026-05-03T15:58:00.921Z</time></trkpt><trkpt lat="50.967081191765" lon="11.901350897359894"><ele>293.0</ele><time>2026-05-03T15:58:01.921Z</time></trkpt><trkpt lat="50.966969355621" lon="11.901408116790206"><ele>293.0</ele><time>2026-05-03T15:58:02.921Z</time></trkpt><trkpt lat="50.96685953142723" lon="11.901504273711565"><ele>293.0</ele><time>2026-05-03T15:58:03.921Z</time></trkpt><trkpt lat="50.96676874325663" lon="11.901569482305677"><ele>293.0</ele><time>2026-05-03T15:58:04.921Z</time></trkpt><trkpt lat="50.9666846741824" lon="11.901627370964563"><ele>293.0</ele><time>2026-05-03T15:58:05.921Z</time></trkpt><trkpt lat="50.9666064688269" lon="11.90168281300829"><ele>293.0</ele><time>2026-05-03T15:58:06.921Z</time></trkpt><trkpt lat="50.96651769791531" lon="11.901733923001752"><ele>293.0</ele><time>2026-05-03T15:58:07.921Z</time></trkpt><trkpt lat="50.966414242161676" lon="11.90180606914074"><ele>293.0</ele><time>2026-05-03T15:58:08.921Z</time></trkpt><trkpt lat="50.966309242240754" lon="11.901876421094874"><ele>293.0</ele><time>2026-05-03T15:58:09.921Z</time></trkpt><trkpt lat="50.966210682291994" lon="11.901949266788566"><ele>293.0</ele><time>2026-05-03T15:58:10.921Z</time></trkpt><trkpt lat="50.96611356947565" lon="11.902020826952036"><ele>293.0</ele><time>2026-05-03T15:58:11.921Z</time></trkpt><trkpt lat="50.96601827496349" lon="11.902102764566497"><ele>293.0</ele><time>2026-05-03T15:58:12.921Z</time></trkpt><trkpt lat="50.96592688687321" lon="11.902180439630172"><ele>293.0</ele><time>2026-05-03T15:58:13.921Z</time></trkpt><trkpt lat="50.96583463496335" lon="11.902277104941282"><ele>293.0</ele><time>2026-05-03T15:58:14.921Z</time></trkpt><trkpt lat="50.96574576723978" lon="11.902389498616845"><ele>293.0</ele><time>2026-05-03T15:58:15.921Z</time></trkpt><trkpt lat="50.96565093867368" lon="11.902530381321007"><ele>291.5</ele><time>2026-05-03T15:58:16.921Z</time></trkpt><trkpt lat="50.96556326467431" lon="11.902703056269267"><ele>290.0</ele><time>2026-05-03T15:58:17.921Z</time></trkpt><trkpt lat="50.965493950828034" lon="11.902889027723711"><ele>288.5</ele><time>2026-05-03T15:58:18.921Z</time></trkpt><trkpt lat="50.96543857058166" lon="11.903069951855864"><ele>287.0</ele><time>2026-05-03T15:58:19.921Z</time></trkpt><trkpt lat="50.96539162372547" lon="11.903272287645235"><ele>288.0</ele><time>2026-05-03T15:58:20.921Z</time></trkpt><trkpt lat="50.9653414747851" lon="11.903490207456475"><ele>289.0</ele><time>2026-05-03T15:58:21.921Z</time></trkpt><trkpt lat="50.96530070752452" lon="11.903711831338441"><ele>290.0</ele><time>2026-05-03T15:58:22.921Z</time></trkpt><trkpt lat="50.96526372754366" lon="11.903933061383388"><ele>291.0</ele><time>2026-05-03T15:58:23.921Z</time></trkpt><trkpt lat="50.96523405822338" lon="11.904146605198807"><ele>291.5</ele><time>2026-05-03T15:58:24.921Z</time></trkpt><trkpt lat="50.96520903151725" lon="11.904361557689874"><ele>292.0</ele><time>2026-05-03T15:58:25.921Z</time></trkpt><trkpt lat="50.96518913397046" lon="11.904576456270558"><ele>292.5</ele><time>2026-05-03T15:58:26.921Z</time></trkpt><trkpt lat="50.96517281898229" lon="11.904805774582544"><ele>293.0</ele><time>2026-05-03T15:58:27.921Z</time></trkpt><trkpt lat="50.96515772449118" lon="11.905036596810408"><ele>292.0</ele><time>2026-05-03T15:58:28.921Z</time></trkpt><trkpt lat="50.96515164631066" lon="11.905256085428553"><ele>291.0</ele><time>2026-05-03T15:58:29.921Z</time></trkpt><trkpt lat="50.96513049627472" lon="11.905491344907226"><ele>290.0</ele><time>2026-05-03T15:58:30.921Z</time></trkpt><trkpt lat="50.96511152259635" lon="11.90572638709711"><ele>289.0</ele><time>2026-05-03T15:58:31.921Z</time></trkpt><trkpt lat="50.96509786457676" lon="11.905953675601976"><ele>286.75</ele><time>2026-05-03T15:58:32.921Z</time></trkpt><trkpt lat="50.96507896888757" lon="11.9061861621708"><ele>284.5</ele><time>2026-05-03T15:58:33.921Z</time></trkpt><trkpt lat="50.965078147533674" lon="11.90640094958764"><ele>282.25</ele><time>2026-05-03T15:58:34.921Z</time></trkpt><trkpt lat="50.96511287611242" lon="11.906614457984457"><ele>280.0</ele><time>2026-05-03T15:58:35.921Z</time></trkpt><trkpt lat="50.965174454275285" lon="11.906817425637119"><ele>277.25</ele><time>2026-05-03T15:58:36.921Z</time></trkpt><trkpt lat="50.96523797468266" lon="11.907023381527539"><ele>274.5</ele><time>2026-05-03T15:58:37.921Z</time></trkpt><trkpt lat="50.96528836698666" lon="11.907232015676767"><ele>271.75</ele><time>2026-05-03T15:58:38.921Z</time></trkpt><trkpt lat="50.965339773287816" lon="11.90744331467746"><ele>269.0</ele><time>2026-05-03T15:58:39.921Z</time></trkpt><trkpt lat="50.96537542490764" lon="11.907663371097284"><ele>267.5</ele><time>2026-05-03T15:58:40.921Z</time></trkpt><trkpt lat="50.965424056939106" lon="11.907870025125579"><ele>266.0</ele><time>2026-05-03T15:58:41.921Z</time></trkpt><trkpt lat="50.96548527156903" lon="11.908070198509051"><ele>264.5</ele><time>2026-05-03T15:58:42.921Z</time></trkpt><trkpt lat="50.965532118933496" lon="11.90828309024015"><ele>263.0</ele><time>2026-05-03T15:58:43.921Z</time></trkpt><trkpt lat="50.965578494890806" lon="11.90849727858462"><ele>261.5</ele><time>2026-05-03T15:58:44.921Z</time></trkpt><trkpt lat="50.96562706313882" lon="11.908708313854364"><ele>260.0</ele><time>2026-05-03T15:58:45.921Z</time></trkpt><trkpt lat="50.96568113974031" lon="11.908919544389601"><ele>258.5</ele><time>2026-05-03T15:58:46.921Z</time></trkpt><trkpt lat="50.965736795802336" lon="11.909136968205367"><ele>257.0</ele><time>2026-05-03T15:58:47.921Z</time></trkpt><trkpt lat="50.965784640999104" lon="11.909360020694333"><ele>256.0</ele><time>2026-05-03T15:58:48.921Z</time></trkpt><trkpt lat="50.96583606447386" lon="11.909595234136981"><ele>255.0</ele><time>2026-05-03T15:58:49.921Z</time></trkpt><trkpt lat="50.96589048086761" lon="11.909829309663372"><ele>254.0</ele><time>2026-05-03T15:58:50.921Z</time></trkpt><trkpt lat="50.965947145717415" lon="11.910064170898615"><ele>257.0</ele><time>2026-05-03T15:58:51.921Z</time></trkpt><trkpt lat="50.96599998561218" lon="11.910302385577202"><ele>260.0</ele><time>2026-05-03T15:58:52.921Z</time></trkpt><trkpt lat="50.96605591604042" lon="11.91053897110986"><ele>263.0</ele><time>2026-05-03T15:58:53.921Z</time></trkpt><trkpt lat="50.96610503417336" lon="11.910783200620589"><ele>261.0</ele><time>2026-05-03T15:58:54.921Z</time></trkpt><trkpt lat="50.966153592371136" lon="11.911021486037578"><ele>259.0</ele><time>2026-05-03T15:58:55.921Z</time></trkpt><trkpt lat="50.96621186917245" lon="11.911245670522247"><ele>257.0</ele><time>2026-05-03T15:58:56.921Z</time></trkpt><trkpt lat="50.9662647462091" lon="11.911467197621397"><ele>257.0</ele><time>2026-05-03T15:58:57.921Z</time></trkpt><trkpt lat="50.966310059025346" lon="11.911690318728827"><ele>257.0</ele><time>2026-05-03T15:58:58.921Z</time></trkpt><trkpt lat="50.96636679037018" lon="11.911903908514974"><ele>257.0</ele><time>2026-05-03T15:58:59.921Z</time></trkpt><trkpt lat="50.96639117760446" lon="11.91213186714344"><ele>257.0</ele><time>2026-05-03T15:59:00.921Z</time></trkpt><trkpt lat="50.96644094923016" lon="11.912343160061576"><ele>255.0</ele><time>2026-05-03T15:59:01.921Z</time></trkpt><trkpt lat="50.966478395114066" lon="11.912562728102996"><ele>253.0</ele><time>2026-05-03T15:59:02.921Z</time></trkpt><trkpt lat="50.966504047871695" lon="11.91278837572796"><ele>251.0</ele><time>2026-05-03T15:59:03.921Z</time></trkpt><trkpt lat="50.9665085092607" lon="11.913043189862389"><ele>249.0</ele><time>2026-05-03T15:59:04.921Z</time></trkpt><trkpt lat="50.96649660905676" lon="11.91330815181614"><ele>247.0</ele><time>2026-05-03T15:59:05.921Z</time></trkpt><trkpt lat="50.96647977481768" lon="11.913564299013323"><ele>245.0</ele><time>2026-05-03T15:59:06.921Z</time></trkpt><trkpt lat="50.966458619591656" lon="11.91381320955445"><ele>243.0</ele><time>2026-05-03T15:59:07.921Z</time></trkpt><trkpt lat="50.966423900380725" lon="11.914055145349565"><ele>241.66666666666669</ele><time>2026-05-03T15:59:08.921Z</time></trkpt><trkpt lat="50.96634190127576" lon="11.914276883655518"><ele>240.33333333333334</ele><time>2026-05-03T15:59:09.921Z</time></trkpt><trkpt lat="50.96623961144066" lon="11.914488734598699"><ele>239.0</ele><time>2026-05-03T15:59:10.921Z</time></trkpt><trkpt lat="50.966100284062165" lon="11.914679086220081"><ele>239.0</ele><time>2026-05-03T15:59:11.921Z</time></trkpt><trkpt lat="50.9659418307581" lon="11.914823398056459"><ele>239.0</ele><time>2026-05-03T15:59:12.921Z</time></trkpt><trkpt lat="50.96577741413259" lon="11.914980211381623"><ele>239.0</ele><time>2026-05-03T15:59:13.921Z</time></trkpt><trkpt lat="50.965605380765766" lon="11.915107081660054"><ele>237.33333333333334</ele><time>2026-05-03T15:59:14.921Z</time></trkpt><trkpt lat="50.96542805940422" lon="11.915245025423209"><ele>235.66666666666669</ele><time>2026-05-03T15:59:15.921Z</time></trkpt><trkpt lat="50.96525778263376" lon="11.915382378195217"><ele>234.0</ele><time>2026-05-03T15:59:16.921Z</time></trkpt><trkpt lat="50.96509148611535" lon="11.915517613741573"><ele>234.66666666666669</ele><time>2026-05-03T15:59:17.921Z</time></trkpt><trkpt lat="50.964924277866004" lon="11.915656348288916"><ele>235.33333333333334</ele><time>2026-05-03T15:59:18.921Z</time></trkpt><trkpt lat="50.964755506769514" lon="11.915804137968333"><ele>236.0</ele><time>2026-05-03T15:59:19.921Z</time></trkpt><trkpt lat="50.964598690914606" lon="11.915978103075634"><ele>236.0</ele><time>2026-05-03T15:59:20.921Z</time></trkpt><trkpt lat="50.964446944577794" lon="11.916190581672415"><ele>236.0</ele><time>2026-05-03T15:59:21.921Z</time></trkpt><trkpt lat="50.96430618024482" lon="11.916416333584888"><ele>236.0</ele><time>2026-05-03T15:59:22.921Z</time></trkpt><trkpt lat="50.96417238245336" lon="11.916653970204896"><ele>235.33333333333334</ele><time>2026-05-03T15:59:23.921Z</time></trkpt><trkpt lat="50.964040495593466" lon="11.916876288489492"><ele>234.66666666666669</ele><time>2026-05-03T15:59:24.921Z</time></trkpt><trkpt lat="50.96390426827284" lon="11.917084695666464"><ele>234.0</ele><time>2026-05-03T15:59:25.921Z</time></trkpt><trkpt lat="50.96376996581685" lon="11.917297159150191"><ele>234.0</ele><time>2026-05-03T15:59:26.921Z</time></trkpt><trkpt lat="50.96364177685118" lon="11.917512882558624"><ele>234.0</ele><time>2026-05-03T15:59:27.921Z</time></trkpt><trkpt lat="50.963512319031885" lon="11.91772737367318"><ele>234.0</ele><time>2026-05-03T15:59:28.921Z</time></trkpt><trkpt lat="50.96337626329302" lon="11.917923249862488"><ele>234.0</ele><time>2026-05-03T15:59:29.921Z</time></trkpt><trkpt lat="50.963269169136765" lon="11.918154424442896"><ele>234.0</ele><time>2026-05-03T15:59:30.921Z</time></trkpt><trkpt lat="50.96318553093363" lon="11.91842583763252"><ele>234.0</ele><time>2026-05-03T15:59:31.921Z</time></trkpt><trkpt lat="50.963123345870656" lon="11.918715050232093"><ele>234.0</ele><time>2026-05-03T15:59:32.921Z</time></trkpt><trkpt lat="50.96307941227394" lon="11.919027256801744"><ele>234.0</ele><time>2026-05-03T15:59:33.921Z</time></trkpt><trkpt lat="50.96304966489599" lon="11.91934223237125"><ele>234.0</ele><time>2026-05-03T15:59:34.921Z</time></trkpt><trkpt lat="50.96301821546756" lon="11.91965428661208"><ele>233.66666666666669</ele><time>2026-05-03T15:59:35.921Z</time></trkpt><trkpt lat="50.96297902343655" lon="11.919952693664978"><ele>233.33333333333334</ele><time>2026-05-03T15:59:36.921Z</time></trkpt><trkpt lat="50.962935294372855" lon="11.920233987227789"><ele>233.0</ele><time>2026-05-03T15:59:37.921Z</time></trkpt><trkpt lat="50.96290204176741" lon="11.92051083917955"><ele>232.33333333333334</ele><time>2026-05-03T15:59:38.921Z</time></trkpt><trkpt lat="50.96287322900132" lon="11.920765613056718"><ele>231.66666666666669</ele><time>2026-05-03T15:59:39.921Z</time></trkpt><trkpt lat="50.96283961388568" lon="11.921013569313855"><ele>231.0</ele><time>2026-05-03T15:59:40.921Z</time></trkpt><trkpt lat="50.962779386969856" lon="11.92125340857332"><ele>230.66666666666669</ele><time>2026-05-03T15:59:41.921Z</time></trkpt><trkpt lat="50.96269375352725" lon="11.921485885844236"><ele>230.33333333333334</ele><time>2026-05-03T15:59:42.921Z</time></trkpt><trkpt lat="50.962569753742535" lon="11.92167866245747"><ele>230.0</ele><time>2026-05-03T15:59:43.921Z</time></trkpt><trkpt lat="50.96242789279143" lon="11.921840811018823"><ele>229.33333333333334</ele><time>2026-05-03T15:59:44.921Z</time></trkpt><trkpt lat="50.96226557925317" lon="11.921963906896394"><ele>228.66666666666669</ele><time>2026-05-03T15:59:45.921Z</time></trkpt><trkpt lat="50.96208410627468" lon="11.922046533190816"><ele>228.0</ele><time>2026-05-03T15:59:46.921Z</time></trkpt><trkpt lat="50.96189700164533" lon="11.922120487974668"><ele>228.0</ele><time>2026-05-03T15:59:47.92Z</time></trkpt><trkpt lat="50.96170499800732" lon="11.922210526115734"><ele>228.0</ele><time>2026-05-03T15:59:48.92Z</time></trkpt><trkpt lat="50.961508852476975" lon="11.922294483929116"><ele>228.0</ele><time>2026-05-03T15:59:49.92Z</time></trkpt><trkpt lat="50.96131046067381" lon="11.922390299356481"><ele>228.66666666666669</ele><time>2026-05-03T15:59:50.92Z</time></trkpt><trkpt lat="50.961116161984364" lon="11.92248447707435"><ele>229.33333333333334</ele><time>2026-05-03T15:59:51.92Z</time></trkpt><trkpt lat="50.96092174412019" lon="11.922572384698126"><ele>230.0</ele><time>2026-05-03T15:59:52.92Z</time></trkpt><trkpt lat="50.960729524022206" lon="11.922655760658913"><ele>230.0</ele><time>2026-05-03T15:59:53.92Z</time></trkpt><trkpt lat="50.9605349240882" lon="11.922741672140333"><ele>230.0</ele><time>2026-05-03T15:59:54.92Z</time></trkpt><trkpt lat="50.960344329956875" lon="11.922829432540937"><ele>230.0</ele><time>2026-05-03T15:59:55.92Z</time></trkpt><trkpt lat="50.960155085309225" lon="11.922909197110735"><ele>226.0</ele><time>2026-05-03T15:59:56.92Z</time></trkpt><trkpt lat="50.95997075918521" lon="11.92299545804614"><ele>222.0</ele><time>2026-05-03T15:59:57.92Z</time></trkpt><trkpt lat="50.9597929177182" lon="11.923081519736868"><ele>218.0</ele><time>2026-05-03T15:59:58.92Z</time></trkpt><trkpt lat="50.95963037028815" lon="11.92317744128261"><ele>218.0</ele><time>2026-05-03T15:59:59.92Z</time></trkpt><trkpt lat="50.95949174292638" lon="11.923306584793798"><ele>218.0</ele><time>2026-05-03T16:00:00.92Z</time></trkpt><trkpt lat="50.95936201524017" lon="11.923453859107054"><ele>218.0</ele><time>2026-05-03T16:00:01.92Z</time></trkpt><trkpt lat="50.959251684480634" lon="11.92360597040541"><ele>218.0</ele><time>2026-05-03T16:00:02.92Z</time></trkpt><trkpt lat="50.959149304874416" lon="11.923760223408486"><ele>218.0</ele><time>2026-05-03T16:00:03.92Z</time></trkpt><trkpt lat="50.95905375335244" lon="11.923900664903362"><ele>218.0</ele><time>2026-05-03T16:00:04.92Z</time></trkpt><trkpt lat="50.9589483910143" lon="11.924024772414716"><ele>218.0</ele><time>2026-05-03T16:00:05.92Z</time></trkpt><trkpt lat="50.95882686217174" lon="11.924134953302998"><ele>218.0</ele><time>2026-05-03T16:00:06.92Z</time></trkpt><trkpt lat="50.95868323019613" lon="11.924226085282937"><ele>218.0</ele><time>2026-05-03T16:00:07.92Z</time></trkpt><trkpt lat="50.95854222666227" lon="11.924304721016014"><ele>218.0</ele><time>2026-05-03T16:00:08.92Z</time></trkpt><trkpt lat="50.95839739138392" lon="11.924376777591585"><ele>217.66666666666669</ele><time>2026-05-03T16:00:09.92Z</time></trkpt><trkpt lat="50.95825517235421" lon="11.924454245238254"><ele>217.33333333333331</ele><time>2026-05-03T16:00:10.92Z</time></trkpt><trkpt lat="50.95811310102552" lon="11.924540661521835"><ele>217.0</ele><time>2026-05-03T16:00:11.92Z</time></trkpt><trkpt lat="50.95797246449192" lon="11.924616857851563"><ele>217.0</ele><time>2026-05-03T16:00:12.92Z</time></trkpt><trkpt lat="50.95783203619412" lon="11.924703156518136"><ele>217.0</ele><time>2026-05-03T16:00:13.92Z</time></trkpt><trkpt lat="50.95769969581566" lon="11.924789817783811"><ele>217.0</ele><time>2026-05-03T16:00:14.92Z</time></trkpt><trkpt lat="50.95756782833211" lon="11.924878345856015"><ele>217.0</ele><time>2026-05-03T16:00:15.92Z</time></trkpt><trkpt lat="50.9574413037618" lon="11.924952099245093"><ele>217.0</ele><time>2026-05-03T16:00:16.92Z</time></trkpt><trkpt lat="50.957311643501576" lon="11.925028896105967"><ele>217.0</ele><time>2026-05-03T16:00:17.92Z</time></trkpt><trkpt lat="50.957178485717485" lon="11.92511250877072"><ele>217.0</ele><time>2026-05-03T16:00:18.92Z</time></trkpt><trkpt lat="50.95705001584063" lon="11.925214256667905"><ele>217.0</ele><time>2026-05-03T16:00:19.92Z</time></trkpt><trkpt lat="50.956930272101026" lon="11.925342647938095"><ele>217.0</ele><time>2026-05-03T16:00:20.92Z</time></trkpt><trkpt lat="50.956823088787665" lon="11.9254953459736"><ele>217.0</ele><time>2026-05-03T16:00:21.92Z</time></trkpt><trkpt lat="50.95672515027656" lon="11.925659645211"><ele>217.0</ele><time>2026-05-03T16:00:22.92Z</time></trkpt><trkpt lat="50.95662695728091" lon="11.925813066253284"><ele>217.0</ele><time>2026-05-03T16:00:23.92Z</time></trkpt><trkpt lat="50.95652807798207" lon="11.925950215331818"><ele>216.75</ele><time>2026-05-03T16:00:24.92Z</time></trkpt><trkpt lat="50.95642308873194" lon="11.926075789452357"><ele>216.5</ele><time>2026-05-03T16:00:25.92Z</time></trkpt><trkpt lat="50.95630770059191" lon="11.92618871641589"><ele>216.25</ele><time>2026-05-03T16:00:26.92Z</time></trkpt><trkpt lat="50.95618429144853" lon="11.926289686724234"><ele>216.0</ele><time>2026-05-03T16:00:27.92Z</time></trkpt><trkpt lat="50.95606780164561" lon="11.92639418056558"><ele>216.0</ele><time>2026-05-03T16:00:28.92Z</time></trkpt><trkpt lat="50.95596193271657" lon="11.926522390450016"><ele>216.0</ele><time>2026-05-03T16:00:29.92Z</time></trkpt><trkpt lat="50.95586970211363" lon="11.926670770936688"><ele>216.0</ele><time>2026-05-03T16:00:30.92Z</time></trkpt><trkpt lat="50.955789418095996" lon="11.926825213727053"><ele>216.0</ele><time>2026-05-03T16:00:31.92Z</time></trkpt><trkpt lat="50.95571467817964" lon="11.926989352621133"><ele>215.0</ele><time>2026-05-03T16:00:32.92Z</time></trkpt><trkpt lat="50.9556360332878" lon="11.927159461676638"><ele>214.0</ele><time>2026-05-03T16:00:33.92Z</time></trkpt><trkpt lat="50.955558910187676" lon="11.927327124105567"><ele>213.0</ele><time>2026-05-03T16:00:34.92Z</time></trkpt><trkpt lat="50.95547521453711" lon="11.927485818605465"><ele>212.0</ele><time>2026-05-03T16:00:35.92Z</time></trkpt><trkpt lat="50.95538691641336" lon="11.92763949199321"><ele>214.25</ele><time>2026-05-03T16:00:36.92Z</time></trkpt><trkpt lat="50.955276791104666" lon="11.92777051575555"><ele>216.5</ele><time>2026-05-03T16:00:37.92Z</time></trkpt><trkpt lat="50.95516205792807" lon="11.927898166709847"><ele>218.75</ele><time>2026-05-03T16:00:38.92Z</time></trkpt><trkpt lat="50.95503855640976" lon="11.928004033396446"><ele>221.0</ele><time>2026-05-03T16:00:39.92Z</time></trkpt><trkpt lat="50.95490062401937" lon="11.928091115292409"><ele>221.0</ele><time>2026-05-03T16:00:40.92Z</time></trkpt><trkpt lat="50.95475293378707" lon="11.92817183552009"><ele>221.0</ele><time>2026-05-03T16:00:41.92Z</time></trkpt><trkpt lat="50.95461097417524" lon="11.928265692508697"><ele>221.0</ele><time>2026-05-03T16:00:42.92Z</time></trkpt><trkpt lat="50.95446180758121" lon="11.92833218352347"><ele>221.0</ele><time>2026-05-03T16:00:43.92Z</time></trkpt><trkpt lat="50.95430391309328" lon="11.928377980605013"><ele>221.0</ele><time>2026-05-03T16:00:44.92Z</time></trkpt><trkpt lat="50.95415239204164" lon="11.928468199940795"><ele>221.0</ele><time>2026-05-03T16:00:45.92Z</time></trkpt><trkpt lat="50.953995548758854" lon="11.92853519581703"><ele>224.33333333333334</ele><time>2026-05-03T16:00:46.92Z</time></trkpt><trkpt lat="50.95384133448952" lon="11.928591227482737"><ele>227.66666666666669</ele><time>2026-05-03T16:00:47.92Z</time></trkpt><trkpt lat="50.95369582516208" lon="11.928664098801702"><ele>231.0</ele><time>2026-05-03T16:00:48.92Z</time></trkpt><trkpt lat="50.953561835895904" lon="11.92876118853673"><ele>231.0</ele><time>2026-05-03T16:00:49.92Z</time></trkpt><trkpt lat="50.95343904235561" lon="11.928900246621875"><ele>231.0</ele><time>2026-05-03T16:00:50.92Z</time></trkpt><trkpt lat="50.953337502777536" lon="11.929072287796567"><ele>231.0</ele><time>2026-05-03T16:00:51.92Z</time></trkpt><trkpt lat="50.95324691290996" lon="11.929256180210078"><ele>231.0</ele><time>2026-05-03T16:00:52.92Z</time></trkpt><trkpt lat="50.95317074899518" lon="11.92945290745039"><ele>229.20000000000002</ele><time>2026-05-03T16:00:53.92Z</time></trkpt><trkpt lat="50.95311290780938" lon="11.929648934350052"><ele>227.40000000000003</ele><time>2026-05-03T16:00:54.92Z</time></trkpt><trkpt lat="50.95307091744484" lon="11.929820938963461"><ele>225.6</ele><time>2026-05-03T16:00:55.92Z</time></trkpt><trkpt lat="50.95303536527907" lon="11.92997724495742"><ele>223.8</ele><time>2026-05-03T16:00:56.92Z</time></trkpt><trkpt lat="50.95301567625451" lon="11.930100371245763"><ele>222.0</ele><time>2026-05-03T16:00:57.92Z</time></trkpt><trkpt lat="50.952993783936016" lon="11.930233800802887"><ele>222.0</ele><time>2026-05-03T16:00:58.92Z</time></trkpt><trkpt lat="50.95297759655563" lon="11.930339759343479"><ele>222.0</ele><time>2026-05-03T16:00:59.92Z</time></trkpt><trkpt lat="50.95295923418576" lon="11.930438208336682"><ele>222.0</ele><time>2026-05-03T16:01:00.92Z</time></trkpt><trkpt lat="50.952947840853795" lon="11.930562666135552"><ele>222.0</ele><time>2026-05-03T16:01:02.92Z</time></trkpt><trkpt lat="50.952931365567586" lon="11.930661857810964"><ele>222.0</ele><time>2026-05-03T16:01:05.92Z</time></trkpt><trkpt lat="50.952909185144776" lon="11.930815824213285"><ele>222.0</ele><time>2026-05-03T16:01:07.92Z</time></trkpt><trkpt lat="50.952897370701606" lon="11.93092071680143"><ele>222.0</ele><time>2026-05-03T16:01:08.92Z</time></trkpt><trkpt lat="50.95288241521833" lon="11.93103658299408"><ele>222.2</ele><time>2026-05-03T16:01:09.92Z</time></trkpt><trkpt lat="50.952861814945855" lon="11.93117274900519"><ele>222.39999999999998</ele><time>2026-05-03T16:01:10.92Z</time></trkpt><trkpt lat="50.952839802256314" lon="11.9313139297866"><ele>222.60000000000002</ele><time>2026-05-03T16:01:11.92Z</time></trkpt><trkpt lat="50.95281478791148" lon="11.931477840616934"><ele>222.8</ele><time>2026-05-03T16:01:12.92Z</time></trkpt><trkpt lat="50.95279134963381" lon="11.931646710905989"><ele>223.0</ele><time>2026-05-03T16:01:13.92Z</time></trkpt><trkpt lat="50.9527525844062" lon="11.931832939616834"><ele>222.5</ele><time>2026-05-03T16:01:14.92Z</time></trkpt><trkpt lat="50.95273892809141" lon="11.932012280171737"><ele>222.0</ele><time>2026-05-03T16:01:15.92Z</time></trkpt><trkpt lat="50.952723118519536" lon="11.932220766261846"><ele>221.5</ele><time>2026-05-03T16:01:16.92Z</time></trkpt><trkpt lat="50.95271307515669" lon="11.932446373259879"><ele>221.0</ele><time>2026-05-03T16:01:17.92Z</time></trkpt><trkpt lat="50.95270504626712" lon="11.932678798453171"><ele>219.5</ele><time>2026-05-03T16:01:18.92Z</time></trkpt><trkpt lat="50.95269560409286" lon="11.932906514843953"><ele>218.0</ele><time>2026-05-03T16:01:19.92Z</time></trkpt><trkpt lat="50.95268718127298" lon="11.933125673516665"><ele>216.5</ele><time>2026-05-03T16:01:20.92Z</time></trkpt><trkpt lat="50.95267821289505" lon="11.93332722554303"><ele>215.0</ele><time>2026-05-03T16:01:21.92Z</time></trkpt><trkpt lat="50.952667946441466" lon="11.933519088301193"><ele>214.5</ele><time>2026-05-03T16:01:22.92Z</time></trkpt><trkpt lat="50.95266059638819" lon="11.933715443007916"><ele>214.0</ele><time>2026-05-03T16:01:23.92Z</time></trkpt><trkpt lat="50.95265300958122" lon="11.933910870123777"><ele>213.5</ele><time>2026-05-03T16:01:24.92Z</time></trkpt><trkpt lat="50.95264526257625" lon="11.934116808576583"><ele>213.0</ele><time>2026-05-03T16:01:25.92Z</time></trkpt><trkpt lat="50.952638638914166" lon="11.934328822198516"><ele>213.0</ele><time>2026-05-03T16:01:26.92Z</time></trkpt><trkpt lat="50.952630461492085" lon="11.934544586327307"><ele>213.0</ele><time>2026-05-03T16:01:27.92Z</time></trkpt><trkpt lat="50.95262153225446" lon="11.93476000804064"><ele>213.0</ele><time>2026-05-03T16:01:28.92Z</time></trkpt><trkpt lat="50.95261484002057" lon="11.93497983800868"><ele>213.0</ele><time>2026-05-03T16:01:29.92Z</time></trkpt><trkpt lat="50.95261240213216" lon="11.93519550155888"><ele>213.25</ele><time>2026-05-03T16:01:30.92Z</time></trkpt><trkpt lat="50.95260162339696" lon="11.935419041394066"><ele>213.5</ele><time>2026-05-03T16:01:31.92Z</time></trkpt><trkpt lat="50.95259321001308" lon="11.935636246581565"><ele>213.75</ele><time>2026-05-03T16:01:32.92Z</time></trkpt><trkpt lat="50.95258548231782" lon="11.93584988213847"><ele>214.0</ele><time>2026-05-03T16:01:33.92Z</time></trkpt><trkpt lat="50.952576362847694" lon="11.936064176131506"><ele>214.0</ele><time>2026-05-03T16:01:34.92Z</time></trkpt><trkpt lat="50.9525691952182" lon="11.936286680226171"><ele>214.0</ele><time>2026-05-03T16:01:35.92Z</time></trkpt><trkpt lat="50.95256074549909" lon="11.936514622603566"><ele>214.0</ele><time>2026-05-03T16:01:36.92Z</time></trkpt><trkpt lat="50.95255162318282" lon="11.936735406742887"><ele>214.0</ele><time>2026-05-03T16:01:37.92Z</time></trkpt><trkpt lat="50.95254423346411" lon="11.936956875705846"><ele>210.5</ele><time>2026-05-03T16:01:38.92Z</time></trkpt><trkpt lat="50.95253564092036" lon="11.937163699149872"><ele>207.0</ele><time>2026-05-03T16:01:39.92Z</time></trkpt><trkpt lat="50.95252578360828" lon="11.937364698318943"><ele>203.5</ele><time>2026-05-03T16:01:40.92Z</time></trkpt><trkpt lat="50.95250943421726" lon="11.937566271167546"><ele>200.0</ele><time>2026-05-03T16:01:41.92Z</time></trkpt><trkpt lat="50.95248815559525" lon="11.937764626296632"><ele>200.0</ele><time>2026-05-03T16:01:42.92Z</time></trkpt><trkpt lat="50.952450464798524" lon="11.937958879692145"><ele>200.0</ele><time>2026-05-03T16:01:43.92Z</time></trkpt><trkpt lat="50.95240450727849" lon="11.93814616369247"><ele>200.0</ele><time>2026-05-03T16:01:44.92Z</time></trkpt><trkpt lat="50.95235717954775" lon="11.938337764286494"><ele>200.0</ele><time>2026-05-03T16:01:45.92Z</time></trkpt><trkpt lat="50.95231634204497" lon="11.938528890962719"><ele>200.0</ele><time>2026-05-03T16:01:46.92Z</time></trkpt><trkpt lat="50.95228478043487" lon="11.938729083540059"><ele>200.0</ele><time>2026-05-03T16:01:47.92Z</time></trkpt><trkpt lat="50.95226372378024" lon="11.93893119536144"><ele>200.0</ele><time>2026-05-03T16:01:48.92Z</time></trkpt><trkpt lat="50.952253524473434" lon="11.93912666360628"><ele>200.0</ele><time>2026-05-03T16:01:49.92Z</time></trkpt><trkpt lat="50.952252565840354" lon="11.939327849390098"><ele>200.0</ele><time>2026-05-03T16:01:50.919Z</time></trkpt><trkpt lat="50.952258207115456" lon="11.939534241927646"><ele>200.0</ele><time>2026-05-03T16:01:51.919Z</time></trkpt><trkpt lat="50.95225803406887" lon="11.93972893068887"><ele>200.0</ele><time>2026-05-03T16:01:52.919Z</time></trkpt><trkpt lat="50.95226547585144" lon="11.939922280498905"><ele>200.0</ele><time>2026-05-03T16:01:53.92Z</time></trkpt><trkpt lat="50.952257313836434" lon="11.940118258831001"><ele>199.75</ele><time>2026-05-03T16:01:54.919Z</time></trkpt><trkpt lat="50.9522658911963" lon="11.940313668507823"><ele>199.5</ele><time>2026-05-03T16:01:55.919Z</time></trkpt><trkpt lat="50.952275080413585" lon="11.9405080583055"><ele>199.25</ele><time>2026-05-03T16:01:56.919Z</time></trkpt><trkpt lat="50.95228467674293" lon="11.940711060225532"><ele>199.0</ele><time>2026-05-03T16:01:57.919Z</time></trkpt><trkpt lat="50.9522925308307" lon="11.940918019024139"><ele>198.5</ele><time>2026-05-03T16:01:58.919Z</time></trkpt><trkpt lat="50.95230013870053" lon="11.941128839958242"><ele>198.0</ele><time>2026-05-03T16:01:59.92Z</time></trkpt><trkpt lat="50.952308035749965" lon="11.941346470317217"><ele>197.5</ele><time>2026-05-03T16:02:00.919Z</time></trkpt><trkpt lat="50.9523162672921" lon="11.94155898580284"><ele>197.0</ele><time>2026-05-03T16:02:01.919Z</time></trkpt><trkpt lat="50.952324662282884" lon="11.94177572100159"><ele>197.0</ele><time>2026-05-03T16:02:02.919Z</time></trkpt><trkpt lat="50.95233349398834" lon="11.94197585751434"><ele>197.0</ele><time>2026-05-03T16:02:03.919Z</time></trkpt><trkpt lat="50.95235950905924" lon="11.942156845726977"><ele>197.0</ele><time>2026-05-03T16:02:04.919Z</time></trkpt><trkpt lat="50.9523644032553" lon="11.942318243860429"><ele>197.0</ele><time>2026-05-03T16:02:05.919Z</time></trkpt><trkpt lat="50.95239687785733" lon="11.942486826286896"><ele>197.25</ele><time>2026-05-03T16:02:06.919Z</time></trkpt><trkpt lat="50.95244749646787" lon="11.94266065989874"><ele>197.5</ele><time>2026-05-03T16:02:07.919Z</time></trkpt><trkpt lat="50.95250956042404" lon="11.9428272305939"><ele>197.75</ele><time>2026-05-03T16:02:08.919Z</time></trkpt><trkpt lat="50.9525838551148" lon="11.942986215288244"><ele>198.0</ele><time>2026-05-03T16:02:09.919Z</time></trkpt><trkpt lat="50.95267187978384" lon="11.94312458244571"><ele>198.25</ele><time>2026-05-03T16:02:10.919Z</time></trkpt><trkpt lat="50.95275887593884" lon="11.943274777724325"><ele>198.5</ele><time>2026-05-03T16:02:11.919Z</time></trkpt><trkpt lat="50.95284214267886" lon="11.943422995885557"><ele>198.75</ele><time>2026-05-03T16:02:12.919Z</time></trkpt><trkpt lat="50.95293568742562" lon="11.943544431606638"><ele>199.0</ele><time>2026-05-03T16:02:13.919Z</time></trkpt><trkpt lat="50.95300694196873" lon="11.943684198818055"><ele>198.5</ele><time>2026-05-03T16:02:14.919Z</time></trkpt><trkpt lat="50.95307036544974" lon="11.943829582526282"><ele>198.0</ele><time>2026-05-03T16:02:15.919Z</time></trkpt><trkpt lat="50.953134411548305" lon="11.943985941697713"><ele>197.5</ele><time>2026-05-03T16:02:16.919Z</time></trkpt><trkpt lat="50.95321746153819" lon="11.944122663858066"><ele>197.0</ele><time>2026-05-03T16:02:17.919Z</time></trkpt><trkpt lat="50.953298304779295" lon="11.944267128914694"><ele>197.75</ele><time>2026-05-03T16:02:18.919Z</time></trkpt><trkpt lat="50.95338780344072" lon="11.944417235589448"><ele>198.5</ele><time>2026-05-03T16:02:19.919Z</time></trkpt><trkpt lat="50.953469811604684" lon="11.94457446151028"><ele>199.25</ele><time>2026-05-03T16:02:20.919Z</time></trkpt><trkpt lat="50.95355505285003" lon="11.944730301664947"><ele>200.0</ele><time>2026-05-03T16:02:21.919Z</time></trkpt><trkpt lat="50.95364399772014" lon="11.944889978592403"><ele>200.0</ele><time>2026-05-03T16:02:22.919Z</time></trkpt><trkpt lat="50.95371212323112" lon="11.945040937671383"><ele>200.0</ele><time>2026-05-03T16:02:23.919Z</time></trkpt><trkpt lat="50.95379241473848" lon="11.945198566235486"><ele>200.0</ele><time>2026-05-03T16:02:24.919Z</time></trkpt><trkpt lat="50.9538721080379" lon="11.945352310391401"><ele>200.0</ele><time>2026-05-03T16:02:25.919Z</time></trkpt><trkpt lat="50.9539551156511" lon="11.945503528380426"><ele>200.25</ele><time>2026-05-03T16:02:26.919Z</time></trkpt><trkpt lat="50.95403700181115" lon="11.945661379521711"><ele>200.5</ele><time>2026-05-03T16:02:27.919Z</time></trkpt><trkpt lat="50.95412426648187" lon="11.94581031741176"><ele>200.75</ele><time>2026-05-03T16:02:28.919Z</time></trkpt><trkpt lat="50.954206816347536" lon="11.945961276153474"><ele>201.0</ele><time>2026-05-03T16:02:29.919Z</time></trkpt><trkpt lat="50.95428461868928" lon="11.946118529701408"><ele>201.0</ele><time>2026-05-03T16:02:30.919Z</time></trkpt><trkpt lat="50.954364164256766" lon="11.946276509950806"><ele>201.0</ele><time>2026-05-03T16:02:31.919Z</time></trkpt><trkpt lat="50.95443597375776" lon="11.9464436360182"><ele>201.0</ele><time>2026-05-03T16:02:32.919Z</time></trkpt><trkpt lat="50.95451144441163" lon="11.946608903155571"><ele>201.0</ele><time>2026-05-03T16:02:33.919Z</time></trkpt><trkpt lat="50.95457679199028" lon="11.946778550571452"><ele>200.75</ele><time>2026-05-03T16:02:34.919Z</time></trkpt><trkpt lat="50.954635332693236" lon="11.946959698676595"><ele>200.5</ele><time>2026-05-03T16:02:35.919Z</time></trkpt><trkpt lat="50.95470321066985" lon="11.94713158915017"><ele>200.25</ele><time>2026-05-03T16:02:36.919Z</time></trkpt><trkpt lat="50.954784770880075" lon="11.947290858132538"><ele>200.0</ele><time>2026-05-03T16:02:37.919Z</time></trkpt><trkpt lat="50.954850796034556" lon="11.947462058807043"><ele>199.75</ele><time>2026-05-03T16:02:38.919Z</time></trkpt><trkpt lat="50.95491555139282" lon="11.947636340178114"><ele>199.5</ele><time>2026-05-03T16:02:39.919Z</time></trkpt><trkpt lat="50.95497240250978" lon="11.947813593143144"><ele>199.25</ele><time>2026-05-03T16:02:40.919Z</time></trkpt><trkpt lat="50.95502485021199" lon="11.947996298231198"><ele>199.0</ele><time>2026-05-03T16:02:41.919Z</time></trkpt><trkpt lat="50.955073266846036" lon="11.948184946225588"><ele>199.75</ele><time>2026-05-03T16:02:42.919Z</time></trkpt><trkpt lat="50.955115053519116" lon="11.948389281307927"><ele>200.5</ele><time>2026-05-03T16:02:43.919Z</time></trkpt><trkpt lat="50.95515429109153" lon="11.948605188375023"><ele>201.25</ele><time>2026-05-03T16:02:44.919Z</time></trkpt><trkpt lat="50.95519566077371" lon="11.948828883398798"><ele>202.0</ele><time>2026-05-03T16:02:45.919Z</time></trkpt><trkpt lat="50.95521964667012" lon="11.949069743795807"><ele>201.66666666666666</ele><time>2026-05-03T16:02:46.919Z</time></trkpt><trkpt lat="50.955267660640736" lon="11.949315488593244"><ele>201.33333333333331</ele><time>2026-05-03T16:02:47.919Z</time></trkpt><trkpt lat="50.95532025412656" lon="11.949573757733667"><ele>201.0</ele><time>2026-05-03T16:02:48.919Z</time></trkpt><trkpt lat="50.95537481727203" lon="11.949858703189175"><ele>200.33333333333331</ele><time>2026-05-03T16:02:49.919Z</time></trkpt><trkpt lat="50.955435170981076" lon="11.950170343585368"><ele>199.66666666666666</ele><time>2026-05-03T16:02:50.919Z</time></trkpt><trkpt lat="50.9554982598344" lon="11.950495569940077"><ele>199.0</ele><time>2026-05-03T16:02:51.919Z</time></trkpt><trkpt lat="50.95556369438512" lon="11.95083641717016"><ele>198.0</ele><time>2026-05-03T16:02:52.919Z</time></trkpt><trkpt lat="50.9556319405969" lon="11.95118643538575"><ele>197.0</ele><time>2026-05-03T16:02:53.919Z</time></trkpt><trkpt lat="50.95570367475447" lon="11.95156223497228"><ele>196.5</ele><time>2026-05-03T16:02:54.919Z</time></trkpt><trkpt lat="50.95578088195045" lon="11.951953709619156"><ele>196.0</ele><time>2026-05-03T16:02:55.919Z</time></trkpt><trkpt lat="50.95586193736937" lon="11.952361074641987"><ele>199.5</ele><time>2026-05-03T16:02:56.919Z</time></trkpt><trkpt lat="50.95594550329426" lon="11.95277019343727"><ele>203.0</ele><time>2026-05-03T16:02:57.919Z</time></trkpt><trkpt lat="50.95602664609508" lon="11.953180757825763"><ele>201.0</ele><time>2026-05-03T16:02:58.919Z</time></trkpt><trkpt lat="50.95610237608464" lon="11.95359232066818"><ele>199.0</ele><time>2026-05-03T16:02:59.919Z</time></trkpt><trkpt lat="50.95617714408299" lon="11.953987538037627"><ele>197.0</ele><time>2026-05-03T16:03:00.919Z</time></trkpt><trkpt lat="50.956252032819044" lon="11.954375251456806"><ele>195.0</ele><time>2026-05-03T16:03:01.919Z</time></trkpt><trkpt lat="50.95632474851116" lon="11.954751865596922"><ele>194.0</ele><time>2026-05-03T16:03:02.919Z</time></trkpt><trkpt lat="50.95639485316482" lon="11.955120960324592"><ele>193.0</ele><time>2026-05-03T16:03:03.919Z</time></trkpt><trkpt lat="50.95646116349043" lon="11.95547648479698"><ele>193.0</ele><time>2026-05-03T16:03:04.919Z</time></trkpt><trkpt lat="50.956528648497645" lon="11.955831509458251"><ele>193.0</ele><time>2026-05-03T16:03:05.919Z</time></trkpt><trkpt lat="50.95659766422598" lon="11.956181977784754"><ele>192.0</ele><time>2026-05-03T16:03:06.919Z</time></trkpt><trkpt lat="50.95666448819671" lon="11.956526783304012"><ele>191.0</ele><time>2026-05-03T16:03:07.919Z</time></trkpt><trkpt lat="50.956731304178476" lon="11.956870737107204"><ele>192.5</ele><time>2026-05-03T16:03:08.919Z</time></trkpt><trkpt lat="50.95679707611565" lon="11.957221505729285"><ele>194.0</ele><time>2026-05-03T16:03:09.919Z</time></trkpt><trkpt lat="50.95686240461661" lon="11.957574294248856"><ele>194.0</ele><time>2026-05-03T16:03:10.919Z</time></trkpt><trkpt lat="50.95693042186088" lon="11.957923294160745"><ele>194.0</ele><time>2026-05-03T16:03:11.919Z</time></trkpt><trkpt lat="50.95700151057985" lon="11.9582695105742"><ele>194.0</ele><time>2026-05-03T16:03:12.919Z</time></trkpt><trkpt lat="50.9570723904324" lon="11.958615927861363"><ele>194.0</ele><time>2026-05-03T16:03:13.919Z</time></trkpt><trkpt lat="50.957138252714465" lon="11.95896358565133"><ele>193.66666666666669</ele><time>2026-05-03T16:03:14.919Z</time></trkpt><trkpt lat="50.9572014841271" lon="11.959294342970008"><ele>193.33333333333331</ele><time>2026-05-03T16:03:15.919Z</time></trkpt><trkpt lat="50.95726316348601" lon="11.959605690127209"><ele>193.0</ele><time>2026-05-03T16:03:16.919Z</time></trkpt><trkpt lat="50.95731443802846" lon="11.959903444293667"><ele>193.0</ele><time>2026-05-03T16:03:17.919Z</time></trkpt><trkpt lat="50.957350925770086" lon="11.96021839942167"><ele>193.0</ele><time>2026-05-03T16:03:18.919Z</time></trkpt><trkpt lat="50.957370408565204" lon="11.960545512605783"><ele>193.0</ele><time>2026-05-03T16:03:19.919Z</time></trkpt><trkpt lat="50.95737669718631" lon="11.960853035574015"><ele>192.33333333333331</ele><time>2026-05-03T16:03:20.919Z</time></trkpt><trkpt lat="50.957375075864036" lon="11.961153727262449"><ele>191.66666666666666</ele><time>2026-05-03T16:03:21.919Z</time></trkpt><trkpt lat="50.95738363642066" lon="11.961440984766817"><ele>191.0</ele><time>2026-05-03T16:03:22.919Z</time></trkpt><trkpt lat="50.957390758745056" lon="11.96171387905949"><ele>191.0</ele><time>2026-05-03T16:03:23.919Z</time></trkpt><trkpt lat="50.95739578512251" lon="11.961981713022817"><ele>191.0</ele><time>2026-05-03T16:03:24.919Z</time></trkpt><trkpt lat="50.95739886433732" lon="11.962272136091816"><ele>191.0</ele><time>2026-05-03T16:03:25.919Z</time></trkpt><trkpt lat="50.95740836123736" lon="11.962574863131454"><ele>191.33333333333331</ele><time>2026-05-03T16:03:26.919Z</time></trkpt><trkpt lat="50.957419503406115" lon="11.962889376066162"><ele>191.66666666666666</ele><time>2026-05-03T16:03:27.919Z</time></trkpt><trkpt lat="50.95742820106708" lon="11.963204962012997"><ele>192.0</ele><time>2026-05-03T16:03:28.919Z</time></trkpt><trkpt lat="50.957436803362626" lon="11.963527498718568"><ele>192.0</ele><time>2026-05-03T16:03:29.919Z</time></trkpt><trkpt lat="50.95744293337538" lon="11.963841319629159"><ele>192.0</ele><time>2026-05-03T16:03:30.919Z</time></trkpt><trkpt lat="50.957451366268245" lon="11.964163874401724"><ele>192.0</ele><time>2026-05-03T16:03:31.919Z</time></trkpt><trkpt lat="50.957461664338254" lon="11.964479854140167"><ele>191.66666666666666</ele><time>2026-05-03T16:03:32.919Z</time></trkpt><trkpt lat="50.95747830438752" lon="11.96477927007215"><ele>191.33333333333331</ele><time>2026-05-03T16:03:33.919Z</time></trkpt><trkpt lat="50.95747295887172" lon="11.96507027477129"><ele>191.0</ele><time>2026-05-03T16:03:34.919Z</time></trkpt><trkpt lat="50.9575309558301" lon="11.965361889195734"><ele>191.33333333333331</ele><time>2026-05-03T16:03:35.919Z</time></trkpt><trkpt lat="50.957556960306775" lon="11.965644242102906"><ele>191.66666666666666</ele><time>2026-05-03T16:03:36.919Z</time></trkpt><trkpt lat="50.95762802543435" lon="11.965918425804334"><ele>192.0</ele><time>2026-05-03T16:03:37.919Z</time></trkpt><trkpt lat="50.957711497188704" lon="11.966182480824502"><ele>192.0</ele><time>2026-05-03T16:03:38.919Z</time></trkpt><trkpt lat="50.957797513076905" lon="11.966450327387381"><ele>192.0</ele><time>2026-05-03T16:03:39.919Z</time></trkpt><trkpt lat="50.9578940349929" lon="11.96671910813753"><ele>192.0</ele><time>2026-05-03T16:03:40.919Z</time></trkpt><trkpt lat="50.95799456095731" lon="11.966982226602012"><ele>190.0</ele><time>2026-05-03T16:03:41.919Z</time></trkpt><trkpt lat="50.95809970959257" lon="11.967242846208707"><ele>188.0</ele><time>2026-05-03T16:03:42.919Z</time></trkpt><trkpt lat="50.95820828682584" lon="11.96750107631485"><ele>186.0</ele><time>2026-05-03T16:03:43.919Z</time></trkpt><trkpt lat="50.958318105627136" lon="11.967759348598687"><ele>186.0</ele><time>2026-05-03T16:03:44.919Z</time></trkpt><trkpt lat="50.958433878267556" lon="11.968034178604855"><ele>186.0</ele><time>2026-05-03T16:03:45.919Z</time></trkpt><trkpt lat="50.95854408528816" lon="11.96831253937665"><ele>186.0</ele><time>2026-05-03T16:03:46.919Z</time></trkpt><trkpt lat="50.95865909358959" lon="11.968587076850303"><ele>186.0</ele><time>2026-05-03T16:03:47.919Z</time></trkpt><trkpt lat="50.95877380668792" lon="11.968854280150833"><ele>186.0</ele><time>2026-05-03T16:03:48.919Z</time></trkpt><trkpt lat="50.95888576242041" lon="11.96912619535927"><ele>186.0</ele><time>2026-05-03T16:03:49.919Z</time></trkpt><trkpt lat="50.95900057217414" lon="11.969399892650632"><ele>185.0</ele><time>2026-05-03T16:03:50.919Z</time></trkpt><trkpt lat="50.95911176823475" lon="11.969666240067639"><ele>184.0</ele><time>2026-05-03T16:03:51.919Z</time></trkpt><trkpt lat="50.95921861199444" lon="11.969928151780591"><ele>183.0</ele><time>2026-05-03T16:03:52.919Z</time></trkpt><trkpt lat="50.959322254409955" lon="11.970189789267998"><ele>184.66666666666666</ele><time>2026-05-03T16:03:53.919Z</time></trkpt><trkpt lat="50.959428641771964" lon="11.970435361553205"><ele>186.33333333333331</ele><time>2026-05-03T16:03:54.919Z</time></trkpt><trkpt lat="50.95952721766678" lon="11.97066433605829"><ele>188.0</ele><time>2026-05-03T16:03:55.919Z</time></trkpt><trkpt lat="50.9596270956512" lon="11.970880926081449"><ele>188.0</ele><time>2026-05-03T16:03:56.918Z</time></trkpt><trkpt lat="50.95973305385396" lon="11.971071159408911"><ele>188.0</ele><time>2026-05-03T16:03:57.918Z</time></trkpt><trkpt lat="50.9598166736505" lon="11.971240614291045"><ele>188.0</ele><time>2026-05-03T16:03:58.918Z</time></trkpt><trkpt lat="50.959877986291396" lon="11.971392882738213"><ele>188.0</ele><time>2026-05-03T16:03:59.918Z</time></trkpt><trkpt lat="50.959923549165566" lon="11.971536011839811"><ele>188.0</ele><time>2026-05-03T16:04:00.919Z</time></trkpt><trkpt lat="50.959969074845226" lon="11.971673898366364"><ele>188.0</ele><time>2026-05-03T16:04:01.919Z</time></trkpt><trkpt lat="50.96001362572383" lon="11.971825313961059"><ele>188.0</ele><time>2026-05-03T16:04:02.919Z</time></trkpt><trkpt lat="50.9600574579433" lon="11.971975945001658"><ele>188.0</ele><time>2026-05-03T16:04:03.918Z</time></trkpt><trkpt lat="50.96010540209807" lon="11.972138019702205"><ele>188.0</ele><time>2026-05-03T16:04:04.918Z</time></trkpt><trkpt lat="50.96015903118414" lon="11.972301510162367"><ele>189.75</ele><time>2026-05-03T16:04:05.919Z</time></trkpt><trkpt lat="50.9602107944138" lon="11.972478267198488"><ele>191.5</ele><time>2026-05-03T16:04:06.919Z</time></trkpt><trkpt lat="50.96026234099549" lon="11.972653044832073"><ele>193.25</ele><time>2026-05-03T16:04:07.919Z</time></trkpt><trkpt lat="50.96030548016617" lon="11.972830880236861"><ele>195.0</ele><time>2026-05-03T16:04:08.918Z</time></trkpt><trkpt lat="50.960349947243984" lon="11.972993520698624"><ele>195.0</ele><time>2026-05-03T16:04:09.918Z</time></trkpt><trkpt lat="50.96039083676504" lon="11.973155533560446"><ele>195.0</ele><time>2026-05-03T16:04:10.918Z</time></trkpt><trkpt lat="50.96042171596843" lon="11.973325492207081"><ele>195.0</ele><time>2026-05-03T16:04:11.918Z</time></trkpt><trkpt lat="50.960452324821716" lon="11.973487605939281"><ele>195.0</ele><time>2026-05-03T16:04:12.918Z</time></trkpt><trkpt lat="50.960483725824034" lon="11.9736426701341"><ele>195.0</ele><time>2026-05-03T16:04:13.918Z</time></trkpt><trkpt lat="50.960521690994895" lon="11.973791499223296"><ele>194.4</ele><time>2026-05-03T16:04:14.918Z</time></trkpt><trkpt lat="50.960557692259044" lon="11.973951571301908"><ele>193.8</ele><time>2026-05-03T16:04:15.918Z</time></trkpt><trkpt lat="50.960599805274796" lon="11.974116363807852"><ele>193.2</ele><time>2026-05-03T16:04:16.918Z</time></trkpt><trkpt lat="50.960636592614826" lon="11.974280931024914"><ele>192.6</ele><time>2026-05-03T16:04:17.918Z</time></trkpt><trkpt lat="50.960676598706804" lon="11.974453712951739"><ele>192.0</ele><time>2026-05-03T16:04:18.918Z</time></trkpt><trkpt lat="50.96071524503751" lon="11.974625770559902"><ele>191.0</ele><time>2026-05-03T16:04:19.918Z</time></trkpt><trkpt lat="50.96075620254717" lon="11.974789636056366"><ele>190.0</ele><time>2026-05-03T16:04:20.918Z</time></trkpt><trkpt lat="50.96078836829534" lon="11.9749584937445"><ele>189.0</ele><time>2026-05-03T16:04:21.918Z</time></trkpt><trkpt lat="50.960820002948346" lon="11.975108417190752"><ele>188.0</ele><time>2026-05-03T16:04:22.918Z</time></trkpt><trkpt lat="50.96085884509693" lon="11.975243929591542"><ele>187.0</ele><time>2026-05-03T16:04:23.918Z</time></trkpt><trkpt lat="50.960901912796956" lon="11.975391784735185"><ele>187.6</ele><time>2026-05-03T16:04:24.918Z</time></trkpt><trkpt lat="50.96095079420948" lon="11.975535171126928"><ele>188.2</ele><time>2026-05-03T16:04:25.918Z</time></trkpt><trkpt lat="50.96100980824202" lon="11.975668067585634"><ele>188.8</ele><time>2026-05-03T16:04:26.918Z</time></trkpt><trkpt lat="50.96107785301801" lon="11.975790032253196"><ele>189.4</ele><time>2026-05-03T16:04:27.918Z</time></trkpt><trkpt lat="50.9611552474208" lon="11.975923862580235"><ele>190.0</ele><time>2026-05-03T16:04:28.918Z</time></trkpt><trkpt lat="50.96123733719141" lon="11.976059745723719"><ele>190.0</ele><time>2026-05-03T16:04:29.918Z</time></trkpt><trkpt lat="50.96131377565049" lon="11.97620968519983"><ele>190.0</ele><time>2026-05-03T16:04:30.918Z</time></trkpt><trkpt lat="50.9613789993431" lon="11.976380911781058"><ele>190.0</ele><time>2026-05-03T16:04:31.918Z</time></trkpt><trkpt lat="50.96143467265117" lon="11.976581126619774"><ele>190.0</ele><time>2026-05-03T16:04:32.918Z</time></trkpt><trkpt lat="50.96148689968825" lon="11.976777581377386"><ele>188.5</ele><time>2026-05-03T16:04:33.918Z</time></trkpt><trkpt lat="50.96154709803755" lon="11.976973372796513"><ele>187.0</ele><time>2026-05-03T16:04:34.918Z</time></trkpt><trkpt lat="50.961611932839354" lon="11.977163464822242"><ele>185.5</ele><time>2026-05-03T16:04:35.918Z</time></trkpt><trkpt lat="50.961679263019384" lon="11.977349132821129"><ele>184.0</ele><time>2026-05-03T16:04:36.918Z</time></trkpt><trkpt lat="50.96175689900645" lon="11.977530025977943"><ele>183.0</ele><time>2026-05-03T16:04:37.918Z</time></trkpt><trkpt lat="50.961836244708785" lon="11.97768768838141"><ele>182.0</ele><time>2026-05-03T16:04:38.918Z</time></trkpt><trkpt lat="50.96192815170679" lon="11.977837336749568"><ele>181.0</ele><time>2026-05-03T16:04:39.918Z</time></trkpt><trkpt lat="50.96202430817124" lon="11.977983455024972"><ele>180.0</ele><time>2026-05-03T16:04:40.918Z</time></trkpt><trkpt lat="50.962111141582895" lon="11.978131557302271"><ele>180.0</ele><time>2026-05-03T16:04:41.918Z</time></trkpt><trkpt lat="50.96217813728255" lon="11.978310350922381"><ele>180.0</ele><time>2026-05-03T16:04:42.918Z</time></trkpt><trkpt lat="50.96223975211244" lon="11.978490335389056"><ele>180.0</ele><time>2026-05-03T16:04:43.918Z</time></trkpt><trkpt lat="50.96228943422303" lon="11.978675961051845"><ele>180.0</ele><time>2026-05-03T16:04:44.918Z</time></trkpt><trkpt lat="50.96232929067712" lon="11.978869483330529"><ele>179.0</ele><time>2026-05-03T16:04:45.918Z</time></trkpt><trkpt lat="50.962366014645745" lon="11.979057828280304"><ele>178.0</ele><time>2026-05-03T16:04:46.918Z</time></trkpt><trkpt lat="50.96240106051319" lon="11.97923718030727"><ele>177.0</ele><time>2026-05-03T16:04:47.918Z</time></trkpt><trkpt lat="50.962435098423974" lon="11.979411375038428"><ele>176.0</ele><time>2026-05-03T16:04:48.918Z</time></trkpt><trkpt lat="50.962471706778814" lon="11.979598732186252"><ele>176.0</ele><time>2026-05-03T16:04:49.918Z</time></trkpt><trkpt lat="50.96250759575339" lon="11.979785884967734"><ele>176.0</ele><time>2026-05-03T16:04:50.918Z</time></trkpt><trkpt lat="50.96254506452232" lon="11.979979971298249"><ele>176.0</ele><time>2026-05-03T16:04:51.918Z</time></trkpt><trkpt lat="50.96258112529704" lon="11.980166139173361"><ele>176.0</ele><time>2026-05-03T16:04:52.918Z</time></trkpt><trkpt lat="50.96261855151714" lon="11.980357050242661"><ele>176.0</ele><time>2026-05-03T16:04:53.918Z</time></trkpt><trkpt lat="50.962655259597895" lon="11.980544019208738"><ele>176.0</ele><time>2026-05-03T16:04:54.918Z</time></trkpt><trkpt lat="50.962691431236024" lon="11.980722989057522"><ele>176.0</ele><time>2026-05-03T16:04:55.918Z</time></trkpt><trkpt lat="50.9627275866565" lon="11.980901878807908"><ele>176.0</ele><time>2026-05-03T16:04:56.918Z</time></trkpt><trkpt lat="50.96276438962886" lon="11.981086288791667"><ele>176.0</ele><time>2026-05-03T16:04:57.918Z</time></trkpt><trkpt lat="50.9627999856299" lon="11.981265981098275"><ele>176.0</ele><time>2026-05-03T16:04:58.918Z</time></trkpt><trkpt lat="50.96284287195895" lon="11.981447342375516"><ele>176.0</ele><time>2026-05-03T16:04:59.918Z</time></trkpt><trkpt lat="50.96287866728297" lon="11.981628159447395"><ele>176.0</ele><time>2026-05-03T16:05:00.918Z</time></trkpt><trkpt lat="50.96291231647528" lon="11.981800188352393"><ele>175.8</ele><time>2026-05-03T16:05:01.918Z</time></trkpt><trkpt lat="50.96294789525028" lon="11.981969775505855"><ele>175.60000000000002</ele><time>2026-05-03T16:05:02.918Z</time></trkpt><trkpt lat="50.96298214184667" lon="11.982135230431423"><ele>175.4</ele><time>2026-05-03T16:05:03.918Z</time></trkpt><trkpt lat="50.9630122060882" lon="11.982294226028"><ele>175.2</ele><time>2026-05-03T16:05:04.918Z</time></trkpt><trkpt lat="50.96304160540045" lon="11.982458543807297"><ele>175.0</ele><time>2026-05-03T16:05:05.918Z</time></trkpt><trkpt lat="50.96307900944906" lon="11.982610495045394"><ele>175.0</ele><time>2026-05-03T16:05:06.918Z</time></trkpt><trkpt lat="50.96310969098595" lon="11.982763432949465"><ele>175.0</ele><time>2026-05-03T16:05:07.918Z</time></trkpt><trkpt lat="50.96314080792477" lon="11.982903789003439"><ele>175.0</ele><time>2026-05-03T16:05:08.918Z</time></trkpt><trkpt lat="50.963168347367066" lon="11.983023699822533"><ele>175.0</ele><time>2026-05-03T16:05:09.918Z</time></trkpt><trkpt lat="50.963190422111985" lon="11.983150837574058"><ele>175.0</ele><time>2026-05-03T16:05:10.918Z</time></trkpt><trkpt lat="50.96319533862003" lon="11.98327614816335"><ele>175.0</ele><time>2026-05-03T16:05:11.918Z</time></trkpt><trkpt lat="50.96314058607058" lon="11.983404334799207"><ele>175.0</ele><time>2026-05-03T16:05:12.918Z</time></trkpt><trkpt lat="50.96310510376455" lon="11.983523261889474"><ele>175.0</ele><time>2026-05-03T16:05:13.918Z</time></trkpt><trkpt lat="50.96309385492833" lon="11.983664603539426"><ele>175.0</ele><time>2026-05-03T16:05:14.918Z</time></trkpt><trkpt lat="50.9631130011335" lon="11.983807803882788"><ele>175.0</ele><time>2026-05-03T16:05:15.918Z</time></trkpt><trkpt lat="50.96315153990875" lon="11.98394786319319"><ele>175.0</ele><time>2026-05-03T16:05:16.918Z</time></trkpt><trkpt lat="50.96317501692001" lon="11.984069143942758"><ele>175.0</ele><time>2026-05-03T16:05:17.918Z</time></trkpt><trkpt lat="50.96315922856862" lon="11.984194990031687"><ele>175.0</ele><time>2026-05-03T16:05:18.918Z</time></trkpt><trkpt lat="50.96310367687784" lon="11.984314825573751"><ele>175.0</ele><time>2026-05-03T16:05:19.918Z</time></trkpt><trkpt lat="50.963028734851726" lon="11.984435221088832"><ele>175.0</ele><time>2026-05-03T16:05:20.918Z</time></trkpt><trkpt lat="50.96294427924626" lon="11.984537628412204"><ele>175.0</ele><time>2026-05-03T16:05:21.918Z</time></trkpt><trkpt lat="50.962838455200085" lon="11.984618969616095"><ele>175.0</ele><time>2026-05-03T16:05:22.918Z</time></trkpt><trkpt lat="50.962721666013685" lon="11.98466491857434"><ele>175.0</ele><time>2026-05-03T16:05:23.918Z</time></trkpt><trkpt lat="50.96259530226041" lon="11.984698968312392"><ele>175.0</ele><time>2026-05-03T16:05:24.918Z</time></trkpt><trkpt lat="50.962462657901185" lon="11.984729348101139"><ele>175.0</ele><time>2026-05-03T16:05:25.918Z</time></trkpt><trkpt lat="50.96232181203115" lon="11.984748165336223"><ele>175.0</ele><time>2026-05-03T16:05:26.918Z</time></trkpt><trkpt lat="50.962180663601636" lon="11.984768911540376"><ele>175.25</ele><time>2026-05-03T16:05:27.918Z</time></trkpt><trkpt lat="50.96203972380217" lon="11.984788131946788"><ele>175.5</ele><time>2026-05-03T16:05:28.918Z</time></trkpt><trkpt lat="50.96189807358892" lon="11.984823748808838"><ele>175.75</ele><time>2026-05-03T16:05:29.918Z</time></trkpt><trkpt lat="50.96175377947575" lon="11.98485312855228"><ele>176.0</ele><time>2026-05-03T16:05:30.918Z</time></trkpt><trkpt lat="50.961607050401845" lon="11.984885370175007"><ele>176.0</ele><time>2026-05-03T16:05:31.918Z</time></trkpt><trkpt lat="50.96145918775472" lon="11.984919627057069"><ele>176.0</ele><time>2026-05-03T16:05:32.918Z</time></trkpt><trkpt lat="50.96130789315311" lon="11.984952570046152"><ele>176.0</ele><time>2026-05-03T16:05:33.918Z</time></trkpt><trkpt lat="50.961158729835866" lon="11.984989237861635"><ele>175.75</ele><time>2026-05-03T16:05:34.918Z</time></trkpt><trkpt lat="50.96101787785575" lon="11.985020027436489"><ele>175.5</ele><time>2026-05-03T16:05:35.918Z</time></trkpt><trkpt lat="50.9608766355003" lon="11.985042480659114"><ele>175.25</ele><time>2026-05-03T16:05:36.918Z</time></trkpt><trkpt lat="50.960738728510734" lon="11.985050903722156"><ele>175.0</ele><time>2026-05-03T16:05:37.918Z</time></trkpt><trkpt lat="50.96060142810341" lon="11.985051318925757"><ele>174.5</ele><time>2026-05-03T16:05:38.918Z</time></trkpt><trkpt lat="50.96046447440283" lon="11.98504449205372"><ele>174.0</ele><time>2026-05-03T16:05:39.918Z</time></trkpt><trkpt lat="50.96032474742812" lon="11.985037221336267"><ele>173.5</ele><time>2026-05-03T16:05:40.918Z</time></trkpt><trkpt lat="50.96018873437076" lon="11.985030618958087"><ele>173.0</ele><time>2026-05-03T16:05:41.918Z</time></trkpt><trkpt lat="50.9600522575932" lon="11.985021101326957"><ele>174.5</ele><time>2026-05-03T16:05:42.918Z</time></trkpt><trkpt lat="50.95991644090361" lon="11.98500647326903"><ele>176.0</ele><time>2026-05-03T16:05:43.918Z</time></trkpt><trkpt lat="50.95977804445083" lon="11.984984138616227"><ele>177.5</ele><time>2026-05-03T16:05:44.918Z</time></trkpt><trkpt lat="50.95964219850649" lon="11.984967186107705"><ele>179.0</ele><time>2026-05-03T16:05:45.918Z</time></trkpt><trkpt lat="50.959505962882666" lon="11.984948826929452"><ele>179.0</ele><time>2026-05-03T16:05:46.918Z</time></trkpt><trkpt lat="50.95936529645541" lon="11.984934955448677"><ele>179.0</ele><time>2026-05-03T16:05:47.918Z</time></trkpt><trkpt lat="50.959231734624616" lon="11.98491290923516"><ele>179.0</ele><time>2026-05-03T16:05:48.918Z</time></trkpt><trkpt lat="50.95909250048323" lon="11.984898475501653"><ele>179.0</ele><time>2026-05-03T16:05:49.918Z</time></trkpt><trkpt lat="50.95895442023998" lon="11.984865195410965"><ele>178.75</ele><time>2026-05-03T16:05:50.918Z</time></trkpt><trkpt lat="50.95882258759548" lon="11.984830253781878"><ele>178.5</ele><time>2026-05-03T16:05:51.919Z</time></trkpt><trkpt lat="50.958686700251974" lon="11.984779695026502"><ele>178.25</ele><time>2026-05-03T16:05:52.919Z</time></trkpt><trkpt lat="50.95855225378468" lon="11.98472948332105"><ele>178.0</ele><time>2026-05-03T16:05:53.919Z</time></trkpt><trkpt lat="50.95841223062217" lon="11.984683070503406"><ele>177.0</ele><time>2026-05-03T16:05:54.919Z</time></trkpt><trkpt lat="50.958276222875504" lon="11.984633860901923"><ele>176.0</ele><time>2026-05-03T16:05:55.919Z</time></trkpt><trkpt lat="50.9581372033773" lon="11.984588215100516"><ele>175.0</ele><time>2026-05-03T16:05:56.919Z</time></trkpt><trkpt lat="50.95800030901522" lon="11.984544140650327"><ele>174.0</ele><time>2026-05-03T16:05:57.919Z</time></trkpt><trkpt lat="50.957860251212026" lon="11.984503683436769"><ele>174.0</ele><time>2026-05-03T16:05:58.919Z</time></trkpt><trkpt lat="50.95771816280084" lon="11.98446395925729"><ele>174.0</ele><time>2026-05-03T16:05:59.919Z</time></trkpt><trkpt lat="50.95757292795314" lon="11.98444014866176"><ele>174.0</ele><time>2026-05-03T16:06:00.919Z</time></trkpt><trkpt lat="50.957416832197765" lon="11.984446285742523"><ele>174.0</ele><time>2026-05-03T16:06:01.919Z</time></trkpt><trkpt lat="50.95725466087886" lon="11.984465587505229"><ele>174.0</ele><time>2026-05-03T16:06:02.917Z</time></trkpt><trkpt lat="50.95708005210464" lon="11.9845072548908"><ele>174.0</ele><time>2026-05-03T16:06:03.918Z</time></trkpt><trkpt lat="50.956897134519174" lon="11.984558456498378"><ele>174.0</ele><time>2026-05-03T16:06:04.918Z</time></trkpt><trkpt lat="50.95670210294571" lon="11.98463298047312"><ele>174.33333333333334</ele><time>2026-05-03T16:06:05.917Z</time></trkpt><trkpt lat="50.95650854066733" lon="11.984739569785816"><ele>174.66666666666669</ele><time>2026-05-03T16:06:06.918Z</time></trkpt><trkpt lat="50.956318500226125" lon="11.98489319137513"><ele>175.0</ele><time>2026-05-03T16:06:07.918Z</time></trkpt><trkpt lat="50.9561258801341" lon="11.985055254582043"><ele>175.0</ele><time>2026-05-03T16:06:08.918Z</time></trkpt><trkpt lat="50.95593612258115" lon="11.985197621952667"><ele>175.0</ele><time>2026-05-03T16:06:09.917Z</time></trkpt><trkpt lat="50.955737524363975" lon="11.985300818573945"><ele>175.0</ele><time>2026-05-03T16:06:10.917Z</time></trkpt><trkpt lat="50.9555462751572" lon="11.985363495301351"><ele>176.0</ele><time>2026-05-03T16:06:11.917Z</time></trkpt><trkpt lat="50.955355589621085" lon="11.985389583824793"><ele>177.0</ele><time>2026-05-03T16:06:12.917Z</time></trkpt><trkpt lat="50.95516219509198" lon="11.985387313258384"><ele>178.0</ele><time>2026-05-03T16:06:13.917Z</time></trkpt><trkpt lat="50.95497549085523" lon="11.985381857133541"><ele>178.0</ele><time>2026-05-03T16:06:14.918Z</time></trkpt><trkpt lat="50.954798474742134" lon="11.985389095281826"><ele>178.0</ele><time>2026-05-03T16:06:15.917Z</time></trkpt><trkpt lat="50.95463135676767" lon="11.985394907320334"><ele>178.0</ele><time>2026-05-03T16:06:16.917Z</time></trkpt><trkpt lat="50.95446529440705" lon="11.985407212484073"><ele>178.0</ele><time>2026-05-03T16:06:17.917Z</time></trkpt><trkpt lat="50.95429988617991" lon="11.98543113877357"><ele>178.0</ele><time>2026-05-03T16:06:18.917Z</time></trkpt><trkpt lat="50.954137729181966" lon="11.985470481463196"><ele>178.0</ele><time>2026-05-03T16:06:19.917Z</time></trkpt><trkpt lat="50.95397728106175" lon="11.985508222959105"><ele>178.0</ele><time>2026-05-03T16:06:20.917Z</time></trkpt><trkpt lat="50.95381490149931" lon="11.985547031204051"><ele>178.0</ele><time>2026-05-03T16:06:21.917Z</time></trkpt><trkpt lat="50.953656224390265" lon="11.98558370954284"><ele>178.0</ele><time>2026-05-03T16:06:22.917Z</time></trkpt><trkpt lat="50.95349874256364" lon="11.985615772205954"><ele>178.33333333333334</ele><time>2026-05-03T16:06:23.917Z</time></trkpt><trkpt lat="50.9533391735163" lon="11.985648218449978"><ele>178.66666666666666</ele><time>2026-05-03T16:06:24.917Z</time></trkpt><trkpt lat="50.95317685031232" lon="11.98568294107152"><ele>179.0</ele><time>2026-05-03T16:06:25.917Z</time></trkpt><trkpt lat="50.953014159629625" lon="11.985718535227782"><ele>179.0</ele><time>2026-05-03T16:06:26.917Z</time></trkpt><trkpt lat="50.95284545150658" lon="11.985754899193344"><ele>179.0</ele><time>2026-05-03T16:06:27.917Z</time></trkpt><trkpt lat="50.952671212105805" lon="11.985788326060732"><ele>179.0</ele><time>2026-05-03T16:06:28.917Z</time></trkpt><trkpt lat="50.95249773799119" lon="11.985829555116693"><ele>178.33333333333331</ele><time>2026-05-03T16:06:29.917Z</time></trkpt><trkpt lat="50.95232563364182" lon="11.985878529027218"><ele>177.66666666666666</ele><time>2026-05-03T16:06:30.917Z</time></trkpt><trkpt lat="50.95215225323981" lon="11.985943132258349"><ele>177.0</ele><time>2026-05-03T16:06:31.917Z</time></trkpt><trkpt lat="50.951977809142996" lon="11.98602584884853"><ele>177.0</ele><time>2026-05-03T16:06:32.917Z</time></trkpt><trkpt lat="50.951801839075095" lon="11.986115219341356"><ele>177.0</ele><time>2026-05-03T16:06:33.917Z</time></trkpt><trkpt lat="50.95162560608863" lon="11.986198208422158"><ele>177.0</ele><time>2026-05-03T16:06:34.917Z</time></trkpt><trkpt lat="50.951446434073645" lon="11.986282565741751"><ele>176.66666666666666</ele><time>2026-05-03T16:06:35.917Z</time></trkpt><trkpt lat="50.95126857863175" lon="11.986370312426713"><ele>176.33333333333331</ele><time>2026-05-03T16:06:36.917Z</time></trkpt><trkpt lat="50.951094146734555" lon="11.986454395366847"><ele>176.0</ele><time>2026-05-03T16:06:37.917Z</time></trkpt><trkpt lat="50.950929948389884" lon="11.986533787095116"><ele>176.0</ele><time>2026-05-03T16:06:38.917Z</time></trkpt><trkpt lat="50.95077273608406" lon="11.986612778081186"><ele>176.0</ele><time>2026-05-03T16:06:39.917Z</time></trkpt><trkpt lat="50.95061915660669" lon="11.986697274610236"><ele>176.0</ele><time>2026-05-03T16:06:40.917Z</time></trkpt><trkpt lat="50.950476725225" lon="11.986799061975738"><ele>176.0</ele><time>2026-05-03T16:06:41.917Z</time></trkpt><trkpt lat="50.95033989129951" lon="11.986892481861108"><ele>176.0</ele><time>2026-05-03T16:06:42.917Z</time></trkpt><trkpt lat="50.95020087655319" lon="11.986985167878556"><ele>176.0</ele><time>2026-05-03T16:06:43.917Z</time></trkpt><trkpt lat="50.9500666944004" lon="11.987080195344626"><ele>176.0</ele><time>2026-05-03T16:06:44.917Z</time></trkpt><trkpt lat="50.94992787765745" lon="11.987172363381394"><ele>176.0</ele><time>2026-05-03T16:06:45.917Z</time></trkpt><trkpt lat="50.9497924156538" lon="11.987262588808877"><ele>176.0</ele><time>2026-05-03T16:06:46.917Z</time></trkpt><trkpt lat="50.949659666066815" lon="11.987351800738388"><ele>176.0</ele><time>2026-05-03T16:06:47.917Z</time></trkpt><trkpt lat="50.94952491007644" lon="11.98744058778977"><ele>176.0</ele><time>2026-05-03T16:06:48.917Z</time></trkpt><trkpt lat="50.94939514532321" lon="11.98752597363173"><ele>176.0</ele><time>2026-05-03T16:06:49.917Z</time></trkpt><trkpt lat="50.949263548741044" lon="11.987612037787255"><ele>176.0</ele><time>2026-05-03T16:06:50.917Z</time></trkpt><trkpt lat="50.94913156175551" lon="11.987699164714337"><ele>176.0</ele><time>2026-05-03T16:06:51.917Z</time></trkpt><trkpt lat="50.94900039268671" lon="11.987786900761943"><ele>176.0</ele><time>2026-05-03T16:06:52.917Z</time></trkpt><trkpt lat="50.94886799042729" lon="11.987878671402713"><ele>176.0</ele><time>2026-05-03T16:06:53.917Z</time></trkpt><trkpt lat="50.94873730494924" lon="11.987969767338639"><ele>176.0</ele><time>2026-05-03T16:06:54.917Z</time></trkpt><trkpt lat="50.948607427179745" lon="11.988064608171117"><ele>176.0</ele><time>2026-05-03T16:06:55.917Z</time></trkpt><trkpt lat="50.948469613693504" lon="11.988149436331502"><ele>176.0</ele><time>2026-05-03T16:06:56.917Z</time></trkpt><trkpt lat="50.948337709157556" lon="11.988231168685575"><ele>176.0</ele><time>2026-05-03T16:06:57.917Z</time></trkpt><trkpt lat="50.94820492932369" lon="11.988299319402264"><ele>176.0</ele><time>2026-05-03T16:06:58.917Z</time></trkpt><trkpt lat="50.94806254645691" lon="11.988354477648933"><ele>176.0</ele><time>2026-05-03T16:06:59.917Z</time></trkpt><trkpt lat="50.94791657157815" lon="11.988398134956013"><ele>176.0</ele><time>2026-05-03T16:07:00.917Z</time></trkpt><trkpt lat="50.94777381172365" lon="11.988445468868823"><ele>176.0</ele><time>2026-05-03T16:07:01.917Z</time></trkpt><trkpt lat="50.94763797854312" lon="11.98849135183552"><ele>176.0</ele><time>2026-05-03T16:07:02.917Z</time></trkpt><trkpt lat="50.94750444746957" lon="11.98853169345139"><ele>176.0</ele><time>2026-05-03T16:07:03.917Z</time></trkpt><trkpt lat="50.947370327308754" lon="11.988575115293091"><ele>176.0</ele><time>2026-05-03T16:07:04.917Z</time></trkpt><trkpt lat="50.94723572259501" lon="11.988618548228464"><ele>176.5</ele><time>2026-05-03T16:07:05.917Z</time></trkpt><trkpt lat="50.94709778759543" lon="11.988667336281138"><ele>177.0</ele><time>2026-05-03T16:07:06.917Z</time></trkpt><trkpt lat="50.94696310123874" lon="11.988722528139107"><ele>177.5</ele><time>2026-05-03T16:07:07.917Z</time></trkpt><trkpt lat="50.94683188863051" lon="11.988779681831014"><ele>178.0</ele><time>2026-05-03T16:07:08.917Z</time></trkpt><trkpt lat="50.94669985402862" lon="11.988852887625914"><ele>178.0</ele><time>2026-05-03T16:07:09.917Z</time></trkpt><trkpt lat="50.9465725874497" lon="11.988933740027383"><ele>178.0</ele><time>2026-05-03T16:07:10.917Z</time></trkpt><trkpt lat="50.946448991263445" lon="11.989010794426322"><ele>178.0</ele><time>2026-05-03T16:07:11.917Z</time></trkpt><trkpt lat="50.94632497165853" lon="11.989086887133139"><ele>178.0</ele><time>2026-05-03T16:07:12.917Z</time></trkpt><trkpt lat="50.94619909846446" lon="11.989161019520797"><ele>177.75</ele><time>2026-05-03T16:07:13.917Z</time></trkpt><trkpt lat="50.94607853516459" lon="11.989233659195888"><ele>177.5</ele><time>2026-05-03T16:07:14.917Z</time></trkpt><trkpt lat="50.94596018867251" lon="11.989307438853421"><ele>177.25</ele><time>2026-05-03T16:07:15.917Z</time></trkpt><trkpt lat="50.945847747958965" lon="11.989378306866262"><ele>177.0</ele><time>2026-05-03T16:07:16.917Z</time></trkpt><trkpt lat="50.94573464683262" lon="11.989453597204939"><ele>177.0</ele><time>2026-05-03T16:07:17.917Z</time></trkpt><trkpt lat="50.94561574648894" lon="11.98952747517441"><ele>177.0</ele><time>2026-05-03T16:07:18.917Z</time></trkpt><trkpt lat="50.94549391778963" lon="11.989600964405678"><ele>177.0</ele><time>2026-05-03T16:07:19.917Z</time></trkpt><trkpt lat="50.94536572829749" lon="11.989660542071697"><ele>177.0</ele><time>2026-05-03T16:07:20.917Z</time></trkpt><trkpt lat="50.94521603386811" lon="11.989687886547973"><ele>177.0</ele><time>2026-05-03T16:07:21.917Z</time></trkpt><trkpt lat="50.945065317655384" lon="11.989703569582417"><ele>177.0</ele><time>2026-05-03T16:07:22.917Z</time></trkpt><trkpt lat="50.94492455809627" lon="11.989722264297278"><ele>177.0</ele><time>2026-05-03T16:07:23.917Z</time></trkpt><trkpt lat="50.944786463739284" lon="11.989763066313543"><ele>177.0</ele><time>2026-05-03T16:07:24.917Z</time></trkpt><trkpt lat="50.944644731901164" lon="11.989827453035407"><ele>177.25</ele><time>2026-05-03T16:07:25.917Z</time></trkpt><trkpt lat="50.94450909822562" lon="11.989905586573341"><ele>177.5</ele><time>2026-05-03T16:07:26.917Z</time></trkpt><trkpt lat="50.944373690075885" lon="11.989994693917309"><ele>177.75</ele><time>2026-05-03T16:07:27.917Z</time></trkpt><trkpt lat="50.944234201140794" lon="11.99008297294695"><ele>178.0</ele><time>2026-05-03T16:07:28.917Z</time></trkpt><trkpt lat="50.94409604446757" lon="11.990173497266124"><ele>178.0</ele><time>2026-05-03T16:07:29.917Z</time></trkpt><trkpt lat="50.94395228420201" lon="11.990276876455189"><ele>178.0</ele><time>2026-05-03T16:07:30.917Z</time></trkpt><trkpt lat="50.94380836959069" lon="11.990412607604574"><ele>178.0</ele><time>2026-05-03T16:07:31.917Z</time></trkpt><trkpt lat="50.94367003151261" lon="11.990580925248771"><ele>178.0</ele><time>2026-05-03T16:07:32.917Z</time></trkpt><trkpt lat="50.943531585915075" lon="11.990777226015748"><ele>178.0</ele><time>2026-05-03T16:07:33.917Z</time></trkpt><trkpt lat="50.94339050556918" lon="11.990985188629297"><ele>178.0</ele><time>2026-05-03T16:07:34.917Z</time></trkpt><trkpt lat="50.94323782998313" lon="11.991188441474455"><ele>178.0</ele><time>2026-05-03T16:07:35.917Z</time></trkpt><trkpt lat="50.94308096978517" lon="11.99140415571175"><ele>178.0</ele><time>2026-05-03T16:07:36.917Z</time></trkpt><trkpt lat="50.942918933201156" lon="11.99162703457461"><ele>178.0</ele><time>2026-05-03T16:07:37.917Z</time></trkpt><trkpt lat="50.9427506460238" lon="11.991851062796018"><ele>177.5</ele><time>2026-05-03T16:07:38.917Z</time></trkpt><trkpt lat="50.9425769413883" lon="11.992081860655357"><ele>177.0</ele><time>2026-05-03T16:07:39.917Z</time></trkpt><trkpt lat="50.942405487712364" lon="11.992316970584596"><ele>177.0</ele><time>2026-05-03T16:07:40.917Z</time></trkpt><trkpt lat="50.94224745978694" lon="11.992529337325953"><ele>177.0</ele><time>2026-05-03T16:07:41.917Z</time></trkpt><trkpt lat="50.942098123039926" lon="11.992733264911864"><ele>177.0</ele><time>2026-05-03T16:07:42.917Z</time></trkpt><trkpt lat="50.94194720737555" lon="11.992939694175734"><ele>177.0</ele><time>2026-05-03T16:07:43.917Z</time></trkpt><trkpt lat="50.94180015094829" lon="11.99314033867898"><ele>177.0</ele><time>2026-05-03T16:07:44.917Z</time></trkpt><trkpt lat="50.94165174733492" lon="11.993345714684668"><ele>177.0</ele><time>2026-05-03T16:07:45.917Z</time></trkpt><trkpt lat="50.94150129843149" lon="11.99355729285136"><ele>177.66666666666666</ele><time>2026-05-03T16:07:46.917Z</time></trkpt><trkpt lat="50.941351644975256" lon="11.993772454264182"><ele>178.33333333333331</ele><time>2026-05-03T16:07:47.917Z</time></trkpt><trkpt lat="50.94119736018659" lon="11.99400167324884"><ele>179.0</ele><time>2026-05-03T16:07:48.917Z</time></trkpt><trkpt lat="50.94104223424889" lon="11.994229988404777"><ele>179.0</ele><time>2026-05-03T16:07:49.917Z</time></trkpt><trkpt lat="50.94088831824552" lon="11.994452710061301"><ele>179.0</ele><time>2026-05-03T16:07:50.917Z</time></trkpt><trkpt lat="50.94072899541766" lon="11.994677067782957"><ele>179.0</ele><time>2026-05-03T16:07:51.917Z</time></trkpt><trkpt lat="50.94057203789523" lon="11.994904862867283"><ele>179.0</ele><time>2026-05-03T16:07:52.917Z</time></trkpt><trkpt lat="50.940413287528" lon="11.995131806415598"><ele>179.0</ele><time>2026-05-03T16:07:53.917Z</time></trkpt><trkpt lat="50.94025689211315" lon="11.99535949266171"><ele>179.0</ele><time>2026-05-03T16:07:54.917Z</time></trkpt><trkpt lat="50.94010145668741" lon="11.995583508554011"><ele>179.0</ele><time>2026-05-03T16:07:55.917Z</time></trkpt><trkpt lat="50.939946067901104" lon="11.995806896422582"><ele>179.0</ele><time>2026-05-03T16:07:56.917Z</time></trkpt><trkpt lat="50.93978983454768" lon="11.996029966482459"><ele>179.0</ele><time>2026-05-03T16:07:57.917Z</time></trkpt><trkpt lat="50.939638773095474" lon="11.996255792755445"><ele>179.0</ele><time>2026-05-03T16:07:58.917Z</time></trkpt><trkpt lat="50.939484090246744" lon="11.996485115966776"><ele>179.0</ele><time>2026-05-03T16:07:59.917Z</time></trkpt><trkpt lat="50.939328456392566" lon="11.996718959170856"><ele>179.0</ele><time>2026-05-03T16:08:00.917Z</time></trkpt><trkpt lat="50.939177305917646" lon="11.996951980666932"><ele>179.0</ele><time>2026-05-03T16:08:01.917Z</time></trkpt><trkpt lat="50.939019662397776" lon="11.997184361578608"><ele>179.0</ele><time>2026-05-03T16:08:02.917Z</time></trkpt><trkpt lat="50.93886285639889" lon="11.997426364583571"><ele>179.0</ele><time>2026-05-03T16:08:03.917Z</time></trkpt><trkpt lat="50.93870182020507" lon="11.99767197198427"><ele>178.5</ele><time>2026-05-03T16:08:04.917Z</time></trkpt><trkpt lat="50.938536100812605" lon="11.997926522584171"><ele>178.0</ele><time>2026-05-03T16:08:05.917Z</time></trkpt><trkpt lat="50.93836513862591" lon="11.99818864270576"><ele>177.0</ele><time>2026-05-03T16:08:06.917Z</time></trkpt><trkpt lat="50.9381911536296" lon="11.99845480526814"><ele>176.0</ele><time>2026-05-03T16:08:07.917Z</time></trkpt><trkpt lat="50.93802558859697" lon="11.99870925230061"><ele>176.0</ele><time>2026-05-03T16:08:08.917Z</time></trkpt><trkpt lat="50.93787070135803" lon="11.99893992406081"><ele>176.0</ele><time>2026-05-03T16:08:09.916Z</time></trkpt><trkpt lat="50.93771905015062" lon="11.999166123395849"><ele>176.0</ele><time>2026-05-03T16:08:10.916Z</time></trkpt><trkpt lat="50.93757631257588" lon="11.999382783441412"><ele>176.33333333333331</ele><time>2026-05-03T16:08:11.917Z</time></trkpt><trkpt lat="50.93744085108239" lon="11.9995885772591"><ele>176.66666666666666</ele><time>2026-05-03T16:08:12.916Z</time></trkpt><trkpt lat="50.937314271292294" lon="11.999776209006257"><ele>177.0</ele><time>2026-05-03T16:08:13.916Z</time></trkpt><trkpt lat="50.93718571459108" lon="11.999970618456539"><ele>177.0</ele><time>2026-05-03T16:08:14.917Z</time></trkpt><trkpt lat="50.93706288590381" lon="12.000169900717136"><ele>177.0</ele><time>2026-05-03T16:08:15.916Z</time></trkpt><trkpt lat="50.9369511967434" lon="12.000369380134073"><ele>177.0</ele><time>2026-05-03T16:08:16.916Z</time></trkpt><trkpt lat="50.936845738748694" lon="12.000582656408803"><ele>177.0</ele><time>2026-05-03T16:08:17.916Z</time></trkpt><trkpt lat="50.93675070158983" lon="12.000807602141112"><ele>177.0</ele><time>2026-05-03T16:08:18.916Z</time></trkpt><trkpt lat="50.936661058385106" lon="12.001059120152194"><ele>177.0</ele><time>2026-05-03T16:08:19.916Z</time></trkpt><trkpt lat="50.93658834622303" lon="12.001316477233996"><ele>176.66666666666666</ele><time>2026-05-03T16:08:20.917Z</time></trkpt><trkpt lat="50.93651832294099" lon="12.001585293319716"><ele>176.33333333333331</ele><time>2026-05-03T16:08:21.917Z</time></trkpt><trkpt lat="50.936457302780276" lon="12.001859623912766"><ele>176.0</ele><time>2026-05-03T16:08:22.917Z</time></trkpt><trkpt lat="50.93641376867593" lon="12.002145555296329"><ele>176.0</ele><time>2026-05-03T16:08:23.917Z</time></trkpt><trkpt lat="50.93639145943891" lon="12.002431380453027"><ele>176.0</ele><time>2026-05-03T16:08:24.917Z</time></trkpt><trkpt lat="50.93638139666542" lon="12.002714267423878"><ele>176.0</ele><time>2026-05-03T16:08:25.917Z</time></trkpt><trkpt lat="50.9363928972894" lon="12.00299264847903"><ele>175.66666666666666</ele><time>2026-05-03T16:08:26.917Z</time></trkpt><trkpt lat="50.936421678339194" lon="12.0032709474009"><ele>175.33333333333334</ele><time>2026-05-03T16:08:27.917Z</time></trkpt><trkpt lat="50.93646610122985" lon="12.003532033713146"><ele>175.0</ele><time>2026-05-03T16:08:28.917Z</time></trkpt><trkpt lat="50.93652263978716" lon="12.003788855899074"><ele>175.0</ele><time>2026-05-03T16:08:29.917Z</time></trkpt><trkpt lat="50.93658976009013" lon="12.004045310961162"><ele>175.0</ele><time>2026-05-03T16:08:30.917Z</time></trkpt><trkpt lat="50.936660431209155" lon="12.004288959542885"><ele>175.0</ele><time>2026-05-03T16:08:31.917Z</time></trkpt><trkpt lat="50.93674059300292" lon="12.004533419463097"><ele>175.0</ele><time>2026-05-03T16:08:32.917Z</time></trkpt><trkpt lat="50.936827573027216" lon="12.004765282853215"><ele>175.0</ele><time>2026-05-03T16:08:33.917Z</time></trkpt><trkpt lat="50.93692123157651" lon="12.004988613862736"><ele>175.0</ele><time>2026-05-03T16:08:34.917Z</time></trkpt><trkpt lat="50.93701696252524" lon="12.005214844571409"><ele>175.0</ele><time>2026-05-03T16:08:35.917Z</time></trkpt><trkpt lat="50.93711151422548" lon="12.005449415030546"><ele>175.0</ele><time>2026-05-03T16:08:36.917Z</time></trkpt><trkpt lat="50.93720414026194" lon="12.0056983077725"><ele>175.0</ele><time>2026-05-03T16:08:37.917Z</time></trkpt><trkpt lat="50.937290845304375" lon="12.005945286077518"><ele>175.0</ele><time>2026-05-03T16:08:38.917Z</time></trkpt><trkpt lat="50.937366709794624" lon="12.00619352579497"><ele>175.0</ele><time>2026-05-03T16:08:39.917Z</time></trkpt><trkpt lat="50.937430112914726" lon="12.006429686703177"><ele>175.0</ele><time>2026-05-03T16:08:40.917Z</time></trkpt><trkpt lat="50.93748726169037" lon="12.006674560087724"><ele>175.0</ele><time>2026-05-03T16:08:41.917Z</time></trkpt><trkpt lat="50.937536115141775" lon="12.006916185049747"><ele>175.0</ele><time>2026-05-03T16:08:42.917Z</time></trkpt><trkpt lat="50.937577104034276" lon="12.007159124606009"><ele>175.0</ele><time>2026-05-03T16:08:43.917Z</time></trkpt><trkpt lat="50.937615321897496" lon="12.007414096553171"><ele>175.0</ele><time>2026-05-03T16:08:44.917Z</time></trkpt><trkpt lat="50.937644822764774" lon="12.00767562411975"><ele>175.0</ele><time>2026-05-03T16:08:45.917Z</time></trkpt><trkpt lat="50.93766691266906" lon="12.007941177555674"><ele>175.0</ele><time>2026-05-03T16:08:46.917Z</time></trkpt><trkpt lat="50.93767927549037" lon="12.008211331657332"><ele>175.0</ele><time>2026-05-03T16:08:47.917Z</time></trkpt><trkpt lat="50.93768440073453" lon="12.008480360414804"><ele>175.0</ele><time>2026-05-03T16:08:48.917Z</time></trkpt><trkpt lat="50.93767787100382" lon="12.008754693647061"><ele>175.0</ele><time>2026-05-03T16:08:49.917Z</time></trkpt><trkpt lat="50.93766396492437" lon="12.00902488311256"><ele>175.0</ele><time>2026-05-03T16:08:50.917Z</time></trkpt><trkpt lat="50.93764471711926" lon="12.009291574201878"><ele>175.0</ele><time>2026-05-03T16:08:51.917Z</time></trkpt><trkpt lat="50.937615771039184" lon="12.009558154855238"><ele>175.0</ele><time>2026-05-03T16:08:52.917Z</time></trkpt><trkpt lat="50.93757870625792" lon="12.009822169006785"><ele>175.66666666666669</ele><time>2026-05-03T16:08:53.917Z</time></trkpt><trkpt lat="50.93753661747912" lon="12.010088629296272"><ele>176.33333333333334</ele><time>2026-05-03T16:08:54.917Z</time></trkpt><trkpt lat="50.93748631944389" lon="12.010348630054327"><ele>177.0</ele><time>2026-05-03T16:08:55.917Z</time></trkpt><trkpt lat="50.937426030440534" lon="12.010605866571149"><ele>177.0</ele><time>2026-05-03T16:08:56.917Z</time></trkpt><trkpt lat="50.937360955283424" lon="12.010864314059683"><ele>177.0</ele><time>2026-05-03T16:08:57.917Z</time></trkpt><trkpt lat="50.937288608514606" lon="12.011126731518317"><ele>177.0</ele><time>2026-05-03T16:08:58.917Z</time></trkpt><trkpt lat="50.93721244860786" lon="12.011390681834248"><ele>177.33333333333334</ele><time>2026-05-03T16:08:59.917Z</time></trkpt><trkpt lat="50.937135399400624" lon="12.011665663490152"><ele>177.66666666666669</ele><time>2026-05-03T16:09:00.917Z</time></trkpt><trkpt lat="50.937056480861806" lon="12.011946030708554"><ele>178.0</ele><time>2026-05-03T16:09:01.917Z</time></trkpt><trkpt lat="50.93697863112075" lon="12.012220351265317"><ele>178.0</ele><time>2026-05-03T16:09:02.917Z</time></trkpt><trkpt lat="50.93689869297957" lon="12.012497355442612"><ele>178.0</ele><time>2026-05-03T16:09:03.917Z</time></trkpt><trkpt lat="50.93682057652295" lon="12.012775934805127"><ele>178.0</ele><time>2026-05-03T16:09:04.917Z</time></trkpt><trkpt lat="50.93674095998058" lon="12.013055027001451"><ele>177.33333333333334</ele><time>2026-05-03T16:09:05.917Z</time></trkpt><trkpt lat="50.93666253964293" lon="12.01332352119054"><ele>176.66666666666666</ele><time>2026-05-03T16:09:06.917Z</time></trkpt><trkpt lat="50.936586437176025" lon="12.01359334416483"><ele>176.0</ele><time>2026-05-03T16:09:07.917Z</time></trkpt><trkpt lat="50.93651090282261" lon="12.013868766623668"><ele>176.0</ele><time>2026-05-03T16:09:08.917Z</time></trkpt><trkpt lat="50.93643214374251" lon="12.014141429863134"><ele>176.0</ele><time>2026-05-03T16:09:09.917Z</time></trkpt><trkpt lat="50.936350254400665" lon="12.014422830936699"><ele>176.0</ele><time>2026-05-03T16:09:10.917Z</time></trkpt><trkpt lat="50.936263586770295" lon="12.014719959621534"><ele>176.66666666666666</ele><time>2026-05-03T16:09:11.917Z</time></trkpt><trkpt lat="50.936175903114425" lon="12.015028247437483"><ele>177.33333333333334</ele><time>2026-05-03T16:09:12.917Z</time></trkpt><trkpt lat="50.936085485752024" lon="12.015347661373085"><ele>178.0</ele><time>2026-05-03T16:09:13.917Z</time></trkpt><trkpt lat="50.93599188197894" lon="12.015674445527583"><ele>177.0</ele><time>2026-05-03T16:09:14.917Z</time></trkpt><trkpt lat="50.935897631911814" lon="12.016004617157147"><ele>176.0</ele><time>2026-05-03T16:09:15.917Z</time></trkpt><trkpt lat="50.93580227793066" lon="12.016345081718422"><ele>176.0</ele><time>2026-05-03T16:09:16.917Z</time></trkpt><trkpt lat="50.93570470463816" lon="12.016685548794747"><ele>176.0</ele><time>2026-05-03T16:09:17.917Z</time></trkpt><trkpt lat="50.9356093687873" lon="12.01701977754484"><ele>176.0</ele><time>2026-05-03T16:09:18.917Z</time></trkpt><trkpt lat="50.93551445706869" lon="12.017355341794573"><ele>176.0</ele><time>2026-05-03T16:09:19.917Z</time></trkpt><trkpt lat="50.93541772037186" lon="12.017692423760963"><ele>176.0</ele><time>2026-05-03T16:09:20.917Z</time></trkpt><trkpt lat="50.935320224383005" lon="12.018036664701356"><ele>176.0</ele><time>2026-05-03T16:09:21.917Z</time></trkpt><trkpt lat="50.935221529421966" lon="12.01837422043114"><ele>176.0</ele><time>2026-05-03T16:09:22.917Z</time></trkpt><trkpt lat="50.93512370638845" lon="12.018713848536342"><ele>176.0</ele><time>2026-05-03T16:09:23.917Z</time></trkpt><trkpt lat="50.9350275203024" lon="12.01905529423813"><ele>176.5</ele><time>2026-05-03T16:09:24.917Z</time></trkpt><trkpt lat="50.93493238841296" lon="12.019400067059802"><ele>177.0</ele><time>2026-05-03T16:09:25.917Z</time></trkpt><trkpt lat="50.93483311956774" lon="12.019752424064164"><ele>177.5</ele><time>2026-05-03T16:09:26.917Z</time></trkpt><trkpt lat="50.93473010136154" lon="12.020118010346497"><ele>178.0</ele><time>2026-05-03T16:09:27.917Z</time></trkpt><trkpt lat="50.93462437452832" lon="12.020494701010158"><ele>177.5</ele><time>2026-05-03T16:09:28.917Z</time></trkpt><trkpt lat="50.934518175821374" lon="12.0208782720028"><ele>177.0</ele><time>2026-05-03T16:09:29.917Z</time></trkpt><trkpt lat="50.93441569007706" lon="12.021252240972855"><ele>177.0</ele><time>2026-05-03T16:09:30.917Z</time></trkpt><trkpt lat="50.934303190211565" lon="12.02160168531638"><ele>177.0</ele><time>2026-05-03T16:09:31.917Z</time></trkpt><trkpt lat="50.934180579885776" lon="12.021930884233923"><ele>177.5</ele><time>2026-05-03T16:09:32.917Z</time></trkpt><trkpt lat="50.934042423801316" lon="12.02223941271826"><ele>178.0</ele><time>2026-05-03T16:09:33.917Z</time></trkpt><trkpt lat="50.933901525903465" lon="12.022520065139126"><ele>178.0</ele><time>2026-05-03T16:09:34.917Z</time></trkpt><trkpt lat="50.933759201323596" lon="12.02277076370221"><ele>178.0</ele><time>2026-05-03T16:09:35.917Z</time></trkpt><trkpt lat="50.93361096993624" lon="12.022990762049725"><ele>178.0</ele><time>2026-05-03T16:09:36.917Z</time></trkpt><trkpt lat="50.933465268286554" lon="12.023194178941894"><ele>178.0</ele><time>2026-05-03T16:09:37.917Z</time></trkpt><trkpt lat="50.933319165799745" lon="12.023378179721453"><ele>178.0</ele><time>2026-05-03T16:09:38.917Z</time></trkpt><trkpt lat="50.93317764639547" lon="12.023537476964005"><ele>178.0</ele><time>2026-05-03T16:09:39.917Z</time></trkpt><trkpt lat="50.933030703310486" lon="12.023691567194865"><ele>178.0</ele><time>2026-05-03T16:09:40.917Z</time></trkpt><trkpt lat="50.93287886167303" lon="12.023827743501784"><ele>178.0</ele><time>2026-05-03T16:09:41.917Z</time></trkpt><trkpt lat="50.93272440374929" lon="12.023948218512437"><ele>178.0</ele><time>2026-05-03T16:09:42.917Z</time></trkpt><trkpt lat="50.93257524445212" lon="12.02405210684944"><ele>178.0</ele><time>2026-05-03T16:09:43.917Z</time></trkpt><trkpt lat="50.932433623048226" lon="12.024144710071452"><ele>178.0</ele><time>2026-05-03T16:09:44.917Z</time></trkpt><trkpt lat="50.932299380865764" lon="12.024224636775848"><ele>178.0</ele><time>2026-05-03T16:09:45.917Z</time></trkpt><trkpt lat="50.932176060429434" lon="12.024291690958714"><ele>178.0</ele><time>2026-05-03T16:09:46.917Z</time></trkpt><trkpt lat="50.93206882072896" lon="12.024351417244944"><ele>177.83333333333334</ele><time>2026-05-03T16:09:47.917Z</time></trkpt><trkpt lat="50.931980023187315" lon="12.024405755799116"><ele>177.66666666666669</ele><time>2026-05-03T16:09:48.917Z</time></trkpt><trkpt lat="50.9319054293621" lon="12.024452300477515"><ele>177.5</ele><time>2026-05-03T16:09:49.917Z</time></trkpt><trkpt lat="50.93184483074401" lon="12.024483684030246"><ele>177.33333333333334</ele><time>2026-05-03T16:09:50.917Z</time></trkpt><trkpt lat="50.931770530114704" lon="12.024528991728687"><ele>177.16666666666666</ele><time>2026-05-03T16:09:52.917Z</time></trkpt><trkpt lat="50.9316722843777" lon="12.024591252868387"><ele>177.0</ele><time>2026-05-03T16:10:05.917Z</time></trkpt><trkpt lat="50.931588865130806" lon="12.024650026901048"><ele>177.0</ele><time>2026-05-03T16:10:06.917Z</time></trkpt><trkpt lat="50.93148839656175" lon="12.024722381221515"><ele>177.0</ele><time>2026-05-03T16:10:07.917Z</time></trkpt><trkpt lat="50.931363677221896" lon="12.024799490137834"><ele>177.0</ele><time>2026-05-03T16:10:08.917Z</time></trkpt><trkpt lat="50.93121864335678" lon="12.024892338279907"><ele>177.0</ele><time>2026-05-03T16:10:09.917Z</time></trkpt><trkpt lat="50.93105883462425" lon="12.025006227031385"><ele>176.66666666666666</ele><time>2026-05-03T16:10:10.917Z</time></trkpt><trkpt lat="50.9308846666983" lon="12.02514360807664"><ele>176.33333333333331</ele><time>2026-05-03T16:10:11.917Z</time></trkpt><trkpt lat="50.930697860573304" lon="12.025298058084742"><ele>176.0</ele><time>2026-05-03T16:10:12.917Z</time></trkpt><trkpt lat="50.93050818152911" lon="12.025464626073251"><ele>176.0</ele><time>2026-05-03T16:10:13.917Z</time></trkpt><trkpt lat="50.93031000479097" lon="12.025640146452025"><ele>176.0</ele><time>2026-05-03T16:10:14.915Z</time></trkpt><trkpt lat="50.93010014896282" lon="12.025837145310437"><ele>178.0</ele><time>2026-05-03T16:10:15.916Z</time></trkpt><trkpt lat="50.92988604326944" lon="12.026045433393403"><ele>180.0</ele><time>2026-05-03T16:10:16.916Z</time></trkpt><trkpt lat="50.92967543920127" lon="12.026260214790149"><ele>180.0</ele><time>2026-05-03T16:10:17.916Z</time></trkpt><trkpt lat="50.92946453965956" lon="12.02649536902701"><ele>180.0</ele><time>2026-05-03T16:10:18.916Z</time></trkpt><trkpt lat="50.929252325761325" lon="12.026748957524346"><ele>180.0</ele><time>2026-05-03T16:10:19.916Z</time></trkpt><trkpt lat="50.92904094469378" lon="12.027020094671382"><ele>180.0</ele><time>2026-05-03T16:10:20.915Z</time></trkpt><trkpt lat="50.928831683463244" lon="12.027304918334691"><ele>180.0</ele><time>2026-05-03T16:10:21.915Z</time></trkpt><trkpt lat="50.928619935220986" lon="12.02760452542574"><ele>180.0</ele><time>2026-05-03T16:10:22.915Z</time></trkpt><trkpt lat="50.92841513808239" lon="12.027925468340324"><ele>179.5</ele><time>2026-05-03T16:10:23.915Z</time></trkpt><trkpt lat="50.92820757491144" lon="12.028267117792291"><ele>179.0</ele><time>2026-05-03T16:10:24.915Z</time></trkpt><trkpt lat="50.92801139722764" lon="12.028613671427317"><ele>179.0</ele><time>2026-05-03T16:10:25.915Z</time></trkpt><trkpt lat="50.9278240000587" lon="12.028972349528422"><ele>179.0</ele><time>2026-05-03T16:10:26.916Z</time></trkpt><trkpt lat="50.92764302603671" lon="12.029338899168982"><ele>179.0</ele><time>2026-05-03T16:10:27.915Z</time></trkpt><trkpt lat="50.92746866756773" lon="12.029713805479018"><ele>179.0</ele><time>2026-05-03T16:10:28.915Z</time></trkpt><trkpt lat="50.92729864189679" lon="12.030105802405025"><ele>179.0</ele><time>2026-05-03T16:10:29.915Z</time></trkpt><trkpt lat="50.927135104753575" lon="12.030512801760405"><ele>179.0</ele><time>2026-05-03T16:10:30.915Z</time></trkpt><trkpt lat="50.92696944392744" lon="12.030926440642126"><ele>179.0</ele><time>2026-05-03T16:10:31.915Z</time></trkpt><trkpt lat="50.92681632792856" lon="12.031355083495926"><ele>179.0</ele><time>2026-05-03T16:10:32.915Z</time></trkpt><trkpt lat="50.92667807764915" lon="12.031798759149764"><ele>179.0</ele><time>2026-05-03T16:10:33.915Z</time></trkpt><trkpt lat="50.92654715517914" lon="12.03223947371492"><ele>179.0</ele><time>2026-05-03T16:10:34.915Z</time></trkpt><trkpt lat="50.92642392197344" lon="12.032681328661317"><ele>179.0</ele><time>2026-05-03T16:10:35.915Z</time></trkpt><trkpt lat="50.92631704108177" lon="12.033089135384154"><ele>179.0</ele><time>2026-05-03T16:10:36.915Z</time></trkpt><trkpt lat="50.92622265583266" lon="12.033476919892538"><ele>179.0</ele><time>2026-05-03T16:10:37.915Z</time></trkpt><trkpt lat="50.926143069811474" lon="12.033852806643095"><ele>179.0</ele><time>2026-05-03T16:10:38.915Z</time></trkpt><trkpt lat="50.92608326090773" lon="12.034229519347003"><ele>180.0</ele><time>2026-05-03T16:10:39.915Z</time></trkpt><trkpt lat="50.92603229443288" lon="12.034610112719761"><ele>181.0</ele><time>2026-05-03T16:10:40.915Z</time></trkpt><trkpt lat="50.92599181985865" lon="12.03498966844399"><ele>181.5</ele><time>2026-05-03T16:10:41.915Z</time></trkpt><trkpt lat="50.92597111418163" lon="12.035367001969115"><ele>182.0</ele><time>2026-05-03T16:10:42.915Z</time></trkpt><trkpt lat="50.925967988786624" lon="12.035757834268152"><ele>183.5</ele><time>2026-05-03T16:10:43.915Z</time></trkpt><trkpt lat="50.925977530058006" lon="12.036154106853783"><ele>185.0</ele><time>2026-05-03T16:10:44.915Z</time></trkpt><trkpt lat="50.92599422718642" lon="12.0365562904716"><ele>185.0</ele><time>2026-05-03T16:10:45.915Z</time></trkpt><trkpt lat="50.926018022422205" lon="12.036965213408235"><ele>185.0</ele><time>2026-05-03T16:10:46.915Z</time></trkpt><trkpt lat="50.926050000931596" lon="12.037376281004445"><ele>185.0</ele><time>2026-05-03T16:10:47.915Z</time></trkpt><trkpt lat="50.92609049086643" lon="12.03778748052699"><ele>185.0</ele><time>2026-05-03T16:10:48.915Z</time></trkpt><trkpt lat="50.92612632147244" lon="12.038189529004919"><ele>185.33333333333331</ele><time>2026-05-03T16:10:49.915Z</time></trkpt><trkpt lat="50.92615012532002" lon="12.038552229686065"><ele>185.66666666666666</ele><time>2026-05-03T16:10:50.915Z</time></trkpt><trkpt lat="50.926150892408636" lon="12.03888677341782"><ele>186.0</ele><time>2026-05-03T16:10:51.915Z</time></trkpt><trkpt lat="50.92612873768221" lon="12.039231079015805"><ele>186.66666666666666</ele><time>2026-05-03T16:10:52.915Z</time></trkpt><trkpt lat="50.92608444539947" lon="12.039577359015272"><ele>187.33333333333331</ele><time>2026-05-03T16:10:53.915Z</time></trkpt><trkpt lat="50.926020037696475" lon="12.039909072960507"><ele>188.0</ele><time>2026-05-03T16:10:54.915Z</time></trkpt><trkpt lat="50.925931818904395" lon="12.04023721811458"><ele>187.33333333333331</ele><time>2026-05-03T16:10:55.915Z</time></trkpt><trkpt lat="50.925828319083934" lon="12.04053793019231"><ele>186.66666666666666</ele><time>2026-05-03T16:10:56.915Z</time></trkpt><trkpt lat="50.92570551510475" lon="12.040825251822167"><ele>186.0</ele><time>2026-05-03T16:10:57.915Z</time></trkpt><trkpt lat="50.9255730979496" lon="12.041091298447625"><ele>188.0</ele><time>2026-05-03T16:10:58.915Z</time></trkpt><trkpt lat="50.92541686294536" lon="12.04134352178043"><ele>190.0</ele><time>2026-05-03T16:10:59.915Z</time></trkpt><trkpt lat="50.92526037881076" lon="12.041580885186526"><ele>192.0</ele><time>2026-05-03T16:11:00.916Z</time></trkpt><trkpt lat="50.925113538032676" lon="12.041805174719967"><ele>191.66666666666666</ele><time>2026-05-03T16:11:01.916Z</time></trkpt><trkpt lat="50.92498799423816" lon="12.042008407588998"><ele>191.33333333333331</ele><time>2026-05-03T16:11:02.916Z</time></trkpt><trkpt lat="50.924880159804545" lon="12.042187730308978"><ele>191.0</ele><time>2026-05-03T16:11:03.916Z</time></trkpt><trkpt lat="50.9247904753979" lon="12.042335661158983"><ele>192.0</ele><time>2026-05-03T16:11:04.916Z</time></trkpt><trkpt lat="50.92469972179584" lon="12.042477449968244"><ele>193.0</ele><time>2026-05-03T16:11:05.916Z</time></trkpt><trkpt lat="50.92460225306967" lon="12.042623828013738"><ele>194.0</ele><time>2026-05-03T16:11:06.916Z</time></trkpt><trkpt lat="50.92449768812382" lon="12.042778557642094"><ele>195.0</ele><time>2026-05-03T16:11:07.916Z</time></trkpt><trkpt lat="50.92439331082623" lon="12.042928985282039"><ele>195.0</ele><time>2026-05-03T16:11:08.916Z</time></trkpt><trkpt lat="50.92428706115149" lon="12.043085989677746"><ele>195.0</ele><time>2026-05-03T16:11:09.916Z</time></trkpt><trkpt lat="50.92418033373344" lon="12.043244987037781"><ele>195.0</ele><time>2026-05-03T16:11:10.916Z</time></trkpt><trkpt lat="50.92408052847032" lon="12.04340550811465"><ele>195.0</ele><time>2026-05-03T16:11:11.916Z</time></trkpt><trkpt lat="50.92398248840875" lon="12.043576391728433"><ele>196.0</ele><time>2026-05-03T16:11:12.916Z</time></trkpt><trkpt lat="50.923890926826545" lon="12.043747281417621"><ele>197.0</ele><time>2026-05-03T16:11:13.916Z</time></trkpt><trkpt lat="50.9237993680721" lon="12.043909108570679"><ele>198.0</ele><time>2026-05-03T16:11:14.916Z</time></trkpt><trkpt lat="50.923711772152636" lon="12.044063262645087"><ele>199.0</ele><time>2026-05-03T16:11:15.916Z</time></trkpt><trkpt lat="50.92362562145733" lon="12.044209779103925"><ele>199.0</ele><time>2026-05-03T16:11:16.916Z</time></trkpt><trkpt lat="50.92354007403732" lon="12.044355395718704"><ele>199.0</ele><time>2026-05-03T16:11:17.916Z</time></trkpt><trkpt lat="50.92345969593716" lon="12.044509380419255"><ele>199.0</ele><time>2026-05-03T16:11:18.916Z</time></trkpt><trkpt lat="50.92336799725659" lon="12.04465620599913"><ele>199.0</ele><time>2026-05-03T16:11:19.916Z</time></trkpt><trkpt lat="50.92329875026004" lon="12.044838492182079"><ele>198.0</ele><time>2026-05-03T16:11:20.916Z</time></trkpt><trkpt lat="50.923233370969434" lon="12.045023613041346"><ele>197.0</ele><time>2026-05-03T16:11:21.916Z</time></trkpt><trkpt lat="50.923165563545346" lon="12.045212822403132"><ele>196.0</ele><time>2026-05-03T16:11:22.916Z</time></trkpt><trkpt lat="50.92309944216055" lon="12.045396913298607"><ele>195.0</ele><time>2026-05-03T16:11:23.916Z</time></trkpt><trkpt lat="50.923030106892384" lon="12.045586786584828"><ele>195.0</ele><time>2026-05-03T16:11:24.916Z</time></trkpt><trkpt lat="50.92295813825074" lon="12.04577897133288"><ele>195.0</ele><time>2026-05-03T16:11:25.916Z</time></trkpt><trkpt lat="50.92288848974744" lon="12.045970734207227"><ele>195.0</ele><time>2026-05-03T16:11:26.916Z</time></trkpt><trkpt lat="50.92281807775971" lon="12.046166642251576"><ele>195.0</ele><time>2026-05-03T16:11:27.916Z</time></trkpt><trkpt lat="50.92274924775407" lon="12.046358473252448"><ele>195.75</ele><time>2026-05-03T16:11:28.916Z</time></trkpt><trkpt lat="50.92267981996742" lon="12.046547131423104"><ele>196.5</ele><time>2026-05-03T16:11:29.916Z</time></trkpt><trkpt lat="50.922614726584754" lon="12.046738174434752"><ele>197.25</ele><time>2026-05-03T16:11:30.916Z</time></trkpt><trkpt lat="50.92254989145304" lon="12.046928397150637"><ele>198.0</ele><time>2026-05-03T16:11:31.916Z</time></trkpt><trkpt lat="50.92249347182565" lon="12.04711211984193"><ele>198.0</ele><time>2026-05-03T16:11:32.916Z</time></trkpt><trkpt lat="50.92243799982183" lon="12.047296333545466"><ele>198.0</ele><time>2026-05-03T16:11:33.916Z</time></trkpt><trkpt lat="50.92238329130655" lon="12.047485182914796"><ele>198.0</ele><time>2026-05-03T16:11:34.916Z</time></trkpt><trkpt lat="50.92232687175603" lon="12.047676775339406"><ele>198.0</ele><time>2026-05-03T16:11:35.916Z</time></trkpt><trkpt lat="50.92226325578981" lon="12.04786950643219"><ele>198.75</ele><time>2026-05-03T16:11:36.916Z</time></trkpt><trkpt lat="50.92220569439918" lon="12.048058906748505"><ele>199.5</ele><time>2026-05-03T16:11:37.916Z</time></trkpt><trkpt lat="50.92214961013018" lon="12.048242637658145"><ele>200.25</ele><time>2026-05-03T16:11:38.916Z</time></trkpt><trkpt lat="50.92209521520445" lon="12.048431108221346"><ele>201.0</ele><time>2026-05-03T16:11:39.916Z</time></trkpt><trkpt lat="50.92203824456828" lon="12.048614213334794"><ele>201.75</ele><time>2026-05-03T16:11:40.916Z</time></trkpt><trkpt lat="50.921980128746895" lon="12.04880112021604"><ele>202.5</ele><time>2026-05-03T16:11:41.916Z</time></trkpt><trkpt lat="50.921927789072846" lon="12.048991872726424"><ele>203.25</ele><time>2026-05-03T16:11:42.916Z</time></trkpt><trkpt lat="50.921871009375614" lon="12.049175281587095"><ele>204.0</ele><time>2026-05-03T16:11:43.916Z</time></trkpt><trkpt lat="50.92181300124484" lon="12.049364055366205"><ele>203.5</ele><time>2026-05-03T16:11:44.916Z</time></trkpt><trkpt lat="50.921759814651494" lon="12.049543078775942"><ele>203.0</ele><time>2026-05-03T16:11:45.916Z</time></trkpt><trkpt lat="50.9217082416447" lon="12.049718802137244"><ele>202.5</ele><time>2026-05-03T16:11:46.916Z</time></trkpt><trkpt lat="50.921653307314514" lon="12.049898065156617"><ele>202.0</ele><time>2026-05-03T16:11:47.916Z</time></trkpt><trkpt lat="50.921597235942095" lon="12.050081011985487"><ele>202.0</ele><time>2026-05-03T16:11:48.916Z</time></trkpt><trkpt lat="50.92154174327691" lon="12.050269264327262"><ele>202.0</ele><time>2026-05-03T16:11:49.916Z</time></trkpt><trkpt lat="50.92149279753203" lon="12.050465822870336"><ele>202.0</ele><time>2026-05-03T16:11:50.916Z</time></trkpt><trkpt lat="50.92142198426589" lon="12.050630824501596"><ele>202.0</ele><time>2026-05-03T16:11:51.916Z</time></trkpt><trkpt lat="50.921353944683915" lon="12.050800745011975"><ele>203.0</ele><time>2026-05-03T16:11:52.916Z</time></trkpt><trkpt lat="50.92129322135852" lon="12.05096265296064"><ele>204.0</ele><time>2026-05-03T16:11:53.916Z</time></trkpt><trkpt lat="50.92123039418733" lon="12.051118347876692"><ele>205.0</ele><time>2026-05-03T16:11:54.916Z</time></trkpt><trkpt lat="50.921158199732226" lon="12.051253269808088"><ele>206.0</ele><time>2026-05-03T16:11:55.916Z</time></trkpt><trkpt lat="50.92107228942597" lon="12.05135822339839"><ele>206.0</ele><time>2026-05-03T16:11:56.916Z</time></trkpt><trkpt lat="50.920985629032565" lon="12.051439324282647"><ele>206.0</ele><time>2026-05-03T16:11:57.916Z</time></trkpt><trkpt lat="50.9208968540733" lon="12.051534152674579"><ele>206.0</ele><time>2026-05-03T16:11:58.916Z</time></trkpt><trkpt lat="50.92081141661131" lon="12.051622588964175"><ele>206.0</ele><time>2026-05-03T16:11:59.916Z</time></trkpt><trkpt lat="50.92072313738069" lon="12.05171426951069"><ele>206.0</ele><time>2026-05-03T16:12:00.916Z</time></trkpt><trkpt lat="50.92063566305516" lon="12.051808097922462"><ele>205.20000000000002</ele><time>2026-05-03T16:12:01.916Z</time></trkpt><trkpt lat="50.92055405660374" lon="12.051893791420802"><ele>204.4</ele><time>2026-05-03T16:12:02.916Z</time></trkpt><trkpt lat="50.920473343125124" lon="12.051972420056753"><ele>203.6</ele><time>2026-05-03T16:12:03.916Z</time></trkpt><trkpt lat="50.92039384161756" lon="12.052053250171332"><ele>202.8</ele><time>2026-05-03T16:12:04.916Z</time></trkpt><trkpt lat="50.920312010347914" lon="12.052135234109818"><ele>202.0</ele><time>2026-05-03T16:12:05.916Z</time></trkpt><trkpt lat="50.92023253269452" lon="12.05220636082469"><ele>202.0</ele><time>2026-05-03T16:12:06.916Z</time></trkpt><trkpt lat="50.92015872093808" lon="12.052287901163856"><ele>202.0</ele><time>2026-05-03T16:12:07.916Z</time></trkpt><trkpt lat="50.92008433561278" lon="12.052345526080568"><ele>202.0</ele><time>2026-05-03T16:12:08.916Z</time></trkpt><trkpt lat="50.92000173404486" lon="12.052428185434817"><ele>202.0</ele><time>2026-05-03T16:12:09.916Z</time></trkpt><trkpt lat="50.919908905374804" lon="12.052534261169766"><ele>202.0</ele><time>2026-05-03T16:12:10.916Z</time></trkpt><trkpt lat="50.91981008308911" lon="12.052633892473994"><ele>202.25</ele><time>2026-05-03T16:12:11.916Z</time></trkpt><trkpt lat="50.91970406990351" lon="12.052744580389147"><ele>202.5</ele><time>2026-05-03T16:12:12.916Z</time></trkpt><trkpt lat="50.9195967024499" lon="12.052836299518713"><ele>202.75</ele><time>2026-05-03T16:12:13.916Z</time></trkpt><trkpt lat="50.91948635757378" lon="12.052936089584849"><ele>203.0</ele><time>2026-05-03T16:12:14.916Z</time></trkpt><trkpt lat="50.919380598467484" lon="12.053028933774332"><ele>203.0</ele><time>2026-05-03T16:12:15.916Z</time></trkpt><trkpt lat="50.91928487998248" lon="12.053133125152636"><ele>203.0</ele><time>2026-05-03T16:12:16.916Z</time></trkpt><trkpt lat="50.91919016359696" lon="12.053240920893465"><ele>203.0</ele><time>2026-05-03T16:12:17.916Z</time></trkpt><trkpt lat="50.91909177242748" lon="12.053354284224191"><ele>203.0</ele><time>2026-05-03T16:12:18.916Z</time></trkpt><trkpt lat="50.91899852892002" lon="12.053463874296103"><ele>201.75</ele><time>2026-05-03T16:12:19.916Z</time></trkpt><trkpt lat="50.91890730259341" lon="12.053576259441696"><ele>200.5</ele><time>2026-05-03T16:12:20.915Z</time></trkpt><trkpt lat="50.918816983595946" lon="12.0536857133307"><ele>199.25</ele><time>2026-05-03T16:12:21.915Z</time></trkpt><trkpt lat="50.9187271727092" lon="12.053799235696845"><ele>198.0</ele><time>2026-05-03T16:12:22.915Z</time></trkpt><trkpt lat="50.91862935550689" lon="12.053926460510615"><ele>198.0</ele><time>2026-05-03T16:12:23.914Z</time></trkpt><trkpt lat="50.91852890586974" lon="12.054056902009926"><ele>198.0</ele><time>2026-05-03T16:12:24.914Z</time></trkpt><trkpt lat="50.918426042597225" lon="12.054186930017899"><ele>198.0</ele><time>2026-05-03T16:12:25.914Z</time></trkpt><trkpt lat="50.91832020189455" lon="12.054317078497226"><ele>198.0</ele><time>2026-05-03T16:12:26.914Z</time></trkpt><trkpt lat="50.91821991018908" lon="12.054452074996071"><ele>198.0</ele><time>2026-05-03T16:12:27.915Z</time></trkpt><trkpt lat="50.91812102930628" lon="12.054577528899891"><ele>198.0</ele><time>2026-05-03T16:12:28.915Z</time></trkpt><trkpt lat="50.91802169005338" lon="12.054700736175693"><ele>198.0</ele><time>2026-05-03T16:12:29.915Z</time></trkpt><trkpt lat="50.91792016479317" lon="12.054837385966309"><ele>198.0</ele><time>2026-05-03T16:12:30.915Z</time></trkpt><trkpt lat="50.91781680058294" lon="12.05496457461437"><ele>198.0</ele><time>2026-05-03T16:12:31.915Z</time></trkpt><trkpt lat="50.91771899405225" lon="12.055091242337783"><ele>198.0</ele><time>2026-05-03T16:12:32.915Z</time></trkpt><trkpt lat="50.91761890938731" lon="12.055223772123126"><ele>198.0</ele><time>2026-05-03T16:12:33.914Z</time></trkpt><trkpt lat="50.91751840444972" lon="12.055356503457972"><ele>198.0</ele><time>2026-05-03T16:12:34.914Z</time></trkpt><trkpt lat="50.917414321483314" lon="12.055495356319462"><ele>198.5</ele><time>2026-05-03T16:12:35.914Z</time></trkpt><trkpt lat="50.917303014962705" lon="12.055635742798035"><ele>199.0</ele><time>2026-05-03T16:12:36.914Z</time></trkpt><trkpt lat="50.91718541302587" lon="12.055783870711519"><ele>199.5</ele><time>2026-05-03T16:12:37.914Z</time></trkpt><trkpt lat="50.91706646012546" lon="12.055938891843592"><ele>200.0</ele><time>2026-05-03T16:12:38.914Z</time></trkpt><trkpt lat="50.91695854228764" lon="12.056106514093658"><ele>200.25</ele><time>2026-05-03T16:12:39.914Z</time></trkpt><trkpt lat="50.916851248594135" lon="12.056259541911205"><ele>200.5</ele><time>2026-05-03T16:12:40.914Z</time></trkpt><trkpt lat="50.916727731615254" lon="12.05638926453111"><ele>200.75</ele><time>2026-05-03T16:12:41.914Z</time></trkpt><trkpt lat="50.91661922159741" lon="12.056531866966786"><ele>201.0</ele><time>2026-05-03T16:12:42.914Z</time></trkpt><trkpt lat="50.91652067907424" lon="12.05665992623808"><ele>201.4</ele><time>2026-05-03T16:12:43.914Z</time></trkpt><trkpt lat="50.9164334812735" lon="12.056773120590115"><ele>201.8</ele><time>2026-05-03T16:12:44.914Z</time></trkpt><trkpt lat="50.91635414848276" lon="12.056883360848152"><ele>202.20000000000002</ele><time>2026-05-03T16:12:45.914Z</time></trkpt><trkpt lat="50.91627949201828" lon="12.056985139391994"><ele>202.60000000000002</ele><time>2026-05-03T16:12:46.914Z</time></trkpt><trkpt lat="50.91620206720255" lon="12.057084278331676"><ele>203.0</ele><time>2026-05-03T16:12:47.914Z</time></trkpt><trkpt lat="50.91612236021999" lon="12.057192720975419"><ele>203.0</ele><time>2026-05-03T16:12:48.914Z</time></trkpt><trkpt lat="50.91604221530616" lon="12.057303658684708"><ele>203.0</ele><time>2026-05-03T16:12:49.914Z</time></trkpt><trkpt lat="50.91595852325267" lon="12.057418315744597"><ele>203.0</ele><time>2026-05-03T16:12:50.914Z</time></trkpt><trkpt lat="50.91586319157474" lon="12.057510748233314"><ele>203.0</ele><time>2026-05-03T16:12:51.914Z</time></trkpt><trkpt lat="50.91577516608425" lon="12.057628722853059"><ele>203.0</ele><time>2026-05-03T16:12:52.914Z</time></trkpt><trkpt lat="50.91568671045" lon="12.057746058274274"><ele>204.25</ele><time>2026-05-03T16:12:53.914Z</time></trkpt><trkpt lat="50.91559779325298" lon="12.0578696701929"><ele>205.5</ele><time>2026-05-03T16:12:54.914Z</time></trkpt><trkpt lat="50.91549557468189" lon="12.057995128617693"><ele>206.75</ele><time>2026-05-03T16:12:55.914Z</time></trkpt><trkpt lat="50.915389414003855" lon="12.058133299659106"><ele>208.0</ele><time>2026-05-03T16:12:56.914Z</time></trkpt><trkpt lat="50.915272062816115" lon="12.058288388222914"><ele>208.66666666666666</ele><time>2026-05-03T16:12:57.914Z</time></trkpt><trkpt lat="50.915152101948145" lon="12.058454452200252"><ele>209.33333333333331</ele><time>2026-05-03T16:12:58.914Z</time></trkpt><trkpt lat="50.91503283514486" lon="12.0586129880238"><ele>210.0</ele><time>2026-05-03T16:12:59.914Z</time></trkpt><trkpt lat="50.91491884609442" lon="12.058804372579479"><ele>210.0</ele><time>2026-05-03T16:13:00.914Z</time></trkpt><trkpt lat="50.91481561709454" lon="12.059017766262786"><ele>210.0</ele><time>2026-05-03T16:13:01.914Z</time></trkpt><trkpt lat="50.91472446169678" lon="12.059217976260435"><ele>210.0</ele><time>2026-05-03T16:13:02.914Z</time></trkpt><trkpt lat="50.91464630861272" lon="12.059426280752504"><ele>210.0</ele><time>2026-05-03T16:13:03.914Z</time></trkpt><trkpt lat="50.914567497778584" lon="12.059631531249728"><ele>210.0</ele><time>2026-05-03T16:13:04.914Z</time></trkpt><trkpt lat="50.9144910574511" lon="12.059831112145282"><ele>210.0</ele><time>2026-05-03T16:13:05.914Z</time></trkpt><trkpt lat="50.91441956228087" lon="12.060020325306661"><ele>210.0</ele><time>2026-05-03T16:13:06.914Z</time></trkpt><trkpt lat="50.91435592862169" lon="12.060197079794424"><ele>209.75</ele><time>2026-05-03T16:13:07.914Z</time></trkpt><trkpt lat="50.914269607703574" lon="12.060363063626678"><ele>209.5</ele><time>2026-05-03T16:13:08.914Z</time></trkpt><trkpt lat="50.914198429471526" lon="12.060540140072796"><ele>209.25</ele><time>2026-05-03T16:13:09.914Z</time></trkpt><trkpt lat="50.91412798926294" lon="12.060713113170822"><ele>209.0</ele><time>2026-05-03T16:13:10.914Z</time></trkpt><trkpt lat="50.91405971515531" lon="12.060866427863164"><ele>209.0</ele><time>2026-05-03T16:13:11.914Z</time></trkpt><trkpt lat="50.91399108941386" lon="12.061011672561518"><ele>209.0</ele><time>2026-05-03T16:13:12.914Z</time></trkpt><trkpt lat="50.913915576106916" lon="12.061159715076524"><ele>209.0</ele><time>2026-05-03T16:13:13.914Z</time></trkpt><trkpt lat="50.91384307527214" lon="12.061292091828932"><ele>209.0</ele><time>2026-05-03T16:13:14.914Z</time></trkpt><trkpt lat="50.91377140630598" lon="12.061411917412062"><ele>209.0</ele><time>2026-05-03T16:13:15.914Z</time></trkpt><trkpt lat="50.9137011004722" lon="12.061527528215173"><ele>208.79999999999998</ele><time>2026-05-03T16:13:16.914Z</time></trkpt><trkpt lat="50.91363095525562" lon="12.061641084124604"><ele>208.6</ele><time>2026-05-03T16:13:17.914Z</time></trkpt><trkpt lat="50.91356109953694" lon="12.061749323093686"><ele>208.4</ele><time>2026-05-03T16:13:18.914Z</time></trkpt><trkpt lat="50.91349428890211" lon="12.061861410461784"><ele>208.2</ele><time>2026-05-03T16:13:19.914Z</time></trkpt><trkpt lat="50.91343276902401" lon="12.061972587391471"><ele>208.0</ele><time>2026-05-03T16:13:20.914Z</time></trkpt><trkpt lat="50.91336339834363" lon="12.062094175719933"><ele>205.5</ele><time>2026-05-03T16:13:21.914Z</time></trkpt><trkpt lat="50.91328549432734" lon="12.062219864232434"><ele>203.0</ele><time>2026-05-03T16:13:22.914Z</time></trkpt><trkpt lat="50.913202799155485" lon="12.062352364027571"><ele>200.5</ele><time>2026-05-03T16:13:23.914Z</time></trkpt><trkpt lat="50.913117145860106" lon="12.062498590199334"><ele>198.0</ele><time>2026-05-03T16:13:24.914Z</time></trkpt><trkpt lat="50.913027070254124" lon="12.06264463944678"><ele>197.75</ele><time>2026-05-03T16:13:25.914Z</time></trkpt><trkpt lat="50.912930376425464" lon="12.062792688755554"><ele>197.5</ele><time>2026-05-03T16:13:26.914Z</time></trkpt><trkpt lat="50.91283094976395" lon="12.062951091394867"><ele>197.25</ele><time>2026-05-03T16:13:27.914Z</time></trkpt><trkpt lat="50.91273918506123" lon="12.063097929360119"><ele>197.0</ele><time>2026-05-03T16:13:28.914Z</time></trkpt><trkpt lat="50.912646257464175" lon="12.063244559411464"><ele>195.75</ele><time>2026-05-03T16:13:29.914Z</time></trkpt><trkpt lat="50.912552427689704" lon="12.063364541562962"><ele>194.5</ele><time>2026-05-03T16:13:30.914Z</time></trkpt><trkpt lat="50.91245071653782" lon="12.063494477459466"><ele>193.25</ele><time>2026-05-03T16:13:31.914Z</time></trkpt><trkpt lat="50.91234550012045" lon="12.063642852036033"><ele>192.0</ele><time>2026-05-03T16:13:32.914Z</time></trkpt><trkpt lat="50.91224049427571" lon="12.063796792076054"><ele>192.0</ele><time>2026-05-03T16:13:33.914Z</time></trkpt><trkpt lat="50.912131899237906" lon="12.06394943499853"><ele>192.0</ele><time>2026-05-03T16:13:34.914Z</time></trkpt><trkpt lat="50.91201818988678" lon="12.064102747957232"><ele>192.0</ele><time>2026-05-03T16:13:35.914Z</time></trkpt><trkpt lat="50.91190490036865" lon="12.0642486914138"><ele>192.0</ele><time>2026-05-03T16:13:36.914Z</time></trkpt><trkpt lat="50.91179436550084" lon="12.06437853912186"><ele>191.75</ele><time>2026-05-03T16:13:37.914Z</time></trkpt><trkpt lat="50.911686590541066" lon="12.064504477267311"><ele>191.5</ele><time>2026-05-03T16:13:38.914Z</time></trkpt><trkpt lat="50.91158009746351" lon="12.064626754855164"><ele>191.25</ele><time>2026-05-03T16:13:39.914Z</time></trkpt><trkpt lat="50.91146941637483" lon="12.064747602160748"><ele>191.0</ele><time>2026-05-03T16:13:40.914Z</time></trkpt><trkpt lat="50.91136097256318" lon="12.064859249268185"><ele>191.5</ele><time>2026-05-03T16:13:41.914Z</time></trkpt><trkpt lat="50.911248826222284" lon="12.064969708519458"><ele>192.0</ele><time>2026-05-03T16:13:42.914Z</time></trkpt><trkpt lat="50.91113328666058" lon="12.065078671551136"><ele>192.5</ele><time>2026-05-03T16:13:43.914Z</time></trkpt><trkpt lat="50.911018834136485" lon="12.065184239092659"><ele>193.0</ele><time>2026-05-03T16:13:44.914Z</time></trkpt><trkpt lat="50.9109095767035" lon="12.065271872139906"><ele>192.8</ele><time>2026-05-03T16:13:45.914Z</time></trkpt><trkpt lat="50.910801057556924" lon="12.065355320559156"><ele>192.60000000000002</ele><time>2026-05-03T16:13:46.914Z</time></trkpt><trkpt lat="50.91070230859955" lon="12.065425920860928"><ele>192.39999999999998</ele><time>2026-05-03T16:13:47.914Z</time></trkpt><trkpt lat="50.91060443959307" lon="12.0654992113797"><ele>192.2</ele><time>2026-05-03T16:13:48.914Z</time></trkpt><trkpt lat="50.91050898789324" lon="12.06557135271533"><ele>192.0</ele><time>2026-05-03T16:13:49.914Z</time></trkpt><trkpt lat="50.91041115924295" lon="12.065639614964423"><ele>192.0</ele><time>2026-05-03T16:13:50.914Z</time></trkpt><trkpt lat="50.9103139062986" lon="12.065704247662554"><ele>192.0</ele><time>2026-05-03T16:13:51.914Z</time></trkpt><trkpt lat="50.91021431769294" lon="12.065771331245108"><ele>192.0</ele><time>2026-05-03T16:13:52.914Z</time></trkpt><trkpt lat="50.91011247285746" lon="12.065840484298432"><ele>192.0</ele><time>2026-05-03T16:13:53.914Z</time></trkpt><trkpt lat="50.91000569559333" lon="12.06591192463766"><ele>192.0</ele><time>2026-05-03T16:13:54.914Z</time></trkpt><trkpt lat="50.90989677387733" lon="12.065986041024896"><ele>192.0</ele><time>2026-05-03T16:13:55.914Z</time></trkpt><trkpt lat="50.90978483958906" lon="12.066063141264515"><ele>192.0</ele><time>2026-05-03T16:13:56.914Z</time></trkpt><trkpt lat="50.909677831124" lon="12.066137759786448"><ele>192.0</ele><time>2026-05-03T16:13:57.914Z</time></trkpt><trkpt lat="50.90957756174213" lon="12.066205129671735"><ele>192.0</ele><time>2026-05-03T16:13:58.914Z</time></trkpt><trkpt lat="50.90947444032627" lon="12.066269176752646"><ele>192.0</ele><time>2026-05-03T16:13:59.914Z</time></trkpt><trkpt lat="50.90937104050786" lon="12.066336208472162"><ele>192.0</ele><time>2026-05-03T16:14:00.914Z</time></trkpt><trkpt lat="50.90926891324083" lon="12.066404672507856"><ele>192.0</ele><time>2026-05-03T16:14:01.914Z</time></trkpt><trkpt lat="50.90916628726658" lon="12.066473078179278"><ele>192.0</ele><time>2026-05-03T16:14:02.914Z</time></trkpt><trkpt lat="50.90906340280967" lon="12.066537291848212"><ele>192.0</ele><time>2026-05-03T16:14:03.914Z</time></trkpt><trkpt lat="50.908957481687935" lon="12.066605978366661"><ele>192.75</ele><time>2026-05-03T16:14:04.914Z</time></trkpt><trkpt lat="50.90885000888867" lon="12.066682007587064"><ele>193.5</ele><time>2026-05-03T16:14:05.914Z</time></trkpt><trkpt lat="50.90874408475347" lon="12.066752869487404"><ele>194.25</ele><time>2026-05-03T16:14:06.914Z</time></trkpt><trkpt lat="50.908633704588546" lon="12.066824808160025"><ele>195.0</ele><time>2026-05-03T16:14:07.914Z</time></trkpt><trkpt lat="50.908534676552485" lon="12.066885231601288"><ele>195.0</ele><time>2026-05-03T16:14:08.914Z</time></trkpt><trkpt lat="50.90843001150727" lon="12.066954757139099"><ele>195.0</ele><time>2026-05-03T16:14:09.914Z</time></trkpt><trkpt lat="50.908327721172476" lon="12.067023302950037"><ele>195.0</ele><time>2026-05-03T16:14:10.914Z</time></trkpt><trkpt lat="50.90822116034187" lon="12.067095023731227"><ele>195.0</ele><time>2026-05-03T16:14:11.914Z</time></trkpt><trkpt lat="50.908110606267165" lon="12.067166062546038"><ele>194.0</ele><time>2026-05-03T16:14:12.914Z</time></trkpt><trkpt lat="50.90800275703012" lon="12.0672430727812"><ele>193.0</ele><time>2026-05-03T16:14:13.914Z</time></trkpt><trkpt lat="50.90789015865565" lon="12.067321610505132"><ele>192.0</ele><time>2026-05-03T16:14:14.914Z</time></trkpt><trkpt lat="50.90777452501109" lon="12.067396262112906"><ele>191.0</ele><time>2026-05-03T16:14:15.914Z</time></trkpt><trkpt lat="50.90765666248981" lon="12.067472787120499"><ele>191.0</ele><time>2026-05-03T16:14:16.914Z</time></trkpt><trkpt lat="50.90753266016371" lon="12.06755901729475"><ele>191.0</ele><time>2026-05-03T16:14:17.914Z</time></trkpt><trkpt lat="50.90739143566768" lon="12.067676420609564"><ele>191.0</ele><time>2026-05-03T16:14:18.914Z</time></trkpt><trkpt lat="50.90722938799273" lon="12.067797649694151"><ele>191.0</ele><time>2026-05-03T16:14:19.914Z</time></trkpt><trkpt lat="50.90704848260074" lon="12.067918096159882"><ele>191.0</ele><time>2026-05-03T16:14:20.914Z</time></trkpt><trkpt lat="50.90686888032689" lon="12.068021747884938"><ele>191.0</ele><time>2026-05-03T16:14:21.914Z</time></trkpt><trkpt lat="50.906688973613136" lon="12.068122499957457"><ele>191.33333333333331</ele><time>2026-05-03T16:14:22.914Z</time></trkpt><trkpt lat="50.90650090251783" lon="12.068214773293471"><ele>191.66666666666666</ele><time>2026-05-03T16:14:23.914Z</time></trkpt><trkpt lat="50.906330972293084" lon="12.068293841221777"><ele>192.0</ele><time>2026-05-03T16:14:24.914Z</time></trkpt><trkpt lat="50.906166175104715" lon="12.068359000746913"><ele>192.0</ele><time>2026-05-03T16:14:25.914Z</time></trkpt><trkpt lat="50.90601266168968" lon="12.068408737392653"><ele>192.0</ele><time>2026-05-03T16:14:26.913Z</time></trkpt><trkpt lat="50.90585616203098" lon="12.068438865134048"><ele>192.0</ele><time>2026-05-03T16:14:27.913Z</time></trkpt><trkpt lat="50.90569034261977" lon="12.068454787710785"><ele>191.25</ele><time>2026-05-03T16:14:28.913Z</time></trkpt><trkpt lat="50.905542133503005" lon="12.068464358033179"><ele>190.5</ele><time>2026-05-03T16:14:29.913Z</time></trkpt><trkpt lat="50.905406202447615" lon="12.068467069206923"><ele>189.75</ele><time>2026-05-03T16:14:30.914Z</time></trkpt><trkpt lat="50.90527740393077" lon="12.068463394888319"><ele>189.0</ele><time>2026-05-03T16:14:31.914Z</time></trkpt><trkpt lat="50.905151635306424" lon="12.06845865774842"><ele>189.0</ele><time>2026-05-03T16:14:32.913Z</time></trkpt><trkpt lat="50.90502176772727" lon="12.068455125865484"><ele>189.0</ele><time>2026-05-03T16:14:33.913Z</time></trkpt><trkpt lat="50.904899879758126" lon="12.06845777880555"><ele>189.0</ele><time>2026-05-03T16:14:34.913Z</time></trkpt><trkpt lat="50.904789177784664" lon="12.06846122043516"><ele>189.0</ele><time>2026-05-03T16:14:35.914Z</time></trkpt><trkpt lat="50.90467582191472" lon="12.06846303339173"><ele>189.0</ele><time>2026-05-03T16:14:36.914Z</time></trkpt><trkpt lat="50.90454921890496" lon="12.068464463385688"><ele>189.0</ele><time>2026-05-03T16:14:37.914Z</time></trkpt><trkpt lat="50.904419422330555" lon="12.068471908853514"><ele>189.0</ele><time>2026-05-03T16:14:38.914Z</time></trkpt><trkpt lat="50.904290165830936" lon="12.068486607010078"><ele>189.0</ele><time>2026-05-03T16:14:39.913Z</time></trkpt><trkpt lat="50.904153489147994" lon="12.068523242377939"><ele>190.0</ele><time>2026-05-03T16:14:40.913Z</time></trkpt><trkpt lat="50.904001898169305" lon="12.068578865994654"><ele>191.0</ele><time>2026-05-03T16:14:41.913Z</time></trkpt><trkpt lat="50.90383089511118" lon="12.06865573414747"><ele>192.0</ele><time>2026-05-03T16:14:42.913Z</time></trkpt><trkpt lat="50.90364999697108" lon="12.068700591895677"><ele>192.0</ele><time>2026-05-03T16:14:43.913Z</time></trkpt><trkpt lat="50.90346457797521" lon="12.06876691190121"><ele>192.0</ele><time>2026-05-03T16:14:44.913Z</time></trkpt><trkpt lat="50.90328204952135" lon="12.068852963592256"><ele>192.0</ele><time>2026-05-03T16:14:45.913Z</time></trkpt><trkpt lat="50.90309268029229" lon="12.068943467074394"><ele>191.0</ele><time>2026-05-03T16:14:46.913Z</time></trkpt><trkpt lat="50.902909864113724" lon="12.069035735071184"><ele>190.0</ele><time>2026-05-03T16:14:47.913Z</time></trkpt><trkpt lat="50.9027502630183" lon="12.069134563808813"><ele>189.0</ele><time>2026-05-03T16:14:48.913Z</time></trkpt><trkpt lat="50.90259898433279" lon="12.069251417526731"><ele>189.33333333333334</ele><time>2026-05-03T16:14:49.913Z</time></trkpt><trkpt lat="50.902439752795416" lon="12.0693906726594"><ele>189.66666666666669</ele><time>2026-05-03T16:14:50.913Z</time></trkpt><trkpt lat="50.90227819216565" lon="12.069534551476204"><ele>190.0</ele><time>2026-05-03T16:14:51.913Z</time></trkpt><trkpt lat="50.902121089102714" lon="12.06968708817788"><ele>190.0</ele><time>2026-05-03T16:14:52.913Z</time></trkpt><trkpt lat="50.90196020637163" lon="12.069840915319414"><ele>190.0</ele><time>2026-05-03T16:14:53.913Z</time></trkpt><trkpt lat="50.90179719016445" lon="12.069989730163844"><ele>190.0</ele><time>2026-05-03T16:14:54.913Z</time></trkpt><trkpt lat="50.90163131006805" lon="12.070144344805561"><ele>190.0</ele><time>2026-05-03T16:14:55.913Z</time></trkpt><trkpt lat="50.90147193375573" lon="12.070296990925437"><ele>190.0</ele><time>2026-05-03T16:14:56.913Z</time></trkpt><trkpt lat="50.901316901905744" lon="12.070443575982024"><ele>190.0</ele><time>2026-05-03T16:14:57.913Z</time></trkpt><trkpt lat="50.90116333549201" lon="12.070590209015167"><ele>190.0</ele><time>2026-05-03T16:14:58.913Z</time></trkpt><trkpt lat="50.90101279002943" lon="12.070735025288808"><ele>190.0</ele><time>2026-05-03T16:14:59.913Z</time></trkpt><trkpt lat="50.90086573951261" lon="12.070868714394985"><ele>190.0</ele><time>2026-05-03T16:15:00.913Z</time></trkpt><trkpt lat="50.9007092011476" lon="12.071011778318208"><ele>189.66666666666669</ele><time>2026-05-03T16:15:01.913Z</time></trkpt><trkpt lat="50.9005478229059" lon="12.071160980272804"><ele>189.33333333333334</ele><time>2026-05-03T16:15:02.913Z</time></trkpt><trkpt lat="50.900377158952566" lon="12.071313002592914"><ele>189.0</ele><time>2026-05-03T16:15:03.913Z</time></trkpt><trkpt lat="50.90020398634179" lon="12.07145587269072"><ele>188.66666666666666</ele><time>2026-05-03T16:15:04.913Z</time></trkpt><trkpt lat="50.90003159084752" lon="12.071584365382458"><ele>188.33333333333331</ele><time>2026-05-03T16:15:05.913Z</time></trkpt><trkpt lat="50.899863289471135" lon="12.071702520191941"><ele>188.0</ele><time>2026-05-03T16:15:06.913Z</time></trkpt><trkpt lat="50.89968719005536" lon="12.071811143824705"><ele>188.66666666666666</ele><time>2026-05-03T16:15:07.914Z</time></trkpt><trkpt lat="50.899503379784505" lon="12.071921345824926"><ele>189.33333333333334</ele><time>2026-05-03T16:15:08.914Z</time></trkpt><trkpt lat="50.89933368121714" lon="12.072023854575297"><ele>190.0</ele><time>2026-05-03T16:15:09.914Z</time></trkpt><trkpt lat="50.89915726634925" lon="12.072108985095216"><ele>190.0</ele><time>2026-05-03T16:15:10.914Z</time></trkpt><trkpt lat="50.898984931207266" lon="12.072184780226745"><ele>190.0</ele><time>2026-05-03T16:15:11.914Z</time></trkpt><trkpt lat="50.898818065510724" lon="12.072256358795919"><ele>190.0</ele><time>2026-05-03T16:15:12.914Z</time></trkpt><trkpt lat="50.89865562571273" lon="12.072315488793716"><ele>190.0</ele><time>2026-05-03T16:15:13.914Z</time></trkpt><trkpt lat="50.898489274927115" lon="12.072386048980537"><ele>190.0</ele><time>2026-05-03T16:15:14.914Z</time></trkpt><trkpt lat="50.89831875395447" lon="12.072454598778195"><ele>190.0</ele><time>2026-05-03T16:15:15.914Z</time></trkpt><trkpt lat="50.89815523736372" lon="12.072523512065805"><ele>191.0</ele><time>2026-05-03T16:15:16.914Z</time></trkpt><trkpt lat="50.89799595859882" lon="12.072598458070438"><ele>192.0</ele><time>2026-05-03T16:15:17.914Z</time></trkpt><trkpt lat="50.89784665424307" lon="12.072691575877318"><ele>193.0</ele><time>2026-05-03T16:15:18.914Z</time></trkpt><trkpt lat="50.897706222192696" lon="12.072807562198864"><ele>193.33333333333331</ele><time>2026-05-03T16:15:19.914Z</time></trkpt><trkpt lat="50.89757439696735" lon="12.072948840054801"><ele>193.66666666666669</ele><time>2026-05-03T16:15:20.914Z</time></trkpt><trkpt lat="50.89745300958225" lon="12.073110693886731"><ele>194.0</ele><time>2026-05-03T16:15:21.914Z</time></trkpt><trkpt lat="50.897339532059426" lon="12.073280589704357"><ele>194.0</ele><time>2026-05-03T16:15:22.914Z</time></trkpt><trkpt lat="50.89722979620885" lon="12.073460563883339"><ele>194.0</ele><time>2026-05-03T16:15:23.914Z</time></trkpt><trkpt lat="50.897146820389786" lon="12.073633209006696"><ele>194.0</ele><time>2026-05-03T16:15:24.914Z</time></trkpt><trkpt lat="50.89707764830933" lon="12.073820519326121"><ele>194.0</ele><time>2026-05-03T16:15:25.914Z</time></trkpt><trkpt lat="50.89701944708408" lon="12.074013014719673"><ele>195.0</ele><time>2026-05-03T16:15:26.914Z</time></trkpt><trkpt lat="50.89697076283686" lon="12.074210731932547"><ele>196.0</ele><time>2026-05-03T16:15:27.914Z</time></trkpt><trkpt lat="50.89692917633519" lon="12.074397347514243"><ele>197.0</ele><time>2026-05-03T16:15:28.914Z</time></trkpt><trkpt lat="50.89689439890445" lon="12.07458200519156"><ele>198.0</ele><time>2026-05-03T16:15:29.914Z</time></trkpt><trkpt lat="50.89686977437364" lon="12.074753316514958"><ele>198.0</ele><time>2026-05-03T16:15:30.914Z</time></trkpt><trkpt lat="50.8968486302852" lon="12.074916984723492"><ele>198.0</ele><time>2026-05-03T16:15:31.914Z</time></trkpt><trkpt lat="50.89682822886113" lon="12.075086322776425"><ele>198.0</ele><time>2026-05-03T16:15:32.914Z</time></trkpt><trkpt lat="50.8968027819604" lon="12.07525316886236"><ele>198.0</ele><time>2026-05-03T16:15:33.914Z</time></trkpt><trkpt lat="50.896779167329704" lon="12.075417237811475"><ele>198.0</ele><time>2026-05-03T16:15:34.914Z</time></trkpt><trkpt lat="50.89675119985479" lon="12.075585020281865"><ele>197.8</ele><time>2026-05-03T16:15:35.914Z</time></trkpt><trkpt lat="50.896722561953496" lon="12.07574799373675"><ele>197.60000000000002</ele><time>2026-05-03T16:15:36.914Z</time></trkpt><trkpt lat="50.89671234626408" lon="12.075907735599852"><ele>197.39999999999998</ele><time>2026-05-03T16:15:37.914Z</time></trkpt><trkpt lat="50.89666884511" lon="12.07607005495574"><ele>197.2</ele><time>2026-05-03T16:15:38.914Z</time></trkpt><trkpt lat="50.89662434846665" lon="12.07621957678676"><ele>197.0</ele><time>2026-05-03T16:15:39.914Z</time></trkpt><trkpt lat="50.8965768708031" lon="12.07636045002809"><ele>197.6</ele><time>2026-05-03T16:15:40.914Z</time></trkpt><trkpt lat="50.896529483228" lon="12.076502981479596"><ele>198.2</ele><time>2026-05-03T16:15:41.914Z</time></trkpt><trkpt lat="50.89647984297048" lon="12.076643529166319"><ele>198.8</ele><time>2026-05-03T16:15:42.914Z</time></trkpt><trkpt lat="50.8964254132198" lon="12.076774455927612"><ele>199.4</ele><time>2026-05-03T16:15:43.914Z</time></trkpt><trkpt lat="50.89636764857123" lon="12.076914435641783"><ele>200.0</ele><time>2026-05-03T16:15:44.914Z</time></trkpt><trkpt lat="50.896297893360455" lon="12.077050425559532"><ele>200.2</ele><time>2026-05-03T16:15:45.914Z</time></trkpt><trkpt lat="50.89621988859747" lon="12.077164485937253"><ele>200.4</ele><time>2026-05-03T16:15:46.914Z</time></trkpt><trkpt lat="50.8961450175553" lon="12.077290594095855"><ele>200.60000000000002</ele><time>2026-05-03T16:15:47.914Z</time></trkpt><trkpt lat="50.89606729782699" lon="12.07741755379412"><ele>200.8</ele><time>2026-05-03T16:15:48.914Z</time></trkpt><trkpt lat="50.89598266111305" lon="12.077524899776945"><ele>201.0</ele><time>2026-05-03T16:15:49.914Z</time></trkpt><trkpt lat="50.89590014435509" lon="12.077629213803256"><ele>201.0</ele><time>2026-05-03T16:15:50.914Z</time></trkpt><trkpt lat="50.895821263522116" lon="12.077730460521488"><ele>201.0</ele><time>2026-05-03T16:15:51.914Z</time></trkpt><trkpt lat="50.895740732870415" lon="12.077834441886534"><ele>201.0</ele><time>2026-05-03T16:15:52.914Z</time></trkpt><trkpt lat="50.89565443481885" lon="12.07794337391983"><ele>201.0</ele><time>2026-05-03T16:15:53.914Z</time></trkpt><trkpt lat="50.89557411653534" lon="12.078035117846772"><ele>201.0</ele><time>2026-05-03T16:15:54.914Z</time></trkpt><trkpt lat="50.89549073249696" lon="12.078142370294334"><ele>201.0</ele><time>2026-05-03T16:15:55.914Z</time></trkpt><trkpt lat="50.895404821096264" lon="12.078252678040961"><ele>201.0</ele><time>2026-05-03T16:15:56.914Z</time></trkpt><trkpt lat="50.89532068267201" lon="12.078368986833155"><ele>201.0</ele><time>2026-05-03T16:15:57.914Z</time></trkpt><trkpt lat="50.895225412393145" lon="12.078482273008003"><ele>201.0</ele><time>2026-05-03T16:15:58.914Z</time></trkpt><trkpt lat="50.895127180919815" lon="12.078612043756097"><ele>200.8</ele><time>2026-05-03T16:15:59.914Z</time></trkpt><trkpt lat="50.89503644584222" lon="12.078741576830263"><ele>200.60000000000002</ele><time>2026-05-03T16:16:00.914Z</time></trkpt><trkpt lat="50.8949499172282" lon="12.07885102620008"><ele>200.4</ele><time>2026-05-03T16:16:01.914Z</time></trkpt><trkpt lat="50.8948645598688" lon="12.078946360053775"><ele>200.2</ele><time>2026-05-03T16:16:02.914Z</time></trkpt><trkpt lat="50.89477688865154" lon="12.079043448784955"><ele>200.0</ele><time>2026-05-03T16:16:03.914Z</time></trkpt><trkpt lat="50.89469059154942" lon="12.079146878747054"><ele>200.5</ele><time>2026-05-03T16:16:04.914Z</time></trkpt><trkpt lat="50.89460077452462" lon="12.079258443090543"><ele>201.0</ele><time>2026-05-03T16:16:05.914Z</time></trkpt><trkpt lat="50.894513759958414" lon="12.079371521807976"><ele>201.5</ele><time>2026-05-03T16:16:06.914Z</time></trkpt><trkpt lat="50.89442290333349" lon="12.079487609305996"><ele>202.0</ele><time>2026-05-03T16:16:07.914Z</time></trkpt><trkpt lat="50.894331855608556" lon="12.079604738071486"><ele>201.5</ele><time>2026-05-03T16:16:08.914Z</time></trkpt><trkpt lat="50.89423871466947" lon="12.079709226932234"><ele>201.0</ele><time>2026-05-03T16:16:09.914Z</time></trkpt><trkpt lat="50.8941406742861" lon="12.079817755391876"><ele>200.5</ele><time>2026-05-03T16:16:10.914Z</time></trkpt><trkpt lat="50.894049203336266" lon="12.079926689871721"><ele>200.0</ele><time>2026-05-03T16:16:11.914Z</time></trkpt><trkpt lat="50.89396356939116" lon="12.080019484415251"><ele>201.0</ele><time>2026-05-03T16:16:12.914Z</time></trkpt><trkpt lat="50.8938702842893" lon="12.080100159903932"><ele>202.0</ele><time>2026-05-03T16:16:13.914Z</time></trkpt><trkpt lat="50.89374859989141" lon="12.080126710058662"><ele>203.0</ele><time>2026-05-03T16:16:14.914Z</time></trkpt><trkpt lat="50.893615845537795" lon="12.080161255990957"><ele>204.0</ele><time>2026-05-03T16:16:15.914Z</time></trkpt><trkpt lat="50.89348461769423" lon="12.080218032619042"><ele>203.25</ele><time>2026-05-03T16:16:16.914Z</time></trkpt><trkpt lat="50.893364249105076" lon="12.080245891069051"><ele>202.5</ele><time>2026-05-03T16:16:17.914Z</time></trkpt><trkpt lat="50.893241076781145" lon="12.080278739169449"><ele>201.75</ele><time>2026-05-03T16:16:18.914Z</time></trkpt><trkpt lat="50.89311490735875" lon="12.080327508695094"><ele>201.0</ele><time>2026-05-03T16:16:19.914Z</time></trkpt><trkpt lat="50.89298749469937" lon="12.080348926308169"><ele>201.0</ele><time>2026-05-03T16:16:20.914Z</time></trkpt><trkpt lat="50.89285601474811" lon="12.080407071612122"><ele>201.0</ele><time>2026-05-03T16:16:21.914Z</time></trkpt><trkpt lat="50.89272012114336" lon="12.080439272536792"><ele>201.0</ele><time>2026-05-03T16:16:22.914Z</time></trkpt><trkpt lat="50.89258179840149" lon="12.080489334942065"><ele>201.0</ele><time>2026-05-03T16:16:23.914Z</time></trkpt><trkpt lat="50.892451091000964" lon="12.08053665993815"><ele>201.0</ele><time>2026-05-03T16:16:24.914Z</time></trkpt><trkpt lat="50.892327055668304" lon="12.080566073499838"><ele>201.0</ele><time>2026-05-03T16:16:25.914Z</time></trkpt><trkpt lat="50.8922088750195" lon="12.080599454854136"><ele>201.0</ele><time>2026-05-03T16:16:26.914Z</time></trkpt><trkpt lat="50.89209737329631" lon="12.080624623534979"><ele>201.0</ele><time>2026-05-03T16:16:27.914Z</time></trkpt><trkpt lat="50.89198651425964" lon="12.080662443792335"><ele>201.0</ele><time>2026-05-03T16:16:28.914Z</time></trkpt><trkpt lat="50.89188143401063" lon="12.080686744996227"><ele>201.0</ele><time>2026-05-03T16:16:29.914Z</time></trkpt><trkpt lat="50.89178233308877" lon="12.080716710843436"><ele>201.0</ele><time>2026-05-03T16:16:30.914Z</time></trkpt><trkpt lat="50.89168693168913" lon="12.08074982948749"><ele>201.0</ele><time>2026-05-03T16:16:31.914Z</time></trkpt><trkpt lat="50.89159395278478" lon="12.08078247084413"><ele>201.0</ele><time>2026-05-03T16:16:32.913Z</time></trkpt><trkpt lat="50.891498199488254" lon="12.080808833361866"><ele>201.0</ele><time>2026-05-03T16:16:33.913Z</time></trkpt><trkpt lat="50.891394877832404" lon="12.080840319809564"><ele>201.0</ele><time>2026-05-03T16:16:34.913Z</time></trkpt><trkpt lat="50.89128663540807" lon="12.080870359329946"><ele>201.0</ele><time>2026-05-03T16:16:35.913Z</time></trkpt><trkpt lat="50.891182386553076" lon="12.080891252161951"><ele>201.0</ele><time>2026-05-03T16:16:36.912Z</time></trkpt><trkpt lat="50.891071692540955" lon="12.080927297595682"><ele>201.0</ele><time>2026-05-03T16:16:37.912Z</time></trkpt><trkpt lat="50.89096258723513" lon="12.08096293410859"><ele>200.5</ele><time>2026-05-03T16:16:38.912Z</time></trkpt><trkpt lat="50.890854164135675" lon="12.080998799138754"><ele>200.0</ele><time>2026-05-03T16:16:39.913Z</time></trkpt><trkpt lat="50.89074417202504" lon="12.081025842434828"><ele>199.5</ele><time>2026-05-03T16:16:40.913Z</time></trkpt><trkpt lat="50.89062932262036" lon="12.08105861928046"><ele>199.0</ele><time>2026-05-03T16:16:41.913Z</time></trkpt><trkpt lat="50.89051598939918" lon="12.081093467660255"><ele>199.0</ele><time>2026-05-03T16:16:42.913Z</time></trkpt><trkpt lat="50.89040090148159" lon="12.081128619830405"><ele>199.0</ele><time>2026-05-03T16:16:43.913Z</time></trkpt><trkpt lat="50.89029545389493" lon="12.08116244832559"><ele>199.0</ele><time>2026-05-03T16:16:44.913Z</time></trkpt><trkpt lat="50.89017817077422" lon="12.081195992057273"><ele>199.0</ele><time>2026-05-03T16:16:45.913Z</time></trkpt><trkpt lat="50.89006312961721" lon="12.081230406873846"><ele>198.39999999999998</ele><time>2026-05-03T16:16:46.913Z</time></trkpt><trkpt lat="50.88995335816673" lon="12.081270402150198"><ele>197.8</ele><time>2026-05-03T16:16:47.913Z</time></trkpt><trkpt lat="50.88985079763804" lon="12.081301314481786"><ele>197.2</ele><time>2026-05-03T16:16:48.913Z</time></trkpt><trkpt lat="50.8897553285823" lon="12.08133125334239"><ele>196.60000000000002</ele><time>2026-05-03T16:16:49.913Z</time></trkpt><trkpt lat="50.889668073043026" lon="12.081347135535443"><ele>196.0</ele><time>2026-05-03T16:16:50.913Z</time></trkpt><trkpt lat="50.889593109961815" lon="12.081362256164159"><ele>195.99999999999997</ele><time>2026-05-03T16:16:51.913Z</time></trkpt><trkpt lat="50.88951799226297" lon="12.081379897803783"><ele>196.0</ele><time>2026-05-03T16:16:52.913Z</time></trkpt><trkpt lat="50.88944473042929" lon="12.081398823426373"><ele>196.0</ele><time>2026-05-03T16:16:53.913Z</time></trkpt><trkpt lat="50.889369939062945" lon="12.081420568037226"><ele>196.0</ele><time>2026-05-03T16:16:54.913Z</time></trkpt><trkpt lat="50.88929577409683" lon="12.081438051765533"><ele>195.99999999999997</ele><time>2026-05-03T16:16:55.913Z</time></trkpt><trkpt lat="50.88921331877403" lon="12.081442483915891"><ele>196.0</ele><time>2026-05-03T16:16:56.913Z</time></trkpt><trkpt lat="50.88912837797939" lon="12.081466570234126"><ele>195.83333333333331</ele><time>2026-05-03T16:16:57.913Z</time></trkpt><trkpt lat="50.88903963666089" lon="12.081492322121221"><ele>195.66666666666666</ele><time>2026-05-03T16:16:58.913Z</time></trkpt><trkpt lat="50.88895693489292" lon="12.08152745597069"><ele>195.5</ele><time>2026-05-03T16:16:59.913Z</time></trkpt><trkpt lat="50.88887327706786" lon="12.081552367528364"><ele>195.33333333333331</ele><time>2026-05-03T16:17:00.913Z</time></trkpt><trkpt lat="50.88879087150178" lon="12.081578332879152"><ele>195.16666666666666</ele><time>2026-05-03T16:17:01.913Z</time></trkpt><trkpt lat="50.88870887527764" lon="12.081606309774394"><ele>195.0</ele><time>2026-05-03T16:17:02.913Z</time></trkpt><trkpt lat="50.88862870458878" lon="12.081636871540335"><ele>195.2</ele><time>2026-05-03T16:17:03.913Z</time></trkpt><trkpt lat="50.88854303599569" lon="12.08166030319075"><ele>195.4</ele><time>2026-05-03T16:17:04.913Z</time></trkpt><trkpt lat="50.8884513055571" lon="12.08168478412759"><ele>195.60000000000002</ele><time>2026-05-03T16:17:05.913Z</time></trkpt><trkpt lat="50.88835593556355" lon="12.08171207719951"><ele>195.8</ele><time>2026-05-03T16:17:06.913Z</time></trkpt><trkpt lat="50.88825694054372" lon="12.081742765262893"><ele>196.0</ele><time>2026-05-03T16:17:07.913Z</time></trkpt><trkpt lat="50.888158176649455" lon="12.081770959204382"><ele>195.99999999999997</ele><time>2026-05-03T16:17:08.913Z</time></trkpt><trkpt lat="50.88805810254134" lon="12.081804717468284"><ele>196.0</ele><time>2026-05-03T16:17:09.913Z</time></trkpt><trkpt lat="50.88796128679278" lon="12.081825925773153"><ele>196.0</ele><time>2026-05-03T16:17:10.913Z</time></trkpt><trkpt lat="50.88787905851187" lon="12.081840167149537"><ele>196.0</ele><time>2026-05-03T16:17:11.913Z</time></trkpt><trkpt lat="50.887803617123765" lon="12.081859018293704"><ele>195.99999999999997</ele><time>2026-05-03T16:17:12.913Z</time></trkpt><trkpt lat="50.88772980364229" lon="12.081878668154184"><ele>196.0</ele><time>2026-05-03T16:17:13.913Z</time></trkpt><trkpt lat="50.88764879148877" lon="12.081909999253423"><ele>195.83333333333331</ele><time>2026-05-03T16:17:14.913Z</time></trkpt><trkpt lat="50.88757484985054" lon="12.081938738746292"><ele>195.66666666666666</ele><time>2026-05-03T16:17:15.913Z</time></trkpt><trkpt lat="50.88750260000027" lon="12.081962867354274"><ele>195.5</ele><time>2026-05-03T16:17:16.913Z</time></trkpt><trkpt lat="50.887425833396186" lon="12.081984064555947"><ele>195.33333333333331</ele><time>2026-05-03T16:17:17.913Z</time></trkpt><trkpt lat="50.88734534443315" lon="12.082004121237645"><ele>195.16666666666666</ele><time>2026-05-03T16:17:18.913Z</time></trkpt><trkpt lat="50.88725311619381" lon="12.082027264908957"><ele>195.0</ele><time>2026-05-03T16:17:19.913Z</time></trkpt><trkpt lat="50.88715023682412" lon="12.082051871680266"><ele>195.0</ele><time>2026-05-03T16:17:20.913Z</time></trkpt><trkpt lat="50.88705178840189" lon="12.082080260836397"><ele>195.0</ele><time>2026-05-03T16:17:21.913Z</time></trkpt><trkpt lat="50.88695418066588" lon="12.082113549124974"><ele>195.0</ele><time>2026-05-03T16:17:22.913Z</time></trkpt><trkpt lat="50.886857699583224" lon="12.082152258327962"><ele>195.0</ele><time>2026-05-03T16:17:23.913Z</time></trkpt><trkpt lat="50.88677020490409" lon="12.082180280091789"><ele>195.0</ele><time>2026-05-03T16:17:24.913Z</time></trkpt><trkpt lat="50.8866932544704" lon="12.08220720156861"><ele>194.66666666666666</ele><time>2026-05-03T16:17:25.913Z</time></trkpt><trkpt lat="50.88662319726987" lon="12.082228160150802"><ele>194.33333333333331</ele><time>2026-05-03T16:17:26.913Z</time></trkpt><trkpt lat="50.88655717856592" lon="12.082241998905387"><ele>194.0</ele><time>2026-05-03T16:17:27.913Z</time></trkpt><trkpt lat="50.88648492138939" lon="12.082259525456104"><ele>193.66666666666666</ele><time>2026-05-03T16:17:28.913Z</time></trkpt><trkpt lat="50.88639985862963" lon="12.082281562277574"><ele>193.33333333333331</ele><time>2026-05-03T16:17:29.913Z</time></trkpt><trkpt lat="50.88631849115232" lon="12.082304827659161"><ele>193.0</ele><time>2026-05-03T16:17:30.913Z</time></trkpt><trkpt lat="50.886233844544975" lon="12.082318542150402"><ele>192.99999999999997</ele><time>2026-05-03T16:17:31.913Z</time></trkpt><trkpt lat="50.88614691567151" lon="12.082333207975738"><ele>193.0</ele><time>2026-05-03T16:17:32.913Z</time></trkpt><trkpt lat="50.88606178079448" lon="12.082353031162953"><ele>193.0</ele><time>2026-05-03T16:17:33.913Z</time></trkpt><trkpt lat="50.88597298235535" lon="12.082387777339203"><ele>193.0</ele><time>2026-05-03T16:17:34.913Z</time></trkpt><trkpt lat="50.88588904948307" lon="12.08242532351529"><ele>192.99999999999997</ele><time>2026-05-03T16:17:35.913Z</time></trkpt><trkpt lat="50.885812160734844" lon="12.08244771014904"><ele>193.0</ele><time>2026-05-03T16:17:36.913Z</time></trkpt><trkpt lat="50.88572748919126" lon="12.0824710415229"><ele>193.99999999999997</ele><time>2026-05-03T16:17:37.913Z</time></trkpt><trkpt lat="50.88563726200602" lon="12.082505017122724"><ele>195.0</ele><time>2026-05-03T16:17:38.913Z</time></trkpt><trkpt lat="50.88554732681511" lon="12.082534785457407"><ele>196.0</ele><time>2026-05-03T16:17:39.913Z</time></trkpt><trkpt lat="50.885461411103954" lon="12.082553268698382"><ele>197.0</ele><time>2026-05-03T16:17:40.913Z</time></trkpt><trkpt lat="50.8853849195718" lon="12.082549845817752"><ele>197.99999999999997</ele><time>2026-05-03T16:17:41.913Z</time></trkpt><trkpt lat="50.885314111380595" lon="12.082576493895353"><ele>199.0</ele><time>2026-05-03T16:17:42.913Z</time></trkpt><trkpt lat="50.885235905044794" lon="12.082604340960971"><ele>198.99999999999997</ele><time>2026-05-03T16:17:43.913Z</time></trkpt><trkpt lat="50.88515669202666" lon="12.082620654196491"><ele>199.0</ele><time>2026-05-03T16:17:44.913Z</time></trkpt><trkpt lat="50.885076313286035" lon="12.082649753965645"><ele>199.0</ele><time>2026-05-03T16:17:45.913Z</time></trkpt><trkpt lat="50.88500373257941" lon="12.082683372507878"><ele>199.0</ele><time>2026-05-03T16:17:46.913Z</time></trkpt><trkpt lat="50.884940816317396" lon="12.082703295218261"><ele>198.99999999999997</ele><time>2026-05-03T16:17:47.913Z</time></trkpt><trkpt lat="50.884869284575466" lon="12.082681530022908"><ele>199.0</ele><time>2026-05-03T16:17:49.913Z</time></trkpt><trkpt lat="50.884831296765064" lon="12.082530486692137"><ele>198.0</ele><time>2026-05-03T16:17:52.913Z</time></trkpt><trkpt lat="50.88483422201296" lon="12.082371415615537"><ele>197.0</ele><time>2026-05-03T16:17:54.913Z</time></trkpt><trkpt lat="50.88481561201987" lon="12.082237789190359"><ele>196.0</ele><time>2026-05-03T16:17:56.913Z</time></trkpt><trkpt lat="50.884790123586434" lon="12.082068374696911"><ele>195.0</ele><time>2026-05-03T16:17:58.913Z</time></trkpt><trkpt lat="50.88477183809033" lon="12.081903970505147"><ele>194.0</ele><time>2026-05-03T16:18:00.913Z</time></trkpt><trkpt lat="50.884755222433434" lon="12.081799020645253"><ele>194.00000000000003</ele><time>2026-05-03T16:18:02.913Z</time></trkpt><trkpt lat="50.884734507978344" lon="12.081695282825766"><ele>194.0</ele><time>2026-05-03T16:18:04.913Z</time></trkpt><trkpt lat="50.88472328681271" lon="12.081570703835576"><ele>194.0</ele><time>2026-05-03T16:18:06.913Z</time></trkpt><trkpt lat="50.884703324610726" lon="12.081420729187075"><ele>194.0</ele><time>2026-05-03T16:18:08.913Z</time></trkpt><trkpt lat="50.88467885803873" lon="12.081249958591028"><ele>194.00000000000003</ele><time>2026-05-03T16:18:10.913Z</time></trkpt><trkpt lat="50.8846637793625" lon="12.08110390559144"><ele>194.0</ele><time>2026-05-03T16:18:12.913Z</time></trkpt><trkpt lat="50.88465016524136" lon="12.080972579105728"><ele>193.79999999999998</ele><time>2026-05-03T16:18:14.913Z</time></trkpt><trkpt lat="50.88463522535169" lon="12.080856813263189"><ele>193.6</ele><time>2026-05-03T16:18:16.913Z</time></trkpt><trkpt lat="50.88448838735237" lon="12.080790743817719"><ele>193.4</ele><time>2026-05-03T16:18:19.918Z</time></trkpt><trkpt lat="50.88441465451985" lon="12.08081626093087"><ele>193.2</ele><time>2026-05-03T16:18:20.919Z</time></trkpt><trkpt lat="50.8843290216488" lon="12.080839680789525"><ele>193.0</ele><time>2026-05-03T16:18:21.921Z</time></trkpt><trkpt lat="50.88424540136215" lon="12.080871785312173"><ele>192.99999999999997</ele><time>2026-05-03T16:18:22.922Z</time></trkpt><trkpt lat="50.88416867262055" lon="12.080897875542492"><ele>193.0</ele><time>2026-05-03T16:18:23.923Z</time></trkpt><trkpt lat="50.88409769526092" lon="12.080915745857626"><ele>193.0</ele><time>2026-05-03T16:18:24.924Z</time></trkpt><trkpt lat="50.88402687051314" lon="12.080943917530995"><ele>193.0</ele><time>2026-05-03T16:18:25.925Z</time></trkpt><trkpt lat="50.88392056691244" lon="12.080969149724833"><ele>192.99999999999997</ele><time>2026-05-03T16:18:27.927Z</time></trkpt><trkpt lat="50.88383617021411" lon="12.081005351692363"><ele>193.0</ele><time>2026-05-03T16:18:29.929Z</time></trkpt><trkpt lat="50.88373404970657" lon="12.081025782748014"><ele>193.0</ele><time>2026-05-03T16:18:31.93Z</time></trkpt><trkpt lat="50.88362673056903" lon="12.081070241376045"><ele>193.0</ele><time>2026-05-03T16:18:33.931Z</time></trkpt><trkpt lat="50.88351062346906" lon="12.081130665666263"><ele>193.0</ele><time>2026-05-03T16:18:35.932Z</time></trkpt><trkpt lat="50.883428552173655" lon="12.08115844342294"><ele>193.0</ele><time>2026-05-03T16:18:37.933Z</time></trkpt><trkpt lat="50.883359774214654" lon="12.08117760249419"><ele>193.0</ele><time>2026-05-03T16:18:41.934Z</time></trkpt><trkpt lat="50.883293516776405" lon="12.08117575110196"><ele>193.25</ele><time>2026-05-03T16:18:44.935Z</time></trkpt><trkpt lat="50.88323067678337" lon="12.080845842230937"><ele>193.5</ele><time>2026-05-03T16:18:47.935Z</time></trkpt><trkpt lat="50.88319252420675" lon="12.080666351046558"><ele>193.75</ele><time>2026-05-03T16:18:48.935Z</time></trkpt><trkpt lat="50.88315667336134" lon="12.080497688501392"><ele>194.0</ele><time>2026-05-03T16:18:49.936Z</time></trkpt><trkpt lat="50.883129356448954" lon="12.080329009310317"><ele>193.6</ele><time>2026-05-03T16:18:50.936Z</time></trkpt><trkpt lat="50.88309909498705" lon="12.08017682128567"><ele>193.2</ele><time>2026-05-03T16:18:51.936Z</time></trkpt><trkpt lat="50.883072896637174" lon="12.080033842606621"><ele>192.79999999999998</ele><time>2026-05-03T16:18:52.936Z</time></trkpt><trkpt lat="50.88303806258297" lon="12.079882543510589"><ele>192.39999999999998</ele><time>2026-05-03T16:18:53.937Z</time></trkpt><trkpt lat="50.88300645311441" lon="12.079719146314254"><ele>192.0</ele><time>2026-05-03T16:18:54.937Z</time></trkpt><trkpt lat="50.882968156455355" lon="12.079556610158205"><ele>192.0</ele><time>2026-05-03T16:18:55.937Z</time></trkpt><trkpt lat="50.88293169440576" lon="12.079392917800822"><ele>192.0</ele><time>2026-05-03T16:18:56.937Z</time></trkpt><trkpt lat="50.88289906360845" lon="12.079239433972143"><ele>192.0</ele><time>2026-05-03T16:18:57.937Z</time></trkpt><trkpt lat="50.88286860286946" lon="12.079086006894258"><ele>192.0</ele><time>2026-05-03T16:18:58.937Z</time></trkpt><trkpt lat="50.88283417186498" lon="12.078947132300476"><ele>192.0</ele><time>2026-05-03T16:18:59.937Z</time></trkpt><trkpt lat="50.88280175507705" lon="12.07882054074444"><ele>192.0</ele><time>2026-05-03T16:19:00.937Z</time></trkpt><trkpt lat="50.882774891702304" lon="12.078699667843647"><ele>192.0</ele><time>2026-05-03T16:19:01.938Z</time></trkpt><trkpt lat="50.88276339462078" lon="12.078587411425305"><ele>192.0</ele><time>2026-05-03T16:19:02.938Z</time></trkpt><trkpt lat="50.88274151511367" lon="12.078481771244372"><ele>192.0</ele><time>2026-05-03T16:19:03.938Z</time></trkpt><trkpt lat="50.88272074664534" lon="12.078373459034921"><ele>192.0</ele><time>2026-05-03T16:19:04.938Z</time></trkpt><trkpt lat="50.88268981254389" lon="12.078256566380048"><ele>192.0</ele><time>2026-05-03T16:19:05.938Z</time></trkpt><trkpt lat="50.882671751123" lon="12.078132471463508"><ele>192.2</ele><time>2026-05-03T16:19:06.938Z</time></trkpt><trkpt lat="50.882632619205566" lon="12.078024231406408"><ele>192.39999999999998</ele><time>2026-05-03T16:19:07.938Z</time></trkpt><trkpt lat="50.882605723236885" lon="12.077892259667696"><ele>192.60000000000002</ele><time>2026-05-03T16:19:08.938Z</time></trkpt><trkpt lat="50.88255367441221" lon="12.077763492371641"><ele>192.8</ele><time>2026-05-03T16:19:09.938Z</time></trkpt><trkpt lat="50.88248046561233" lon="12.077653744555475"><ele>193.0</ele><time>2026-05-03T16:19:10.938Z</time></trkpt><trkpt lat="50.88237778481056" lon="12.077585971997244"><ele>192.99999999999997</ele><time>2026-05-03T16:19:11.938Z</time></trkpt><trkpt lat="50.882280606193135" lon="12.077510077448652"><ele>193.0</ele><time>2026-05-03T16:19:12.938Z</time></trkpt><trkpt lat="50.88218726625628" lon="12.077458319488647"><ele>193.0</ele><time>2026-05-03T16:19:13.938Z</time></trkpt><trkpt lat="50.88209579063303" lon="12.077431514138523"><ele>193.0</ele><time>2026-05-03T16:19:14.939Z</time></trkpt><trkpt lat="50.882018365626735" lon="12.077411663783758"><ele>192.99999999999997</ele><time>2026-05-03T16:19:15.939Z</time></trkpt><trkpt lat="50.88195223609231" lon="12.077398940778854"><ele>193.0</ele><time>2026-05-03T16:19:16.939Z</time></trkpt><trkpt lat="50.88185559784083" lon="12.077365450665983"><ele>192.83333333333331</ele><time>2026-05-03T16:19:18.939Z</time></trkpt><trkpt lat="50.88178802755611" lon="12.077344318692019"><ele>192.66666666666666</ele><time>2026-05-03T16:19:20.939Z</time></trkpt><trkpt lat="50.88172559931604" lon="12.077309123954983"><ele>192.5</ele><time>2026-05-03T16:19:27.939Z</time></trkpt><trkpt lat="50.88162778039654" lon="12.077282099993615"><ele>192.33333333333331</ele><time>2026-05-03T16:19:32.939Z</time></trkpt><trkpt lat="50.88154443370786" lon="12.07721349753851"><ele>192.16666666666666</ele><time>2026-05-03T16:19:34.939Z</time></trkpt><trkpt lat="50.88149700419293" lon="12.077132674301911"><ele>192.0</ele><time>2026-05-03T16:19:36.939Z</time></trkpt><trkpt lat="50.88147069406476" lon="12.077025810075225"><ele>192.0</ele><time>2026-05-03T16:19:38.939Z</time></trkpt><trkpt lat="50.88157150165425" lon="12.076870962193878"><ele>192.0</ele><time>2026-05-03T16:19:40.939Z</time></trkpt><trkpt lat="50.88166745088209" lon="12.076757924740784"><ele>192.0</ele><time>2026-05-03T16:19:42.939Z</time></trkpt><trkpt lat="50.88171916008245" lon="12.076700747897027"><ele>192.0</ele><time>2026-05-03T16:19:43.939Z</time></trkpt><trkpt lat="50.881788409618274" lon="12.076608644199034"><ele>192.0</ele><time>2026-05-03T16:19:45.939Z</time></trkpt><trkpt lat="50.881835329151066" lon="12.076526219335927"><ele>191.83333333333334</ele><time>2026-05-03T16:19:47.939Z</time></trkpt><trkpt lat="50.88190403291744" lon="12.076453567490175"><ele>191.66666666666666</ele><time>2026-05-03T16:19:50.939Z</time></trkpt><trkpt lat="50.88195877404215" lon="12.076396202597737"><ele>191.5</ele><time>2026-05-03T16:19:56.94Z</time></trkpt><trkpt lat="50.8820068922067" lon="12.076298766452458"><ele>191.33333333333331</ele><time>2026-05-03T16:20:08.94Z</time></trkpt><trkpt lat="50.88206459180361" lon="12.076223407721978"><ele>191.16666666666666</ele><time>2026-05-03T16:20:17.94Z</time></trkpt><trkpt lat="50.88213897140201" lon="12.076176198613005"><ele>191.0</ele><time>2026-05-03T16:20:20.94Z</time></trkpt><trkpt lat="50.88221519768092" lon="12.07603409147173"><ele>191.0</ele><time>2026-05-03T16:20:21.94Z</time></trkpt><trkpt lat="50.882266550588305" lon="12.075949985339612"><ele>191.0</ele><time>2026-05-03T16:20:22.94Z</time></trkpt><trkpt lat="50.88233889160549" lon="12.075883444016952"><ele>191.0</ele><time>2026-05-03T16:20:23.94Z</time></trkpt><trkpt lat="50.882401002183684" lon="12.075793664387525"><ele>191.0</ele><time>2026-05-03T16:20:24.94Z</time></trkpt><trkpt lat="50.88246102097911" lon="12.075695484526745"><ele>191.0</ele><time>2026-05-03T16:20:25.94Z</time></trkpt><trkpt lat="50.88251351849583" lon="12.075602279177902"><ele>191.0</ele><time>2026-05-03T16:20:26.94Z</time></trkpt><trkpt lat="50.88255657316656" lon="12.07552714246872"><ele>191.33333333333331</ele><time>2026-05-03T16:20:27.94Z</time></trkpt><trkpt lat="50.88261567064263" lon="12.075431792709464"><ele>191.66666666666666</ele><time>2026-05-03T16:20:29.94Z</time></trkpt><trkpt lat="50.882641752701645" lon="12.075339344490432"><ele>192.0</ele><time>2026-05-03T16:21:01.939Z</time></trkpt><trkpt lat="50.88268896141484" lon="12.075268191170709"><ele>192.33333333333331</ele><time>2026-05-03T16:21:02.939Z</time></trkpt><trkpt lat="50.88277362648719" lon="12.07519696783789"><ele>192.66666666666666</ele><time>2026-05-03T16:21:03.939Z</time></trkpt><trkpt lat="50.882885085734316" lon="12.075135443032503"><ele>193.0</ele><time>2026-05-03T16:21:04.939Z</time></trkpt><trkpt lat="50.883009086068085" lon="12.07509860592205"><ele>193.0</ele><time>2026-05-03T16:21:05.939Z</time></trkpt><trkpt lat="50.88314354332531" lon="12.075073691277384"><ele>193.0</ele><time>2026-05-03T16:21:06.939Z</time></trkpt><trkpt lat="50.88329372252207" lon="12.075034572920275"><ele>193.0</ele><time>2026-05-03T16:21:07.939Z</time></trkpt><trkpt lat="50.883446771155405" lon="12.074993513318775"><ele>193.0</ele><time>2026-05-03T16:21:08.939Z</time></trkpt><trkpt lat="50.8836068155074" lon="12.074944389054028"><ele>192.66666666666666</ele><time>2026-05-03T16:21:09.939Z</time></trkpt><trkpt lat="50.88377312516412" lon="12.074883124275889"><ele>192.33333333333331</ele><time>2026-05-03T16:21:10.939Z</time></trkpt><trkpt lat="50.88394039021155" lon="12.074823158386979"><ele>192.0</ele><time>2026-05-03T16:21:11.939Z</time></trkpt><trkpt lat="50.88410880559651" lon="12.074807040602549"><ele>192.0</ele><time>2026-05-03T16:21:12.939Z</time></trkpt><trkpt lat="50.88425804297218" lon="12.074756830856405"><ele>192.0</ele><time>2026-05-03T16:21:13.939Z</time></trkpt><trkpt lat="50.884392043149404" lon="12.074725687329286"><ele>192.0</ele><time>2026-05-03T16:21:14.939Z</time></trkpt><trkpt lat="50.88452271925801" lon="12.074695082907173"><ele>192.0</ele><time>2026-05-03T16:21:15.939Z</time></trkpt><trkpt lat="50.884642548258626" lon="12.074677089133829"><ele>191.5</ele><time>2026-05-03T16:21:16.939Z</time></trkpt><trkpt lat="50.88475419541174" lon="12.074654629721106"><ele>191.0</ele><time>2026-05-03T16:21:17.939Z</time></trkpt><trkpt lat="50.88486354990333" lon="12.074633305860287"><ele>190.5</ele><time>2026-05-03T16:21:18.939Z</time></trkpt><trkpt lat="50.884983019050296" lon="12.074609688342525"><ele>190.0</ele><time>2026-05-03T16:21:19.939Z</time></trkpt><trkpt lat="50.88510803290677" lon="12.074580392684226"><ele>190.0</ele><time>2026-05-03T16:21:20.939Z</time></trkpt><trkpt lat="50.88524337664574" lon="12.07455226066341"><ele>190.0</ele><time>2026-05-03T16:21:21.939Z</time></trkpt><trkpt lat="50.88538692200229" lon="12.074521175746245"><ele>190.0</ele><time>2026-05-03T16:21:22.939Z</time></trkpt><trkpt lat="50.88553250034476" lon="12.0744856196915"><ele>190.0</ele><time>2026-05-03T16:21:23.939Z</time></trkpt><trkpt lat="50.88567183458449" lon="12.074458723931462"><ele>190.0</ele><time>2026-05-03T16:21:24.939Z</time></trkpt><trkpt lat="50.885820163374746" lon="12.074435198190498"><ele>190.0</ele><time>2026-05-03T16:21:25.939Z</time></trkpt><trkpt lat="50.88597641037915" lon="12.074405909010457"><ele>190.0</ele><time>2026-05-03T16:21:26.939Z</time></trkpt><trkpt lat="50.886122161597136" lon="12.074380971874207"><ele>190.0</ele><time>2026-05-03T16:21:27.939Z</time></trkpt><trkpt lat="50.88626771475271" lon="12.074387489096992"><ele>190.0</ele><time>2026-05-03T16:21:28.939Z</time></trkpt><trkpt lat="50.88640109661303" lon="12.074355316170625"><ele>190.0</ele><time>2026-05-03T16:21:29.939Z</time></trkpt><trkpt lat="50.88652603269538" lon="12.074331070504234"><ele>190.0</ele><time>2026-05-03T16:21:30.939Z</time></trkpt><trkpt lat="50.88662465102565" lon="12.07431435706865"><ele>190.0</ele><time>2026-05-03T16:21:31.939Z</time></trkpt><trkpt lat="50.88669559093138" lon="12.074300189235633"><ele>190.0</ele><time>2026-05-03T16:21:32.939Z</time></trkpt><trkpt lat="50.88675697254323" lon="12.074351840493122"><ele>190.0</ele><time>2026-05-03T16:21:34.939Z</time></trkpt><trkpt lat="50.886789424014566" lon="12.074547875253751"><ele>190.0</ele><time>2026-05-03T16:21:36.939Z</time></trkpt><trkpt lat="50.886841379014605" lon="12.07469640474728"><ele>190.0</ele><time>2026-05-03T16:21:38.939Z</time></trkpt><trkpt lat="50.8869112521375" lon="12.07479983685688"><ele>190.0</ele><time>2026-05-03T16:21:40.939Z</time></trkpt><trkpt lat="50.88698304010099" lon="12.074898192982415"><ele>190.0</ele><time>2026-05-03T16:21:42.939Z</time></trkpt><trkpt lat="50.88707054379763" lon="12.07497457853852"><ele>190.0</ele><time>2026-05-03T16:21:44.939Z</time></trkpt><trkpt lat="50.8871335346476" lon="12.075059601887983"><ele>190.0</ele><time>2026-05-03T16:21:46.939Z</time></trkpt><trkpt lat="50.887248523351886" lon="12.075138607470313"><ele>190.0</ele><time>2026-05-03T16:21:52.939Z</time></trkpt><trkpt lat="50.887311355095726" lon="12.075124205769603"><ele>190.0</ele><time>2026-05-03T16:21:53.939Z</time></trkpt><trkpt lat="50.88739669438324" lon="12.075104645097566"><ele>190.0</ele><time>2026-05-03T16:21:54.939Z</time></trkpt><trkpt lat="50.88742135091871" lon="12.074842392958335"><ele>190.0</ele><time>2026-05-03T16:25:13.938Z</time></trkpt></trkseg></trk></gpx>